<?xml version="1.0" encoding="utf-8"?>
<gpx xmlns:xsi="http://www.w3.org/2001/XMLSchema-instance" xmlns:xsd="http://www.w3.org/2001/XMLSchema" version="1.1" creator="Shapelink.com" xmlns="http://www.topografix.com/GPX/1/1" xmlns:gpxtpx="http://www.garmin.com/xmlschemas/TrackPointExtension/v1">
  <metadata>
    <name>Cykling 164.44 km, 2020-03-26</name>
    <desc></desc>
    <author><name>Alexander Engvall</name></author> 
    <time>2020-03-26T07:38:01Z</time>
  </metadata>
  <trk>
    <name>Cykling 164.44 km, 2020-03-26</name>
    <trkseg>
      <trkpt lat="59.219647" lon="17.906827">
        <ele>42.6</ele>
        <time>2020-03-26T07:38:01Z</time>
      </trkpt>
      <trkpt lat="59.219516" lon="17.906805">
        <ele>42.2</ele>
        <time>2020-03-26T07:38:03Z</time>
      </trkpt>
      <trkpt lat="59.219417" lon="17.906826">
        <ele>41.9</ele>
        <time>2020-03-26T07:38:04Z</time>
      </trkpt>
      <trkpt lat="59.219364" lon="17.906905">
        <ele>41.7</ele>
        <time>2020-03-26T07:38:05Z</time>
      </trkpt>
      <trkpt lat="59.219182" lon="17.90718">
        <ele>41.3</ele>
        <time>2020-03-26T07:38:08Z</time>
      </trkpt>
      <trkpt lat="59.219007" lon="17.907443">
        <ele>41.1</ele>
        <time>2020-03-26T07:38:11Z</time>
      </trkpt>
      <trkpt lat="59.218994" lon="17.907412">
        <ele>40.7</ele>
        <time>2020-03-26T07:38:12Z</time>
      </trkpt>
      <trkpt lat="59.218795" lon="17.90689">
        <ele>40.5</ele>
        <time>2020-03-26T07:38:17Z</time>
      </trkpt>
      <trkpt lat="59.218584" lon="17.906359">
        <ele>40.4</ele>
        <time>2020-03-26T07:38:22Z</time>
      </trkpt>
      <trkpt lat="59.21833" lon="17.905716">
        <ele>40.3</ele>
        <time>2020-03-26T07:38:28Z</time>
      </trkpt>
      <trkpt lat="59.217831" lon="17.904397">
        <ele>40.4</ele>
        <time>2020-03-26T07:38:40Z</time>
      </trkpt>
      <trkpt lat="59.217377" lon="17.90325">
        <ele>40.5</ele>
        <time>2020-03-26T07:38:50Z</time>
      </trkpt>
      <trkpt lat="59.2172" lon="17.903048">
        <ele>40.5</ele>
        <time>2020-03-26T07:38:53Z</time>
      </trkpt>
      <trkpt lat="59.217158" lon="17.903102">
        <ele>40.5</ele>
        <time>2020-03-26T07:38:54Z</time>
      </trkpt>
      <trkpt lat="59.2171" lon="17.903111">
        <ele>40.3</ele>
        <time>2020-03-26T07:38:55Z</time>
      </trkpt>
      <trkpt lat="59.217034" lon="17.903036">
        <ele>39.7</ele>
        <time>2020-03-26T07:38:56Z</time>
      </trkpt>
      <trkpt lat="59.21698" lon="17.902951">
        <ele>40.5</ele>
        <time>2020-03-26T07:38:57Z</time>
      </trkpt>
      <trkpt lat="59.217012" lon="17.902939">
        <ele>41.4</ele>
        <time>2020-03-26T07:38:58Z</time>
      </trkpt>
      <trkpt lat="59.217034" lon="17.903036">
        <ele>42.1</ele>
        <time>2020-03-26T07:38:59Z</time>
      </trkpt>
      <trkpt lat="59.216962" lon="17.903176">
        <ele>42.7</ele>
        <time>2020-03-26T07:39:00Z</time>
      </trkpt>
      <trkpt lat="59.216803" lon="17.903655">
        <ele>43.5</ele>
        <time>2020-03-26T07:39:04Z</time>
      </trkpt>
      <trkpt lat="59.216678" lon="17.904785">
        <ele>44.6</ele>
        <time>2020-03-26T07:39:13Z</time>
      </trkpt>
      <trkpt lat="59.216544" lon="17.905724">
        <ele>45.7</ele>
        <time>2020-03-26T07:39:20Z</time>
      </trkpt>
      <trkpt lat="59.216455" lon="17.906489">
        <ele>47.7</ele>
        <time>2020-03-26T07:39:26Z</time>
      </trkpt>
      <trkpt lat="59.21634" lon="17.906693">
        <ele>48.7</ele>
        <time>2020-03-26T07:39:29Z</time>
      </trkpt>
      <trkpt lat="59.216094" lon="17.907069">
        <ele>49.5</ele>
        <time>2020-03-26T07:39:33Z</time>
      </trkpt>
      <trkpt lat="59.216002" lon="17.907263">
        <ele>49.5</ele>
        <time>2020-03-26T07:39:35Z</time>
      </trkpt>
      <trkpt lat="59.215886" lon="17.907662">
        <ele>49.5</ele>
        <time>2020-03-26T07:39:38Z</time>
      </trkpt>
      <trkpt lat="59.21588" lon="17.908382">
        <ele>49.4</ele>
        <time>2020-03-26T07:39:44Z</time>
      </trkpt>
      <trkpt lat="59.215903" lon="17.908794">
        <ele>49.3</ele>
        <time>2020-03-26T07:39:47Z</time>
      </trkpt>
      <trkpt lat="59.215898" lon="17.908939">
        <ele>49.1</ele>
        <time>2020-03-26T07:39:48Z</time>
      </trkpt>
      <trkpt lat="59.215852" lon="17.909533">
        <ele>48.7</ele>
        <time>2020-03-26T07:39:52Z</time>
      </trkpt>
      <trkpt lat="59.2157" lon="17.911456">
        <ele>48.5</ele>
        <time>2020-03-26T07:40:07Z</time>
      </trkpt>
      <trkpt lat="59.215627" lon="17.91227">
        <ele>48.3</ele>
        <time>2020-03-26T07:40:13Z</time>
      </trkpt>
      <trkpt lat="59.21557" lon="17.912969">
        <ele>48.2</ele>
        <time>2020-03-26T07:40:18Z</time>
      </trkpt>
      <trkpt lat="59.215553" lon="17.913112">
        <ele>48.1</ele>
        <time>2020-03-26T07:40:19Z</time>
      </trkpt>
      <trkpt lat="59.215408" lon="17.913805">
        <ele>48.3</ele>
        <time>2020-03-26T07:40:25Z</time>
      </trkpt>
      <trkpt lat="59.215392" lon="17.914042">
        <ele>48.7</ele>
        <time>2020-03-26T07:40:26Z</time>
      </trkpt>
      <trkpt lat="59.215376" lon="17.914272">
        <ele>49.5</ele>
        <time>2020-03-26T07:40:28Z</time>
      </trkpt>
      <trkpt lat="59.215326" lon="17.914381">
        <ele>50.2</ele>
        <time>2020-03-26T07:40:29Z</time>
      </trkpt>
      <trkpt lat="59.215295" lon="17.914459">
        <ele>50.9</ele>
        <time>2020-03-26T07:40:30Z</time>
      </trkpt>
      <trkpt lat="59.215067" lon="17.914729">
        <ele>51.7</ele>
        <time>2020-03-26T07:40:34Z</time>
      </trkpt>
      <trkpt lat="59.21489" lon="17.914915">
        <ele>52.5</ele>
        <time>2020-03-26T07:40:37Z</time>
      </trkpt>
      <trkpt lat="59.214697" lon="17.915037">
        <ele>53.4</ele>
        <time>2020-03-26T07:40:40Z</time>
      </trkpt>
      <trkpt lat="59.214284" lon="17.915306">
        <ele>54.3</ele>
        <time>2020-03-26T07:40:46Z</time>
      </trkpt>
      <trkpt lat="59.213935" lon="17.915574">
        <ele>55.3</ele>
        <time>2020-03-26T07:40:51Z</time>
      </trkpt>
      <trkpt lat="59.213514" lon="17.915832">
        <ele>56.3</ele>
        <time>2020-03-26T07:40:58Z</time>
      </trkpt>
      <trkpt lat="59.21326" lon="17.916014">
        <ele>57.1</ele>
        <time>2020-03-26T07:41:02Z</time>
      </trkpt>
      <trkpt lat="59.213013" lon="17.916173">
        <ele>57.7</ele>
        <time>2020-03-26T07:41:05Z</time>
      </trkpt>
      <trkpt lat="59.21268" lon="17.916258">
        <ele>58.2</ele>
        <time>2020-03-26T07:41:10Z</time>
      </trkpt>
      <trkpt lat="59.212557" lon="17.916318">
        <ele>58.7</ele>
        <time>2020-03-26T07:41:12Z</time>
      </trkpt>
      <trkpt lat="59.212523" lon="17.916403">
        <ele>59.5</ele>
        <time>2020-03-26T07:41:13Z</time>
      </trkpt>
      <trkpt lat="59.212419" lon="17.916473">
        <ele>60.3</ele>
        <time>2020-03-26T07:41:15Z</time>
      </trkpt>
      <trkpt lat="59.212379" lon="17.916336">
        <ele>60.7</ele>
        <time>2020-03-26T07:41:16Z</time>
      </trkpt>
      <trkpt lat="59.212309" lon="17.916313">
        <ele>60.5</ele>
        <time>2020-03-26T07:41:17Z</time>
      </trkpt>
      <trkpt lat="59.212266" lon="17.916209">
        <ele>60</ele>
        <time>2020-03-26T07:41:18Z</time>
      </trkpt>
      <trkpt lat="59.212191" lon="17.916234">
        <ele>59.5</ele>
        <time>2020-03-26T07:41:19Z</time>
      </trkpt>
      <trkpt lat="59.211865" lon="17.916453">
        <ele>57.5</ele>
        <time>2020-03-26T07:41:24Z</time>
      </trkpt>
      <trkpt lat="59.210081" lon="17.91778">
        <ele>55.5</ele>
        <time>2020-03-26T07:41:51Z</time>
      </trkpt>
      <trkpt lat="59.209544" lon="17.918221">
        <ele>53.1</ele>
        <time>2020-03-26T07:42:00Z</time>
      </trkpt>
      <trkpt lat="59.209468" lon="17.918272">
        <ele>47.9</ele>
        <time>2020-03-26T07:42:01Z</time>
      </trkpt>
      <trkpt lat="59.206744" lon="17.906856">
        <ele>45.1</ele>
        <time>2020-03-26T07:43:34Z</time>
      </trkpt>
      <trkpt lat="59.204635" lon="17.899646">
        <ele>42.1</ele>
        <time>2020-03-26T07:44:36Z</time>
      </trkpt>
      <trkpt lat="59.202569" lon="17.894239">
        <ele>39.9</ele>
        <time>2020-03-26T07:45:26Z</time>
      </trkpt>
      <trkpt lat="59.202638" lon="17.894144">
        <ele>38.1</ele>
        <time>2020-03-26T07:45:27Z</time>
      </trkpt>
      <trkpt lat="59.202548" lon="17.893898">
        <ele>36.3</ele>
        <time>2020-03-26T07:45:29Z</time>
      </trkpt>
      <trkpt lat="59.202264" lon="17.893149">
        <ele>34.5</ele>
        <time>2020-03-26T07:45:36Z</time>
      </trkpt>
      <trkpt lat="59.202163" lon="17.892831">
        <ele>33.6</ele>
        <time>2020-03-26T07:45:39Z</time>
      </trkpt>
      <trkpt lat="59.20144" lon="17.889716">
        <ele>32.2</ele>
        <time>2020-03-26T07:46:04Z</time>
      </trkpt>
      <trkpt lat="59.201184" lon="17.888868">
        <ele>31</ele>
        <time>2020-03-26T07:46:11Z</time>
      </trkpt>
      <trkpt lat="59.200824" lon="17.887853">
        <ele>29.9</ele>
        <time>2020-03-26T07:46:20Z</time>
      </trkpt>
      <trkpt lat="59.200478" lon="17.886908">
        <ele>29</ele>
        <time>2020-03-26T07:46:29Z</time>
      </trkpt>
      <trkpt lat="59.200181" lon="17.886132">
        <ele>28.3</ele>
        <time>2020-03-26T07:46:36Z</time>
      </trkpt>
      <trkpt lat="59.19986" lon="17.885198">
        <ele>27.5</ele>
        <time>2020-03-26T07:46:45Z</time>
      </trkpt>
      <trkpt lat="59.199777" lon="17.884822">
        <ele>26.4</ele>
        <time>2020-03-26T07:46:48Z</time>
      </trkpt>
      <trkpt lat="59.199716" lon="17.884475">
        <ele>25.4</ele>
        <time>2020-03-26T07:46:50Z</time>
      </trkpt>
      <trkpt lat="59.199645" lon="17.883834">
        <ele>24.5</ele>
        <time>2020-03-26T07:46:55Z</time>
      </trkpt>
      <trkpt lat="59.199631" lon="17.883618">
        <ele>23.5</ele>
        <time>2020-03-26T07:46:57Z</time>
      </trkpt>
      <trkpt lat="59.199622" lon="17.883388">
        <ele>23.4</ele>
        <time>2020-03-26T07:46:59Z</time>
      </trkpt>
      <trkpt lat="59.199505" lon="17.883518">
        <ele>23.8</ele>
        <time>2020-03-26T07:47:00Z</time>
      </trkpt>
      <trkpt lat="59.199487" lon="17.883399">
        <ele>24.4</ele>
        <time>2020-03-26T07:47:01Z</time>
      </trkpt>
      <trkpt lat="59.199548" lon="17.883217">
        <ele>24.7</ele>
        <time>2020-03-26T07:47:03Z</time>
      </trkpt>
      <trkpt lat="59.199561" lon="17.882737">
        <ele>25.5</ele>
        <time>2020-03-26T07:47:07Z</time>
      </trkpt>
      <trkpt lat="59.199639" lon="17.881543">
        <ele>26.1</ele>
        <time>2020-03-26T07:47:15Z</time>
      </trkpt>
      <trkpt lat="59.199686" lon="17.880781">
        <ele>26.7</ele>
        <time>2020-03-26T07:47:21Z</time>
      </trkpt>
      <trkpt lat="59.199823" lon="17.879963">
        <ele>27.3</ele>
        <time>2020-03-26T07:47:27Z</time>
      </trkpt>
      <trkpt lat="59.200007" lon="17.878885">
        <ele>27.8</ele>
        <time>2020-03-26T07:47:36Z</time>
      </trkpt>
      <trkpt lat="59.200352" lon="17.876949">
        <ele>28.2</ele>
        <time>2020-03-26T07:47:51Z</time>
      </trkpt>
      <trkpt lat="59.200379" lon="17.876801">
        <ele>28.4</ele>
        <time>2020-03-26T07:47:52Z</time>
      </trkpt>
      <trkpt lat="59.200577" lon="17.875648">
        <ele>28.5</ele>
        <time>2020-03-26T07:48:01Z</time>
      </trkpt>
      <trkpt lat="59.200707" lon="17.874768">
        <ele>28.6</ele>
        <time>2020-03-26T07:48:08Z</time>
      </trkpt>
      <trkpt lat="59.20077" lon="17.873995">
        <ele>28.7</ele>
        <time>2020-03-26T07:48:14Z</time>
      </trkpt>
      <trkpt lat="59.200764" lon="17.873168">
        <ele>29.1</ele>
        <time>2020-03-26T07:48:20Z</time>
      </trkpt>
      <trkpt lat="59.200734" lon="17.872338">
        <ele>29.1</ele>
        <time>2020-03-26T07:48:26Z</time>
      </trkpt>
      <trkpt lat="59.200679" lon="17.871882">
        <ele>29.1</ele>
        <time>2020-03-26T07:48:30Z</time>
      </trkpt>
      <trkpt lat="59.200591" lon="17.871552">
        <ele>29.2</ele>
        <time>2020-03-26T07:48:32Z</time>
      </trkpt>
      <trkpt lat="59.200567" lon="17.871485">
        <ele>29.3</ele>
        <time>2020-03-26T07:48:33Z</time>
      </trkpt>
      <trkpt lat="59.200282" lon="17.870825">
        <ele>29.4</ele>
        <time>2020-03-26T07:48:39Z</time>
      </trkpt>
      <trkpt lat="59.200214" lon="17.870661">
        <ele>29.5</ele>
        <time>2020-03-26T07:48:41Z</time>
      </trkpt>
      <trkpt lat="59.199863" lon="17.869982">
        <ele>29.6</ele>
        <time>2020-03-26T07:48:48Z</time>
      </trkpt>
      <trkpt lat="59.199687" lon="17.869559">
        <ele>29.2</ele>
        <time>2020-03-26T07:48:52Z</time>
      </trkpt>
      <trkpt lat="59.199708" lon="17.869446">
        <ele>27.5</ele>
        <time>2020-03-26T07:48:53Z</time>
      </trkpt>
      <trkpt lat="59.199603" lon="17.869126">
        <ele>26.7</ele>
        <time>2020-03-26T07:48:56Z</time>
      </trkpt>
      <trkpt lat="59.199455" lon="17.868675">
        <ele>25.8</ele>
        <time>2020-03-26T07:49:00Z</time>
      </trkpt>
      <trkpt lat="59.19921" lon="17.867776">
        <ele>24.9</ele>
        <time>2020-03-26T07:49:08Z</time>
      </trkpt>
      <trkpt lat="59.199021" lon="17.866797">
        <ele>23.9</ele>
        <time>2020-03-26T07:49:15Z</time>
      </trkpt>
      <trkpt lat="59.198904" lon="17.865913">
        <ele>22.8</ele>
        <time>2020-03-26T07:49:22Z</time>
      </trkpt>
      <trkpt lat="59.198847" lon="17.865033">
        <ele>21.9</ele>
        <time>2020-03-26T07:49:29Z</time>
      </trkpt>
      <trkpt lat="59.198857" lon="17.862541">
        <ele>21.3</ele>
        <time>2020-03-26T07:49:47Z</time>
      </trkpt>
      <trkpt lat="59.19886" lon="17.86179">
        <ele>20.8</ele>
        <time>2020-03-26T07:49:53Z</time>
      </trkpt>
      <trkpt lat="59.198862" lon="17.861373">
        <ele>20.9</ele>
        <time>2020-03-26T07:49:56Z</time>
      </trkpt>
      <trkpt lat="59.198874" lon="17.860534">
        <ele>21.2</ele>
        <time>2020-03-26T07:50:02Z</time>
      </trkpt>
      <trkpt lat="59.198874" lon="17.859528">
        <ele>21.4</ele>
        <time>2020-03-26T07:50:10Z</time>
      </trkpt>
      <trkpt lat="59.198974" lon="17.856312">
        <ele>21.3</ele>
        <time>2020-03-26T07:50:33Z</time>
      </trkpt>
      <trkpt lat="59.198992" lon="17.855689">
        <ele>21.2</ele>
        <time>2020-03-26T07:50:38Z</time>
      </trkpt>
      <trkpt lat="59.199014" lon="17.854834">
        <ele>20.4</ele>
        <time>2020-03-26T07:50:44Z</time>
      </trkpt>
      <trkpt lat="59.19902" lon="17.854592">
        <ele>19.4</ele>
        <time>2020-03-26T07:50:46Z</time>
      </trkpt>
      <trkpt lat="59.199045" lon="17.853771">
        <ele>18.4</ele>
        <time>2020-03-26T07:50:52Z</time>
      </trkpt>
      <trkpt lat="59.199073" lon="17.853006">
        <ele>17.1</ele>
        <time>2020-03-26T07:50:58Z</time>
      </trkpt>
      <trkpt lat="59.199076" lon="17.852784">
        <ele>15.6</ele>
        <time>2020-03-26T07:51:00Z</time>
      </trkpt>
      <trkpt lat="59.199114" lon="17.850123">
        <ele>14.3</ele>
        <time>2020-03-26T07:51:19Z</time>
      </trkpt>
      <trkpt lat="59.199149" lon="17.847347">
        <ele>15</ele>
        <time>2020-03-26T07:51:40Z</time>
      </trkpt>
      <trkpt lat="59.199149" lon="17.846716">
        <ele>14.8</ele>
        <time>2020-03-26T07:51:44Z</time>
      </trkpt>
      <trkpt lat="59.199143" lon="17.846016">
        <ele>15</ele>
        <time>2020-03-26T07:51:50Z</time>
      </trkpt>
      <trkpt lat="59.199153" lon="17.844889">
        <ele>15.9</ele>
        <time>2020-03-26T07:51:58Z</time>
      </trkpt>
      <trkpt lat="59.199009" lon="17.840766">
        <ele>17.1</ele>
        <time>2020-03-26T07:52:29Z</time>
      </trkpt>
      <trkpt lat="59.1969" lon="17.833986">
        <ele>20.4</ele>
        <time>2020-03-26T07:53:27Z</time>
      </trkpt>
      <trkpt lat="59.194175" lon="17.827634">
        <ele>24.5</ele>
        <time>2020-03-26T07:54:29Z</time>
      </trkpt>
      <trkpt lat="59.191361" lon="17.823343">
        <ele>28.7</ele>
        <time>2020-03-26T07:55:20Z</time>
      </trkpt>
      <trkpt lat="59.18824" lon="17.819395">
        <ele>32.8</ele>
        <time>2020-03-26T07:56:14Z</time>
      </trkpt>
      <trkpt lat="59.187185" lon="17.817935">
        <ele>36.9</ele>
        <time>2020-03-26T07:56:33Z</time>
      </trkpt>
      <trkpt lat="59.185646" lon="17.816991">
        <ele>41.2</ele>
        <time>2020-03-26T07:56:56Z</time>
      </trkpt>
      <trkpt lat="59.183362" lon="17.815332">
        <ele>46.7</ele>
        <time>2020-03-26T07:57:31Z</time>
      </trkpt>
      <trkpt lat="59.183012" lon="17.815221">
        <ele>50.2</ele>
        <time>2020-03-26T07:57:36Z</time>
      </trkpt>
      <trkpt lat="59.182868" lon="17.81519">
        <ele>53.2</ele>
        <time>2020-03-26T07:57:39Z</time>
      </trkpt>
      <trkpt lat="59.182487" lon="17.815092">
        <ele>56</ele>
        <time>2020-03-26T07:57:44Z</time>
      </trkpt>
      <trkpt lat="59.182097" lon="17.814996">
        <ele>57.5</ele>
        <time>2020-03-26T07:57:50Z</time>
      </trkpt>
      <trkpt lat="59.181767" lon="17.814866">
        <ele>58.3</ele>
        <time>2020-03-26T07:57:55Z</time>
      </trkpt>
      <trkpt lat="59.181458" lon="17.814644">
        <ele>58.8</ele>
        <time>2020-03-26T07:57:59Z</time>
      </trkpt>
      <trkpt lat="59.181187" lon="17.814362">
        <ele>59.7</ele>
        <time>2020-03-26T07:58:04Z</time>
      </trkpt>
      <trkpt lat="59.180773" lon="17.813752">
        <ele>60.7</ele>
        <time>2020-03-26T07:58:11Z</time>
      </trkpt>
      <trkpt lat="59.180713" lon="17.813637">
        <ele>61.5</ele>
        <time>2020-03-26T07:58:13Z</time>
      </trkpt>
      <trkpt lat="59.18049" lon="17.813234">
        <ele>62.2</ele>
        <time>2020-03-26T07:58:17Z</time>
      </trkpt>
      <trkpt lat="59.180012" lon="17.812322">
        <ele>62.7</ele>
        <time>2020-03-26T07:58:27Z</time>
      </trkpt>
      <trkpt lat="59.17962" lon="17.811733">
        <ele>63</ele>
        <time>2020-03-26T07:58:34Z</time>
      </trkpt>
      <trkpt lat="59.179345" lon="17.81138">
        <ele>63.3</ele>
        <time>2020-03-26T07:58:38Z</time>
      </trkpt>
      <trkpt lat="59.179103" lon="17.811115">
        <ele>63.5</ele>
        <time>2020-03-26T07:58:42Z</time>
      </trkpt>
      <trkpt lat="59.178826" lon="17.810784">
        <ele>63.7</ele>
        <time>2020-03-26T07:58:47Z</time>
      </trkpt>
      <trkpt lat="59.178592" lon="17.81044">
        <ele>64.2</ele>
        <time>2020-03-26T07:58:51Z</time>
      </trkpt>
      <trkpt lat="59.178506" lon="17.810271">
        <ele>64.5</ele>
        <time>2020-03-26T07:58:53Z</time>
      </trkpt>
      <trkpt lat="59.178348" lon="17.810065">
        <ele>65</ele>
        <time>2020-03-26T07:58:56Z</time>
      </trkpt>
      <trkpt lat="59.178067" lon="17.80964">
        <ele>65.5</ele>
        <time>2020-03-26T07:59:01Z</time>
      </trkpt>
      <trkpt lat="59.17768" lon="17.808943">
        <ele>66.1</ele>
        <time>2020-03-26T07:59:09Z</time>
      </trkpt>
      <trkpt lat="59.177263" lon="17.80808">
        <ele>66.6</ele>
        <time>2020-03-26T07:59:17Z</time>
      </trkpt>
      <trkpt lat="59.176869" lon="17.807212">
        <ele>67.4</ele>
        <time>2020-03-26T07:59:26Z</time>
      </trkpt>
      <trkpt lat="59.176507" lon="17.806532">
        <ele>68.1</ele>
        <time>2020-03-26T07:59:33Z</time>
      </trkpt>
      <trkpt lat="59.176187" lon="17.806041">
        <ele>68.5</ele>
        <time>2020-03-26T07:59:39Z</time>
      </trkpt>
      <trkpt lat="59.175934" lon="17.805674">
        <ele>68.7</ele>
        <time>2020-03-26T07:59:44Z</time>
      </trkpt>
      <trkpt lat="59.175696" lon="17.80539">
        <ele>68.9</ele>
        <time>2020-03-26T07:59:48Z</time>
      </trkpt>
      <trkpt lat="59.174833" lon="17.804542">
        <ele>68.9</ele>
        <time>2020-03-26T08:00:02Z</time>
      </trkpt>
      <trkpt lat="59.174051" lon="17.803715">
        <ele>68.8</ele>
        <time>2020-03-26T08:00:15Z</time>
      </trkpt>
      <trkpt lat="59.173681" lon="17.803248">
        <ele>67.9</ele>
        <time>2020-03-26T08:00:21Z</time>
      </trkpt>
      <trkpt lat="59.173557" lon="17.803024">
        <ele>66.7</ele>
        <time>2020-03-26T08:00:23Z</time>
      </trkpt>
      <trkpt lat="59.17344" lon="17.802722">
        <ele>65.4</ele>
        <time>2020-03-26T08:00:26Z</time>
      </trkpt>
      <trkpt lat="59.173256" lon="17.802195">
        <ele>62.1</ele>
        <time>2020-03-26T08:00:31Z</time>
      </trkpt>
      <trkpt lat="59.172558" lon="17.800016">
        <ele>60.3</ele>
        <time>2020-03-26T08:00:50Z</time>
      </trkpt>
      <trkpt lat="59.172357" lon="17.799473">
        <ele>58.6</ele>
        <time>2020-03-26T08:00:55Z</time>
      </trkpt>
      <trkpt lat="59.172285" lon="17.799295">
        <ele>57</ele>
        <time>2020-03-26T08:00:57Z</time>
      </trkpt>
      <trkpt lat="59.172229" lon="17.79916">
        <ele>55.4</ele>
        <time>2020-03-26T08:00:58Z</time>
      </trkpt>
      <trkpt lat="59.1721" lon="17.798902">
        <ele>53.5</ele>
        <time>2020-03-26T08:01:01Z</time>
      </trkpt>
      <trkpt lat="59.171991" lon="17.798747">
        <ele>51.6</ele>
        <time>2020-03-26T08:01:03Z</time>
      </trkpt>
      <trkpt lat="59.17187" lon="17.798589">
        <ele>50.3</ele>
        <time>2020-03-26T08:01:05Z</time>
      </trkpt>
      <trkpt lat="59.171698" lon="17.798403">
        <ele>49.1</ele>
        <time>2020-03-26T08:01:07Z</time>
      </trkpt>
      <trkpt lat="59.171441" lon="17.798229">
        <ele>47.9</ele>
        <time>2020-03-26T08:01:11Z</time>
      </trkpt>
      <trkpt lat="59.171087" lon="17.798081">
        <ele>46.7</ele>
        <time>2020-03-26T08:01:17Z</time>
      </trkpt>
      <trkpt lat="59.170648" lon="17.797914">
        <ele>45.4</ele>
        <time>2020-03-26T08:01:23Z</time>
      </trkpt>
      <trkpt lat="59.170372" lon="17.79784">
        <ele>44</ele>
        <time>2020-03-26T08:01:27Z</time>
      </trkpt>
      <trkpt lat="59.169349" lon="17.797696">
        <ele>42.8</ele>
        <time>2020-03-26T08:01:42Z</time>
      </trkpt>
      <trkpt lat="59.168926" lon="17.797689">
        <ele>41.7</ele>
        <time>2020-03-26T08:01:48Z</time>
      </trkpt>
      <trkpt lat="59.168404" lon="17.797743">
        <ele>40.6</ele>
        <time>2020-03-26T08:01:56Z</time>
      </trkpt>
      <trkpt lat="59.167593" lon="17.797981">
        <ele>39.7</ele>
        <time>2020-03-26T08:02:07Z</time>
      </trkpt>
      <trkpt lat="59.167206" lon="17.798106">
        <ele>38.9</ele>
        <time>2020-03-26T08:02:13Z</time>
      </trkpt>
      <trkpt lat="59.16697" lon="17.798156">
        <ele>38.1</ele>
        <time>2020-03-26T08:02:17Z</time>
      </trkpt>
      <trkpt lat="59.166812" lon="17.79815">
        <ele>37</ele>
        <time>2020-03-26T08:02:19Z</time>
      </trkpt>
      <trkpt lat="59.166664" lon="17.798106">
        <ele>35.8</ele>
        <time>2020-03-26T08:02:21Z</time>
      </trkpt>
      <trkpt lat="59.166522" lon="17.798019">
        <ele>34.5</ele>
        <time>2020-03-26T08:02:23Z</time>
      </trkpt>
      <trkpt lat="59.166193" lon="17.797801">
        <ele>33.5</ele>
        <time>2020-03-26T08:02:28Z</time>
      </trkpt>
      <trkpt lat="59.165899" lon="17.797613">
        <ele>32.4</ele>
        <time>2020-03-26T08:02:33Z</time>
      </trkpt>
      <trkpt lat="59.165342" lon="17.797294">
        <ele>31.1</ele>
        <time>2020-03-26T08:02:41Z</time>
      </trkpt>
      <trkpt lat="59.165186" lon="17.797208">
        <ele>29.8</ele>
        <time>2020-03-26T08:02:43Z</time>
      </trkpt>
      <trkpt lat="59.164842" lon="17.797024">
        <ele>28.5</ele>
        <time>2020-03-26T08:02:49Z</time>
      </trkpt>
      <trkpt lat="59.164513" lon="17.796843">
        <ele>27.3</ele>
        <time>2020-03-26T08:02:53Z</time>
      </trkpt>
      <trkpt lat="59.164221" lon="17.796735">
        <ele>26.2</ele>
        <time>2020-03-26T08:02:58Z</time>
      </trkpt>
      <trkpt lat="59.164116" lon="17.796657">
        <ele>25.7</ele>
        <time>2020-03-26T08:02:59Z</time>
      </trkpt>
      <trkpt lat="59.164079" lon="17.796637">
        <ele>25.7</ele>
        <time>2020-03-26T08:03:00Z</time>
      </trkpt>
      <trkpt lat="59.16395" lon="17.796681">
        <ele>25.9</ele>
        <time>2020-03-26T08:03:02Z</time>
      </trkpt>
      <trkpt lat="59.163599" lon="17.797052">
        <ele>26.1</ele>
        <time>2020-03-26T08:03:08Z</time>
      </trkpt>
      <trkpt lat="59.163066" lon="17.79798">
        <ele>26.3</ele>
        <time>2020-03-26T08:03:18Z</time>
      </trkpt>
      <trkpt lat="59.16253" lon="17.79907">
        <ele>26.5</ele>
        <time>2020-03-26T08:03:29Z</time>
      </trkpt>
      <trkpt lat="59.16239" lon="17.799381">
        <ele>27.1</ele>
        <time>2020-03-26T08:03:32Z</time>
      </trkpt>
      <trkpt lat="59.162119" lon="17.800505">
        <ele>26.9</ele>
        <time>2020-03-26T08:03:41Z</time>
      </trkpt>
      <trkpt lat="59.161933" lon="17.801268">
        <ele>26.9</ele>
        <time>2020-03-26T08:03:48Z</time>
      </trkpt>
      <trkpt lat="59.161851" lon="17.801452">
        <ele>27.1</ele>
        <time>2020-03-26T08:03:49Z</time>
      </trkpt>
      <trkpt lat="59.161725" lon="17.801731">
        <ele>27.5</ele>
        <time>2020-03-26T08:03:52Z</time>
      </trkpt>
      <trkpt lat="59.161446" lon="17.802014">
        <ele>27.3</ele>
        <time>2020-03-26T08:03:57Z</time>
      </trkpt>
      <trkpt lat="59.159786" lon="17.802774">
        <ele>26.9</ele>
        <time>2020-03-26T08:04:21Z</time>
      </trkpt>
      <trkpt lat="59.159459" lon="17.803125">
        <ele>26.7</ele>
        <time>2020-03-26T08:04:27Z</time>
      </trkpt>
      <trkpt lat="59.159199" lon="17.803662">
        <ele>26.4</ele>
        <time>2020-03-26T08:04:32Z</time>
      </trkpt>
      <trkpt lat="59.15897" lon="17.804297">
        <ele>25.9</ele>
        <time>2020-03-26T08:04:38Z</time>
      </trkpt>
      <trkpt lat="59.158671" lon="17.805232">
        <ele>25.5</ele>
        <time>2020-03-26T08:04:46Z</time>
      </trkpt>
      <trkpt lat="59.158507" lon="17.80584">
        <ele>25.1</ele>
        <time>2020-03-26T08:04:51Z</time>
      </trkpt>
      <trkpt lat="59.158414" lon="17.806516">
        <ele>25.3</ele>
        <time>2020-03-26T08:04:56Z</time>
      </trkpt>
      <trkpt lat="59.158359" lon="17.80732">
        <ele>25.4</ele>
        <time>2020-03-26T08:05:02Z</time>
      </trkpt>
      <trkpt lat="59.158363" lon="17.808672">
        <ele>25.2</ele>
        <time>2020-03-26T08:05:12Z</time>
      </trkpt>
      <trkpt lat="59.158366" lon="17.809558">
        <ele>24.8</ele>
        <time>2020-03-26T08:05:19Z</time>
      </trkpt>
      <trkpt lat="59.15834" lon="17.810225">
        <ele>24.5</ele>
        <time>2020-03-26T08:05:24Z</time>
      </trkpt>
      <trkpt lat="59.158279" lon="17.810715">
        <ele>24</ele>
        <time>2020-03-26T08:05:28Z</time>
      </trkpt>
      <trkpt lat="59.158193" lon="17.8112">
        <ele>23.3</ele>
        <time>2020-03-26T08:05:32Z</time>
      </trkpt>
      <trkpt lat="59.157677" lon="17.813186">
        <ele>22.6</ele>
        <time>2020-03-26T08:05:48Z</time>
      </trkpt>
      <trkpt lat="59.157163" lon="17.814955">
        <ele>22.2</ele>
        <time>2020-03-26T08:06:03Z</time>
      </trkpt>
      <trkpt lat="59.156928" lon="17.815763">
        <ele>21.6</ele>
        <time>2020-03-26T08:06:10Z</time>
      </trkpt>
      <trkpt lat="59.156805" lon="17.816184">
        <ele>21</ele>
        <time>2020-03-26T08:06:14Z</time>
      </trkpt>
      <trkpt lat="59.156622" lon="17.816898">
        <ele>20.5</ele>
        <time>2020-03-26T08:06:19Z</time>
      </trkpt>
      <trkpt lat="59.155936" lon="17.81936">
        <ele>19.9</ele>
        <time>2020-03-26T08:06:40Z</time>
      </trkpt>
      <trkpt lat="59.15584" lon="17.819706">
        <ele>19.5</ele>
        <time>2020-03-26T08:06:43Z</time>
      </trkpt>
      <trkpt lat="59.155811" lon="17.819661">
        <ele>19.1</ele>
        <time>2020-03-26T08:06:44Z</time>
      </trkpt>
      <trkpt lat="59.155745" lon="17.819515">
        <ele>18.9</ele>
        <time>2020-03-26T08:06:45Z</time>
      </trkpt>
      <trkpt lat="59.155616" lon="17.819184">
        <ele>18.9</ele>
        <time>2020-03-26T08:06:48Z</time>
      </trkpt>
      <trkpt lat="59.155457" lon="17.818734">
        <ele>19.4</ele>
        <time>2020-03-26T08:06:52Z</time>
      </trkpt>
      <trkpt lat="59.155368" lon="17.818449">
        <ele>20.2</ele>
        <time>2020-03-26T08:06:55Z</time>
      </trkpt>
      <trkpt lat="59.155312" lon="17.81818">
        <ele>21</ele>
        <time>2020-03-26T08:06:57Z</time>
      </trkpt>
      <trkpt lat="59.155191" lon="17.81736">
        <ele>21.7</ele>
        <time>2020-03-26T08:07:03Z</time>
      </trkpt>
      <trkpt lat="59.155096" lon="17.81605">
        <ele>22.4</ele>
        <time>2020-03-26T08:07:13Z</time>
      </trkpt>
      <trkpt lat="59.155097" lon="17.815202">
        <ele>22.8</ele>
        <time>2020-03-26T08:07:19Z</time>
      </trkpt>
      <trkpt lat="59.155093" lon="17.814774">
        <ele>23.6</ele>
        <time>2020-03-26T08:07:22Z</time>
      </trkpt>
      <trkpt lat="59.155051" lon="17.813775">
        <ele>24.4</ele>
        <time>2020-03-26T08:07:30Z</time>
      </trkpt>
      <trkpt lat="59.155049" lon="17.813684">
        <ele>25.3</ele>
        <time>2020-03-26T08:07:31Z</time>
      </trkpt>
      <trkpt lat="59.155003" lon="17.811679">
        <ele>26.8</ele>
        <time>2020-03-26T08:07:45Z</time>
      </trkpt>
      <trkpt lat="59.154998" lon="17.811605">
        <ele>27.3</ele>
        <time>2020-03-26T08:07:46Z</time>
      </trkpt>
      <trkpt lat="59.154927" lon="17.810595">
        <ele>27.6</ele>
        <time>2020-03-26T08:07:54Z</time>
      </trkpt>
      <trkpt lat="59.154776" lon="17.809683">
        <ele>27.8</ele>
        <time>2020-03-26T08:08:01Z</time>
      </trkpt>
      <trkpt lat="59.154441" lon="17.80839">
        <ele>28.3</ele>
        <time>2020-03-26T08:08:11Z</time>
      </trkpt>
      <trkpt lat="59.153802" lon="17.806376">
        <ele>28.9</ele>
        <time>2020-03-26T08:08:29Z</time>
      </trkpt>
      <trkpt lat="59.153115" lon="17.803987">
        <ele>29.6</ele>
        <time>2020-03-26T08:08:49Z</time>
      </trkpt>
      <trkpt lat="59.15291" lon="17.803275">
        <ele>30.4</ele>
        <time>2020-03-26T08:08:55Z</time>
      </trkpt>
      <trkpt lat="59.152728" lon="17.802806">
        <ele>31.3</ele>
        <time>2020-03-26T08:09:00Z</time>
      </trkpt>
      <trkpt lat="59.151725" lon="17.800907">
        <ele>31.9</ele>
        <time>2020-03-26T08:09:20Z</time>
      </trkpt>
      <trkpt lat="59.15132" lon="17.799903">
        <ele>32.1</ele>
        <time>2020-03-26T08:09:29Z</time>
      </trkpt>
      <trkpt lat="59.151202" lon="17.799401">
        <ele>31</ele>
        <time>2020-03-26T08:09:33Z</time>
      </trkpt>
      <trkpt lat="59.151078" lon="17.798615">
        <ele>30.7</ele>
        <time>2020-03-26T08:09:40Z</time>
      </trkpt>
      <trkpt lat="59.151014" lon="17.798147">
        <ele>30.7</ele>
        <time>2020-03-26T08:09:43Z</time>
      </trkpt>
      <trkpt lat="59.150927" lon="17.797863">
        <ele>30.9</ele>
        <time>2020-03-26T08:09:46Z</time>
      </trkpt>
      <trkpt lat="59.150624" lon="17.797227">
        <ele>30.9</ele>
        <time>2020-03-26T08:09:52Z</time>
      </trkpt>
      <trkpt lat="59.150023" lon="17.796425">
        <ele>30.6</ele>
        <time>2020-03-26T08:10:03Z</time>
      </trkpt>
      <trkpt lat="59.14982" lon="17.795721">
        <ele>30.6</ele>
        <time>2020-03-26T08:10:08Z</time>
      </trkpt>
      <trkpt lat="59.149567" lon="17.794548">
        <ele>30.5</ele>
        <time>2020-03-26T08:10:18Z</time>
      </trkpt>
      <trkpt lat="59.148762" lon="17.79372">
        <ele>29.9</ele>
        <time>2020-03-26T08:10:31Z</time>
      </trkpt>
      <trkpt lat="59.147876" lon="17.792856">
        <ele>29.3</ele>
        <time>2020-03-26T08:10:45Z</time>
      </trkpt>
      <trkpt lat="59.147116" lon="17.791498">
        <ele>28.4</ele>
        <time>2020-03-26T08:11:00Z</time>
      </trkpt>
      <trkpt lat="59.146483" lon="17.790221">
        <ele>28</ele>
        <time>2020-03-26T08:11:13Z</time>
      </trkpt>
      <trkpt lat="59.146168" lon="17.78994">
        <ele>27.6</ele>
        <time>2020-03-26T08:11:18Z</time>
      </trkpt>
      <trkpt lat="59.145893" lon="17.789949">
        <ele>27</ele>
        <time>2020-03-26T08:11:22Z</time>
      </trkpt>
      <trkpt lat="59.145866" lon="17.789957">
        <ele>26.4</ele>
        <time>2020-03-26T08:11:23Z</time>
      </trkpt>
      <trkpt lat="59.14541" lon="17.790063">
        <ele>25.7</ele>
        <time>2020-03-26T08:11:29Z</time>
      </trkpt>
      <trkpt lat="59.145326" lon="17.790056">
        <ele>25.3</ele>
        <time>2020-03-26T08:11:31Z</time>
      </trkpt>
      <trkpt lat="59.145092" lon="17.790039">
        <ele>24.7</ele>
        <time>2020-03-26T08:11:34Z</time>
      </trkpt>
      <trkpt lat="59.144861" lon="17.789936">
        <ele>24.5</ele>
        <time>2020-03-26T08:11:37Z</time>
      </trkpt>
      <trkpt lat="59.144704" lon="17.789822">
        <ele>24.6</ele>
        <time>2020-03-26T08:11:40Z</time>
      </trkpt>
      <trkpt lat="59.144538" lon="17.789701">
        <ele>24.6</ele>
        <time>2020-03-26T08:11:42Z</time>
      </trkpt>
      <trkpt lat="59.14452" lon="17.789686">
        <ele>24.5</ele>
        <time>2020-03-26T08:11:43Z</time>
      </trkpt>
      <trkpt lat="59.144188" lon="17.789403">
        <ele>23.9</ele>
        <time>2020-03-26T08:11:48Z</time>
      </trkpt>
      <trkpt lat="59.144057" lon="17.789279">
        <ele>22.9</ele>
        <time>2020-03-26T08:11:50Z</time>
      </trkpt>
      <trkpt lat="59.143648" lon="17.788924">
        <ele>21.9</ele>
        <time>2020-03-26T08:11:57Z</time>
      </trkpt>
      <trkpt lat="59.143151" lon="17.788585">
        <ele>21</ele>
        <time>2020-03-26T08:12:04Z</time>
      </trkpt>
      <trkpt lat="59.142511" lon="17.788207">
        <ele>20.1</ele>
        <time>2020-03-26T08:12:14Z</time>
      </trkpt>
      <trkpt lat="59.142278" lon="17.787898">
        <ele>19.2</ele>
        <time>2020-03-26T08:12:18Z</time>
      </trkpt>
      <trkpt lat="59.142102" lon="17.787436">
        <ele>18.2</ele>
        <time>2020-03-26T08:12:22Z</time>
      </trkpt>
      <trkpt lat="59.141836" lon="17.786256">
        <ele>16.9</ele>
        <time>2020-03-26T08:12:32Z</time>
      </trkpt>
      <trkpt lat="59.141729" lon="17.785957">
        <ele>15.6</ele>
        <time>2020-03-26T08:12:34Z</time>
      </trkpt>
      <trkpt lat="59.141537" lon="17.785596">
        <ele>14.3</ele>
        <time>2020-03-26T08:12:38Z</time>
      </trkpt>
      <trkpt lat="59.140409" lon="17.783937">
        <ele>13.4</ele>
        <time>2020-03-26T08:12:59Z</time>
      </trkpt>
      <trkpt lat="59.139959" lon="17.783362">
        <ele>12.8</ele>
        <time>2020-03-26T08:13:06Z</time>
      </trkpt>
      <trkpt lat="59.139714" lon="17.78302">
        <ele>12.6</ele>
        <time>2020-03-26T08:13:11Z</time>
      </trkpt>
      <trkpt lat="59.139203" lon="17.782138">
        <ele>12.6</ele>
        <time>2020-03-26T08:13:21Z</time>
      </trkpt>
      <trkpt lat="59.138805" lon="17.78142">
        <ele>12.5</ele>
        <time>2020-03-26T08:13:29Z</time>
      </trkpt>
      <trkpt lat="59.138574" lon="17.781076">
        <ele>12.6</ele>
        <time>2020-03-26T08:13:33Z</time>
      </trkpt>
      <trkpt lat="59.137678" lon="17.779745">
        <ele>12.5</ele>
        <time>2020-03-26T08:13:49Z</time>
      </trkpt>
      <trkpt lat="59.137318" lon="17.779">
        <ele>12.2</ele>
        <time>2020-03-26T08:13:57Z</time>
      </trkpt>
      <trkpt lat="59.136324" lon="17.776427">
        <ele>12</ele>
        <time>2020-03-26T08:14:20Z</time>
      </trkpt>
      <trkpt lat="59.13552" lon="17.774538">
        <ele>11.8</ele>
        <time>2020-03-26T08:14:39Z</time>
      </trkpt>
      <trkpt lat="59.135245" lon="17.773911">
        <ele>12.1</ele>
        <time>2020-03-26T08:14:45Z</time>
      </trkpt>
      <trkpt lat="59.13458" lon="17.772014">
        <ele>12.5</ele>
        <time>2020-03-26T08:15:02Z</time>
      </trkpt>
      <trkpt lat="59.134299" lon="17.771385">
        <ele>13</ele>
        <time>2020-03-26T08:15:08Z</time>
      </trkpt>
      <trkpt lat="59.133923" lon="17.770961">
        <ele>13.5</ele>
        <time>2020-03-26T08:15:14Z</time>
      </trkpt>
      <trkpt lat="59.133514" lon="17.770778">
        <ele>13.8</ele>
        <time>2020-03-26T08:15:20Z</time>
      </trkpt>
      <trkpt lat="59.133213" lon="17.770731">
        <ele>14.1</ele>
        <time>2020-03-26T08:15:25Z</time>
      </trkpt>
      <trkpt lat="59.13313" lon="17.770789">
        <ele>14.4</ele>
        <time>2020-03-26T08:15:26Z</time>
      </trkpt>
      <trkpt lat="59.132074" lon="17.77177">
        <ele>14.8</ele>
        <time>2020-03-26T08:15:43Z</time>
      </trkpt>
      <trkpt lat="59.131668" lon="17.771993">
        <ele>15.3</ele>
        <time>2020-03-26T08:15:49Z</time>
      </trkpt>
      <trkpt lat="59.131449" lon="17.772059">
        <ele>15.5</ele>
        <time>2020-03-26T08:15:52Z</time>
      </trkpt>
      <trkpt lat="59.131244" lon="17.772015">
        <ele>15.7</ele>
        <time>2020-03-26T08:15:55Z</time>
      </trkpt>
      <trkpt lat="59.130861" lon="17.771641">
        <ele>15.7</ele>
        <time>2020-03-26T08:16:01Z</time>
      </trkpt>
      <trkpt lat="59.130718" lon="17.771507">
        <ele>15.6</ele>
        <time>2020-03-26T08:16:04Z</time>
      </trkpt>
      <trkpt lat="59.13062" lon="17.771445">
        <ele>15.4</ele>
        <time>2020-03-26T08:16:05Z</time>
      </trkpt>
      <trkpt lat="59.130368" lon="17.771284">
        <ele>15</ele>
        <time>2020-03-26T08:16:09Z</time>
      </trkpt>
      <trkpt lat="59.129963" lon="17.771026">
        <ele>14.7</ele>
        <time>2020-03-26T08:16:15Z</time>
      </trkpt>
      <trkpt lat="59.129674" lon="17.770739">
        <ele>14.4</ele>
        <time>2020-03-26T08:16:20Z</time>
      </trkpt>
      <trkpt lat="59.129286" lon="17.77026">
        <ele>13.8</ele>
        <time>2020-03-26T08:16:26Z</time>
      </trkpt>
      <trkpt lat="59.129085" lon="17.769939">
        <ele>13.5</ele>
        <time>2020-03-26T08:16:30Z</time>
      </trkpt>
      <trkpt lat="59.12884" lon="17.769596">
        <ele>13.5</ele>
        <time>2020-03-26T08:16:35Z</time>
      </trkpt>
      <trkpt lat="59.128585" lon="17.769388">
        <ele>13.7</ele>
        <time>2020-03-26T08:16:39Z</time>
      </trkpt>
      <trkpt lat="59.127556" lon="17.768906">
        <ele>14</ele>
        <time>2020-03-26T08:16:54Z</time>
      </trkpt>
      <trkpt lat="59.127396" lon="17.768828">
        <ele>14.3</ele>
        <time>2020-03-26T08:16:56Z</time>
      </trkpt>
      <trkpt lat="59.126943" lon="17.767995">
        <ele>14.6</ele>
        <time>2020-03-26T08:17:05Z</time>
      </trkpt>
      <trkpt lat="59.12649" lon="17.766941">
        <ele>15.1</ele>
        <time>2020-03-26T08:17:15Z</time>
      </trkpt>
      <trkpt lat="59.126278" lon="17.766816">
        <ele>15.8</ele>
        <time>2020-03-26T08:17:19Z</time>
      </trkpt>
      <trkpt lat="59.12608" lon="17.766763">
        <ele>16.5</ele>
        <time>2020-03-26T08:17:22Z</time>
      </trkpt>
      <trkpt lat="59.125764" lon="17.766797">
        <ele>17.4</ele>
        <time>2020-03-26T08:17:26Z</time>
      </trkpt>
      <trkpt lat="59.125333" lon="17.766843">
        <ele>18.3</ele>
        <time>2020-03-26T08:17:32Z</time>
      </trkpt>
      <trkpt lat="59.125116" lon="17.76663">
        <ele>19.5</ele>
        <time>2020-03-26T08:17:36Z</time>
      </trkpt>
      <trkpt lat="59.124944" lon="17.766334">
        <ele>20.5</ele>
        <time>2020-03-26T08:17:39Z</time>
      </trkpt>
      <trkpt lat="59.124767" lon="17.765887">
        <ele>21.4</ele>
        <time>2020-03-26T08:17:43Z</time>
      </trkpt>
      <trkpt lat="59.124603" lon="17.76535">
        <ele>22.4</ele>
        <time>2020-03-26T08:17:48Z</time>
      </trkpt>
      <trkpt lat="59.124421" lon="17.764352">
        <ele>23.3</ele>
        <time>2020-03-26T08:17:56Z</time>
      </trkpt>
      <trkpt lat="59.124225" lon="17.763297">
        <ele>23.9</ele>
        <time>2020-03-26T08:18:04Z</time>
      </trkpt>
      <trkpt lat="59.124145" lon="17.763035">
        <ele>24.2</ele>
        <time>2020-03-26T08:18:06Z</time>
      </trkpt>
      <trkpt lat="59.124014" lon="17.762746">
        <ele>23.9</ele>
        <time>2020-03-26T08:18:09Z</time>
      </trkpt>
      <trkpt lat="59.123878" lon="17.762509">
        <ele>23.5</ele>
        <time>2020-03-26T08:18:12Z</time>
      </trkpt>
      <trkpt lat="59.123787" lon="17.762377">
        <ele>23.2</ele>
        <time>2020-03-26T08:18:14Z</time>
      </trkpt>
      <trkpt lat="59.123672" lon="17.762307">
        <ele>23.6</ele>
        <time>2020-03-26T08:18:15Z</time>
      </trkpt>
      <trkpt lat="59.123458" lon="17.762332">
        <ele>23.5</ele>
        <time>2020-03-26T08:18:18Z</time>
      </trkpt>
      <trkpt lat="59.122992" lon="17.762577">
        <ele>23.5</ele>
        <time>2020-03-26T08:18:25Z</time>
      </trkpt>
      <trkpt lat="59.122661" lon="17.762664">
        <ele>23.6</ele>
        <time>2020-03-26T08:18:30Z</time>
      </trkpt>
      <trkpt lat="59.122289" lon="17.762553">
        <ele>23.7</ele>
        <time>2020-03-26T08:18:36Z</time>
      </trkpt>
      <trkpt lat="59.121023" lon="17.761401">
        <ele>23.8</ele>
        <time>2020-03-26T08:18:56Z</time>
      </trkpt>
      <trkpt lat="59.120893" lon="17.761274">
        <ele>24.1</ele>
        <time>2020-03-26T08:18:58Z</time>
      </trkpt>
      <trkpt lat="59.120761" lon="17.761049">
        <ele>24.7</ele>
        <time>2020-03-26T08:19:00Z</time>
      </trkpt>
      <trkpt lat="59.120603" lon="17.760742">
        <ele>25.8</ele>
        <time>2020-03-26T08:19:04Z</time>
      </trkpt>
      <trkpt lat="59.120503" lon="17.760371">
        <ele>27.4</ele>
        <time>2020-03-26T08:19:07Z</time>
      </trkpt>
      <trkpt lat="59.120442" lon="17.760083">
        <ele>29</ele>
        <time>2020-03-26T08:19:09Z</time>
      </trkpt>
      <trkpt lat="59.120408" lon="17.759647">
        <ele>29.7</ele>
        <time>2020-03-26T08:19:12Z</time>
      </trkpt>
      <trkpt lat="59.120417" lon="17.759146">
        <ele>30.5</ele>
        <time>2020-03-26T08:19:16Z</time>
      </trkpt>
      <trkpt lat="59.120491" lon="17.758824">
        <ele>31.4</ele>
        <time>2020-03-26T08:19:19Z</time>
      </trkpt>
      <trkpt lat="59.120716" lon="17.758166">
        <ele>32.5</ele>
        <time>2020-03-26T08:19:25Z</time>
      </trkpt>
      <trkpt lat="59.120766" lon="17.757894">
        <ele>33.6</ele>
        <time>2020-03-26T08:19:27Z</time>
      </trkpt>
      <trkpt lat="59.120729" lon="17.757283">
        <ele>34.6</ele>
        <time>2020-03-26T08:19:31Z</time>
      </trkpt>
      <trkpt lat="59.12048" lon="17.756543">
        <ele>35.7</ele>
        <time>2020-03-26T08:19:38Z</time>
      </trkpt>
      <trkpt lat="59.120282" lon="17.755754">
        <ele>36.6</ele>
        <time>2020-03-26T08:19:44Z</time>
      </trkpt>
      <trkpt lat="59.120061" lon="17.754016">
        <ele>37.2</ele>
        <time>2020-03-26T08:19:58Z</time>
      </trkpt>
      <trkpt lat="59.119958" lon="17.753052">
        <ele>38.2</ele>
        <time>2020-03-26T08:20:05Z</time>
      </trkpt>
      <trkpt lat="59.119994" lon="17.751576">
        <ele>39.3</ele>
        <time>2020-03-26T08:20:16Z</time>
      </trkpt>
      <trkpt lat="59.119944" lon="17.751046">
        <ele>40.5</ele>
        <time>2020-03-26T08:20:20Z</time>
      </trkpt>
      <trkpt lat="59.11986" lon="17.750469">
        <ele>42</ele>
        <time>2020-03-26T08:20:24Z</time>
      </trkpt>
      <trkpt lat="59.11964" lon="17.749325">
        <ele>43.5</ele>
        <time>2020-03-26T08:20:33Z</time>
      </trkpt>
      <trkpt lat="59.118357" lon="17.74378">
        <ele>44.6</ele>
        <time>2020-03-26T08:21:19Z</time>
      </trkpt>
      <trkpt lat="59.118089" lon="17.742982">
        <ele>45.9</ele>
        <time>2020-03-26T08:21:26Z</time>
      </trkpt>
      <trkpt lat="59.117876" lon="17.742655">
        <ele>47.4</ele>
        <time>2020-03-26T08:21:30Z</time>
      </trkpt>
      <trkpt lat="59.117588" lon="17.742402">
        <ele>50.2</ele>
        <time>2020-03-26T08:21:34Z</time>
      </trkpt>
      <trkpt lat="59.116657" lon="17.741997">
        <ele>51.2</ele>
        <time>2020-03-26T08:21:48Z</time>
      </trkpt>
      <trkpt lat="59.116536" lon="17.741953">
        <ele>51.2</ele>
        <time>2020-03-26T08:21:50Z</time>
      </trkpt>
      <trkpt lat="59.116417" lon="17.741925">
        <ele>50.8</ele>
        <time>2020-03-26T08:21:51Z</time>
      </trkpt>
      <trkpt lat="59.115556" lon="17.741941">
        <ele>50.4</ele>
        <time>2020-03-26T08:22:04Z</time>
      </trkpt>
      <trkpt lat="59.114188" lon="17.742628">
        <ele>49.7</ele>
        <time>2020-03-26T08:22:24Z</time>
      </trkpt>
      <trkpt lat="59.113658" lon="17.742957">
        <ele>47.3</ele>
        <time>2020-03-26T08:22:32Z</time>
      </trkpt>
      <trkpt lat="59.11303" lon="17.742908">
        <ele>45.5</ele>
        <time>2020-03-26T08:22:41Z</time>
      </trkpt>
      <trkpt lat="59.11282" lon="17.742891">
        <ele>43.2</ele>
        <time>2020-03-26T08:22:44Z</time>
      </trkpt>
      <trkpt lat="59.112683" lon="17.742784">
        <ele>40.6</ele>
        <time>2020-03-26T08:22:47Z</time>
      </trkpt>
      <trkpt lat="59.112329" lon="17.742399">
        <ele>38.7</ele>
        <time>2020-03-26T08:22:52Z</time>
      </trkpt>
      <trkpt lat="59.111944" lon="17.741899">
        <ele>36.8</ele>
        <time>2020-03-26T08:22:59Z</time>
      </trkpt>
      <trkpt lat="59.111593" lon="17.741428">
        <ele>34.8</ele>
        <time>2020-03-26T08:23:05Z</time>
      </trkpt>
      <trkpt lat="59.111185" lon="17.740879">
        <ele>32.6</ele>
        <time>2020-03-26T08:23:12Z</time>
      </trkpt>
      <trkpt lat="59.110884" lon="17.740271">
        <ele>30.6</ele>
        <time>2020-03-26T08:23:19Z</time>
      </trkpt>
      <trkpt lat="59.110718" lon="17.739868">
        <ele>28.9</ele>
        <time>2020-03-26T08:23:23Z</time>
      </trkpt>
      <trkpt lat="59.110352" lon="17.739005">
        <ele>27.5</ele>
        <time>2020-03-26T08:23:31Z</time>
      </trkpt>
      <trkpt lat="59.110217" lon="17.738591">
        <ele>26.4</ele>
        <time>2020-03-26T08:23:34Z</time>
      </trkpt>
      <trkpt lat="59.110051" lon="17.738279">
        <ele>25.5</ele>
        <time>2020-03-26T08:23:38Z</time>
      </trkpt>
      <trkpt lat="59.109486" lon="17.737361">
        <ele>25.1</ele>
        <time>2020-03-26T08:23:48Z</time>
      </trkpt>
      <trkpt lat="59.109289" lon="17.73685">
        <ele>24.1</ele>
        <time>2020-03-26T08:23:53Z</time>
      </trkpt>
      <trkpt lat="59.109151" lon="17.736533">
        <ele>23.2</ele>
        <time>2020-03-26T08:23:56Z</time>
      </trkpt>
      <trkpt lat="59.108954" lon="17.7362">
        <ele>22.5</ele>
        <time>2020-03-26T08:24:00Z</time>
      </trkpt>
      <trkpt lat="59.108309" lon="17.735341">
        <ele>21.9</ele>
        <time>2020-03-26T08:24:11Z</time>
      </trkpt>
      <trkpt lat="59.108061" lon="17.734879">
        <ele>21.4</ele>
        <time>2020-03-26T08:24:16Z</time>
      </trkpt>
      <trkpt lat="59.106771" lon="17.732885">
        <ele>19.9</ele>
        <time>2020-03-26T08:24:40Z</time>
      </trkpt>
      <trkpt lat="59.106719" lon="17.732813">
        <ele>18.3</ele>
        <time>2020-03-26T08:24:41Z</time>
      </trkpt>
      <trkpt lat="59.106564" lon="17.732575">
        <ele>16.6</ele>
        <time>2020-03-26T08:24:44Z</time>
      </trkpt>
      <trkpt lat="59.106359" lon="17.732261">
        <ele>15</ele>
        <time>2020-03-26T08:24:48Z</time>
      </trkpt>
      <trkpt lat="59.106097" lon="17.731848">
        <ele>13.2</ele>
        <time>2020-03-26T08:24:53Z</time>
      </trkpt>
      <trkpt lat="59.104633" lon="17.730116">
        <ele>11.5</ele>
        <time>2020-03-26T08:25:17Z</time>
      </trkpt>
      <trkpt lat="59.104574" lon="17.730081">
        <ele>11</ele>
        <time>2020-03-26T08:25:18Z</time>
      </trkpt>
      <trkpt lat="59.104411" lon="17.729986">
        <ele>10.5</ele>
        <time>2020-03-26T08:25:21Z</time>
      </trkpt>
      <trkpt lat="59.104303" lon="17.729923">
        <ele>10.5</ele>
        <time>2020-03-26T08:25:22Z</time>
      </trkpt>
      <trkpt lat="59.103476" lon="17.729435">
        <ele>10.7</ele>
        <time>2020-03-26T08:25:35Z</time>
      </trkpt>
      <trkpt lat="59.102597" lon="17.72889">
        <ele>11</ele>
        <time>2020-03-26T08:25:48Z</time>
      </trkpt>
      <trkpt lat="59.1018" lon="17.728554">
        <ele>12.5</ele>
        <time>2020-03-26T08:26:00Z</time>
      </trkpt>
      <trkpt lat="59.100528" lon="17.728284">
        <ele>14.2</ele>
        <time>2020-03-26T08:26:18Z</time>
      </trkpt>
      <trkpt lat="59.099237" lon="17.728232">
        <ele>16</ele>
        <time>2020-03-26T08:26:37Z</time>
      </trkpt>
      <trkpt lat="59.099011" lon="17.728116">
        <ele>18.3</ele>
        <time>2020-03-26T08:26:40Z</time>
      </trkpt>
      <trkpt lat="59.098976" lon="17.72812">
        <ele>20.7</ele>
        <time>2020-03-26T08:26:41Z</time>
      </trkpt>
      <trkpt lat="59.098696" lon="17.72816">
        <ele>22.8</ele>
        <time>2020-03-26T08:26:45Z</time>
      </trkpt>
      <trkpt lat="59.098134" lon="17.728423">
        <ele>24.9</ele>
        <time>2020-03-26T08:26:53Z</time>
      </trkpt>
      <trkpt lat="59.09638" lon="17.729632">
        <ele>27.1</ele>
        <time>2020-03-26T08:27:20Z</time>
      </trkpt>
      <trkpt lat="59.095561" lon="17.729824">
        <ele>28.7</ele>
        <time>2020-03-26T08:27:32Z</time>
      </trkpt>
      <trkpt lat="59.095362" lon="17.72983">
        <ele>30.3</ele>
        <time>2020-03-26T08:27:35Z</time>
      </trkpt>
      <trkpt lat="59.09505" lon="17.729671">
        <ele>31.8</ele>
        <time>2020-03-26T08:27:40Z</time>
      </trkpt>
      <trkpt lat="59.094803" lon="17.729114">
        <ele>33.5</ele>
        <time>2020-03-26T08:27:45Z</time>
      </trkpt>
      <trkpt lat="59.094793" lon="17.728192">
        <ele>35.1</ele>
        <time>2020-03-26T08:27:52Z</time>
      </trkpt>
      <trkpt lat="59.094782" lon="17.727157">
        <ele>36.9</ele>
        <time>2020-03-26T08:28:00Z</time>
      </trkpt>
      <trkpt lat="59.094598" lon="17.726767">
        <ele>38.5</ele>
        <time>2020-03-26T08:28:04Z</time>
      </trkpt>
      <trkpt lat="59.094527" lon="17.72662">
        <ele>40.5</ele>
        <time>2020-03-26T08:28:05Z</time>
      </trkpt>
      <trkpt lat="59.094192" lon="17.726639">
        <ele>42.7</ele>
        <time>2020-03-26T08:28:10Z</time>
      </trkpt>
      <trkpt lat="59.093897" lon="17.726927">
        <ele>44.7</ele>
        <time>2020-03-26T08:28:15Z</time>
      </trkpt>
      <trkpt lat="59.093728" lon="17.727714">
        <ele>46.7</ele>
        <time>2020-03-26T08:28:21Z</time>
      </trkpt>
      <trkpt lat="59.093669" lon="17.728539">
        <ele>49</ele>
        <time>2020-03-26T08:28:27Z</time>
      </trkpt>
      <trkpt lat="59.093177" lon="17.730074">
        <ele>51.1</ele>
        <time>2020-03-26T08:28:41Z</time>
      </trkpt>
      <trkpt lat="59.093047" lon="17.73029">
        <ele>53.1</ele>
        <time>2020-03-26T08:28:43Z</time>
      </trkpt>
      <trkpt lat="59.092845" lon="17.73037">
        <ele>54.6</ele>
        <time>2020-03-26T08:28:46Z</time>
      </trkpt>
      <trkpt lat="59.092546" lon="17.730257">
        <ele>55.9</ele>
        <time>2020-03-26T08:28:51Z</time>
      </trkpt>
      <trkpt lat="59.092129" lon="17.729835">
        <ele>57</ele>
        <time>2020-03-26T08:28:57Z</time>
      </trkpt>
      <trkpt lat="59.091994" lon="17.729736">
        <ele>57.9</ele>
        <time>2020-03-26T08:28:59Z</time>
      </trkpt>
      <trkpt lat="59.091841" lon="17.729624">
        <ele>58.6</ele>
        <time>2020-03-26T08:29:02Z</time>
      </trkpt>
      <trkpt lat="59.091561" lon="17.729494">
        <ele>59.3</ele>
        <time>2020-03-26T08:29:06Z</time>
      </trkpt>
      <trkpt lat="59.09097" lon="17.729421">
        <ele>60.2</ele>
        <time>2020-03-26T08:29:14Z</time>
      </trkpt>
      <trkpt lat="59.090585" lon="17.729325">
        <ele>61.1</ele>
        <time>2020-03-26T08:29:20Z</time>
      </trkpt>
      <trkpt lat="59.089205" lon="17.728385">
        <ele>61.6</ele>
        <time>2020-03-26T08:29:41Z</time>
      </trkpt>
      <trkpt lat="59.088514" lon="17.728001">
        <ele>61.7</ele>
        <time>2020-03-26T08:29:52Z</time>
      </trkpt>
      <trkpt lat="59.088091" lon="17.727636">
        <ele>61.4</ele>
        <time>2020-03-26T08:29:58Z</time>
      </trkpt>
      <trkpt lat="59.08683" lon="17.727636">
        <ele>60.9</ele>
        <time>2020-03-26T08:30:16Z</time>
      </trkpt>
      <trkpt lat="59.086022" lon="17.726734">
        <ele>60.5</ele>
        <time>2020-03-26T08:30:30Z</time>
      </trkpt>
      <trkpt lat="59.085085" lon="17.726064">
        <ele>60</ele>
        <time>2020-03-26T08:30:44Z</time>
      </trkpt>
      <trkpt lat="59.084661" lon="17.725372">
        <ele>59.5</ele>
        <time>2020-03-26T08:30:52Z</time>
      </trkpt>
      <trkpt lat="59.08402" lon="17.725258">
        <ele>58.5</ele>
        <time>2020-03-26T08:31:02Z</time>
      </trkpt>
      <trkpt lat="59.083381" lon="17.725474">
        <ele>57.7</ele>
        <time>2020-03-26T08:31:11Z</time>
      </trkpt>
      <trkpt lat="59.083261" lon="17.725514">
        <ele>56.5</ele>
        <time>2020-03-26T08:31:13Z</time>
      </trkpt>
      <trkpt lat="59.083114" lon="17.725565">
        <ele>54.7</ele>
        <time>2020-03-26T08:31:15Z</time>
      </trkpt>
      <trkpt lat="59.082497" lon="17.726495">
        <ele>53.1</ele>
        <time>2020-03-26T08:31:26Z</time>
      </trkpt>
      <trkpt lat="59.082325" lon="17.726754">
        <ele>51.5</ele>
        <time>2020-03-26T08:31:29Z</time>
      </trkpt>
      <trkpt lat="59.081418" lon="17.727541">
        <ele>50.4</ele>
        <time>2020-03-26T08:31:44Z</time>
      </trkpt>
      <trkpt lat="59.080758" lon="17.72801">
        <ele>49.6</ele>
        <time>2020-03-26T08:31:54Z</time>
      </trkpt>
      <trkpt lat="59.080127" lon="17.728327">
        <ele>48.9</ele>
        <time>2020-03-26T08:32:03Z</time>
      </trkpt>
      <trkpt lat="59.079131" lon="17.7285">
        <ele>48</ele>
        <time>2020-03-26T08:32:18Z</time>
      </trkpt>
      <trkpt lat="59.077179" lon="17.728443">
        <ele>47.4</ele>
        <time>2020-03-26T08:32:46Z</time>
      </trkpt>
      <trkpt lat="59.076449" lon="17.728635">
        <ele>46.6</ele>
        <time>2020-03-26T08:32:57Z</time>
      </trkpt>
      <trkpt lat="59.07498" lon="17.727752">
        <ele>45.9</ele>
        <time>2020-03-26T08:33:19Z</time>
      </trkpt>
      <trkpt lat="59.074319" lon="17.727598">
        <ele>45.5</ele>
        <time>2020-03-26T08:33:28Z</time>
      </trkpt>
      <trkpt lat="59.074186" lon="17.727551">
        <ele>45.4</ele>
        <time>2020-03-26T08:33:30Z</time>
      </trkpt>
      <trkpt lat="59.072852" lon="17.727074">
        <ele>45.5</ele>
        <time>2020-03-26T08:33:50Z</time>
      </trkpt>
      <trkpt lat="59.071561" lon="17.726209">
        <ele>45.5</ele>
        <time>2020-03-26T08:34:10Z</time>
      </trkpt>
      <trkpt lat="59.070934" lon="17.725766">
        <ele>45.5</ele>
        <time>2020-03-26T08:34:19Z</time>
      </trkpt>
      <trkpt lat="59.070793" lon="17.725268">
        <ele>45.1</ele>
        <time>2020-03-26T08:34:24Z</time>
      </trkpt>
      <trkpt lat="59.070664" lon="17.724375">
        <ele>44.6</ele>
        <time>2020-03-26T08:34:31Z</time>
      </trkpt>
      <trkpt lat="59.070556" lon="17.723894">
        <ele>44</ele>
        <time>2020-03-26T08:34:34Z</time>
      </trkpt>
      <trkpt lat="59.070307" lon="17.72249">
        <ele>43</ele>
        <time>2020-03-26T08:34:45Z</time>
      </trkpt>
      <trkpt lat="59.069953" lon="17.719995">
        <ele>42.1</ele>
        <time>2020-03-26T08:35:05Z</time>
      </trkpt>
      <trkpt lat="59.069755" lon="17.718437">
        <ele>41.4</ele>
        <time>2020-03-26T08:35:17Z</time>
      </trkpt>
      <trkpt lat="59.069773" lon="17.71807">
        <ele>39.9</ele>
        <time>2020-03-26T08:35:19Z</time>
      </trkpt>
      <trkpt lat="59.070105" lon="17.71596">
        <ele>38.1</ele>
        <time>2020-03-26T08:35:36Z</time>
      </trkpt>
      <trkpt lat="59.070273" lon="17.714359">
        <ele>35.5</ele>
        <time>2020-03-26T08:35:48Z</time>
      </trkpt>
      <trkpt lat="59.070273" lon="17.713309">
        <ele>33</ele>
        <time>2020-03-26T08:35:56Z</time>
      </trkpt>
      <trkpt lat="59.07015" lon="17.711418">
        <ele>30.5</ele>
        <time>2020-03-26T08:36:10Z</time>
      </trkpt>
      <trkpt lat="59.070043" lon="17.710123">
        <ele>28.6</ele>
        <time>2020-03-26T08:36:20Z</time>
      </trkpt>
      <trkpt lat="59.06989" lon="17.709623">
        <ele>26.6</ele>
        <time>2020-03-26T08:36:24Z</time>
      </trkpt>
      <trkpt lat="59.068109" lon="17.706894">
        <ele>25</ele>
        <time>2020-03-26T08:36:57Z</time>
      </trkpt>
      <trkpt lat="59.06734" lon="17.70447">
        <ele>23.7</ele>
        <time>2020-03-26T08:37:18Z</time>
      </trkpt>
      <trkpt lat="59.067128" lon="17.704181">
        <ele>22.7</ele>
        <time>2020-03-26T08:37:22Z</time>
      </trkpt>
      <trkpt lat="59.066598" lon="17.703822">
        <ele>21.9</ele>
        <time>2020-03-26T08:37:30Z</time>
      </trkpt>
      <trkpt lat="59.0663" lon="17.703376">
        <ele>21.8</ele>
        <time>2020-03-26T08:37:35Z</time>
      </trkpt>
      <trkpt lat="59.065666" lon="17.702667">
        <ele>21.5</ele>
        <time>2020-03-26T08:37:46Z</time>
      </trkpt>
      <trkpt lat="59.065329" lon="17.701827">
        <ele>22</ele>
        <time>2020-03-26T08:37:54Z</time>
      </trkpt>
      <trkpt lat="59.063939" lon="17.699726">
        <ele>22.7</ele>
        <time>2020-03-26T08:38:19Z</time>
      </trkpt>
      <trkpt lat="59.063585" lon="17.699032">
        <ele>23.5</ele>
        <time>2020-03-26T08:38:26Z</time>
      </trkpt>
      <trkpt lat="59.063363" lon="17.698535">
        <ele>23.8</ele>
        <time>2020-03-26T08:38:31Z</time>
      </trkpt>
      <trkpt lat="59.062881" lon="17.697075">
        <ele>24.5</ele>
        <time>2020-03-26T08:38:44Z</time>
      </trkpt>
      <trkpt lat="59.062823" lon="17.696891">
        <ele>25.1</ele>
        <time>2020-03-26T08:38:46Z</time>
      </trkpt>
      <trkpt lat="59.06273" lon="17.696789">
        <ele>25.6</ele>
        <time>2020-03-26T08:38:47Z</time>
      </trkpt>
      <trkpt lat="59.062575" lon="17.696707">
        <ele>25.7</ele>
        <time>2020-03-26T08:38:50Z</time>
      </trkpt>
      <trkpt lat="59.062284" lon="17.696519">
        <ele>25.3</ele>
        <time>2020-03-26T08:38:54Z</time>
      </trkpt>
      <trkpt lat="59.062004" lon="17.696411">
        <ele>24.7</ele>
        <time>2020-03-26T08:38:58Z</time>
      </trkpt>
      <trkpt lat="59.061795" lon="17.696439">
        <ele>24.5</ele>
        <time>2020-03-26T08:39:01Z</time>
      </trkpt>
      <trkpt lat="59.061368" lon="17.696259">
        <ele>24</ele>
        <time>2020-03-26T08:39:07Z</time>
      </trkpt>
      <trkpt lat="59.060927" lon="17.695856">
        <ele>24.5</ele>
        <time>2020-03-26T08:39:14Z</time>
      </trkpt>
      <trkpt lat="59.060644" lon="17.695428">
        <ele>25.5</ele>
        <time>2020-03-26T08:39:20Z</time>
      </trkpt>
      <trkpt lat="59.060303" lon="17.694875">
        <ele>26.1</ele>
        <time>2020-03-26T08:39:26Z</time>
      </trkpt>
      <trkpt lat="59.060052" lon="17.694596">
        <ele>26</ele>
        <time>2020-03-26T08:39:30Z</time>
      </trkpt>
      <trkpt lat="59.059905" lon="17.694434">
        <ele>25.5</ele>
        <time>2020-03-26T08:39:33Z</time>
      </trkpt>
      <trkpt lat="59.058873" lon="17.694122">
        <ele>24.8</ele>
        <time>2020-03-26T08:39:48Z</time>
      </trkpt>
      <trkpt lat="59.058016" lon="17.693873">
        <ele>24.2</ele>
        <time>2020-03-26T08:40:00Z</time>
      </trkpt>
      <trkpt lat="59.057443" lon="17.693709">
        <ele>23.5</ele>
        <time>2020-03-26T08:40:09Z</time>
      </trkpt>
      <trkpt lat="59.056979" lon="17.693576">
        <ele>22.7</ele>
        <time>2020-03-26T08:40:15Z</time>
      </trkpt>
      <trkpt lat="59.056673" lon="17.693448">
        <ele>22.1</ele>
        <time>2020-03-26T08:40:20Z</time>
      </trkpt>
      <trkpt lat="59.056471" lon="17.693355">
        <ele>21.3</ele>
        <time>2020-03-26T08:40:23Z</time>
      </trkpt>
      <trkpt lat="59.056109" lon="17.693272">
        <ele>19.4</ele>
        <time>2020-03-26T08:40:28Z</time>
      </trkpt>
      <trkpt lat="59.05585" lon="17.693261">
        <ele>17.1</ele>
        <time>2020-03-26T08:40:32Z</time>
      </trkpt>
      <trkpt lat="59.055591" lon="17.693322">
        <ele>15.3</ele>
        <time>2020-03-26T08:40:36Z</time>
      </trkpt>
      <trkpt lat="59.055246" lon="17.693488">
        <ele>13.8</ele>
        <time>2020-03-26T08:40:41Z</time>
      </trkpt>
      <trkpt lat="59.054404" lon="17.693938">
        <ele>12.5</ele>
        <time>2020-03-26T08:40:54Z</time>
      </trkpt>
      <trkpt lat="59.05399" lon="17.69418">
        <ele>11.3</ele>
        <time>2020-03-26T08:41:00Z</time>
      </trkpt>
      <trkpt lat="59.053675" lon="17.694335">
        <ele>10.1</ele>
        <time>2020-03-26T08:41:04Z</time>
      </trkpt>
      <trkpt lat="59.053442" lon="17.694434">
        <ele>9</ele>
        <time>2020-03-26T08:41:08Z</time>
      </trkpt>
      <trkpt lat="59.05324" lon="17.694458">
        <ele>8.1</ele>
        <time>2020-03-26T08:41:11Z</time>
      </trkpt>
      <trkpt lat="59.053067" lon="17.694378">
        <ele>7.2</ele>
        <time>2020-03-26T08:41:13Z</time>
      </trkpt>
      <trkpt lat="59.052883" lon="17.694227">
        <ele>6.6</ele>
        <time>2020-03-26T08:41:16Z</time>
      </trkpt>
      <trkpt lat="59.052772" lon="17.694055">
        <ele>6.1</ele>
        <time>2020-03-26T08:41:18Z</time>
      </trkpt>
      <trkpt lat="59.052637" lon="17.693866">
        <ele>4.8</ele>
        <time>2020-03-26T08:41:21Z</time>
      </trkpt>
      <trkpt lat="59.052522" lon="17.693611">
        <ele>4.1</ele>
        <time>2020-03-26T08:41:23Z</time>
      </trkpt>
      <trkpt lat="59.052389" lon="17.693373">
        <ele>3.5</ele>
        <time>2020-03-26T08:41:26Z</time>
      </trkpt>
      <trkpt lat="59.052333" lon="17.693115">
        <ele>3.5</ele>
        <time>2020-03-26T08:41:28Z</time>
      </trkpt>
      <trkpt lat="59.05222" lon="17.692418">
        <ele>3.3</ele>
        <time>2020-03-26T08:41:33Z</time>
      </trkpt>
      <trkpt lat="59.051845" lon="17.691897">
        <ele>3.2</ele>
        <time>2020-03-26T08:41:40Z</time>
      </trkpt>
      <trkpt lat="59.051362" lon="17.691312">
        <ele>3.1</ele>
        <time>2020-03-26T08:41:48Z</time>
      </trkpt>
      <trkpt lat="59.050946" lon="17.690852">
        <ele>3.1</ele>
        <time>2020-03-26T08:41:55Z</time>
      </trkpt>
      <trkpt lat="59.050223" lon="17.690189">
        <ele>3.1</ele>
        <time>2020-03-26T08:42:07Z</time>
      </trkpt>
      <trkpt lat="59.049878" lon="17.689987">
        <ele>3.2</ele>
        <time>2020-03-26T08:42:12Z</time>
      </trkpt>
      <trkpt lat="59.049764" lon="17.689938">
        <ele>3.6</ele>
        <time>2020-03-26T08:42:14Z</time>
      </trkpt>
      <trkpt lat="59.049623" lon="17.689857">
        <ele>4.1</ele>
        <time>2020-03-26T08:42:16Z</time>
      </trkpt>
      <trkpt lat="59.049446" lon="17.689619">
        <ele>4.6</ele>
        <time>2020-03-26T08:42:19Z</time>
      </trkpt>
      <trkpt lat="59.049328" lon="17.689356">
        <ele>4.8</ele>
        <time>2020-03-26T08:42:21Z</time>
      </trkpt>
      <trkpt lat="59.049237" lon="17.689026">
        <ele>4.5</ele>
        <time>2020-03-26T08:42:24Z</time>
      </trkpt>
      <trkpt lat="59.049069" lon="17.688418">
        <ele>5</ele>
        <time>2020-03-26T08:42:29Z</time>
      </trkpt>
      <trkpt lat="59.048765" lon="17.687399">
        <ele>5.5</ele>
        <time>2020-03-26T08:42:38Z</time>
      </trkpt>
      <trkpt lat="59.048692" lon="17.68716">
        <ele>6</ele>
        <time>2020-03-26T08:42:40Z</time>
      </trkpt>
      <trkpt lat="59.048508" lon="17.68656">
        <ele>6.4</ele>
        <time>2020-03-26T08:42:45Z</time>
      </trkpt>
      <trkpt lat="59.048154" lon="17.685404">
        <ele>6.6</ele>
        <time>2020-03-26T08:42:55Z</time>
      </trkpt>
      <trkpt lat="59.047685" lon="17.684011">
        <ele>7.2</ele>
        <time>2020-03-26T08:43:08Z</time>
      </trkpt>
      <trkpt lat="59.047523" lon="17.683348">
        <ele>8</ele>
        <time>2020-03-26T08:43:13Z</time>
      </trkpt>
      <trkpt lat="59.047498" lon="17.682834">
        <ele>8.9</ele>
        <time>2020-03-26T08:43:17Z</time>
      </trkpt>
      <trkpt lat="59.047547" lon="17.682283">
        <ele>10</ele>
        <time>2020-03-26T08:43:21Z</time>
      </trkpt>
      <trkpt lat="59.047658" lon="17.681929">
        <ele>11.3</ele>
        <time>2020-03-26T08:43:24Z</time>
      </trkpt>
      <trkpt lat="59.049712" lon="17.676329">
        <ele>12.6</ele>
        <time>2020-03-26T08:44:15Z</time>
      </trkpt>
      <trkpt lat="59.050109" lon="17.674779">
        <ele>13.6</ele>
        <time>2020-03-26T08:44:28Z</time>
      </trkpt>
      <trkpt lat="59.05018" lon="17.674275">
        <ele>13.5</ele>
        <time>2020-03-26T08:44:32Z</time>
      </trkpt>
      <trkpt lat="59.050171" lon="17.674107">
        <ele>13.4</ele>
        <time>2020-03-26T08:44:33Z</time>
      </trkpt>
      <trkpt lat="59.050111" lon="17.673932">
        <ele>13.5</ele>
        <time>2020-03-26T08:44:35Z</time>
      </trkpt>
      <trkpt lat="59.050014" lon="17.673837">
        <ele>13.9</ele>
        <time>2020-03-26T08:44:37Z</time>
      </trkpt>
      <trkpt lat="59.049915" lon="17.673842">
        <ele>14.1</ele>
        <time>2020-03-26T08:44:38Z</time>
      </trkpt>
      <trkpt lat="59.045192" lon="17.674073">
        <ele>13.8</ele>
        <time>2020-03-26T08:45:46Z</time>
      </trkpt>
      <trkpt lat="59.037874" lon="17.674405">
        <ele>13.5</ele>
        <time>2020-03-26T08:47:32Z</time>
      </trkpt>
      <trkpt lat="59.033596" lon="17.674621">
        <ele>12.9</ele>
        <time>2020-03-26T08:48:34Z</time>
      </trkpt>
      <trkpt lat="59.031278" lon="17.674607">
        <ele>12.6</ele>
        <time>2020-03-26T08:49:07Z</time>
      </trkpt>
      <trkpt lat="59.031249" lon="17.674607">
        <ele>13.6</ele>
        <time>2020-03-26T08:49:08Z</time>
      </trkpt>
      <trkpt lat="59.030114" lon="17.674384">
        <ele>14.6</ele>
        <time>2020-03-26T08:49:24Z</time>
      </trkpt>
      <trkpt lat="59.029329" lon="17.674098">
        <ele>16.5</ele>
        <time>2020-03-26T08:49:36Z</time>
      </trkpt>
      <trkpt lat="59.028144" lon="17.673666">
        <ele>17.6</ele>
        <time>2020-03-26T08:49:53Z</time>
      </trkpt>
      <trkpt lat="59.026876" lon="17.673295">
        <ele>18.6</ele>
        <time>2020-03-26T08:50:12Z</time>
      </trkpt>
      <trkpt lat="59.024305" lon="17.672542">
        <ele>19.5</ele>
        <time>2020-03-26T08:50:49Z</time>
      </trkpt>
      <trkpt lat="59.02315" lon="17.672061">
        <ele>20.9</ele>
        <time>2020-03-26T08:51:06Z</time>
      </trkpt>
      <trkpt lat="59.02137" lon="17.670836">
        <ele>22</ele>
        <time>2020-03-26T08:51:34Z</time>
      </trkpt>
      <trkpt lat="59.019661" lon="17.669721">
        <ele>22.9</ele>
        <time>2020-03-26T08:52:00Z</time>
      </trkpt>
      <trkpt lat="59.017228" lon="17.668133">
        <ele>24.3</ele>
        <time>2020-03-26T08:52:37Z</time>
      </trkpt>
      <trkpt lat="59.016856" lon="17.667795">
        <ele>25.7</ele>
        <time>2020-03-26T08:52:43Z</time>
      </trkpt>
      <trkpt lat="59.014112" lon="17.6653">
        <ele>26.1</ele>
        <time>2020-03-26T08:53:27Z</time>
      </trkpt>
      <trkpt lat="59.013617" lon="17.664956">
        <ele>26.5</ele>
        <time>2020-03-26T08:53:34Z</time>
      </trkpt>
      <trkpt lat="59.013251" lon="17.6647">
        <ele>27.1</ele>
        <time>2020-03-26T08:53:40Z</time>
      </trkpt>
      <trkpt lat="59.012644" lon="17.664278">
        <ele>28.7</ele>
        <time>2020-03-26T08:53:49Z</time>
      </trkpt>
      <trkpt lat="59.012401" lon="17.664036">
        <ele>30.4</ele>
        <time>2020-03-26T08:53:53Z</time>
      </trkpt>
      <trkpt lat="59.012189" lon="17.663743">
        <ele>32.1</ele>
        <time>2020-03-26T08:53:57Z</time>
      </trkpt>
      <trkpt lat="59.011981" lon="17.663348">
        <ele>32.9</ele>
        <time>2020-03-26T08:54:01Z</time>
      </trkpt>
      <trkpt lat="59.011395" lon="17.662618">
        <ele>33.6</ele>
        <time>2020-03-26T08:54:11Z</time>
      </trkpt>
      <trkpt lat="59.010567" lon="17.662232">
        <ele>34.5</ele>
        <time>2020-03-26T08:54:23Z</time>
      </trkpt>
      <trkpt lat="59.010389" lon="17.662128">
        <ele>34.6</ele>
        <time>2020-03-26T08:54:26Z</time>
      </trkpt>
      <trkpt lat="59.009903" lon="17.661846">
        <ele>34.4</ele>
        <time>2020-03-26T08:54:33Z</time>
      </trkpt>
      <trkpt lat="59.009196" lon="17.661481">
        <ele>33.7</ele>
        <time>2020-03-26T08:54:44Z</time>
      </trkpt>
      <trkpt lat="59.008799" lon="17.661119">
        <ele>33</ele>
        <time>2020-03-26T08:54:50Z</time>
      </trkpt>
      <trkpt lat="59.008588" lon="17.660773">
        <ele>32.3</ele>
        <time>2020-03-26T08:54:54Z</time>
      </trkpt>
      <trkpt lat="59.008264" lon="17.660157">
        <ele>31.2</ele>
        <time>2020-03-26T08:55:01Z</time>
      </trkpt>
      <trkpt lat="59.008002" lon="17.659491">
        <ele>30.2</ele>
        <time>2020-03-26T08:55:07Z</time>
      </trkpt>
      <trkpt lat="59.00779" lon="17.659044">
        <ele>29.3</ele>
        <time>2020-03-26T08:55:12Z</time>
      </trkpt>
      <trkpt lat="59.007363" lon="17.658495">
        <ele>28.6</ele>
        <time>2020-03-26T08:55:19Z</time>
      </trkpt>
      <trkpt lat="59.006385" lon="17.657529">
        <ele>28</ele>
        <time>2020-03-26T08:55:35Z</time>
      </trkpt>
      <trkpt lat="59.005147" lon="17.65628">
        <ele>27.1</ele>
        <time>2020-03-26T08:55:55Z</time>
      </trkpt>
      <trkpt lat="59.004385" lon="17.655394">
        <ele>25.9</ele>
        <time>2020-03-26T08:56:08Z</time>
      </trkpt>
      <trkpt lat="59.003756" lon="17.654651">
        <ele>24.8</ele>
        <time>2020-03-26T08:56:19Z</time>
      </trkpt>
      <trkpt lat="59.003234" lon="17.654127">
        <ele>24.1</ele>
        <time>2020-03-26T08:56:27Z</time>
      </trkpt>
      <trkpt lat="59.002711" lon="17.653688">
        <ele>23.3</ele>
        <time>2020-03-26T08:56:35Z</time>
      </trkpt>
      <trkpt lat="59.002313" lon="17.653413">
        <ele>22.1</ele>
        <time>2020-03-26T08:56:41Z</time>
      </trkpt>
      <trkpt lat="59.001526" lon="17.652875">
        <ele>21.1</ele>
        <time>2020-03-26T08:56:53Z</time>
      </trkpt>
      <trkpt lat="59.000485" lon="17.65217">
        <ele>20.1</ele>
        <time>2020-03-26T08:57:09Z</time>
      </trkpt>
      <trkpt lat="58.998541" lon="17.650866">
        <ele>19.2</ele>
        <time>2020-03-26T08:57:39Z</time>
      </trkpt>
      <trkpt lat="58.996645" lon="17.649597">
        <ele>18.2</ele>
        <time>2020-03-26T08:58:08Z</time>
      </trkpt>
      <trkpt lat="58.995394" lon="17.648738">
        <ele>17.4</ele>
        <time>2020-03-26T08:58:27Z</time>
      </trkpt>
      <trkpt lat="58.994412" lon="17.648091">
        <ele>16.8</ele>
        <time>2020-03-26T08:58:42Z</time>
      </trkpt>
      <trkpt lat="58.994072" lon="17.64787">
        <ele>16.6</ele>
        <time>2020-03-26T08:58:47Z</time>
      </trkpt>
      <trkpt lat="58.993097" lon="17.64724">
        <ele>16.5</ele>
        <time>2020-03-26T08:59:02Z</time>
      </trkpt>
      <trkpt lat="58.992849" lon="17.647059">
        <ele>16</ele>
        <time>2020-03-26T08:59:06Z</time>
      </trkpt>
      <trkpt lat="58.992609" lon="17.646819">
        <ele>15.6</ele>
        <time>2020-03-26T08:59:10Z</time>
      </trkpt>
      <trkpt lat="58.992431" lon="17.646596">
        <ele>15.3</ele>
        <time>2020-03-26T08:59:13Z</time>
      </trkpt>
      <trkpt lat="58.99228" lon="17.646362">
        <ele>15</ele>
        <time>2020-03-26T08:59:16Z</time>
      </trkpt>
      <trkpt lat="58.992139" lon="17.646065">
        <ele>14.2</ele>
        <time>2020-03-26T08:59:19Z</time>
      </trkpt>
      <trkpt lat="58.991875" lon="17.645502">
        <ele>13.1</ele>
        <time>2020-03-26T08:59:25Z</time>
      </trkpt>
      <trkpt lat="58.991462" lon="17.64451">
        <ele>12.2</ele>
        <time>2020-03-26T08:59:34Z</time>
      </trkpt>
      <trkpt lat="58.991066" lon="17.643621">
        <ele>11.3</ele>
        <time>2020-03-26T08:59:43Z</time>
      </trkpt>
      <trkpt lat="58.990498" lon="17.642455">
        <ele>10.4</ele>
        <time>2020-03-26T08:59:55Z</time>
      </trkpt>
      <trkpt lat="58.987516" lon="17.63634">
        <ele>9.5</ele>
        <time>2020-03-26T09:00:57Z</time>
      </trkpt>
      <trkpt lat="58.987109" lon="17.635227">
        <ele>8.6</ele>
        <time>2020-03-26T09:01:08Z</time>
      </trkpt>
      <trkpt lat="58.986878" lon="17.634072">
        <ele>7.8</ele>
        <time>2020-03-26T09:01:17Z</time>
      </trkpt>
      <trkpt lat="58.986805" lon="17.633336">
        <ele>7</ele>
        <time>2020-03-26T09:01:22Z</time>
      </trkpt>
      <trkpt lat="58.986802" lon="17.632614">
        <ele>6.5</ele>
        <time>2020-03-26T09:01:28Z</time>
      </trkpt>
      <trkpt lat="58.986833" lon="17.631809">
        <ele>5.7</ele>
        <time>2020-03-26T09:01:34Z</time>
      </trkpt>
      <trkpt lat="58.986945" lon="17.631013">
        <ele>5.5</ele>
        <time>2020-03-26T09:01:40Z</time>
      </trkpt>
      <trkpt lat="58.987342" lon="17.628939">
        <ele>5.5</ele>
        <time>2020-03-26T09:01:56Z</time>
      </trkpt>
      <trkpt lat="58.987689" lon="17.62737">
        <ele>4.8</ele>
        <time>2020-03-26T09:02:09Z</time>
      </trkpt>
      <trkpt lat="58.98795" lon="17.626345">
        <ele>4.5</ele>
        <time>2020-03-26T09:02:18Z</time>
      </trkpt>
      <trkpt lat="58.98831" lon="17.625121">
        <ele>4.4</ele>
        <time>2020-03-26T09:02:28Z</time>
      </trkpt>
      <trkpt lat="58.988842" lon="17.623779">
        <ele>4.4</ele>
        <time>2020-03-26T09:02:41Z</time>
      </trkpt>
      <trkpt lat="58.989153" lon="17.622996">
        <ele>4.4</ele>
        <time>2020-03-26T09:02:48Z</time>
      </trkpt>
      <trkpt lat="58.990187" lon="17.620448">
        <ele>4.5</ele>
        <time>2020-03-26T09:03:12Z</time>
      </trkpt>
      <trkpt lat="58.990438" lon="17.61978">
        <ele>5.1</ele>
        <time>2020-03-26T09:03:18Z</time>
      </trkpt>
      <trkpt lat="58.990864" lon="17.618755">
        <ele>5.8</ele>
        <time>2020-03-26T09:03:28Z</time>
      </trkpt>
      <trkpt lat="58.991521" lon="17.617805">
        <ele>6.7</ele>
        <time>2020-03-26T09:03:40Z</time>
      </trkpt>
      <trkpt lat="58.992012" lon="17.617257">
        <ele>7.5</ele>
        <time>2020-03-26T09:03:48Z</time>
      </trkpt>
      <trkpt lat="58.99245" lon="17.616861">
        <ele>8.1</ele>
        <time>2020-03-26T09:03:55Z</time>
      </trkpt>
      <trkpt lat="58.993247" lon="17.616087">
        <ele>9.4</ele>
        <time>2020-03-26T09:04:08Z</time>
      </trkpt>
      <trkpt lat="58.993766" lon="17.615584">
        <ele>10.8</ele>
        <time>2020-03-26T09:04:16Z</time>
      </trkpt>
      <trkpt lat="58.993879" lon="17.615447">
        <ele>12.1</ele>
        <time>2020-03-26T09:04:18Z</time>
      </trkpt>
      <trkpt lat="58.993883" lon="17.615437">
        <ele>13.7</ele>
        <time>2020-03-26T09:04:19Z</time>
      </trkpt>
      <trkpt lat="58.994037" lon="17.61523">
        <ele>15.4</ele>
        <time>2020-03-26T09:04:21Z</time>
      </trkpt>
      <trkpt lat="58.99449" lon="17.614511">
        <ele>17</ele>
        <time>2020-03-26T09:04:30Z</time>
      </trkpt>
      <trkpt lat="58.995258" lon="17.612816">
        <ele>18.1</ele>
        <time>2020-03-26T09:04:46Z</time>
      </trkpt>
      <trkpt lat="58.995276" lon="17.612783">
        <ele>19.1</ele>
        <time>2020-03-26T09:04:47Z</time>
      </trkpt>
      <trkpt lat="58.995766" lon="17.611883">
        <ele>19.6</ele>
        <time>2020-03-26T09:04:57Z</time>
      </trkpt>
      <trkpt lat="58.996385" lon="17.610902">
        <ele>20.3</ele>
        <time>2020-03-26T09:05:08Z</time>
      </trkpt>
      <trkpt lat="58.996451" lon="17.610798">
        <ele>21.1</ele>
        <time>2020-03-26T09:05:09Z</time>
      </trkpt>
      <trkpt lat="58.996972" lon="17.609979">
        <ele>21.9</ele>
        <time>2020-03-26T09:05:19Z</time>
      </trkpt>
      <trkpt lat="58.998121" lon="17.608277">
        <ele>22.5</ele>
        <time>2020-03-26T09:05:40Z</time>
      </trkpt>
      <trkpt lat="58.999378" lon="17.606082">
        <ele>23.4</ele>
        <time>2020-03-26T09:06:04Z</time>
      </trkpt>
      <trkpt lat="58.999516" lon="17.60585">
        <ele>23.9</ele>
        <time>2020-03-26T09:06:07Z</time>
      </trkpt>
      <trkpt lat="58.999948" lon="17.605124">
        <ele>24.4</ele>
        <time>2020-03-26T09:06:15Z</time>
      </trkpt>
      <trkpt lat="59.000321" lon="17.604623">
        <ele>24.7</ele>
        <time>2020-03-26T09:06:22Z</time>
      </trkpt>
      <trkpt lat="59.00046" lon="17.604435">
        <ele>25.2</ele>
        <time>2020-03-26T09:06:24Z</time>
      </trkpt>
      <trkpt lat="59.000953" lon="17.60383">
        <ele>25</ele>
        <time>2020-03-26T09:06:33Z</time>
      </trkpt>
      <trkpt lat="59.00128" lon="17.603451">
        <ele>25</ele>
        <time>2020-03-26T09:06:38Z</time>
      </trkpt>
      <trkpt lat="59.001475" lon="17.603208">
        <ele>24.9</ele>
        <time>2020-03-26T09:06:42Z</time>
      </trkpt>
      <trkpt lat="59.001572" lon="17.603085">
        <ele>24.5</ele>
        <time>2020-03-26T09:06:43Z</time>
      </trkpt>
      <trkpt lat="59.001738" lon="17.602849">
        <ele>24.1</ele>
        <time>2020-03-26T09:06:46Z</time>
      </trkpt>
      <trkpt lat="59.002382" lon="17.601718">
        <ele>23.5</ele>
        <time>2020-03-26T09:06:59Z</time>
      </trkpt>
      <trkpt lat="59.00377" lon="17.599098">
        <ele>22.7</ele>
        <time>2020-03-26T09:07:27Z</time>
      </trkpt>
      <trkpt lat="59.004048" lon="17.598594">
        <ele>22</ele>
        <time>2020-03-26T09:07:32Z</time>
      </trkpt>
      <trkpt lat="59.004211" lon="17.598355">
        <ele>21.5</ele>
        <time>2020-03-26T09:07:35Z</time>
      </trkpt>
      <trkpt lat="59.004432" lon="17.598145">
        <ele>20.9</ele>
        <time>2020-03-26T09:07:39Z</time>
      </trkpt>
      <trkpt lat="59.004585" lon="17.598011">
        <ele>20.6</ele>
        <time>2020-03-26T09:07:41Z</time>
      </trkpt>
      <trkpt lat="59.004791" lon="17.597867">
        <ele>20.6</ele>
        <time>2020-03-26T09:07:44Z</time>
      </trkpt>
      <trkpt lat="59.004966" lon="17.597783">
        <ele>20.3</ele>
        <time>2020-03-26T09:07:47Z</time>
      </trkpt>
      <trkpt lat="59.005159" lon="17.597515">
        <ele>19.9</ele>
        <time>2020-03-26T09:07:50Z</time>
      </trkpt>
      <trkpt lat="59.005299" lon="17.597321">
        <ele>19.5</ele>
        <time>2020-03-26T09:07:53Z</time>
      </trkpt>
      <trkpt lat="59.005442" lon="17.59655">
        <ele>19.6</ele>
        <time>2020-03-26T09:07:59Z</time>
      </trkpt>
      <trkpt lat="59.004822" lon="17.596442">
        <ele>19.7</ele>
        <time>2020-03-26T09:08:08Z</time>
      </trkpt>
      <trkpt lat="59.004377" lon="17.596292">
        <ele>20.5</ele>
        <time>2020-03-26T09:08:14Z</time>
      </trkpt>
      <trkpt lat="59.003992" lon="17.596144">
        <ele>20.8</ele>
        <time>2020-03-26T09:08:20Z</time>
      </trkpt>
      <trkpt lat="59.003578" lon="17.595903">
        <ele>21.2</ele>
        <time>2020-03-26T09:08:26Z</time>
      </trkpt>
      <trkpt lat="59.002991" lon="17.595444">
        <ele>21.5</ele>
        <time>2020-03-26T09:08:35Z</time>
      </trkpt>
      <trkpt lat="59.002976" lon="17.595428">
        <ele>22</ele>
        <time>2020-03-26T09:08:36Z</time>
      </trkpt>
      <trkpt lat="59.002528" lon="17.594958">
        <ele>22.8</ele>
        <time>2020-03-26T09:08:43Z</time>
      </trkpt>
      <trkpt lat="59.002078" lon="17.594353">
        <ele>24.5</ele>
        <time>2020-03-26T09:08:51Z</time>
      </trkpt>
      <trkpt lat="59.001678" lon="17.593717">
        <ele>26</ele>
        <time>2020-03-26T09:08:58Z</time>
      </trkpt>
      <trkpt lat="59.001235" lon="17.592789">
        <ele>27.5</ele>
        <time>2020-03-26T09:09:08Z</time>
      </trkpt>
      <trkpt lat="59.001144" lon="17.592587">
        <ele>29.1</ele>
        <time>2020-03-26T09:09:10Z</time>
      </trkpt>
      <trkpt lat="59.000183" lon="17.590334">
        <ele>30.4</ele>
        <time>2020-03-26T09:09:32Z</time>
      </trkpt>
      <trkpt lat="58.999221" lon="17.588102">
        <ele>30.5</ele>
        <time>2020-03-26T09:09:53Z</time>
      </trkpt>
      <trkpt lat="58.998393" lon="17.586578">
        <ele>31.2</ele>
        <time>2020-03-26T09:10:10Z</time>
      </trkpt>
      <trkpt lat="58.997288" lon="17.584906">
        <ele>32</ele>
        <time>2020-03-26T09:10:30Z</time>
      </trkpt>
      <trkpt lat="58.995686" lon="17.582588">
        <ele>32.7</ele>
        <time>2020-03-26T09:10:59Z</time>
      </trkpt>
      <trkpt lat="58.994648" lon="17.581387">
        <ele>33.9</ele>
        <time>2020-03-26T09:11:16Z</time>
      </trkpt>
      <trkpt lat="58.993576" lon="17.580507">
        <ele>34.2</ele>
        <time>2020-03-26T09:11:33Z</time>
      </trkpt>
      <trkpt lat="58.99169" lon="17.579334">
        <ele>34.5</ele>
        <time>2020-03-26T09:12:02Z</time>
      </trkpt>
      <trkpt lat="58.990461" lon="17.578495">
        <ele>35.1</ele>
        <time>2020-03-26T09:12:21Z</time>
      </trkpt>
      <trkpt lat="58.990269" lon="17.578393">
        <ele>36.1</ele>
        <time>2020-03-26T09:12:24Z</time>
      </trkpt>
      <trkpt lat="58.989242" lon="17.577845">
        <ele>37.2</ele>
        <time>2020-03-26T09:12:39Z</time>
      </trkpt>
      <trkpt lat="58.988247" lon="17.57748">
        <ele>38.3</ele>
        <time>2020-03-26T09:12:54Z</time>
      </trkpt>
      <trkpt lat="58.98705" lon="17.577351">
        <ele>40.1</ele>
        <time>2020-03-26T09:13:11Z</time>
      </trkpt>
      <trkpt lat="58.986779" lon="17.577355">
        <ele>40.7</ele>
        <time>2020-03-26T09:13:15Z</time>
      </trkpt>
      <trkpt lat="58.985327" lon="17.577373">
        <ele>41.4</ele>
        <time>2020-03-26T09:13:36Z</time>
      </trkpt>
      <trkpt lat="58.983018" lon="17.577373">
        <ele>41.6</ele>
        <time>2020-03-26T09:14:09Z</time>
      </trkpt>
      <trkpt lat="58.982399" lon="17.577373">
        <ele>41</ele>
        <time>2020-03-26T09:14:18Z</time>
      </trkpt>
      <trkpt lat="58.98108" lon="17.577137">
        <ele>41.1</ele>
        <time>2020-03-26T09:14:37Z</time>
      </trkpt>
      <trkpt lat="58.978718" lon="17.576729">
        <ele>40.2</ele>
        <time>2020-03-26T09:15:12Z</time>
      </trkpt>
      <trkpt lat="58.976782" lon="17.576321">
        <ele>38.6</ele>
        <time>2020-03-26T09:15:40Z</time>
      </trkpt>
      <trkpt lat="58.975211" lon="17.575828">
        <ele>36.5</ele>
        <time>2020-03-26T09:16:03Z</time>
      </trkpt>
      <trkpt lat="58.974171" lon="17.575105">
        <ele>33.1</ele>
        <time>2020-03-26T09:16:19Z</time>
      </trkpt>
      <trkpt lat="58.972672" lon="17.573838">
        <ele>30.1</ele>
        <time>2020-03-26T09:16:42Z</time>
      </trkpt>
      <trkpt lat="58.971687" lon="17.572987">
        <ele>26.5</ele>
        <time>2020-03-26T09:16:58Z</time>
      </trkpt>
      <trkpt lat="58.970771" lon="17.572274">
        <ele>23.7</ele>
        <time>2020-03-26T09:17:12Z</time>
      </trkpt>
      <trkpt lat="58.970682" lon="17.572205">
        <ele>20.3</ele>
        <time>2020-03-26T09:17:14Z</time>
      </trkpt>
      <trkpt lat="58.969313" lon="17.571039">
        <ele>17.5</ele>
        <time>2020-03-26T09:17:35Z</time>
      </trkpt>
      <trkpt lat="58.96834" lon="17.56995">
        <ele>15.5</ele>
        <time>2020-03-26T09:17:51Z</time>
      </trkpt>
      <trkpt lat="58.965275" lon="17.565739">
        <ele>14.6</ele>
        <time>2020-03-26T09:18:46Z</time>
      </trkpt>
      <trkpt lat="58.964428" lon="17.564586">
        <ele>13.4</ele>
        <time>2020-03-26T09:19:01Z</time>
      </trkpt>
      <trkpt lat="58.963707" lon="17.563459">
        <ele>12.1</ele>
        <time>2020-03-26T09:19:14Z</time>
      </trkpt>
      <trkpt lat="58.962634" lon="17.562026">
        <ele>10.9</ele>
        <time>2020-03-26T09:19:33Z</time>
      </trkpt>
      <trkpt lat="58.961945" lon="17.561399">
        <ele>10.9</ele>
        <time>2020-03-26T09:19:44Z</time>
      </trkpt>
      <trkpt lat="58.960618" lon="17.560626">
        <ele>10.6</ele>
        <time>2020-03-26T09:20:04Z</time>
      </trkpt>
      <trkpt lat="58.959055" lon="17.5598">
        <ele>10.8</ele>
        <time>2020-03-26T09:20:27Z</time>
      </trkpt>
      <trkpt lat="58.958095" lon="17.559071">
        <ele>11.1</ele>
        <time>2020-03-26T09:20:42Z</time>
      </trkpt>
      <trkpt lat="58.957478" lon="17.558443">
        <ele>13.2</ele>
        <time>2020-03-26T09:20:52Z</time>
      </trkpt>
      <trkpt lat="58.957055" lon="17.55781">
        <ele>14.6</ele>
        <time>2020-03-26T09:21:00Z</time>
      </trkpt>
      <trkpt lat="58.956737" lon="17.557172">
        <ele>14.6</ele>
        <time>2020-03-26T09:21:07Z</time>
      </trkpt>
      <trkpt lat="58.956474" lon="17.556614">
        <ele>13.6</ele>
        <time>2020-03-26T09:21:12Z</time>
      </trkpt>
      <trkpt lat="58.956341" lon="17.55637">
        <ele>13.5</ele>
        <time>2020-03-26T09:21:15Z</time>
      </trkpt>
      <trkpt lat="58.955165" lon="17.554285">
        <ele>14.1</ele>
        <time>2020-03-26T09:21:38Z</time>
      </trkpt>
      <trkpt lat="58.954368" lon="17.552826">
        <ele>14.7</ele>
        <time>2020-03-26T09:21:54Z</time>
      </trkpt>
      <trkpt lat="58.953461" lon="17.551282">
        <ele>14.9</ele>
        <time>2020-03-26T09:22:11Z</time>
      </trkpt>
      <trkpt lat="58.952089" lon="17.549028">
        <ele>15.2</ele>
        <time>2020-03-26T09:22:37Z</time>
      </trkpt>
      <trkpt lat="58.951181" lon="17.547463">
        <ele>15.5</ele>
        <time>2020-03-26T09:22:55Z</time>
      </trkpt>
      <trkpt lat="58.950319" lon="17.545981">
        <ele>15.7</ele>
        <time>2020-03-26T09:23:11Z</time>
      </trkpt>
      <trkpt lat="58.949888" lon="17.545031">
        <ele>14.7</ele>
        <time>2020-03-26T09:23:21Z</time>
      </trkpt>
      <trkpt lat="58.949847" lon="17.54493">
        <ele>14.2</ele>
        <time>2020-03-26T09:23:22Z</time>
      </trkpt>
      <trkpt lat="58.949675" lon="17.544484">
        <ele>14.8</ele>
        <time>2020-03-26T09:23:26Z</time>
      </trkpt>
      <trkpt lat="58.949487" lon="17.543979">
        <ele>16</ele>
        <time>2020-03-26T09:23:31Z</time>
      </trkpt>
      <trkpt lat="58.948936" lon="17.542414">
        <ele>17.1</ele>
        <time>2020-03-26T09:23:45Z</time>
      </trkpt>
      <trkpt lat="58.948842" lon="17.542148">
        <ele>17.9</ele>
        <time>2020-03-26T09:23:47Z</time>
      </trkpt>
      <trkpt lat="58.948735" lon="17.541849">
        <ele>18.7</ele>
        <time>2020-03-26T09:23:50Z</time>
      </trkpt>
      <trkpt lat="58.94824" lon="17.540467">
        <ele>19.5</ele>
        <time>2020-03-26T09:24:02Z</time>
      </trkpt>
      <trkpt lat="58.947748" lon="17.538548">
        <ele>20.2</ele>
        <time>2020-03-26T09:24:18Z</time>
      </trkpt>
      <trkpt lat="58.947475" lon="17.536751">
        <ele>19.7</ele>
        <time>2020-03-26T09:24:32Z</time>
      </trkpt>
      <trkpt lat="58.947397" lon="17.536193">
        <ele>19.1</ele>
        <time>2020-03-26T09:24:37Z</time>
      </trkpt>
      <trkpt lat="58.947086" lon="17.534057">
        <ele>18.3</ele>
        <time>2020-03-26T09:24:53Z</time>
      </trkpt>
      <trkpt lat="58.94665" lon="17.531323">
        <ele>17.3</ele>
        <time>2020-03-26T09:25:14Z</time>
      </trkpt>
      <trkpt lat="58.946504" lon="17.529299">
        <ele>15.8</ele>
        <time>2020-03-26T09:25:30Z</time>
      </trkpt>
      <trkpt lat="58.946391" lon="17.526748">
        <ele>14.4</ele>
        <time>2020-03-26T09:25:49Z</time>
      </trkpt>
      <trkpt lat="58.946257" lon="17.522275">
        <ele>12.9</ele>
        <time>2020-03-26T09:26:22Z</time>
      </trkpt>
      <trkpt lat="58.946196" lon="17.520367">
        <ele>11.5</ele>
        <time>2020-03-26T09:26:36Z</time>
      </trkpt>
      <trkpt lat="58.946151" lon="17.519488">
        <ele>10.2</ele>
        <time>2020-03-26T09:26:43Z</time>
      </trkpt>
      <trkpt lat="58.946085" lon="17.518951">
        <ele>8.9</ele>
        <time>2020-03-26T09:26:47Z</time>
      </trkpt>
      <trkpt lat="58.945988" lon="17.518645">
        <ele>8.1</ele>
        <time>2020-03-26T09:26:50Z</time>
      </trkpt>
      <trkpt lat="58.945876" lon="17.518431">
        <ele>7.7</ele>
        <time>2020-03-26T09:26:52Z</time>
      </trkpt>
      <trkpt lat="58.945705" lon="17.518169">
        <ele>7.5</ele>
        <time>2020-03-26T09:26:55Z</time>
      </trkpt>
      <trkpt lat="58.945533" lon="17.517973">
        <ele>7.5</ele>
        <time>2020-03-26T09:26:58Z</time>
      </trkpt>
      <trkpt lat="58.945776" lon="17.517245">
        <ele>7.5</ele>
        <time>2020-03-26T09:27:05Z</time>
      </trkpt>
      <trkpt lat="58.945848" lon="17.516904">
        <ele>7.6</ele>
        <time>2020-03-26T09:27:07Z</time>
      </trkpt>
      <trkpt lat="58.945929" lon="17.516402">
        <ele>7.7</ele>
        <time>2020-03-26T09:27:11Z</time>
      </trkpt>
      <trkpt lat="58.945964" lon="17.515906">
        <ele>7.8</ele>
        <time>2020-03-26T09:27:15Z</time>
      </trkpt>
      <trkpt lat="58.94598" lon="17.515468">
        <ele>7.8</ele>
        <time>2020-03-26T09:27:18Z</time>
      </trkpt>
      <trkpt lat="58.945958" lon="17.514532">
        <ele>7.8</ele>
        <time>2020-03-26T09:27:25Z</time>
      </trkpt>
      <trkpt lat="58.945935" lon="17.513964">
        <ele>8.1</ele>
        <time>2020-03-26T09:27:29Z</time>
      </trkpt>
      <trkpt lat="58.945935" lon="17.512333">
        <ele>8.9</ele>
        <time>2020-03-26T09:27:42Z</time>
      </trkpt>
      <trkpt lat="58.945951" lon="17.511874">
        <ele>9.7</ele>
        <time>2020-03-26T09:27:45Z</time>
      </trkpt>
      <trkpt lat="58.946115" lon="17.51038">
        <ele>10.5</ele>
        <time>2020-03-26T09:27:56Z</time>
      </trkpt>
      <trkpt lat="58.946287" lon="17.509183">
        <ele>11.5</ele>
        <time>2020-03-26T09:28:06Z</time>
      </trkpt>
      <trkpt lat="58.946534" lon="17.507976">
        <ele>12.4</ele>
        <time>2020-03-26T09:28:15Z</time>
      </trkpt>
      <trkpt lat="58.947126" lon="17.504954">
        <ele>13.3</ele>
        <time>2020-03-26T09:28:40Z</time>
      </trkpt>
      <trkpt lat="58.947302" lon="17.504038">
        <ele>14.2</ele>
        <time>2020-03-26T09:28:47Z</time>
      </trkpt>
      <trkpt lat="58.947348" lon="17.503708">
        <ele>15</ele>
        <time>2020-03-26T09:28:49Z</time>
      </trkpt>
      <trkpt lat="58.947442" lon="17.503355">
        <ele>15.8</ele>
        <time>2020-03-26T09:28:52Z</time>
      </trkpt>
      <trkpt lat="58.947452" lon="17.503064">
        <ele>16.6</ele>
        <time>2020-03-26T09:28:54Z</time>
      </trkpt>
      <trkpt lat="58.947448" lon="17.503002">
        <ele>17.5</ele>
        <time>2020-03-26T09:28:55Z</time>
      </trkpt>
      <trkpt lat="58.947414" lon="17.502825">
        <ele>17.7</ele>
        <time>2020-03-26T09:28:56Z</time>
      </trkpt>
      <trkpt lat="58.947322" lon="17.502505">
        <ele>18.2</ele>
        <time>2020-03-26T09:28:59Z</time>
      </trkpt>
      <trkpt lat="58.947236" lon="17.502184">
        <ele>18.3</ele>
        <time>2020-03-26T09:29:02Z</time>
      </trkpt>
      <trkpt lat="58.947144" lon="17.501844">
        <ele>18.3</ele>
        <time>2020-03-26T09:29:05Z</time>
      </trkpt>
      <trkpt lat="58.947042" lon="17.501433">
        <ele>18.4</ele>
        <time>2020-03-26T09:29:08Z</time>
      </trkpt>
      <trkpt lat="58.947016" lon="17.501325">
        <ele>18.5</ele>
        <time>2020-03-26T09:29:09Z</time>
      </trkpt>
      <trkpt lat="58.946468" lon="17.499093">
        <ele>18.5</ele>
        <time>2020-03-26T09:29:27Z</time>
      </trkpt>
      <trkpt lat="58.946169" lon="17.497846">
        <ele>18.5</ele>
        <time>2020-03-26T09:29:38Z</time>
      </trkpt>
      <trkpt lat="58.945916" lon="17.496855">
        <ele>18.6</ele>
        <time>2020-03-26T09:29:46Z</time>
      </trkpt>
      <trkpt lat="58.945516" lon="17.495273">
        <ele>18.6</ele>
        <time>2020-03-26T09:29:59Z</time>
      </trkpt>
      <trkpt lat="58.945255" lon="17.49417">
        <ele>18.2</ele>
        <time>2020-03-26T09:30:08Z</time>
      </trkpt>
      <trkpt lat="58.945136" lon="17.493612">
        <ele>17.7</ele>
        <time>2020-03-26T09:30:13Z</time>
      </trkpt>
      <trkpt lat="58.945081" lon="17.493293">
        <ele>17.2</ele>
        <time>2020-03-26T09:30:15Z</time>
      </trkpt>
      <trkpt lat="58.945054" lon="17.492953">
        <ele>17</ele>
        <time>2020-03-26T09:30:18Z</time>
      </trkpt>
      <trkpt lat="58.945014" lon="17.492191">
        <ele>16.7</ele>
        <time>2020-03-26T09:30:23Z</time>
      </trkpt>
      <trkpt lat="58.944967" lon="17.49128">
        <ele>16.4</ele>
        <time>2020-03-26T09:30:30Z</time>
      </trkpt>
      <trkpt lat="58.944894" lon="17.48986">
        <ele>16</ele>
        <time>2020-03-26T09:30:41Z</time>
      </trkpt>
      <trkpt lat="58.944875" lon="17.489466">
        <ele>15.7</ele>
        <time>2020-03-26T09:30:44Z</time>
      </trkpt>
      <trkpt lat="58.944843" lon="17.489054">
        <ele>15.5</ele>
        <time>2020-03-26T09:30:47Z</time>
      </trkpt>
      <trkpt lat="58.944749" lon="17.48831">
        <ele>15.4</ele>
        <time>2020-03-26T09:30:53Z</time>
      </trkpt>
      <trkpt lat="58.944721" lon="17.48814">
        <ele>14.7</ele>
        <time>2020-03-26T09:30:54Z</time>
      </trkpt>
      <trkpt lat="58.944701" lon="17.488023">
        <ele>14.5</ele>
        <time>2020-03-26T09:30:55Z</time>
      </trkpt>
      <trkpt lat="58.944632" lon="17.487597">
        <ele>14.2</ele>
        <time>2020-03-26T09:30:58Z</time>
      </trkpt>
      <trkpt lat="58.94441" lon="17.486614">
        <ele>13.9</ele>
        <time>2020-03-26T09:31:06Z</time>
      </trkpt>
      <trkpt lat="58.944155" lon="17.485658">
        <ele>13.6</ele>
        <time>2020-03-26T09:31:14Z</time>
      </trkpt>
      <trkpt lat="58.94319" lon="17.483428">
        <ele>13.5</ele>
        <time>2020-03-26T09:31:36Z</time>
      </trkpt>
      <trkpt lat="58.942956" lon="17.482901">
        <ele>13.4</ele>
        <time>2020-03-26T09:31:41Z</time>
      </trkpt>
      <trkpt lat="58.942853" lon="17.482668">
        <ele>13.2</ele>
        <time>2020-03-26T09:31:43Z</time>
      </trkpt>
      <trkpt lat="58.942681" lon="17.482295">
        <ele>12.9</ele>
        <time>2020-03-26T09:31:47Z</time>
      </trkpt>
      <trkpt lat="58.942587" lon="17.482123">
        <ele>12.6</ele>
        <time>2020-03-26T09:31:49Z</time>
      </trkpt>
      <trkpt lat="58.942532" lon="17.482015">
        <ele>12.5</ele>
        <time>2020-03-26T09:31:50Z</time>
      </trkpt>
      <trkpt lat="58.942272" lon="17.481472">
        <ele>13.3</ele>
        <time>2020-03-26T09:31:56Z</time>
      </trkpt>
      <trkpt lat="58.942107" lon="17.481127">
        <ele>14.1</ele>
        <time>2020-03-26T09:31:59Z</time>
      </trkpt>
      <trkpt lat="58.941917" lon="17.48073">
        <ele>14.6</ele>
        <time>2020-03-26T09:32:03Z</time>
      </trkpt>
      <trkpt lat="58.940737" lon="17.478172">
        <ele>15.2</ele>
        <time>2020-03-26T09:32:29Z</time>
      </trkpt>
      <trkpt lat="58.940589" lon="17.477818">
        <ele>15.8</ele>
        <time>2020-03-26T09:32:32Z</time>
      </trkpt>
      <trkpt lat="58.940363" lon="17.477276">
        <ele>16.4</ele>
        <time>2020-03-26T09:32:37Z</time>
      </trkpt>
      <trkpt lat="58.940128" lon="17.476713">
        <ele>17</ele>
        <time>2020-03-26T09:32:43Z</time>
      </trkpt>
      <trkpt lat="58.93953" lon="17.474825">
        <ele>17.7</ele>
        <time>2020-03-26T09:32:59Z</time>
      </trkpt>
      <trkpt lat="58.93912" lon="17.472942">
        <ele>18.8</ele>
        <time>2020-03-26T09:33:14Z</time>
      </trkpt>
      <trkpt lat="58.938168" lon="17.472816">
        <ele>20.2</ele>
        <time>2020-03-26T09:33:28Z</time>
      </trkpt>
      <trkpt lat="58.93781" lon="17.472822">
        <ele>21.5</ele>
        <time>2020-03-26T09:33:33Z</time>
      </trkpt>
      <trkpt lat="58.937705" lon="17.472872">
        <ele>22.4</ele>
        <time>2020-03-26T09:33:35Z</time>
      </trkpt>
      <trkpt lat="58.937534" lon="17.472956">
        <ele>23.4</ele>
        <time>2020-03-26T09:33:38Z</time>
      </trkpt>
      <trkpt lat="58.937312" lon="17.4731">
        <ele>24.4</ele>
        <time>2020-03-26T09:33:41Z</time>
      </trkpt>
      <trkpt lat="58.93704" lon="17.473353">
        <ele>24.8</ele>
        <time>2020-03-26T09:33:45Z</time>
      </trkpt>
      <trkpt lat="58.93686" lon="17.473564">
        <ele>25.7</ele>
        <time>2020-03-26T09:33:48Z</time>
      </trkpt>
      <trkpt lat="58.936697" lon="17.473801">
        <ele>27</ele>
        <time>2020-03-26T09:33:51Z</time>
      </trkpt>
      <trkpt lat="58.936512" lon="17.474096">
        <ele>27.6</ele>
        <time>2020-03-26T09:33:55Z</time>
      </trkpt>
      <trkpt lat="58.93619" lon="17.474843">
        <ele>27.9</ele>
        <time>2020-03-26T09:34:02Z</time>
      </trkpt>
      <trkpt lat="58.935717" lon="17.476275">
        <ele>27.6</ele>
        <time>2020-03-26T09:34:15Z</time>
      </trkpt>
      <trkpt lat="58.935309" lon="17.477282">
        <ele>26.7</ele>
        <time>2020-03-26T09:34:24Z</time>
      </trkpt>
      <trkpt lat="58.934826" lon="17.478448">
        <ele>25.5</ele>
        <time>2020-03-26T09:34:35Z</time>
      </trkpt>
      <trkpt lat="58.933994" lon="17.479835">
        <ele>24.6</ele>
        <time>2020-03-26T09:34:51Z</time>
      </trkpt>
      <trkpt lat="58.933552" lon="17.480493">
        <ele>23.7</ele>
        <time>2020-03-26T09:34:59Z</time>
      </trkpt>
      <trkpt lat="58.933079" lon="17.481053">
        <ele>23.3</ele>
        <time>2020-03-26T09:35:07Z</time>
      </trkpt>
      <trkpt lat="58.932438" lon="17.481646">
        <ele>23.7</ele>
        <time>2020-03-26T09:35:18Z</time>
      </trkpt>
      <trkpt lat="58.931876" lon="17.482064">
        <ele>23.3</ele>
        <time>2020-03-26T09:35:26Z</time>
      </trkpt>
      <trkpt lat="58.931307" lon="17.482384">
        <ele>22.4</ele>
        <time>2020-03-26T09:35:35Z</time>
      </trkpt>
      <trkpt lat="58.930877" lon="17.482545">
        <ele>22.1</ele>
        <time>2020-03-26T09:35:41Z</time>
      </trkpt>
      <trkpt lat="58.930517" lon="17.482657">
        <ele>22</ele>
        <time>2020-03-26T09:35:46Z</time>
      </trkpt>
      <trkpt lat="58.929598" lon="17.482779">
        <ele>22.1</ele>
        <time>2020-03-26T09:36:00Z</time>
      </trkpt>
      <trkpt lat="58.928208" lon="17.482766">
        <ele>22.5</ele>
        <time>2020-03-26T09:36:20Z</time>
      </trkpt>
      <trkpt lat="58.926081" lon="17.482713">
        <ele>24</ele>
        <time>2020-03-26T09:36:51Z</time>
      </trkpt>
      <trkpt lat="58.924589" lon="17.482635">
        <ele>25.4</ele>
        <time>2020-03-26T09:37:12Z</time>
      </trkpt>
      <trkpt lat="58.924487" lon="17.48263">
        <ele>26.7</ele>
        <time>2020-03-26T09:37:14Z</time>
      </trkpt>
      <trkpt lat="58.924357" lon="17.482623">
        <ele>28</ele>
        <time>2020-03-26T09:37:15Z</time>
      </trkpt>
      <trkpt lat="58.923804" lon="17.482594">
        <ele>27.9</ele>
        <time>2020-03-26T09:37:23Z</time>
      </trkpt>
      <trkpt lat="58.922351" lon="17.482581">
        <ele>27.7</ele>
        <time>2020-03-26T09:37:44Z</time>
      </trkpt>
      <trkpt lat="58.921472" lon="17.482462">
        <ele>27</ele>
        <time>2020-03-26T09:37:57Z</time>
      </trkpt>
      <trkpt lat="58.920746" lon="17.482224">
        <ele>26.1</ele>
        <time>2020-03-26T09:38:08Z</time>
      </trkpt>
      <trkpt lat="58.920232" lon="17.481881">
        <ele>25.2</ele>
        <time>2020-03-26T09:38:16Z</time>
      </trkpt>
      <trkpt lat="58.918469" lon="17.479636">
        <ele>24.4</ele>
        <time>2020-03-26T09:38:46Z</time>
      </trkpt>
      <trkpt lat="58.916785" lon="17.477061">
        <ele>23.4</ele>
        <time>2020-03-26T09:39:17Z</time>
      </trkpt>
      <trkpt lat="58.915099" lon="17.474671">
        <ele>21.5</ele>
        <time>2020-03-26T09:39:47Z</time>
      </trkpt>
      <trkpt lat="58.914138" lon="17.473277">
        <ele>19.5</ele>
        <time>2020-03-26T09:40:05Z</time>
      </trkpt>
      <trkpt lat="58.913602" lon="17.4725">
        <ele>17.4</ele>
        <time>2020-03-26T09:40:14Z</time>
      </trkpt>
      <trkpt lat="58.913517" lon="17.472284">
        <ele>15.1</ele>
        <time>2020-03-26T09:40:16Z</time>
      </trkpt>
      <trkpt lat="58.913463" lon="17.472113">
        <ele>13.7</ele>
        <time>2020-03-26T09:40:18Z</time>
      </trkpt>
      <trkpt lat="58.913462" lon="17.471933">
        <ele>12.4</ele>
        <time>2020-03-26T09:40:19Z</time>
      </trkpt>
      <trkpt lat="58.913441" lon="17.471857">
        <ele>12.2</ele>
        <time>2020-03-26T09:40:20Z</time>
      </trkpt>
      <trkpt lat="58.913369" lon="17.471759">
        <ele>11.8</ele>
        <time>2020-03-26T09:40:21Z</time>
      </trkpt>
      <trkpt lat="58.913341" lon="17.471747">
        <ele>11.5</ele>
        <time>2020-03-26T09:40:22Z</time>
      </trkpt>
      <trkpt lat="58.913255" lon="17.471677">
        <ele>11.2</ele>
        <time>2020-03-26T09:40:23Z</time>
      </trkpt>
      <trkpt lat="58.913191" lon="17.471607">
        <ele>11</ele>
        <time>2020-03-26T09:40:24Z</time>
      </trkpt>
      <trkpt lat="58.912967" lon="17.471283">
        <ele>11.1</ele>
        <time>2020-03-26T09:40:28Z</time>
      </trkpt>
      <trkpt lat="58.912355" lon="17.469851">
        <ele>11.5</ele>
        <time>2020-03-26T09:40:42Z</time>
      </trkpt>
      <trkpt lat="58.912035" lon="17.46891">
        <ele>11.9</ele>
        <time>2020-03-26T09:40:50Z</time>
      </trkpt>
      <trkpt lat="58.911509" lon="17.467499">
        <ele>12.3</ele>
        <time>2020-03-26T09:41:03Z</time>
      </trkpt>
      <trkpt lat="58.910725" lon="17.465244">
        <ele>12.5</ele>
        <time>2020-03-26T09:41:24Z</time>
      </trkpt>
      <trkpt lat="58.910389" lon="17.46437">
        <ele>12.8</ele>
        <time>2020-03-26T09:41:32Z</time>
      </trkpt>
      <trkpt lat="58.910047" lon="17.463616">
        <ele>13.2</ele>
        <time>2020-03-26T09:41:39Z</time>
      </trkpt>
      <trkpt lat="58.909801" lon="17.463174">
        <ele>14.2</ele>
        <time>2020-03-26T09:41:44Z</time>
      </trkpt>
      <trkpt lat="58.909577" lon="17.462788">
        <ele>15.5</ele>
        <time>2020-03-26T09:41:48Z</time>
      </trkpt>
      <trkpt lat="58.909459" lon="17.46262">
        <ele>17.8</ele>
        <time>2020-03-26T09:41:51Z</time>
      </trkpt>
      <trkpt lat="58.909065" lon="17.462068">
        <ele>20.5</ele>
        <time>2020-03-26T09:41:58Z</time>
      </trkpt>
      <trkpt lat="58.908713" lon="17.461575">
        <ele>21.9</ele>
        <time>2020-03-26T09:42:04Z</time>
      </trkpt>
      <trkpt lat="58.906883" lon="17.459027">
        <ele>22.7</ele>
        <time>2020-03-26T09:42:36Z</time>
      </trkpt>
      <trkpt lat="58.906401" lon="17.458468">
        <ele>22.9</ele>
        <time>2020-03-26T09:42:45Z</time>
      </trkpt>
      <trkpt lat="58.905547" lon="17.457477">
        <ele>23.1</ele>
        <time>2020-03-26T09:42:59Z</time>
      </trkpt>
      <trkpt lat="58.904711" lon="17.456629">
        <ele>23.2</ele>
        <time>2020-03-26T09:43:13Z</time>
      </trkpt>
      <trkpt lat="58.903337" lon="17.45561">
        <ele>22.9</ele>
        <time>2020-03-26T09:43:34Z</time>
      </trkpt>
      <trkpt lat="58.902628" lon="17.455285">
        <ele>22.2</ele>
        <time>2020-03-26T09:43:44Z</time>
      </trkpt>
      <trkpt lat="58.90186" lon="17.454933">
        <ele>21.1</ele>
        <time>2020-03-26T09:43:56Z</time>
      </trkpt>
      <trkpt lat="58.901561" lon="17.454794">
        <ele>20.3</ele>
        <time>2020-03-26T09:44:00Z</time>
      </trkpt>
      <trkpt lat="58.901213" lon="17.454636">
        <ele>18.8</ele>
        <time>2020-03-26T09:44:05Z</time>
      </trkpt>
      <trkpt lat="58.899582" lon="17.453948">
        <ele>16.8</ele>
        <time>2020-03-26T09:44:30Z</time>
      </trkpt>
      <trkpt lat="58.898431" lon="17.452842">
        <ele>15.5</ele>
        <time>2020-03-26T09:44:48Z</time>
      </trkpt>
      <trkpt lat="58.8974" lon="17.451715">
        <ele>14.8</ele>
        <time>2020-03-26T09:45:05Z</time>
      </trkpt>
      <trkpt lat="58.896967" lon="17.451209">
        <ele>14.8</ele>
        <time>2020-03-26T09:45:13Z</time>
      </trkpt>
      <trkpt lat="58.896617" lon="17.450799">
        <ele>15.8</ele>
        <time>2020-03-26T09:45:18Z</time>
      </trkpt>
      <trkpt lat="58.896371" lon="17.450488">
        <ele>17</ele>
        <time>2020-03-26T09:45:23Z</time>
      </trkpt>
      <trkpt lat="58.895702" lon="17.449647">
        <ele>19.3</ele>
        <time>2020-03-26T09:45:34Z</time>
      </trkpt>
      <trkpt lat="58.895123" lon="17.449098">
        <ele>21.8</ele>
        <time>2020-03-26T09:45:44Z</time>
      </trkpt>
      <trkpt lat="58.893898" lon="17.447999">
        <ele>23.8</ele>
        <time>2020-03-26T09:46:03Z</time>
      </trkpt>
      <trkpt lat="58.891726" lon="17.44633">
        <ele>25.4</ele>
        <time>2020-03-26T09:46:37Z</time>
      </trkpt>
      <trkpt lat="58.890605" lon="17.445743">
        <ele>27.2</ele>
        <time>2020-03-26T09:46:54Z</time>
      </trkpt>
      <trkpt lat="58.889023" lon="17.444818">
        <ele>28.8</ele>
        <time>2020-03-26T09:47:17Z</time>
      </trkpt>
      <trkpt lat="58.888699" lon="17.444629">
        <ele>30.1</ele>
        <time>2020-03-26T09:47:22Z</time>
      </trkpt>
      <trkpt lat="58.888141" lon="17.444233">
        <ele>31.5</ele>
        <time>2020-03-26T09:47:31Z</time>
      </trkpt>
      <trkpt lat="58.887895" lon="17.444055">
        <ele>32.8</ele>
        <time>2020-03-26T09:47:35Z</time>
      </trkpt>
      <trkpt lat="58.886482" lon="17.442939">
        <ele>32.8</ele>
        <time>2020-03-26T09:47:57Z</time>
      </trkpt>
      <trkpt lat="58.885405" lon="17.442377">
        <ele>32.8</ele>
        <time>2020-03-26T09:48:13Z</time>
      </trkpt>
      <trkpt lat="58.884252" lon="17.44212">
        <ele>32</ele>
        <time>2020-03-26T09:48:30Z</time>
      </trkpt>
      <trkpt lat="58.881291" lon="17.44162">
        <ele>31</ele>
        <time>2020-03-26T09:49:13Z</time>
      </trkpt>
      <trkpt lat="58.88074" lon="17.441364">
        <ele>30.5</ele>
        <time>2020-03-26T09:49:21Z</time>
      </trkpt>
      <trkpt lat="58.880183" lon="17.441105">
        <ele>30.2</ele>
        <time>2020-03-26T09:49:29Z</time>
      </trkpt>
      <trkpt lat="58.878886" lon="17.440504">
        <ele>29.2</ele>
        <time>2020-03-26T09:49:48Z</time>
      </trkpt>
      <trkpt lat="58.878453" lon="17.440407">
        <ele>28.4</ele>
        <time>2020-03-26T09:49:55Z</time>
      </trkpt>
      <trkpt lat="58.877655" lon="17.440343">
        <ele>27.9</ele>
        <time>2020-03-26T09:50:06Z</time>
      </trkpt>
      <trkpt lat="58.87558" lon="17.440146">
        <ele>26.8</ele>
        <time>2020-03-26T09:50:36Z</time>
      </trkpt>
      <trkpt lat="58.874725" lon="17.439905">
        <ele>25.5</ele>
        <time>2020-03-26T09:50:49Z</time>
      </trkpt>
      <trkpt lat="58.874494" lon="17.439785">
        <ele>24.1</ele>
        <time>2020-03-26T09:50:52Z</time>
      </trkpt>
      <trkpt lat="58.873401" lon="17.439141">
        <ele>22.6</ele>
        <time>2020-03-26T09:51:09Z</time>
      </trkpt>
      <trkpt lat="58.872957" lon="17.438851">
        <ele>21.2</ele>
        <time>2020-03-26T09:51:16Z</time>
      </trkpt>
      <trkpt lat="58.871465" lon="17.437875">
        <ele>19.9</ele>
        <time>2020-03-26T09:51:38Z</time>
      </trkpt>
      <trkpt lat="58.870655" lon="17.437184">
        <ele>18.5</ele>
        <time>2020-03-26T09:51:51Z</time>
      </trkpt>
      <trkpt lat="58.869858" lon="17.436087">
        <ele>17.2</ele>
        <time>2020-03-26T09:52:05Z</time>
      </trkpt>
      <trkpt lat="58.869688" lon="17.435798">
        <ele>16</ele>
        <time>2020-03-26T09:52:08Z</time>
      </trkpt>
      <trkpt lat="58.869625" lon="17.435691">
        <ele>14.8</ele>
        <time>2020-03-26T09:52:10Z</time>
      </trkpt>
      <trkpt lat="58.869365" lon="17.435223">
        <ele>13.9</ele>
        <time>2020-03-26T09:52:15Z</time>
      </trkpt>
      <trkpt lat="58.869327" lon="17.43515">
        <ele>13.8</ele>
        <time>2020-03-26T09:52:16Z</time>
      </trkpt>
      <trkpt lat="58.86908" lon="17.434652">
        <ele>13.5</ele>
        <time>2020-03-26T09:52:21Z</time>
      </trkpt>
      <trkpt lat="58.86788" lon="17.4319">
        <ele>14</ele>
        <time>2020-03-26T09:52:48Z</time>
      </trkpt>
      <trkpt lat="58.866461" lon="17.428644">
        <ele>14.7</ele>
        <time>2020-03-26T09:53:19Z</time>
      </trkpt>
      <trkpt lat="58.864953" lon="17.425425">
        <ele>15.5</ele>
        <time>2020-03-26T09:53:52Z</time>
      </trkpt>
      <trkpt lat="58.862711" lon="17.421821">
        <ele>16.6</ele>
        <time>2020-03-26T09:54:34Z</time>
      </trkpt>
      <trkpt lat="58.860949" lon="17.418419">
        <ele>18.3</ele>
        <time>2020-03-26T09:55:10Z</time>
      </trkpt>
      <trkpt lat="58.859937" lon="17.417315">
        <ele>20</ele>
        <time>2020-03-26T09:55:27Z</time>
      </trkpt>
      <trkpt lat="58.858672" lon="17.416069">
        <ele>22</ele>
        <time>2020-03-26T09:55:47Z</time>
      </trkpt>
      <trkpt lat="58.85774" lon="17.41474">
        <ele>24.4</ele>
        <time>2020-03-26T09:56:04Z</time>
      </trkpt>
      <trkpt lat="58.857516" lon="17.414369">
        <ele>26.1</ele>
        <time>2020-03-26T09:56:08Z</time>
      </trkpt>
      <trkpt lat="58.857051" lon="17.41351">
        <ele>27.2</ele>
        <time>2020-03-26T09:56:18Z</time>
      </trkpt>
      <trkpt lat="58.856713" lon="17.412955">
        <ele>28.4</ele>
        <time>2020-03-26T09:56:24Z</time>
      </trkpt>
      <trkpt lat="58.856294" lon="17.412386">
        <ele>29.5</ele>
        <time>2020-03-26T09:56:31Z</time>
      </trkpt>
      <trkpt lat="58.855654" lon="17.411564">
        <ele>30.9</ele>
        <time>2020-03-26T09:56:43Z</time>
      </trkpt>
      <trkpt lat="58.854011" lon="17.409633">
        <ele>32.4</ele>
        <time>2020-03-26T09:57:10Z</time>
      </trkpt>
      <trkpt lat="58.853323" lon="17.408517">
        <ele>33.7</ele>
        <time>2020-03-26T09:57:23Z</time>
      </trkpt>
      <trkpt lat="58.852724" lon="17.407058">
        <ele>34.5</ele>
        <time>2020-03-26T09:57:37Z</time>
      </trkpt>
      <trkpt lat="58.852301" lon="17.405384">
        <ele>35.2</ele>
        <time>2020-03-26T09:57:51Z</time>
      </trkpt>
      <trkpt lat="58.852131" lon="17.403787">
        <ele>35.5</ele>
        <time>2020-03-26T09:58:03Z</time>
      </trkpt>
      <trkpt lat="58.852059" lon="17.403135">
        <ele>35.5</ele>
        <time>2020-03-26T09:58:08Z</time>
      </trkpt>
      <trkpt lat="58.85195" lon="17.40229">
        <ele>35.9</ele>
        <time>2020-03-26T09:58:15Z</time>
      </trkpt>
      <trkpt lat="58.851834" lon="17.401604">
        <ele>36.2</ele>
        <time>2020-03-26T09:58:20Z</time>
      </trkpt>
      <trkpt lat="58.851759" lon="17.40127">
        <ele>36.5</ele>
        <time>2020-03-26T09:58:23Z</time>
      </trkpt>
      <trkpt lat="58.85167" lon="17.400874">
        <ele>35.9</ele>
        <time>2020-03-26T09:58:26Z</time>
      </trkpt>
      <trkpt lat="58.85149" lon="17.400257">
        <ele>34.7</ele>
        <time>2020-03-26T09:58:32Z</time>
      </trkpt>
      <trkpt lat="58.851265" lon="17.399628">
        <ele>33.8</ele>
        <time>2020-03-26T09:58:37Z</time>
      </trkpt>
      <trkpt lat="58.850735" lon="17.398419">
        <ele>32.5</ele>
        <time>2020-03-26T09:58:49Z</time>
      </trkpt>
      <trkpt lat="58.85042" lon="17.397693">
        <ele>30.9</ele>
        <time>2020-03-26T09:58:56Z</time>
      </trkpt>
      <trkpt lat="58.850016" lon="17.396672">
        <ele>29.3</ele>
        <time>2020-03-26T09:59:06Z</time>
      </trkpt>
      <trkpt lat="58.849616" lon="17.395125">
        <ele>27.6</ele>
        <time>2020-03-26T09:59:19Z</time>
      </trkpt>
      <trkpt lat="58.849394" lon="17.39341">
        <ele>25.8</ele>
        <time>2020-03-26T09:59:32Z</time>
      </trkpt>
      <trkpt lat="58.849216" lon="17.390878">
        <ele>23.9</ele>
        <time>2020-03-26T09:59:51Z</time>
      </trkpt>
      <trkpt lat="58.849113" lon="17.389155">
        <ele>22.5</ele>
        <time>2020-03-26T10:00:04Z</time>
      </trkpt>
      <trkpt lat="58.849015" lon="17.388275">
        <ele>21.4</ele>
        <time>2020-03-26T10:00:11Z</time>
      </trkpt>
      <trkpt lat="58.848883" lon="17.387482">
        <ele>20.7</ele>
        <time>2020-03-26T10:00:17Z</time>
      </trkpt>
      <trkpt lat="58.848722" lon="17.386704">
        <ele>20.5</ele>
        <time>2020-03-26T10:00:23Z</time>
      </trkpt>
      <trkpt lat="58.84858" lon="17.386226">
        <ele>19.9</ele>
        <time>2020-03-26T10:00:27Z</time>
      </trkpt>
      <trkpt lat="58.848299" lon="17.385368">
        <ele>19.5</ele>
        <time>2020-03-26T10:00:35Z</time>
      </trkpt>
      <trkpt lat="58.848116" lon="17.3849">
        <ele>19.5</ele>
        <time>2020-03-26T10:00:39Z</time>
      </trkpt>
      <trkpt lat="58.848047" lon="17.384737">
        <ele>19.4</ele>
        <time>2020-03-26T10:00:41Z</time>
      </trkpt>
      <trkpt lat="58.847749" lon="17.384141">
        <ele>18.8</ele>
        <time>2020-03-26T10:00:47Z</time>
      </trkpt>
      <trkpt lat="58.847535" lon="17.383727">
        <ele>18.5</ele>
        <time>2020-03-26T10:00:51Z</time>
      </trkpt>
      <trkpt lat="58.847266" lon="17.383292">
        <ele>18.3</ele>
        <time>2020-03-26T10:00:57Z</time>
      </trkpt>
      <trkpt lat="58.846871" lon="17.382812">
        <ele>18.2</ele>
        <time>2020-03-26T10:01:03Z</time>
      </trkpt>
      <trkpt lat="58.846568" lon="17.382495">
        <ele>18.1</ele>
        <time>2020-03-26T10:01:08Z</time>
      </trkpt>
      <trkpt lat="58.846263" lon="17.382262">
        <ele>18.6</ele>
        <time>2020-03-26T10:01:13Z</time>
      </trkpt>
      <trkpt lat="58.846062" lon="17.382109">
        <ele>19.1</ele>
        <time>2020-03-26T10:01:16Z</time>
      </trkpt>
      <trkpt lat="58.845919" lon="17.382023">
        <ele>19.3</ele>
        <time>2020-03-26T10:01:18Z</time>
      </trkpt>
      <trkpt lat="58.845175" lon="17.381737">
        <ele>19.5</ele>
        <time>2020-03-26T10:01:29Z</time>
      </trkpt>
      <trkpt lat="58.841867" lon="17.380535">
        <ele>19.6</ele>
        <time>2020-03-26T10:02:18Z</time>
      </trkpt>
      <trkpt lat="58.841245" lon="17.380149">
        <ele>20.2</ele>
        <time>2020-03-26T10:02:27Z</time>
      </trkpt>
      <trkpt lat="58.841141" lon="17.38006">
        <ele>21</ele>
        <time>2020-03-26T10:02:29Z</time>
      </trkpt>
      <trkpt lat="58.84009" lon="17.379162">
        <ele>21.8</ele>
        <time>2020-03-26T10:02:46Z</time>
      </trkpt>
      <trkpt lat="58.83898" lon="17.378046">
        <ele>22.9</ele>
        <time>2020-03-26T10:03:04Z</time>
      </trkpt>
      <trkpt lat="58.838136" lon="17.376929">
        <ele>23.5</ele>
        <time>2020-03-26T10:03:18Z</time>
      </trkpt>
      <trkpt lat="58.837798" lon="17.376329">
        <ele>25.4</ele>
        <time>2020-03-26T10:03:25Z</time>
      </trkpt>
      <trkpt lat="58.837742" lon="17.37623">
        <ele>26.5</ele>
        <time>2020-03-26T10:03:26Z</time>
      </trkpt>
      <trkpt lat="58.837629" lon="17.376029">
        <ele>27.8</ele>
        <time>2020-03-26T10:03:28Z</time>
      </trkpt>
      <trkpt lat="58.837315" lon="17.37547">
        <ele>29</ele>
        <time>2020-03-26T10:03:35Z</time>
      </trkpt>
      <trkpt lat="58.835094" lon="17.371566">
        <ele>29.9</ele>
        <time>2020-03-26T10:04:18Z</time>
      </trkpt>
      <trkpt lat="58.832198" lon="17.36665">
        <ele>29.5</ele>
        <time>2020-03-26T10:05:14Z</time>
      </trkpt>
      <trkpt lat="58.831807" lon="17.365987">
        <ele>29.4</ele>
        <time>2020-03-26T10:05:21Z</time>
      </trkpt>
      <trkpt lat="58.831295" lon="17.365129">
        <ele>29.3</ele>
        <time>2020-03-26T10:05:31Z</time>
      </trkpt>
      <trkpt lat="58.830408" lon="17.364216">
        <ele>29.2</ele>
        <time>2020-03-26T10:05:45Z</time>
      </trkpt>
      <trkpt lat="58.829986" lon="17.363872">
        <ele>28.6</ele>
        <time>2020-03-26T10:05:52Z</time>
      </trkpt>
      <trkpt lat="58.828808" lon="17.363309">
        <ele>28</ele>
        <time>2020-03-26T10:06:10Z</time>
      </trkpt>
      <trkpt lat="58.826509" lon="17.362217">
        <ele>26.2</ele>
        <time>2020-03-26T10:06:44Z</time>
      </trkpt>
      <trkpt lat="58.825902" lon="17.361849">
        <ele>24.5</ele>
        <time>2020-03-26T10:06:53Z</time>
      </trkpt>
      <trkpt lat="58.824943" lon="17.361266">
        <ele>22.5</ele>
        <time>2020-03-26T10:07:08Z</time>
      </trkpt>
      <trkpt lat="58.82292" lon="17.360107">
        <ele>20.5</ele>
        <time>2020-03-26T10:07:38Z</time>
      </trkpt>
      <trkpt lat="58.821321" lon="17.359292">
        <ele>18.5</ele>
        <time>2020-03-26T10:08:02Z</time>
      </trkpt>
      <trkpt lat="58.819944" lon="17.358863">
        <ele>17.5</ele>
        <time>2020-03-26T10:08:22Z</time>
      </trkpt>
      <trkpt lat="58.819761" lon="17.358802">
        <ele>16.4</ele>
        <time>2020-03-26T10:08:25Z</time>
      </trkpt>
      <trkpt lat="58.817767" lon="17.358133">
        <ele>15.2</ele>
        <time>2020-03-26T10:08:54Z</time>
      </trkpt>
      <trkpt lat="58.816922" lon="17.357447">
        <ele>14</ele>
        <time>2020-03-26T10:09:07Z</time>
      </trkpt>
      <trkpt lat="58.816382" lon="17.356772">
        <ele>13.1</ele>
        <time>2020-03-26T10:09:17Z</time>
      </trkpt>
      <trkpt lat="58.816252" lon="17.356611">
        <ele>12.5</ele>
        <time>2020-03-26T10:09:19Z</time>
      </trkpt>
      <trkpt lat="58.816214" lon="17.356547">
        <ele>11.7</ele>
        <time>2020-03-26T10:09:20Z</time>
      </trkpt>
      <trkpt lat="58.81584" lon="17.355937">
        <ele>11.4</ele>
        <time>2020-03-26T10:09:27Z</time>
      </trkpt>
      <trkpt lat="58.815585" lon="17.355438">
        <ele>11.2</ele>
        <time>2020-03-26T10:09:32Z</time>
      </trkpt>
      <trkpt lat="58.815315" lon="17.354853">
        <ele>10.9</ele>
        <time>2020-03-26T10:09:38Z</time>
      </trkpt>
      <trkpt lat="58.814989" lon="17.354013">
        <ele>11.5</ele>
        <time>2020-03-26T10:09:46Z</time>
      </trkpt>
      <trkpt lat="58.814111" lon="17.351526">
        <ele>11.5</ele>
        <time>2020-03-26T10:10:08Z</time>
      </trkpt>
      <trkpt lat="58.812954" lon="17.348266">
        <ele>11.1</ele>
        <time>2020-03-26T10:10:38Z</time>
      </trkpt>
      <trkpt lat="58.811949" lon="17.34546">
        <ele>10.5</ele>
        <time>2020-03-26T10:11:03Z</time>
      </trkpt>
      <trkpt lat="58.811494" lon="17.343846">
        <ele>9.7</ele>
        <time>2020-03-26T10:11:17Z</time>
      </trkpt>
      <trkpt lat="58.810456" lon="17.339613">
        <ele>8.9</ele>
        <time>2020-03-26T10:11:52Z</time>
      </trkpt>
      <trkpt lat="58.809997" lon="17.337924">
        <ele>8.1</ele>
        <time>2020-03-26T10:12:06Z</time>
      </trkpt>
      <trkpt lat="58.809636" lon="17.33659">
        <ele>7.5</ele>
        <time>2020-03-26T10:12:18Z</time>
      </trkpt>
      <trkpt lat="58.809502" lon="17.336131">
        <ele>7</ele>
        <time>2020-03-26T10:12:22Z</time>
      </trkpt>
      <trkpt lat="58.809335" lon="17.335656">
        <ele>6.5</ele>
        <time>2020-03-26T10:12:26Z</time>
      </trkpt>
      <trkpt lat="58.811621" lon="17.333562">
        <ele>6.9</ele>
        <time>2020-03-26T10:13:02Z</time>
      </trkpt>
      <trkpt lat="58.812438" lon="17.33265">
        <ele>7.1</ele>
        <time>2020-03-26T10:13:16Z</time>
      </trkpt>
      <trkpt lat="58.812937" lon="17.332028">
        <ele>7.5</ele>
        <time>2020-03-26T10:13:25Z</time>
      </trkpt>
      <trkpt lat="58.816247" lon="17.327256">
        <ele>8.1</ele>
        <time>2020-03-26T10:14:24Z</time>
      </trkpt>
      <trkpt lat="58.816342" lon="17.327119">
        <ele>8.8</ele>
        <time>2020-03-26T10:14:26Z</time>
      </trkpt>
      <trkpt lat="58.817588" lon="17.325574">
        <ele>9.8</ele>
        <time>2020-03-26T10:14:47Z</time>
      </trkpt>
      <trkpt lat="58.81821" lon="17.325059">
        <ele>10.9</ele>
        <time>2020-03-26T10:14:57Z</time>
      </trkpt>
      <trkpt lat="58.81901" lon="17.324887">
        <ele>11.5</ele>
        <time>2020-03-26T10:15:09Z</time>
      </trkpt>
      <trkpt lat="58.820164" lon="17.324887">
        <ele>12.2</ele>
        <time>2020-03-26T10:15:26Z</time>
      </trkpt>
      <trkpt lat="58.82132" lon="17.324887">
        <ele>12.1</ele>
        <time>2020-03-26T10:15:42Z</time>
      </trkpt>
      <trkpt lat="58.822031" lon="17.324887">
        <ele>12.6</ele>
        <time>2020-03-26T10:15:52Z</time>
      </trkpt>
      <trkpt lat="58.822742" lon="17.324544">
        <ele>12.7</ele>
        <time>2020-03-26T10:16:03Z</time>
      </trkpt>
      <trkpt lat="58.826652" lon="17.321969">
        <ele>12.4</ele>
        <time>2020-03-26T10:17:03Z</time>
      </trkpt>
      <trkpt lat="58.82717" lon="17.321779">
        <ele>12</ele>
        <time>2020-03-26T10:17:10Z</time>
      </trkpt>
      <trkpt lat="58.830562" lon="17.319737">
        <ele>11.8</ele>
        <time>2020-03-26T10:18:02Z</time>
      </trkpt>
      <trkpt lat="58.831983" lon="17.318192">
        <ele>11.7</ele>
        <time>2020-03-26T10:18:25Z</time>
      </trkpt>
      <trkpt lat="58.833582" lon="17.314587">
        <ele>11.5</ele>
        <time>2020-03-26T10:19:01Z</time>
      </trkpt>
      <trkpt lat="58.834321" lon="17.310292">
        <ele>11.2</ele>
        <time>2020-03-26T10:19:35Z</time>
      </trkpt>
      <trkpt lat="58.83452" lon="17.309173">
        <ele>11.2</ele>
        <time>2020-03-26T10:19:44Z</time>
      </trkpt>
      <trkpt lat="58.834707" lon="17.308334">
        <ele>11.1</ele>
        <time>2020-03-26T10:19:50Z</time>
      </trkpt>
      <trkpt lat="58.834978" lon="17.307284">
        <ele>11.1</ele>
        <time>2020-03-26T10:19:59Z</time>
      </trkpt>
      <trkpt lat="58.835265" lon="17.306317">
        <ele>10.5</ele>
        <time>2020-03-26T10:20:07Z</time>
      </trkpt>
      <trkpt lat="58.835561" lon="17.305436">
        <ele>9.6</ele>
        <time>2020-03-26T10:20:15Z</time>
      </trkpt>
      <trkpt lat="58.83595" lon="17.304451">
        <ele>9.2</ele>
        <time>2020-03-26T10:20:25Z</time>
      </trkpt>
      <trkpt lat="58.836337" lon="17.303567">
        <ele>9</ele>
        <time>2020-03-26T10:20:33Z</time>
      </trkpt>
      <trkpt lat="58.836839" lon="17.302638">
        <ele>8.9</ele>
        <time>2020-03-26T10:20:43Z</time>
      </trkpt>
      <trkpt lat="58.837292" lon="17.301869">
        <ele>8.6</ele>
        <time>2020-03-26T10:20:52Z</time>
      </trkpt>
      <trkpt lat="58.837606" lon="17.301414">
        <ele>8.2</ele>
        <time>2020-03-26T10:20:58Z</time>
      </trkpt>
      <trkpt lat="58.837892" lon="17.301023">
        <ele>7.9</ele>
        <time>2020-03-26T10:21:03Z</time>
      </trkpt>
      <trkpt lat="58.838257" lon="17.300574">
        <ele>7.9</ele>
        <time>2020-03-26T10:21:09Z</time>
      </trkpt>
      <trkpt lat="58.83868" lon="17.300102">
        <ele>8.8</ele>
        <time>2020-03-26T10:21:16Z</time>
      </trkpt>
      <trkpt lat="58.839304" lon="17.299502">
        <ele>10</ele>
        <time>2020-03-26T10:21:26Z</time>
      </trkpt>
      <trkpt lat="58.839874" lon="17.298989">
        <ele>11.1</ele>
        <time>2020-03-26T10:21:35Z</time>
      </trkpt>
      <trkpt lat="58.840338" lon="17.298555">
        <ele>12</ele>
        <time>2020-03-26T10:21:43Z</time>
      </trkpt>
      <trkpt lat="58.841967" lon="17.297036">
        <ele>12.9</ele>
        <time>2020-03-26T10:22:09Z</time>
      </trkpt>
      <trkpt lat="58.843152" lon="17.295941">
        <ele>13.6</ele>
        <time>2020-03-26T10:22:28Z</time>
      </trkpt>
      <trkpt lat="58.843621" lon="17.295508">
        <ele>14.1</ele>
        <time>2020-03-26T10:22:35Z</time>
      </trkpt>
      <trkpt lat="58.844353" lon="17.294809">
        <ele>14.6</ele>
        <time>2020-03-26T10:22:47Z</time>
      </trkpt>
      <trkpt lat="58.844755" lon="17.294389">
        <ele>15.3</ele>
        <time>2020-03-26T10:22:54Z</time>
      </trkpt>
      <trkpt lat="58.844978" lon="17.294138">
        <ele>15.7</ele>
        <time>2020-03-26T10:22:57Z</time>
      </trkpt>
      <trkpt lat="58.845123" lon="17.293882">
        <ele>15.3</ele>
        <time>2020-03-26T10:23:00Z</time>
      </trkpt>
      <trkpt lat="58.845636" lon="17.294478">
        <ele>14.2</ele>
        <time>2020-03-26T10:23:09Z</time>
      </trkpt>
      <trkpt lat="58.84636" lon="17.295122">
        <ele>13</ele>
        <time>2020-03-26T10:23:20Z</time>
      </trkpt>
      <trkpt lat="58.846968" lon="17.29541">
        <ele>12</ele>
        <time>2020-03-26T10:23:29Z</time>
      </trkpt>
      <trkpt lat="58.847518" lon="17.295588">
        <ele>11.5</ele>
        <time>2020-03-26T10:23:38Z</time>
      </trkpt>
      <trkpt lat="58.848792" lon="17.295749">
        <ele>11.5</ele>
        <time>2020-03-26T10:23:56Z</time>
      </trkpt>
      <trkpt lat="58.850257" lon="17.296007">
        <ele>11.5</ele>
        <time>2020-03-26T10:24:17Z</time>
      </trkpt>
      <trkpt lat="58.850723" lon="17.29612">
        <ele>12.1</ele>
        <time>2020-03-26T10:24:24Z</time>
      </trkpt>
      <trkpt lat="58.85109" lon="17.29628">
        <ele>13.5</ele>
        <time>2020-03-26T10:24:29Z</time>
      </trkpt>
      <trkpt lat="58.851531" lon="17.296538">
        <ele>14.9</ele>
        <time>2020-03-26T10:24:36Z</time>
      </trkpt>
      <trkpt lat="58.851963" lon="17.296924">
        <ele>16.6</ele>
        <time>2020-03-26T10:24:43Z</time>
      </trkpt>
      <trkpt lat="58.853454" lon="17.298325">
        <ele>19.2</ele>
        <time>2020-03-26T10:25:07Z</time>
      </trkpt>
      <trkpt lat="58.853665" lon="17.298513">
        <ele>22</ele>
        <time>2020-03-26T10:25:10Z</time>
      </trkpt>
      <trkpt lat="58.854736" lon="17.299467">
        <ele>24.2</ele>
        <time>2020-03-26T10:25:27Z</time>
      </trkpt>
      <trkpt lat="58.855394" lon="17.299983">
        <ele>26.3</ele>
        <time>2020-03-26T10:25:38Z</time>
      </trkpt>
      <trkpt lat="58.855843" lon="17.300095">
        <ele>28.3</ele>
        <time>2020-03-26T10:25:44Z</time>
      </trkpt>
      <trkpt lat="58.856142" lon="17.300063">
        <ele>30.6</ele>
        <time>2020-03-26T10:25:49Z</time>
      </trkpt>
      <trkpt lat="58.856975" lon="17.299547">
        <ele>33.5</ele>
        <time>2020-03-26T10:26:01Z</time>
      </trkpt>
      <trkpt lat="58.857533" lon="17.299274">
        <ele>36.7</ele>
        <time>2020-03-26T10:26:09Z</time>
      </trkpt>
      <trkpt lat="58.857941" lon="17.299419">
        <ele>39.3</ele>
        <time>2020-03-26T10:26:15Z</time>
      </trkpt>
      <trkpt lat="58.858673" lon="17.299692">
        <ele>40.4</ele>
        <time>2020-03-26T10:26:26Z</time>
      </trkpt>
      <trkpt lat="58.859196" lon="17.300148">
        <ele>41.5</ele>
        <time>2020-03-26T10:26:35Z</time>
      </trkpt>
      <trkpt lat="58.859523" lon="17.300433">
        <ele>42.2</ele>
        <time>2020-03-26T10:26:40Z</time>
      </trkpt>
      <trkpt lat="58.860064" lon="17.301077">
        <ele>42.5</ele>
        <time>2020-03-26T10:26:49Z</time>
      </trkpt>
      <trkpt lat="58.861329" lon="17.302848">
        <ele>43.6</ele>
        <time>2020-03-26T10:27:11Z</time>
      </trkpt>
      <trkpt lat="58.862336" lon="17.30428">
        <ele>45.1</ele>
        <time>2020-03-26T10:27:30Z</time>
      </trkpt>
      <trkpt lat="58.862927" lon="17.305214">
        <ele>46.7</ele>
        <time>2020-03-26T10:27:41Z</time>
      </trkpt>
      <trkpt lat="58.864532" lon="17.306308">
        <ele>47.9</ele>
        <time>2020-03-26T10:28:05Z</time>
      </trkpt>
      <trkpt lat="58.8648" lon="17.306823">
        <ele>48.5</ele>
        <time>2020-03-26T10:28:11Z</time>
      </trkpt>
      <trkpt lat="58.865083" lon="17.307918">
        <ele>48.8</ele>
        <time>2020-03-26T10:28:20Z</time>
      </trkpt>
      <trkpt lat="58.865332" lon="17.308546">
        <ele>48.9</ele>
        <time>2020-03-26T10:28:26Z</time>
      </trkpt>
      <trkpt lat="58.866248" lon="17.309479">
        <ele>50.2</ele>
        <time>2020-03-26T10:28:41Z</time>
      </trkpt>
      <trkpt lat="58.867587" lon="17.310445">
        <ele>50.9</ele>
        <time>2020-03-26T10:29:01Z</time>
      </trkpt>
      <trkpt lat="58.868145" lon="17.310702">
        <ele>51.5</ele>
        <time>2020-03-26T10:29:10Z</time>
      </trkpt>
      <trkpt lat="58.868826" lon="17.310509">
        <ele>51.5</ele>
        <time>2020-03-26T10:29:20Z</time>
      </trkpt>
      <trkpt lat="58.86906" lon="17.310461">
        <ele>51.4</ele>
        <time>2020-03-26T10:29:23Z</time>
      </trkpt>
      <trkpt lat="58.869277" lon="17.310606">
        <ele>50.6</ele>
        <time>2020-03-26T10:29:26Z</time>
      </trkpt>
      <trkpt lat="58.869809" lon="17.311459">
        <ele>49.5</ele>
        <time>2020-03-26T10:29:36Z</time>
      </trkpt>
      <trkpt lat="58.870275" lon="17.311877">
        <ele>47.8</ele>
        <time>2020-03-26T10:29:44Z</time>
      </trkpt>
      <trkpt lat="58.871532" lon="17.313181">
        <ele>46.1</ele>
        <time>2020-03-26T10:30:04Z</time>
      </trkpt>
      <trkpt lat="58.872289" lon="17.3136">
        <ele>44.2</ele>
        <time>2020-03-26T10:30:16Z</time>
      </trkpt>
      <trkpt lat="58.872955" lon="17.313809">
        <ele>41.6</ele>
        <time>2020-03-26T10:30:25Z</time>
      </trkpt>
      <trkpt lat="58.873104" lon="17.31397">
        <ele>39.2</ele>
        <time>2020-03-26T10:30:28Z</time>
      </trkpt>
      <trkpt lat="58.873762" lon="17.314759">
        <ele>36.8</ele>
        <time>2020-03-26T10:30:39Z</time>
      </trkpt>
      <trkpt lat="58.873903" lon="17.315064">
        <ele>34.8</ele>
        <time>2020-03-26T10:30:42Z</time>
      </trkpt>
      <trkpt lat="58.87397" lon="17.315499">
        <ele>33.4</ele>
        <time>2020-03-26T10:30:46Z</time>
      </trkpt>
      <trkpt lat="58.874132" lon="17.318178">
        <ele>31.8</ele>
        <time>2020-03-26T10:31:06Z</time>
      </trkpt>
      <trkpt lat="58.874162" lon="17.318666">
        <ele>30.5</ele>
        <time>2020-03-26T10:31:09Z</time>
      </trkpt>
      <trkpt lat="58.874203" lon="17.31897">
        <ele>29.4</ele>
        <time>2020-03-26T10:31:12Z</time>
      </trkpt>
      <trkpt lat="58.874267" lon="17.319132">
        <ele>28.5</ele>
        <time>2020-03-26T10:31:13Z</time>
      </trkpt>
      <trkpt lat="58.874352" lon="17.31922">
        <ele>27.6</ele>
        <time>2020-03-26T10:31:15Z</time>
      </trkpt>
      <trkpt lat="58.874465" lon="17.319283">
        <ele>26.7</ele>
        <time>2020-03-26T10:31:16Z</time>
      </trkpt>
      <trkpt lat="58.875268" lon="17.319137">
        <ele>26.2</ele>
        <time>2020-03-26T10:31:28Z</time>
      </trkpt>
      <trkpt lat="58.875483" lon="17.319233">
        <ele>25.7</ele>
        <time>2020-03-26T10:31:31Z</time>
      </trkpt>
      <trkpt lat="58.875675" lon="17.319555">
        <ele>25.5</ele>
        <time>2020-03-26T10:31:35Z</time>
      </trkpt>
      <trkpt lat="58.87594" lon="17.32016">
        <ele>25.3</ele>
        <time>2020-03-26T10:31:41Z</time>
      </trkpt>
      <trkpt lat="58.876183" lon="17.320714">
        <ele>24.7</ele>
        <time>2020-03-26T10:31:46Z</time>
      </trkpt>
      <trkpt lat="58.876524" lon="17.321068">
        <ele>24.2</ele>
        <time>2020-03-26T10:31:52Z</time>
      </trkpt>
      <trkpt lat="58.876794" lon="17.321225">
        <ele>24.5</ele>
        <time>2020-03-26T10:31:56Z</time>
      </trkpt>
      <trkpt lat="58.876856" lon="17.321261">
        <ele>24.9</ele>
        <time>2020-03-26T10:31:57Z</time>
      </trkpt>
      <trkpt lat="58.877364" lon="17.321244">
        <ele>25.5</ele>
        <time>2020-03-26T10:32:04Z</time>
      </trkpt>
      <trkpt lat="58.878063" lon="17.320972">
        <ele>25.9</ele>
        <time>2020-03-26T10:32:14Z</time>
      </trkpt>
      <trkpt lat="58.879627" lon="17.320054">
        <ele>27</ele>
        <time>2020-03-26T10:32:38Z</time>
      </trkpt>
      <trkpt lat="58.883004" lon="17.318026">
        <ele>28.2</ele>
        <time>2020-03-26T10:33:29Z</time>
      </trkpt>
      <trkpt lat="58.883412" lon="17.317768">
        <ele>29.2</ele>
        <time>2020-03-26T10:33:35Z</time>
      </trkpt>
      <trkpt lat="58.883653" lon="17.317237">
        <ele>29.9</ele>
        <time>2020-03-26T10:33:41Z</time>
      </trkpt>
      <trkpt lat="58.884028" lon="17.315805">
        <ele>30.1</ele>
        <time>2020-03-26T10:33:53Z</time>
      </trkpt>
      <trkpt lat="58.884681" lon="17.313342">
        <ele>30.5</ele>
        <time>2020-03-26T10:34:13Z</time>
      </trkpt>
      <trkpt lat="58.884806" lon="17.31311">
        <ele>30.9</ele>
        <time>2020-03-26T10:34:16Z</time>
      </trkpt>
      <trkpt lat="58.885067" lon="17.312827">
        <ele>30.5</ele>
        <time>2020-03-26T10:34:20Z</time>
      </trkpt>
      <trkpt lat="58.885791" lon="17.312602">
        <ele>29.9</ele>
        <time>2020-03-26T10:34:31Z</time>
      </trkpt>
      <trkpt lat="58.886914" lon="17.312504">
        <ele>28.3</ele>
        <time>2020-03-26T10:34:47Z</time>
      </trkpt>
      <trkpt lat="58.887479" lon="17.312489">
        <ele>26.7</ele>
        <time>2020-03-26T10:34:55Z</time>
      </trkpt>
      <trkpt lat="58.88755" lon="17.312525">
        <ele>24.8</ele>
        <time>2020-03-26T10:34:56Z</time>
      </trkpt>
      <trkpt lat="58.887729" lon="17.312618">
        <ele>23.1</ele>
        <time>2020-03-26T10:34:59Z</time>
      </trkpt>
      <trkpt lat="58.888352" lon="17.313181">
        <ele>21.4</ele>
        <time>2020-03-26T10:35:09Z</time>
      </trkpt>
      <trkpt lat="58.890274" lon="17.314951">
        <ele>19.9</ele>
        <time>2020-03-26T10:35:40Z</time>
      </trkpt>
      <trkpt lat="58.891263" lon="17.315869">
        <ele>19.2</ele>
        <time>2020-03-26T10:35:55Z</time>
      </trkpt>
      <trkpt lat="58.891646" lon="17.316062">
        <ele>18.6</ele>
        <time>2020-03-26T10:36:01Z</time>
      </trkpt>
      <trkpt lat="58.892053" lon="17.316111">
        <ele>18.1</ele>
        <time>2020-03-26T10:36:07Z</time>
      </trkpt>
      <trkpt lat="58.894041" lon="17.315322">
        <ele>17.5</ele>
        <time>2020-03-26T10:36:36Z</time>
      </trkpt>
      <trkpt lat="58.895428" lon="17.314788">
        <ele>16.7</ele>
        <time>2020-03-26T10:36:57Z</time>
      </trkpt>
      <trkpt lat="58.896664" lon="17.314356">
        <ele>16.7</ele>
        <time>2020-03-26T10:37:15Z</time>
      </trkpt>
      <trkpt lat="58.896959" lon="17.314249">
        <ele>16.7</ele>
        <time>2020-03-26T10:37:19Z</time>
      </trkpt>
      <trkpt lat="58.897072" lon="17.314203">
        <ele>16.5</ele>
        <time>2020-03-26T10:37:21Z</time>
      </trkpt>
      <trkpt lat="58.897313" lon="17.314125">
        <ele>16.2</ele>
        <time>2020-03-26T10:37:24Z</time>
      </trkpt>
      <trkpt lat="58.897614" lon="17.314027">
        <ele>15.8</ele>
        <time>2020-03-26T10:37:29Z</time>
      </trkpt>
      <trkpt lat="58.897955" lon="17.313887">
        <ele>15.8</ele>
        <time>2020-03-26T10:37:34Z</time>
      </trkpt>
      <trkpt lat="58.899179" lon="17.313407">
        <ele>16</ele>
        <time>2020-03-26T10:37:52Z</time>
      </trkpt>
      <trkpt lat="58.899599" lon="17.313322">
        <ele>16.5</ele>
        <time>2020-03-26T10:37:58Z</time>
      </trkpt>
      <trkpt lat="58.899944" lon="17.313357">
        <ele>16.9</ele>
        <time>2020-03-26T10:38:03Z</time>
      </trkpt>
      <trkpt lat="58.900131" lon="17.31338">
        <ele>17.5</ele>
        <time>2020-03-26T10:38:06Z</time>
      </trkpt>
      <trkpt lat="58.901098" lon="17.313499">
        <ele>18.1</ele>
        <time>2020-03-26T10:38:20Z</time>
      </trkpt>
      <trkpt lat="58.901671" lon="17.313499">
        <ele>18.7</ele>
        <time>2020-03-26T10:38:28Z</time>
      </trkpt>
      <trkpt lat="58.90202" lon="17.313399">
        <ele>19.3</ele>
        <time>2020-03-26T10:38:33Z</time>
      </trkpt>
      <trkpt lat="58.902204" lon="17.314938">
        <ele>19.5</ele>
        <time>2020-03-26T10:38:45Z</time>
      </trkpt>
      <trkpt lat="58.902314" lon="17.315572">
        <ele>19.5</ele>
        <time>2020-03-26T10:38:50Z</time>
      </trkpt>
      <trkpt lat="58.902449" lon="17.316268">
        <ele>19.4</ele>
        <time>2020-03-26T10:38:55Z</time>
      </trkpt>
      <trkpt lat="58.902476" lon="17.316409">
        <ele>19.2</ele>
        <time>2020-03-26T10:38:57Z</time>
      </trkpt>
      <trkpt lat="58.902699" lon="17.317524">
        <ele>18.7</ele>
        <time>2020-03-26T10:39:06Z</time>
      </trkpt>
      <trkpt lat="58.903089" lon="17.319469">
        <ele>18.2</ele>
        <time>2020-03-26T10:39:21Z</time>
      </trkpt>
      <trkpt lat="58.903188" lon="17.319948">
        <ele>17.9</ele>
        <time>2020-03-26T10:39:25Z</time>
      </trkpt>
      <trkpt lat="58.903294" lon="17.320461">
        <ele>17.6</ele>
        <time>2020-03-26T10:39:29Z</time>
      </trkpt>
      <trkpt lat="58.903572" lon="17.321723">
        <ele>17.4</ele>
        <time>2020-03-26T10:39:39Z</time>
      </trkpt>
      <trkpt lat="58.903723" lon="17.322394">
        <ele>17.5</ele>
        <time>2020-03-26T10:39:45Z</time>
      </trkpt>
      <trkpt lat="58.903934" lon="17.323065">
        <ele>18.4</ele>
        <time>2020-03-26T10:39:51Z</time>
      </trkpt>
      <trkpt lat="58.904162" lon="17.323622">
        <ele>19.4</ele>
        <time>2020-03-26T10:39:56Z</time>
      </trkpt>
      <trkpt lat="58.904278" lon="17.323811">
        <ele>20.4</ele>
        <time>2020-03-26T10:39:58Z</time>
      </trkpt>
      <trkpt lat="58.904431" lon="17.324053">
        <ele>21.2</ele>
        <time>2020-03-26T10:40:01Z</time>
      </trkpt>
      <trkpt lat="58.904802" lon="17.324535">
        <ele>21.6</ele>
        <time>2020-03-26T10:40:07Z</time>
      </trkpt>
      <trkpt lat="58.904974" lon="17.324717">
        <ele>22</ele>
        <time>2020-03-26T10:40:10Z</time>
      </trkpt>
      <trkpt lat="58.905124" lon="17.324843">
        <ele>22.3</ele>
        <time>2020-03-26T10:40:13Z</time>
      </trkpt>
      <trkpt lat="58.905417" lon="17.325088">
        <ele>22.5</ele>
        <time>2020-03-26T10:40:17Z</time>
      </trkpt>
      <trkpt lat="58.905922" lon="17.325243">
        <ele>22.5</ele>
        <time>2020-03-26T10:40:25Z</time>
      </trkpt>
      <trkpt lat="58.906809" lon="17.325416">
        <ele>22.4</ele>
        <time>2020-03-26T10:40:38Z</time>
      </trkpt>
      <trkpt lat="58.907279" lon="17.325537">
        <ele>22</ele>
        <time>2020-03-26T10:40:44Z</time>
      </trkpt>
      <trkpt lat="58.907444" lon="17.325595">
        <ele>21.5</ele>
        <time>2020-03-26T10:40:47Z</time>
      </trkpt>
      <trkpt lat="58.907588" lon="17.325699">
        <ele>20.9</ele>
        <time>2020-03-26T10:40:49Z</time>
      </trkpt>
      <trkpt lat="58.907831" lon="17.325933">
        <ele>20.4</ele>
        <time>2020-03-26T10:40:53Z</time>
      </trkpt>
      <trkpt lat="58.908018" lon="17.326149">
        <ele>19.7</ele>
        <time>2020-03-26T10:40:56Z</time>
      </trkpt>
      <trkpt lat="58.908194" lon="17.326435">
        <ele>19.5</ele>
        <time>2020-03-26T10:40:59Z</time>
      </trkpt>
      <trkpt lat="58.908322" lon="17.326696">
        <ele>19</ele>
        <time>2020-03-26T10:41:02Z</time>
      </trkpt>
      <trkpt lat="58.908452" lon="17.327026">
        <ele>18.5</ele>
        <time>2020-03-26T10:41:05Z</time>
      </trkpt>
      <trkpt lat="58.908655" lon="17.327803">
        <ele>17.9</ele>
        <time>2020-03-26T10:41:12Z</time>
      </trkpt>
      <trkpt lat="58.908784" lon="17.328422">
        <ele>17.4</ele>
        <time>2020-03-26T10:41:17Z</time>
      </trkpt>
      <trkpt lat="58.908948" lon="17.329231">
        <ele>16.8</ele>
        <time>2020-03-26T10:41:23Z</time>
      </trkpt>
      <trkpt lat="58.90906" lon="17.32975">
        <ele>16.3</ele>
        <time>2020-03-26T10:41:27Z</time>
      </trkpt>
      <trkpt lat="58.909254" lon="17.32965">
        <ele>16</ele>
        <time>2020-03-26T10:41:30Z</time>
      </trkpt>
      <trkpt lat="58.909374" lon="17.329645">
        <ele>16.2</ele>
        <time>2020-03-26T10:41:32Z</time>
      </trkpt>
      <trkpt lat="58.909521" lon="17.329732">
        <ele>16.5</ele>
        <time>2020-03-26T10:41:34Z</time>
      </trkpt>
      <trkpt lat="58.909645" lon="17.329836">
        <ele>16.9</ele>
        <time>2020-03-26T10:41:36Z</time>
      </trkpt>
      <trkpt lat="58.910269" lon="17.330345">
        <ele>17.3</ele>
        <time>2020-03-26T10:41:46Z</time>
      </trkpt>
      <trkpt lat="58.910945" lon="17.330914">
        <ele>17.6</ele>
        <time>2020-03-26T10:41:57Z</time>
      </trkpt>
      <trkpt lat="58.912403" lon="17.332147">
        <ele>17.9</ele>
        <time>2020-03-26T10:42:20Z</time>
      </trkpt>
      <trkpt lat="58.912728" lon="17.332463">
        <ele>18.4</ele>
        <time>2020-03-26T10:42:25Z</time>
      </trkpt>
      <trkpt lat="58.914664" lon="17.334981">
        <ele>18.5</ele>
        <time>2020-03-26T10:42:59Z</time>
      </trkpt>
      <trkpt lat="58.914964" lon="17.335313">
        <ele>18.8</ele>
        <time>2020-03-26T10:43:04Z</time>
      </trkpt>
      <trkpt lat="58.915506" lon="17.336031">
        <ele>19.1</ele>
        <time>2020-03-26T10:43:13Z</time>
      </trkpt>
      <trkpt lat="58.91627" lon="17.336906">
        <ele>19.2</ele>
        <time>2020-03-26T10:43:26Z</time>
      </trkpt>
      <trkpt lat="58.916993" lon="17.337592">
        <ele>18.7</ele>
        <time>2020-03-26T10:43:37Z</time>
      </trkpt>
      <trkpt lat="58.9197" lon="17.34016">
        <ele>18.4</ele>
        <time>2020-03-26T10:44:21Z</time>
      </trkpt>
      <trkpt lat="58.919804" lon="17.340251">
        <ele>17.8</ele>
        <time>2020-03-26T10:44:23Z</time>
      </trkpt>
      <trkpt lat="58.920168" lon="17.340562">
        <ele>17.4</ele>
        <time>2020-03-26T10:44:28Z</time>
      </trkpt>
      <trkpt lat="58.920456" lon="17.340723">
        <ele>16.9</ele>
        <time>2020-03-26T10:44:33Z</time>
      </trkpt>
      <trkpt lat="58.920813" lon="17.340894">
        <ele>16.5</ele>
        <time>2020-03-26T10:44:38Z</time>
      </trkpt>
      <trkpt lat="58.921169" lon="17.340971">
        <ele>16.1</ele>
        <time>2020-03-26T10:44:43Z</time>
      </trkpt>
      <trkpt lat="58.921448" lon="17.341036">
        <ele>16.1</ele>
        <time>2020-03-26T10:44:47Z</time>
      </trkpt>
      <trkpt lat="58.921724" lon="17.341038">
        <ele>16.1</ele>
        <time>2020-03-26T10:44:51Z</time>
      </trkpt>
      <trkpt lat="58.922443" lon="17.340912">
        <ele>16.3</ele>
        <time>2020-03-26T10:45:02Z</time>
      </trkpt>
      <trkpt lat="58.92305" lon="17.340757">
        <ele>16.5</ele>
        <time>2020-03-26T10:45:11Z</time>
      </trkpt>
      <trkpt lat="58.923573" lon="17.340714">
        <ele>16.9</ele>
        <time>2020-03-26T10:45:18Z</time>
      </trkpt>
      <trkpt lat="58.92514" lon="17.341417">
        <ele>17.5</ele>
        <time>2020-03-26T10:45:41Z</time>
      </trkpt>
      <trkpt lat="58.925852" lon="17.341321">
        <ele>18.4</ele>
        <time>2020-03-26T10:45:52Z</time>
      </trkpt>
      <trkpt lat="58.925945" lon="17.341308">
        <ele>19.2</ele>
        <time>2020-03-26T10:45:53Z</time>
      </trkpt>
      <trkpt lat="58.926021" lon="17.341301">
        <ele>19.7</ele>
        <time>2020-03-26T10:45:54Z</time>
      </trkpt>
      <trkpt lat="58.926532" lon="17.341307">
        <ele>19.8</ele>
        <time>2020-03-26T10:46:02Z</time>
      </trkpt>
      <trkpt lat="58.927472" lon="17.341932">
        <ele>20</ele>
        <time>2020-03-26T10:46:16Z</time>
      </trkpt>
      <trkpt lat="58.927948" lon="17.342131">
        <ele>20.2</ele>
        <time>2020-03-26T10:46:23Z</time>
      </trkpt>
      <trkpt lat="58.928878" lon="17.342223">
        <ele>20.5</ele>
        <time>2020-03-26T10:46:36Z</time>
      </trkpt>
      <trkpt lat="58.929615" lon="17.342222">
        <ele>21</ele>
        <time>2020-03-26T10:46:47Z</time>
      </trkpt>
      <trkpt lat="58.930226" lon="17.34236">
        <ele>22.8</ele>
        <time>2020-03-26T10:46:56Z</time>
      </trkpt>
      <trkpt lat="58.930431" lon="17.342485">
        <ele>24.5</ele>
        <time>2020-03-26T10:46:59Z</time>
      </trkpt>
      <trkpt lat="58.930625" lon="17.342678">
        <ele>25.6</ele>
        <time>2020-03-26T10:47:02Z</time>
      </trkpt>
      <trkpt lat="58.930772" lon="17.342834">
        <ele>26.4</ele>
        <time>2020-03-26T10:47:05Z</time>
      </trkpt>
      <trkpt lat="58.930988" lon="17.3433">
        <ele>26.8</ele>
        <time>2020-03-26T10:47:09Z</time>
      </trkpt>
      <trkpt lat="58.931574" lon="17.344552">
        <ele>27.2</ele>
        <time>2020-03-26T10:47:22Z</time>
      </trkpt>
      <trkpt lat="58.931712" lon="17.344782">
        <ele>28</ele>
        <time>2020-03-26T10:47:25Z</time>
      </trkpt>
      <trkpt lat="58.931863" lon="17.345034">
        <ele>28.3</ele>
        <time>2020-03-26T10:47:27Z</time>
      </trkpt>
      <trkpt lat="58.931931" lon="17.345092">
        <ele>28.5</ele>
        <time>2020-03-26T10:47:29Z</time>
      </trkpt>
      <trkpt lat="58.932277" lon="17.345347">
        <ele>28.5</ele>
        <time>2020-03-26T10:47:34Z</time>
      </trkpt>
      <trkpt lat="58.934095" lon="17.346105">
        <ele>28.4</ele>
        <time>2020-03-26T10:48:01Z</time>
      </trkpt>
      <trkpt lat="58.934621" lon="17.34639">
        <ele>27.1</ele>
        <time>2020-03-26T10:48:09Z</time>
      </trkpt>
      <trkpt lat="58.935475" lon="17.346942">
        <ele>26</ele>
        <time>2020-03-26T10:48:22Z</time>
      </trkpt>
      <trkpt lat="58.935731" lon="17.347012">
        <ele>25.4</ele>
        <time>2020-03-26T10:48:25Z</time>
      </trkpt>
      <trkpt lat="58.936527" lon="17.347098">
        <ele>24.8</ele>
        <time>2020-03-26T10:48:37Z</time>
      </trkpt>
      <trkpt lat="58.936876" lon="17.347098">
        <ele>24.3</ele>
        <time>2020-03-26T10:48:42Z</time>
      </trkpt>
      <trkpt lat="58.938351" lon="17.347071">
        <ele>24</ele>
        <time>2020-03-26T10:49:03Z</time>
      </trkpt>
      <trkpt lat="58.939946" lon="17.347043">
        <ele>23.5</ele>
        <time>2020-03-26T10:49:26Z</time>
      </trkpt>
      <trkpt lat="58.940324" lon="17.346883">
        <ele>23.1</ele>
        <time>2020-03-26T10:49:32Z</time>
      </trkpt>
      <trkpt lat="58.940594" lon="17.346716">
        <ele>22.9</ele>
        <time>2020-03-26T10:49:36Z</time>
      </trkpt>
      <trkpt lat="58.941465" lon="17.346207">
        <ele>22.6</ele>
        <time>2020-03-26T10:49:49Z</time>
      </trkpt>
      <trkpt lat="58.941714" lon="17.346047">
        <ele>22.1</ele>
        <time>2020-03-26T10:49:53Z</time>
      </trkpt>
      <trkpt lat="58.941989" lon="17.345978">
        <ele>21.4</ele>
        <time>2020-03-26T10:49:57Z</time>
      </trkpt>
      <trkpt lat="58.942601" lon="17.345993">
        <ele>20.5</ele>
        <time>2020-03-26T10:50:06Z</time>
      </trkpt>
      <trkpt lat="58.944707" lon="17.346482">
        <ele>19.4</ele>
        <time>2020-03-26T10:50:36Z</time>
      </trkpt>
      <trkpt lat="58.945097" lon="17.346546">
        <ele>18.3</ele>
        <time>2020-03-26T10:50:42Z</time>
      </trkpt>
      <trkpt lat="58.945423" lon="17.346694">
        <ele>17.6</ele>
        <time>2020-03-26T10:50:47Z</time>
      </trkpt>
      <trkpt lat="58.945702" lon="17.34687">
        <ele>17.2</ele>
        <time>2020-03-26T10:50:51Z</time>
      </trkpt>
      <trkpt lat="58.946015" lon="17.347102">
        <ele>17.1</ele>
        <time>2020-03-26T10:50:56Z</time>
      </trkpt>
      <trkpt lat="58.946148" lon="17.3472">
        <ele>17.5</ele>
        <time>2020-03-26T10:50:58Z</time>
      </trkpt>
      <trkpt lat="58.946317" lon="17.347331">
        <ele>18.1</ele>
        <time>2020-03-26T10:51:01Z</time>
      </trkpt>
      <trkpt lat="58.946398" lon="17.347395">
        <ele>18.7</ele>
        <time>2020-03-26T10:51:02Z</time>
      </trkpt>
      <trkpt lat="58.946538" lon="17.347505">
        <ele>19.6</ele>
        <time>2020-03-26T10:51:04Z</time>
      </trkpt>
      <trkpt lat="58.946824" lon="17.347727">
        <ele>20.5</ele>
        <time>2020-03-26T10:51:09Z</time>
      </trkpt>
      <trkpt lat="58.947436" lon="17.348265">
        <ele>21.4</ele>
        <time>2020-03-26T10:51:18Z</time>
      </trkpt>
      <trkpt lat="58.947877" lon="17.348616">
        <ele>22</ele>
        <time>2020-03-26T10:51:25Z</time>
      </trkpt>
      <trkpt lat="58.948157" lon="17.348811">
        <ele>22.5</ele>
        <time>2020-03-26T10:51:30Z</time>
      </trkpt>
      <trkpt lat="58.948721" lon="17.349221">
        <ele>23.1</ele>
        <time>2020-03-26T10:51:38Z</time>
      </trkpt>
      <trkpt lat="58.94921" lon="17.349472">
        <ele>24.2</ele>
        <time>2020-03-26T10:51:46Z</time>
      </trkpt>
      <trkpt lat="58.949805" lon="17.349763">
        <ele>24.9</ele>
        <time>2020-03-26T10:51:54Z</time>
      </trkpt>
      <trkpt lat="58.950687" lon="17.350116">
        <ele>25.2</ele>
        <time>2020-03-26T10:52:07Z</time>
      </trkpt>
      <trkpt lat="58.951131" lon="17.350271">
        <ele>25</ele>
        <time>2020-03-26T10:52:14Z</time>
      </trkpt>
      <trkpt lat="58.951298" lon="17.35033">
        <ele>24.7</ele>
        <time>2020-03-26T10:52:16Z</time>
      </trkpt>
      <trkpt lat="58.95247" lon="17.35072">
        <ele>24.3</ele>
        <time>2020-03-26T10:52:34Z</time>
      </trkpt>
      <trkpt lat="58.953075" lon="17.35094">
        <ele>23.5</ele>
        <time>2020-03-26T10:52:42Z</time>
      </trkpt>
      <trkpt lat="58.953404" lon="17.351064">
        <ele>22.6</ele>
        <time>2020-03-26T10:52:47Z</time>
      </trkpt>
      <trkpt lat="58.953607" lon="17.351127">
        <ele>21.9</ele>
        <time>2020-03-26T10:52:50Z</time>
      </trkpt>
      <trkpt lat="58.953762" lon="17.351149">
        <ele>21.3</ele>
        <time>2020-03-26T10:52:53Z</time>
      </trkpt>
      <trkpt lat="58.953867" lon="17.351121">
        <ele>20.5</ele>
        <time>2020-03-26T10:52:54Z</time>
      </trkpt>
      <trkpt lat="58.954578" lon="17.350852">
        <ele>19.3</ele>
        <time>2020-03-26T10:53:05Z</time>
      </trkpt>
      <trkpt lat="58.955394" lon="17.350514">
        <ele>18.9</ele>
        <time>2020-03-26T10:53:17Z</time>
      </trkpt>
      <trkpt lat="58.9557" lon="17.350386">
        <ele>18.9</ele>
        <time>2020-03-26T10:53:21Z</time>
      </trkpt>
      <trkpt lat="58.955934" lon="17.35031">
        <ele>19.3</ele>
        <time>2020-03-26T10:53:25Z</time>
      </trkpt>
      <trkpt lat="58.956196" lon="17.350285">
        <ele>19.8</ele>
        <time>2020-03-26T10:53:28Z</time>
      </trkpt>
      <trkpt lat="58.956526" lon="17.35033">
        <ele>20.5</ele>
        <time>2020-03-26T10:53:33Z</time>
      </trkpt>
      <trkpt lat="58.957836" lon="17.350559">
        <ele>21.5</ele>
        <time>2020-03-26T10:53:52Z</time>
      </trkpt>
      <trkpt lat="58.960392" lon="17.351105">
        <ele>22.5</ele>
        <time>2020-03-26T10:54:29Z</time>
      </trkpt>
      <trkpt lat="58.960743" lon="17.351163">
        <ele>23.9</ele>
        <time>2020-03-26T10:54:34Z</time>
      </trkpt>
      <trkpt lat="58.961009" lon="17.351179">
        <ele>25.7</ele>
        <time>2020-03-26T10:54:38Z</time>
      </trkpt>
      <trkpt lat="58.961262" lon="17.351139">
        <ele>26</ele>
        <time>2020-03-26T10:54:42Z</time>
      </trkpt>
      <trkpt lat="58.961307" lon="17.351132">
        <ele>25.7</ele>
        <time>2020-03-26T10:54:43Z</time>
      </trkpt>
      <trkpt lat="58.961712" lon="17.35092">
        <ele>25.4</ele>
        <time>2020-03-26T10:54:49Z</time>
      </trkpt>
      <trkpt lat="58.962548" lon="17.350481">
        <ele>25.2</ele>
        <time>2020-03-26T10:55:01Z</time>
      </trkpt>
      <trkpt lat="58.963294" lon="17.350006">
        <ele>25.2</ele>
        <time>2020-03-26T10:55:12Z</time>
      </trkpt>
      <trkpt lat="58.964307" lon="17.349441">
        <ele>25.5</ele>
        <time>2020-03-26T10:55:28Z</time>
      </trkpt>
      <trkpt lat="58.964409" lon="17.349384">
        <ele>26</ele>
        <time>2020-03-26T10:55:29Z</time>
      </trkpt>
      <trkpt lat="58.96446" lon="17.349354">
        <ele>27.1</ele>
        <time>2020-03-26T10:55:30Z</time>
      </trkpt>
      <trkpt lat="58.96478" lon="17.349102">
        <ele>28.6</ele>
        <time>2020-03-26T10:55:35Z</time>
      </trkpt>
      <trkpt lat="58.965169" lon="17.348748">
        <ele>30</ele>
        <time>2020-03-26T10:55:41Z</time>
      </trkpt>
      <trkpt lat="58.965627" lon="17.348112">
        <ele>31.9</ele>
        <time>2020-03-26T10:55:49Z</time>
      </trkpt>
      <trkpt lat="58.965945" lon="17.347595">
        <ele>34.5</ele>
        <time>2020-03-26T10:55:55Z</time>
      </trkpt>
      <trkpt lat="58.966837" lon="17.345973">
        <ele>36.7</ele>
        <time>2020-03-26T10:56:13Z</time>
      </trkpt>
      <trkpt lat="58.967467" lon="17.344943">
        <ele>39.2</ele>
        <time>2020-03-26T10:56:25Z</time>
      </trkpt>
      <trkpt lat="58.968055" lon="17.343673">
        <ele>41</ele>
        <time>2020-03-26T10:56:38Z</time>
      </trkpt>
      <trkpt lat="58.968821" lon="17.341732">
        <ele>41.9</ele>
        <time>2020-03-26T10:56:56Z</time>
      </trkpt>
      <trkpt lat="58.969192" lon="17.340429">
        <ele>42.3</ele>
        <time>2020-03-26T10:57:07Z</time>
      </trkpt>
      <trkpt lat="58.969899" lon="17.337493">
        <ele>42.2</ele>
        <time>2020-03-26T10:57:31Z</time>
      </trkpt>
      <trkpt lat="58.970356" lon="17.335897">
        <ele>41.4</ele>
        <time>2020-03-26T10:57:45Z</time>
      </trkpt>
      <trkpt lat="58.970856" lon="17.334678">
        <ele>39.5</ele>
        <time>2020-03-26T10:57:56Z</time>
      </trkpt>
      <trkpt lat="58.971343" lon="17.333751">
        <ele>37.8</ele>
        <time>2020-03-26T10:58:06Z</time>
      </trkpt>
      <trkpt lat="58.972104" lon="17.33266">
        <ele>36.1</ele>
        <time>2020-03-26T10:58:20Z</time>
      </trkpt>
      <trkpt lat="58.972719" lon="17.33206">
        <ele>33.5</ele>
        <time>2020-03-26T10:58:30Z</time>
      </trkpt>
      <trkpt lat="58.972843" lon="17.331997">
        <ele>31.9</ele>
        <time>2020-03-26T10:58:32Z</time>
      </trkpt>
      <trkpt lat="58.973387" lon="17.331726">
        <ele>30.1</ele>
        <time>2020-03-26T10:58:40Z</time>
      </trkpt>
      <trkpt lat="58.973639" lon="17.3316">
        <ele>28.5</ele>
        <time>2020-03-26T10:58:43Z</time>
      </trkpt>
      <trkpt lat="58.974411" lon="17.331343">
        <ele>27.1</ele>
        <time>2020-03-26T10:58:55Z</time>
      </trkpt>
      <trkpt lat="58.975311" lon="17.331214">
        <ele>25.7</ele>
        <time>2020-03-26T10:59:08Z</time>
      </trkpt>
      <trkpt lat="58.978244" lon="17.33097">
        <ele>24.8</ele>
        <time>2020-03-26T10:59:50Z</time>
      </trkpt>
      <trkpt lat="58.978801" lon="17.330996">
        <ele>24.6</ele>
        <time>2020-03-26T10:59:58Z</time>
      </trkpt>
      <trkpt lat="58.978968" lon="17.331004">
        <ele>24.5</ele>
        <time>2020-03-26T11:00:01Z</time>
      </trkpt>
      <trkpt lat="58.979934" lon="17.331331">
        <ele>23.7</ele>
        <time>2020-03-26T11:00:15Z</time>
      </trkpt>
      <trkpt lat="58.982496" lon="17.332447">
        <ele>24.1</ele>
        <time>2020-03-26T11:00:53Z</time>
      </trkpt>
      <trkpt lat="58.983531" lon="17.332869">
        <ele>25.4</ele>
        <time>2020-03-26T11:01:08Z</time>
      </trkpt>
      <trkpt lat="58.985685" lon="17.333685">
        <ele>25.7</ele>
        <time>2020-03-26T11:01:40Z</time>
      </trkpt>
      <trkpt lat="58.986914" lon="17.334184">
        <ele>26</ele>
        <time>2020-03-26T11:01:58Z</time>
      </trkpt>
      <trkpt lat="58.987793" lon="17.33434">
        <ele>25.9</ele>
        <time>2020-03-26T11:02:11Z</time>
      </trkpt>
      <trkpt lat="58.989892" lon="17.334678">
        <ele>26.3</ele>
        <time>2020-03-26T11:02:41Z</time>
      </trkpt>
      <trkpt lat="58.99038" lon="17.334875">
        <ele>26.6</ele>
        <time>2020-03-26T11:02:48Z</time>
      </trkpt>
      <trkpt lat="58.991256" lon="17.335495">
        <ele>26.2</ele>
        <time>2020-03-26T11:03:02Z</time>
      </trkpt>
      <trkpt lat="58.991674" lon="17.335791">
        <ele>25.1</ele>
        <time>2020-03-26T11:03:08Z</time>
      </trkpt>
      <trkpt lat="58.992102" lon="17.336218">
        <ele>24.5</ele>
        <time>2020-03-26T11:03:15Z</time>
      </trkpt>
      <trkpt lat="58.992672" lon="17.336692">
        <ele>24.7</ele>
        <time>2020-03-26T11:03:24Z</time>
      </trkpt>
      <trkpt lat="58.993597" lon="17.337008">
        <ele>24.5</ele>
        <time>2020-03-26T11:03:38Z</time>
      </trkpt>
      <trkpt lat="58.995654" lon="17.337601">
        <ele>24.4</ele>
        <time>2020-03-26T11:04:08Z</time>
      </trkpt>
      <trkpt lat="58.996176" lon="17.337751">
        <ele>24.5</ele>
        <time>2020-03-26T11:04:15Z</time>
      </trkpt>
      <trkpt lat="58.996519" lon="17.337778">
        <ele>24.5</ele>
        <time>2020-03-26T11:04:20Z</time>
      </trkpt>
      <trkpt lat="58.996794" lon="17.33776">
        <ele>24.7</ele>
        <time>2020-03-26T11:04:24Z</time>
      </trkpt>
      <trkpt lat="58.99767" lon="17.337491">
        <ele>24.5</ele>
        <time>2020-03-26T11:04:37Z</time>
      </trkpt>
      <trkpt lat="58.998572" lon="17.337184">
        <ele>23.2</ele>
        <time>2020-03-26T11:04:50Z</time>
      </trkpt>
      <trkpt lat="58.999081" lon="17.336892">
        <ele>22.8</ele>
        <time>2020-03-26T11:04:58Z</time>
      </trkpt>
      <trkpt lat="58.999411" lon="17.33691">
        <ele>23</ele>
        <time>2020-03-26T11:05:03Z</time>
      </trkpt>
      <trkpt lat="58.999641" lon="17.337043">
        <ele>23.5</ele>
        <time>2020-03-26T11:05:06Z</time>
      </trkpt>
      <trkpt lat="58.999838" lon="17.337249">
        <ele>24.1</ele>
        <time>2020-03-26T11:05:10Z</time>
      </trkpt>
      <trkpt lat="59.000499" lon="17.337995">
        <ele>23.9</ele>
        <time>2020-03-26T11:05:21Z</time>
      </trkpt>
      <trkpt lat="59.001932" lon="17.339682">
        <ele>23.3</ele>
        <time>2020-03-26T11:05:45Z</time>
      </trkpt>
      <trkpt lat="59.002741" lon="17.340909">
        <ele>22.5</ele>
        <time>2020-03-26T11:06:00Z</time>
      </trkpt>
      <trkpt lat="59.003071" lon="17.341192">
        <ele>22.2</ele>
        <time>2020-03-26T11:06:05Z</time>
      </trkpt>
      <trkpt lat="59.003513" lon="17.341315">
        <ele>22.7</ele>
        <time>2020-03-26T11:06:11Z</time>
      </trkpt>
      <trkpt lat="59.00465" lon="17.34127">
        <ele>23.6</ele>
        <time>2020-03-26T11:06:28Z</time>
      </trkpt>
      <trkpt lat="59.005278" lon="17.341184">
        <ele>24.9</ele>
        <time>2020-03-26T11:06:37Z</time>
      </trkpt>
      <trkpt lat="59.005614" lon="17.340969">
        <ele>26</ele>
        <time>2020-03-26T11:06:42Z</time>
      </trkpt>
      <trkpt lat="59.006187" lon="17.340379">
        <ele>26.9</ele>
        <time>2020-03-26T11:06:51Z</time>
      </trkpt>
      <trkpt lat="59.007797" lon="17.338721">
        <ele>27.3</ele>
        <time>2020-03-26T11:07:18Z</time>
      </trkpt>
      <trkpt lat="59.008708" lon="17.337595">
        <ele>27.3</ele>
        <time>2020-03-26T11:07:33Z</time>
      </trkpt>
      <trkpt lat="59.009547" lon="17.336103">
        <ele>27.9</ele>
        <time>2020-03-26T11:07:50Z</time>
      </trkpt>
      <trkpt lat="59.01036" lon="17.334747">
        <ele>28.3</ele>
        <time>2020-03-26T11:08:05Z</time>
      </trkpt>
      <trkpt lat="59.01173" lon="17.332901">
        <ele>28.1</ele>
        <time>2020-03-26T11:08:29Z</time>
      </trkpt>
      <trkpt lat="59.012163" lon="17.332584">
        <ele>29.8</ele>
        <time>2020-03-26T11:08:36Z</time>
      </trkpt>
      <trkpt lat="59.012893" lon="17.332318">
        <ele>30.5</ele>
        <time>2020-03-26T11:08:47Z</time>
      </trkpt>
      <trkpt lat="59.014342" lon="17.332003">
        <ele>30.9</ele>
        <time>2020-03-26T11:09:08Z</time>
      </trkpt>
      <trkpt lat="59.014748" lon="17.331914">
        <ele>31.4</ele>
        <time>2020-03-26T11:09:14Z</time>
      </trkpt>
      <trkpt lat="59.015336" lon="17.331949">
        <ele>31.2</ele>
        <time>2020-03-26T11:09:22Z</time>
      </trkpt>
      <trkpt lat="59.018681" lon="17.332411">
        <ele>30.5</ele>
        <time>2020-03-26T11:10:11Z</time>
      </trkpt>
      <trkpt lat="59.020117" lon="17.332627">
        <ele>30.1</ele>
        <time>2020-03-26T11:10:32Z</time>
      </trkpt>
      <trkpt lat="59.021067" lon="17.332798">
        <ele>29.8</ele>
        <time>2020-03-26T11:10:45Z</time>
      </trkpt>
      <trkpt lat="59.021817" lon="17.333176">
        <ele>29.5</ele>
        <time>2020-03-26T11:10:57Z</time>
      </trkpt>
      <trkpt lat="59.022614" lon="17.333807">
        <ele>29.1</ele>
        <time>2020-03-26T11:11:09Z</time>
      </trkpt>
      <trkpt lat="59.023175" lon="17.334328">
        <ele>29</ele>
        <time>2020-03-26T11:11:18Z</time>
      </trkpt>
      <trkpt lat="59.023911" lon="17.335042">
        <ele>26.8</ele>
        <time>2020-03-26T11:11:30Z</time>
      </trkpt>
      <trkpt lat="59.024644" lon="17.335636">
        <ele>25.2</ele>
        <time>2020-03-26T11:11:41Z</time>
      </trkpt>
      <trkpt lat="59.026089" lon="17.336658">
        <ele>23.8</ele>
        <time>2020-03-26T11:12:04Z</time>
      </trkpt>
      <trkpt lat="59.026311" lon="17.336794">
        <ele>23</ele>
        <time>2020-03-26T11:12:07Z</time>
      </trkpt>
      <trkpt lat="59.026563" lon="17.336822">
        <ele>22.5</ele>
        <time>2020-03-26T11:12:11Z</time>
      </trkpt>
      <trkpt lat="59.0268" lon="17.3367">
        <ele>22.2</ele>
        <time>2020-03-26T11:12:14Z</time>
      </trkpt>
      <trkpt lat="59.027046" lon="17.336402">
        <ele>21.9</ele>
        <time>2020-03-26T11:12:18Z</time>
      </trkpt>
      <trkpt lat="59.027494" lon="17.335647">
        <ele>21.6</ele>
        <time>2020-03-26T11:12:27Z</time>
      </trkpt>
      <trkpt lat="59.027675" lon="17.335411">
        <ele>21.3</ele>
        <time>2020-03-26T11:12:30Z</time>
      </trkpt>
      <trkpt lat="59.027814" lon="17.33533">
        <ele>21</ele>
        <time>2020-03-26T11:12:32Z</time>
      </trkpt>
      <trkpt lat="59.027944" lon="17.335292">
        <ele>21</ele>
        <time>2020-03-26T11:12:34Z</time>
      </trkpt>
      <trkpt lat="59.028419" lon="17.335331">
        <ele>21.3</ele>
        <time>2020-03-26T11:12:41Z</time>
      </trkpt>
      <trkpt lat="59.029497" lon="17.335636">
        <ele>20.8</ele>
        <time>2020-03-26T11:12:57Z</time>
      </trkpt>
      <trkpt lat="59.029917" lon="17.335586">
        <ele>20.5</ele>
        <time>2020-03-26T11:13:03Z</time>
      </trkpt>
      <trkpt lat="59.030024" lon="17.335547">
        <ele>20.5</ele>
        <time>2020-03-26T11:13:04Z</time>
      </trkpt>
      <trkpt lat="59.030205" lon="17.335444">
        <ele>20.6</ele>
        <time>2020-03-26T11:13:07Z</time>
      </trkpt>
      <trkpt lat="59.030539" lon="17.335141">
        <ele>20.9</ele>
        <time>2020-03-26T11:13:12Z</time>
      </trkpt>
      <trkpt lat="59.031372" lon="17.333983">
        <ele>21</ele>
        <time>2020-03-26T11:13:27Z</time>
      </trkpt>
      <trkpt lat="59.031772" lon="17.333458">
        <ele>21</ele>
        <time>2020-03-26T11:13:34Z</time>
      </trkpt>
      <trkpt lat="59.031802" lon="17.333434">
        <ele>20.8</ele>
        <time>2020-03-26T11:13:35Z</time>
      </trkpt>
      <trkpt lat="59.032439" lon="17.332911">
        <ele>20.6</ele>
        <time>2020-03-26T11:13:45Z</time>
      </trkpt>
      <trkpt lat="59.033092" lon="17.332477">
        <ele>20.2</ele>
        <time>2020-03-26T11:13:55Z</time>
      </trkpt>
      <trkpt lat="59.033339" lon="17.332304">
        <ele>19.5</ele>
        <time>2020-03-26T11:13:58Z</time>
      </trkpt>
      <trkpt lat="59.033559" lon="17.332102">
        <ele>19.5</ele>
        <time>2020-03-26T11:14:02Z</time>
      </trkpt>
      <trkpt lat="59.033716" lon="17.331963">
        <ele>19.3</ele>
        <time>2020-03-26T11:14:04Z</time>
      </trkpt>
      <trkpt lat="59.033849" lon="17.331966">
        <ele>18.9</ele>
        <time>2020-03-26T11:14:06Z</time>
      </trkpt>
      <trkpt lat="59.033912" lon="17.332033">
        <ele>18.4</ele>
        <time>2020-03-26T11:14:07Z</time>
      </trkpt>
      <trkpt lat="59.033946" lon="17.332079">
        <ele>18.2</ele>
        <time>2020-03-26T11:14:08Z</time>
      </trkpt>
      <trkpt lat="59.033989" lon="17.332106">
        <ele>18.2</ele>
        <time>2020-03-26T11:14:09Z</time>
      </trkpt>
      <trkpt lat="59.034067" lon="17.332087">
        <ele>18.3</ele>
        <time>2020-03-26T11:14:10Z</time>
      </trkpt>
      <trkpt lat="59.034141" lon="17.331948">
        <ele>18.7</ele>
        <time>2020-03-26T11:14:11Z</time>
      </trkpt>
      <trkpt lat="59.034218" lon="17.331877">
        <ele>19.1</ele>
        <time>2020-03-26T11:14:13Z</time>
      </trkpt>
      <trkpt lat="59.034307" lon="17.331792">
        <ele>19.5</ele>
        <time>2020-03-26T11:14:14Z</time>
      </trkpt>
      <trkpt lat="59.034433" lon="17.331674">
        <ele>20.1</ele>
        <time>2020-03-26T11:14:16Z</time>
      </trkpt>
      <trkpt lat="59.034538" lon="17.331581">
        <ele>20.5</ele>
        <time>2020-03-26T11:14:18Z</time>
      </trkpt>
      <trkpt lat="59.034636" lon="17.331475">
        <ele>20.7</ele>
        <time>2020-03-26T11:14:19Z</time>
      </trkpt>
      <trkpt lat="59.034891" lon="17.331299">
        <ele>21</ele>
        <time>2020-03-26T11:14:23Z</time>
      </trkpt>
      <trkpt lat="59.035151" lon="17.331128">
        <ele>21.4</ele>
        <time>2020-03-26T11:14:27Z</time>
      </trkpt>
      <trkpt lat="59.035479" lon="17.330913">
        <ele>21.3</ele>
        <time>2020-03-26T11:14:32Z</time>
      </trkpt>
      <trkpt lat="59.035781" lon="17.330721">
        <ele>21</ele>
        <time>2020-03-26T11:14:37Z</time>
      </trkpt>
      <trkpt lat="59.036204" lon="17.330443">
        <ele>20.7</ele>
        <time>2020-03-26T11:14:43Z</time>
      </trkpt>
      <trkpt lat="59.036316" lon="17.330368">
        <ele>20.4</ele>
        <time>2020-03-26T11:14:45Z</time>
      </trkpt>
      <trkpt lat="59.037825" lon="17.32939">
        <ele>19.9</ele>
        <time>2020-03-26T11:15:08Z</time>
      </trkpt>
      <trkpt lat="59.038549" lon="17.328899">
        <ele>19.4</ele>
        <time>2020-03-26T11:15:19Z</time>
      </trkpt>
      <trkpt lat="59.039338" lon="17.328332">
        <ele>18.7</ele>
        <time>2020-03-26T11:15:31Z</time>
      </trkpt>
      <trkpt lat="59.039415" lon="17.328326">
        <ele>18</ele>
        <time>2020-03-26T11:15:32Z</time>
      </trkpt>
      <trkpt lat="59.039439" lon="17.328344">
        <ele>17.3</ele>
        <time>2020-03-26T11:15:33Z</time>
      </trkpt>
      <trkpt lat="59.039462" lon="17.328475">
        <ele>17.1</ele>
        <time>2020-03-26T11:15:34Z</time>
      </trkpt>
      <trkpt lat="59.039466" lon="17.328585">
        <ele>17</ele>
        <time>2020-03-26T11:15:35Z</time>
      </trkpt>
      <trkpt lat="59.03946" lon="17.328792">
        <ele>16.9</ele>
        <time>2020-03-26T11:15:36Z</time>
      </trkpt>
      <trkpt lat="59.039544" lon="17.32885">
        <ele>16.8</ele>
        <time>2020-03-26T11:15:37Z</time>
      </trkpt>
      <trkpt lat="59.039628" lon="17.328803">
        <ele>16.7</ele>
        <time>2020-03-26T11:15:39Z</time>
      </trkpt>
      <trkpt lat="59.039673" lon="17.328605">
        <ele>16.6</ele>
        <time>2020-03-26T11:15:40Z</time>
      </trkpt>
      <trkpt lat="59.039688" lon="17.328536">
        <ele>16.5</ele>
        <time>2020-03-26T11:15:41Z</time>
      </trkpt>
      <trkpt lat="59.039819" lon="17.328341">
        <ele>16.5</ele>
        <time>2020-03-26T11:15:43Z</time>
      </trkpt>
      <trkpt lat="59.04004" lon="17.328257">
        <ele>16.2</ele>
        <time>2020-03-26T11:15:46Z</time>
      </trkpt>
      <trkpt lat="59.040165" lon="17.328162">
        <ele>16</ele>
        <time>2020-03-26T11:15:48Z</time>
      </trkpt>
      <trkpt lat="59.040201" lon="17.328009">
        <ele>15.9</ele>
        <time>2020-03-26T11:15:50Z</time>
      </trkpt>
      <trkpt lat="59.040226" lon="17.327851">
        <ele>16</ele>
        <time>2020-03-26T11:15:51Z</time>
      </trkpt>
      <trkpt lat="59.040205" lon="17.3277">
        <ele>16.1</ele>
        <time>2020-03-26T11:15:52Z</time>
      </trkpt>
      <trkpt lat="59.040965" lon="17.327049">
        <ele>16.3</ele>
        <time>2020-03-26T11:16:04Z</time>
      </trkpt>
      <trkpt lat="59.041251" lon="17.32682">
        <ele>16.5</ele>
        <time>2020-03-26T11:16:08Z</time>
      </trkpt>
      <trkpt lat="59.041474" lon="17.326634">
        <ele>16.6</ele>
        <time>2020-03-26T11:16:12Z</time>
      </trkpt>
      <trkpt lat="59.041634" lon="17.326503">
        <ele>16.8</ele>
        <time>2020-03-26T11:16:14Z</time>
      </trkpt>
      <trkpt lat="59.041762" lon="17.326406">
        <ele>16.9</ele>
        <time>2020-03-26T11:16:16Z</time>
      </trkpt>
      <trkpt lat="59.04221" lon="17.326042">
        <ele>17.2</ele>
        <time>2020-03-26T11:16:23Z</time>
      </trkpt>
      <trkpt lat="59.042541" lon="17.325771">
        <ele>17.7</ele>
        <time>2020-03-26T11:16:29Z</time>
      </trkpt>
      <trkpt lat="59.04279" lon="17.325565">
        <ele>18.2</ele>
        <time>2020-03-26T11:16:33Z</time>
      </trkpt>
      <trkpt lat="59.042868" lon="17.325501">
        <ele>18.6</ele>
        <time>2020-03-26T11:16:34Z</time>
      </trkpt>
      <trkpt lat="59.043279" lon="17.325171">
        <ele>19</ele>
        <time>2020-03-26T11:16:40Z</time>
      </trkpt>
      <trkpt lat="59.043521" lon="17.324981">
        <ele>19.4</ele>
        <time>2020-03-26T11:16:44Z</time>
      </trkpt>
      <trkpt lat="59.04371" lon="17.324811">
        <ele>19.6</ele>
        <time>2020-03-26T11:16:47Z</time>
      </trkpt>
      <trkpt lat="59.043934" lon="17.324621">
        <ele>19.8</ele>
        <time>2020-03-26T11:16:51Z</time>
      </trkpt>
      <trkpt lat="59.04406" lon="17.324484">
        <ele>20</ele>
        <time>2020-03-26T11:16:53Z</time>
      </trkpt>
      <trkpt lat="59.044143" lon="17.324385">
        <ele>20.2</ele>
        <time>2020-03-26T11:16:54Z</time>
      </trkpt>
      <trkpt lat="59.044371" lon="17.324066">
        <ele>20.5</ele>
        <time>2020-03-26T11:16:58Z</time>
      </trkpt>
      <trkpt lat="59.044586" lon="17.323746">
        <ele>20.5</ele>
        <time>2020-03-26T11:17:02Z</time>
      </trkpt>
      <trkpt lat="59.044768" lon="17.323467">
        <ele>20.5</ele>
        <time>2020-03-26T11:17:05Z</time>
      </trkpt>
      <trkpt lat="59.044799" lon="17.323426">
        <ele>20.4</ele>
        <time>2020-03-26T11:17:06Z</time>
      </trkpt>
      <trkpt lat="59.045089" lon="17.322979">
        <ele>20.2</ele>
        <time>2020-03-26T11:17:11Z</time>
      </trkpt>
      <trkpt lat="59.045295" lon="17.322682">
        <ele>19.8</ele>
        <time>2020-03-26T11:17:15Z</time>
      </trkpt>
      <trkpt lat="59.045432" lon="17.322478">
        <ele>18.9</ele>
        <time>2020-03-26T11:17:17Z</time>
      </trkpt>
      <trkpt lat="59.045685" lon="17.322097">
        <ele>18.6</ele>
        <time>2020-03-26T11:17:22Z</time>
      </trkpt>
      <trkpt lat="59.045901" lon="17.321775">
        <ele>18.5</ele>
        <time>2020-03-26T11:17:26Z</time>
      </trkpt>
      <trkpt lat="59.046158" lon="17.321391">
        <ele>18.5</ele>
        <time>2020-03-26T11:17:31Z</time>
      </trkpt>
      <trkpt lat="59.046329" lon="17.321131">
        <ele>18.5</ele>
        <time>2020-03-26T11:17:34Z</time>
      </trkpt>
      <trkpt lat="59.046415" lon="17.320996">
        <ele>18.5</ele>
        <time>2020-03-26T11:17:35Z</time>
      </trkpt>
      <trkpt lat="59.046783" lon="17.320446">
        <ele>18.6</ele>
        <time>2020-03-26T11:17:42Z</time>
      </trkpt>
      <trkpt lat="59.046992" lon="17.32015">
        <ele>18.8</ele>
        <time>2020-03-26T11:17:46Z</time>
      </trkpt>
      <trkpt lat="59.047219" lon="17.319815">
        <ele>19.2</ele>
        <time>2020-03-26T11:17:50Z</time>
      </trkpt>
      <trkpt lat="59.047438" lon="17.319468">
        <ele>19.7</ele>
        <time>2020-03-26T11:17:54Z</time>
      </trkpt>
      <trkpt lat="59.047515" lon="17.319333">
        <ele>20.5</ele>
        <time>2020-03-26T11:17:56Z</time>
      </trkpt>
      <trkpt lat="59.047612" lon="17.319125">
        <ele>21.2</ele>
        <time>2020-03-26T11:17:58Z</time>
      </trkpt>
      <trkpt lat="59.04767" lon="17.318967">
        <ele>21.8</ele>
        <time>2020-03-26T11:17:59Z</time>
      </trkpt>
      <trkpt lat="59.047726" lon="17.318769">
        <ele>22.3</ele>
        <time>2020-03-26T11:18:01Z</time>
      </trkpt>
      <trkpt lat="59.047774" lon="17.318578">
        <ele>22.6</ele>
        <time>2020-03-26T11:18:02Z</time>
      </trkpt>
      <trkpt lat="59.047821" lon="17.318324">
        <ele>23.4</ele>
        <time>2020-03-26T11:18:04Z</time>
      </trkpt>
      <trkpt lat="59.047865" lon="17.318064">
        <ele>23.5</ele>
        <time>2020-03-26T11:18:06Z</time>
      </trkpt>
      <trkpt lat="59.047889" lon="17.317895">
        <ele>23.6</ele>
        <time>2020-03-26T11:18:08Z</time>
      </trkpt>
      <trkpt lat="59.047906" lon="17.317721">
        <ele>23.7</ele>
        <time>2020-03-26T11:18:09Z</time>
      </trkpt>
      <trkpt lat="59.047952" lon="17.316908">
        <ele>23.8</ele>
        <time>2020-03-26T11:18:15Z</time>
      </trkpt>
      <trkpt lat="59.047983" lon="17.31629">
        <ele>23.7</ele>
        <time>2020-03-26T11:18:20Z</time>
      </trkpt>
      <trkpt lat="59.047987" lon="17.316155">
        <ele>23.5</ele>
        <time>2020-03-26T11:18:21Z</time>
      </trkpt>
      <trkpt lat="59.048001" lon="17.315724">
        <ele>23.4</ele>
        <time>2020-03-26T11:18:24Z</time>
      </trkpt>
      <trkpt lat="59.048019" lon="17.314567">
        <ele>23.1</ele>
        <time>2020-03-26T11:18:33Z</time>
      </trkpt>
      <trkpt lat="59.048024" lon="17.314082">
        <ele>22.7</ele>
        <time>2020-03-26T11:18:36Z</time>
      </trkpt>
      <trkpt lat="59.048014" lon="17.313623">
        <ele>22.3</ele>
        <time>2020-03-26T11:18:40Z</time>
      </trkpt>
      <trkpt lat="59.048007" lon="17.313244">
        <ele>21.9</ele>
        <time>2020-03-26T11:18:42Z</time>
      </trkpt>
      <trkpt lat="59.048007" lon="17.31316">
        <ele>21.5</ele>
        <time>2020-03-26T11:18:43Z</time>
      </trkpt>
      <trkpt lat="59.048007" lon="17.312949">
        <ele>21</ele>
        <time>2020-03-26T11:18:45Z</time>
      </trkpt>
      <trkpt lat="59.048019" lon="17.312627">
        <ele>20.5</ele>
        <time>2020-03-26T11:18:47Z</time>
      </trkpt>
      <trkpt lat="59.048027" lon="17.312371">
        <ele>19.9</ele>
        <time>2020-03-26T11:18:49Z</time>
      </trkpt>
      <trkpt lat="59.048033" lon="17.312175">
        <ele>19.3</ele>
        <time>2020-03-26T11:18:50Z</time>
      </trkpt>
      <trkpt lat="59.048038" lon="17.312058">
        <ele>18</ele>
        <time>2020-03-26T11:18:51Z</time>
      </trkpt>
      <trkpt lat="59.048047" lon="17.311848">
        <ele>17.4</ele>
        <time>2020-03-26T11:18:53Z</time>
      </trkpt>
      <trkpt lat="59.04806" lon="17.311639">
        <ele>16.9</ele>
        <time>2020-03-26T11:18:54Z</time>
      </trkpt>
      <trkpt lat="59.048153" lon="17.31065">
        <ele>16.5</ele>
        <time>2020-03-26T11:19:02Z</time>
      </trkpt>
      <trkpt lat="59.04819" lon="17.310346">
        <ele>16.3</ele>
        <time>2020-03-26T11:19:04Z</time>
      </trkpt>
      <trkpt lat="59.04828" lon="17.309575">
        <ele>15.8</ele>
        <time>2020-03-26T11:19:10Z</time>
      </trkpt>
      <trkpt lat="59.048341" lon="17.308981">
        <ele>15.6</ele>
        <time>2020-03-26T11:19:15Z</time>
      </trkpt>
      <trkpt lat="59.048445" lon="17.307991">
        <ele>15.5</ele>
        <time>2020-03-26T11:19:22Z</time>
      </trkpt>
      <trkpt lat="59.048501" lon="17.307468">
        <ele>15.5</ele>
        <time>2020-03-26T11:19:26Z</time>
      </trkpt>
      <trkpt lat="59.048554" lon="17.306951">
        <ele>15.8</ele>
        <time>2020-03-26T11:19:30Z</time>
      </trkpt>
      <trkpt lat="59.048584" lon="17.30666">
        <ele>16.1</ele>
        <time>2020-03-26T11:19:32Z</time>
      </trkpt>
      <trkpt lat="59.048591" lon="17.306594">
        <ele>16.3</ele>
        <time>2020-03-26T11:19:33Z</time>
      </trkpt>
      <trkpt lat="59.048632" lon="17.306196">
        <ele>16.5</ele>
        <time>2020-03-26T11:19:36Z</time>
      </trkpt>
      <trkpt lat="59.048655" lon="17.305971">
        <ele>16.8</ele>
        <time>2020-03-26T11:19:37Z</time>
      </trkpt>
      <trkpt lat="59.04866" lon="17.305923">
        <ele>17.2</ele>
        <time>2020-03-26T11:19:38Z</time>
      </trkpt>
      <trkpt lat="59.048706" lon="17.305476">
        <ele>17.9</ele>
        <time>2020-03-26T11:19:41Z</time>
      </trkpt>
      <trkpt lat="59.048778" lon="17.30478">
        <ele>18.5</ele>
        <time>2020-03-26T11:19:46Z</time>
      </trkpt>
      <trkpt lat="59.048851" lon="17.304475">
        <ele>19</ele>
        <time>2020-03-26T11:19:49Z</time>
      </trkpt>
      <trkpt lat="59.048915" lon="17.304206">
        <ele>19.5</ele>
        <time>2020-03-26T11:19:51Z</time>
      </trkpt>
      <trkpt lat="59.048888" lon="17.304163">
        <ele>19.8</ele>
        <time>2020-03-26T11:19:52Z</time>
      </trkpt>
      <trkpt lat="59.04893" lon="17.304059">
        <ele>20.1</ele>
        <time>2020-03-26T11:19:53Z</time>
      </trkpt>
      <trkpt lat="59.049057" lon="17.303765">
        <ele>20.4</ele>
        <time>2020-03-26T11:19:55Z</time>
      </trkpt>
      <trkpt lat="59.049254" lon="17.3033">
        <ele>20.5</ele>
        <time>2020-03-26T11:20:00Z</time>
      </trkpt>
      <trkpt lat="59.049398" lon="17.302965">
        <ele>20.6</ele>
        <time>2020-03-26T11:20:03Z</time>
      </trkpt>
      <trkpt lat="59.049457" lon="17.302824">
        <ele>20.6</ele>
        <time>2020-03-26T11:20:04Z</time>
      </trkpt>
      <trkpt lat="59.049569" lon="17.302486">
        <ele>20.7</ele>
        <time>2020-03-26T11:20:07Z</time>
      </trkpt>
      <trkpt lat="59.049627" lon="17.3023">
        <ele>20.8</ele>
        <time>2020-03-26T11:20:09Z</time>
      </trkpt>
      <trkpt lat="59.049686" lon="17.302039">
        <ele>20.8</ele>
        <time>2020-03-26T11:20:11Z</time>
      </trkpt>
      <trkpt lat="59.049717" lon="17.301835">
        <ele>20.8</ele>
        <time>2020-03-26T11:20:13Z</time>
      </trkpt>
      <trkpt lat="59.049746" lon="17.301562">
        <ele>20.7</ele>
        <time>2020-03-26T11:20:15Z</time>
      </trkpt>
      <trkpt lat="59.04982" lon="17.300801">
        <ele>20.5</ele>
        <time>2020-03-26T11:20:21Z</time>
      </trkpt>
      <trkpt lat="59.049853" lon="17.300425">
        <ele>20.4</ele>
        <time>2020-03-26T11:20:23Z</time>
      </trkpt>
      <trkpt lat="59.049865" lon="17.300275">
        <ele>20.1</ele>
        <time>2020-03-26T11:20:25Z</time>
      </trkpt>
      <trkpt lat="59.049915" lon="17.300095">
        <ele>19.5</ele>
        <time>2020-03-26T11:20:26Z</time>
      </trkpt>
      <trkpt lat="59.050028" lon="17.300135">
        <ele>19.3</ele>
        <time>2020-03-26T11:20:28Z</time>
      </trkpt>
      <trkpt lat="59.050169" lon="17.300205">
        <ele>18.9</ele>
        <time>2020-03-26T11:20:30Z</time>
      </trkpt>
      <trkpt lat="59.050296" lon="17.300273">
        <ele>18.5</ele>
        <time>2020-03-26T11:20:32Z</time>
      </trkpt>
      <trkpt lat="59.050364" lon="17.300314">
        <ele>18.1</ele>
        <time>2020-03-26T11:20:33Z</time>
      </trkpt>
      <trkpt lat="59.050523" lon="17.300415">
        <ele>17.6</ele>
        <time>2020-03-26T11:20:35Z</time>
      </trkpt>
      <trkpt lat="59.050605" lon="17.300474">
        <ele>17.3</ele>
        <time>2020-03-26T11:20:37Z</time>
      </trkpt>
      <trkpt lat="59.050726" lon="17.300576">
        <ele>17.1</ele>
        <time>2020-03-26T11:20:38Z</time>
      </trkpt>
      <trkpt lat="59.050824" lon="17.300675">
        <ele>17</ele>
        <time>2020-03-26T11:20:40Z</time>
      </trkpt>
      <trkpt lat="59.050924" lon="17.300787">
        <ele>17</ele>
        <time>2020-03-26T11:20:42Z</time>
      </trkpt>
      <trkpt lat="59.05099" lon="17.300692">
        <ele>17.1</ele>
        <time>2020-03-26T11:20:43Z</time>
      </trkpt>
      <trkpt lat="59.05104" lon="17.300812">
        <ele>17.3</ele>
        <time>2020-03-26T11:20:44Z</time>
      </trkpt>
      <trkpt lat="59.051128" lon="17.300949">
        <ele>17.4</ele>
        <time>2020-03-26T11:20:46Z</time>
      </trkpt>
      <trkpt lat="59.051234" lon="17.301109">
        <ele>17.5</ele>
        <time>2020-03-26T11:20:48Z</time>
      </trkpt>
      <trkpt lat="59.051327" lon="17.301236">
        <ele>17.5</ele>
        <time>2020-03-26T11:20:49Z</time>
      </trkpt>
      <trkpt lat="59.051431" lon="17.301406">
        <ele>17.6</ele>
        <time>2020-03-26T11:20:51Z</time>
      </trkpt>
      <trkpt lat="59.051593" lon="17.301664">
        <ele>17.6</ele>
        <time>2020-03-26T11:20:54Z</time>
      </trkpt>
      <trkpt lat="59.051703" lon="17.301819">
        <ele>17.6</ele>
        <time>2020-03-26T11:20:56Z</time>
      </trkpt>
      <trkpt lat="59.051593" lon="17.301664">
        <ele>17.6</ele>
        <time>2020-03-26T11:20:58Z</time>
      </trkpt>
      <trkpt lat="59.051431" lon="17.301406">
        <ele>17.6</ele>
        <time>2020-03-26T11:21:01Z</time>
      </trkpt>
      <trkpt lat="59.051327" lon="17.301236">
        <ele>17.5</ele>
        <time>2020-03-26T11:21:03Z</time>
      </trkpt>
      <trkpt lat="59.051234" lon="17.301109">
        <ele>17.5</ele>
        <time>2020-03-26T11:21:05Z</time>
      </trkpt>
      <trkpt lat="59.051128" lon="17.300949">
        <ele>17.4</ele>
        <time>2020-03-26T11:21:07Z</time>
      </trkpt>
      <trkpt lat="59.051034" lon="17.300753">
        <ele>17.2</ele>
        <time>2020-03-26T11:21:09Z</time>
      </trkpt>
      <trkpt lat="59.05099" lon="17.300692">
        <ele>17.1</ele>
        <time>2020-03-26T11:21:10Z</time>
      </trkpt>
      <trkpt lat="59.050924" lon="17.300787">
        <ele>17</ele>
        <time>2020-03-26T11:21:11Z</time>
      </trkpt>
      <trkpt lat="59.050824" lon="17.300675">
        <ele>17</ele>
        <time>2020-03-26T11:21:13Z</time>
      </trkpt>
      <trkpt lat="59.050726" lon="17.300576">
        <ele>17.1</ele>
        <time>2020-03-26T11:21:14Z</time>
      </trkpt>
      <trkpt lat="59.050605" lon="17.300474">
        <ele>17.3</ele>
        <time>2020-03-26T11:21:16Z</time>
      </trkpt>
      <trkpt lat="59.050523" lon="17.300415">
        <ele>17.6</ele>
        <time>2020-03-26T11:21:17Z</time>
      </trkpt>
      <trkpt lat="59.050364" lon="17.300314">
        <ele>18.1</ele>
        <time>2020-03-26T11:21:20Z</time>
      </trkpt>
      <trkpt lat="59.050296" lon="17.300273">
        <ele>18.5</ele>
        <time>2020-03-26T11:21:21Z</time>
      </trkpt>
      <trkpt lat="59.050169" lon="17.300205">
        <ele>18.8</ele>
        <time>2020-03-26T11:21:23Z</time>
      </trkpt>
      <trkpt lat="59.050028" lon="17.300135">
        <ele>19.1</ele>
        <time>2020-03-26T11:21:25Z</time>
      </trkpt>
      <trkpt lat="59.049915" lon="17.300095">
        <ele>19.4</ele>
        <time>2020-03-26T11:21:26Z</time>
      </trkpt>
      <trkpt lat="59.049877" lon="17.300145">
        <ele>19.6</ele>
        <time>2020-03-26T11:21:27Z</time>
      </trkpt>
      <trkpt lat="59.049853" lon="17.300425">
        <ele>19.9</ele>
        <time>2020-03-26T11:21:29Z</time>
      </trkpt>
      <trkpt lat="59.04982" lon="17.300801">
        <ele>20.2</ele>
        <time>2020-03-26T11:21:32Z</time>
      </trkpt>
      <trkpt lat="59.049746" lon="17.301562">
        <ele>20.5</ele>
        <time>2020-03-26T11:21:38Z</time>
      </trkpt>
      <trkpt lat="59.049717" lon="17.301835">
        <ele>20.7</ele>
        <time>2020-03-26T11:21:40Z</time>
      </trkpt>
      <trkpt lat="59.049686" lon="17.302039">
        <ele>20.8</ele>
        <time>2020-03-26T11:21:41Z</time>
      </trkpt>
      <trkpt lat="59.049627" lon="17.3023">
        <ele>20.8</ele>
        <time>2020-03-26T11:21:44Z</time>
      </trkpt>
      <trkpt lat="59.049569" lon="17.302486">
        <ele>20.7</ele>
        <time>2020-03-26T11:21:45Z</time>
      </trkpt>
      <trkpt lat="59.049457" lon="17.302824">
        <ele>20.6</ele>
        <time>2020-03-26T11:21:48Z</time>
      </trkpt>
      <trkpt lat="59.049398" lon="17.302965">
        <ele>20.5</ele>
        <time>2020-03-26T11:21:50Z</time>
      </trkpt>
      <trkpt lat="59.049254" lon="17.3033">
        <ele>20.5</ele>
        <time>2020-03-26T11:21:53Z</time>
      </trkpt>
      <trkpt lat="59.049057" lon="17.303765">
        <ele>20.3</ele>
        <time>2020-03-26T11:21:57Z</time>
      </trkpt>
      <trkpt lat="59.04893" lon="17.304059">
        <ele>20.1</ele>
        <time>2020-03-26T11:22:00Z</time>
      </trkpt>
      <trkpt lat="59.048888" lon="17.304163">
        <ele>19.8</ele>
        <time>2020-03-26T11:22:01Z</time>
      </trkpt>
      <trkpt lat="59.048842" lon="17.30433">
        <ele>19.5</ele>
        <time>2020-03-26T11:22:03Z</time>
      </trkpt>
      <trkpt lat="59.048775" lon="17.304591">
        <ele>19</ele>
        <time>2020-03-26T11:22:05Z</time>
      </trkpt>
      <trkpt lat="59.048729" lon="17.304909">
        <ele>18.5</ele>
        <time>2020-03-26T11:22:07Z</time>
      </trkpt>
      <trkpt lat="59.048695" lon="17.305253">
        <ele>17.8</ele>
        <time>2020-03-26T11:22:10Z</time>
      </trkpt>
      <trkpt lat="59.048663" lon="17.30546">
        <ele>17.4</ele>
        <time>2020-03-26T11:22:11Z</time>
      </trkpt>
      <trkpt lat="59.048661" lon="17.305515">
        <ele>16.9</ele>
        <time>2020-03-26T11:22:12Z</time>
      </trkpt>
      <trkpt lat="59.048631" lon="17.305808">
        <ele>16.5</ele>
        <time>2020-03-26T11:22:14Z</time>
      </trkpt>
      <trkpt lat="59.048536" lon="17.306604">
        <ele>16.2</ele>
        <time>2020-03-26T11:22:20Z</time>
      </trkpt>
      <trkpt lat="59.048396" lon="17.30797">
        <ele>15.5</ele>
        <time>2020-03-26T11:22:30Z</time>
      </trkpt>
      <trkpt lat="59.048378" lon="17.308206">
        <ele>15.5</ele>
        <time>2020-03-26T11:22:32Z</time>
      </trkpt>
      <trkpt lat="59.048294" lon="17.309">
        <ele>15.4</ele>
        <time>2020-03-26T11:22:38Z</time>
      </trkpt>
      <trkpt lat="59.04828" lon="17.309185">
        <ele>15.3</ele>
        <time>2020-03-26T11:22:40Z</time>
      </trkpt>
      <trkpt lat="59.048242" lon="17.309524">
        <ele>15.4</ele>
        <time>2020-03-26T11:22:42Z</time>
      </trkpt>
      <trkpt lat="59.048204" lon="17.309883">
        <ele>15.6</ele>
        <time>2020-03-26T11:22:45Z</time>
      </trkpt>
      <trkpt lat="59.048145" lon="17.310326">
        <ele>16</ele>
        <time>2020-03-26T11:22:48Z</time>
      </trkpt>
      <trkpt lat="59.048113" lon="17.310632">
        <ele>16.1</ele>
        <time>2020-03-26T11:22:51Z</time>
      </trkpt>
      <trkpt lat="59.048017" lon="17.3115">
        <ele>16.2</ele>
        <time>2020-03-26T11:22:57Z</time>
      </trkpt>
      <trkpt lat="59.047971" lon="17.311622">
        <ele>16.6</ele>
        <time>2020-03-26T11:22:58Z</time>
      </trkpt>
      <trkpt lat="59.047969" lon="17.311667">
        <ele>16.8</ele>
        <time>2020-03-26T11:23:00Z</time>
      </trkpt>
      <trkpt lat="59.047382" lon="17.310424">
        <ele>16.2</ele>
        <time>2020-03-26T12:11:32Z</time>
        <extensions><gpxtpx:TrackPointExtension><gpxtpx:hr>101</gpxtpx:hr></gpxtpx:TrackPointExtension></extensions>
      </trkpt>
      <trkpt lat="59.047377" lon="17.310487">
        <ele>16.2</ele>
        <time>2020-03-26T12:11:33Z</time>
        <extensions><gpxtpx:TrackPointExtension><gpxtpx:hr>101</gpxtpx:hr></gpxtpx:TrackPointExtension></extensions>
      </trkpt>
      <trkpt lat="59.047378" lon="17.310555">
        <ele>16.2</ele>
        <time>2020-03-26T12:11:34Z</time>
        <extensions><gpxtpx:TrackPointExtension><gpxtpx:hr>102</gpxtpx:hr></gpxtpx:TrackPointExtension></extensions>
      </trkpt>
      <trkpt lat="59.047382" lon="17.310625">
        <ele>16.2</ele>
        <time>2020-03-26T12:11:35Z</time>
        <extensions><gpxtpx:TrackPointExtension><gpxtpx:hr>103</gpxtpx:hr></gpxtpx:TrackPointExtension></extensions>
      </trkpt>
      <trkpt lat="59.047385" lon="17.310707">
        <ele>16.2</ele>
        <time>2020-03-26T12:11:36Z</time>
        <extensions><gpxtpx:TrackPointExtension><gpxtpx:hr>104</gpxtpx:hr></gpxtpx:TrackPointExtension></extensions>
      </trkpt>
      <trkpt lat="59.047394" lon="17.310797">
        <ele>16.2</ele>
        <time>2020-03-26T12:11:37Z</time>
        <extensions><gpxtpx:TrackPointExtension><gpxtpx:hr>104</gpxtpx:hr></gpxtpx:TrackPointExtension></extensions>
      </trkpt>
      <trkpt lat="59.047402" lon="17.310893">
        <ele>16.2</ele>
        <time>2020-03-26T12:11:38Z</time>
        <extensions><gpxtpx:TrackPointExtension><gpxtpx:hr>104</gpxtpx:hr></gpxtpx:TrackPointExtension></extensions>
      </trkpt>
      <trkpt lat="59.04741" lon="17.310989">
        <ele>16.2</ele>
        <time>2020-03-26T12:11:39Z</time>
        <extensions><gpxtpx:TrackPointExtension><gpxtpx:hr>105</gpxtpx:hr></gpxtpx:TrackPointExtension></extensions>
      </trkpt>
      <trkpt lat="59.047417" lon="17.31109">
        <ele>16.2</ele>
        <time>2020-03-26T12:11:40Z</time>
        <extensions><gpxtpx:TrackPointExtension><gpxtpx:hr>106</gpxtpx:hr></gpxtpx:TrackPointExtension></extensions>
      </trkpt>
      <trkpt lat="59.047423" lon="17.311194">
        <ele>16.2</ele>
        <time>2020-03-26T12:11:41Z</time>
        <extensions><gpxtpx:TrackPointExtension><gpxtpx:hr>107</gpxtpx:hr></gpxtpx:TrackPointExtension></extensions>
      </trkpt>
      <trkpt lat="59.047437" lon="17.311297">
        <ele>16.2</ele>
        <time>2020-03-26T12:11:42Z</time>
        <extensions><gpxtpx:TrackPointExtension><gpxtpx:hr>109</gpxtpx:hr></gpxtpx:TrackPointExtension></extensions>
      </trkpt>
      <trkpt lat="59.047447" lon="17.311397">
        <ele>16.2</ele>
        <time>2020-03-26T12:11:43Z</time>
        <extensions><gpxtpx:TrackPointExtension><gpxtpx:hr>111</gpxtpx:hr></gpxtpx:TrackPointExtension></extensions>
      </trkpt>
      <trkpt lat="59.047461" lon="17.311496">
        <ele>16.2</ele>
        <time>2020-03-26T12:11:44Z</time>
        <extensions><gpxtpx:TrackPointExtension><gpxtpx:hr>113</gpxtpx:hr></gpxtpx:TrackPointExtension></extensions>
      </trkpt>
      <trkpt lat="59.047475" lon="17.311594">
        <ele>16.4</ele>
        <time>2020-03-26T12:11:45Z</time>
        <extensions><gpxtpx:TrackPointExtension><gpxtpx:hr>115</gpxtpx:hr></gpxtpx:TrackPointExtension></extensions>
      </trkpt>
      <trkpt lat="59.047493" lon="17.311691">
        <ele>16.4</ele>
        <time>2020-03-26T12:11:46Z</time>
        <extensions><gpxtpx:TrackPointExtension><gpxtpx:hr>117</gpxtpx:hr></gpxtpx:TrackPointExtension></extensions>
      </trkpt>
      <trkpt lat="59.04752" lon="17.31177">
        <ele>16.4</ele>
        <time>2020-03-26T12:11:47Z</time>
        <extensions><gpxtpx:TrackPointExtension><gpxtpx:hr>119</gpxtpx:hr></gpxtpx:TrackPointExtension></extensions>
      </trkpt>
      <trkpt lat="59.047547" lon="17.311824">
        <ele>16.4</ele>
        <time>2020-03-26T12:11:48Z</time>
        <extensions><gpxtpx:TrackPointExtension><gpxtpx:hr>120</gpxtpx:hr></gpxtpx:TrackPointExtension></extensions>
      </trkpt>
      <trkpt lat="59.04759" lon="17.311858">
        <ele>16.4</ele>
        <time>2020-03-26T12:11:49Z</time>
        <extensions><gpxtpx:TrackPointExtension><gpxtpx:hr>121</gpxtpx:hr></gpxtpx:TrackPointExtension></extensions>
      </trkpt>
      <trkpt lat="59.047639" lon="17.311874">
        <ele>16.6</ele>
        <time>2020-03-26T12:11:50Z</time>
        <extensions><gpxtpx:TrackPointExtension><gpxtpx:hr>123</gpxtpx:hr></gpxtpx:TrackPointExtension></extensions>
      </trkpt>
      <trkpt lat="59.047684" lon="17.311874">
        <ele>16.6</ele>
        <time>2020-03-26T12:11:51Z</time>
        <extensions><gpxtpx:TrackPointExtension><gpxtpx:hr>123</gpxtpx:hr></gpxtpx:TrackPointExtension></extensions>
      </trkpt>
      <trkpt lat="59.047739" lon="17.311873">
        <ele>16.6</ele>
        <time>2020-03-26T12:11:52Z</time>
        <extensions><gpxtpx:TrackPointExtension><gpxtpx:hr>124</gpxtpx:hr></gpxtpx:TrackPointExtension></extensions>
      </trkpt>
      <trkpt lat="59.047799" lon="17.311873">
        <ele>16.6</ele>
        <time>2020-03-26T12:11:53Z</time>
        <extensions><gpxtpx:TrackPointExtension><gpxtpx:hr>125</gpxtpx:hr></gpxtpx:TrackPointExtension></extensions>
      </trkpt>
      <trkpt lat="59.047856" lon="17.311879">
        <ele>16.6</ele>
        <time>2020-03-26T12:11:54Z</time>
        <extensions><gpxtpx:TrackPointExtension><gpxtpx:hr>125</gpxtpx:hr></gpxtpx:TrackPointExtension></extensions>
      </trkpt>
      <trkpt lat="59.047904" lon="17.311899">
        <ele>16.6</ele>
        <time>2020-03-26T12:11:55Z</time>
        <extensions><gpxtpx:TrackPointExtension><gpxtpx:hr>125</gpxtpx:hr></gpxtpx:TrackPointExtension></extensions>
      </trkpt>
      <trkpt lat="59.047945" lon="17.31194">
        <ele>16.6</ele>
        <time>2020-03-26T12:11:56Z</time>
        <extensions><gpxtpx:TrackPointExtension><gpxtpx:hr>125</gpxtpx:hr></gpxtpx:TrackPointExtension></extensions>
      </trkpt>
      <trkpt lat="59.047971" lon="17.312">
        <ele>16.6</ele>
        <time>2020-03-26T12:11:57Z</time>
        <extensions><gpxtpx:TrackPointExtension><gpxtpx:hr>126</gpxtpx:hr></gpxtpx:TrackPointExtension></extensions>
      </trkpt>
      <trkpt lat="59.047981" lon="17.312084">
        <ele>16.6</ele>
        <time>2020-03-26T12:11:58Z</time>
        <extensions><gpxtpx:TrackPointExtension><gpxtpx:hr>126</gpxtpx:hr></gpxtpx:TrackPointExtension></extensions>
      </trkpt>
      <trkpt lat="59.047976" lon="17.31218">
        <ele>16.6</ele>
        <time>2020-03-26T12:11:59Z</time>
        <extensions><gpxtpx:TrackPointExtension><gpxtpx:hr>126</gpxtpx:hr></gpxtpx:TrackPointExtension></extensions>
      </trkpt>
      <trkpt lat="59.047969" lon="17.312294">
        <ele>16.4</ele>
        <time>2020-03-26T12:12:00Z</time>
        <extensions><gpxtpx:TrackPointExtension><gpxtpx:hr>126</gpxtpx:hr></gpxtpx:TrackPointExtension></extensions>
      </trkpt>
      <trkpt lat="59.04796" lon="17.31242">
        <ele>16.4</ele>
        <time>2020-03-26T12:12:01Z</time>
        <extensions><gpxtpx:TrackPointExtension><gpxtpx:hr>127</gpxtpx:hr></gpxtpx:TrackPointExtension></extensions>
      </trkpt>
      <trkpt lat="59.047962" lon="17.312557">
        <ele>16.4</ele>
        <time>2020-03-26T12:12:02Z</time>
        <extensions><gpxtpx:TrackPointExtension><gpxtpx:hr>127</gpxtpx:hr></gpxtpx:TrackPointExtension></extensions>
      </trkpt>
      <trkpt lat="59.047967" lon="17.312695">
        <ele>16.2</ele>
        <time>2020-03-26T12:12:03Z</time>
        <extensions><gpxtpx:TrackPointExtension><gpxtpx:hr>127</gpxtpx:hr></gpxtpx:TrackPointExtension></extensions>
      </trkpt>
      <trkpt lat="59.04797" lon="17.312823">
        <ele>16.2</ele>
        <time>2020-03-26T12:12:04Z</time>
        <extensions><gpxtpx:TrackPointExtension><gpxtpx:hr>127</gpxtpx:hr></gpxtpx:TrackPointExtension></extensions>
      </trkpt>
      <trkpt lat="59.047971" lon="17.312948">
        <ele>16</ele>
        <time>2020-03-26T12:12:05Z</time>
        <extensions><gpxtpx:TrackPointExtension><gpxtpx:hr>128</gpxtpx:hr></gpxtpx:TrackPointExtension></extensions>
      </trkpt>
      <trkpt lat="59.047973" lon="17.313073">
        <ele>16</ele>
        <time>2020-03-26T12:12:06Z</time>
        <extensions><gpxtpx:TrackPointExtension><gpxtpx:hr>128</gpxtpx:hr></gpxtpx:TrackPointExtension></extensions>
      </trkpt>
      <trkpt lat="59.047977" lon="17.3132">
        <ele>16</ele>
        <time>2020-03-26T12:12:07Z</time>
        <extensions><gpxtpx:TrackPointExtension><gpxtpx:hr>128</gpxtpx:hr></gpxtpx:TrackPointExtension></extensions>
      </trkpt>
      <trkpt lat="59.047982" lon="17.313326">
        <ele>16</ele>
        <time>2020-03-26T12:12:08Z</time>
        <extensions><gpxtpx:TrackPointExtension><gpxtpx:hr>129</gpxtpx:hr></gpxtpx:TrackPointExtension></extensions>
      </trkpt>
      <trkpt lat="59.047987" lon="17.313452">
        <ele>16</ele>
        <time>2020-03-26T12:12:09Z</time>
        <extensions><gpxtpx:TrackPointExtension><gpxtpx:hr>129</gpxtpx:hr></gpxtpx:TrackPointExtension></extensions>
      </trkpt>
      <trkpt lat="59.04799" lon="17.313578">
        <ele>16</ele>
        <time>2020-03-26T12:12:10Z</time>
        <extensions><gpxtpx:TrackPointExtension><gpxtpx:hr>130</gpxtpx:hr></gpxtpx:TrackPointExtension></extensions>
      </trkpt>
      <trkpt lat="59.047994" lon="17.313703">
        <ele>16</ele>
        <time>2020-03-26T12:12:11Z</time>
        <extensions><gpxtpx:TrackPointExtension><gpxtpx:hr>131</gpxtpx:hr></gpxtpx:TrackPointExtension></extensions>
      </trkpt>
      <trkpt lat="59.047998" lon="17.313829">
        <ele>16.2</ele>
        <time>2020-03-26T12:12:12Z</time>
        <extensions><gpxtpx:TrackPointExtension><gpxtpx:hr>132</gpxtpx:hr></gpxtpx:TrackPointExtension></extensions>
      </trkpt>
      <trkpt lat="59.048003" lon="17.313954">
        <ele>16.2</ele>
        <time>2020-03-26T12:12:13Z</time>
        <extensions><gpxtpx:TrackPointExtension><gpxtpx:hr>132</gpxtpx:hr></gpxtpx:TrackPointExtension></extensions>
      </trkpt>
      <trkpt lat="59.048007" lon="17.314077">
        <ele>16.4</ele>
        <time>2020-03-26T12:12:14Z</time>
        <extensions><gpxtpx:TrackPointExtension><gpxtpx:hr>134</gpxtpx:hr></gpxtpx:TrackPointExtension></extensions>
      </trkpt>
      <trkpt lat="59.048008" lon="17.314199">
        <ele>16.4</ele>
        <time>2020-03-26T12:12:15Z</time>
        <extensions><gpxtpx:TrackPointExtension><gpxtpx:hr>134</gpxtpx:hr></gpxtpx:TrackPointExtension></extensions>
      </trkpt>
      <trkpt lat="59.048011" lon="17.314321">
        <ele>16.6</ele>
        <time>2020-03-26T12:12:16Z</time>
        <extensions><gpxtpx:TrackPointExtension><gpxtpx:hr>135</gpxtpx:hr></gpxtpx:TrackPointExtension></extensions>
      </trkpt>
      <trkpt lat="59.048013" lon="17.31444">
        <ele>16.8</ele>
        <time>2020-03-26T12:12:17Z</time>
        <extensions><gpxtpx:TrackPointExtension><gpxtpx:hr>136</gpxtpx:hr></gpxtpx:TrackPointExtension></extensions>
      </trkpt>
      <trkpt lat="59.048012" lon="17.314557">
        <ele>16.8</ele>
        <time>2020-03-26T12:12:18Z</time>
        <extensions><gpxtpx:TrackPointExtension><gpxtpx:hr>137</gpxtpx:hr></gpxtpx:TrackPointExtension></extensions>
      </trkpt>
      <trkpt lat="59.048013" lon="17.314672">
        <ele>17</ele>
        <time>2020-03-26T12:12:19Z</time>
        <extensions><gpxtpx:TrackPointExtension><gpxtpx:hr>138</gpxtpx:hr></gpxtpx:TrackPointExtension></extensions>
      </trkpt>
      <trkpt lat="59.048012" lon="17.314786">
        <ele>17</ele>
        <time>2020-03-26T12:12:20Z</time>
        <extensions><gpxtpx:TrackPointExtension><gpxtpx:hr>138</gpxtpx:hr></gpxtpx:TrackPointExtension></extensions>
      </trkpt>
      <trkpt lat="59.048013" lon="17.3149">
        <ele>17</ele>
        <time>2020-03-26T12:12:21Z</time>
        <extensions><gpxtpx:TrackPointExtension><gpxtpx:hr>139</gpxtpx:hr></gpxtpx:TrackPointExtension></extensions>
      </trkpt>
      <trkpt lat="59.048012" lon="17.315013">
        <ele>17</ele>
        <time>2020-03-26T12:12:22Z</time>
        <extensions><gpxtpx:TrackPointExtension><gpxtpx:hr>139</gpxtpx:hr></gpxtpx:TrackPointExtension></extensions>
      </trkpt>
      <trkpt lat="59.048013" lon="17.315128">
        <ele>17</ele>
        <time>2020-03-26T12:12:23Z</time>
        <extensions><gpxtpx:TrackPointExtension><gpxtpx:hr>139</gpxtpx:hr></gpxtpx:TrackPointExtension></extensions>
      </trkpt>
      <trkpt lat="59.048013" lon="17.315244">
        <ele>17.4</ele>
        <time>2020-03-26T12:12:24Z</time>
        <extensions><gpxtpx:TrackPointExtension><gpxtpx:hr>140</gpxtpx:hr></gpxtpx:TrackPointExtension></extensions>
      </trkpt>
      <trkpt lat="59.048013" lon="17.315359">
        <ele>17.8</ele>
        <time>2020-03-26T12:12:25Z</time>
        <extensions><gpxtpx:TrackPointExtension><gpxtpx:hr>140</gpxtpx:hr></gpxtpx:TrackPointExtension></extensions>
      </trkpt>
      <trkpt lat="59.048012" lon="17.315471">
        <ele>18</ele>
        <time>2020-03-26T12:12:26Z</time>
        <extensions><gpxtpx:TrackPointExtension><gpxtpx:hr>140</gpxtpx:hr></gpxtpx:TrackPointExtension></extensions>
      </trkpt>
      <trkpt lat="59.048013" lon="17.31558">
        <ele>18.2</ele>
        <time>2020-03-26T12:12:27Z</time>
        <extensions><gpxtpx:TrackPointExtension><gpxtpx:hr>141</gpxtpx:hr></gpxtpx:TrackPointExtension></extensions>
      </trkpt>
      <trkpt lat="59.048014" lon="17.315687">
        <ele>18.4</ele>
        <time>2020-03-26T12:12:28Z</time>
        <extensions><gpxtpx:TrackPointExtension><gpxtpx:hr>141</gpxtpx:hr></gpxtpx:TrackPointExtension></extensions>
      </trkpt>
      <trkpt lat="59.048014" lon="17.315792">
        <ele>18.8</ele>
        <time>2020-03-26T12:12:29Z</time>
        <extensions><gpxtpx:TrackPointExtension><gpxtpx:hr>141</gpxtpx:hr></gpxtpx:TrackPointExtension></extensions>
      </trkpt>
      <trkpt lat="59.048012" lon="17.315894">
        <ele>19</ele>
        <time>2020-03-26T12:12:30Z</time>
        <extensions><gpxtpx:TrackPointExtension><gpxtpx:hr>141</gpxtpx:hr></gpxtpx:TrackPointExtension></extensions>
      </trkpt>
      <trkpt lat="59.048008" lon="17.315995">
        <ele>19.4</ele>
        <time>2020-03-26T12:12:31Z</time>
        <extensions><gpxtpx:TrackPointExtension><gpxtpx:hr>142</gpxtpx:hr></gpxtpx:TrackPointExtension></extensions>
      </trkpt>
      <trkpt lat="59.048003" lon="17.316097">
        <ele>19.6</ele>
        <time>2020-03-26T12:12:32Z</time>
        <extensions><gpxtpx:TrackPointExtension><gpxtpx:hr>142</gpxtpx:hr></gpxtpx:TrackPointExtension></extensions>
      </trkpt>
      <trkpt lat="59.047997" lon="17.316198">
        <ele>19.8</ele>
        <time>2020-03-26T12:12:33Z</time>
        <extensions><gpxtpx:TrackPointExtension><gpxtpx:hr>142</gpxtpx:hr></gpxtpx:TrackPointExtension></extensions>
      </trkpt>
      <trkpt lat="59.047995" lon="17.316297">
        <ele>20</ele>
        <time>2020-03-26T12:12:34Z</time>
        <extensions><gpxtpx:TrackPointExtension><gpxtpx:hr>142</gpxtpx:hr></gpxtpx:TrackPointExtension></extensions>
      </trkpt>
      <trkpt lat="59.04799" lon="17.316393">
        <ele>20.4</ele>
        <time>2020-03-26T12:12:35Z</time>
        <extensions><gpxtpx:TrackPointExtension><gpxtpx:hr>142</gpxtpx:hr></gpxtpx:TrackPointExtension></extensions>
      </trkpt>
      <trkpt lat="59.047983" lon="17.316491">
        <ele>20.8</ele>
        <time>2020-03-26T12:12:36Z</time>
        <extensions><gpxtpx:TrackPointExtension><gpxtpx:hr>143</gpxtpx:hr></gpxtpx:TrackPointExtension></extensions>
      </trkpt>
      <trkpt lat="59.047976" lon="17.31659">
        <ele>21.2</ele>
        <time>2020-03-26T12:12:37Z</time>
        <extensions><gpxtpx:TrackPointExtension><gpxtpx:hr>143</gpxtpx:hr></gpxtpx:TrackPointExtension></extensions>
      </trkpt>
      <trkpt lat="59.04797" lon="17.316691">
        <ele>21.6</ele>
        <time>2020-03-26T12:12:38Z</time>
        <extensions><gpxtpx:TrackPointExtension><gpxtpx:hr>143</gpxtpx:hr></gpxtpx:TrackPointExtension></extensions>
      </trkpt>
      <trkpt lat="59.047967" lon="17.316793">
        <ele>21.8</ele>
        <time>2020-03-26T12:12:39Z</time>
        <extensions><gpxtpx:TrackPointExtension><gpxtpx:hr>143</gpxtpx:hr></gpxtpx:TrackPointExtension></extensions>
      </trkpt>
      <trkpt lat="59.047966" lon="17.316896">
        <ele>22</ele>
        <time>2020-03-26T12:12:40Z</time>
        <extensions><gpxtpx:TrackPointExtension><gpxtpx:hr>144</gpxtpx:hr></gpxtpx:TrackPointExtension></extensions>
      </trkpt>
      <trkpt lat="59.047964" lon="17.316997">
        <ele>22.2</ele>
        <time>2020-03-26T12:12:41Z</time>
        <extensions><gpxtpx:TrackPointExtension><gpxtpx:hr>144</gpxtpx:hr></gpxtpx:TrackPointExtension></extensions>
      </trkpt>
      <trkpt lat="59.047963" lon="17.317098">
        <ele>22.2</ele>
        <time>2020-03-26T12:12:42Z</time>
        <extensions><gpxtpx:TrackPointExtension><gpxtpx:hr>144</gpxtpx:hr></gpxtpx:TrackPointExtension></extensions>
      </trkpt>
      <trkpt lat="59.047961" lon="17.317198">
        <ele>22.4</ele>
        <time>2020-03-26T12:12:43Z</time>
        <extensions><gpxtpx:TrackPointExtension><gpxtpx:hr>144</gpxtpx:hr></gpxtpx:TrackPointExtension></extensions>
      </trkpt>
      <trkpt lat="59.047957" lon="17.3173">
        <ele>22.8</ele>
        <time>2020-03-26T12:12:44Z</time>
        <extensions><gpxtpx:TrackPointExtension><gpxtpx:hr>144</gpxtpx:hr></gpxtpx:TrackPointExtension></extensions>
      </trkpt>
      <trkpt lat="59.047954" lon="17.317405">
        <ele>23</ele>
        <time>2020-03-26T12:12:45Z</time>
        <extensions><gpxtpx:TrackPointExtension><gpxtpx:hr>144</gpxtpx:hr></gpxtpx:TrackPointExtension></extensions>
      </trkpt>
      <trkpt lat="59.047949" lon="17.317508">
        <ele>23.2</ele>
        <time>2020-03-26T12:12:46Z</time>
        <extensions><gpxtpx:TrackPointExtension><gpxtpx:hr>144</gpxtpx:hr></gpxtpx:TrackPointExtension></extensions>
      </trkpt>
      <trkpt lat="59.047944" lon="17.317611">
        <ele>23.2</ele>
        <time>2020-03-26T12:12:47Z</time>
        <extensions><gpxtpx:TrackPointExtension><gpxtpx:hr>144</gpxtpx:hr></gpxtpx:TrackPointExtension></extensions>
      </trkpt>
      <trkpt lat="59.047936" lon="17.317712">
        <ele>23.2</ele>
        <time>2020-03-26T12:12:48Z</time>
        <extensions><gpxtpx:TrackPointExtension><gpxtpx:hr>144</gpxtpx:hr></gpxtpx:TrackPointExtension></extensions>
      </trkpt>
      <trkpt lat="59.047924" lon="17.317813">
        <ele>23.4</ele>
        <time>2020-03-26T12:12:49Z</time>
        <extensions><gpxtpx:TrackPointExtension><gpxtpx:hr>144</gpxtpx:hr></gpxtpx:TrackPointExtension></extensions>
      </trkpt>
      <trkpt lat="59.04791" lon="17.317914">
        <ele>23.6</ele>
        <time>2020-03-26T12:12:50Z</time>
        <extensions><gpxtpx:TrackPointExtension><gpxtpx:hr>144</gpxtpx:hr></gpxtpx:TrackPointExtension></extensions>
      </trkpt>
      <trkpt lat="59.047897" lon="17.318017">
        <ele>23.8</ele>
        <time>2020-03-26T12:12:51Z</time>
        <extensions><gpxtpx:TrackPointExtension><gpxtpx:hr>145</gpxtpx:hr></gpxtpx:TrackPointExtension></extensions>
      </trkpt>
      <trkpt lat="59.04788" lon="17.318122">
        <ele>24</ele>
        <time>2020-03-26T12:12:52Z</time>
        <extensions><gpxtpx:TrackPointExtension><gpxtpx:hr>145</gpxtpx:hr></gpxtpx:TrackPointExtension></extensions>
      </trkpt>
      <trkpt lat="59.047863" lon="17.318229">
        <ele>24.2</ele>
        <time>2020-03-26T12:12:53Z</time>
        <extensions><gpxtpx:TrackPointExtension><gpxtpx:hr>145</gpxtpx:hr></gpxtpx:TrackPointExtension></extensions>
      </trkpt>
      <trkpt lat="59.047844" lon="17.318338">
        <ele>24.4</ele>
        <time>2020-03-26T12:12:54Z</time>
        <extensions><gpxtpx:TrackPointExtension><gpxtpx:hr>145</gpxtpx:hr></gpxtpx:TrackPointExtension></extensions>
      </trkpt>
      <trkpt lat="59.047824" lon="17.31845">
        <ele>24.6</ele>
        <time>2020-03-26T12:12:55Z</time>
        <extensions><gpxtpx:TrackPointExtension><gpxtpx:hr>146</gpxtpx:hr></gpxtpx:TrackPointExtension></extensions>
      </trkpt>
      <trkpt lat="59.047802" lon="17.318563">
        <ele>24.8</ele>
        <time>2020-03-26T12:12:56Z</time>
        <extensions><gpxtpx:TrackPointExtension><gpxtpx:hr>146</gpxtpx:hr></gpxtpx:TrackPointExtension></extensions>
      </trkpt>
      <trkpt lat="59.047777" lon="17.318677">
        <ele>24.8</ele>
        <time>2020-03-26T12:12:57Z</time>
        <extensions><gpxtpx:TrackPointExtension><gpxtpx:hr>146</gpxtpx:hr></gpxtpx:TrackPointExtension></extensions>
      </trkpt>
      <trkpt lat="59.047748" lon="17.318793">
        <ele>24.8</ele>
        <time>2020-03-26T12:12:58Z</time>
        <extensions><gpxtpx:TrackPointExtension><gpxtpx:hr>146</gpxtpx:hr></gpxtpx:TrackPointExtension></extensions>
      </trkpt>
      <trkpt lat="59.047716" lon="17.318909">
        <ele>24.8</ele>
        <time>2020-03-26T12:12:59Z</time>
        <extensions><gpxtpx:TrackPointExtension><gpxtpx:hr>146</gpxtpx:hr></gpxtpx:TrackPointExtension></extensions>
      </trkpt>
      <trkpt lat="59.04768" lon="17.319024">
        <ele>24.8</ele>
        <time>2020-03-26T12:13:00Z</time>
        <extensions><gpxtpx:TrackPointExtension><gpxtpx:hr>146</gpxtpx:hr></gpxtpx:TrackPointExtension></extensions>
      </trkpt>
      <trkpt lat="59.047639" lon="17.319141">
        <ele>24.8</ele>
        <time>2020-03-26T12:13:01Z</time>
        <extensions><gpxtpx:TrackPointExtension><gpxtpx:hr>146</gpxtpx:hr></gpxtpx:TrackPointExtension></extensions>
      </trkpt>
      <trkpt lat="59.047592" lon="17.319257">
        <ele>24.8</ele>
        <time>2020-03-26T12:13:02Z</time>
        <extensions><gpxtpx:TrackPointExtension><gpxtpx:hr>145</gpxtpx:hr></gpxtpx:TrackPointExtension></extensions>
      </trkpt>
      <trkpt lat="59.047537" lon="17.31937">
        <ele>24.8</ele>
        <time>2020-03-26T12:13:03Z</time>
        <extensions><gpxtpx:TrackPointExtension><gpxtpx:hr>145</gpxtpx:hr></gpxtpx:TrackPointExtension></extensions>
      </trkpt>
      <trkpt lat="59.047476" lon="17.319481">
        <ele>24.8</ele>
        <time>2020-03-26T12:13:04Z</time>
        <extensions><gpxtpx:TrackPointExtension><gpxtpx:hr>145</gpxtpx:hr></gpxtpx:TrackPointExtension></extensions>
      </trkpt>
      <trkpt lat="59.04741" lon="17.31959">
        <ele>24.8</ele>
        <time>2020-03-26T12:13:05Z</time>
        <extensions><gpxtpx:TrackPointExtension><gpxtpx:hr>144</gpxtpx:hr></gpxtpx:TrackPointExtension></extensions>
      </trkpt>
      <trkpt lat="59.047339" lon="17.319699">
        <ele>24.8</ele>
        <time>2020-03-26T12:13:06Z</time>
        <extensions><gpxtpx:TrackPointExtension><gpxtpx:hr>144</gpxtpx:hr></gpxtpx:TrackPointExtension></extensions>
      </trkpt>
      <trkpt lat="59.047264" lon="17.319809">
        <ele>24.6</ele>
        <time>2020-03-26T12:13:07Z</time>
        <extensions><gpxtpx:TrackPointExtension><gpxtpx:hr>143</gpxtpx:hr></gpxtpx:TrackPointExtension></extensions>
      </trkpt>
      <trkpt lat="59.047188" lon="17.319922">
        <ele>24.4</ele>
        <time>2020-03-26T12:13:08Z</time>
        <extensions><gpxtpx:TrackPointExtension><gpxtpx:hr>142</gpxtpx:hr></gpxtpx:TrackPointExtension></extensions>
      </trkpt>
      <trkpt lat="59.04711" lon="17.320038">
        <ele>24</ele>
        <time>2020-03-26T12:13:09Z</time>
        <extensions><gpxtpx:TrackPointExtension><gpxtpx:hr>142</gpxtpx:hr></gpxtpx:TrackPointExtension></extensions>
      </trkpt>
      <trkpt lat="59.047031" lon="17.320156">
        <ele>23.8</ele>
        <time>2020-03-26T12:13:10Z</time>
        <extensions><gpxtpx:TrackPointExtension><gpxtpx:hr>141</gpxtpx:hr></gpxtpx:TrackPointExtension></extensions>
      </trkpt>
      <trkpt lat="59.046952" lon="17.320278">
        <ele>23.2</ele>
        <time>2020-03-26T12:13:11Z</time>
        <extensions><gpxtpx:TrackPointExtension><gpxtpx:hr>141</gpxtpx:hr></gpxtpx:TrackPointExtension></extensions>
      </trkpt>
      <trkpt lat="59.046871" lon="17.320401">
        <ele>22.6</ele>
        <time>2020-03-26T12:13:12Z</time>
        <extensions><gpxtpx:TrackPointExtension><gpxtpx:hr>140</gpxtpx:hr></gpxtpx:TrackPointExtension></extensions>
      </trkpt>
      <trkpt lat="59.046789" lon="17.320524">
        <ele>22.2</ele>
        <time>2020-03-26T12:13:13Z</time>
        <extensions><gpxtpx:TrackPointExtension><gpxtpx:hr>140</gpxtpx:hr></gpxtpx:TrackPointExtension></extensions>
      </trkpt>
      <trkpt lat="59.046708" lon="17.320646">
        <ele>21.6</ele>
        <time>2020-03-26T12:13:14Z</time>
        <extensions><gpxtpx:TrackPointExtension><gpxtpx:hr>140</gpxtpx:hr></gpxtpx:TrackPointExtension></extensions>
      </trkpt>
      <trkpt lat="59.046628" lon="17.320766">
        <ele>20.8</ele>
        <time>2020-03-26T12:13:15Z</time>
        <extensions><gpxtpx:TrackPointExtension><gpxtpx:hr>139</gpxtpx:hr></gpxtpx:TrackPointExtension></extensions>
      </trkpt>
      <trkpt lat="59.046549" lon="17.320884">
        <ele>20</ele>
        <time>2020-03-26T12:13:16Z</time>
        <extensions><gpxtpx:TrackPointExtension><gpxtpx:hr>138</gpxtpx:hr></gpxtpx:TrackPointExtension></extensions>
      </trkpt>
      <trkpt lat="59.046472" lon="17.320997">
        <ele>19.6</ele>
        <time>2020-03-26T12:13:17Z</time>
        <extensions><gpxtpx:TrackPointExtension><gpxtpx:hr>137</gpxtpx:hr></gpxtpx:TrackPointExtension></extensions>
      </trkpt>
      <trkpt lat="59.046396" lon="17.321107">
        <ele>19.2</ele>
        <time>2020-03-26T12:13:18Z</time>
        <extensions><gpxtpx:TrackPointExtension><gpxtpx:hr>135</gpxtpx:hr></gpxtpx:TrackPointExtension></extensions>
      </trkpt>
      <trkpt lat="59.046321" lon="17.321216">
        <ele>19</ele>
        <time>2020-03-26T12:13:19Z</time>
        <extensions><gpxtpx:TrackPointExtension><gpxtpx:hr>133</gpxtpx:hr></gpxtpx:TrackPointExtension></extensions>
      </trkpt>
      <trkpt lat="59.046246" lon="17.321324">
        <ele>18.6</ele>
        <time>2020-03-26T12:13:20Z</time>
        <extensions><gpxtpx:TrackPointExtension><gpxtpx:hr>131</gpxtpx:hr></gpxtpx:TrackPointExtension></extensions>
      </trkpt>
      <trkpt lat="59.046171" lon="17.321432">
        <ele>18</ele>
        <time>2020-03-26T12:13:21Z</time>
        <extensions><gpxtpx:TrackPointExtension><gpxtpx:hr>130</gpxtpx:hr></gpxtpx:TrackPointExtension></extensions>
      </trkpt>
      <trkpt lat="59.046097" lon="17.321541">
        <ele>17.2</ele>
        <time>2020-03-26T12:13:22Z</time>
        <extensions><gpxtpx:TrackPointExtension><gpxtpx:hr>129</gpxtpx:hr></gpxtpx:TrackPointExtension></extensions>
      </trkpt>
      <trkpt lat="59.046023" lon="17.32165">
        <ele>16.6</ele>
        <time>2020-03-26T12:13:23Z</time>
        <extensions><gpxtpx:TrackPointExtension><gpxtpx:hr>130</gpxtpx:hr></gpxtpx:TrackPointExtension></extensions>
      </trkpt>
      <trkpt lat="59.04595" lon="17.321756">
        <ele>16.2</ele>
        <time>2020-03-26T12:13:24Z</time>
        <extensions><gpxtpx:TrackPointExtension><gpxtpx:hr>131</gpxtpx:hr></gpxtpx:TrackPointExtension></extensions>
      </trkpt>
      <trkpt lat="59.045878" lon="17.321862">
        <ele>16.2</ele>
        <time>2020-03-26T12:13:25Z</time>
        <extensions><gpxtpx:TrackPointExtension><gpxtpx:hr>132</gpxtpx:hr></gpxtpx:TrackPointExtension></extensions>
      </trkpt>
      <trkpt lat="59.045804" lon="17.321965">
        <ele>16</ele>
        <time>2020-03-26T12:13:26Z</time>
        <extensions><gpxtpx:TrackPointExtension><gpxtpx:hr>133</gpxtpx:hr></gpxtpx:TrackPointExtension></extensions>
      </trkpt>
      <trkpt lat="59.04573" lon="17.322065">
        <ele>16</ele>
        <time>2020-03-26T12:13:27Z</time>
        <extensions><gpxtpx:TrackPointExtension><gpxtpx:hr>134</gpxtpx:hr></gpxtpx:TrackPointExtension></extensions>
      </trkpt>
      <trkpt lat="59.045656" lon="17.322162">
        <ele>16</ele>
        <time>2020-03-26T12:13:28Z</time>
        <extensions><gpxtpx:TrackPointExtension><gpxtpx:hr>134</gpxtpx:hr></gpxtpx:TrackPointExtension></extensions>
      </trkpt>
      <trkpt lat="59.045583" lon="17.322261">
        <ele>16</ele>
        <time>2020-03-26T12:13:29Z</time>
        <extensions><gpxtpx:TrackPointExtension><gpxtpx:hr>135</gpxtpx:hr></gpxtpx:TrackPointExtension></extensions>
      </trkpt>
      <trkpt lat="59.045514" lon="17.322364">
        <ele>16</ele>
        <time>2020-03-26T12:13:30Z</time>
        <extensions><gpxtpx:TrackPointExtension><gpxtpx:hr>135</gpxtpx:hr></gpxtpx:TrackPointExtension></extensions>
      </trkpt>
      <trkpt lat="59.045446" lon="17.322472">
        <ele>16</ele>
        <time>2020-03-26T12:13:31Z</time>
        <extensions><gpxtpx:TrackPointExtension><gpxtpx:hr>135</gpxtpx:hr></gpxtpx:TrackPointExtension></extensions>
      </trkpt>
      <trkpt lat="59.045383" lon="17.322581">
        <ele>16</ele>
        <time>2020-03-26T12:13:32Z</time>
        <extensions><gpxtpx:TrackPointExtension><gpxtpx:hr>135</gpxtpx:hr></gpxtpx:TrackPointExtension></extensions>
      </trkpt>
      <trkpt lat="59.045322" lon="17.322686">
        <ele>16</ele>
        <time>2020-03-26T12:13:33Z</time>
        <extensions><gpxtpx:TrackPointExtension><gpxtpx:hr>135</gpxtpx:hr></gpxtpx:TrackPointExtension></extensions>
      </trkpt>
      <trkpt lat="59.045261" lon="17.322782">
        <ele>16.2</ele>
        <time>2020-03-26T12:13:34Z</time>
        <extensions><gpxtpx:TrackPointExtension><gpxtpx:hr>135</gpxtpx:hr></gpxtpx:TrackPointExtension></extensions>
      </trkpt>
      <trkpt lat="59.045201" lon="17.322871">
        <ele>16.4</ele>
        <time>2020-03-26T12:13:35Z</time>
        <extensions><gpxtpx:TrackPointExtension><gpxtpx:hr>135</gpxtpx:hr></gpxtpx:TrackPointExtension></extensions>
      </trkpt>
      <trkpt lat="59.045142" lon="17.322958">
        <ele>16.4</ele>
        <time>2020-03-26T12:13:36Z</time>
        <extensions><gpxtpx:TrackPointExtension><gpxtpx:hr>135</gpxtpx:hr></gpxtpx:TrackPointExtension></extensions>
      </trkpt>
      <trkpt lat="59.045083" lon="17.323049">
        <ele>16.6</ele>
        <time>2020-03-26T12:13:37Z</time>
        <extensions><gpxtpx:TrackPointExtension><gpxtpx:hr>135</gpxtpx:hr></gpxtpx:TrackPointExtension></extensions>
      </trkpt>
      <trkpt lat="59.045024" lon="17.323138">
        <ele>16.6</ele>
        <time>2020-03-26T12:13:38Z</time>
        <extensions><gpxtpx:TrackPointExtension><gpxtpx:hr>136</gpxtpx:hr></gpxtpx:TrackPointExtension></extensions>
      </trkpt>
      <trkpt lat="59.044962" lon="17.323228">
        <ele>16.6</ele>
        <time>2020-03-26T12:13:39Z</time>
        <extensions><gpxtpx:TrackPointExtension><gpxtpx:hr>136</gpxtpx:hr></gpxtpx:TrackPointExtension></extensions>
      </trkpt>
      <trkpt lat="59.044901" lon="17.323319">
        <ele>16.6</ele>
        <time>2020-03-26T12:13:40Z</time>
        <extensions><gpxtpx:TrackPointExtension><gpxtpx:hr>136</gpxtpx:hr></gpxtpx:TrackPointExtension></extensions>
      </trkpt>
      <trkpt lat="59.044838" lon="17.323411">
        <ele>16.6</ele>
        <time>2020-03-26T12:13:41Z</time>
        <extensions><gpxtpx:TrackPointExtension><gpxtpx:hr>137</gpxtpx:hr></gpxtpx:TrackPointExtension></extensions>
      </trkpt>
      <trkpt lat="59.044775" lon="17.323509">
        <ele>16.8</ele>
        <time>2020-03-26T12:13:42Z</time>
        <extensions><gpxtpx:TrackPointExtension><gpxtpx:hr>137</gpxtpx:hr></gpxtpx:TrackPointExtension></extensions>
      </trkpt>
      <trkpt lat="59.044711" lon="17.323606">
        <ele>16.8</ele>
        <time>2020-03-26T12:13:43Z</time>
        <extensions><gpxtpx:TrackPointExtension><gpxtpx:hr>137</gpxtpx:hr></gpxtpx:TrackPointExtension></extensions>
      </trkpt>
      <trkpt lat="59.044647" lon="17.323699">
        <ele>16.8</ele>
        <time>2020-03-26T12:13:44Z</time>
        <extensions><gpxtpx:TrackPointExtension><gpxtpx:hr>136</gpxtpx:hr></gpxtpx:TrackPointExtension></extensions>
      </trkpt>
      <trkpt lat="59.044585" lon="17.323793">
        <ele>16.8</ele>
        <time>2020-03-26T12:13:45Z</time>
        <extensions><gpxtpx:TrackPointExtension><gpxtpx:hr>136</gpxtpx:hr></gpxtpx:TrackPointExtension></extensions>
      </trkpt>
      <trkpt lat="59.044523" lon="17.323888">
        <ele>17</ele>
        <time>2020-03-26T12:13:46Z</time>
        <extensions><gpxtpx:TrackPointExtension><gpxtpx:hr>136</gpxtpx:hr></gpxtpx:TrackPointExtension></extensions>
      </trkpt>
      <trkpt lat="59.044461" lon="17.323982">
        <ele>17</ele>
        <time>2020-03-26T12:13:47Z</time>
        <extensions><gpxtpx:TrackPointExtension><gpxtpx:hr>136</gpxtpx:hr></gpxtpx:TrackPointExtension></extensions>
      </trkpt>
      <trkpt lat="59.044396" lon="17.324074">
        <ele>17.2</ele>
        <time>2020-03-26T12:13:48Z</time>
        <extensions><gpxtpx:TrackPointExtension><gpxtpx:hr>137</gpxtpx:hr></gpxtpx:TrackPointExtension></extensions>
      </trkpt>
      <trkpt lat="59.044333" lon="17.324163">
        <ele>17.4</ele>
        <time>2020-03-26T12:13:49Z</time>
        <extensions><gpxtpx:TrackPointExtension><gpxtpx:hr>138</gpxtpx:hr></gpxtpx:TrackPointExtension></extensions>
      </trkpt>
      <trkpt lat="59.044272" lon="17.324252">
        <ele>17.4</ele>
        <time>2020-03-26T12:13:50Z</time>
        <extensions><gpxtpx:TrackPointExtension><gpxtpx:hr>138</gpxtpx:hr></gpxtpx:TrackPointExtension></extensions>
      </trkpt>
      <trkpt lat="59.044211" lon="17.324336">
        <ele>17.6</ele>
        <time>2020-03-26T12:13:51Z</time>
        <extensions><gpxtpx:TrackPointExtension><gpxtpx:hr>138</gpxtpx:hr></gpxtpx:TrackPointExtension></extensions>
      </trkpt>
      <trkpt lat="59.04415" lon="17.324414">
        <ele>17.6</ele>
        <time>2020-03-26T12:13:52Z</time>
        <extensions><gpxtpx:TrackPointExtension><gpxtpx:hr>139</gpxtpx:hr></gpxtpx:TrackPointExtension></extensions>
      </trkpt>
      <trkpt lat="59.044089" lon="17.324487">
        <ele>17.6</ele>
        <time>2020-03-26T12:13:53Z</time>
        <extensions><gpxtpx:TrackPointExtension><gpxtpx:hr>139</gpxtpx:hr></gpxtpx:TrackPointExtension></extensions>
      </trkpt>
      <trkpt lat="59.044028" lon="17.324555">
        <ele>17.8</ele>
        <time>2020-03-26T12:13:54Z</time>
        <extensions><gpxtpx:TrackPointExtension><gpxtpx:hr>138</gpxtpx:hr></gpxtpx:TrackPointExtension></extensions>
      </trkpt>
      <trkpt lat="59.043966" lon="17.324619">
        <ele>17.8</ele>
        <time>2020-03-26T12:13:55Z</time>
        <extensions><gpxtpx:TrackPointExtension><gpxtpx:hr>138</gpxtpx:hr></gpxtpx:TrackPointExtension></extensions>
      </trkpt>
      <trkpt lat="59.043904" lon="17.324679">
        <ele>17.8</ele>
        <time>2020-03-26T12:13:56Z</time>
        <extensions><gpxtpx:TrackPointExtension><gpxtpx:hr>138</gpxtpx:hr></gpxtpx:TrackPointExtension></extensions>
      </trkpt>
      <trkpt lat="59.043845" lon="17.324742">
        <ele>17.8</ele>
        <time>2020-03-26T12:13:57Z</time>
        <extensions><gpxtpx:TrackPointExtension><gpxtpx:hr>138</gpxtpx:hr></gpxtpx:TrackPointExtension></extensions>
      </trkpt>
      <trkpt lat="59.043791" lon="17.324817">
        <ele>18</ele>
        <time>2020-03-26T12:13:58Z</time>
        <extensions><gpxtpx:TrackPointExtension><gpxtpx:hr>138</gpxtpx:hr></gpxtpx:TrackPointExtension></extensions>
      </trkpt>
      <trkpt lat="59.043753" lon="17.324915">
        <ele>18</ele>
        <time>2020-03-26T12:13:59Z</time>
        <extensions><gpxtpx:TrackPointExtension><gpxtpx:hr>137</gpxtpx:hr></gpxtpx:TrackPointExtension></extensions>
      </trkpt>
      <trkpt lat="59.043736" lon="17.325031">
        <ele>18</ele>
        <time>2020-03-26T12:14:00Z</time>
        <extensions><gpxtpx:TrackPointExtension><gpxtpx:hr>136</gpxtpx:hr></gpxtpx:TrackPointExtension></extensions>
      </trkpt>
      <trkpt lat="59.043739" lon="17.325166">
        <ele>18</ele>
        <time>2020-03-26T12:14:01Z</time>
        <extensions><gpxtpx:TrackPointExtension><gpxtpx:hr>134</gpxtpx:hr></gpxtpx:TrackPointExtension></extensions>
      </trkpt>
      <trkpt lat="59.043757" lon="17.325309">
        <ele>17.8</ele>
        <time>2020-03-26T12:14:02Z</time>
        <extensions><gpxtpx:TrackPointExtension><gpxtpx:hr>132</gpxtpx:hr></gpxtpx:TrackPointExtension></extensions>
      </trkpt>
      <trkpt lat="59.043783" lon="17.325456">
        <ele>17.8</ele>
        <time>2020-03-26T12:14:03Z</time>
        <extensions><gpxtpx:TrackPointExtension><gpxtpx:hr>130</gpxtpx:hr></gpxtpx:TrackPointExtension></extensions>
      </trkpt>
      <trkpt lat="59.043814" lon="17.32561">
        <ele>17.8</ele>
        <time>2020-03-26T12:14:04Z</time>
        <extensions><gpxtpx:TrackPointExtension><gpxtpx:hr>128</gpxtpx:hr></gpxtpx:TrackPointExtension></extensions>
      </trkpt>
      <trkpt lat="59.043846" lon="17.325774">
        <ele>17.8</ele>
        <time>2020-03-26T12:14:05Z</time>
        <extensions><gpxtpx:TrackPointExtension><gpxtpx:hr>128</gpxtpx:hr></gpxtpx:TrackPointExtension></extensions>
      </trkpt>
      <trkpt lat="59.043873" lon="17.325938">
        <ele>17.8</ele>
        <time>2020-03-26T12:14:06Z</time>
        <extensions><gpxtpx:TrackPointExtension><gpxtpx:hr>129</gpxtpx:hr></gpxtpx:TrackPointExtension></extensions>
      </trkpt>
      <trkpt lat="59.043898" lon="17.326094">
        <ele>17.8</ele>
        <time>2020-03-26T12:14:07Z</time>
        <extensions><gpxtpx:TrackPointExtension><gpxtpx:hr>129</gpxtpx:hr></gpxtpx:TrackPointExtension></extensions>
      </trkpt>
      <trkpt lat="59.043922" lon="17.326242">
        <ele>17.8</ele>
        <time>2020-03-26T12:14:08Z</time>
        <extensions><gpxtpx:TrackPointExtension><gpxtpx:hr>130</gpxtpx:hr></gpxtpx:TrackPointExtension></extensions>
      </trkpt>
      <trkpt lat="59.043944" lon="17.326384">
        <ele>17.8</ele>
        <time>2020-03-26T12:14:09Z</time>
        <extensions><gpxtpx:TrackPointExtension><gpxtpx:hr>130</gpxtpx:hr></gpxtpx:TrackPointExtension></extensions>
      </trkpt>
      <trkpt lat="59.043965" lon="17.326527">
        <ele>17.6</ele>
        <time>2020-03-26T12:14:10Z</time>
        <extensions><gpxtpx:TrackPointExtension><gpxtpx:hr>130</gpxtpx:hr></gpxtpx:TrackPointExtension></extensions>
      </trkpt>
      <trkpt lat="59.043988" lon="17.326676">
        <ele>17.2</ele>
        <time>2020-03-26T12:14:11Z</time>
        <extensions><gpxtpx:TrackPointExtension><gpxtpx:hr>130</gpxtpx:hr></gpxtpx:TrackPointExtension></extensions>
      </trkpt>
      <trkpt lat="59.044012" lon="17.326831">
        <ele>16.6</ele>
        <time>2020-03-26T12:14:12Z</time>
        <extensions><gpxtpx:TrackPointExtension><gpxtpx:hr>129</gpxtpx:hr></gpxtpx:TrackPointExtension></extensions>
      </trkpt>
      <trkpt lat="59.044036" lon="17.326989">
        <ele>16.2</ele>
        <time>2020-03-26T12:14:13Z</time>
        <extensions><gpxtpx:TrackPointExtension><gpxtpx:hr>129</gpxtpx:hr></gpxtpx:TrackPointExtension></extensions>
      </trkpt>
      <trkpt lat="59.04406" lon="17.327147">
        <ele>16</ele>
        <time>2020-03-26T12:14:14Z</time>
        <extensions><gpxtpx:TrackPointExtension><gpxtpx:hr>128</gpxtpx:hr></gpxtpx:TrackPointExtension></extensions>
      </trkpt>
      <trkpt lat="59.044085" lon="17.327306">
        <ele>16</ele>
        <time>2020-03-26T12:14:15Z</time>
        <extensions><gpxtpx:TrackPointExtension><gpxtpx:hr>128</gpxtpx:hr></gpxtpx:TrackPointExtension></extensions>
      </trkpt>
      <trkpt lat="59.044111" lon="17.327466">
        <ele>15.8</ele>
        <time>2020-03-26T12:14:16Z</time>
        <extensions><gpxtpx:TrackPointExtension><gpxtpx:hr>127</gpxtpx:hr></gpxtpx:TrackPointExtension></extensions>
      </trkpt>
      <trkpt lat="59.044137" lon="17.327626">
        <ele>15.8</ele>
        <time>2020-03-26T12:14:17Z</time>
        <extensions><gpxtpx:TrackPointExtension><gpxtpx:hr>127</gpxtpx:hr></gpxtpx:TrackPointExtension></extensions>
      </trkpt>
      <trkpt lat="59.044162" lon="17.327785">
        <ele>15.6</ele>
        <time>2020-03-26T12:14:18Z</time>
        <extensions><gpxtpx:TrackPointExtension><gpxtpx:hr>126</gpxtpx:hr></gpxtpx:TrackPointExtension></extensions>
      </trkpt>
      <trkpt lat="59.044186" lon="17.327943">
        <ele>15.6</ele>
        <time>2020-03-26T12:14:19Z</time>
        <extensions><gpxtpx:TrackPointExtension><gpxtpx:hr>126</gpxtpx:hr></gpxtpx:TrackPointExtension></extensions>
      </trkpt>
      <trkpt lat="59.044209" lon="17.328103">
        <ele>15.2</ele>
        <time>2020-03-26T12:14:20Z</time>
        <extensions><gpxtpx:TrackPointExtension><gpxtpx:hr>126</gpxtpx:hr></gpxtpx:TrackPointExtension></extensions>
      </trkpt>
      <trkpt lat="59.044231" lon="17.328261">
        <ele>15</ele>
        <time>2020-03-26T12:14:21Z</time>
        <extensions><gpxtpx:TrackPointExtension><gpxtpx:hr>127</gpxtpx:hr></gpxtpx:TrackPointExtension></extensions>
      </trkpt>
      <trkpt lat="59.044254" lon="17.328423">
        <ele>14.8</ele>
        <time>2020-03-26T12:14:22Z</time>
        <extensions><gpxtpx:TrackPointExtension><gpxtpx:hr>127</gpxtpx:hr></gpxtpx:TrackPointExtension></extensions>
      </trkpt>
      <trkpt lat="59.044278" lon="17.328586">
        <ele>14.8</ele>
        <time>2020-03-26T12:14:23Z</time>
        <extensions><gpxtpx:TrackPointExtension><gpxtpx:hr>128</gpxtpx:hr></gpxtpx:TrackPointExtension></extensions>
      </trkpt>
      <trkpt lat="59.044302" lon="17.328753">
        <ele>14.8</ele>
        <time>2020-03-26T12:14:24Z</time>
        <extensions><gpxtpx:TrackPointExtension><gpxtpx:hr>129</gpxtpx:hr></gpxtpx:TrackPointExtension></extensions>
      </trkpt>
      <trkpt lat="59.044328" lon="17.328922">
        <ele>14.8</ele>
        <time>2020-03-26T12:14:25Z</time>
        <extensions><gpxtpx:TrackPointExtension><gpxtpx:hr>129</gpxtpx:hr></gpxtpx:TrackPointExtension></extensions>
      </trkpt>
      <trkpt lat="59.044352" lon="17.329091">
        <ele>14.6</ele>
        <time>2020-03-26T12:14:26Z</time>
        <extensions><gpxtpx:TrackPointExtension><gpxtpx:hr>130</gpxtpx:hr></gpxtpx:TrackPointExtension></extensions>
      </trkpt>
      <trkpt lat="59.044377" lon="17.329259">
        <ele>14.6</ele>
        <time>2020-03-26T12:14:27Z</time>
        <extensions><gpxtpx:TrackPointExtension><gpxtpx:hr>131</gpxtpx:hr></gpxtpx:TrackPointExtension></extensions>
      </trkpt>
      <trkpt lat="59.044404" lon="17.329424">
        <ele>14.6</ele>
        <time>2020-03-26T12:14:28Z</time>
        <extensions><gpxtpx:TrackPointExtension><gpxtpx:hr>131</gpxtpx:hr></gpxtpx:TrackPointExtension></extensions>
      </trkpt>
      <trkpt lat="59.04443" lon="17.329588">
        <ele>14.6</ele>
        <time>2020-03-26T12:14:29Z</time>
        <extensions><gpxtpx:TrackPointExtension><gpxtpx:hr>132</gpxtpx:hr></gpxtpx:TrackPointExtension></extensions>
      </trkpt>
      <trkpt lat="59.044457" lon="17.32975">
        <ele>14.6</ele>
        <time>2020-03-26T12:14:30Z</time>
        <extensions><gpxtpx:TrackPointExtension><gpxtpx:hr>133</gpxtpx:hr></gpxtpx:TrackPointExtension></extensions>
      </trkpt>
      <trkpt lat="59.044483" lon="17.329911">
        <ele>14.6</ele>
        <time>2020-03-26T12:14:31Z</time>
        <extensions><gpxtpx:TrackPointExtension><gpxtpx:hr>133</gpxtpx:hr></gpxtpx:TrackPointExtension></extensions>
      </trkpt>
      <trkpt lat="59.044508" lon="17.330073">
        <ele>14.6</ele>
        <time>2020-03-26T12:14:32Z</time>
        <extensions><gpxtpx:TrackPointExtension><gpxtpx:hr>134</gpxtpx:hr></gpxtpx:TrackPointExtension></extensions>
      </trkpt>
      <trkpt lat="59.044533" lon="17.330234">
        <ele>14.6</ele>
        <time>2020-03-26T12:14:33Z</time>
        <extensions><gpxtpx:TrackPointExtension><gpxtpx:hr>135</gpxtpx:hr></gpxtpx:TrackPointExtension></extensions>
      </trkpt>
      <trkpt lat="59.044556" lon="17.330397">
        <ele>14.4</ele>
        <time>2020-03-26T12:14:34Z</time>
        <extensions><gpxtpx:TrackPointExtension><gpxtpx:hr>135</gpxtpx:hr></gpxtpx:TrackPointExtension></extensions>
      </trkpt>
      <trkpt lat="59.04458" lon="17.330557">
        <ele>14.4</ele>
        <time>2020-03-26T12:14:35Z</time>
        <extensions><gpxtpx:TrackPointExtension><gpxtpx:hr>136</gpxtpx:hr></gpxtpx:TrackPointExtension></extensions>
      </trkpt>
      <trkpt lat="59.044604" lon="17.330716">
        <ele>14.4</ele>
        <time>2020-03-26T12:14:36Z</time>
        <extensions><gpxtpx:TrackPointExtension><gpxtpx:hr>136</gpxtpx:hr></gpxtpx:TrackPointExtension></extensions>
      </trkpt>
      <trkpt lat="59.044626" lon="17.330871">
        <ele>14.4</ele>
        <time>2020-03-26T12:14:37Z</time>
        <extensions><gpxtpx:TrackPointExtension><gpxtpx:hr>137</gpxtpx:hr></gpxtpx:TrackPointExtension></extensions>
      </trkpt>
      <trkpt lat="59.04465" lon="17.331024">
        <ele>14.4</ele>
        <time>2020-03-26T12:14:38Z</time>
        <extensions><gpxtpx:TrackPointExtension><gpxtpx:hr>137</gpxtpx:hr></gpxtpx:TrackPointExtension></extensions>
      </trkpt>
      <trkpt lat="59.044673" lon="17.331175">
        <ele>14.4</ele>
        <time>2020-03-26T12:14:39Z</time>
        <extensions><gpxtpx:TrackPointExtension><gpxtpx:hr>138</gpxtpx:hr></gpxtpx:TrackPointExtension></extensions>
      </trkpt>
      <trkpt lat="59.044696" lon="17.331322">
        <ele>14.4</ele>
        <time>2020-03-26T12:14:40Z</time>
        <extensions><gpxtpx:TrackPointExtension><gpxtpx:hr>138</gpxtpx:hr></gpxtpx:TrackPointExtension></extensions>
      </trkpt>
      <trkpt lat="59.04472" lon="17.331466">
        <ele>14.4</ele>
        <time>2020-03-26T12:14:41Z</time>
        <extensions><gpxtpx:TrackPointExtension><gpxtpx:hr>138</gpxtpx:hr></gpxtpx:TrackPointExtension></extensions>
      </trkpt>
      <trkpt lat="59.044743" lon="17.331607">
        <ele>14.4</ele>
        <time>2020-03-26T12:14:42Z</time>
        <extensions><gpxtpx:TrackPointExtension><gpxtpx:hr>139</gpxtpx:hr></gpxtpx:TrackPointExtension></extensions>
      </trkpt>
      <trkpt lat="59.044765" lon="17.331745">
        <ele>14.4</ele>
        <time>2020-03-26T12:14:43Z</time>
        <extensions><gpxtpx:TrackPointExtension><gpxtpx:hr>139</gpxtpx:hr></gpxtpx:TrackPointExtension></extensions>
      </trkpt>
      <trkpt lat="59.044787" lon="17.331883">
        <ele>14.4</ele>
        <time>2020-03-26T12:14:44Z</time>
        <extensions><gpxtpx:TrackPointExtension><gpxtpx:hr>140</gpxtpx:hr></gpxtpx:TrackPointExtension></extensions>
      </trkpt>
      <trkpt lat="59.044804" lon="17.332019">
        <ele>14.4</ele>
        <time>2020-03-26T12:14:45Z</time>
        <extensions><gpxtpx:TrackPointExtension><gpxtpx:hr>140</gpxtpx:hr></gpxtpx:TrackPointExtension></extensions>
      </trkpt>
      <trkpt lat="59.044821" lon="17.332153">
        <ele>14.4</ele>
        <time>2020-03-26T12:14:46Z</time>
        <extensions><gpxtpx:TrackPointExtension><gpxtpx:hr>141</gpxtpx:hr></gpxtpx:TrackPointExtension></extensions>
      </trkpt>
      <trkpt lat="59.044839" lon="17.332285">
        <ele>14.4</ele>
        <time>2020-03-26T12:14:47Z</time>
        <extensions><gpxtpx:TrackPointExtension><gpxtpx:hr>142</gpxtpx:hr></gpxtpx:TrackPointExtension></extensions>
      </trkpt>
      <trkpt lat="59.044856" lon="17.332414">
        <ele>14.6</ele>
        <time>2020-03-26T12:14:48Z</time>
        <extensions><gpxtpx:TrackPointExtension><gpxtpx:hr>143</gpxtpx:hr></gpxtpx:TrackPointExtension></extensions>
      </trkpt>
      <trkpt lat="59.044874" lon="17.332543">
        <ele>14.6</ele>
        <time>2020-03-26T12:14:49Z</time>
        <extensions><gpxtpx:TrackPointExtension><gpxtpx:hr>144</gpxtpx:hr></gpxtpx:TrackPointExtension></extensions>
      </trkpt>
      <trkpt lat="59.044895" lon="17.332672">
        <ele>14.8</ele>
        <time>2020-03-26T12:14:50Z</time>
        <extensions><gpxtpx:TrackPointExtension><gpxtpx:hr>144</gpxtpx:hr></gpxtpx:TrackPointExtension></extensions>
      </trkpt>
      <trkpt lat="59.044917" lon="17.332801">
        <ele>15.2</ele>
        <time>2020-03-26T12:14:51Z</time>
        <extensions><gpxtpx:TrackPointExtension><gpxtpx:hr>145</gpxtpx:hr></gpxtpx:TrackPointExtension></extensions>
      </trkpt>
      <trkpt lat="59.044938" lon="17.332932">
        <ele>15.4</ele>
        <time>2020-03-26T12:14:52Z</time>
        <extensions><gpxtpx:TrackPointExtension><gpxtpx:hr>146</gpxtpx:hr></gpxtpx:TrackPointExtension></extensions>
      </trkpt>
      <trkpt lat="59.044958" lon="17.333064">
        <ele>15.8</ele>
        <time>2020-03-26T12:14:53Z</time>
        <extensions><gpxtpx:TrackPointExtension><gpxtpx:hr>146</gpxtpx:hr></gpxtpx:TrackPointExtension></extensions>
      </trkpt>
      <trkpt lat="59.044979" lon="17.333195">
        <ele>16.2</ele>
        <time>2020-03-26T12:14:54Z</time>
        <extensions><gpxtpx:TrackPointExtension><gpxtpx:hr>146</gpxtpx:hr></gpxtpx:TrackPointExtension></extensions>
      </trkpt>
      <trkpt lat="59.045" lon="17.333326">
        <ele>16.4</ele>
        <time>2020-03-26T12:14:55Z</time>
        <extensions><gpxtpx:TrackPointExtension><gpxtpx:hr>147</gpxtpx:hr></gpxtpx:TrackPointExtension></extensions>
      </trkpt>
      <trkpt lat="59.045021" lon="17.333458">
        <ele>16.8</ele>
        <time>2020-03-26T12:14:56Z</time>
        <extensions><gpxtpx:TrackPointExtension><gpxtpx:hr>147</gpxtpx:hr></gpxtpx:TrackPointExtension></extensions>
      </trkpt>
      <trkpt lat="59.045044" lon="17.333592">
        <ele>16.8</ele>
        <time>2020-03-26T12:14:57Z</time>
        <extensions><gpxtpx:TrackPointExtension><gpxtpx:hr>147</gpxtpx:hr></gpxtpx:TrackPointExtension></extensions>
      </trkpt>
      <trkpt lat="59.045064" lon="17.333729">
        <ele>17</ele>
        <time>2020-03-26T12:14:58Z</time>
        <extensions><gpxtpx:TrackPointExtension><gpxtpx:hr>148</gpxtpx:hr></gpxtpx:TrackPointExtension></extensions>
      </trkpt>
      <trkpt lat="59.045083" lon="17.333868">
        <ele>17.2</ele>
        <time>2020-03-26T12:14:59Z</time>
        <extensions><gpxtpx:TrackPointExtension><gpxtpx:hr>148</gpxtpx:hr></gpxtpx:TrackPointExtension></extensions>
      </trkpt>
      <trkpt lat="59.045104" lon="17.334007">
        <ele>17.2</ele>
        <time>2020-03-26T12:15:00Z</time>
        <extensions><gpxtpx:TrackPointExtension><gpxtpx:hr>148</gpxtpx:hr></gpxtpx:TrackPointExtension></extensions>
      </trkpt>
      <trkpt lat="59.045125" lon="17.33415">
        <ele>17.4</ele>
        <time>2020-03-26T12:15:01Z</time>
        <extensions><gpxtpx:TrackPointExtension><gpxtpx:hr>149</gpxtpx:hr></gpxtpx:TrackPointExtension></extensions>
      </trkpt>
      <trkpt lat="59.045147" lon="17.334295">
        <ele>17.6</ele>
        <time>2020-03-26T12:15:02Z</time>
        <extensions><gpxtpx:TrackPointExtension><gpxtpx:hr>149</gpxtpx:hr></gpxtpx:TrackPointExtension></extensions>
      </trkpt>
      <trkpt lat="59.045168" lon="17.334442">
        <ele>17.6</ele>
        <time>2020-03-26T12:15:03Z</time>
        <extensions><gpxtpx:TrackPointExtension><gpxtpx:hr>149</gpxtpx:hr></gpxtpx:TrackPointExtension></extensions>
      </trkpt>
      <trkpt lat="59.04519" lon="17.334591">
        <ele>17.6</ele>
        <time>2020-03-26T12:15:04Z</time>
        <extensions><gpxtpx:TrackPointExtension><gpxtpx:hr>149</gpxtpx:hr></gpxtpx:TrackPointExtension></extensions>
      </trkpt>
      <trkpt lat="59.045212" lon="17.334741">
        <ele>17.8</ele>
        <time>2020-03-26T12:15:05Z</time>
        <extensions><gpxtpx:TrackPointExtension><gpxtpx:hr>150</gpxtpx:hr></gpxtpx:TrackPointExtension></extensions>
      </trkpt>
      <trkpt lat="59.045234" lon="17.334893">
        <ele>17.8</ele>
        <time>2020-03-26T12:15:06Z</time>
        <extensions><gpxtpx:TrackPointExtension><gpxtpx:hr>149</gpxtpx:hr></gpxtpx:TrackPointExtension></extensions>
      </trkpt>
      <trkpt lat="59.045258" lon="17.335047">
        <ele>17.8</ele>
        <time>2020-03-26T12:15:07Z</time>
        <extensions><gpxtpx:TrackPointExtension><gpxtpx:hr>149</gpxtpx:hr></gpxtpx:TrackPointExtension></extensions>
      </trkpt>
      <trkpt lat="59.045281" lon="17.335203">
        <ele>17.8</ele>
        <time>2020-03-26T12:15:08Z</time>
        <extensions><gpxtpx:TrackPointExtension><gpxtpx:hr>149</gpxtpx:hr></gpxtpx:TrackPointExtension></extensions>
      </trkpt>
      <trkpt lat="59.045304" lon="17.335362">
        <ele>17.8</ele>
        <time>2020-03-26T12:15:09Z</time>
        <extensions><gpxtpx:TrackPointExtension><gpxtpx:hr>149</gpxtpx:hr></gpxtpx:TrackPointExtension></extensions>
      </trkpt>
      <trkpt lat="59.045328" lon="17.335522">
        <ele>17.8</ele>
        <time>2020-03-26T12:15:10Z</time>
        <extensions><gpxtpx:TrackPointExtension><gpxtpx:hr>149</gpxtpx:hr></gpxtpx:TrackPointExtension></extensions>
      </trkpt>
      <trkpt lat="59.045352" lon="17.335683">
        <ele>17.8</ele>
        <time>2020-03-26T12:15:11Z</time>
        <extensions><gpxtpx:TrackPointExtension><gpxtpx:hr>148</gpxtpx:hr></gpxtpx:TrackPointExtension></extensions>
      </trkpt>
      <trkpt lat="59.045377" lon="17.335845">
        <ele>17.6</ele>
        <time>2020-03-26T12:15:12Z</time>
        <extensions><gpxtpx:TrackPointExtension><gpxtpx:hr>148</gpxtpx:hr></gpxtpx:TrackPointExtension></extensions>
      </trkpt>
      <trkpt lat="59.0454" lon="17.336009">
        <ele>17.6</ele>
        <time>2020-03-26T12:15:13Z</time>
        <extensions><gpxtpx:TrackPointExtension><gpxtpx:hr>148</gpxtpx:hr></gpxtpx:TrackPointExtension></extensions>
      </trkpt>
      <trkpt lat="59.045423" lon="17.336174">
        <ele>17.6</ele>
        <time>2020-03-26T12:15:14Z</time>
        <extensions><gpxtpx:TrackPointExtension><gpxtpx:hr>148</gpxtpx:hr></gpxtpx:TrackPointExtension></extensions>
      </trkpt>
      <trkpt lat="59.045447" lon="17.336339">
        <ele>17.4</ele>
        <time>2020-03-26T12:15:15Z</time>
        <extensions><gpxtpx:TrackPointExtension><gpxtpx:hr>147</gpxtpx:hr></gpxtpx:TrackPointExtension></extensions>
      </trkpt>
      <trkpt lat="59.045471" lon="17.336502">
        <ele>17.4</ele>
        <time>2020-03-26T12:15:16Z</time>
        <extensions><gpxtpx:TrackPointExtension><gpxtpx:hr>147</gpxtpx:hr></gpxtpx:TrackPointExtension></extensions>
      </trkpt>
      <trkpt lat="59.045495" lon="17.336662">
        <ele>17.2</ele>
        <time>2020-03-26T12:15:17Z</time>
        <extensions><gpxtpx:TrackPointExtension><gpxtpx:hr>147</gpxtpx:hr></gpxtpx:TrackPointExtension></extensions>
      </trkpt>
      <trkpt lat="59.045519" lon="17.33682">
        <ele>17.2</ele>
        <time>2020-03-26T12:15:18Z</time>
        <extensions><gpxtpx:TrackPointExtension><gpxtpx:hr>146</gpxtpx:hr></gpxtpx:TrackPointExtension></extensions>
      </trkpt>
      <trkpt lat="59.045542" lon="17.336975">
        <ele>17</ele>
        <time>2020-03-26T12:15:19Z</time>
        <extensions><gpxtpx:TrackPointExtension><gpxtpx:hr>146</gpxtpx:hr></gpxtpx:TrackPointExtension></extensions>
      </trkpt>
      <trkpt lat="59.045564" lon="17.337124">
        <ele>17</ele>
        <time>2020-03-26T12:15:20Z</time>
        <extensions><gpxtpx:TrackPointExtension><gpxtpx:hr>146</gpxtpx:hr></gpxtpx:TrackPointExtension></extensions>
      </trkpt>
      <trkpt lat="59.045586" lon="17.337268">
        <ele>17</ele>
        <time>2020-03-26T12:15:21Z</time>
        <extensions><gpxtpx:TrackPointExtension><gpxtpx:hr>146</gpxtpx:hr></gpxtpx:TrackPointExtension></extensions>
      </trkpt>
      <trkpt lat="59.045609" lon="17.337405">
        <ele>17</ele>
        <time>2020-03-26T12:15:22Z</time>
        <extensions><gpxtpx:TrackPointExtension><gpxtpx:hr>146</gpxtpx:hr></gpxtpx:TrackPointExtension></extensions>
      </trkpt>
      <trkpt lat="59.045637" lon="17.337538">
        <ele>17</ele>
        <time>2020-03-26T12:15:23Z</time>
        <extensions><gpxtpx:TrackPointExtension><gpxtpx:hr>146</gpxtpx:hr></gpxtpx:TrackPointExtension></extensions>
      </trkpt>
      <trkpt lat="59.045668" lon="17.337662">
        <ele>17</ele>
        <time>2020-03-26T12:15:24Z</time>
        <extensions><gpxtpx:TrackPointExtension><gpxtpx:hr>146</gpxtpx:hr></gpxtpx:TrackPointExtension></extensions>
      </trkpt>
      <trkpt lat="59.045705" lon="17.337775">
        <ele>17</ele>
        <time>2020-03-26T12:15:25Z</time>
        <extensions><gpxtpx:TrackPointExtension><gpxtpx:hr>146</gpxtpx:hr></gpxtpx:TrackPointExtension></extensions>
      </trkpt>
      <trkpt lat="59.045751" lon="17.337873">
        <ele>17</ele>
        <time>2020-03-26T12:15:26Z</time>
        <extensions><gpxtpx:TrackPointExtension><gpxtpx:hr>146</gpxtpx:hr></gpxtpx:TrackPointExtension></extensions>
      </trkpt>
      <trkpt lat="59.045807" lon="17.337955">
        <ele>17</ele>
        <time>2020-03-26T12:15:27Z</time>
        <extensions><gpxtpx:TrackPointExtension><gpxtpx:hr>147</gpxtpx:hr></gpxtpx:TrackPointExtension></extensions>
      </trkpt>
      <trkpt lat="59.045869" lon="17.338016">
        <ele>17</ele>
        <time>2020-03-26T12:15:28Z</time>
        <extensions><gpxtpx:TrackPointExtension><gpxtpx:hr>147</gpxtpx:hr></gpxtpx:TrackPointExtension></extensions>
      </trkpt>
      <trkpt lat="59.045935" lon="17.338058">
        <ele>17.2</ele>
        <time>2020-03-26T12:15:29Z</time>
        <extensions><gpxtpx:TrackPointExtension><gpxtpx:hr>147</gpxtpx:hr></gpxtpx:TrackPointExtension></extensions>
      </trkpt>
      <trkpt lat="59.046006" lon="17.338088">
        <ele>17.6</ele>
        <time>2020-03-26T12:15:30Z</time>
        <extensions><gpxtpx:TrackPointExtension><gpxtpx:hr>147</gpxtpx:hr></gpxtpx:TrackPointExtension></extensions>
      </trkpt>
      <trkpt lat="59.046077" lon="17.338116">
        <ele>17.8</ele>
        <time>2020-03-26T12:15:31Z</time>
        <extensions><gpxtpx:TrackPointExtension><gpxtpx:hr>147</gpxtpx:hr></gpxtpx:TrackPointExtension></extensions>
      </trkpt>
      <trkpt lat="59.04615" lon="17.338147">
        <ele>18.2</ele>
        <time>2020-03-26T12:15:32Z</time>
        <extensions><gpxtpx:TrackPointExtension><gpxtpx:hr>147</gpxtpx:hr></gpxtpx:TrackPointExtension></extensions>
      </trkpt>
      <trkpt lat="59.046224" lon="17.33818">
        <ele>18.6</ele>
        <time>2020-03-26T12:15:33Z</time>
        <extensions><gpxtpx:TrackPointExtension><gpxtpx:hr>147</gpxtpx:hr></gpxtpx:TrackPointExtension></extensions>
      </trkpt>
      <trkpt lat="59.046297" lon="17.33821">
        <ele>19</ele>
        <time>2020-03-26T12:15:34Z</time>
        <extensions><gpxtpx:TrackPointExtension><gpxtpx:hr>147</gpxtpx:hr></gpxtpx:TrackPointExtension></extensions>
      </trkpt>
      <trkpt lat="59.046371" lon="17.338238">
        <ele>19.2</ele>
        <time>2020-03-26T12:15:35Z</time>
        <extensions><gpxtpx:TrackPointExtension><gpxtpx:hr>147</gpxtpx:hr></gpxtpx:TrackPointExtension></extensions>
      </trkpt>
      <trkpt lat="59.046444" lon="17.338266">
        <ele>19.4</ele>
        <time>2020-03-26T12:15:36Z</time>
        <extensions><gpxtpx:TrackPointExtension><gpxtpx:hr>147</gpxtpx:hr></gpxtpx:TrackPointExtension></extensions>
      </trkpt>
      <trkpt lat="59.046517" lon="17.338291">
        <ele>19.6</ele>
        <time>2020-03-26T12:15:37Z</time>
        <extensions><gpxtpx:TrackPointExtension><gpxtpx:hr>147</gpxtpx:hr></gpxtpx:TrackPointExtension></extensions>
      </trkpt>
      <trkpt lat="59.046588" lon="17.338316">
        <ele>19.8</ele>
        <time>2020-03-26T12:15:38Z</time>
        <extensions><gpxtpx:TrackPointExtension><gpxtpx:hr>147</gpxtpx:hr></gpxtpx:TrackPointExtension></extensions>
      </trkpt>
      <trkpt lat="59.046655" lon="17.33834">
        <ele>19.8</ele>
        <time>2020-03-26T12:15:39Z</time>
        <extensions><gpxtpx:TrackPointExtension><gpxtpx:hr>147</gpxtpx:hr></gpxtpx:TrackPointExtension></extensions>
      </trkpt>
      <trkpt lat="59.046722" lon="17.338364">
        <ele>19.8</ele>
        <time>2020-03-26T12:15:40Z</time>
        <extensions><gpxtpx:TrackPointExtension><gpxtpx:hr>148</gpxtpx:hr></gpxtpx:TrackPointExtension></extensions>
      </trkpt>
      <trkpt lat="59.046792" lon="17.338389">
        <ele>19.8</ele>
        <time>2020-03-26T12:15:41Z</time>
        <extensions><gpxtpx:TrackPointExtension><gpxtpx:hr>148</gpxtpx:hr></gpxtpx:TrackPointExtension></extensions>
      </trkpt>
      <trkpt lat="59.04686" lon="17.338409">
        <ele>20</ele>
        <time>2020-03-26T12:15:42Z</time>
        <extensions><gpxtpx:TrackPointExtension><gpxtpx:hr>148</gpxtpx:hr></gpxtpx:TrackPointExtension></extensions>
      </trkpt>
      <trkpt lat="59.04693" lon="17.338432">
        <ele>20</ele>
        <time>2020-03-26T12:15:43Z</time>
        <extensions><gpxtpx:TrackPointExtension><gpxtpx:hr>148</gpxtpx:hr></gpxtpx:TrackPointExtension></extensions>
      </trkpt>
      <trkpt lat="59.046998" lon="17.338456">
        <ele>20.2</ele>
        <time>2020-03-26T12:15:44Z</time>
        <extensions><gpxtpx:TrackPointExtension><gpxtpx:hr>148</gpxtpx:hr></gpxtpx:TrackPointExtension></extensions>
      </trkpt>
      <trkpt lat="59.047064" lon="17.338477">
        <ele>20.2</ele>
        <time>2020-03-26T12:15:45Z</time>
        <extensions><gpxtpx:TrackPointExtension><gpxtpx:hr>148</gpxtpx:hr></gpxtpx:TrackPointExtension></extensions>
      </trkpt>
      <trkpt lat="59.047133" lon="17.338498">
        <ele>20.4</ele>
        <time>2020-03-26T12:15:46Z</time>
        <extensions><gpxtpx:TrackPointExtension><gpxtpx:hr>148</gpxtpx:hr></gpxtpx:TrackPointExtension></extensions>
      </trkpt>
      <trkpt lat="59.047201" lon="17.338522">
        <ele>20.6</ele>
        <time>2020-03-26T12:15:47Z</time>
        <extensions><gpxtpx:TrackPointExtension><gpxtpx:hr>148</gpxtpx:hr></gpxtpx:TrackPointExtension></extensions>
      </trkpt>
      <trkpt lat="59.047267" lon="17.338546">
        <ele>20.6</ele>
        <time>2020-03-26T12:15:48Z</time>
        <extensions><gpxtpx:TrackPointExtension><gpxtpx:hr>148</gpxtpx:hr></gpxtpx:TrackPointExtension></extensions>
      </trkpt>
      <trkpt lat="59.047334" lon="17.33857">
        <ele>20.8</ele>
        <time>2020-03-26T12:15:49Z</time>
        <extensions><gpxtpx:TrackPointExtension><gpxtpx:hr>148</gpxtpx:hr></gpxtpx:TrackPointExtension></extensions>
      </trkpt>
      <trkpt lat="59.047402" lon="17.338595">
        <ele>21</ele>
        <time>2020-03-26T12:15:50Z</time>
        <extensions><gpxtpx:TrackPointExtension><gpxtpx:hr>148</gpxtpx:hr></gpxtpx:TrackPointExtension></extensions>
      </trkpt>
      <trkpt lat="59.047469" lon="17.33862">
        <ele>21.2</ele>
        <time>2020-03-26T12:15:51Z</time>
        <extensions><gpxtpx:TrackPointExtension><gpxtpx:hr>148</gpxtpx:hr></gpxtpx:TrackPointExtension></extensions>
      </trkpt>
      <trkpt lat="59.047539" lon="17.338644">
        <ele>21.6</ele>
        <time>2020-03-26T12:15:52Z</time>
        <extensions><gpxtpx:TrackPointExtension><gpxtpx:hr>148</gpxtpx:hr></gpxtpx:TrackPointExtension></extensions>
      </trkpt>
      <trkpt lat="59.047609" lon="17.338667">
        <ele>21.8</ele>
        <time>2020-03-26T12:15:53Z</time>
        <extensions><gpxtpx:TrackPointExtension><gpxtpx:hr>148</gpxtpx:hr></gpxtpx:TrackPointExtension></extensions>
      </trkpt>
      <trkpt lat="59.047679" lon="17.338691">
        <ele>21.8</ele>
        <time>2020-03-26T12:15:54Z</time>
        <extensions><gpxtpx:TrackPointExtension><gpxtpx:hr>149</gpxtpx:hr></gpxtpx:TrackPointExtension></extensions>
      </trkpt>
      <trkpt lat="59.04775" lon="17.338716">
        <ele>22</ele>
        <time>2020-03-26T12:15:55Z</time>
        <extensions><gpxtpx:TrackPointExtension><gpxtpx:hr>148</gpxtpx:hr></gpxtpx:TrackPointExtension></extensions>
      </trkpt>
      <trkpt lat="59.047821" lon="17.338739">
        <ele>22</ele>
        <time>2020-03-26T12:15:56Z</time>
        <extensions><gpxtpx:TrackPointExtension><gpxtpx:hr>148</gpxtpx:hr></gpxtpx:TrackPointExtension></extensions>
      </trkpt>
      <trkpt lat="59.047891" lon="17.338762">
        <ele>22.2</ele>
        <time>2020-03-26T12:15:57Z</time>
        <extensions><gpxtpx:TrackPointExtension><gpxtpx:hr>148</gpxtpx:hr></gpxtpx:TrackPointExtension></extensions>
      </trkpt>
      <trkpt lat="59.047961" lon="17.338784">
        <ele>22.2</ele>
        <time>2020-03-26T12:15:58Z</time>
        <extensions><gpxtpx:TrackPointExtension><gpxtpx:hr>148</gpxtpx:hr></gpxtpx:TrackPointExtension></extensions>
      </trkpt>
      <trkpt lat="59.048031" lon="17.338805">
        <ele>22.2</ele>
        <time>2020-03-26T12:15:59Z</time>
        <extensions><gpxtpx:TrackPointExtension><gpxtpx:hr>148</gpxtpx:hr></gpxtpx:TrackPointExtension></extensions>
      </trkpt>
      <trkpt lat="59.048101" lon="17.338827">
        <ele>22.2</ele>
        <time>2020-03-26T12:16:00Z</time>
        <extensions><gpxtpx:TrackPointExtension><gpxtpx:hr>149</gpxtpx:hr></gpxtpx:TrackPointExtension></extensions>
      </trkpt>
      <trkpt lat="59.048174" lon="17.338849">
        <ele>22.2</ele>
        <time>2020-03-26T12:16:01Z</time>
        <extensions><gpxtpx:TrackPointExtension><gpxtpx:hr>149</gpxtpx:hr></gpxtpx:TrackPointExtension></extensions>
      </trkpt>
      <trkpt lat="59.048246" lon="17.338868">
        <ele>22.4</ele>
        <time>2020-03-26T12:16:02Z</time>
        <extensions><gpxtpx:TrackPointExtension><gpxtpx:hr>149</gpxtpx:hr></gpxtpx:TrackPointExtension></extensions>
      </trkpt>
      <trkpt lat="59.048318" lon="17.338885">
        <ele>22.4</ele>
        <time>2020-03-26T12:16:03Z</time>
        <extensions><gpxtpx:TrackPointExtension><gpxtpx:hr>149</gpxtpx:hr></gpxtpx:TrackPointExtension></extensions>
      </trkpt>
      <trkpt lat="59.04839" lon="17.3389">
        <ele>22.6</ele>
        <time>2020-03-26T12:16:04Z</time>
        <extensions><gpxtpx:TrackPointExtension><gpxtpx:hr>149</gpxtpx:hr></gpxtpx:TrackPointExtension></extensions>
      </trkpt>
      <trkpt lat="59.048462" lon="17.338915">
        <ele>22.8</ele>
        <time>2020-03-26T12:16:05Z</time>
        <extensions><gpxtpx:TrackPointExtension><gpxtpx:hr>150</gpxtpx:hr></gpxtpx:TrackPointExtension></extensions>
      </trkpt>
      <trkpt lat="59.048532" lon="17.338928">
        <ele>23</ele>
        <time>2020-03-26T12:16:06Z</time>
        <extensions><gpxtpx:TrackPointExtension><gpxtpx:hr>150</gpxtpx:hr></gpxtpx:TrackPointExtension></extensions>
      </trkpt>
      <trkpt lat="59.0486" lon="17.338937">
        <ele>23.4</ele>
        <time>2020-03-26T12:16:07Z</time>
        <extensions><gpxtpx:TrackPointExtension><gpxtpx:hr>150</gpxtpx:hr></gpxtpx:TrackPointExtension></extensions>
      </trkpt>
      <trkpt lat="59.048668" lon="17.338943">
        <ele>23.6</ele>
        <time>2020-03-26T12:16:08Z</time>
        <extensions><gpxtpx:TrackPointExtension><gpxtpx:hr>151</gpxtpx:hr></gpxtpx:TrackPointExtension></extensions>
      </trkpt>
      <trkpt lat="59.048735" lon="17.338944">
        <ele>23.8</ele>
        <time>2020-03-26T12:16:09Z</time>
        <extensions><gpxtpx:TrackPointExtension><gpxtpx:hr>151</gpxtpx:hr></gpxtpx:TrackPointExtension></extensions>
      </trkpt>
      <trkpt lat="59.048802" lon="17.33894">
        <ele>23.8</ele>
        <time>2020-03-26T12:16:10Z</time>
        <extensions><gpxtpx:TrackPointExtension><gpxtpx:hr>151</gpxtpx:hr></gpxtpx:TrackPointExtension></extensions>
      </trkpt>
      <trkpt lat="59.048869" lon="17.338932">
        <ele>24</ele>
        <time>2020-03-26T12:16:11Z</time>
        <extensions><gpxtpx:TrackPointExtension><gpxtpx:hr>151</gpxtpx:hr></gpxtpx:TrackPointExtension></extensions>
      </trkpt>
      <trkpt lat="59.048937" lon="17.33892">
        <ele>24</ele>
        <time>2020-03-26T12:16:12Z</time>
        <extensions><gpxtpx:TrackPointExtension><gpxtpx:hr>151</gpxtpx:hr></gpxtpx:TrackPointExtension></extensions>
      </trkpt>
      <trkpt lat="59.049007" lon="17.338906">
        <ele>24.2</ele>
        <time>2020-03-26T12:16:13Z</time>
        <extensions><gpxtpx:TrackPointExtension><gpxtpx:hr>151</gpxtpx:hr></gpxtpx:TrackPointExtension></extensions>
      </trkpt>
      <trkpt lat="59.04908" lon="17.338894">
        <ele>24.2</ele>
        <time>2020-03-26T12:16:14Z</time>
        <extensions><gpxtpx:TrackPointExtension><gpxtpx:hr>150</gpxtpx:hr></gpxtpx:TrackPointExtension></extensions>
      </trkpt>
      <trkpt lat="59.049154" lon="17.338885">
        <ele>24.2</ele>
        <time>2020-03-26T12:16:15Z</time>
        <extensions><gpxtpx:TrackPointExtension><gpxtpx:hr>150</gpxtpx:hr></gpxtpx:TrackPointExtension></extensions>
      </trkpt>
      <trkpt lat="59.04923" lon="17.338875">
        <ele>24.2</ele>
        <time>2020-03-26T12:16:16Z</time>
        <extensions><gpxtpx:TrackPointExtension><gpxtpx:hr>150</gpxtpx:hr></gpxtpx:TrackPointExtension></extensions>
      </trkpt>
      <trkpt lat="59.04931" lon="17.338861">
        <ele>24.2</ele>
        <time>2020-03-26T12:16:17Z</time>
        <extensions><gpxtpx:TrackPointExtension><gpxtpx:hr>150</gpxtpx:hr></gpxtpx:TrackPointExtension></extensions>
      </trkpt>
      <trkpt lat="59.049389" lon="17.338843">
        <ele>24.2</ele>
        <time>2020-03-26T12:16:18Z</time>
        <extensions><gpxtpx:TrackPointExtension><gpxtpx:hr>150</gpxtpx:hr></gpxtpx:TrackPointExtension></extensions>
      </trkpt>
      <trkpt lat="59.049468" lon="17.338826">
        <ele>24.2</ele>
        <time>2020-03-26T12:16:19Z</time>
        <extensions><gpxtpx:TrackPointExtension><gpxtpx:hr>150</gpxtpx:hr></gpxtpx:TrackPointExtension></extensions>
      </trkpt>
      <trkpt lat="59.049547" lon="17.338812">
        <ele>24.2</ele>
        <time>2020-03-26T12:16:20Z</time>
        <extensions><gpxtpx:TrackPointExtension><gpxtpx:hr>149</gpxtpx:hr></gpxtpx:TrackPointExtension></extensions>
      </trkpt>
      <trkpt lat="59.049625" lon="17.338797">
        <ele>24.2</ele>
        <time>2020-03-26T12:16:21Z</time>
        <extensions><gpxtpx:TrackPointExtension><gpxtpx:hr>149</gpxtpx:hr></gpxtpx:TrackPointExtension></extensions>
      </trkpt>
      <trkpt lat="59.049704" lon="17.338783">
        <ele>24.2</ele>
        <time>2020-03-26T12:16:22Z</time>
        <extensions><gpxtpx:TrackPointExtension><gpxtpx:hr>148</gpxtpx:hr></gpxtpx:TrackPointExtension></extensions>
      </trkpt>
      <trkpt lat="59.049782" lon="17.338762">
        <ele>23.8</ele>
        <time>2020-03-26T12:16:23Z</time>
        <extensions><gpxtpx:TrackPointExtension><gpxtpx:hr>148</gpxtpx:hr></gpxtpx:TrackPointExtension></extensions>
      </trkpt>
      <trkpt lat="59.049863" lon="17.338735">
        <ele>23.4</ele>
        <time>2020-03-26T12:16:24Z</time>
        <extensions><gpxtpx:TrackPointExtension><gpxtpx:hr>147</gpxtpx:hr></gpxtpx:TrackPointExtension></extensions>
      </trkpt>
      <trkpt lat="59.049941" lon="17.338703">
        <ele>22.8</ele>
        <time>2020-03-26T12:16:25Z</time>
        <extensions><gpxtpx:TrackPointExtension><gpxtpx:hr>147</gpxtpx:hr></gpxtpx:TrackPointExtension></extensions>
      </trkpt>
      <trkpt lat="59.050019" lon="17.338668">
        <ele>22.4</ele>
        <time>2020-03-26T12:16:26Z</time>
        <extensions><gpxtpx:TrackPointExtension><gpxtpx:hr>147</gpxtpx:hr></gpxtpx:TrackPointExtension></extensions>
      </trkpt>
      <trkpt lat="59.050095" lon="17.33863">
        <ele>22.2</ele>
        <time>2020-03-26T12:16:27Z</time>
        <extensions><gpxtpx:TrackPointExtension><gpxtpx:hr>147</gpxtpx:hr></gpxtpx:TrackPointExtension></extensions>
      </trkpt>
      <trkpt lat="59.05017" lon="17.338595">
        <ele>22</ele>
        <time>2020-03-26T12:16:28Z</time>
        <extensions><gpxtpx:TrackPointExtension><gpxtpx:hr>147</gpxtpx:hr></gpxtpx:TrackPointExtension></extensions>
      </trkpt>
      <trkpt lat="59.050246" lon="17.338561">
        <ele>22</ele>
        <time>2020-03-26T12:16:29Z</time>
        <extensions><gpxtpx:TrackPointExtension><gpxtpx:hr>147</gpxtpx:hr></gpxtpx:TrackPointExtension></extensions>
      </trkpt>
      <trkpt lat="59.050319" lon="17.338533">
        <ele>22</ele>
        <time>2020-03-26T12:16:30Z</time>
        <extensions><gpxtpx:TrackPointExtension><gpxtpx:hr>147</gpxtpx:hr></gpxtpx:TrackPointExtension></extensions>
      </trkpt>
      <trkpt lat="59.050393" lon="17.338506">
        <ele>22</ele>
        <time>2020-03-26T12:16:31Z</time>
        <extensions><gpxtpx:TrackPointExtension><gpxtpx:hr>147</gpxtpx:hr></gpxtpx:TrackPointExtension></extensions>
      </trkpt>
      <trkpt lat="59.050467" lon="17.338478">
        <ele>22</ele>
        <time>2020-03-26T12:16:32Z</time>
        <extensions><gpxtpx:TrackPointExtension><gpxtpx:hr>146</gpxtpx:hr></gpxtpx:TrackPointExtension></extensions>
      </trkpt>
      <trkpt lat="59.050541" lon="17.338451">
        <ele>21.8</ele>
        <time>2020-03-26T12:16:33Z</time>
        <extensions><gpxtpx:TrackPointExtension><gpxtpx:hr>146</gpxtpx:hr></gpxtpx:TrackPointExtension></extensions>
      </trkpt>
      <trkpt lat="59.050616" lon="17.338424">
        <ele>21.8</ele>
        <time>2020-03-26T12:16:34Z</time>
        <extensions><gpxtpx:TrackPointExtension><gpxtpx:hr>146</gpxtpx:hr></gpxtpx:TrackPointExtension></extensions>
      </trkpt>
      <trkpt lat="59.05069" lon="17.338396">
        <ele>21.8</ele>
        <time>2020-03-26T12:16:35Z</time>
        <extensions><gpxtpx:TrackPointExtension><gpxtpx:hr>145</gpxtpx:hr></gpxtpx:TrackPointExtension></extensions>
      </trkpt>
      <trkpt lat="59.050764" lon="17.338371">
        <ele>21.8</ele>
        <time>2020-03-26T12:16:36Z</time>
        <extensions><gpxtpx:TrackPointExtension><gpxtpx:hr>145</gpxtpx:hr></gpxtpx:TrackPointExtension></extensions>
      </trkpt>
      <trkpt lat="59.05084" lon="17.338349">
        <ele>21.8</ele>
        <time>2020-03-26T12:16:37Z</time>
        <extensions><gpxtpx:TrackPointExtension><gpxtpx:hr>144</gpxtpx:hr></gpxtpx:TrackPointExtension></extensions>
      </trkpt>
      <trkpt lat="59.050915" lon="17.338327">
        <ele>22</ele>
        <time>2020-03-26T12:16:38Z</time>
        <extensions><gpxtpx:TrackPointExtension><gpxtpx:hr>143</gpxtpx:hr></gpxtpx:TrackPointExtension></extensions>
      </trkpt>
      <trkpt lat="59.050989" lon="17.338302">
        <ele>22</ele>
        <time>2020-03-26T12:16:39Z</time>
        <extensions><gpxtpx:TrackPointExtension><gpxtpx:hr>143</gpxtpx:hr></gpxtpx:TrackPointExtension></extensions>
      </trkpt>
      <trkpt lat="59.051062" lon="17.338272">
        <ele>22.2</ele>
        <time>2020-03-26T12:16:40Z</time>
        <extensions><gpxtpx:TrackPointExtension><gpxtpx:hr>143</gpxtpx:hr></gpxtpx:TrackPointExtension></extensions>
      </trkpt>
      <trkpt lat="59.051134" lon="17.338244">
        <ele>22.2</ele>
        <time>2020-03-26T12:16:41Z</time>
        <extensions><gpxtpx:TrackPointExtension><gpxtpx:hr>143</gpxtpx:hr></gpxtpx:TrackPointExtension></extensions>
      </trkpt>
      <trkpt lat="59.051207" lon="17.338217">
        <ele>22.2</ele>
        <time>2020-03-26T12:16:42Z</time>
        <extensions><gpxtpx:TrackPointExtension><gpxtpx:hr>143</gpxtpx:hr></gpxtpx:TrackPointExtension></extensions>
      </trkpt>
      <trkpt lat="59.051278" lon="17.338194">
        <ele>22.2</ele>
        <time>2020-03-26T12:16:43Z</time>
        <extensions><gpxtpx:TrackPointExtension><gpxtpx:hr>143</gpxtpx:hr></gpxtpx:TrackPointExtension></extensions>
      </trkpt>
      <trkpt lat="59.05135" lon="17.338173">
        <ele>22.2</ele>
        <time>2020-03-26T12:16:44Z</time>
        <extensions><gpxtpx:TrackPointExtension><gpxtpx:hr>143</gpxtpx:hr></gpxtpx:TrackPointExtension></extensions>
      </trkpt>
      <trkpt lat="59.051422" lon="17.338153">
        <ele>22.4</ele>
        <time>2020-03-26T12:16:45Z</time>
        <extensions><gpxtpx:TrackPointExtension><gpxtpx:hr>142</gpxtpx:hr></gpxtpx:TrackPointExtension></extensions>
      </trkpt>
      <trkpt lat="59.051493" lon="17.338135">
        <ele>22.4</ele>
        <time>2020-03-26T12:16:46Z</time>
        <extensions><gpxtpx:TrackPointExtension><gpxtpx:hr>142</gpxtpx:hr></gpxtpx:TrackPointExtension></extensions>
      </trkpt>
      <trkpt lat="59.051563" lon="17.338122">
        <ele>22.4</ele>
        <time>2020-03-26T12:16:47Z</time>
        <extensions><gpxtpx:TrackPointExtension><gpxtpx:hr>142</gpxtpx:hr></gpxtpx:TrackPointExtension></extensions>
      </trkpt>
      <trkpt lat="59.051634" lon="17.338113">
        <ele>22.6</ele>
        <time>2020-03-26T12:16:48Z</time>
        <extensions><gpxtpx:TrackPointExtension><gpxtpx:hr>142</gpxtpx:hr></gpxtpx:TrackPointExtension></extensions>
      </trkpt>
      <trkpt lat="59.051707" lon="17.338105">
        <ele>23</ele>
        <time>2020-03-26T12:16:49Z</time>
        <extensions><gpxtpx:TrackPointExtension><gpxtpx:hr>142</gpxtpx:hr></gpxtpx:TrackPointExtension></extensions>
      </trkpt>
      <trkpt lat="59.05178" lon="17.3381">
        <ele>23.2</ele>
        <time>2020-03-26T12:16:50Z</time>
        <extensions><gpxtpx:TrackPointExtension><gpxtpx:hr>142</gpxtpx:hr></gpxtpx:TrackPointExtension></extensions>
      </trkpt>
      <trkpt lat="59.051856" lon="17.338102">
        <ele>23.2</ele>
        <time>2020-03-26T12:16:51Z</time>
        <extensions><gpxtpx:TrackPointExtension><gpxtpx:hr>143</gpxtpx:hr></gpxtpx:TrackPointExtension></extensions>
      </trkpt>
      <trkpt lat="59.051932" lon="17.338108">
        <ele>23.4</ele>
        <time>2020-03-26T12:16:52Z</time>
        <extensions><gpxtpx:TrackPointExtension><gpxtpx:hr>143</gpxtpx:hr></gpxtpx:TrackPointExtension></extensions>
      </trkpt>
      <trkpt lat="59.052008" lon="17.338117">
        <ele>23.4</ele>
        <time>2020-03-26T12:16:53Z</time>
        <extensions><gpxtpx:TrackPointExtension><gpxtpx:hr>143</gpxtpx:hr></gpxtpx:TrackPointExtension></extensions>
      </trkpt>
      <trkpt lat="59.052082" lon="17.338126">
        <ele>23.4</ele>
        <time>2020-03-26T12:16:54Z</time>
        <extensions><gpxtpx:TrackPointExtension><gpxtpx:hr>143</gpxtpx:hr></gpxtpx:TrackPointExtension></extensions>
      </trkpt>
      <trkpt lat="59.052157" lon="17.338136">
        <ele>23.4</ele>
        <time>2020-03-26T12:16:55Z</time>
        <extensions><gpxtpx:TrackPointExtension><gpxtpx:hr>143</gpxtpx:hr></gpxtpx:TrackPointExtension></extensions>
      </trkpt>
      <trkpt lat="59.052231" lon="17.33815">
        <ele>23.4</ele>
        <time>2020-03-26T12:16:56Z</time>
        <extensions><gpxtpx:TrackPointExtension><gpxtpx:hr>143</gpxtpx:hr></gpxtpx:TrackPointExtension></extensions>
      </trkpt>
      <trkpt lat="59.052304" lon="17.338166">
        <ele>23.6</ele>
        <time>2020-03-26T12:16:57Z</time>
        <extensions><gpxtpx:TrackPointExtension><gpxtpx:hr>143</gpxtpx:hr></gpxtpx:TrackPointExtension></extensions>
      </trkpt>
      <trkpt lat="59.052376" lon="17.338185">
        <ele>23.6</ele>
        <time>2020-03-26T12:16:58Z</time>
        <extensions><gpxtpx:TrackPointExtension><gpxtpx:hr>143</gpxtpx:hr></gpxtpx:TrackPointExtension></extensions>
      </trkpt>
      <trkpt lat="59.052446" lon="17.338206">
        <ele>23.6</ele>
        <time>2020-03-26T12:16:59Z</time>
        <extensions><gpxtpx:TrackPointExtension><gpxtpx:hr>144</gpxtpx:hr></gpxtpx:TrackPointExtension></extensions>
      </trkpt>
      <trkpt lat="59.052513" lon="17.338231">
        <ele>23.6</ele>
        <time>2020-03-26T12:17:00Z</time>
        <extensions><gpxtpx:TrackPointExtension><gpxtpx:hr>144</gpxtpx:hr></gpxtpx:TrackPointExtension></extensions>
      </trkpt>
      <trkpt lat="59.052576" lon="17.33826">
        <ele>23.6</ele>
        <time>2020-03-26T12:17:01Z</time>
        <extensions><gpxtpx:TrackPointExtension><gpxtpx:hr>144</gpxtpx:hr></gpxtpx:TrackPointExtension></extensions>
      </trkpt>
      <trkpt lat="59.05264" lon="17.33829">
        <ele>23.6</ele>
        <time>2020-03-26T12:17:02Z</time>
        <extensions><gpxtpx:TrackPointExtension><gpxtpx:hr>144</gpxtpx:hr></gpxtpx:TrackPointExtension></extensions>
      </trkpt>
      <trkpt lat="59.052701" lon="17.33832">
        <ele>23.6</ele>
        <time>2020-03-26T12:17:03Z</time>
        <extensions><gpxtpx:TrackPointExtension><gpxtpx:hr>144</gpxtpx:hr></gpxtpx:TrackPointExtension></extensions>
      </trkpt>
      <trkpt lat="59.052761" lon="17.338347">
        <ele>23.6</ele>
        <time>2020-03-26T12:17:04Z</time>
        <extensions><gpxtpx:TrackPointExtension><gpxtpx:hr>145</gpxtpx:hr></gpxtpx:TrackPointExtension></extensions>
      </trkpt>
      <trkpt lat="59.052821" lon="17.338373">
        <ele>23.6</ele>
        <time>2020-03-26T12:17:05Z</time>
        <extensions><gpxtpx:TrackPointExtension><gpxtpx:hr>145</gpxtpx:hr></gpxtpx:TrackPointExtension></extensions>
      </trkpt>
      <trkpt lat="59.052881" lon="17.338396">
        <ele>23.6</ele>
        <time>2020-03-26T12:17:06Z</time>
        <extensions><gpxtpx:TrackPointExtension><gpxtpx:hr>145</gpxtpx:hr></gpxtpx:TrackPointExtension></extensions>
      </trkpt>
      <trkpt lat="59.052942" lon="17.338415">
        <ele>23.6</ele>
        <time>2020-03-26T12:17:07Z</time>
        <extensions><gpxtpx:TrackPointExtension><gpxtpx:hr>146</gpxtpx:hr></gpxtpx:TrackPointExtension></extensions>
      </trkpt>
      <trkpt lat="59.053006" lon="17.338431">
        <ele>23.6</ele>
        <time>2020-03-26T12:17:08Z</time>
        <extensions><gpxtpx:TrackPointExtension><gpxtpx:hr>147</gpxtpx:hr></gpxtpx:TrackPointExtension></extensions>
      </trkpt>
      <trkpt lat="59.053069" lon="17.33844">
        <ele>23.8</ele>
        <time>2020-03-26T12:17:09Z</time>
        <extensions><gpxtpx:TrackPointExtension><gpxtpx:hr>147</gpxtpx:hr></gpxtpx:TrackPointExtension></extensions>
      </trkpt>
      <trkpt lat="59.053136" lon="17.338438">
        <ele>24</ele>
        <time>2020-03-26T12:17:10Z</time>
        <extensions><gpxtpx:TrackPointExtension><gpxtpx:hr>147</gpxtpx:hr></gpxtpx:TrackPointExtension></extensions>
      </trkpt>
      <trkpt lat="59.053199" lon="17.338433">
        <ele>24.2</ele>
        <time>2020-03-26T12:17:11Z</time>
        <extensions><gpxtpx:TrackPointExtension><gpxtpx:hr>148</gpxtpx:hr></gpxtpx:TrackPointExtension></extensions>
      </trkpt>
      <trkpt lat="59.053266" lon="17.338421">
        <ele>24.4</ele>
        <time>2020-03-26T12:17:12Z</time>
        <extensions><gpxtpx:TrackPointExtension><gpxtpx:hr>148</gpxtpx:hr></gpxtpx:TrackPointExtension></extensions>
      </trkpt>
      <trkpt lat="59.053335" lon="17.338402">
        <ele>25</ele>
        <time>2020-03-26T12:17:13Z</time>
        <extensions><gpxtpx:TrackPointExtension><gpxtpx:hr>148</gpxtpx:hr></gpxtpx:TrackPointExtension></extensions>
      </trkpt>
      <trkpt lat="59.053402" lon="17.338376">
        <ele>25</ele>
        <time>2020-03-26T12:17:14Z</time>
        <extensions><gpxtpx:TrackPointExtension><gpxtpx:hr>148</gpxtpx:hr></gpxtpx:TrackPointExtension></extensions>
      </trkpt>
      <trkpt lat="59.05347" lon="17.338344">
        <ele>25</ele>
        <time>2020-03-26T12:17:15Z</time>
        <extensions><gpxtpx:TrackPointExtension><gpxtpx:hr>148</gpxtpx:hr></gpxtpx:TrackPointExtension></extensions>
      </trkpt>
      <trkpt lat="59.053538" lon="17.338311">
        <ele>25.2</ele>
        <time>2020-03-26T12:17:16Z</time>
        <extensions><gpxtpx:TrackPointExtension><gpxtpx:hr>148</gpxtpx:hr></gpxtpx:TrackPointExtension></extensions>
      </trkpt>
      <trkpt lat="59.053607" lon="17.338278">
        <ele>25.2</ele>
        <time>2020-03-26T12:17:17Z</time>
        <extensions><gpxtpx:TrackPointExtension><gpxtpx:hr>148</gpxtpx:hr></gpxtpx:TrackPointExtension></extensions>
      </trkpt>
      <trkpt lat="59.053676" lon="17.338247">
        <ele>25.2</ele>
        <time>2020-03-26T12:17:18Z</time>
        <extensions><gpxtpx:TrackPointExtension><gpxtpx:hr>149</gpxtpx:hr></gpxtpx:TrackPointExtension></extensions>
      </trkpt>
      <trkpt lat="59.053748" lon="17.338215">
        <ele>25.2</ele>
        <time>2020-03-26T12:17:19Z</time>
        <extensions><gpxtpx:TrackPointExtension><gpxtpx:hr>149</gpxtpx:hr></gpxtpx:TrackPointExtension></extensions>
      </trkpt>
      <trkpt lat="59.053821" lon="17.338185">
        <ele>25.2</ele>
        <time>2020-03-26T12:17:20Z</time>
        <extensions><gpxtpx:TrackPointExtension><gpxtpx:hr>149</gpxtpx:hr></gpxtpx:TrackPointExtension></extensions>
      </trkpt>
      <trkpt lat="59.053894" lon="17.338157">
        <ele>25.2</ele>
        <time>2020-03-26T12:17:21Z</time>
        <extensions><gpxtpx:TrackPointExtension><gpxtpx:hr>149</gpxtpx:hr></gpxtpx:TrackPointExtension></extensions>
      </trkpt>
      <trkpt lat="59.053968" lon="17.338132">
        <ele>25</ele>
        <time>2020-03-26T12:17:22Z</time>
        <extensions><gpxtpx:TrackPointExtension><gpxtpx:hr>149</gpxtpx:hr></gpxtpx:TrackPointExtension></extensions>
      </trkpt>
      <trkpt lat="59.054042" lon="17.338105">
        <ele>24.8</ele>
        <time>2020-03-26T12:17:23Z</time>
        <extensions><gpxtpx:TrackPointExtension><gpxtpx:hr>149</gpxtpx:hr></gpxtpx:TrackPointExtension></extensions>
      </trkpt>
      <trkpt lat="59.054116" lon="17.338073">
        <ele>24.6</ele>
        <time>2020-03-26T12:17:24Z</time>
        <extensions><gpxtpx:TrackPointExtension><gpxtpx:hr>149</gpxtpx:hr></gpxtpx:TrackPointExtension></extensions>
      </trkpt>
      <trkpt lat="59.05419" lon="17.338039">
        <ele>24.6</ele>
        <time>2020-03-26T12:17:25Z</time>
        <extensions><gpxtpx:TrackPointExtension><gpxtpx:hr>148</gpxtpx:hr></gpxtpx:TrackPointExtension></extensions>
      </trkpt>
      <trkpt lat="59.054264" lon="17.338006">
        <ele>24.6</ele>
        <time>2020-03-26T12:17:26Z</time>
        <extensions><gpxtpx:TrackPointExtension><gpxtpx:hr>148</gpxtpx:hr></gpxtpx:TrackPointExtension></extensions>
      </trkpt>
      <trkpt lat="59.054338" lon="17.337974">
        <ele>24.6</ele>
        <time>2020-03-26T12:17:27Z</time>
        <extensions><gpxtpx:TrackPointExtension><gpxtpx:hr>148</gpxtpx:hr></gpxtpx:TrackPointExtension></extensions>
      </trkpt>
      <trkpt lat="59.054411" lon="17.337942">
        <ele>24.4</ele>
        <time>2020-03-26T12:17:28Z</time>
        <extensions><gpxtpx:TrackPointExtension><gpxtpx:hr>148</gpxtpx:hr></gpxtpx:TrackPointExtension></extensions>
      </trkpt>
      <trkpt lat="59.054483" lon="17.337909">
        <ele>24.2</ele>
        <time>2020-03-26T12:17:29Z</time>
        <extensions><gpxtpx:TrackPointExtension><gpxtpx:hr>148</gpxtpx:hr></gpxtpx:TrackPointExtension></extensions>
      </trkpt>
      <trkpt lat="59.054554" lon="17.337883">
        <ele>24</ele>
        <time>2020-03-26T12:17:30Z</time>
        <extensions><gpxtpx:TrackPointExtension><gpxtpx:hr>147</gpxtpx:hr></gpxtpx:TrackPointExtension></extensions>
      </trkpt>
      <trkpt lat="59.054626" lon="17.337859">
        <ele>24</ele>
        <time>2020-03-26T12:17:31Z</time>
        <extensions><gpxtpx:TrackPointExtension><gpxtpx:hr>147</gpxtpx:hr></gpxtpx:TrackPointExtension></extensions>
      </trkpt>
      <trkpt lat="59.054699" lon="17.337836">
        <ele>24</ele>
        <time>2020-03-26T12:17:32Z</time>
        <extensions><gpxtpx:TrackPointExtension><gpxtpx:hr>146</gpxtpx:hr></gpxtpx:TrackPointExtension></extensions>
      </trkpt>
      <trkpt lat="59.054772" lon="17.337813">
        <ele>24</ele>
        <time>2020-03-26T12:17:33Z</time>
        <extensions><gpxtpx:TrackPointExtension><gpxtpx:hr>146</gpxtpx:hr></gpxtpx:TrackPointExtension></extensions>
      </trkpt>
      <trkpt lat="59.054844" lon="17.337791">
        <ele>23.8</ele>
        <time>2020-03-26T12:17:34Z</time>
        <extensions><gpxtpx:TrackPointExtension><gpxtpx:hr>145</gpxtpx:hr></gpxtpx:TrackPointExtension></extensions>
      </trkpt>
      <trkpt lat="59.054916" lon="17.337772">
        <ele>23.8</ele>
        <time>2020-03-26T12:17:35Z</time>
        <extensions><gpxtpx:TrackPointExtension><gpxtpx:hr>145</gpxtpx:hr></gpxtpx:TrackPointExtension></extensions>
      </trkpt>
      <trkpt lat="59.054985" lon="17.337757">
        <ele>23.8</ele>
        <time>2020-03-26T12:17:36Z</time>
        <extensions><gpxtpx:TrackPointExtension><gpxtpx:hr>145</gpxtpx:hr></gpxtpx:TrackPointExtension></extensions>
      </trkpt>
      <trkpt lat="59.055058" lon="17.337741">
        <ele>23.8</ele>
        <time>2020-03-26T12:17:37Z</time>
        <extensions><gpxtpx:TrackPointExtension><gpxtpx:hr>144</gpxtpx:hr></gpxtpx:TrackPointExtension></extensions>
      </trkpt>
      <trkpt lat="59.055129" lon="17.337722">
        <ele>23.8</ele>
        <time>2020-03-26T12:17:38Z</time>
        <extensions><gpxtpx:TrackPointExtension><gpxtpx:hr>144</gpxtpx:hr></gpxtpx:TrackPointExtension></extensions>
      </trkpt>
      <trkpt lat="59.0552" lon="17.337702">
        <ele>23.8</ele>
        <time>2020-03-26T12:17:39Z</time>
        <extensions><gpxtpx:TrackPointExtension><gpxtpx:hr>144</gpxtpx:hr></gpxtpx:TrackPointExtension></extensions>
      </trkpt>
      <trkpt lat="59.055272" lon="17.337682">
        <ele>23.8</ele>
        <time>2020-03-26T12:17:40Z</time>
        <extensions><gpxtpx:TrackPointExtension><gpxtpx:hr>144</gpxtpx:hr></gpxtpx:TrackPointExtension></extensions>
      </trkpt>
      <trkpt lat="59.055343" lon="17.337663">
        <ele>23.8</ele>
        <time>2020-03-26T12:17:41Z</time>
        <extensions><gpxtpx:TrackPointExtension><gpxtpx:hr>144</gpxtpx:hr></gpxtpx:TrackPointExtension></extensions>
      </trkpt>
      <trkpt lat="59.055414" lon="17.337645">
        <ele>24</ele>
        <time>2020-03-26T12:17:42Z</time>
        <extensions><gpxtpx:TrackPointExtension><gpxtpx:hr>143</gpxtpx:hr></gpxtpx:TrackPointExtension></extensions>
      </trkpt>
      <trkpt lat="59.055486" lon="17.337627">
        <ele>24.2</ele>
        <time>2020-03-26T12:17:43Z</time>
        <extensions><gpxtpx:TrackPointExtension><gpxtpx:hr>143</gpxtpx:hr></gpxtpx:TrackPointExtension></extensions>
      </trkpt>
      <trkpt lat="59.055557" lon="17.337609">
        <ele>24.2</ele>
        <time>2020-03-26T12:17:44Z</time>
        <extensions><gpxtpx:TrackPointExtension><gpxtpx:hr>143</gpxtpx:hr></gpxtpx:TrackPointExtension></extensions>
      </trkpt>
      <trkpt lat="59.055628" lon="17.337592">
        <ele>24.4</ele>
        <time>2020-03-26T12:17:45Z</time>
        <extensions><gpxtpx:TrackPointExtension><gpxtpx:hr>143</gpxtpx:hr></gpxtpx:TrackPointExtension></extensions>
      </trkpt>
      <trkpt lat="59.055699" lon="17.337577">
        <ele>24.4</ele>
        <time>2020-03-26T12:17:46Z</time>
        <extensions><gpxtpx:TrackPointExtension><gpxtpx:hr>142</gpxtpx:hr></gpxtpx:TrackPointExtension></extensions>
      </trkpt>
      <trkpt lat="59.055769" lon="17.337566">
        <ele>24.4</ele>
        <time>2020-03-26T12:17:47Z</time>
        <extensions><gpxtpx:TrackPointExtension><gpxtpx:hr>142</gpxtpx:hr></gpxtpx:TrackPointExtension></extensions>
      </trkpt>
      <trkpt lat="59.055837" lon="17.337558">
        <ele>24.4</ele>
        <time>2020-03-26T12:17:48Z</time>
        <extensions><gpxtpx:TrackPointExtension><gpxtpx:hr>142</gpxtpx:hr></gpxtpx:TrackPointExtension></extensions>
      </trkpt>
      <trkpt lat="59.055903" lon="17.337549">
        <ele>24.6</ele>
        <time>2020-03-26T12:17:49Z</time>
        <extensions><gpxtpx:TrackPointExtension><gpxtpx:hr>142</gpxtpx:hr></gpxtpx:TrackPointExtension></extensions>
      </trkpt>
      <trkpt lat="59.055967" lon="17.33754">
        <ele>24.6</ele>
        <time>2020-03-26T12:17:50Z</time>
        <extensions><gpxtpx:TrackPointExtension><gpxtpx:hr>142</gpxtpx:hr></gpxtpx:TrackPointExtension></extensions>
      </trkpt>
      <trkpt lat="59.056028" lon="17.337535">
        <ele>24.6</ele>
        <time>2020-03-26T12:17:51Z</time>
        <extensions><gpxtpx:TrackPointExtension><gpxtpx:hr>142</gpxtpx:hr></gpxtpx:TrackPointExtension></extensions>
      </trkpt>
      <trkpt lat="59.056087" lon="17.337533">
        <ele>24.6</ele>
        <time>2020-03-26T12:17:52Z</time>
        <extensions><gpxtpx:TrackPointExtension><gpxtpx:hr>142</gpxtpx:hr></gpxtpx:TrackPointExtension></extensions>
      </trkpt>
      <trkpt lat="59.056142" lon="17.337531">
        <ele>24.6</ele>
        <time>2020-03-26T12:17:53Z</time>
        <extensions><gpxtpx:TrackPointExtension><gpxtpx:hr>143</gpxtpx:hr></gpxtpx:TrackPointExtension></extensions>
      </trkpt>
      <trkpt lat="59.056195" lon="17.337525">
        <ele>24.8</ele>
        <time>2020-03-26T12:17:54Z</time>
        <extensions><gpxtpx:TrackPointExtension><gpxtpx:hr>143</gpxtpx:hr></gpxtpx:TrackPointExtension></extensions>
      </trkpt>
      <trkpt lat="59.056244" lon="17.33752">
        <ele>25</ele>
        <time>2020-03-26T12:17:55Z</time>
        <extensions><gpxtpx:TrackPointExtension><gpxtpx:hr>143</gpxtpx:hr></gpxtpx:TrackPointExtension></extensions>
      </trkpt>
      <trkpt lat="59.056291" lon="17.337516">
        <ele>25.2</ele>
        <time>2020-03-26T12:17:56Z</time>
        <extensions><gpxtpx:TrackPointExtension><gpxtpx:hr>143</gpxtpx:hr></gpxtpx:TrackPointExtension></extensions>
      </trkpt>
      <trkpt lat="59.056336" lon="17.337513">
        <ele>25.4</ele>
        <time>2020-03-26T12:17:57Z</time>
        <extensions><gpxtpx:TrackPointExtension><gpxtpx:hr>143</gpxtpx:hr></gpxtpx:TrackPointExtension></extensions>
      </trkpt>
      <trkpt lat="59.056382" lon="17.337511">
        <ele>25.8</ele>
        <time>2020-03-26T12:17:58Z</time>
        <extensions><gpxtpx:TrackPointExtension><gpxtpx:hr>143</gpxtpx:hr></gpxtpx:TrackPointExtension></extensions>
      </trkpt>
      <trkpt lat="59.056427" lon="17.337508">
        <ele>26.2</ele>
        <time>2020-03-26T12:17:59Z</time>
        <extensions><gpxtpx:TrackPointExtension><gpxtpx:hr>143</gpxtpx:hr></gpxtpx:TrackPointExtension></extensions>
      </trkpt>
      <trkpt lat="59.056471" lon="17.337502">
        <ele>26.4</ele>
        <time>2020-03-26T12:18:00Z</time>
        <extensions><gpxtpx:TrackPointExtension><gpxtpx:hr>143</gpxtpx:hr></gpxtpx:TrackPointExtension></extensions>
      </trkpt>
      <trkpt lat="59.056516" lon="17.337492">
        <ele>26.8</ele>
        <time>2020-03-26T12:18:01Z</time>
        <extensions><gpxtpx:TrackPointExtension><gpxtpx:hr>143</gpxtpx:hr></gpxtpx:TrackPointExtension></extensions>
      </trkpt>
      <trkpt lat="59.056561" lon="17.337486">
        <ele>27.2</ele>
        <time>2020-03-26T12:18:02Z</time>
        <extensions><gpxtpx:TrackPointExtension><gpxtpx:hr>144</gpxtpx:hr></gpxtpx:TrackPointExtension></extensions>
      </trkpt>
      <trkpt lat="59.056606" lon="17.337477">
        <ele>27.6</ele>
        <time>2020-03-26T12:18:03Z</time>
        <extensions><gpxtpx:TrackPointExtension><gpxtpx:hr>145</gpxtpx:hr></gpxtpx:TrackPointExtension></extensions>
      </trkpt>
      <trkpt lat="59.056652" lon="17.337467">
        <ele>28.2</ele>
        <time>2020-03-26T12:18:04Z</time>
        <extensions><gpxtpx:TrackPointExtension><gpxtpx:hr>145</gpxtpx:hr></gpxtpx:TrackPointExtension></extensions>
      </trkpt>
      <trkpt lat="59.056697" lon="17.337454">
        <ele>28.6</ele>
        <time>2020-03-26T12:18:05Z</time>
        <extensions><gpxtpx:TrackPointExtension><gpxtpx:hr>147</gpxtpx:hr></gpxtpx:TrackPointExtension></extensions>
      </trkpt>
      <trkpt lat="59.056739" lon="17.337437">
        <ele>29</ele>
        <time>2020-03-26T12:18:06Z</time>
        <extensions><gpxtpx:TrackPointExtension><gpxtpx:hr>147</gpxtpx:hr></gpxtpx:TrackPointExtension></extensions>
      </trkpt>
      <trkpt lat="59.05678" lon="17.337421">
        <ele>29.2</ele>
        <time>2020-03-26T12:18:07Z</time>
        <extensions><gpxtpx:TrackPointExtension><gpxtpx:hr>148</gpxtpx:hr></gpxtpx:TrackPointExtension></extensions>
      </trkpt>
      <trkpt lat="59.056819" lon="17.337407">
        <ele>29.6</ele>
        <time>2020-03-26T12:18:08Z</time>
        <extensions><gpxtpx:TrackPointExtension><gpxtpx:hr>149</gpxtpx:hr></gpxtpx:TrackPointExtension></extensions>
      </trkpt>
      <trkpt lat="59.05686" lon="17.337394">
        <ele>30</ele>
        <time>2020-03-26T12:18:09Z</time>
        <extensions><gpxtpx:TrackPointExtension><gpxtpx:hr>150</gpxtpx:hr></gpxtpx:TrackPointExtension></extensions>
      </trkpt>
      <trkpt lat="59.056901" lon="17.337381">
        <ele>30.4</ele>
        <time>2020-03-26T12:18:10Z</time>
        <extensions><gpxtpx:TrackPointExtension><gpxtpx:hr>151</gpxtpx:hr></gpxtpx:TrackPointExtension></extensions>
      </trkpt>
      <trkpt lat="59.056944" lon="17.337366">
        <ele>31.4</ele>
        <time>2020-03-26T12:18:11Z</time>
        <extensions><gpxtpx:TrackPointExtension><gpxtpx:hr>153</gpxtpx:hr></gpxtpx:TrackPointExtension></extensions>
      </trkpt>
      <trkpt lat="59.056986" lon="17.33735">
        <ele>31.8</ele>
        <time>2020-03-26T12:18:12Z</time>
        <extensions><gpxtpx:TrackPointExtension><gpxtpx:hr>154</gpxtpx:hr></gpxtpx:TrackPointExtension></extensions>
      </trkpt>
      <trkpt lat="59.057028" lon="17.337333">
        <ele>32.4</ele>
        <time>2020-03-26T12:18:13Z</time>
        <extensions><gpxtpx:TrackPointExtension><gpxtpx:hr>155</gpxtpx:hr></gpxtpx:TrackPointExtension></extensions>
      </trkpt>
      <trkpt lat="59.057072" lon="17.337314">
        <ele>32.8</ele>
        <time>2020-03-26T12:18:14Z</time>
        <extensions><gpxtpx:TrackPointExtension><gpxtpx:hr>156</gpxtpx:hr></gpxtpx:TrackPointExtension></extensions>
      </trkpt>
      <trkpt lat="59.057117" lon="17.337291">
        <ele>33.2</ele>
        <time>2020-03-26T12:18:15Z</time>
        <extensions><gpxtpx:TrackPointExtension><gpxtpx:hr>157</gpxtpx:hr></gpxtpx:TrackPointExtension></extensions>
      </trkpt>
      <trkpt lat="59.057163" lon="17.337268">
        <ele>33.6</ele>
        <time>2020-03-26T12:18:16Z</time>
        <extensions><gpxtpx:TrackPointExtension><gpxtpx:hr>157</gpxtpx:hr></gpxtpx:TrackPointExtension></extensions>
      </trkpt>
      <trkpt lat="59.057211" lon="17.337246">
        <ele>34.2</ele>
        <time>2020-03-26T12:18:17Z</time>
        <extensions><gpxtpx:TrackPointExtension><gpxtpx:hr>158</gpxtpx:hr></gpxtpx:TrackPointExtension></extensions>
      </trkpt>
      <trkpt lat="59.057262" lon="17.337223">
        <ele>34.6</ele>
        <time>2020-03-26T12:18:18Z</time>
        <extensions><gpxtpx:TrackPointExtension><gpxtpx:hr>159</gpxtpx:hr></gpxtpx:TrackPointExtension></extensions>
      </trkpt>
      <trkpt lat="59.057318" lon="17.337195">
        <ele>35</ele>
        <time>2020-03-26T12:18:19Z</time>
        <extensions><gpxtpx:TrackPointExtension><gpxtpx:hr>159</gpxtpx:hr></gpxtpx:TrackPointExtension></extensions>
      </trkpt>
      <trkpt lat="59.057374" lon="17.337164">
        <ele>35.4</ele>
        <time>2020-03-26T12:18:20Z</time>
        <extensions><gpxtpx:TrackPointExtension><gpxtpx:hr>159</gpxtpx:hr></gpxtpx:TrackPointExtension></extensions>
      </trkpt>
      <trkpt lat="59.057429" lon="17.337134">
        <ele>35.8</ele>
        <time>2020-03-26T12:18:21Z</time>
        <extensions><gpxtpx:TrackPointExtension><gpxtpx:hr>160</gpxtpx:hr></gpxtpx:TrackPointExtension></extensions>
      </trkpt>
      <trkpt lat="59.057485" lon="17.337103">
        <ele>35.8</ele>
        <time>2020-03-26T12:18:22Z</time>
        <extensions><gpxtpx:TrackPointExtension><gpxtpx:hr>160</gpxtpx:hr></gpxtpx:TrackPointExtension></extensions>
      </trkpt>
      <trkpt lat="59.057544" lon="17.337076">
        <ele>36.2</ele>
        <time>2020-03-26T12:18:23Z</time>
        <extensions><gpxtpx:TrackPointExtension><gpxtpx:hr>160</gpxtpx:hr></gpxtpx:TrackPointExtension></extensions>
      </trkpt>
      <trkpt lat="59.057604" lon="17.337049">
        <ele>36.4</ele>
        <time>2020-03-26T12:18:24Z</time>
        <extensions><gpxtpx:TrackPointExtension><gpxtpx:hr>161</gpxtpx:hr></gpxtpx:TrackPointExtension></extensions>
      </trkpt>
      <trkpt lat="59.057663" lon="17.337024">
        <ele>36.6</ele>
        <time>2020-03-26T12:18:25Z</time>
        <extensions><gpxtpx:TrackPointExtension><gpxtpx:hr>161</gpxtpx:hr></gpxtpx:TrackPointExtension></extensions>
      </trkpt>
      <trkpt lat="59.057724" lon="17.336998">
        <ele>36.6</ele>
        <time>2020-03-26T12:18:26Z</time>
        <extensions><gpxtpx:TrackPointExtension><gpxtpx:hr>161</gpxtpx:hr></gpxtpx:TrackPointExtension></extensions>
      </trkpt>
      <trkpt lat="59.057786" lon="17.33697">
        <ele>36.8</ele>
        <time>2020-03-26T12:18:27Z</time>
        <extensions><gpxtpx:TrackPointExtension><gpxtpx:hr>161</gpxtpx:hr></gpxtpx:TrackPointExtension></extensions>
      </trkpt>
      <trkpt lat="59.05785" lon="17.336943">
        <ele>36.8</ele>
        <time>2020-03-26T12:18:28Z</time>
        <extensions><gpxtpx:TrackPointExtension><gpxtpx:hr>162</gpxtpx:hr></gpxtpx:TrackPointExtension></extensions>
      </trkpt>
      <trkpt lat="59.057916" lon="17.336911">
        <ele>36.8</ele>
        <time>2020-03-26T12:18:29Z</time>
        <extensions><gpxtpx:TrackPointExtension><gpxtpx:hr>162</gpxtpx:hr></gpxtpx:TrackPointExtension></extensions>
      </trkpt>
      <trkpt lat="59.057983" lon="17.336878">
        <ele>36.8</ele>
        <time>2020-03-26T12:18:30Z</time>
        <extensions><gpxtpx:TrackPointExtension><gpxtpx:hr>162</gpxtpx:hr></gpxtpx:TrackPointExtension></extensions>
      </trkpt>
      <trkpt lat="59.058052" lon="17.336843">
        <ele>36.8</ele>
        <time>2020-03-26T12:18:31Z</time>
        <extensions><gpxtpx:TrackPointExtension><gpxtpx:hr>162</gpxtpx:hr></gpxtpx:TrackPointExtension></extensions>
      </trkpt>
      <trkpt lat="59.058124" lon="17.336809">
        <ele>36.8</ele>
        <time>2020-03-26T12:18:32Z</time>
        <extensions><gpxtpx:TrackPointExtension><gpxtpx:hr>162</gpxtpx:hr></gpxtpx:TrackPointExtension></extensions>
      </trkpt>
      <trkpt lat="59.058197" lon="17.336773">
        <ele>36.8</ele>
        <time>2020-03-26T12:18:33Z</time>
        <extensions><gpxtpx:TrackPointExtension><gpxtpx:hr>162</gpxtpx:hr></gpxtpx:TrackPointExtension></extensions>
      </trkpt>
      <trkpt lat="59.05827" lon="17.336737">
        <ele>36.8</ele>
        <time>2020-03-26T12:18:34Z</time>
        <extensions><gpxtpx:TrackPointExtension><gpxtpx:hr>161</gpxtpx:hr></gpxtpx:TrackPointExtension></extensions>
      </trkpt>
      <trkpt lat="59.058343" lon="17.336701">
        <ele>36.8</ele>
        <time>2020-03-26T12:18:35Z</time>
        <extensions><gpxtpx:TrackPointExtension><gpxtpx:hr>161</gpxtpx:hr></gpxtpx:TrackPointExtension></extensions>
      </trkpt>
      <trkpt lat="59.058415" lon="17.336667">
        <ele>36.6</ele>
        <time>2020-03-26T12:18:36Z</time>
        <extensions><gpxtpx:TrackPointExtension><gpxtpx:hr>161</gpxtpx:hr></gpxtpx:TrackPointExtension></extensions>
      </trkpt>
      <trkpt lat="59.058488" lon="17.336632">
        <ele>36.4</ele>
        <time>2020-03-26T12:18:37Z</time>
        <extensions><gpxtpx:TrackPointExtension><gpxtpx:hr>160</gpxtpx:hr></gpxtpx:TrackPointExtension></extensions>
      </trkpt>
      <trkpt lat="59.058559" lon="17.336599">
        <ele>36.2</ele>
        <time>2020-03-26T12:18:38Z</time>
        <extensions><gpxtpx:TrackPointExtension><gpxtpx:hr>160</gpxtpx:hr></gpxtpx:TrackPointExtension></extensions>
      </trkpt>
      <trkpt lat="59.05863" lon="17.336567">
        <ele>36</ele>
        <time>2020-03-26T12:18:39Z</time>
        <extensions><gpxtpx:TrackPointExtension><gpxtpx:hr>159</gpxtpx:hr></gpxtpx:TrackPointExtension></extensions>
      </trkpt>
      <trkpt lat="59.058704" lon="17.336533">
        <ele>35.8</ele>
        <time>2020-03-26T12:18:40Z</time>
        <extensions><gpxtpx:TrackPointExtension><gpxtpx:hr>159</gpxtpx:hr></gpxtpx:TrackPointExtension></extensions>
      </trkpt>
      <trkpt lat="59.058779" lon="17.336499">
        <ele>35.2</ele>
        <time>2020-03-26T12:18:41Z</time>
        <extensions><gpxtpx:TrackPointExtension><gpxtpx:hr>158</gpxtpx:hr></gpxtpx:TrackPointExtension></extensions>
      </trkpt>
      <trkpt lat="59.058846" lon="17.336465">
        <ele>35.2</ele>
        <time>2020-03-26T12:18:42Z</time>
        <extensions><gpxtpx:TrackPointExtension><gpxtpx:hr>158</gpxtpx:hr></gpxtpx:TrackPointExtension></extensions>
      </trkpt>
      <trkpt lat="59.05892" lon="17.336432">
        <ele>35</ele>
        <time>2020-03-26T12:18:43Z</time>
        <extensions><gpxtpx:TrackPointExtension><gpxtpx:hr>157</gpxtpx:hr></gpxtpx:TrackPointExtension></extensions>
      </trkpt>
      <trkpt lat="59.058993" lon="17.336399">
        <ele>35</ele>
        <time>2020-03-26T12:18:44Z</time>
        <extensions><gpxtpx:TrackPointExtension><gpxtpx:hr>157</gpxtpx:hr></gpxtpx:TrackPointExtension></extensions>
      </trkpt>
      <trkpt lat="59.059066" lon="17.336367">
        <ele>34.8</ele>
        <time>2020-03-26T12:18:45Z</time>
        <extensions><gpxtpx:TrackPointExtension><gpxtpx:hr>157</gpxtpx:hr></gpxtpx:TrackPointExtension></extensions>
      </trkpt>
      <trkpt lat="59.059139" lon="17.336335">
        <ele>34.6</ele>
        <time>2020-03-26T12:18:46Z</time>
        <extensions><gpxtpx:TrackPointExtension><gpxtpx:hr>157</gpxtpx:hr></gpxtpx:TrackPointExtension></extensions>
      </trkpt>
      <trkpt lat="59.059212" lon="17.336302">
        <ele>34.6</ele>
        <time>2020-03-26T12:18:47Z</time>
        <extensions><gpxtpx:TrackPointExtension><gpxtpx:hr>156</gpxtpx:hr></gpxtpx:TrackPointExtension></extensions>
      </trkpt>
      <trkpt lat="59.059286" lon="17.336267">
        <ele>34.6</ele>
        <time>2020-03-26T12:18:48Z</time>
        <extensions><gpxtpx:TrackPointExtension><gpxtpx:hr>156</gpxtpx:hr></gpxtpx:TrackPointExtension></extensions>
      </trkpt>
      <trkpt lat="59.059359" lon="17.336228">
        <ele>34.6</ele>
        <time>2020-03-26T12:18:49Z</time>
        <extensions><gpxtpx:TrackPointExtension><gpxtpx:hr>155</gpxtpx:hr></gpxtpx:TrackPointExtension></extensions>
      </trkpt>
      <trkpt lat="59.059432" lon="17.336187">
        <ele>34.4</ele>
        <time>2020-03-26T12:18:50Z</time>
        <extensions><gpxtpx:TrackPointExtension><gpxtpx:hr>155</gpxtpx:hr></gpxtpx:TrackPointExtension></extensions>
      </trkpt>
      <trkpt lat="59.059506" lon="17.336148">
        <ele>34.4</ele>
        <time>2020-03-26T12:18:51Z</time>
        <extensions><gpxtpx:TrackPointExtension><gpxtpx:hr>155</gpxtpx:hr></gpxtpx:TrackPointExtension></extensions>
      </trkpt>
      <trkpt lat="59.05958" lon="17.336113">
        <ele>34.4</ele>
        <time>2020-03-26T12:18:52Z</time>
        <extensions><gpxtpx:TrackPointExtension><gpxtpx:hr>154</gpxtpx:hr></gpxtpx:TrackPointExtension></extensions>
      </trkpt>
      <trkpt lat="59.059653" lon="17.336085">
        <ele>34.4</ele>
        <time>2020-03-26T12:18:53Z</time>
        <extensions><gpxtpx:TrackPointExtension><gpxtpx:hr>154</gpxtpx:hr></gpxtpx:TrackPointExtension></extensions>
      </trkpt>
      <trkpt lat="59.059728" lon="17.336061">
        <ele>34.4</ele>
        <time>2020-03-26T12:18:54Z</time>
        <extensions><gpxtpx:TrackPointExtension><gpxtpx:hr>153</gpxtpx:hr></gpxtpx:TrackPointExtension></extensions>
      </trkpt>
      <trkpt lat="59.059803" lon="17.336036">
        <ele>34.4</ele>
        <time>2020-03-26T12:18:55Z</time>
        <extensions><gpxtpx:TrackPointExtension><gpxtpx:hr>153</gpxtpx:hr></gpxtpx:TrackPointExtension></extensions>
      </trkpt>
      <trkpt lat="59.059878" lon="17.336007">
        <ele>34.4</ele>
        <time>2020-03-26T12:18:56Z</time>
        <extensions><gpxtpx:TrackPointExtension><gpxtpx:hr>152</gpxtpx:hr></gpxtpx:TrackPointExtension></extensions>
      </trkpt>
      <trkpt lat="59.059953" lon="17.335974">
        <ele>34.4</ele>
        <time>2020-03-26T12:18:57Z</time>
        <extensions><gpxtpx:TrackPointExtension><gpxtpx:hr>152</gpxtpx:hr></gpxtpx:TrackPointExtension></extensions>
      </trkpt>
      <trkpt lat="59.060028" lon="17.335939">
        <ele>34.4</ele>
        <time>2020-03-26T12:18:58Z</time>
        <extensions><gpxtpx:TrackPointExtension><gpxtpx:hr>152</gpxtpx:hr></gpxtpx:TrackPointExtension></extensions>
      </trkpt>
      <trkpt lat="59.0601" lon="17.335903">
        <ele>34.4</ele>
        <time>2020-03-26T12:18:59Z</time>
        <extensions><gpxtpx:TrackPointExtension><gpxtpx:hr>151</gpxtpx:hr></gpxtpx:TrackPointExtension></extensions>
      </trkpt>
      <trkpt lat="59.060172" lon="17.335866">
        <ele>34.4</ele>
        <time>2020-03-26T12:19:00Z</time>
        <extensions><gpxtpx:TrackPointExtension><gpxtpx:hr>151</gpxtpx:hr></gpxtpx:TrackPointExtension></extensions>
      </trkpt>
      <trkpt lat="59.060243" lon="17.335826">
        <ele>34.4</ele>
        <time>2020-03-26T12:19:01Z</time>
        <extensions><gpxtpx:TrackPointExtension><gpxtpx:hr>151</gpxtpx:hr></gpxtpx:TrackPointExtension></extensions>
      </trkpt>
      <trkpt lat="59.060314" lon="17.335787">
        <ele>34.4</ele>
        <time>2020-03-26T12:19:02Z</time>
        <extensions><gpxtpx:TrackPointExtension><gpxtpx:hr>150</gpxtpx:hr></gpxtpx:TrackPointExtension></extensions>
      </trkpt>
      <trkpt lat="59.060385" lon="17.33575">
        <ele>34.4</ele>
        <time>2020-03-26T12:19:03Z</time>
        <extensions><gpxtpx:TrackPointExtension><gpxtpx:hr>150</gpxtpx:hr></gpxtpx:TrackPointExtension></extensions>
      </trkpt>
      <trkpt lat="59.060455" lon="17.335711">
        <ele>34.4</ele>
        <time>2020-03-26T12:19:04Z</time>
        <extensions><gpxtpx:TrackPointExtension><gpxtpx:hr>149</gpxtpx:hr></gpxtpx:TrackPointExtension></extensions>
      </trkpt>
      <trkpt lat="59.060525" lon="17.335669">
        <ele>34.4</ele>
        <time>2020-03-26T12:19:05Z</time>
        <extensions><gpxtpx:TrackPointExtension><gpxtpx:hr>149</gpxtpx:hr></gpxtpx:TrackPointExtension></extensions>
      </trkpt>
      <trkpt lat="59.060597" lon="17.335621">
        <ele>34.4</ele>
        <time>2020-03-26T12:19:06Z</time>
        <extensions><gpxtpx:TrackPointExtension><gpxtpx:hr>149</gpxtpx:hr></gpxtpx:TrackPointExtension></extensions>
      </trkpt>
      <trkpt lat="59.060667" lon="17.335572">
        <ele>34.2</ele>
        <time>2020-03-26T12:19:07Z</time>
        <extensions><gpxtpx:TrackPointExtension><gpxtpx:hr>148</gpxtpx:hr></gpxtpx:TrackPointExtension></extensions>
      </trkpt>
      <trkpt lat="59.060736" lon="17.335522">
        <ele>34.2</ele>
        <time>2020-03-26T12:19:08Z</time>
        <extensions><gpxtpx:TrackPointExtension><gpxtpx:hr>148</gpxtpx:hr></gpxtpx:TrackPointExtension></extensions>
      </trkpt>
      <trkpt lat="59.060808" lon="17.335475">
        <ele>34.2</ele>
        <time>2020-03-26T12:19:09Z</time>
        <extensions><gpxtpx:TrackPointExtension><gpxtpx:hr>147</gpxtpx:hr></gpxtpx:TrackPointExtension></extensions>
      </trkpt>
      <trkpt lat="59.060879" lon="17.335424">
        <ele>34.2</ele>
        <time>2020-03-26T12:19:10Z</time>
        <extensions><gpxtpx:TrackPointExtension><gpxtpx:hr>146</gpxtpx:hr></gpxtpx:TrackPointExtension></extensions>
      </trkpt>
      <trkpt lat="59.060948" lon="17.335363">
        <ele>34.2</ele>
        <time>2020-03-26T12:19:11Z</time>
        <extensions><gpxtpx:TrackPointExtension><gpxtpx:hr>146</gpxtpx:hr></gpxtpx:TrackPointExtension></extensions>
      </trkpt>
      <trkpt lat="59.061014" lon="17.335303">
        <ele>34.2</ele>
        <time>2020-03-26T12:19:12Z</time>
        <extensions><gpxtpx:TrackPointExtension><gpxtpx:hr>146</gpxtpx:hr></gpxtpx:TrackPointExtension></extensions>
      </trkpt>
      <trkpt lat="59.061083" lon="17.335244">
        <ele>34.2</ele>
        <time>2020-03-26T12:19:13Z</time>
        <extensions><gpxtpx:TrackPointExtension><gpxtpx:hr>146</gpxtpx:hr></gpxtpx:TrackPointExtension></extensions>
      </trkpt>
      <trkpt lat="59.06115" lon="17.335184">
        <ele>34.2</ele>
        <time>2020-03-26T12:19:14Z</time>
        <extensions><gpxtpx:TrackPointExtension><gpxtpx:hr>146</gpxtpx:hr></gpxtpx:TrackPointExtension></extensions>
      </trkpt>
      <trkpt lat="59.061218" lon="17.335124">
        <ele>34.2</ele>
        <time>2020-03-26T12:19:15Z</time>
        <extensions><gpxtpx:TrackPointExtension><gpxtpx:hr>145</gpxtpx:hr></gpxtpx:TrackPointExtension></extensions>
      </trkpt>
      <trkpt lat="59.061288" lon="17.335059">
        <ele>34.2</ele>
        <time>2020-03-26T12:19:16Z</time>
        <extensions><gpxtpx:TrackPointExtension><gpxtpx:hr>145</gpxtpx:hr></gpxtpx:TrackPointExtension></extensions>
      </trkpt>
      <trkpt lat="59.061356" lon="17.334987">
        <ele>34</ele>
        <time>2020-03-26T12:19:17Z</time>
        <extensions><gpxtpx:TrackPointExtension><gpxtpx:hr>145</gpxtpx:hr></gpxtpx:TrackPointExtension></extensions>
      </trkpt>
      <trkpt lat="59.061425" lon="17.334909">
        <ele>34</ele>
        <time>2020-03-26T12:19:18Z</time>
        <extensions><gpxtpx:TrackPointExtension><gpxtpx:hr>144</gpxtpx:hr></gpxtpx:TrackPointExtension></extensions>
      </trkpt>
      <trkpt lat="59.061495" lon="17.334836">
        <ele>33.8</ele>
        <time>2020-03-26T12:19:19Z</time>
        <extensions><gpxtpx:TrackPointExtension><gpxtpx:hr>144</gpxtpx:hr></gpxtpx:TrackPointExtension></extensions>
      </trkpt>
      <trkpt lat="59.061565" lon="17.334764">
        <ele>33.6</ele>
        <time>2020-03-26T12:19:20Z</time>
        <extensions><gpxtpx:TrackPointExtension><gpxtpx:hr>143</gpxtpx:hr></gpxtpx:TrackPointExtension></extensions>
      </trkpt>
      <trkpt lat="59.061637" lon="17.334688">
        <ele>33.6</ele>
        <time>2020-03-26T12:19:21Z</time>
        <extensions><gpxtpx:TrackPointExtension><gpxtpx:hr>142</gpxtpx:hr></gpxtpx:TrackPointExtension></extensions>
      </trkpt>
      <trkpt lat="59.06171" lon="17.334613">
        <ele>33.4</ele>
        <time>2020-03-26T12:19:22Z</time>
        <extensions><gpxtpx:TrackPointExtension><gpxtpx:hr>141</gpxtpx:hr></gpxtpx:TrackPointExtension></extensions>
      </trkpt>
      <trkpt lat="59.061782" lon="17.33454">
        <ele>33.2</ele>
        <time>2020-03-26T12:19:23Z</time>
        <extensions><gpxtpx:TrackPointExtension><gpxtpx:hr>140</gpxtpx:hr></gpxtpx:TrackPointExtension></extensions>
      </trkpt>
      <trkpt lat="59.061858" lon="17.334462">
        <ele>33</ele>
        <time>2020-03-26T12:19:24Z</time>
        <extensions><gpxtpx:TrackPointExtension><gpxtpx:hr>140</gpxtpx:hr></gpxtpx:TrackPointExtension></extensions>
      </trkpt>
      <trkpt lat="59.061933" lon="17.334381">
        <ele>32.8</ele>
        <time>2020-03-26T12:19:25Z</time>
        <extensions><gpxtpx:TrackPointExtension><gpxtpx:hr>140</gpxtpx:hr></gpxtpx:TrackPointExtension></extensions>
      </trkpt>
      <trkpt lat="59.062008" lon="17.334297">
        <ele>32.4</ele>
        <time>2020-03-26T12:19:26Z</time>
        <extensions><gpxtpx:TrackPointExtension><gpxtpx:hr>140</gpxtpx:hr></gpxtpx:TrackPointExtension></extensions>
      </trkpt>
      <trkpt lat="59.062085" lon="17.334212">
        <ele>32.2</ele>
        <time>2020-03-26T12:19:27Z</time>
        <extensions><gpxtpx:TrackPointExtension><gpxtpx:hr>139</gpxtpx:hr></gpxtpx:TrackPointExtension></extensions>
      </trkpt>
      <trkpt lat="59.062162" lon="17.334127">
        <ele>31.8</ele>
        <time>2020-03-26T12:19:28Z</time>
        <extensions><gpxtpx:TrackPointExtension><gpxtpx:hr>139</gpxtpx:hr></gpxtpx:TrackPointExtension></extensions>
      </trkpt>
      <trkpt lat="59.062245" lon="17.33404">
        <ele>31.6</ele>
        <time>2020-03-26T12:19:29Z</time>
        <extensions><gpxtpx:TrackPointExtension><gpxtpx:hr>138</gpxtpx:hr></gpxtpx:TrackPointExtension></extensions>
      </trkpt>
      <trkpt lat="59.062333" lon="17.333953">
        <ele>31.2</ele>
        <time>2020-03-26T12:19:30Z</time>
        <extensions><gpxtpx:TrackPointExtension><gpxtpx:hr>138</gpxtpx:hr></gpxtpx:TrackPointExtension></extensions>
      </trkpt>
      <trkpt lat="59.062409" lon="17.333863">
        <ele>31.2</ele>
        <time>2020-03-26T12:19:31Z</time>
        <extensions><gpxtpx:TrackPointExtension><gpxtpx:hr>137</gpxtpx:hr></gpxtpx:TrackPointExtension></extensions>
      </trkpt>
      <trkpt lat="59.062494" lon="17.33377">
        <ele>30.6</ele>
        <time>2020-03-26T12:19:32Z</time>
        <extensions><gpxtpx:TrackPointExtension><gpxtpx:hr>136</gpxtpx:hr></gpxtpx:TrackPointExtension></extensions>
      </trkpt>
      <trkpt lat="59.06258" lon="17.333676">
        <ele>30.2</ele>
        <time>2020-03-26T12:19:33Z</time>
        <extensions><gpxtpx:TrackPointExtension><gpxtpx:hr>135</gpxtpx:hr></gpxtpx:TrackPointExtension></extensions>
      </trkpt>
      <trkpt lat="59.062665" lon="17.333585">
        <ele>30</ele>
        <time>2020-03-26T12:19:34Z</time>
        <extensions><gpxtpx:TrackPointExtension><gpxtpx:hr>135</gpxtpx:hr></gpxtpx:TrackPointExtension></extensions>
      </trkpt>
      <trkpt lat="59.062752" lon="17.333499">
        <ele>29.8</ele>
        <time>2020-03-26T12:19:35Z</time>
        <extensions><gpxtpx:TrackPointExtension><gpxtpx:hr>135</gpxtpx:hr></gpxtpx:TrackPointExtension></extensions>
      </trkpt>
      <trkpt lat="59.062841" lon="17.333417">
        <ele>29.4</ele>
        <time>2020-03-26T12:19:36Z</time>
        <extensions><gpxtpx:TrackPointExtension><gpxtpx:hr>135</gpxtpx:hr></gpxtpx:TrackPointExtension></extensions>
      </trkpt>
      <trkpt lat="59.062932" lon="17.333341">
        <ele>29</ele>
        <time>2020-03-26T12:19:37Z</time>
        <extensions><gpxtpx:TrackPointExtension><gpxtpx:hr>134</gpxtpx:hr></gpxtpx:TrackPointExtension></extensions>
      </trkpt>
      <trkpt lat="59.063025" lon="17.333272">
        <ele>28.4</ele>
        <time>2020-03-26T12:19:38Z</time>
        <extensions><gpxtpx:TrackPointExtension><gpxtpx:hr>134</gpxtpx:hr></gpxtpx:TrackPointExtension></extensions>
      </trkpt>
      <trkpt lat="59.063122" lon="17.333207">
        <ele>26.8</ele>
        <time>2020-03-26T12:19:39Z</time>
        <extensions><gpxtpx:TrackPointExtension><gpxtpx:hr>134</gpxtpx:hr></gpxtpx:TrackPointExtension></extensions>
      </trkpt>
      <trkpt lat="59.063218" lon="17.333148">
        <ele>26.4</ele>
        <time>2020-03-26T12:19:40Z</time>
        <extensions><gpxtpx:TrackPointExtension><gpxtpx:hr>134</gpxtpx:hr></gpxtpx:TrackPointExtension></extensions>
      </trkpt>
      <trkpt lat="59.063314" lon="17.333096">
        <ele>26</ele>
        <time>2020-03-26T12:19:41Z</time>
        <extensions><gpxtpx:TrackPointExtension><gpxtpx:hr>134</gpxtpx:hr></gpxtpx:TrackPointExtension></extensions>
      </trkpt>
      <trkpt lat="59.063412" lon="17.333053">
        <ele>25.6</ele>
        <time>2020-03-26T12:19:42Z</time>
        <extensions><gpxtpx:TrackPointExtension><gpxtpx:hr>133</gpxtpx:hr></gpxtpx:TrackPointExtension></extensions>
      </trkpt>
      <trkpt lat="59.063509" lon="17.333018">
        <ele>25.2</ele>
        <time>2020-03-26T12:19:43Z</time>
        <extensions><gpxtpx:TrackPointExtension><gpxtpx:hr>132</gpxtpx:hr></gpxtpx:TrackPointExtension></extensions>
      </trkpt>
      <trkpt lat="59.063606" lon="17.332989">
        <ele>24.8</ele>
        <time>2020-03-26T12:19:44Z</time>
        <extensions><gpxtpx:TrackPointExtension><gpxtpx:hr>131</gpxtpx:hr></gpxtpx:TrackPointExtension></extensions>
      </trkpt>
      <trkpt lat="59.063703" lon="17.332965">
        <ele>24.4</ele>
        <time>2020-03-26T12:19:45Z</time>
        <extensions><gpxtpx:TrackPointExtension><gpxtpx:hr>129</gpxtpx:hr></gpxtpx:TrackPointExtension></extensions>
      </trkpt>
      <trkpt lat="59.0638" lon="17.332948">
        <ele>24.2</ele>
        <time>2020-03-26T12:19:46Z</time>
        <extensions><gpxtpx:TrackPointExtension><gpxtpx:hr>127</gpxtpx:hr></gpxtpx:TrackPointExtension></extensions>
      </trkpt>
      <trkpt lat="59.063895" lon="17.332937">
        <ele>23.6</ele>
        <time>2020-03-26T12:19:47Z</time>
        <extensions><gpxtpx:TrackPointExtension><gpxtpx:hr>126</gpxtpx:hr></gpxtpx:TrackPointExtension></extensions>
      </trkpt>
      <trkpt lat="59.063991" lon="17.33293">
        <ele>23.2</ele>
        <time>2020-03-26T12:19:48Z</time>
        <extensions><gpxtpx:TrackPointExtension><gpxtpx:hr>123</gpxtpx:hr></gpxtpx:TrackPointExtension></extensions>
      </trkpt>
      <trkpt lat="59.064086" lon="17.332931">
        <ele>22.6</ele>
        <time>2020-03-26T12:19:49Z</time>
        <extensions><gpxtpx:TrackPointExtension><gpxtpx:hr>120</gpxtpx:hr></gpxtpx:TrackPointExtension></extensions>
      </trkpt>
      <trkpt lat="59.064179" lon="17.332935">
        <ele>22</ele>
        <time>2020-03-26T12:19:50Z</time>
        <extensions><gpxtpx:TrackPointExtension><gpxtpx:hr>117</gpxtpx:hr></gpxtpx:TrackPointExtension></extensions>
      </trkpt>
      <trkpt lat="59.064271" lon="17.332939">
        <ele>21.4</ele>
        <time>2020-03-26T12:19:51Z</time>
        <extensions><gpxtpx:TrackPointExtension><gpxtpx:hr>115</gpxtpx:hr></gpxtpx:TrackPointExtension></extensions>
      </trkpt>
      <trkpt lat="59.064361" lon="17.332944">
        <ele>20.8</ele>
        <time>2020-03-26T12:19:52Z</time>
        <extensions><gpxtpx:TrackPointExtension><gpxtpx:hr>113</gpxtpx:hr></gpxtpx:TrackPointExtension></extensions>
      </trkpt>
      <trkpt lat="59.064451" lon="17.332955">
        <ele>20.4</ele>
        <time>2020-03-26T12:19:53Z</time>
        <extensions><gpxtpx:TrackPointExtension><gpxtpx:hr>112</gpxtpx:hr></gpxtpx:TrackPointExtension></extensions>
      </trkpt>
      <trkpt lat="59.064542" lon="17.332971">
        <ele>20</ele>
        <time>2020-03-26T12:19:54Z</time>
        <extensions><gpxtpx:TrackPointExtension><gpxtpx:hr>112</gpxtpx:hr></gpxtpx:TrackPointExtension></extensions>
      </trkpt>
      <trkpt lat="59.064635" lon="17.332985">
        <ele>19.8</ele>
        <time>2020-03-26T12:19:55Z</time>
        <extensions><gpxtpx:TrackPointExtension><gpxtpx:hr>112</gpxtpx:hr></gpxtpx:TrackPointExtension></extensions>
      </trkpt>
      <trkpt lat="59.064729" lon="17.332999">
        <ele>19.4</ele>
        <time>2020-03-26T12:19:56Z</time>
        <extensions><gpxtpx:TrackPointExtension><gpxtpx:hr>112</gpxtpx:hr></gpxtpx:TrackPointExtension></extensions>
      </trkpt>
      <trkpt lat="59.064824" lon="17.333013">
        <ele>19.2</ele>
        <time>2020-03-26T12:19:57Z</time>
        <extensions><gpxtpx:TrackPointExtension><gpxtpx:hr>112</gpxtpx:hr></gpxtpx:TrackPointExtension></extensions>
      </trkpt>
      <trkpt lat="59.06492" lon="17.333029">
        <ele>18.8</ele>
        <time>2020-03-26T12:19:58Z</time>
        <extensions><gpxtpx:TrackPointExtension><gpxtpx:hr>114</gpxtpx:hr></gpxtpx:TrackPointExtension></extensions>
      </trkpt>
      <trkpt lat="59.065015" lon="17.333046">
        <ele>18.4</ele>
        <time>2020-03-26T12:19:59Z</time>
        <extensions><gpxtpx:TrackPointExtension><gpxtpx:hr>116</gpxtpx:hr></gpxtpx:TrackPointExtension></extensions>
      </trkpt>
      <trkpt lat="59.065109" lon="17.333063">
        <ele>18.2</ele>
        <time>2020-03-26T12:20:00Z</time>
        <extensions><gpxtpx:TrackPointExtension><gpxtpx:hr>119</gpxtpx:hr></gpxtpx:TrackPointExtension></extensions>
      </trkpt>
      <trkpt lat="59.065201" lon="17.333079">
        <ele>17.8</ele>
        <time>2020-03-26T12:20:01Z</time>
        <extensions><gpxtpx:TrackPointExtension><gpxtpx:hr>121</gpxtpx:hr></gpxtpx:TrackPointExtension></extensions>
      </trkpt>
      <trkpt lat="59.065292" lon="17.333095">
        <ele>17.8</ele>
        <time>2020-03-26T12:20:02Z</time>
        <extensions><gpxtpx:TrackPointExtension><gpxtpx:hr>123</gpxtpx:hr></gpxtpx:TrackPointExtension></extensions>
      </trkpt>
      <trkpt lat="59.065381" lon="17.333114">
        <ele>17.6</ele>
        <time>2020-03-26T12:20:03Z</time>
        <extensions><gpxtpx:TrackPointExtension><gpxtpx:hr>124</gpxtpx:hr></gpxtpx:TrackPointExtension></extensions>
      </trkpt>
      <trkpt lat="59.06547" lon="17.333134">
        <ele>17.6</ele>
        <time>2020-03-26T12:20:04Z</time>
        <extensions><gpxtpx:TrackPointExtension><gpxtpx:hr>125</gpxtpx:hr></gpxtpx:TrackPointExtension></extensions>
      </trkpt>
      <trkpt lat="59.065558" lon="17.333152">
        <ele>17.2</ele>
        <time>2020-03-26T12:20:05Z</time>
        <extensions><gpxtpx:TrackPointExtension><gpxtpx:hr>126</gpxtpx:hr></gpxtpx:TrackPointExtension></extensions>
      </trkpt>
      <trkpt lat="59.065646" lon="17.333169">
        <ele>16.8</ele>
        <time>2020-03-26T12:20:06Z</time>
        <extensions><gpxtpx:TrackPointExtension><gpxtpx:hr>127</gpxtpx:hr></gpxtpx:TrackPointExtension></extensions>
      </trkpt>
      <trkpt lat="59.065736" lon="17.333187">
        <ele>16.6</ele>
        <time>2020-03-26T12:20:07Z</time>
        <extensions><gpxtpx:TrackPointExtension><gpxtpx:hr>128</gpxtpx:hr></gpxtpx:TrackPointExtension></extensions>
      </trkpt>
      <trkpt lat="59.065825" lon="17.333206">
        <ele>16.6</ele>
        <time>2020-03-26T12:20:08Z</time>
        <extensions><gpxtpx:TrackPointExtension><gpxtpx:hr>129</gpxtpx:hr></gpxtpx:TrackPointExtension></extensions>
      </trkpt>
      <trkpt lat="59.065916" lon="17.333227">
        <ele>16.4</ele>
        <time>2020-03-26T12:20:09Z</time>
        <extensions><gpxtpx:TrackPointExtension><gpxtpx:hr>130</gpxtpx:hr></gpxtpx:TrackPointExtension></extensions>
      </trkpt>
      <trkpt lat="59.066006" lon="17.333248">
        <ele>16.4</ele>
        <time>2020-03-26T12:20:10Z</time>
        <extensions><gpxtpx:TrackPointExtension><gpxtpx:hr>131</gpxtpx:hr></gpxtpx:TrackPointExtension></extensions>
      </trkpt>
      <trkpt lat="59.066096" lon="17.333265">
        <ele>16.4</ele>
        <time>2020-03-26T12:20:11Z</time>
        <extensions><gpxtpx:TrackPointExtension><gpxtpx:hr>132</gpxtpx:hr></gpxtpx:TrackPointExtension></extensions>
      </trkpt>
      <trkpt lat="59.066186" lon="17.333277">
        <ele>16.4</ele>
        <time>2020-03-26T12:20:12Z</time>
        <extensions><gpxtpx:TrackPointExtension><gpxtpx:hr>132</gpxtpx:hr></gpxtpx:TrackPointExtension></extensions>
      </trkpt>
      <trkpt lat="59.066276" lon="17.333284">
        <ele>16.2</ele>
        <time>2020-03-26T12:20:13Z</time>
        <extensions><gpxtpx:TrackPointExtension><gpxtpx:hr>133</gpxtpx:hr></gpxtpx:TrackPointExtension></extensions>
      </trkpt>
      <trkpt lat="59.066366" lon="17.33329">
        <ele>16.2</ele>
        <time>2020-03-26T12:20:14Z</time>
        <extensions><gpxtpx:TrackPointExtension><gpxtpx:hr>134</gpxtpx:hr></gpxtpx:TrackPointExtension></extensions>
      </trkpt>
      <trkpt lat="59.066457" lon="17.333289">
        <ele>16</ele>
        <time>2020-03-26T12:20:15Z</time>
        <extensions><gpxtpx:TrackPointExtension><gpxtpx:hr>135</gpxtpx:hr></gpxtpx:TrackPointExtension></extensions>
      </trkpt>
      <trkpt lat="59.066549" lon="17.333282">
        <ele>16</ele>
        <time>2020-03-26T12:20:16Z</time>
        <extensions><gpxtpx:TrackPointExtension><gpxtpx:hr>135</gpxtpx:hr></gpxtpx:TrackPointExtension></extensions>
      </trkpt>
      <trkpt lat="59.066641" lon="17.333265">
        <ele>15.8</ele>
        <time>2020-03-26T12:20:17Z</time>
        <extensions><gpxtpx:TrackPointExtension><gpxtpx:hr>136</gpxtpx:hr></gpxtpx:TrackPointExtension></extensions>
      </trkpt>
      <trkpt lat="59.066732" lon="17.333238">
        <ele>15.8</ele>
        <time>2020-03-26T12:20:18Z</time>
        <extensions><gpxtpx:TrackPointExtension><gpxtpx:hr>136</gpxtpx:hr></gpxtpx:TrackPointExtension></extensions>
      </trkpt>
      <trkpt lat="59.066822" lon="17.333202">
        <ele>15.8</ele>
        <time>2020-03-26T12:20:19Z</time>
        <extensions><gpxtpx:TrackPointExtension><gpxtpx:hr>136</gpxtpx:hr></gpxtpx:TrackPointExtension></extensions>
      </trkpt>
      <trkpt lat="59.066911" lon="17.333156">
        <ele>15.6</ele>
        <time>2020-03-26T12:20:20Z</time>
        <extensions><gpxtpx:TrackPointExtension><gpxtpx:hr>137</gpxtpx:hr></gpxtpx:TrackPointExtension></extensions>
      </trkpt>
      <trkpt lat="59.066998" lon="17.3331">
        <ele>15.6</ele>
        <time>2020-03-26T12:20:21Z</time>
        <extensions><gpxtpx:TrackPointExtension><gpxtpx:hr>138</gpxtpx:hr></gpxtpx:TrackPointExtension></extensions>
      </trkpt>
      <trkpt lat="59.067083" lon="17.33304">
        <ele>15.6</ele>
        <time>2020-03-26T12:20:22Z</time>
        <extensions><gpxtpx:TrackPointExtension><gpxtpx:hr>138</gpxtpx:hr></gpxtpx:TrackPointExtension></extensions>
      </trkpt>
      <trkpt lat="59.067166" lon="17.332975">
        <ele>15.4</ele>
        <time>2020-03-26T12:20:23Z</time>
        <extensions><gpxtpx:TrackPointExtension><gpxtpx:hr>139</gpxtpx:hr></gpxtpx:TrackPointExtension></extensions>
      </trkpt>
      <trkpt lat="59.067226" lon="17.332928">
        <ele>15.4</ele>
        <time>2020-03-26T12:20:24Z</time>
        <extensions><gpxtpx:TrackPointExtension><gpxtpx:hr>140</gpxtpx:hr></gpxtpx:TrackPointExtension></extensions>
      </trkpt>
      <trkpt lat="59.067285" lon="17.332881">
        <ele>15.4</ele>
        <time>2020-03-26T12:20:25Z</time>
        <extensions><gpxtpx:TrackPointExtension><gpxtpx:hr>140</gpxtpx:hr></gpxtpx:TrackPointExtension></extensions>
      </trkpt>
      <trkpt lat="59.067403" lon="17.332787">
        <ele>15</ele>
        <time>2020-03-26T12:20:26Z</time>
        <extensions><gpxtpx:TrackPointExtension><gpxtpx:hr>140</gpxtpx:hr></gpxtpx:TrackPointExtension></extensions>
      </trkpt>
      <trkpt lat="59.067478" lon="17.332741">
        <ele>15</ele>
        <time>2020-03-26T12:20:27Z</time>
        <extensions><gpxtpx:TrackPointExtension><gpxtpx:hr>140</gpxtpx:hr></gpxtpx:TrackPointExtension></extensions>
      </trkpt>
      <trkpt lat="59.067552" lon="17.332705">
        <ele>14.6</ele>
        <time>2020-03-26T12:20:28Z</time>
        <extensions><gpxtpx:TrackPointExtension><gpxtpx:hr>140</gpxtpx:hr></gpxtpx:TrackPointExtension></extensions>
      </trkpt>
      <trkpt lat="59.067626" lon="17.332676">
        <ele>14.4</ele>
        <time>2020-03-26T12:20:29Z</time>
        <extensions><gpxtpx:TrackPointExtension><gpxtpx:hr>140</gpxtpx:hr></gpxtpx:TrackPointExtension></extensions>
      </trkpt>
      <trkpt lat="59.067702" lon="17.332662">
        <ele>14.4</ele>
        <time>2020-03-26T12:20:30Z</time>
        <extensions><gpxtpx:TrackPointExtension><gpxtpx:hr>139</gpxtpx:hr></gpxtpx:TrackPointExtension></extensions>
      </trkpt>
      <trkpt lat="59.067778" lon="17.332653">
        <ele>14.2</ele>
        <time>2020-03-26T12:20:31Z</time>
        <extensions><gpxtpx:TrackPointExtension><gpxtpx:hr>139</gpxtpx:hr></gpxtpx:TrackPointExtension></extensions>
      </trkpt>
      <trkpt lat="59.067852" lon="17.332646">
        <ele>14.2</ele>
        <time>2020-03-26T12:20:32Z</time>
        <extensions><gpxtpx:TrackPointExtension><gpxtpx:hr>138</gpxtpx:hr></gpxtpx:TrackPointExtension></extensions>
      </trkpt>
      <trkpt lat="59.067924" lon="17.332637">
        <ele>14.2</ele>
        <time>2020-03-26T12:20:33Z</time>
        <extensions><gpxtpx:TrackPointExtension><gpxtpx:hr>138</gpxtpx:hr></gpxtpx:TrackPointExtension></extensions>
      </trkpt>
      <trkpt lat="59.067994" lon="17.332629">
        <ele>14.2</ele>
        <time>2020-03-26T12:20:34Z</time>
        <extensions><gpxtpx:TrackPointExtension><gpxtpx:hr>138</gpxtpx:hr></gpxtpx:TrackPointExtension></extensions>
      </trkpt>
      <trkpt lat="59.068063" lon="17.33262">
        <ele>14.2</ele>
        <time>2020-03-26T12:20:35Z</time>
        <extensions><gpxtpx:TrackPointExtension><gpxtpx:hr>139</gpxtpx:hr></gpxtpx:TrackPointExtension></extensions>
      </trkpt>
      <trkpt lat="59.06813" lon="17.33261">
        <ele>14.2</ele>
        <time>2020-03-26T12:20:36Z</time>
        <extensions><gpxtpx:TrackPointExtension><gpxtpx:hr>139</gpxtpx:hr></gpxtpx:TrackPointExtension></extensions>
      </trkpt>
      <trkpt lat="59.068199" lon="17.332591">
        <ele>14.2</ele>
        <time>2020-03-26T12:20:37Z</time>
        <extensions><gpxtpx:TrackPointExtension><gpxtpx:hr>139</gpxtpx:hr></gpxtpx:TrackPointExtension></extensions>
      </trkpt>
      <trkpt lat="59.068262" lon="17.332567">
        <ele>14.2</ele>
        <time>2020-03-26T12:20:38Z</time>
        <extensions><gpxtpx:TrackPointExtension><gpxtpx:hr>140</gpxtpx:hr></gpxtpx:TrackPointExtension></extensions>
      </trkpt>
      <trkpt lat="59.068323" lon="17.332539">
        <ele>14.4</ele>
        <time>2020-03-26T12:20:39Z</time>
        <extensions><gpxtpx:TrackPointExtension><gpxtpx:hr>140</gpxtpx:hr></gpxtpx:TrackPointExtension></extensions>
      </trkpt>
      <trkpt lat="59.068385" lon="17.332509">
        <ele>14.6</ele>
        <time>2020-03-26T12:20:40Z</time>
        <extensions><gpxtpx:TrackPointExtension><gpxtpx:hr>140</gpxtpx:hr></gpxtpx:TrackPointExtension></extensions>
      </trkpt>
      <trkpt lat="59.068443" lon="17.332477">
        <ele>14.8</ele>
        <time>2020-03-26T12:20:41Z</time>
        <extensions><gpxtpx:TrackPointExtension><gpxtpx:hr>140</gpxtpx:hr></gpxtpx:TrackPointExtension></extensions>
      </trkpt>
      <trkpt lat="59.068502" lon="17.332444">
        <ele>15</ele>
        <time>2020-03-26T12:20:42Z</time>
        <extensions><gpxtpx:TrackPointExtension><gpxtpx:hr>141</gpxtpx:hr></gpxtpx:TrackPointExtension></extensions>
      </trkpt>
      <trkpt lat="59.06856" lon="17.332405">
        <ele>15</ele>
        <time>2020-03-26T12:20:43Z</time>
        <extensions><gpxtpx:TrackPointExtension><gpxtpx:hr>141</gpxtpx:hr></gpxtpx:TrackPointExtension></extensions>
      </trkpt>
      <trkpt lat="59.068617" lon="17.332363">
        <ele>15.2</ele>
        <time>2020-03-26T12:20:44Z</time>
        <extensions><gpxtpx:TrackPointExtension><gpxtpx:hr>142</gpxtpx:hr></gpxtpx:TrackPointExtension></extensions>
      </trkpt>
      <trkpt lat="59.068671" lon="17.332318">
        <ele>15.4</ele>
        <time>2020-03-26T12:20:45Z</time>
        <extensions><gpxtpx:TrackPointExtension><gpxtpx:hr>143</gpxtpx:hr></gpxtpx:TrackPointExtension></extensions>
      </trkpt>
      <trkpt lat="59.068721" lon="17.332272">
        <ele>15.8</ele>
        <time>2020-03-26T12:20:46Z</time>
        <extensions><gpxtpx:TrackPointExtension><gpxtpx:hr>143</gpxtpx:hr></gpxtpx:TrackPointExtension></extensions>
      </trkpt>
      <trkpt lat="59.068771" lon="17.332223">
        <ele>16</ele>
        <time>2020-03-26T12:20:47Z</time>
        <extensions><gpxtpx:TrackPointExtension><gpxtpx:hr>143</gpxtpx:hr></gpxtpx:TrackPointExtension></extensions>
      </trkpt>
      <trkpt lat="59.068822" lon="17.332169">
        <ele>16.2</ele>
        <time>2020-03-26T12:20:48Z</time>
        <extensions><gpxtpx:TrackPointExtension><gpxtpx:hr>144</gpxtpx:hr></gpxtpx:TrackPointExtension></extensions>
      </trkpt>
      <trkpt lat="59.068869" lon="17.332109">
        <ele>16.2</ele>
        <time>2020-03-26T12:20:49Z</time>
        <extensions><gpxtpx:TrackPointExtension><gpxtpx:hr>145</gpxtpx:hr></gpxtpx:TrackPointExtension></extensions>
      </trkpt>
      <trkpt lat="59.06892" lon="17.332047">
        <ele>16.4</ele>
        <time>2020-03-26T12:20:50Z</time>
        <extensions><gpxtpx:TrackPointExtension><gpxtpx:hr>146</gpxtpx:hr></gpxtpx:TrackPointExtension></extensions>
      </trkpt>
      <trkpt lat="59.06897" lon="17.331986">
        <ele>16.6</ele>
        <time>2020-03-26T12:20:51Z</time>
        <extensions><gpxtpx:TrackPointExtension><gpxtpx:hr>146</gpxtpx:hr></gpxtpx:TrackPointExtension></extensions>
      </trkpt>
      <trkpt lat="59.069025" lon="17.331922">
        <ele>16.8</ele>
        <time>2020-03-26T12:20:52Z</time>
        <extensions><gpxtpx:TrackPointExtension><gpxtpx:hr>147</gpxtpx:hr></gpxtpx:TrackPointExtension></extensions>
      </trkpt>
      <trkpt lat="59.069079" lon="17.331862">
        <ele>17</ele>
        <time>2020-03-26T12:20:53Z</time>
        <extensions><gpxtpx:TrackPointExtension><gpxtpx:hr>148</gpxtpx:hr></gpxtpx:TrackPointExtension></extensions>
      </trkpt>
      <trkpt lat="59.069131" lon="17.331807">
        <ele>17.2</ele>
        <time>2020-03-26T12:20:54Z</time>
        <extensions><gpxtpx:TrackPointExtension><gpxtpx:hr>148</gpxtpx:hr></gpxtpx:TrackPointExtension></extensions>
      </trkpt>
      <trkpt lat="59.069188" lon="17.331753">
        <ele>17.4</ele>
        <time>2020-03-26T12:20:55Z</time>
        <extensions><gpxtpx:TrackPointExtension><gpxtpx:hr>149</gpxtpx:hr></gpxtpx:TrackPointExtension></extensions>
      </trkpt>
      <trkpt lat="59.069246" lon="17.331702">
        <ele>17.6</ele>
        <time>2020-03-26T12:20:56Z</time>
        <extensions><gpxtpx:TrackPointExtension><gpxtpx:hr>149</gpxtpx:hr></gpxtpx:TrackPointExtension></extensions>
      </trkpt>
      <trkpt lat="59.069308" lon="17.331661">
        <ele>17.8</ele>
        <time>2020-03-26T12:20:57Z</time>
        <extensions><gpxtpx:TrackPointExtension><gpxtpx:hr>149</gpxtpx:hr></gpxtpx:TrackPointExtension></extensions>
      </trkpt>
      <trkpt lat="59.069371" lon="17.331629">
        <ele>18.2</ele>
        <time>2020-03-26T12:20:58Z</time>
        <extensions><gpxtpx:TrackPointExtension><gpxtpx:hr>149</gpxtpx:hr></gpxtpx:TrackPointExtension></extensions>
      </trkpt>
      <trkpt lat="59.069437" lon="17.331606">
        <ele>18.2</ele>
        <time>2020-03-26T12:20:59Z</time>
        <extensions><gpxtpx:TrackPointExtension><gpxtpx:hr>149</gpxtpx:hr></gpxtpx:TrackPointExtension></extensions>
      </trkpt>
      <trkpt lat="59.069502" lon="17.331582">
        <ele>18.4</ele>
        <time>2020-03-26T12:21:00Z</time>
        <extensions><gpxtpx:TrackPointExtension><gpxtpx:hr>149</gpxtpx:hr></gpxtpx:TrackPointExtension></extensions>
      </trkpt>
      <trkpt lat="59.069567" lon="17.331554">
        <ele>18.4</ele>
        <time>2020-03-26T12:21:01Z</time>
        <extensions><gpxtpx:TrackPointExtension><gpxtpx:hr>150</gpxtpx:hr></gpxtpx:TrackPointExtension></extensions>
      </trkpt>
      <trkpt lat="59.069634" lon="17.331524">
        <ele>18.4</ele>
        <time>2020-03-26T12:21:02Z</time>
        <extensions><gpxtpx:TrackPointExtension><gpxtpx:hr>150</gpxtpx:hr></gpxtpx:TrackPointExtension></extensions>
      </trkpt>
      <trkpt lat="59.069703" lon="17.331494">
        <ele>18.6</ele>
        <time>2020-03-26T12:21:03Z</time>
        <extensions><gpxtpx:TrackPointExtension><gpxtpx:hr>150</gpxtpx:hr></gpxtpx:TrackPointExtension></extensions>
      </trkpt>
      <trkpt lat="59.069774" lon="17.331462">
        <ele>18.6</ele>
        <time>2020-03-26T12:21:04Z</time>
        <extensions><gpxtpx:TrackPointExtension><gpxtpx:hr>149</gpxtpx:hr></gpxtpx:TrackPointExtension></extensions>
      </trkpt>
      <trkpt lat="59.069845" lon="17.33142">
        <ele>18.6</ele>
        <time>2020-03-26T12:21:05Z</time>
        <extensions><gpxtpx:TrackPointExtension><gpxtpx:hr>149</gpxtpx:hr></gpxtpx:TrackPointExtension></extensions>
      </trkpt>
      <trkpt lat="59.069917" lon="17.331375">
        <ele>18.6</ele>
        <time>2020-03-26T12:21:06Z</time>
        <extensions><gpxtpx:TrackPointExtension><gpxtpx:hr>149</gpxtpx:hr></gpxtpx:TrackPointExtension></extensions>
      </trkpt>
      <trkpt lat="59.069989" lon="17.331327">
        <ele>18.6</ele>
        <time>2020-03-26T12:21:07Z</time>
        <extensions><gpxtpx:TrackPointExtension><gpxtpx:hr>149</gpxtpx:hr></gpxtpx:TrackPointExtension></extensions>
      </trkpt>
      <trkpt lat="59.070061" lon="17.33128">
        <ele>18.6</ele>
        <time>2020-03-26T12:21:08Z</time>
        <extensions><gpxtpx:TrackPointExtension><gpxtpx:hr>148</gpxtpx:hr></gpxtpx:TrackPointExtension></extensions>
      </trkpt>
      <trkpt lat="59.070133" lon="17.331229">
        <ele>18.6</ele>
        <time>2020-03-26T12:21:09Z</time>
        <extensions><gpxtpx:TrackPointExtension><gpxtpx:hr>148</gpxtpx:hr></gpxtpx:TrackPointExtension></extensions>
      </trkpt>
      <trkpt lat="59.070201" lon="17.33118">
        <ele>18.6</ele>
        <time>2020-03-26T12:21:10Z</time>
        <extensions><gpxtpx:TrackPointExtension><gpxtpx:hr>148</gpxtpx:hr></gpxtpx:TrackPointExtension></extensions>
      </trkpt>
      <trkpt lat="59.070268" lon="17.331127">
        <ele>18.4</ele>
        <time>2020-03-26T12:21:11Z</time>
        <extensions><gpxtpx:TrackPointExtension><gpxtpx:hr>148</gpxtpx:hr></gpxtpx:TrackPointExtension></extensions>
      </trkpt>
      <trkpt lat="59.070334" lon="17.331076">
        <ele>18.2</ele>
        <time>2020-03-26T12:21:12Z</time>
        <extensions><gpxtpx:TrackPointExtension><gpxtpx:hr>147</gpxtpx:hr></gpxtpx:TrackPointExtension></extensions>
      </trkpt>
      <trkpt lat="59.070401" lon="17.331026">
        <ele>18.2</ele>
        <time>2020-03-26T12:21:13Z</time>
        <extensions><gpxtpx:TrackPointExtension><gpxtpx:hr>147</gpxtpx:hr></gpxtpx:TrackPointExtension></extensions>
      </trkpt>
      <trkpt lat="59.070471" lon="17.330975">
        <ele>18</ele>
        <time>2020-03-26T12:21:14Z</time>
        <extensions><gpxtpx:TrackPointExtension><gpxtpx:hr>146</gpxtpx:hr></gpxtpx:TrackPointExtension></extensions>
      </trkpt>
      <trkpt lat="59.070541" lon="17.330925">
        <ele>17.8</ele>
        <time>2020-03-26T12:21:15Z</time>
        <extensions><gpxtpx:TrackPointExtension><gpxtpx:hr>145</gpxtpx:hr></gpxtpx:TrackPointExtension></extensions>
      </trkpt>
      <trkpt lat="59.070612" lon="17.330874">
        <ele>17.6</ele>
        <time>2020-03-26T12:21:16Z</time>
        <extensions><gpxtpx:TrackPointExtension><gpxtpx:hr>144</gpxtpx:hr></gpxtpx:TrackPointExtension></extensions>
      </trkpt>
      <trkpt lat="59.070683" lon="17.330823">
        <ele>17.4</ele>
        <time>2020-03-26T12:21:17Z</time>
        <extensions><gpxtpx:TrackPointExtension><gpxtpx:hr>143</gpxtpx:hr></gpxtpx:TrackPointExtension></extensions>
      </trkpt>
      <trkpt lat="59.070755" lon="17.330771">
        <ele>17.4</ele>
        <time>2020-03-26T12:21:18Z</time>
        <extensions><gpxtpx:TrackPointExtension><gpxtpx:hr>142</gpxtpx:hr></gpxtpx:TrackPointExtension></extensions>
      </trkpt>
      <trkpt lat="59.070827" lon="17.330722">
        <ele>17.2</ele>
        <time>2020-03-26T12:21:19Z</time>
        <extensions><gpxtpx:TrackPointExtension><gpxtpx:hr>141</gpxtpx:hr></gpxtpx:TrackPointExtension></extensions>
      </trkpt>
      <trkpt lat="59.070899" lon="17.330671">
        <ele>17.2</ele>
        <time>2020-03-26T12:21:20Z</time>
        <extensions><gpxtpx:TrackPointExtension><gpxtpx:hr>141</gpxtpx:hr></gpxtpx:TrackPointExtension></extensions>
      </trkpt>
      <trkpt lat="59.07097" lon="17.330621">
        <ele>17</ele>
        <time>2020-03-26T12:21:21Z</time>
        <extensions><gpxtpx:TrackPointExtension><gpxtpx:hr>140</gpxtpx:hr></gpxtpx:TrackPointExtension></extensions>
      </trkpt>
      <trkpt lat="59.071041" lon="17.330569">
        <ele>17</ele>
        <time>2020-03-26T12:21:22Z</time>
        <extensions><gpxtpx:TrackPointExtension><gpxtpx:hr>139</gpxtpx:hr></gpxtpx:TrackPointExtension></extensions>
      </trkpt>
      <trkpt lat="59.071111" lon="17.330525">
        <ele>16.6</ele>
        <time>2020-03-26T12:21:23Z</time>
        <extensions><gpxtpx:TrackPointExtension><gpxtpx:hr>139</gpxtpx:hr></gpxtpx:TrackPointExtension></extensions>
      </trkpt>
      <trkpt lat="59.071182" lon="17.330483">
        <ele>16.6</ele>
        <time>2020-03-26T12:21:24Z</time>
        <extensions><gpxtpx:TrackPointExtension><gpxtpx:hr>138</gpxtpx:hr></gpxtpx:TrackPointExtension></extensions>
      </trkpt>
      <trkpt lat="59.071254" lon="17.330446">
        <ele>16.4</ele>
        <time>2020-03-26T12:21:25Z</time>
        <extensions><gpxtpx:TrackPointExtension><gpxtpx:hr>138</gpxtpx:hr></gpxtpx:TrackPointExtension></extensions>
      </trkpt>
      <trkpt lat="59.071327" lon="17.330412">
        <ele>16.2</ele>
        <time>2020-03-26T12:21:26Z</time>
        <extensions><gpxtpx:TrackPointExtension><gpxtpx:hr>137</gpxtpx:hr></gpxtpx:TrackPointExtension></extensions>
      </trkpt>
      <trkpt lat="59.0714" lon="17.330378">
        <ele>16</ele>
        <time>2020-03-26T12:21:27Z</time>
        <extensions><gpxtpx:TrackPointExtension><gpxtpx:hr>137</gpxtpx:hr></gpxtpx:TrackPointExtension></extensions>
      </trkpt>
      <trkpt lat="59.071467" lon="17.330349">
        <ele>16</ele>
        <time>2020-03-26T12:21:28Z</time>
        <extensions><gpxtpx:TrackPointExtension><gpxtpx:hr>136</gpxtpx:hr></gpxtpx:TrackPointExtension></extensions>
      </trkpt>
      <trkpt lat="59.071538" lon="17.330326">
        <ele>16</ele>
        <time>2020-03-26T12:21:29Z</time>
        <extensions><gpxtpx:TrackPointExtension><gpxtpx:hr>136</gpxtpx:hr></gpxtpx:TrackPointExtension></extensions>
      </trkpt>
      <trkpt lat="59.071609" lon="17.330305">
        <ele>16</ele>
        <time>2020-03-26T12:21:30Z</time>
        <extensions><gpxtpx:TrackPointExtension><gpxtpx:hr>136</gpxtpx:hr></gpxtpx:TrackPointExtension></extensions>
      </trkpt>
      <trkpt lat="59.071679" lon="17.330291">
        <ele>16</ele>
        <time>2020-03-26T12:21:31Z</time>
        <extensions><gpxtpx:TrackPointExtension><gpxtpx:hr>136</gpxtpx:hr></gpxtpx:TrackPointExtension></extensions>
      </trkpt>
      <trkpt lat="59.071744" lon="17.33028">
        <ele>16</ele>
        <time>2020-03-26T12:21:32Z</time>
        <extensions><gpxtpx:TrackPointExtension><gpxtpx:hr>136</gpxtpx:hr></gpxtpx:TrackPointExtension></extensions>
      </trkpt>
      <trkpt lat="59.07181" lon="17.330269">
        <ele>16</ele>
        <time>2020-03-26T12:21:33Z</time>
        <extensions><gpxtpx:TrackPointExtension><gpxtpx:hr>136</gpxtpx:hr></gpxtpx:TrackPointExtension></extensions>
      </trkpt>
      <trkpt lat="59.07187" lon="17.330262">
        <ele>16</ele>
        <time>2020-03-26T12:21:34Z</time>
        <extensions><gpxtpx:TrackPointExtension><gpxtpx:hr>137</gpxtpx:hr></gpxtpx:TrackPointExtension></extensions>
      </trkpt>
      <trkpt lat="59.07193" lon="17.330254">
        <ele>16</ele>
        <time>2020-03-26T12:21:35Z</time>
        <extensions><gpxtpx:TrackPointExtension><gpxtpx:hr>137</gpxtpx:hr></gpxtpx:TrackPointExtension></extensions>
      </trkpt>
      <trkpt lat="59.071989" lon="17.330246">
        <ele>16</ele>
        <time>2020-03-26T12:21:36Z</time>
        <extensions><gpxtpx:TrackPointExtension><gpxtpx:hr>137</gpxtpx:hr></gpxtpx:TrackPointExtension></extensions>
      </trkpt>
      <trkpt lat="59.072045" lon="17.330242">
        <ele>16</ele>
        <time>2020-03-26T12:21:37Z</time>
        <extensions><gpxtpx:TrackPointExtension><gpxtpx:hr>138</gpxtpx:hr></gpxtpx:TrackPointExtension></extensions>
      </trkpt>
      <trkpt lat="59.072099" lon="17.330242">
        <ele>16</ele>
        <time>2020-03-26T12:21:38Z</time>
        <extensions><gpxtpx:TrackPointExtension><gpxtpx:hr>138</gpxtpx:hr></gpxtpx:TrackPointExtension></extensions>
      </trkpt>
      <trkpt lat="59.07215" lon="17.330241">
        <ele>16.2</ele>
        <time>2020-03-26T12:21:39Z</time>
        <extensions><gpxtpx:TrackPointExtension><gpxtpx:hr>138</gpxtpx:hr></gpxtpx:TrackPointExtension></extensions>
      </trkpt>
      <trkpt lat="59.0722" lon="17.330238">
        <ele>16.2</ele>
        <time>2020-03-26T12:21:40Z</time>
        <extensions><gpxtpx:TrackPointExtension><gpxtpx:hr>139</gpxtpx:hr></gpxtpx:TrackPointExtension></extensions>
      </trkpt>
      <trkpt lat="59.072249" lon="17.330237">
        <ele>16.4</ele>
        <time>2020-03-26T12:21:41Z</time>
        <extensions><gpxtpx:TrackPointExtension><gpxtpx:hr>139</gpxtpx:hr></gpxtpx:TrackPointExtension></extensions>
      </trkpt>
      <trkpt lat="59.072297" lon="17.330238">
        <ele>16.8</ele>
        <time>2020-03-26T12:21:42Z</time>
        <extensions><gpxtpx:TrackPointExtension><gpxtpx:hr>139</gpxtpx:hr></gpxtpx:TrackPointExtension></extensions>
      </trkpt>
      <trkpt lat="59.072344" lon="17.330242">
        <ele>17</ele>
        <time>2020-03-26T12:21:43Z</time>
        <extensions><gpxtpx:TrackPointExtension><gpxtpx:hr>139</gpxtpx:hr></gpxtpx:TrackPointExtension></extensions>
      </trkpt>
      <trkpt lat="59.072391" lon="17.330247">
        <ele>17.6</ele>
        <time>2020-03-26T12:21:44Z</time>
        <extensions><gpxtpx:TrackPointExtension><gpxtpx:hr>139</gpxtpx:hr></gpxtpx:TrackPointExtension></extensions>
      </trkpt>
      <trkpt lat="59.072436" lon="17.330252">
        <ele>18</ele>
        <time>2020-03-26T12:21:45Z</time>
        <extensions><gpxtpx:TrackPointExtension><gpxtpx:hr>140</gpxtpx:hr></gpxtpx:TrackPointExtension></extensions>
      </trkpt>
      <trkpt lat="59.072481" lon="17.330257">
        <ele>18.4</ele>
        <time>2020-03-26T12:21:46Z</time>
        <extensions><gpxtpx:TrackPointExtension><gpxtpx:hr>140</gpxtpx:hr></gpxtpx:TrackPointExtension></extensions>
      </trkpt>
      <trkpt lat="59.072526" lon="17.330261">
        <ele>18.8</ele>
        <time>2020-03-26T12:21:47Z</time>
        <extensions><gpxtpx:TrackPointExtension><gpxtpx:hr>141</gpxtpx:hr></gpxtpx:TrackPointExtension></extensions>
      </trkpt>
      <trkpt lat="59.07257" lon="17.330266">
        <ele>19.2</ele>
        <time>2020-03-26T12:21:48Z</time>
        <extensions><gpxtpx:TrackPointExtension><gpxtpx:hr>142</gpxtpx:hr></gpxtpx:TrackPointExtension></extensions>
      </trkpt>
      <trkpt lat="59.072613" lon="17.330273">
        <ele>19.6</ele>
        <time>2020-03-26T12:21:49Z</time>
        <extensions><gpxtpx:TrackPointExtension><gpxtpx:hr>143</gpxtpx:hr></gpxtpx:TrackPointExtension></extensions>
      </trkpt>
      <trkpt lat="59.072656" lon="17.33028">
        <ele>20</ele>
        <time>2020-03-26T12:21:50Z</time>
        <extensions><gpxtpx:TrackPointExtension><gpxtpx:hr>143</gpxtpx:hr></gpxtpx:TrackPointExtension></extensions>
      </trkpt>
      <trkpt lat="59.072698" lon="17.330287">
        <ele>20.4</ele>
        <time>2020-03-26T12:21:51Z</time>
        <extensions><gpxtpx:TrackPointExtension><gpxtpx:hr>144</gpxtpx:hr></gpxtpx:TrackPointExtension></extensions>
      </trkpt>
      <trkpt lat="59.07274" lon="17.330296">
        <ele>20.8</ele>
        <time>2020-03-26T12:21:52Z</time>
        <extensions><gpxtpx:TrackPointExtension><gpxtpx:hr>145</gpxtpx:hr></gpxtpx:TrackPointExtension></extensions>
      </trkpt>
      <trkpt lat="59.072781" lon="17.330304">
        <ele>21.2</ele>
        <time>2020-03-26T12:21:53Z</time>
        <extensions><gpxtpx:TrackPointExtension><gpxtpx:hr>146</gpxtpx:hr></gpxtpx:TrackPointExtension></extensions>
      </trkpt>
      <trkpt lat="59.072822" lon="17.330312">
        <ele>21.6</ele>
        <time>2020-03-26T12:21:54Z</time>
        <extensions><gpxtpx:TrackPointExtension><gpxtpx:hr>147</gpxtpx:hr></gpxtpx:TrackPointExtension></extensions>
      </trkpt>
      <trkpt lat="59.072861" lon="17.330319">
        <ele>22</ele>
        <time>2020-03-26T12:21:55Z</time>
        <extensions><gpxtpx:TrackPointExtension><gpxtpx:hr>148</gpxtpx:hr></gpxtpx:TrackPointExtension></extensions>
      </trkpt>
      <trkpt lat="59.0729" lon="17.330326">
        <ele>22.2</ele>
        <time>2020-03-26T12:21:56Z</time>
        <extensions><gpxtpx:TrackPointExtension><gpxtpx:hr>148</gpxtpx:hr></gpxtpx:TrackPointExtension></extensions>
      </trkpt>
      <trkpt lat="59.072938" lon="17.330335">
        <ele>22.6</ele>
        <time>2020-03-26T12:21:57Z</time>
        <extensions><gpxtpx:TrackPointExtension><gpxtpx:hr>149</gpxtpx:hr></gpxtpx:TrackPointExtension></extensions>
      </trkpt>
      <trkpt lat="59.072976" lon="17.330347">
        <ele>23</ele>
        <time>2020-03-26T12:21:58Z</time>
        <extensions><gpxtpx:TrackPointExtension><gpxtpx:hr>149</gpxtpx:hr></gpxtpx:TrackPointExtension></extensions>
      </trkpt>
      <trkpt lat="59.073015" lon="17.330354">
        <ele>23</ele>
        <time>2020-03-26T12:21:59Z</time>
        <extensions><gpxtpx:TrackPointExtension><gpxtpx:hr>150</gpxtpx:hr></gpxtpx:TrackPointExtension></extensions>
      </trkpt>
      <trkpt lat="59.073052" lon="17.33036">
        <ele>23.2</ele>
        <time>2020-03-26T12:22:00Z</time>
        <extensions><gpxtpx:TrackPointExtension><gpxtpx:hr>150</gpxtpx:hr></gpxtpx:TrackPointExtension></extensions>
      </trkpt>
      <trkpt lat="59.07309" lon="17.330368">
        <ele>23.6</ele>
        <time>2020-03-26T12:22:01Z</time>
        <extensions><gpxtpx:TrackPointExtension><gpxtpx:hr>151</gpxtpx:hr></gpxtpx:TrackPointExtension></extensions>
      </trkpt>
      <trkpt lat="59.073128" lon="17.330372">
        <ele>23.8</ele>
        <time>2020-03-26T12:22:02Z</time>
        <extensions><gpxtpx:TrackPointExtension><gpxtpx:hr>151</gpxtpx:hr></gpxtpx:TrackPointExtension></extensions>
      </trkpt>
      <trkpt lat="59.073166" lon="17.330377">
        <ele>24.2</ele>
        <time>2020-03-26T12:22:03Z</time>
        <extensions><gpxtpx:TrackPointExtension><gpxtpx:hr>152</gpxtpx:hr></gpxtpx:TrackPointExtension></extensions>
      </trkpt>
      <trkpt lat="59.073203" lon="17.330388">
        <ele>24.4</ele>
        <time>2020-03-26T12:22:04Z</time>
        <extensions><gpxtpx:TrackPointExtension><gpxtpx:hr>152</gpxtpx:hr></gpxtpx:TrackPointExtension></extensions>
      </trkpt>
      <trkpt lat="59.073241" lon="17.330399">
        <ele>24.8</ele>
        <time>2020-03-26T12:22:05Z</time>
        <extensions><gpxtpx:TrackPointExtension><gpxtpx:hr>152</gpxtpx:hr></gpxtpx:TrackPointExtension></extensions>
      </trkpt>
      <trkpt lat="59.073278" lon="17.330413">
        <ele>25.2</ele>
        <time>2020-03-26T12:22:06Z</time>
        <extensions><gpxtpx:TrackPointExtension><gpxtpx:hr>152</gpxtpx:hr></gpxtpx:TrackPointExtension></extensions>
      </trkpt>
      <trkpt lat="59.073315" lon="17.330428">
        <ele>25.6</ele>
        <time>2020-03-26T12:22:07Z</time>
        <extensions><gpxtpx:TrackPointExtension><gpxtpx:hr>152</gpxtpx:hr></gpxtpx:TrackPointExtension></extensions>
      </trkpt>
      <trkpt lat="59.073353" lon="17.330441">
        <ele>26</ele>
        <time>2020-03-26T12:22:08Z</time>
        <extensions><gpxtpx:TrackPointExtension><gpxtpx:hr>152</gpxtpx:hr></gpxtpx:TrackPointExtension></extensions>
      </trkpt>
      <trkpt lat="59.073388" lon="17.330456">
        <ele>26.2</ele>
        <time>2020-03-26T12:22:09Z</time>
        <extensions><gpxtpx:TrackPointExtension><gpxtpx:hr>153</gpxtpx:hr></gpxtpx:TrackPointExtension></extensions>
      </trkpt>
      <trkpt lat="59.073427" lon="17.330469">
        <ele>26.8</ele>
        <time>2020-03-26T12:22:10Z</time>
        <extensions><gpxtpx:TrackPointExtension><gpxtpx:hr>153</gpxtpx:hr></gpxtpx:TrackPointExtension></extensions>
      </trkpt>
      <trkpt lat="59.073467" lon="17.330468">
        <ele>27</ele>
        <time>2020-03-26T12:22:11Z</time>
        <extensions><gpxtpx:TrackPointExtension><gpxtpx:hr>154</gpxtpx:hr></gpxtpx:TrackPointExtension></extensions>
      </trkpt>
      <trkpt lat="59.073506" lon="17.330469">
        <ele>27.6</ele>
        <time>2020-03-26T12:22:12Z</time>
        <extensions><gpxtpx:TrackPointExtension><gpxtpx:hr>155</gpxtpx:hr></gpxtpx:TrackPointExtension></extensions>
      </trkpt>
      <trkpt lat="59.073544" lon="17.330468">
        <ele>27.8</ele>
        <time>2020-03-26T12:22:13Z</time>
        <extensions><gpxtpx:TrackPointExtension><gpxtpx:hr>155</gpxtpx:hr></gpxtpx:TrackPointExtension></extensions>
      </trkpt>
      <trkpt lat="59.073583" lon="17.330467">
        <ele>28</ele>
        <time>2020-03-26T12:22:14Z</time>
        <extensions><gpxtpx:TrackPointExtension><gpxtpx:hr>156</gpxtpx:hr></gpxtpx:TrackPointExtension></extensions>
      </trkpt>
      <trkpt lat="59.073621" lon="17.330465">
        <ele>28.6</ele>
        <time>2020-03-26T12:22:15Z</time>
        <extensions><gpxtpx:TrackPointExtension><gpxtpx:hr>157</gpxtpx:hr></gpxtpx:TrackPointExtension></extensions>
      </trkpt>
      <trkpt lat="59.07366" lon="17.330462">
        <ele>28.8</ele>
        <time>2020-03-26T12:22:16Z</time>
        <extensions><gpxtpx:TrackPointExtension><gpxtpx:hr>158</gpxtpx:hr></gpxtpx:TrackPointExtension></extensions>
      </trkpt>
      <trkpt lat="59.073699" lon="17.330456">
        <ele>29</ele>
        <time>2020-03-26T12:22:17Z</time>
        <extensions><gpxtpx:TrackPointExtension><gpxtpx:hr>158</gpxtpx:hr></gpxtpx:TrackPointExtension></extensions>
      </trkpt>
      <trkpt lat="59.073737" lon="17.330448">
        <ele>29.6</ele>
        <time>2020-03-26T12:22:18Z</time>
        <extensions><gpxtpx:TrackPointExtension><gpxtpx:hr>159</gpxtpx:hr></gpxtpx:TrackPointExtension></extensions>
      </trkpt>
      <trkpt lat="59.073775" lon="17.330439">
        <ele>29.8</ele>
        <time>2020-03-26T12:22:19Z</time>
        <extensions><gpxtpx:TrackPointExtension><gpxtpx:hr>159</gpxtpx:hr></gpxtpx:TrackPointExtension></extensions>
      </trkpt>
      <trkpt lat="59.073813" lon="17.33043">
        <ele>30.2</ele>
        <time>2020-03-26T12:22:20Z</time>
        <extensions><gpxtpx:TrackPointExtension><gpxtpx:hr>159</gpxtpx:hr></gpxtpx:TrackPointExtension></extensions>
      </trkpt>
      <trkpt lat="59.07385" lon="17.33042">
        <ele>30.8</ele>
        <time>2020-03-26T12:22:21Z</time>
        <extensions><gpxtpx:TrackPointExtension><gpxtpx:hr>160</gpxtpx:hr></gpxtpx:TrackPointExtension></extensions>
      </trkpt>
      <trkpt lat="59.073887" lon="17.33041">
        <ele>31.2</ele>
        <time>2020-03-26T12:22:22Z</time>
        <extensions><gpxtpx:TrackPointExtension><gpxtpx:hr>160</gpxtpx:hr></gpxtpx:TrackPointExtension></extensions>
      </trkpt>
      <trkpt lat="59.073926" lon="17.330403">
        <ele>31.6</ele>
        <time>2020-03-26T12:22:23Z</time>
        <extensions><gpxtpx:TrackPointExtension><gpxtpx:hr>160</gpxtpx:hr></gpxtpx:TrackPointExtension></extensions>
      </trkpt>
      <trkpt lat="59.073966" lon="17.330398">
        <ele>31.8</ele>
        <time>2020-03-26T12:22:24Z</time>
        <extensions><gpxtpx:TrackPointExtension><gpxtpx:hr>161</gpxtpx:hr></gpxtpx:TrackPointExtension></extensions>
      </trkpt>
      <trkpt lat="59.074007" lon="17.330396">
        <ele>32.2</ele>
        <time>2020-03-26T12:22:25Z</time>
        <extensions><gpxtpx:TrackPointExtension><gpxtpx:hr>161</gpxtpx:hr></gpxtpx:TrackPointExtension></extensions>
      </trkpt>
      <trkpt lat="59.074046" lon="17.330396">
        <ele>32.6</ele>
        <time>2020-03-26T12:22:26Z</time>
        <extensions><gpxtpx:TrackPointExtension><gpxtpx:hr>161</gpxtpx:hr></gpxtpx:TrackPointExtension></extensions>
      </trkpt>
      <trkpt lat="59.074087" lon="17.330402">
        <ele>32.8</ele>
        <time>2020-03-26T12:22:27Z</time>
        <extensions><gpxtpx:TrackPointExtension><gpxtpx:hr>162</gpxtpx:hr></gpxtpx:TrackPointExtension></extensions>
      </trkpt>
      <trkpt lat="59.074128" lon="17.330411">
        <ele>33</ele>
        <time>2020-03-26T12:22:28Z</time>
        <extensions><gpxtpx:TrackPointExtension><gpxtpx:hr>162</gpxtpx:hr></gpxtpx:TrackPointExtension></extensions>
      </trkpt>
      <trkpt lat="59.074169" lon="17.330422">
        <ele>33.4</ele>
        <time>2020-03-26T12:22:29Z</time>
        <extensions><gpxtpx:TrackPointExtension><gpxtpx:hr>162</gpxtpx:hr></gpxtpx:TrackPointExtension></extensions>
      </trkpt>
      <trkpt lat="59.07421" lon="17.330434">
        <ele>33.6</ele>
        <time>2020-03-26T12:22:30Z</time>
        <extensions><gpxtpx:TrackPointExtension><gpxtpx:hr>162</gpxtpx:hr></gpxtpx:TrackPointExtension></extensions>
      </trkpt>
      <trkpt lat="59.074251" lon="17.330449">
        <ele>33.6</ele>
        <time>2020-03-26T12:22:31Z</time>
        <extensions><gpxtpx:TrackPointExtension><gpxtpx:hr>162</gpxtpx:hr></gpxtpx:TrackPointExtension></extensions>
      </trkpt>
      <trkpt lat="59.074292" lon="17.330467">
        <ele>33.8</ele>
        <time>2020-03-26T12:22:32Z</time>
        <extensions><gpxtpx:TrackPointExtension><gpxtpx:hr>162</gpxtpx:hr></gpxtpx:TrackPointExtension></extensions>
      </trkpt>
      <trkpt lat="59.074333" lon="17.330487">
        <ele>33.8</ele>
        <time>2020-03-26T12:22:33Z</time>
        <extensions><gpxtpx:TrackPointExtension><gpxtpx:hr>162</gpxtpx:hr></gpxtpx:TrackPointExtension></extensions>
      </trkpt>
      <trkpt lat="59.074372" lon="17.33051">
        <ele>34</ele>
        <time>2020-03-26T12:22:34Z</time>
        <extensions><gpxtpx:TrackPointExtension><gpxtpx:hr>162</gpxtpx:hr></gpxtpx:TrackPointExtension></extensions>
      </trkpt>
      <trkpt lat="59.074411" lon="17.330534">
        <ele>34.2</ele>
        <time>2020-03-26T12:22:35Z</time>
        <extensions><gpxtpx:TrackPointExtension><gpxtpx:hr>162</gpxtpx:hr></gpxtpx:TrackPointExtension></extensions>
      </trkpt>
      <trkpt lat="59.074448" lon="17.330563">
        <ele>34.2</ele>
        <time>2020-03-26T12:22:36Z</time>
        <extensions><gpxtpx:TrackPointExtension><gpxtpx:hr>162</gpxtpx:hr></gpxtpx:TrackPointExtension></extensions>
      </trkpt>
      <trkpt lat="59.074489" lon="17.330592">
        <ele>34.4</ele>
        <time>2020-03-26T12:22:37Z</time>
        <extensions><gpxtpx:TrackPointExtension><gpxtpx:hr>161</gpxtpx:hr></gpxtpx:TrackPointExtension></extensions>
      </trkpt>
      <trkpt lat="59.074528" lon="17.330622">
        <ele>34.6</ele>
        <time>2020-03-26T12:22:38Z</time>
        <extensions><gpxtpx:TrackPointExtension><gpxtpx:hr>161</gpxtpx:hr></gpxtpx:TrackPointExtension></extensions>
      </trkpt>
      <trkpt lat="59.074566" lon="17.330656">
        <ele>34.8</ele>
        <time>2020-03-26T12:22:39Z</time>
        <extensions><gpxtpx:TrackPointExtension><gpxtpx:hr>161</gpxtpx:hr></gpxtpx:TrackPointExtension></extensions>
      </trkpt>
      <trkpt lat="59.074605" lon="17.330692">
        <ele>35</ele>
        <time>2020-03-26T12:22:40Z</time>
        <extensions><gpxtpx:TrackPointExtension><gpxtpx:hr>161</gpxtpx:hr></gpxtpx:TrackPointExtension></extensions>
      </trkpt>
      <trkpt lat="59.074643" lon="17.330733">
        <ele>35.2</ele>
        <time>2020-03-26T12:22:41Z</time>
        <extensions><gpxtpx:TrackPointExtension><gpxtpx:hr>160</gpxtpx:hr></gpxtpx:TrackPointExtension></extensions>
      </trkpt>
      <trkpt lat="59.074682" lon="17.330776">
        <ele>35.4</ele>
        <time>2020-03-26T12:22:42Z</time>
        <extensions><gpxtpx:TrackPointExtension><gpxtpx:hr>160</gpxtpx:hr></gpxtpx:TrackPointExtension></extensions>
      </trkpt>
      <trkpt lat="59.07472" lon="17.33082">
        <ele>35.6</ele>
        <time>2020-03-26T12:22:43Z</time>
        <extensions><gpxtpx:TrackPointExtension><gpxtpx:hr>160</gpxtpx:hr></gpxtpx:TrackPointExtension></extensions>
      </trkpt>
      <trkpt lat="59.074758" lon="17.330865">
        <ele>35.6</ele>
        <time>2020-03-26T12:22:44Z</time>
        <extensions><gpxtpx:TrackPointExtension><gpxtpx:hr>159</gpxtpx:hr></gpxtpx:TrackPointExtension></extensions>
      </trkpt>
      <trkpt lat="59.074797" lon="17.330909">
        <ele>35.8</ele>
        <time>2020-03-26T12:22:45Z</time>
        <extensions><gpxtpx:TrackPointExtension><gpxtpx:hr>159</gpxtpx:hr></gpxtpx:TrackPointExtension></extensions>
      </trkpt>
      <trkpt lat="59.074837" lon="17.330951">
        <ele>36</ele>
        <time>2020-03-26T12:22:46Z</time>
        <extensions><gpxtpx:TrackPointExtension><gpxtpx:hr>158</gpxtpx:hr></gpxtpx:TrackPointExtension></extensions>
      </trkpt>
      <trkpt lat="59.074879" lon="17.330989">
        <ele>36</ele>
        <time>2020-03-26T12:22:47Z</time>
        <extensions><gpxtpx:TrackPointExtension><gpxtpx:hr>158</gpxtpx:hr></gpxtpx:TrackPointExtension></extensions>
      </trkpt>
      <trkpt lat="59.074923" lon="17.331026">
        <ele>36.2</ele>
        <time>2020-03-26T12:22:48Z</time>
        <extensions><gpxtpx:TrackPointExtension><gpxtpx:hr>157</gpxtpx:hr></gpxtpx:TrackPointExtension></extensions>
      </trkpt>
      <trkpt lat="59.074969" lon="17.331062">
        <ele>36.2</ele>
        <time>2020-03-26T12:22:49Z</time>
        <extensions><gpxtpx:TrackPointExtension><gpxtpx:hr>157</gpxtpx:hr></gpxtpx:TrackPointExtension></extensions>
      </trkpt>
      <trkpt lat="59.075017" lon="17.331091">
        <ele>36.4</ele>
        <time>2020-03-26T12:22:50Z</time>
        <extensions><gpxtpx:TrackPointExtension><gpxtpx:hr>157</gpxtpx:hr></gpxtpx:TrackPointExtension></extensions>
      </trkpt>
      <trkpt lat="59.075068" lon="17.331113">
        <ele>36.4</ele>
        <time>2020-03-26T12:22:51Z</time>
        <extensions><gpxtpx:TrackPointExtension><gpxtpx:hr>157</gpxtpx:hr></gpxtpx:TrackPointExtension></extensions>
      </trkpt>
      <trkpt lat="59.075119" lon="17.331126">
        <ele>36.6</ele>
        <time>2020-03-26T12:22:52Z</time>
        <extensions><gpxtpx:TrackPointExtension><gpxtpx:hr>156</gpxtpx:hr></gpxtpx:TrackPointExtension></extensions>
      </trkpt>
      <trkpt lat="59.075173" lon="17.331131">
        <ele>36.8</ele>
        <time>2020-03-26T12:22:53Z</time>
        <extensions><gpxtpx:TrackPointExtension><gpxtpx:hr>156</gpxtpx:hr></gpxtpx:TrackPointExtension></extensions>
      </trkpt>
      <trkpt lat="59.07523" lon="17.331132">
        <ele>36.8</ele>
        <time>2020-03-26T12:22:54Z</time>
        <extensions><gpxtpx:TrackPointExtension><gpxtpx:hr>156</gpxtpx:hr></gpxtpx:TrackPointExtension></extensions>
      </trkpt>
      <trkpt lat="59.075288" lon="17.33113">
        <ele>37</ele>
        <time>2020-03-26T12:22:55Z</time>
        <extensions><gpxtpx:TrackPointExtension><gpxtpx:hr>156</gpxtpx:hr></gpxtpx:TrackPointExtension></extensions>
      </trkpt>
      <trkpt lat="59.075347" lon="17.331123">
        <ele>37</ele>
        <time>2020-03-26T12:22:56Z</time>
        <extensions><gpxtpx:TrackPointExtension><gpxtpx:hr>156</gpxtpx:hr></gpxtpx:TrackPointExtension></extensions>
      </trkpt>
      <trkpt lat="59.075408" lon="17.331115">
        <ele>37</ele>
        <time>2020-03-26T12:22:57Z</time>
        <extensions><gpxtpx:TrackPointExtension><gpxtpx:hr>156</gpxtpx:hr></gpxtpx:TrackPointExtension></extensions>
      </trkpt>
      <trkpt lat="59.075471" lon="17.331104">
        <ele>37</ele>
        <time>2020-03-26T12:22:58Z</time>
        <extensions><gpxtpx:TrackPointExtension><gpxtpx:hr>156</gpxtpx:hr></gpxtpx:TrackPointExtension></extensions>
      </trkpt>
      <trkpt lat="59.075538" lon="17.331091">
        <ele>37</ele>
        <time>2020-03-26T12:22:59Z</time>
        <extensions><gpxtpx:TrackPointExtension><gpxtpx:hr>156</gpxtpx:hr></gpxtpx:TrackPointExtension></extensions>
      </trkpt>
      <trkpt lat="59.075609" lon="17.331077">
        <ele>37</ele>
        <time>2020-03-26T12:23:00Z</time>
        <extensions><gpxtpx:TrackPointExtension><gpxtpx:hr>156</gpxtpx:hr></gpxtpx:TrackPointExtension></extensions>
      </trkpt>
      <trkpt lat="59.075682" lon="17.331064">
        <ele>37</ele>
        <time>2020-03-26T12:23:01Z</time>
        <extensions><gpxtpx:TrackPointExtension><gpxtpx:hr>156</gpxtpx:hr></gpxtpx:TrackPointExtension></extensions>
      </trkpt>
      <trkpt lat="59.075756" lon="17.331054">
        <ele>37</ele>
        <time>2020-03-26T12:23:02Z</time>
        <extensions><gpxtpx:TrackPointExtension><gpxtpx:hr>156</gpxtpx:hr></gpxtpx:TrackPointExtension></extensions>
      </trkpt>
      <trkpt lat="59.075831" lon="17.331046">
        <ele>37</ele>
        <time>2020-03-26T12:23:03Z</time>
        <extensions><gpxtpx:TrackPointExtension><gpxtpx:hr>155</gpxtpx:hr></gpxtpx:TrackPointExtension></extensions>
      </trkpt>
      <trkpt lat="59.075907" lon="17.33104">
        <ele>36.8</ele>
        <time>2020-03-26T12:23:04Z</time>
        <extensions><gpxtpx:TrackPointExtension><gpxtpx:hr>155</gpxtpx:hr></gpxtpx:TrackPointExtension></extensions>
      </trkpt>
      <trkpt lat="59.075981" lon="17.331038">
        <ele>36.4</ele>
        <time>2020-03-26T12:23:05Z</time>
        <extensions><gpxtpx:TrackPointExtension><gpxtpx:hr>154</gpxtpx:hr></gpxtpx:TrackPointExtension></extensions>
      </trkpt>
      <trkpt lat="59.076056" lon="17.33104">
        <ele>36.2</ele>
        <time>2020-03-26T12:23:06Z</time>
        <extensions><gpxtpx:TrackPointExtension><gpxtpx:hr>153</gpxtpx:hr></gpxtpx:TrackPointExtension></extensions>
      </trkpt>
      <trkpt lat="59.07613" lon="17.331045">
        <ele>36</ele>
        <time>2020-03-26T12:23:07Z</time>
        <extensions><gpxtpx:TrackPointExtension><gpxtpx:hr>153</gpxtpx:hr></gpxtpx:TrackPointExtension></extensions>
      </trkpt>
      <trkpt lat="59.076203" lon="17.331055">
        <ele>35.8</ele>
        <time>2020-03-26T12:23:08Z</time>
        <extensions><gpxtpx:TrackPointExtension><gpxtpx:hr>152</gpxtpx:hr></gpxtpx:TrackPointExtension></extensions>
      </trkpt>
      <trkpt lat="59.076274" lon="17.331074">
        <ele>35.6</ele>
        <time>2020-03-26T12:23:09Z</time>
        <extensions><gpxtpx:TrackPointExtension><gpxtpx:hr>152</gpxtpx:hr></gpxtpx:TrackPointExtension></extensions>
      </trkpt>
      <trkpt lat="59.076341" lon="17.331105">
        <ele>35.4</ele>
        <time>2020-03-26T12:23:10Z</time>
        <extensions><gpxtpx:TrackPointExtension><gpxtpx:hr>151</gpxtpx:hr></gpxtpx:TrackPointExtension></extensions>
      </trkpt>
      <trkpt lat="59.076407" lon="17.331151">
        <ele>35.4</ele>
        <time>2020-03-26T12:23:11Z</time>
        <extensions><gpxtpx:TrackPointExtension><gpxtpx:hr>151</gpxtpx:hr></gpxtpx:TrackPointExtension></extensions>
      </trkpt>
      <trkpt lat="59.076468" lon="17.331204">
        <ele>35.4</ele>
        <time>2020-03-26T12:23:12Z</time>
        <extensions><gpxtpx:TrackPointExtension><gpxtpx:hr>150</gpxtpx:hr></gpxtpx:TrackPointExtension></extensions>
      </trkpt>
      <trkpt lat="59.076526" lon="17.331261">
        <ele>35.4</ele>
        <time>2020-03-26T12:23:13Z</time>
        <extensions><gpxtpx:TrackPointExtension><gpxtpx:hr>149</gpxtpx:hr></gpxtpx:TrackPointExtension></extensions>
      </trkpt>
      <trkpt lat="59.076584" lon="17.331318">
        <ele>35.4</ele>
        <time>2020-03-26T12:23:14Z</time>
        <extensions><gpxtpx:TrackPointExtension><gpxtpx:hr>149</gpxtpx:hr></gpxtpx:TrackPointExtension></extensions>
      </trkpt>
      <trkpt lat="59.076641" lon="17.331377">
        <ele>35.4</ele>
        <time>2020-03-26T12:23:15Z</time>
        <extensions><gpxtpx:TrackPointExtension><gpxtpx:hr>148</gpxtpx:hr></gpxtpx:TrackPointExtension></extensions>
      </trkpt>
      <trkpt lat="59.076697" lon="17.331433">
        <ele>35.4</ele>
        <time>2020-03-26T12:23:16Z</time>
        <extensions><gpxtpx:TrackPointExtension><gpxtpx:hr>148</gpxtpx:hr></gpxtpx:TrackPointExtension></extensions>
      </trkpt>
      <trkpt lat="59.076753" lon="17.331491">
        <ele>35.4</ele>
        <time>2020-03-26T12:23:17Z</time>
        <extensions><gpxtpx:TrackPointExtension><gpxtpx:hr>147</gpxtpx:hr></gpxtpx:TrackPointExtension></extensions>
      </trkpt>
      <trkpt lat="59.076807" lon="17.331548">
        <ele>35.4</ele>
        <time>2020-03-26T12:23:18Z</time>
        <extensions><gpxtpx:TrackPointExtension><gpxtpx:hr>147</gpxtpx:hr></gpxtpx:TrackPointExtension></extensions>
      </trkpt>
      <trkpt lat="59.076864" lon="17.331602">
        <ele>35.6</ele>
        <time>2020-03-26T12:23:19Z</time>
        <extensions><gpxtpx:TrackPointExtension><gpxtpx:hr>147</gpxtpx:hr></gpxtpx:TrackPointExtension></extensions>
      </trkpt>
      <trkpt lat="59.076921" lon="17.331657">
        <ele>35.6</ele>
        <time>2020-03-26T12:23:20Z</time>
        <extensions><gpxtpx:TrackPointExtension><gpxtpx:hr>147</gpxtpx:hr></gpxtpx:TrackPointExtension></extensions>
      </trkpt>
      <trkpt lat="59.076981" lon="17.331713">
        <ele>35.8</ele>
        <time>2020-03-26T12:23:21Z</time>
        <extensions><gpxtpx:TrackPointExtension><gpxtpx:hr>147</gpxtpx:hr></gpxtpx:TrackPointExtension></extensions>
      </trkpt>
      <trkpt lat="59.077045" lon="17.331769">
        <ele>36.2</ele>
        <time>2020-03-26T12:23:22Z</time>
        <extensions><gpxtpx:TrackPointExtension><gpxtpx:hr>147</gpxtpx:hr></gpxtpx:TrackPointExtension></extensions>
      </trkpt>
      <trkpt lat="59.077112" lon="17.331826">
        <ele>36.6</ele>
        <time>2020-03-26T12:23:23Z</time>
        <extensions><gpxtpx:TrackPointExtension><gpxtpx:hr>147</gpxtpx:hr></gpxtpx:TrackPointExtension></extensions>
      </trkpt>
      <trkpt lat="59.077176" lon="17.331887">
        <ele>37.2</ele>
        <time>2020-03-26T12:23:24Z</time>
        <extensions><gpxtpx:TrackPointExtension><gpxtpx:hr>147</gpxtpx:hr></gpxtpx:TrackPointExtension></extensions>
      </trkpt>
      <trkpt lat="59.077241" lon="17.331949">
        <ele>37.6</ele>
        <time>2020-03-26T12:23:25Z</time>
        <extensions><gpxtpx:TrackPointExtension><gpxtpx:hr>147</gpxtpx:hr></gpxtpx:TrackPointExtension></extensions>
      </trkpt>
      <trkpt lat="59.077313" lon="17.332008">
        <ele>37.8</ele>
        <time>2020-03-26T12:23:26Z</time>
        <extensions><gpxtpx:TrackPointExtension><gpxtpx:hr>147</gpxtpx:hr></gpxtpx:TrackPointExtension></extensions>
      </trkpt>
      <trkpt lat="59.077384" lon="17.332069">
        <ele>38</ele>
        <time>2020-03-26T12:23:27Z</time>
        <extensions><gpxtpx:TrackPointExtension><gpxtpx:hr>148</gpxtpx:hr></gpxtpx:TrackPointExtension></extensions>
      </trkpt>
      <trkpt lat="59.077459" lon="17.332126">
        <ele>38</ele>
        <time>2020-03-26T12:23:28Z</time>
        <extensions><gpxtpx:TrackPointExtension><gpxtpx:hr>148</gpxtpx:hr></gpxtpx:TrackPointExtension></extensions>
      </trkpt>
      <trkpt lat="59.077532" lon="17.332179">
        <ele>38</ele>
        <time>2020-03-26T12:23:29Z</time>
        <extensions><gpxtpx:TrackPointExtension><gpxtpx:hr>148</gpxtpx:hr></gpxtpx:TrackPointExtension></extensions>
      </trkpt>
      <trkpt lat="59.077609" lon="17.33223">
        <ele>38</ele>
        <time>2020-03-26T12:23:30Z</time>
        <extensions><gpxtpx:TrackPointExtension><gpxtpx:hr>148</gpxtpx:hr></gpxtpx:TrackPointExtension></extensions>
      </trkpt>
      <trkpt lat="59.077685" lon="17.332282">
        <ele>38</ele>
        <time>2020-03-26T12:23:31Z</time>
        <extensions><gpxtpx:TrackPointExtension><gpxtpx:hr>148</gpxtpx:hr></gpxtpx:TrackPointExtension></extensions>
      </trkpt>
      <trkpt lat="59.077759" lon="17.332337">
        <ele>38</ele>
        <time>2020-03-26T12:23:32Z</time>
        <extensions><gpxtpx:TrackPointExtension><gpxtpx:hr>147</gpxtpx:hr></gpxtpx:TrackPointExtension></extensions>
      </trkpt>
      <trkpt lat="59.077836" lon="17.332392">
        <ele>38</ele>
        <time>2020-03-26T12:23:33Z</time>
        <extensions><gpxtpx:TrackPointExtension><gpxtpx:hr>147</gpxtpx:hr></gpxtpx:TrackPointExtension></extensions>
      </trkpt>
      <trkpt lat="59.077915" lon="17.332448">
        <ele>37.8</ele>
        <time>2020-03-26T12:23:34Z</time>
        <extensions><gpxtpx:TrackPointExtension><gpxtpx:hr>147</gpxtpx:hr></gpxtpx:TrackPointExtension></extensions>
      </trkpt>
      <trkpt lat="59.077999" lon="17.332505">
        <ele>37.6</ele>
        <time>2020-03-26T12:23:35Z</time>
        <extensions><gpxtpx:TrackPointExtension><gpxtpx:hr>146</gpxtpx:hr></gpxtpx:TrackPointExtension></extensions>
      </trkpt>
      <trkpt lat="59.078085" lon="17.332561">
        <ele>37.4</ele>
        <time>2020-03-26T12:23:36Z</time>
        <extensions><gpxtpx:TrackPointExtension><gpxtpx:hr>146</gpxtpx:hr></gpxtpx:TrackPointExtension></extensions>
      </trkpt>
      <trkpt lat="59.078168" lon="17.332618">
        <ele>37</ele>
        <time>2020-03-26T12:23:37Z</time>
        <extensions><gpxtpx:TrackPointExtension><gpxtpx:hr>146</gpxtpx:hr></gpxtpx:TrackPointExtension></extensions>
      </trkpt>
      <trkpt lat="59.078258" lon="17.33267">
        <ele>36.6</ele>
        <time>2020-03-26T12:23:38Z</time>
        <extensions><gpxtpx:TrackPointExtension><gpxtpx:hr>145</gpxtpx:hr></gpxtpx:TrackPointExtension></extensions>
      </trkpt>
      <trkpt lat="59.078351" lon="17.332715">
        <ele>36.4</ele>
        <time>2020-03-26T12:23:39Z</time>
        <extensions><gpxtpx:TrackPointExtension><gpxtpx:hr>145</gpxtpx:hr></gpxtpx:TrackPointExtension></extensions>
      </trkpt>
      <trkpt lat="59.078421" lon="17.332727">
        <ele>36.2</ele>
        <time>2020-03-26T12:23:40Z</time>
        <extensions><gpxtpx:TrackPointExtension><gpxtpx:hr>145</gpxtpx:hr></gpxtpx:TrackPointExtension></extensions>
      </trkpt>
      <trkpt lat="59.078491" lon="17.33274">
        <ele>36.2</ele>
        <time>2020-03-26T12:23:41Z</time>
        <extensions><gpxtpx:TrackPointExtension><gpxtpx:hr>144</gpxtpx:hr></gpxtpx:TrackPointExtension></extensions>
      </trkpt>
      <trkpt lat="59.078631" lon="17.332766">
        <ele>36</ele>
        <time>2020-03-26T12:23:42Z</time>
        <extensions><gpxtpx:TrackPointExtension><gpxtpx:hr>144</gpxtpx:hr></gpxtpx:TrackPointExtension></extensions>
      </trkpt>
      <trkpt lat="59.078715" lon="17.332759">
        <ele>35.8</ele>
        <time>2020-03-26T12:23:43Z</time>
        <extensions><gpxtpx:TrackPointExtension><gpxtpx:hr>144</gpxtpx:hr></gpxtpx:TrackPointExtension></extensions>
      </trkpt>
      <trkpt lat="59.078796" lon="17.332743">
        <ele>35.6</ele>
        <time>2020-03-26T12:23:44Z</time>
        <extensions><gpxtpx:TrackPointExtension><gpxtpx:hr>144</gpxtpx:hr></gpxtpx:TrackPointExtension></extensions>
      </trkpt>
      <trkpt lat="59.078871" lon="17.332716">
        <ele>35.4</ele>
        <time>2020-03-26T12:23:45Z</time>
        <extensions><gpxtpx:TrackPointExtension><gpxtpx:hr>144</gpxtpx:hr></gpxtpx:TrackPointExtension></extensions>
      </trkpt>
      <trkpt lat="59.078943" lon="17.332677">
        <ele>35.4</ele>
        <time>2020-03-26T12:23:46Z</time>
        <extensions><gpxtpx:TrackPointExtension><gpxtpx:hr>144</gpxtpx:hr></gpxtpx:TrackPointExtension></extensions>
      </trkpt>
      <trkpt lat="59.079017" lon="17.332632">
        <ele>35.2</ele>
        <time>2020-03-26T12:23:47Z</time>
        <extensions><gpxtpx:TrackPointExtension><gpxtpx:hr>144</gpxtpx:hr></gpxtpx:TrackPointExtension></extensions>
      </trkpt>
      <trkpt lat="59.079091" lon="17.332585">
        <ele>35.2</ele>
        <time>2020-03-26T12:23:48Z</time>
        <extensions><gpxtpx:TrackPointExtension><gpxtpx:hr>144</gpxtpx:hr></gpxtpx:TrackPointExtension></extensions>
      </trkpt>
      <trkpt lat="59.079164" lon="17.332536">
        <ele>35.2</ele>
        <time>2020-03-26T12:23:49Z</time>
        <extensions><gpxtpx:TrackPointExtension><gpxtpx:hr>143</gpxtpx:hr></gpxtpx:TrackPointExtension></extensions>
      </trkpt>
      <trkpt lat="59.079238" lon="17.332485">
        <ele>35.2</ele>
        <time>2020-03-26T12:23:50Z</time>
        <extensions><gpxtpx:TrackPointExtension><gpxtpx:hr>143</gpxtpx:hr></gpxtpx:TrackPointExtension></extensions>
      </trkpt>
      <trkpt lat="59.079313" lon="17.332431">
        <ele>35.2</ele>
        <time>2020-03-26T12:23:51Z</time>
        <extensions><gpxtpx:TrackPointExtension><gpxtpx:hr>143</gpxtpx:hr></gpxtpx:TrackPointExtension></extensions>
      </trkpt>
      <trkpt lat="59.079387" lon="17.332372">
        <ele>35.2</ele>
        <time>2020-03-26T12:23:52Z</time>
        <extensions><gpxtpx:TrackPointExtension><gpxtpx:hr>143</gpxtpx:hr></gpxtpx:TrackPointExtension></extensions>
      </trkpt>
      <trkpt lat="59.07946" lon="17.33231">
        <ele>35.2</ele>
        <time>2020-03-26T12:23:53Z</time>
        <extensions><gpxtpx:TrackPointExtension><gpxtpx:hr>144</gpxtpx:hr></gpxtpx:TrackPointExtension></extensions>
      </trkpt>
      <trkpt lat="59.079531" lon="17.332245">
        <ele>35.2</ele>
        <time>2020-03-26T12:23:54Z</time>
        <extensions><gpxtpx:TrackPointExtension><gpxtpx:hr>144</gpxtpx:hr></gpxtpx:TrackPointExtension></extensions>
      </trkpt>
      <trkpt lat="59.079602" lon="17.332179">
        <ele>35.2</ele>
        <time>2020-03-26T12:23:55Z</time>
        <extensions><gpxtpx:TrackPointExtension><gpxtpx:hr>144</gpxtpx:hr></gpxtpx:TrackPointExtension></extensions>
      </trkpt>
      <trkpt lat="59.079673" lon="17.332113">
        <ele>35.2</ele>
        <time>2020-03-26T12:23:56Z</time>
        <extensions><gpxtpx:TrackPointExtension><gpxtpx:hr>145</gpxtpx:hr></gpxtpx:TrackPointExtension></extensions>
      </trkpt>
      <trkpt lat="59.079744" lon="17.332048">
        <ele>35.2</ele>
        <time>2020-03-26T12:23:57Z</time>
        <extensions><gpxtpx:TrackPointExtension><gpxtpx:hr>145</gpxtpx:hr></gpxtpx:TrackPointExtension></extensions>
      </trkpt>
      <trkpt lat="59.079817" lon="17.331983">
        <ele>35.2</ele>
        <time>2020-03-26T12:23:58Z</time>
        <extensions><gpxtpx:TrackPointExtension><gpxtpx:hr>145</gpxtpx:hr></gpxtpx:TrackPointExtension></extensions>
      </trkpt>
      <trkpt lat="59.079892" lon="17.331918">
        <ele>35.2</ele>
        <time>2020-03-26T12:23:59Z</time>
        <extensions><gpxtpx:TrackPointExtension><gpxtpx:hr>145</gpxtpx:hr></gpxtpx:TrackPointExtension></extensions>
      </trkpt>
      <trkpt lat="59.079967" lon="17.331851">
        <ele>35.2</ele>
        <time>2020-03-26T12:24:00Z</time>
        <extensions><gpxtpx:TrackPointExtension><gpxtpx:hr>145</gpxtpx:hr></gpxtpx:TrackPointExtension></extensions>
      </trkpt>
      <trkpt lat="59.080042" lon="17.331783">
        <ele>35.2</ele>
        <time>2020-03-26T12:24:01Z</time>
        <extensions><gpxtpx:TrackPointExtension><gpxtpx:hr>145</gpxtpx:hr></gpxtpx:TrackPointExtension></extensions>
      </trkpt>
      <trkpt lat="59.080118" lon="17.331715">
        <ele>35.2</ele>
        <time>2020-03-26T12:24:02Z</time>
        <extensions><gpxtpx:TrackPointExtension><gpxtpx:hr>145</gpxtpx:hr></gpxtpx:TrackPointExtension></extensions>
      </trkpt>
      <trkpt lat="59.080196" lon="17.331647">
        <ele>35.2</ele>
        <time>2020-03-26T12:24:03Z</time>
        <extensions><gpxtpx:TrackPointExtension><gpxtpx:hr>145</gpxtpx:hr></gpxtpx:TrackPointExtension></extensions>
      </trkpt>
      <trkpt lat="59.080275" lon="17.331577">
        <ele>35.2</ele>
        <time>2020-03-26T12:24:04Z</time>
        <extensions><gpxtpx:TrackPointExtension><gpxtpx:hr>145</gpxtpx:hr></gpxtpx:TrackPointExtension></extensions>
      </trkpt>
      <trkpt lat="59.080353" lon="17.331506">
        <ele>35.2</ele>
        <time>2020-03-26T12:24:05Z</time>
        <extensions><gpxtpx:TrackPointExtension><gpxtpx:hr>145</gpxtpx:hr></gpxtpx:TrackPointExtension></extensions>
      </trkpt>
      <trkpt lat="59.080432" lon="17.331437">
        <ele>35</ele>
        <time>2020-03-26T12:24:06Z</time>
        <extensions><gpxtpx:TrackPointExtension><gpxtpx:hr>145</gpxtpx:hr></gpxtpx:TrackPointExtension></extensions>
      </trkpt>
      <trkpt lat="59.080511" lon="17.331366">
        <ele>35</ele>
        <time>2020-03-26T12:24:07Z</time>
        <extensions><gpxtpx:TrackPointExtension><gpxtpx:hr>145</gpxtpx:hr></gpxtpx:TrackPointExtension></extensions>
      </trkpt>
      <trkpt lat="59.080588" lon="17.331292">
        <ele>35</ele>
        <time>2020-03-26T12:24:08Z</time>
        <extensions><gpxtpx:TrackPointExtension><gpxtpx:hr>145</gpxtpx:hr></gpxtpx:TrackPointExtension></extensions>
      </trkpt>
      <trkpt lat="59.080664" lon="17.331219">
        <ele>34.8</ele>
        <time>2020-03-26T12:24:09Z</time>
        <extensions><gpxtpx:TrackPointExtension><gpxtpx:hr>145</gpxtpx:hr></gpxtpx:TrackPointExtension></extensions>
      </trkpt>
      <trkpt lat="59.08074" lon="17.331148">
        <ele>34.8</ele>
        <time>2020-03-26T12:24:10Z</time>
        <extensions><gpxtpx:TrackPointExtension><gpxtpx:hr>145</gpxtpx:hr></gpxtpx:TrackPointExtension></extensions>
      </trkpt>
      <trkpt lat="59.080818" lon="17.331082">
        <ele>34.6</ele>
        <time>2020-03-26T12:24:11Z</time>
        <extensions><gpxtpx:TrackPointExtension><gpxtpx:hr>145</gpxtpx:hr></gpxtpx:TrackPointExtension></extensions>
      </trkpt>
      <trkpt lat="59.080896" lon="17.33102">
        <ele>34.4</ele>
        <time>2020-03-26T12:24:12Z</time>
        <extensions><gpxtpx:TrackPointExtension><gpxtpx:hr>145</gpxtpx:hr></gpxtpx:TrackPointExtension></extensions>
      </trkpt>
      <trkpt lat="59.080976" lon="17.330964">
        <ele>34.2</ele>
        <time>2020-03-26T12:24:13Z</time>
        <extensions><gpxtpx:TrackPointExtension><gpxtpx:hr>145</gpxtpx:hr></gpxtpx:TrackPointExtension></extensions>
      </trkpt>
      <trkpt lat="59.08106" lon="17.330918">
        <ele>34</ele>
        <time>2020-03-26T12:24:14Z</time>
        <extensions><gpxtpx:TrackPointExtension><gpxtpx:hr>145</gpxtpx:hr></gpxtpx:TrackPointExtension></extensions>
      </trkpt>
      <trkpt lat="59.081147" lon="17.330901">
        <ele>34</ele>
        <time>2020-03-26T12:24:15Z</time>
        <extensions><gpxtpx:TrackPointExtension><gpxtpx:hr>145</gpxtpx:hr></gpxtpx:TrackPointExtension></extensions>
      </trkpt>
      <trkpt lat="59.08124" lon="17.330944">
        <ele>33.8</ele>
        <time>2020-03-26T12:24:16Z</time>
        <extensions><gpxtpx:TrackPointExtension><gpxtpx:hr>145</gpxtpx:hr></gpxtpx:TrackPointExtension></extensions>
      </trkpt>
      <trkpt lat="59.081325" lon="17.33105">
        <ele>33.6</ele>
        <time>2020-03-26T12:24:17Z</time>
        <extensions><gpxtpx:TrackPointExtension><gpxtpx:hr>145</gpxtpx:hr></gpxtpx:TrackPointExtension></extensions>
      </trkpt>
      <trkpt lat="59.081389" lon="17.331204">
        <ele>33.6</ele>
        <time>2020-03-26T12:24:18Z</time>
        <extensions><gpxtpx:TrackPointExtension><gpxtpx:hr>145</gpxtpx:hr></gpxtpx:TrackPointExtension></extensions>
      </trkpt>
      <trkpt lat="59.081429" lon="17.331386">
        <ele>33.2</ele>
        <time>2020-03-26T12:24:19Z</time>
        <extensions><gpxtpx:TrackPointExtension><gpxtpx:hr>145</gpxtpx:hr></gpxtpx:TrackPointExtension></extensions>
      </trkpt>
      <trkpt lat="59.081453" lon="17.331575">
        <ele>33</ele>
        <time>2020-03-26T12:24:20Z</time>
        <extensions><gpxtpx:TrackPointExtension><gpxtpx:hr>144</gpxtpx:hr></gpxtpx:TrackPointExtension></extensions>
      </trkpt>
      <trkpt lat="59.081476" lon="17.33176">
        <ele>32.6</ele>
        <time>2020-03-26T12:24:21Z</time>
        <extensions><gpxtpx:TrackPointExtension><gpxtpx:hr>144</gpxtpx:hr></gpxtpx:TrackPointExtension></extensions>
      </trkpt>
      <trkpt lat="59.081502" lon="17.331942">
        <ele>32</ele>
        <time>2020-03-26T12:24:22Z</time>
        <extensions><gpxtpx:TrackPointExtension><gpxtpx:hr>143</gpxtpx:hr></gpxtpx:TrackPointExtension></extensions>
      </trkpt>
      <trkpt lat="59.081528" lon="17.332124">
        <ele>31.2</ele>
        <time>2020-03-26T12:24:23Z</time>
        <extensions><gpxtpx:TrackPointExtension><gpxtpx:hr>143</gpxtpx:hr></gpxtpx:TrackPointExtension></extensions>
      </trkpt>
      <trkpt lat="59.081555" lon="17.332305">
        <ele>30.6</ele>
        <time>2020-03-26T12:24:24Z</time>
        <extensions><gpxtpx:TrackPointExtension><gpxtpx:hr>142</gpxtpx:hr></gpxtpx:TrackPointExtension></extensions>
      </trkpt>
      <trkpt lat="59.081581" lon="17.332483">
        <ele>29.6</ele>
        <time>2020-03-26T12:24:25Z</time>
        <extensions><gpxtpx:TrackPointExtension><gpxtpx:hr>141</gpxtpx:hr></gpxtpx:TrackPointExtension></extensions>
      </trkpt>
      <trkpt lat="59.081606" lon="17.332659">
        <ele>28.6</ele>
        <time>2020-03-26T12:24:26Z</time>
        <extensions><gpxtpx:TrackPointExtension><gpxtpx:hr>141</gpxtpx:hr></gpxtpx:TrackPointExtension></extensions>
      </trkpt>
      <trkpt lat="59.081628" lon="17.332833">
        <ele>27.6</ele>
        <time>2020-03-26T12:24:27Z</time>
        <extensions><gpxtpx:TrackPointExtension><gpxtpx:hr>140</gpxtpx:hr></gpxtpx:TrackPointExtension></extensions>
      </trkpt>
      <trkpt lat="59.081648" lon="17.333008">
        <ele>27</ele>
        <time>2020-03-26T12:24:28Z</time>
        <extensions><gpxtpx:TrackPointExtension><gpxtpx:hr>140</gpxtpx:hr></gpxtpx:TrackPointExtension></extensions>
      </trkpt>
      <trkpt lat="59.081666" lon="17.333183">
        <ele>26.8</ele>
        <time>2020-03-26T12:24:29Z</time>
        <extensions><gpxtpx:TrackPointExtension><gpxtpx:hr>140</gpxtpx:hr></gpxtpx:TrackPointExtension></extensions>
      </trkpt>
      <trkpt lat="59.081681" lon="17.333358">
        <ele>26.6</ele>
        <time>2020-03-26T12:24:30Z</time>
        <extensions><gpxtpx:TrackPointExtension><gpxtpx:hr>140</gpxtpx:hr></gpxtpx:TrackPointExtension></extensions>
      </trkpt>
      <trkpt lat="59.081693" lon="17.333534">
        <ele>26.4</ele>
        <time>2020-03-26T12:24:31Z</time>
        <extensions><gpxtpx:TrackPointExtension><gpxtpx:hr>140</gpxtpx:hr></gpxtpx:TrackPointExtension></extensions>
      </trkpt>
      <trkpt lat="59.081705" lon="17.333707">
        <ele>26.4</ele>
        <time>2020-03-26T12:24:32Z</time>
        <extensions><gpxtpx:TrackPointExtension><gpxtpx:hr>140</gpxtpx:hr></gpxtpx:TrackPointExtension></extensions>
      </trkpt>
      <trkpt lat="59.081717" lon="17.333879">
        <ele>26.4</ele>
        <time>2020-03-26T12:24:33Z</time>
        <extensions><gpxtpx:TrackPointExtension><gpxtpx:hr>140</gpxtpx:hr></gpxtpx:TrackPointExtension></extensions>
      </trkpt>
      <trkpt lat="59.081729" lon="17.334047">
        <ele>26.4</ele>
        <time>2020-03-26T12:24:34Z</time>
        <extensions><gpxtpx:TrackPointExtension><gpxtpx:hr>140</gpxtpx:hr></gpxtpx:TrackPointExtension></extensions>
      </trkpt>
      <trkpt lat="59.081742" lon="17.334213">
        <ele>26.4</ele>
        <time>2020-03-26T12:24:35Z</time>
        <extensions><gpxtpx:TrackPointExtension><gpxtpx:hr>140</gpxtpx:hr></gpxtpx:TrackPointExtension></extensions>
      </trkpt>
      <trkpt lat="59.081757" lon="17.334376">
        <ele>26.4</ele>
        <time>2020-03-26T12:24:36Z</time>
        <extensions><gpxtpx:TrackPointExtension><gpxtpx:hr>140</gpxtpx:hr></gpxtpx:TrackPointExtension></extensions>
      </trkpt>
      <trkpt lat="59.081775" lon="17.334535">
        <ele>26.4</ele>
        <time>2020-03-26T12:24:37Z</time>
        <extensions><gpxtpx:TrackPointExtension><gpxtpx:hr>140</gpxtpx:hr></gpxtpx:TrackPointExtension></extensions>
      </trkpt>
      <trkpt lat="59.081795" lon="17.334688">
        <ele>26.4</ele>
        <time>2020-03-26T12:24:38Z</time>
        <extensions><gpxtpx:TrackPointExtension><gpxtpx:hr>140</gpxtpx:hr></gpxtpx:TrackPointExtension></extensions>
      </trkpt>
      <trkpt lat="59.081819" lon="17.334833">
        <ele>26.4</ele>
        <time>2020-03-26T12:24:39Z</time>
        <extensions><gpxtpx:TrackPointExtension><gpxtpx:hr>140</gpxtpx:hr></gpxtpx:TrackPointExtension></extensions>
      </trkpt>
      <trkpt lat="59.081849" lon="17.334968">
        <ele>26.4</ele>
        <time>2020-03-26T12:24:40Z</time>
        <extensions><gpxtpx:TrackPointExtension><gpxtpx:hr>140</gpxtpx:hr></gpxtpx:TrackPointExtension></extensions>
      </trkpt>
      <trkpt lat="59.081887" lon="17.33509">
        <ele>26.6</ele>
        <time>2020-03-26T12:24:41Z</time>
        <extensions><gpxtpx:TrackPointExtension><gpxtpx:hr>140</gpxtpx:hr></gpxtpx:TrackPointExtension></extensions>
      </trkpt>
      <trkpt lat="59.081932" lon="17.335195">
        <ele>26.8</ele>
        <time>2020-03-26T12:24:42Z</time>
        <extensions><gpxtpx:TrackPointExtension><gpxtpx:hr>140</gpxtpx:hr></gpxtpx:TrackPointExtension></extensions>
      </trkpt>
      <trkpt lat="59.081978" lon="17.33529">
        <ele>27</ele>
        <time>2020-03-26T12:24:43Z</time>
        <extensions><gpxtpx:TrackPointExtension><gpxtpx:hr>140</gpxtpx:hr></gpxtpx:TrackPointExtension></extensions>
      </trkpt>
      <trkpt lat="59.082022" lon="17.335373">
        <ele>27.2</ele>
        <time>2020-03-26T12:24:44Z</time>
        <extensions><gpxtpx:TrackPointExtension><gpxtpx:hr>140</gpxtpx:hr></gpxtpx:TrackPointExtension></extensions>
      </trkpt>
      <trkpt lat="59.082066" lon="17.335445">
        <ele>27.2</ele>
        <time>2020-03-26T12:24:45Z</time>
        <extensions><gpxtpx:TrackPointExtension><gpxtpx:hr>140</gpxtpx:hr></gpxtpx:TrackPointExtension></extensions>
      </trkpt>
      <trkpt lat="59.082109" lon="17.335508">
        <ele>27.4</ele>
        <time>2020-03-26T12:24:46Z</time>
        <extensions><gpxtpx:TrackPointExtension><gpxtpx:hr>141</gpxtpx:hr></gpxtpx:TrackPointExtension></extensions>
      </trkpt>
      <trkpt lat="59.082151" lon="17.335562">
        <ele>27.4</ele>
        <time>2020-03-26T12:24:47Z</time>
        <extensions><gpxtpx:TrackPointExtension><gpxtpx:hr>141</gpxtpx:hr></gpxtpx:TrackPointExtension></extensions>
      </trkpt>
      <trkpt lat="59.082194" lon="17.335605">
        <ele>27.8</ele>
        <time>2020-03-26T12:24:48Z</time>
        <extensions><gpxtpx:TrackPointExtension><gpxtpx:hr>141</gpxtpx:hr></gpxtpx:TrackPointExtension></extensions>
      </trkpt>
      <trkpt lat="59.082234" lon="17.33564">
        <ele>28.4</ele>
        <time>2020-03-26T12:24:49Z</time>
        <extensions><gpxtpx:TrackPointExtension><gpxtpx:hr>141</gpxtpx:hr></gpxtpx:TrackPointExtension></extensions>
      </trkpt>
      <trkpt lat="59.082273" lon="17.335673">
        <ele>28.6</ele>
        <time>2020-03-26T12:24:50Z</time>
        <extensions><gpxtpx:TrackPointExtension><gpxtpx:hr>142</gpxtpx:hr></gpxtpx:TrackPointExtension></extensions>
      </trkpt>
      <trkpt lat="59.082312" lon="17.335708">
        <ele>29</ele>
        <time>2020-03-26T12:24:51Z</time>
        <extensions><gpxtpx:TrackPointExtension><gpxtpx:hr>143</gpxtpx:hr></gpxtpx:TrackPointExtension></extensions>
      </trkpt>
      <trkpt lat="59.082349" lon="17.335747">
        <ele>29.4</ele>
        <time>2020-03-26T12:24:52Z</time>
        <extensions><gpxtpx:TrackPointExtension><gpxtpx:hr>144</gpxtpx:hr></gpxtpx:TrackPointExtension></extensions>
      </trkpt>
      <trkpt lat="59.082385" lon="17.335785">
        <ele>30</ele>
        <time>2020-03-26T12:24:53Z</time>
        <extensions><gpxtpx:TrackPointExtension><gpxtpx:hr>144</gpxtpx:hr></gpxtpx:TrackPointExtension></extensions>
      </trkpt>
      <trkpt lat="59.082421" lon="17.335823">
        <ele>30.6</ele>
        <time>2020-03-26T12:24:54Z</time>
        <extensions><gpxtpx:TrackPointExtension><gpxtpx:hr>145</gpxtpx:hr></gpxtpx:TrackPointExtension></extensions>
      </trkpt>
      <trkpt lat="59.082459" lon="17.335862">
        <ele>31.4</ele>
        <time>2020-03-26T12:24:55Z</time>
        <extensions><gpxtpx:TrackPointExtension><gpxtpx:hr>146</gpxtpx:hr></gpxtpx:TrackPointExtension></extensions>
      </trkpt>
      <trkpt lat="59.082496" lon="17.335902">
        <ele>32</ele>
        <time>2020-03-26T12:24:56Z</time>
        <extensions><gpxtpx:TrackPointExtension><gpxtpx:hr>147</gpxtpx:hr></gpxtpx:TrackPointExtension></extensions>
      </trkpt>
      <trkpt lat="59.082533" lon="17.335946">
        <ele>32.6</ele>
        <time>2020-03-26T12:24:57Z</time>
        <extensions><gpxtpx:TrackPointExtension><gpxtpx:hr>148</gpxtpx:hr></gpxtpx:TrackPointExtension></extensions>
      </trkpt>
      <trkpt lat="59.08257" lon="17.335989">
        <ele>33.2</ele>
        <time>2020-03-26T12:24:58Z</time>
        <extensions><gpxtpx:TrackPointExtension><gpxtpx:hr>148</gpxtpx:hr></gpxtpx:TrackPointExtension></extensions>
      </trkpt>
      <trkpt lat="59.082606" lon="17.336033">
        <ele>33.6</ele>
        <time>2020-03-26T12:24:59Z</time>
        <extensions><gpxtpx:TrackPointExtension><gpxtpx:hr>149</gpxtpx:hr></gpxtpx:TrackPointExtension></extensions>
      </trkpt>
      <trkpt lat="59.08264" lon="17.336076">
        <ele>34</ele>
        <time>2020-03-26T12:25:00Z</time>
        <extensions><gpxtpx:TrackPointExtension><gpxtpx:hr>149</gpxtpx:hr></gpxtpx:TrackPointExtension></extensions>
      </trkpt>
      <trkpt lat="59.082672" lon="17.336119">
        <ele>34.2</ele>
        <time>2020-03-26T12:25:01Z</time>
        <extensions><gpxtpx:TrackPointExtension><gpxtpx:hr>150</gpxtpx:hr></gpxtpx:TrackPointExtension></extensions>
      </trkpt>
      <trkpt lat="59.082704" lon="17.336161">
        <ele>34.6</ele>
        <time>2020-03-26T12:25:02Z</time>
        <extensions><gpxtpx:TrackPointExtension><gpxtpx:hr>150</gpxtpx:hr></gpxtpx:TrackPointExtension></extensions>
      </trkpt>
      <trkpt lat="59.082737" lon="17.3362">
        <ele>35.6</ele>
        <time>2020-03-26T12:25:03Z</time>
        <extensions><gpxtpx:TrackPointExtension><gpxtpx:hr>150</gpxtpx:hr></gpxtpx:TrackPointExtension></extensions>
      </trkpt>
      <trkpt lat="59.082768" lon="17.336236">
        <ele>36</ele>
        <time>2020-03-26T12:25:04Z</time>
        <extensions><gpxtpx:TrackPointExtension><gpxtpx:hr>151</gpxtpx:hr></gpxtpx:TrackPointExtension></extensions>
      </trkpt>
      <trkpt lat="59.082802" lon="17.336271">
        <ele>36.4</ele>
        <time>2020-03-26T12:25:05Z</time>
        <extensions><gpxtpx:TrackPointExtension><gpxtpx:hr>151</gpxtpx:hr></gpxtpx:TrackPointExtension></extensions>
      </trkpt>
      <trkpt lat="59.082837" lon="17.336306">
        <ele>36.8</ele>
        <time>2020-03-26T12:25:06Z</time>
        <extensions><gpxtpx:TrackPointExtension><gpxtpx:hr>151</gpxtpx:hr></gpxtpx:TrackPointExtension></extensions>
      </trkpt>
      <trkpt lat="59.082873" lon="17.336345">
        <ele>36.8</ele>
        <time>2020-03-26T12:25:07Z</time>
        <extensions><gpxtpx:TrackPointExtension><gpxtpx:hr>151</gpxtpx:hr></gpxtpx:TrackPointExtension></extensions>
      </trkpt>
      <trkpt lat="59.082908" lon="17.336385">
        <ele>37</ele>
        <time>2020-03-26T12:25:08Z</time>
        <extensions><gpxtpx:TrackPointExtension><gpxtpx:hr>152</gpxtpx:hr></gpxtpx:TrackPointExtension></extensions>
      </trkpt>
      <trkpt lat="59.082946" lon="17.336425">
        <ele>37.2</ele>
        <time>2020-03-26T12:25:09Z</time>
        <extensions><gpxtpx:TrackPointExtension><gpxtpx:hr>152</gpxtpx:hr></gpxtpx:TrackPointExtension></extensions>
      </trkpt>
      <trkpt lat="59.082983" lon="17.336462">
        <ele>37.4</ele>
        <time>2020-03-26T12:25:10Z</time>
        <extensions><gpxtpx:TrackPointExtension><gpxtpx:hr>152</gpxtpx:hr></gpxtpx:TrackPointExtension></extensions>
      </trkpt>
      <trkpt lat="59.083019" lon="17.336495">
        <ele>37.8</ele>
        <time>2020-03-26T12:25:11Z</time>
        <extensions><gpxtpx:TrackPointExtension><gpxtpx:hr>153</gpxtpx:hr></gpxtpx:TrackPointExtension></extensions>
      </trkpt>
      <trkpt lat="59.08306" lon="17.336525">
        <ele>38</ele>
        <time>2020-03-26T12:25:12Z</time>
        <extensions><gpxtpx:TrackPointExtension><gpxtpx:hr>153</gpxtpx:hr></gpxtpx:TrackPointExtension></extensions>
      </trkpt>
      <trkpt lat="59.083101" lon="17.336554">
        <ele>38.2</ele>
        <time>2020-03-26T12:25:13Z</time>
        <extensions><gpxtpx:TrackPointExtension><gpxtpx:hr>153</gpxtpx:hr></gpxtpx:TrackPointExtension></extensions>
      </trkpt>
      <trkpt lat="59.083144" lon="17.336581">
        <ele>38.4</ele>
        <time>2020-03-26T12:25:14Z</time>
        <extensions><gpxtpx:TrackPointExtension><gpxtpx:hr>153</gpxtpx:hr></gpxtpx:TrackPointExtension></extensions>
      </trkpt>
      <trkpt lat="59.083184" lon="17.336608">
        <ele>38.6</ele>
        <time>2020-03-26T12:25:15Z</time>
        <extensions><gpxtpx:TrackPointExtension><gpxtpx:hr>154</gpxtpx:hr></gpxtpx:TrackPointExtension></extensions>
      </trkpt>
      <trkpt lat="59.083225" lon="17.336629">
        <ele>39</ele>
        <time>2020-03-26T12:25:16Z</time>
        <extensions><gpxtpx:TrackPointExtension><gpxtpx:hr>154</gpxtpx:hr></gpxtpx:TrackPointExtension></extensions>
      </trkpt>
      <trkpt lat="59.083263" lon="17.336653">
        <ele>39.2</ele>
        <time>2020-03-26T12:25:17Z</time>
        <extensions><gpxtpx:TrackPointExtension><gpxtpx:hr>155</gpxtpx:hr></gpxtpx:TrackPointExtension></extensions>
      </trkpt>
      <trkpt lat="59.083304" lon="17.336681">
        <ele>39.2</ele>
        <time>2020-03-26T12:25:18Z</time>
        <extensions><gpxtpx:TrackPointExtension><gpxtpx:hr>155</gpxtpx:hr></gpxtpx:TrackPointExtension></extensions>
      </trkpt>
      <trkpt lat="59.083344" lon="17.336709">
        <ele>39.4</ele>
        <time>2020-03-26T12:25:19Z</time>
        <extensions><gpxtpx:TrackPointExtension><gpxtpx:hr>156</gpxtpx:hr></gpxtpx:TrackPointExtension></extensions>
      </trkpt>
      <trkpt lat="59.083376" lon="17.336741">
        <ele>39.8</ele>
        <time>2020-03-26T12:25:20Z</time>
        <extensions><gpxtpx:TrackPointExtension><gpxtpx:hr>156</gpxtpx:hr></gpxtpx:TrackPointExtension></extensions>
      </trkpt>
      <trkpt lat="59.083404" lon="17.336782">
        <ele>40</ele>
        <time>2020-03-26T12:25:21Z</time>
        <extensions><gpxtpx:TrackPointExtension><gpxtpx:hr>157</gpxtpx:hr></gpxtpx:TrackPointExtension></extensions>
      </trkpt>
      <trkpt lat="59.08343" lon="17.33683">
        <ele>40.2</ele>
        <time>2020-03-26T12:25:22Z</time>
        <extensions><gpxtpx:TrackPointExtension><gpxtpx:hr>158</gpxtpx:hr></gpxtpx:TrackPointExtension></extensions>
      </trkpt>
      <trkpt lat="59.083454" lon="17.336888">
        <ele>40.6</ele>
        <time>2020-03-26T12:25:23Z</time>
        <extensions><gpxtpx:TrackPointExtension><gpxtpx:hr>159</gpxtpx:hr></gpxtpx:TrackPointExtension></extensions>
      </trkpt>
      <trkpt lat="59.083478" lon="17.336955">
        <ele>40.8</ele>
        <time>2020-03-26T12:25:24Z</time>
        <extensions><gpxtpx:TrackPointExtension><gpxtpx:hr>159</gpxtpx:hr></gpxtpx:TrackPointExtension></extensions>
      </trkpt>
      <trkpt lat="59.083502" lon="17.337026">
        <ele>41.2</ele>
        <time>2020-03-26T12:25:25Z</time>
        <extensions><gpxtpx:TrackPointExtension><gpxtpx:hr>160</gpxtpx:hr></gpxtpx:TrackPointExtension></extensions>
      </trkpt>
      <trkpt lat="59.083525" lon="17.337097">
        <ele>41.8</ele>
        <time>2020-03-26T12:25:26Z</time>
        <extensions><gpxtpx:TrackPointExtension><gpxtpx:hr>160</gpxtpx:hr></gpxtpx:TrackPointExtension></extensions>
      </trkpt>
      <trkpt lat="59.083544" lon="17.337161">
        <ele>42.2</ele>
        <time>2020-03-26T12:25:27Z</time>
        <extensions><gpxtpx:TrackPointExtension><gpxtpx:hr>161</gpxtpx:hr></gpxtpx:TrackPointExtension></extensions>
      </trkpt>
      <trkpt lat="59.083558" lon="17.337231">
        <ele>42.6</ele>
        <time>2020-03-26T12:25:28Z</time>
        <extensions><gpxtpx:TrackPointExtension><gpxtpx:hr>161</gpxtpx:hr></gpxtpx:TrackPointExtension></extensions>
      </trkpt>
      <trkpt lat="59.083571" lon="17.337305">
        <ele>43</ele>
        <time>2020-03-26T12:25:29Z</time>
        <extensions><gpxtpx:TrackPointExtension><gpxtpx:hr>162</gpxtpx:hr></gpxtpx:TrackPointExtension></extensions>
      </trkpt>
      <trkpt lat="59.083584" lon="17.337375">
        <ele>43.2</ele>
        <time>2020-03-26T12:25:30Z</time>
        <extensions><gpxtpx:TrackPointExtension><gpxtpx:hr>162</gpxtpx:hr></gpxtpx:TrackPointExtension></extensions>
      </trkpt>
      <trkpt lat="59.083594" lon="17.337451">
        <ele>43.2</ele>
        <time>2020-03-26T12:25:31Z</time>
        <extensions><gpxtpx:TrackPointExtension><gpxtpx:hr>162</gpxtpx:hr></gpxtpx:TrackPointExtension></extensions>
      </trkpt>
      <trkpt lat="59.083604" lon="17.337525">
        <ele>43.4</ele>
        <time>2020-03-26T12:25:32Z</time>
        <extensions><gpxtpx:TrackPointExtension><gpxtpx:hr>162</gpxtpx:hr></gpxtpx:TrackPointExtension></extensions>
      </trkpt>
      <trkpt lat="59.083611" lon="17.337606">
        <ele>43.4</ele>
        <time>2020-03-26T12:25:33Z</time>
        <extensions><gpxtpx:TrackPointExtension><gpxtpx:hr>163</gpxtpx:hr></gpxtpx:TrackPointExtension></extensions>
      </trkpt>
      <trkpt lat="59.083614" lon="17.3377">
        <ele>43.6</ele>
        <time>2020-03-26T12:25:34Z</time>
        <extensions><gpxtpx:TrackPointExtension><gpxtpx:hr>163</gpxtpx:hr></gpxtpx:TrackPointExtension></extensions>
      </trkpt>
      <trkpt lat="59.083614" lon="17.33781">
        <ele>43.6</ele>
        <time>2020-03-26T12:25:35Z</time>
        <extensions><gpxtpx:TrackPointExtension><gpxtpx:hr>163</gpxtpx:hr></gpxtpx:TrackPointExtension></extensions>
      </trkpt>
      <trkpt lat="59.083611" lon="17.337927">
        <ele>43.8</ele>
        <time>2020-03-26T12:25:36Z</time>
        <extensions><gpxtpx:TrackPointExtension><gpxtpx:hr>163</gpxtpx:hr></gpxtpx:TrackPointExtension></extensions>
      </trkpt>
      <trkpt lat="59.083603" lon="17.338057">
        <ele>43.8</ele>
        <time>2020-03-26T12:25:37Z</time>
        <extensions><gpxtpx:TrackPointExtension><gpxtpx:hr>163</gpxtpx:hr></gpxtpx:TrackPointExtension></extensions>
      </trkpt>
      <trkpt lat="59.083592" lon="17.33819">
        <ele>43.8</ele>
        <time>2020-03-26T12:25:38Z</time>
        <extensions><gpxtpx:TrackPointExtension><gpxtpx:hr>163</gpxtpx:hr></gpxtpx:TrackPointExtension></extensions>
      </trkpt>
      <trkpt lat="59.083575" lon="17.338328">
        <ele>43.8</ele>
        <time>2020-03-26T12:25:39Z</time>
        <extensions><gpxtpx:TrackPointExtension><gpxtpx:hr>163</gpxtpx:hr></gpxtpx:TrackPointExtension></extensions>
      </trkpt>
      <trkpt lat="59.083554" lon="17.338463">
        <ele>43.8</ele>
        <time>2020-03-26T12:25:40Z</time>
        <extensions><gpxtpx:TrackPointExtension><gpxtpx:hr>163</gpxtpx:hr></gpxtpx:TrackPointExtension></extensions>
      </trkpt>
      <trkpt lat="59.08353" lon="17.338592">
        <ele>43.8</ele>
        <time>2020-03-26T12:25:41Z</time>
        <extensions><gpxtpx:TrackPointExtension><gpxtpx:hr>163</gpxtpx:hr></gpxtpx:TrackPointExtension></extensions>
      </trkpt>
      <trkpt lat="59.083504" lon="17.33874">
        <ele>43.8</ele>
        <time>2020-03-26T12:25:42Z</time>
        <extensions><gpxtpx:TrackPointExtension><gpxtpx:hr>163</gpxtpx:hr></gpxtpx:TrackPointExtension></extensions>
      </trkpt>
      <trkpt lat="59.083483" lon="17.33889">
        <ele>43.8</ele>
        <time>2020-03-26T12:25:43Z</time>
        <extensions><gpxtpx:TrackPointExtension><gpxtpx:hr>162</gpxtpx:hr></gpxtpx:TrackPointExtension></extensions>
      </trkpt>
      <trkpt lat="59.083465" lon="17.339051">
        <ele>43.6</ele>
        <time>2020-03-26T12:25:44Z</time>
        <extensions><gpxtpx:TrackPointExtension><gpxtpx:hr>162</gpxtpx:hr></gpxtpx:TrackPointExtension></extensions>
      </trkpt>
      <trkpt lat="59.083452" lon="17.339211">
        <ele>43.4</ele>
        <time>2020-03-26T12:25:45Z</time>
        <extensions><gpxtpx:TrackPointExtension><gpxtpx:hr>162</gpxtpx:hr></gpxtpx:TrackPointExtension></extensions>
      </trkpt>
      <trkpt lat="59.083443" lon="17.339379">
        <ele>43</ele>
        <time>2020-03-26T12:25:46Z</time>
        <extensions><gpxtpx:TrackPointExtension><gpxtpx:hr>161</gpxtpx:hr></gpxtpx:TrackPointExtension></extensions>
      </trkpt>
      <trkpt lat="59.083432" lon="17.339549">
        <ele>42.6</ele>
        <time>2020-03-26T12:25:47Z</time>
        <extensions><gpxtpx:TrackPointExtension><gpxtpx:hr>160</gpxtpx:hr></gpxtpx:TrackPointExtension></extensions>
      </trkpt>
      <trkpt lat="59.083419" lon="17.339733">
        <ele>42.4</ele>
        <time>2020-03-26T12:25:48Z</time>
        <extensions><gpxtpx:TrackPointExtension><gpxtpx:hr>160</gpxtpx:hr></gpxtpx:TrackPointExtension></extensions>
      </trkpt>
      <trkpt lat="59.083406" lon="17.339914">
        <ele>42.2</ele>
        <time>2020-03-26T12:25:49Z</time>
        <extensions><gpxtpx:TrackPointExtension><gpxtpx:hr>159</gpxtpx:hr></gpxtpx:TrackPointExtension></extensions>
      </trkpt>
      <trkpt lat="59.083393" lon="17.340107">
        <ele>42</ele>
        <time>2020-03-26T12:25:50Z</time>
        <extensions><gpxtpx:TrackPointExtension><gpxtpx:hr>158</gpxtpx:hr></gpxtpx:TrackPointExtension></extensions>
      </trkpt>
      <trkpt lat="59.083378" lon="17.340309">
        <ele>41.8</ele>
        <time>2020-03-26T12:25:51Z</time>
        <extensions><gpxtpx:TrackPointExtension><gpxtpx:hr>157</gpxtpx:hr></gpxtpx:TrackPointExtension></extensions>
      </trkpt>
      <trkpt lat="59.083361" lon="17.340519">
        <ele>41.6</ele>
        <time>2020-03-26T12:25:52Z</time>
        <extensions><gpxtpx:TrackPointExtension><gpxtpx:hr>157</gpxtpx:hr></gpxtpx:TrackPointExtension></extensions>
      </trkpt>
      <trkpt lat="59.083347" lon="17.340726">
        <ele>41.6</ele>
        <time>2020-03-26T12:25:53Z</time>
        <extensions><gpxtpx:TrackPointExtension><gpxtpx:hr>156</gpxtpx:hr></gpxtpx:TrackPointExtension></extensions>
      </trkpt>
      <trkpt lat="59.083335" lon="17.340931">
        <ele>41.4</ele>
        <time>2020-03-26T12:25:54Z</time>
        <extensions><gpxtpx:TrackPointExtension><gpxtpx:hr>155</gpxtpx:hr></gpxtpx:TrackPointExtension></extensions>
      </trkpt>
      <trkpt lat="59.083328" lon="17.341137">
        <ele>41.2</ele>
        <time>2020-03-26T12:25:55Z</time>
        <extensions><gpxtpx:TrackPointExtension><gpxtpx:hr>153</gpxtpx:hr></gpxtpx:TrackPointExtension></extensions>
      </trkpt>
      <trkpt lat="59.083323" lon="17.341346">
        <ele>40.8</ele>
        <time>2020-03-26T12:25:56Z</time>
        <extensions><gpxtpx:TrackPointExtension><gpxtpx:hr>152</gpxtpx:hr></gpxtpx:TrackPointExtension></extensions>
      </trkpt>
      <trkpt lat="59.083318" lon="17.341549">
        <ele>40</ele>
        <time>2020-03-26T12:25:57Z</time>
        <extensions><gpxtpx:TrackPointExtension><gpxtpx:hr>150</gpxtpx:hr></gpxtpx:TrackPointExtension></extensions>
      </trkpt>
      <trkpt lat="59.083313" lon="17.341743">
        <ele>39.2</ele>
        <time>2020-03-26T12:25:58Z</time>
        <extensions><gpxtpx:TrackPointExtension><gpxtpx:hr>148</gpxtpx:hr></gpxtpx:TrackPointExtension></extensions>
      </trkpt>
      <trkpt lat="59.083306" lon="17.341925">
        <ele>38.4</ele>
        <time>2020-03-26T12:25:59Z</time>
        <extensions><gpxtpx:TrackPointExtension><gpxtpx:hr>146</gpxtpx:hr></gpxtpx:TrackPointExtension></extensions>
      </trkpt>
      <trkpt lat="59.083303" lon="17.342112">
        <ele>37.4</ele>
        <time>2020-03-26T12:26:00Z</time>
        <extensions><gpxtpx:TrackPointExtension><gpxtpx:hr>144</gpxtpx:hr></gpxtpx:TrackPointExtension></extensions>
      </trkpt>
      <trkpt lat="59.083298" lon="17.34229">
        <ele>35.6</ele>
        <time>2020-03-26T12:26:01Z</time>
        <extensions><gpxtpx:TrackPointExtension><gpxtpx:hr>142</gpxtpx:hr></gpxtpx:TrackPointExtension></extensions>
      </trkpt>
      <trkpt lat="59.083294" lon="17.342461">
        <ele>34.8</ele>
        <time>2020-03-26T12:26:02Z</time>
        <extensions><gpxtpx:TrackPointExtension><gpxtpx:hr>141</gpxtpx:hr></gpxtpx:TrackPointExtension></extensions>
      </trkpt>
      <trkpt lat="59.08329" lon="17.342628">
        <ele>33.8</ele>
        <time>2020-03-26T12:26:03Z</time>
        <extensions><gpxtpx:TrackPointExtension><gpxtpx:hr>139</gpxtpx:hr></gpxtpx:TrackPointExtension></extensions>
      </trkpt>
      <trkpt lat="59.083287" lon="17.342789">
        <ele>33.4</ele>
        <time>2020-03-26T12:26:04Z</time>
        <extensions><gpxtpx:TrackPointExtension><gpxtpx:hr>138</gpxtpx:hr></gpxtpx:TrackPointExtension></extensions>
      </trkpt>
      <trkpt lat="59.083286" lon="17.342949">
        <ele>33.2</ele>
        <time>2020-03-26T12:26:05Z</time>
        <extensions><gpxtpx:TrackPointExtension><gpxtpx:hr>138</gpxtpx:hr></gpxtpx:TrackPointExtension></extensions>
      </trkpt>
      <trkpt lat="59.083283" lon="17.343105">
        <ele>33</ele>
        <time>2020-03-26T12:26:06Z</time>
        <extensions><gpxtpx:TrackPointExtension><gpxtpx:hr>137</gpxtpx:hr></gpxtpx:TrackPointExtension></extensions>
      </trkpt>
      <trkpt lat="59.083284" lon="17.343257">
        <ele>33</ele>
        <time>2020-03-26T12:26:07Z</time>
        <extensions><gpxtpx:TrackPointExtension><gpxtpx:hr>138</gpxtpx:hr></gpxtpx:TrackPointExtension></extensions>
      </trkpt>
      <trkpt lat="59.083284" lon="17.343404">
        <ele>33</ele>
        <time>2020-03-26T12:26:08Z</time>
        <extensions><gpxtpx:TrackPointExtension><gpxtpx:hr>138</gpxtpx:hr></gpxtpx:TrackPointExtension></extensions>
      </trkpt>
      <trkpt lat="59.083282" lon="17.343549">
        <ele>33</ele>
        <time>2020-03-26T12:26:09Z</time>
        <extensions><gpxtpx:TrackPointExtension><gpxtpx:hr>138</gpxtpx:hr></gpxtpx:TrackPointExtension></extensions>
      </trkpt>
      <trkpt lat="59.083279" lon="17.343693">
        <ele>33</ele>
        <time>2020-03-26T12:26:10Z</time>
        <extensions><gpxtpx:TrackPointExtension><gpxtpx:hr>139</gpxtpx:hr></gpxtpx:TrackPointExtension></extensions>
      </trkpt>
      <trkpt lat="59.083278" lon="17.343837">
        <ele>33</ele>
        <time>2020-03-26T12:26:11Z</time>
        <extensions><gpxtpx:TrackPointExtension><gpxtpx:hr>139</gpxtpx:hr></gpxtpx:TrackPointExtension></extensions>
      </trkpt>
      <trkpt lat="59.083279" lon="17.343977">
        <ele>33</ele>
        <time>2020-03-26T12:26:12Z</time>
        <extensions><gpxtpx:TrackPointExtension><gpxtpx:hr>139</gpxtpx:hr></gpxtpx:TrackPointExtension></extensions>
      </trkpt>
      <trkpt lat="59.083278" lon="17.344115">
        <ele>33.2</ele>
        <time>2020-03-26T12:26:13Z</time>
        <extensions><gpxtpx:TrackPointExtension><gpxtpx:hr>139</gpxtpx:hr></gpxtpx:TrackPointExtension></extensions>
      </trkpt>
      <trkpt lat="59.083275" lon="17.344249">
        <ele>33.4</ele>
        <time>2020-03-26T12:26:14Z</time>
        <extensions><gpxtpx:TrackPointExtension><gpxtpx:hr>139</gpxtpx:hr></gpxtpx:TrackPointExtension></extensions>
      </trkpt>
      <trkpt lat="59.083271" lon="17.344384">
        <ele>33.6</ele>
        <time>2020-03-26T12:26:15Z</time>
        <extensions><gpxtpx:TrackPointExtension><gpxtpx:hr>139</gpxtpx:hr></gpxtpx:TrackPointExtension></extensions>
      </trkpt>
      <trkpt lat="59.083268" lon="17.344517">
        <ele>33.6</ele>
        <time>2020-03-26T12:26:16Z</time>
        <extensions><gpxtpx:TrackPointExtension><gpxtpx:hr>139</gpxtpx:hr></gpxtpx:TrackPointExtension></extensions>
      </trkpt>
      <trkpt lat="59.083266" lon="17.344648">
        <ele>33.8</ele>
        <time>2020-03-26T12:26:17Z</time>
        <extensions><gpxtpx:TrackPointExtension><gpxtpx:hr>139</gpxtpx:hr></gpxtpx:TrackPointExtension></extensions>
      </trkpt>
      <trkpt lat="59.083264" lon="17.344777">
        <ele>34</ele>
        <time>2020-03-26T12:26:18Z</time>
        <extensions><gpxtpx:TrackPointExtension><gpxtpx:hr>140</gpxtpx:hr></gpxtpx:TrackPointExtension></extensions>
      </trkpt>
      <trkpt lat="59.083263" lon="17.344903">
        <ele>34</ele>
        <time>2020-03-26T12:26:19Z</time>
        <extensions><gpxtpx:TrackPointExtension><gpxtpx:hr>140</gpxtpx:hr></gpxtpx:TrackPointExtension></extensions>
      </trkpt>
      <trkpt lat="59.083261" lon="17.345026">
        <ele>34.2</ele>
        <time>2020-03-26T12:26:20Z</time>
        <extensions><gpxtpx:TrackPointExtension><gpxtpx:hr>141</gpxtpx:hr></gpxtpx:TrackPointExtension></extensions>
      </trkpt>
      <trkpt lat="59.08326" lon="17.345146">
        <ele>34.2</ele>
        <time>2020-03-26T12:26:21Z</time>
        <extensions><gpxtpx:TrackPointExtension><gpxtpx:hr>141</gpxtpx:hr></gpxtpx:TrackPointExtension></extensions>
      </trkpt>
      <trkpt lat="59.083262" lon="17.345261">
        <ele>34.4</ele>
        <time>2020-03-26T12:26:22Z</time>
        <extensions><gpxtpx:TrackPointExtension><gpxtpx:hr>142</gpxtpx:hr></gpxtpx:TrackPointExtension></extensions>
      </trkpt>
      <trkpt lat="59.083275" lon="17.345367">
        <ele>34.4</ele>
        <time>2020-03-26T12:26:23Z</time>
        <extensions><gpxtpx:TrackPointExtension><gpxtpx:hr>142</gpxtpx:hr></gpxtpx:TrackPointExtension></extensions>
      </trkpt>
      <trkpt lat="59.083301" lon="17.345461">
        <ele>34.6</ele>
        <time>2020-03-26T12:26:24Z</time>
        <extensions><gpxtpx:TrackPointExtension><gpxtpx:hr>143</gpxtpx:hr></gpxtpx:TrackPointExtension></extensions>
      </trkpt>
      <trkpt lat="59.083339" lon="17.345536">
        <ele>34.8</ele>
        <time>2020-03-26T12:26:25Z</time>
        <extensions><gpxtpx:TrackPointExtension><gpxtpx:hr>143</gpxtpx:hr></gpxtpx:TrackPointExtension></extensions>
      </trkpt>
      <trkpt lat="59.083387" lon="17.34559">
        <ele>34.8</ele>
        <time>2020-03-26T12:26:26Z</time>
        <extensions><gpxtpx:TrackPointExtension><gpxtpx:hr>144</gpxtpx:hr></gpxtpx:TrackPointExtension></extensions>
      </trkpt>
      <trkpt lat="59.083441" lon="17.345631">
        <ele>35.2</ele>
        <time>2020-03-26T12:26:27Z</time>
        <extensions><gpxtpx:TrackPointExtension><gpxtpx:hr>144</gpxtpx:hr></gpxtpx:TrackPointExtension></extensions>
      </trkpt>
      <trkpt lat="59.083498" lon="17.345657">
        <ele>35.6</ele>
        <time>2020-03-26T12:26:28Z</time>
        <extensions><gpxtpx:TrackPointExtension><gpxtpx:hr>145</gpxtpx:hr></gpxtpx:TrackPointExtension></extensions>
      </trkpt>
      <trkpt lat="59.083555" lon="17.345673">
        <ele>36</ele>
        <time>2020-03-26T12:26:29Z</time>
        <extensions><gpxtpx:TrackPointExtension><gpxtpx:hr>146</gpxtpx:hr></gpxtpx:TrackPointExtension></extensions>
      </trkpt>
      <trkpt lat="59.083611" lon="17.345686">
        <ele>36.6</ele>
        <time>2020-03-26T12:26:30Z</time>
        <extensions><gpxtpx:TrackPointExtension><gpxtpx:hr>147</gpxtpx:hr></gpxtpx:TrackPointExtension></extensions>
      </trkpt>
      <trkpt lat="59.083667" lon="17.345698">
        <ele>36.8</ele>
        <time>2020-03-26T12:26:31Z</time>
        <extensions><gpxtpx:TrackPointExtension><gpxtpx:hr>147</gpxtpx:hr></gpxtpx:TrackPointExtension></extensions>
      </trkpt>
      <trkpt lat="59.083722" lon="17.345705">
        <ele>37</ele>
        <time>2020-03-26T12:26:32Z</time>
        <extensions><gpxtpx:TrackPointExtension><gpxtpx:hr>148</gpxtpx:hr></gpxtpx:TrackPointExtension></extensions>
      </trkpt>
      <trkpt lat="59.083779" lon="17.345709">
        <ele>37.4</ele>
        <time>2020-03-26T12:26:33Z</time>
        <extensions><gpxtpx:TrackPointExtension><gpxtpx:hr>148</gpxtpx:hr></gpxtpx:TrackPointExtension></extensions>
      </trkpt>
      <trkpt lat="59.083833" lon="17.345717">
        <ele>37.8</ele>
        <time>2020-03-26T12:26:34Z</time>
        <extensions><gpxtpx:TrackPointExtension><gpxtpx:hr>149</gpxtpx:hr></gpxtpx:TrackPointExtension></extensions>
      </trkpt>
      <trkpt lat="59.083888" lon="17.345725">
        <ele>38.2</ele>
        <time>2020-03-26T12:26:35Z</time>
        <extensions><gpxtpx:TrackPointExtension><gpxtpx:hr>149</gpxtpx:hr></gpxtpx:TrackPointExtension></extensions>
      </trkpt>
      <trkpt lat="59.083942" lon="17.345733">
        <ele>38.4</ele>
        <time>2020-03-26T12:26:36Z</time>
        <extensions><gpxtpx:TrackPointExtension><gpxtpx:hr>150</gpxtpx:hr></gpxtpx:TrackPointExtension></extensions>
      </trkpt>
      <trkpt lat="59.083995" lon="17.34574">
        <ele>38.6</ele>
        <time>2020-03-26T12:26:37Z</time>
        <extensions><gpxtpx:TrackPointExtension><gpxtpx:hr>150</gpxtpx:hr></gpxtpx:TrackPointExtension></extensions>
      </trkpt>
      <trkpt lat="59.084049" lon="17.34575">
        <ele>38.8</ele>
        <time>2020-03-26T12:26:38Z</time>
        <extensions><gpxtpx:TrackPointExtension><gpxtpx:hr>151</gpxtpx:hr></gpxtpx:TrackPointExtension></extensions>
      </trkpt>
      <trkpt lat="59.084104" lon="17.34576">
        <ele>39</ele>
        <time>2020-03-26T12:26:39Z</time>
        <extensions><gpxtpx:TrackPointExtension><gpxtpx:hr>151</gpxtpx:hr></gpxtpx:TrackPointExtension></extensions>
      </trkpt>
      <trkpt lat="59.084157" lon="17.345775">
        <ele>39.2</ele>
        <time>2020-03-26T12:26:40Z</time>
        <extensions><gpxtpx:TrackPointExtension><gpxtpx:hr>152</gpxtpx:hr></gpxtpx:TrackPointExtension></extensions>
      </trkpt>
      <trkpt lat="59.084217" lon="17.345797">
        <ele>39.4</ele>
        <time>2020-03-26T12:26:41Z</time>
        <extensions><gpxtpx:TrackPointExtension><gpxtpx:hr>152</gpxtpx:hr></gpxtpx:TrackPointExtension></extensions>
      </trkpt>
      <trkpt lat="59.08429" lon="17.345823">
        <ele>39.4</ele>
        <time>2020-03-26T12:26:42Z</time>
        <extensions><gpxtpx:TrackPointExtension><gpxtpx:hr>152</gpxtpx:hr></gpxtpx:TrackPointExtension></extensions>
      </trkpt>
      <trkpt lat="59.084369" lon="17.34585">
        <ele>39.4</ele>
        <time>2020-03-26T12:26:43Z</time>
        <extensions><gpxtpx:TrackPointExtension><gpxtpx:hr>152</gpxtpx:hr></gpxtpx:TrackPointExtension></extensions>
      </trkpt>
      <trkpt lat="59.084451" lon="17.345877">
        <ele>39.4</ele>
        <time>2020-03-26T12:26:44Z</time>
        <extensions><gpxtpx:TrackPointExtension><gpxtpx:hr>153</gpxtpx:hr></gpxtpx:TrackPointExtension></extensions>
      </trkpt>
      <trkpt lat="59.084535" lon="17.345908">
        <ele>39.4</ele>
        <time>2020-03-26T12:26:45Z</time>
        <extensions><gpxtpx:TrackPointExtension><gpxtpx:hr>153</gpxtpx:hr></gpxtpx:TrackPointExtension></extensions>
      </trkpt>
      <trkpt lat="59.08462" lon="17.345941">
        <ele>39.4</ele>
        <time>2020-03-26T12:26:46Z</time>
        <extensions><gpxtpx:TrackPointExtension><gpxtpx:hr>153</gpxtpx:hr></gpxtpx:TrackPointExtension></extensions>
      </trkpt>
      <trkpt lat="59.084709" lon="17.345974">
        <ele>39.4</ele>
        <time>2020-03-26T12:26:47Z</time>
        <extensions><gpxtpx:TrackPointExtension><gpxtpx:hr>153</gpxtpx:hr></gpxtpx:TrackPointExtension></extensions>
      </trkpt>
      <trkpt lat="59.084799" lon="17.346004">
        <ele>39.4</ele>
        <time>2020-03-26T12:26:48Z</time>
        <extensions><gpxtpx:TrackPointExtension><gpxtpx:hr>153</gpxtpx:hr></gpxtpx:TrackPointExtension></extensions>
      </trkpt>
      <trkpt lat="59.084892" lon="17.346028">
        <ele>39.4</ele>
        <time>2020-03-26T12:26:49Z</time>
        <extensions><gpxtpx:TrackPointExtension><gpxtpx:hr>153</gpxtpx:hr></gpxtpx:TrackPointExtension></extensions>
      </trkpt>
      <trkpt lat="59.084986" lon="17.346034">
        <ele>39.4</ele>
        <time>2020-03-26T12:26:50Z</time>
        <extensions><gpxtpx:TrackPointExtension><gpxtpx:hr>152</gpxtpx:hr></gpxtpx:TrackPointExtension></extensions>
      </trkpt>
      <trkpt lat="59.085075" lon="17.346027">
        <ele>39</ele>
        <time>2020-03-26T12:26:51Z</time>
        <extensions><gpxtpx:TrackPointExtension><gpxtpx:hr>151</gpxtpx:hr></gpxtpx:TrackPointExtension></extensions>
      </trkpt>
      <trkpt lat="59.085164" lon="17.346006">
        <ele>38.2</ele>
        <time>2020-03-26T12:26:52Z</time>
        <extensions><gpxtpx:TrackPointExtension><gpxtpx:hr>150</gpxtpx:hr></gpxtpx:TrackPointExtension></extensions>
      </trkpt>
      <trkpt lat="59.08525" lon="17.345973">
        <ele>37.4</ele>
        <time>2020-03-26T12:26:53Z</time>
        <extensions><gpxtpx:TrackPointExtension><gpxtpx:hr>148</gpxtpx:hr></gpxtpx:TrackPointExtension></extensions>
      </trkpt>
      <trkpt lat="59.085338" lon="17.345934">
        <ele>36.8</ele>
        <time>2020-03-26T12:26:54Z</time>
        <extensions><gpxtpx:TrackPointExtension><gpxtpx:hr>147</gpxtpx:hr></gpxtpx:TrackPointExtension></extensions>
      </trkpt>
      <trkpt lat="59.085426" lon="17.345892">
        <ele>36.2</ele>
        <time>2020-03-26T12:26:55Z</time>
        <extensions><gpxtpx:TrackPointExtension><gpxtpx:hr>146</gpxtpx:hr></gpxtpx:TrackPointExtension></extensions>
      </trkpt>
      <trkpt lat="59.085515" lon="17.345839">
        <ele>35.6</ele>
        <time>2020-03-26T12:26:56Z</time>
        <extensions><gpxtpx:TrackPointExtension><gpxtpx:hr>145</gpxtpx:hr></gpxtpx:TrackPointExtension></extensions>
      </trkpt>
      <trkpt lat="59.085602" lon="17.34577">
        <ele>35.2</ele>
        <time>2020-03-26T12:26:57Z</time>
        <extensions><gpxtpx:TrackPointExtension><gpxtpx:hr>144</gpxtpx:hr></gpxtpx:TrackPointExtension></extensions>
      </trkpt>
      <trkpt lat="59.085685" lon="17.345675">
        <ele>34.8</ele>
        <time>2020-03-26T12:26:58Z</time>
        <extensions><gpxtpx:TrackPointExtension><gpxtpx:hr>144</gpxtpx:hr></gpxtpx:TrackPointExtension></extensions>
      </trkpt>
      <trkpt lat="59.085754" lon="17.34555">
        <ele>34.4</ele>
        <time>2020-03-26T12:26:59Z</time>
        <extensions><gpxtpx:TrackPointExtension><gpxtpx:hr>143</gpxtpx:hr></gpxtpx:TrackPointExtension></extensions>
      </trkpt>
      <trkpt lat="59.085799" lon="17.34539">
        <ele>34</ele>
        <time>2020-03-26T12:27:00Z</time>
        <extensions><gpxtpx:TrackPointExtension><gpxtpx:hr>143</gpxtpx:hr></gpxtpx:TrackPointExtension></extensions>
      </trkpt>
      <trkpt lat="59.085828" lon="17.345216">
        <ele>33.8</ele>
        <time>2020-03-26T12:27:01Z</time>
        <extensions><gpxtpx:TrackPointExtension><gpxtpx:hr>141</gpxtpx:hr></gpxtpx:TrackPointExtension></extensions>
      </trkpt>
      <trkpt lat="59.085851" lon="17.345042">
        <ele>33.6</ele>
        <time>2020-03-26T12:27:02Z</time>
        <extensions><gpxtpx:TrackPointExtension><gpxtpx:hr>140</gpxtpx:hr></gpxtpx:TrackPointExtension></extensions>
      </trkpt>
      <trkpt lat="59.085875" lon="17.344874">
        <ele>33.4</ele>
        <time>2020-03-26T12:27:03Z</time>
        <extensions><gpxtpx:TrackPointExtension><gpxtpx:hr>139</gpxtpx:hr></gpxtpx:TrackPointExtension></extensions>
      </trkpt>
      <trkpt lat="59.085905" lon="17.344713">
        <ele>33</ele>
        <time>2020-03-26T12:27:04Z</time>
        <extensions><gpxtpx:TrackPointExtension><gpxtpx:hr>137</gpxtpx:hr></gpxtpx:TrackPointExtension></extensions>
      </trkpt>
      <trkpt lat="59.085949" lon="17.34457">
        <ele>32.6</ele>
        <time>2020-03-26T12:27:05Z</time>
        <extensions><gpxtpx:TrackPointExtension><gpxtpx:hr>135</gpxtpx:hr></gpxtpx:TrackPointExtension></extensions>
      </trkpt>
      <trkpt lat="59.086014" lon="17.344453">
        <ele>32</ele>
        <time>2020-03-26T12:27:06Z</time>
        <extensions><gpxtpx:TrackPointExtension><gpxtpx:hr>135</gpxtpx:hr></gpxtpx:TrackPointExtension></extensions>
      </trkpt>
      <trkpt lat="59.086093" lon="17.344381">
        <ele>31.6</ele>
        <time>2020-03-26T12:27:07Z</time>
        <extensions><gpxtpx:TrackPointExtension><gpxtpx:hr>134</gpxtpx:hr></gpxtpx:TrackPointExtension></extensions>
      </trkpt>
      <trkpt lat="59.086178" lon="17.344359">
        <ele>31</ele>
        <time>2020-03-26T12:27:08Z</time>
        <extensions><gpxtpx:TrackPointExtension><gpxtpx:hr>135</gpxtpx:hr></gpxtpx:TrackPointExtension></extensions>
      </trkpt>
      <trkpt lat="59.086267" lon="17.344369">
        <ele>30.8</ele>
        <time>2020-03-26T12:27:09Z</time>
        <extensions><gpxtpx:TrackPointExtension><gpxtpx:hr>135</gpxtpx:hr></gpxtpx:TrackPointExtension></extensions>
      </trkpt>
      <trkpt lat="59.086353" lon="17.344389">
        <ele>30.6</ele>
        <time>2020-03-26T12:27:10Z</time>
        <extensions><gpxtpx:TrackPointExtension><gpxtpx:hr>136</gpxtpx:hr></gpxtpx:TrackPointExtension></extensions>
      </trkpt>
      <trkpt lat="59.08644" lon="17.344409">
        <ele>30.4</ele>
        <time>2020-03-26T12:27:11Z</time>
        <extensions><gpxtpx:TrackPointExtension><gpxtpx:hr>138</gpxtpx:hr></gpxtpx:TrackPointExtension></extensions>
      </trkpt>
      <trkpt lat="59.086525" lon="17.344429">
        <ele>30.4</ele>
        <time>2020-03-26T12:27:12Z</time>
        <extensions><gpxtpx:TrackPointExtension><gpxtpx:hr>139</gpxtpx:hr></gpxtpx:TrackPointExtension></extensions>
      </trkpt>
      <trkpt lat="59.086611" lon="17.344449">
        <ele>30.4</ele>
        <time>2020-03-26T12:27:13Z</time>
        <extensions><gpxtpx:TrackPointExtension><gpxtpx:hr>140</gpxtpx:hr></gpxtpx:TrackPointExtension></extensions>
      </trkpt>
      <trkpt lat="59.086697" lon="17.344468">
        <ele>30.4</ele>
        <time>2020-03-26T12:27:14Z</time>
        <extensions><gpxtpx:TrackPointExtension><gpxtpx:hr>141</gpxtpx:hr></gpxtpx:TrackPointExtension></extensions>
      </trkpt>
      <trkpt lat="59.086781" lon="17.344486">
        <ele>30.4</ele>
        <time>2020-03-26T12:27:15Z</time>
        <extensions><gpxtpx:TrackPointExtension><gpxtpx:hr>141</gpxtpx:hr></gpxtpx:TrackPointExtension></extensions>
      </trkpt>
      <trkpt lat="59.086865" lon="17.344503">
        <ele>30.4</ele>
        <time>2020-03-26T12:27:16Z</time>
        <extensions><gpxtpx:TrackPointExtension><gpxtpx:hr>141</gpxtpx:hr></gpxtpx:TrackPointExtension></extensions>
      </trkpt>
      <trkpt lat="59.08695" lon="17.344521">
        <ele>30.4</ele>
        <time>2020-03-26T12:27:17Z</time>
        <extensions><gpxtpx:TrackPointExtension><gpxtpx:hr>142</gpxtpx:hr></gpxtpx:TrackPointExtension></extensions>
      </trkpt>
      <trkpt lat="59.087034" lon="17.344541">
        <ele>30.4</ele>
        <time>2020-03-26T12:27:18Z</time>
        <extensions><gpxtpx:TrackPointExtension><gpxtpx:hr>142</gpxtpx:hr></gpxtpx:TrackPointExtension></extensions>
      </trkpt>
      <trkpt lat="59.087118" lon="17.344562">
        <ele>30.4</ele>
        <time>2020-03-26T12:27:19Z</time>
        <extensions><gpxtpx:TrackPointExtension><gpxtpx:hr>143</gpxtpx:hr></gpxtpx:TrackPointExtension></extensions>
      </trkpt>
      <trkpt lat="59.087202" lon="17.344581">
        <ele>30.6</ele>
        <time>2020-03-26T12:27:20Z</time>
        <extensions><gpxtpx:TrackPointExtension><gpxtpx:hr>143</gpxtpx:hr></gpxtpx:TrackPointExtension></extensions>
      </trkpt>
      <trkpt lat="59.087286" lon="17.344599">
        <ele>30.6</ele>
        <time>2020-03-26T12:27:21Z</time>
        <extensions><gpxtpx:TrackPointExtension><gpxtpx:hr>144</gpxtpx:hr></gpxtpx:TrackPointExtension></extensions>
      </trkpt>
      <trkpt lat="59.087371" lon="17.344618">
        <ele>30.6</ele>
        <time>2020-03-26T12:27:22Z</time>
        <extensions><gpxtpx:TrackPointExtension><gpxtpx:hr>144</gpxtpx:hr></gpxtpx:TrackPointExtension></extensions>
      </trkpt>
      <trkpt lat="59.087456" lon="17.344638">
        <ele>30.6</ele>
        <time>2020-03-26T12:27:23Z</time>
        <extensions><gpxtpx:TrackPointExtension><gpxtpx:hr>145</gpxtpx:hr></gpxtpx:TrackPointExtension></extensions>
      </trkpt>
      <trkpt lat="59.087541" lon="17.344656">
        <ele>30.6</ele>
        <time>2020-03-26T12:27:24Z</time>
        <extensions><gpxtpx:TrackPointExtension><gpxtpx:hr>145</gpxtpx:hr></gpxtpx:TrackPointExtension></extensions>
      </trkpt>
      <trkpt lat="59.087626" lon="17.344678">
        <ele>30.6</ele>
        <time>2020-03-26T12:27:25Z</time>
        <extensions><gpxtpx:TrackPointExtension><gpxtpx:hr>145</gpxtpx:hr></gpxtpx:TrackPointExtension></extensions>
      </trkpt>
      <trkpt lat="59.087709" lon="17.344705">
        <ele>30.6</ele>
        <time>2020-03-26T12:27:26Z</time>
        <extensions><gpxtpx:TrackPointExtension><gpxtpx:hr>145</gpxtpx:hr></gpxtpx:TrackPointExtension></extensions>
      </trkpt>
      <trkpt lat="59.087793" lon="17.344738">
        <ele>30.6</ele>
        <time>2020-03-26T12:27:27Z</time>
        <extensions><gpxtpx:TrackPointExtension><gpxtpx:hr>146</gpxtpx:hr></gpxtpx:TrackPointExtension></extensions>
      </trkpt>
      <trkpt lat="59.087874" lon="17.34478">
        <ele>30.8</ele>
        <time>2020-03-26T12:27:28Z</time>
        <extensions><gpxtpx:TrackPointExtension><gpxtpx:hr>147</gpxtpx:hr></gpxtpx:TrackPointExtension></extensions>
      </trkpt>
      <trkpt lat="59.087954" lon="17.344837">
        <ele>30.8</ele>
        <time>2020-03-26T12:27:29Z</time>
        <extensions><gpxtpx:TrackPointExtension><gpxtpx:hr>147</gpxtpx:hr></gpxtpx:TrackPointExtension></extensions>
      </trkpt>
      <trkpt lat="59.08803" lon="17.344915">
        <ele>30.8</ele>
        <time>2020-03-26T12:27:30Z</time>
        <extensions><gpxtpx:TrackPointExtension><gpxtpx:hr>148</gpxtpx:hr></gpxtpx:TrackPointExtension></extensions>
      </trkpt>
      <trkpt lat="59.088101" lon="17.345013">
        <ele>30.8</ele>
        <time>2020-03-26T12:27:31Z</time>
        <extensions><gpxtpx:TrackPointExtension><gpxtpx:hr>148</gpxtpx:hr></gpxtpx:TrackPointExtension></extensions>
      </trkpt>
      <trkpt lat="59.088166" lon="17.34513">
        <ele>30.8</ele>
        <time>2020-03-26T12:27:32Z</time>
        <extensions><gpxtpx:TrackPointExtension><gpxtpx:hr>149</gpxtpx:hr></gpxtpx:TrackPointExtension></extensions>
      </trkpt>
      <trkpt lat="59.088224" lon="17.345258">
        <ele>30.8</ele>
        <time>2020-03-26T12:27:33Z</time>
        <extensions><gpxtpx:TrackPointExtension><gpxtpx:hr>149</gpxtpx:hr></gpxtpx:TrackPointExtension></extensions>
      </trkpt>
      <trkpt lat="59.08828" lon="17.345392">
        <ele>31</ele>
        <time>2020-03-26T12:27:34Z</time>
        <extensions><gpxtpx:TrackPointExtension><gpxtpx:hr>149</gpxtpx:hr></gpxtpx:TrackPointExtension></extensions>
      </trkpt>
      <trkpt lat="59.088336" lon="17.345522">
        <ele>31</ele>
        <time>2020-03-26T12:27:35Z</time>
        <extensions><gpxtpx:TrackPointExtension><gpxtpx:hr>149</gpxtpx:hr></gpxtpx:TrackPointExtension></extensions>
      </trkpt>
      <trkpt lat="59.088389" lon="17.345651">
        <ele>31</ele>
        <time>2020-03-26T12:27:36Z</time>
        <extensions><gpxtpx:TrackPointExtension><gpxtpx:hr>150</gpxtpx:hr></gpxtpx:TrackPointExtension></extensions>
      </trkpt>
      <trkpt lat="59.088439" lon="17.345777">
        <ele>31</ele>
        <time>2020-03-26T12:27:37Z</time>
        <extensions><gpxtpx:TrackPointExtension><gpxtpx:hr>150</gpxtpx:hr></gpxtpx:TrackPointExtension></extensions>
      </trkpt>
      <trkpt lat="59.088488" lon="17.345902">
        <ele>31</ele>
        <time>2020-03-26T12:27:38Z</time>
        <extensions><gpxtpx:TrackPointExtension><gpxtpx:hr>150</gpxtpx:hr></gpxtpx:TrackPointExtension></extensions>
      </trkpt>
      <trkpt lat="59.088539" lon="17.346026">
        <ele>31</ele>
        <time>2020-03-26T12:27:39Z</time>
        <extensions><gpxtpx:TrackPointExtension><gpxtpx:hr>150</gpxtpx:hr></gpxtpx:TrackPointExtension></extensions>
      </trkpt>
      <trkpt lat="59.088591" lon="17.346152">
        <ele>31</ele>
        <time>2020-03-26T12:27:40Z</time>
        <extensions><gpxtpx:TrackPointExtension><gpxtpx:hr>150</gpxtpx:hr></gpxtpx:TrackPointExtension></extensions>
      </trkpt>
      <trkpt lat="59.088643" lon="17.346279">
        <ele>31.2</ele>
        <time>2020-03-26T12:27:41Z</time>
        <extensions><gpxtpx:TrackPointExtension><gpxtpx:hr>150</gpxtpx:hr></gpxtpx:TrackPointExtension></extensions>
      </trkpt>
      <trkpt lat="59.088697" lon="17.346407">
        <ele>31.2</ele>
        <time>2020-03-26T12:27:42Z</time>
        <extensions><gpxtpx:TrackPointExtension><gpxtpx:hr>150</gpxtpx:hr></gpxtpx:TrackPointExtension></extensions>
      </trkpt>
      <trkpt lat="59.088751" lon="17.346537">
        <ele>31.2</ele>
        <time>2020-03-26T12:27:43Z</time>
        <extensions><gpxtpx:TrackPointExtension><gpxtpx:hr>151</gpxtpx:hr></gpxtpx:TrackPointExtension></extensions>
      </trkpt>
      <trkpt lat="59.088805" lon="17.346671">
        <ele>31.2</ele>
        <time>2020-03-26T12:27:44Z</time>
        <extensions><gpxtpx:TrackPointExtension><gpxtpx:hr>151</gpxtpx:hr></gpxtpx:TrackPointExtension></extensions>
      </trkpt>
      <trkpt lat="59.08886" lon="17.346807">
        <ele>31.2</ele>
        <time>2020-03-26T12:27:45Z</time>
        <extensions><gpxtpx:TrackPointExtension><gpxtpx:hr>151</gpxtpx:hr></gpxtpx:TrackPointExtension></extensions>
      </trkpt>
      <trkpt lat="59.088913" lon="17.346943">
        <ele>31.2</ele>
        <time>2020-03-26T12:27:46Z</time>
        <extensions><gpxtpx:TrackPointExtension><gpxtpx:hr>151</gpxtpx:hr></gpxtpx:TrackPointExtension></extensions>
      </trkpt>
      <trkpt lat="59.088967" lon="17.347079">
        <ele>31</ele>
        <time>2020-03-26T12:27:47Z</time>
        <extensions><gpxtpx:TrackPointExtension><gpxtpx:hr>151</gpxtpx:hr></gpxtpx:TrackPointExtension></extensions>
      </trkpt>
      <trkpt lat="59.089021" lon="17.347212">
        <ele>31</ele>
        <time>2020-03-26T12:27:48Z</time>
        <extensions><gpxtpx:TrackPointExtension><gpxtpx:hr>150</gpxtpx:hr></gpxtpx:TrackPointExtension></extensions>
      </trkpt>
      <trkpt lat="59.089076" lon="17.347343">
        <ele>31</ele>
        <time>2020-03-26T12:27:49Z</time>
        <extensions><gpxtpx:TrackPointExtension><gpxtpx:hr>150</gpxtpx:hr></gpxtpx:TrackPointExtension></extensions>
      </trkpt>
      <trkpt lat="59.089129" lon="17.347472">
        <ele>31</ele>
        <time>2020-03-26T12:27:50Z</time>
        <extensions><gpxtpx:TrackPointExtension><gpxtpx:hr>150</gpxtpx:hr></gpxtpx:TrackPointExtension></extensions>
      </trkpt>
      <trkpt lat="59.08918" lon="17.3476">
        <ele>31</ele>
        <time>2020-03-26T12:27:51Z</time>
        <extensions><gpxtpx:TrackPointExtension><gpxtpx:hr>149</gpxtpx:hr></gpxtpx:TrackPointExtension></extensions>
      </trkpt>
      <trkpt lat="59.08923" lon="17.347727">
        <ele>30.8</ele>
        <time>2020-03-26T12:27:52Z</time>
        <extensions><gpxtpx:TrackPointExtension><gpxtpx:hr>149</gpxtpx:hr></gpxtpx:TrackPointExtension></extensions>
      </trkpt>
      <trkpt lat="59.089278" lon="17.347851">
        <ele>30.8</ele>
        <time>2020-03-26T12:27:53Z</time>
        <extensions><gpxtpx:TrackPointExtension><gpxtpx:hr>149</gpxtpx:hr></gpxtpx:TrackPointExtension></extensions>
      </trkpt>
      <trkpt lat="59.089325" lon="17.347973">
        <ele>30.8</ele>
        <time>2020-03-26T12:27:54Z</time>
        <extensions><gpxtpx:TrackPointExtension><gpxtpx:hr>149</gpxtpx:hr></gpxtpx:TrackPointExtension></extensions>
      </trkpt>
      <trkpt lat="59.089373" lon="17.348092">
        <ele>30.8</ele>
        <time>2020-03-26T12:27:55Z</time>
        <extensions><gpxtpx:TrackPointExtension><gpxtpx:hr>148</gpxtpx:hr></gpxtpx:TrackPointExtension></extensions>
      </trkpt>
      <trkpt lat="59.089422" lon="17.348209">
        <ele>30.8</ele>
        <time>2020-03-26T12:27:56Z</time>
        <extensions><gpxtpx:TrackPointExtension><gpxtpx:hr>148</gpxtpx:hr></gpxtpx:TrackPointExtension></extensions>
      </trkpt>
      <trkpt lat="59.089471" lon="17.348326">
        <ele>30.8</ele>
        <time>2020-03-26T12:27:57Z</time>
        <extensions><gpxtpx:TrackPointExtension><gpxtpx:hr>148</gpxtpx:hr></gpxtpx:TrackPointExtension></extensions>
      </trkpt>
      <trkpt lat="59.089521" lon="17.348444">
        <ele>30.8</ele>
        <time>2020-03-26T12:27:58Z</time>
        <extensions><gpxtpx:TrackPointExtension><gpxtpx:hr>148</gpxtpx:hr></gpxtpx:TrackPointExtension></extensions>
      </trkpt>
      <trkpt lat="59.089573" lon="17.348565">
        <ele>31</ele>
        <time>2020-03-26T12:27:59Z</time>
        <extensions><gpxtpx:TrackPointExtension><gpxtpx:hr>148</gpxtpx:hr></gpxtpx:TrackPointExtension></extensions>
      </trkpt>
      <trkpt lat="59.089626" lon="17.348689">
        <ele>31.2</ele>
        <time>2020-03-26T12:28:00Z</time>
        <extensions><gpxtpx:TrackPointExtension><gpxtpx:hr>148</gpxtpx:hr></gpxtpx:TrackPointExtension></extensions>
      </trkpt>
      <trkpt lat="59.089681" lon="17.348816">
        <ele>31.4</ele>
        <time>2020-03-26T12:28:01Z</time>
        <extensions><gpxtpx:TrackPointExtension><gpxtpx:hr>148</gpxtpx:hr></gpxtpx:TrackPointExtension></extensions>
      </trkpt>
      <trkpt lat="59.089737" lon="17.348948">
        <ele>31.6</ele>
        <time>2020-03-26T12:28:02Z</time>
        <extensions><gpxtpx:TrackPointExtension><gpxtpx:hr>148</gpxtpx:hr></gpxtpx:TrackPointExtension></extensions>
      </trkpt>
      <trkpt lat="59.089796" lon="17.349085">
        <ele>31.8</ele>
        <time>2020-03-26T12:28:03Z</time>
        <extensions><gpxtpx:TrackPointExtension><gpxtpx:hr>148</gpxtpx:hr></gpxtpx:TrackPointExtension></extensions>
      </trkpt>
      <trkpt lat="59.089856" lon="17.349226">
        <ele>31.8</ele>
        <time>2020-03-26T12:28:04Z</time>
        <extensions><gpxtpx:TrackPointExtension><gpxtpx:hr>148</gpxtpx:hr></gpxtpx:TrackPointExtension></extensions>
      </trkpt>
      <trkpt lat="59.089919" lon="17.349369">
        <ele>31.8</ele>
        <time>2020-03-26T12:28:05Z</time>
        <extensions><gpxtpx:TrackPointExtension><gpxtpx:hr>148</gpxtpx:hr></gpxtpx:TrackPointExtension></extensions>
      </trkpt>
      <trkpt lat="59.089982" lon="17.349511">
        <ele>31.8</ele>
        <time>2020-03-26T12:28:06Z</time>
        <extensions><gpxtpx:TrackPointExtension><gpxtpx:hr>148</gpxtpx:hr></gpxtpx:TrackPointExtension></extensions>
      </trkpt>
      <trkpt lat="59.090047" lon="17.349646">
        <ele>31.8</ele>
        <time>2020-03-26T12:28:07Z</time>
        <extensions><gpxtpx:TrackPointExtension><gpxtpx:hr>148</gpxtpx:hr></gpxtpx:TrackPointExtension></extensions>
      </trkpt>
      <trkpt lat="59.09012" lon="17.349763">
        <ele>31.8</ele>
        <time>2020-03-26T12:28:08Z</time>
        <extensions><gpxtpx:TrackPointExtension><gpxtpx:hr>148</gpxtpx:hr></gpxtpx:TrackPointExtension></extensions>
      </trkpt>
      <trkpt lat="59.090201" lon="17.349849">
        <ele>31.8</ele>
        <time>2020-03-26T12:28:09Z</time>
        <extensions><gpxtpx:TrackPointExtension><gpxtpx:hr>148</gpxtpx:hr></gpxtpx:TrackPointExtension></extensions>
      </trkpt>
      <trkpt lat="59.090286" lon="17.349902">
        <ele>31.8</ele>
        <time>2020-03-26T12:28:10Z</time>
        <extensions><gpxtpx:TrackPointExtension><gpxtpx:hr>148</gpxtpx:hr></gpxtpx:TrackPointExtension></extensions>
      </trkpt>
      <trkpt lat="59.090373" lon="17.349928">
        <ele>31.8</ele>
        <time>2020-03-26T12:28:11Z</time>
        <extensions><gpxtpx:TrackPointExtension><gpxtpx:hr>148</gpxtpx:hr></gpxtpx:TrackPointExtension></extensions>
      </trkpt>
      <trkpt lat="59.090461" lon="17.349941">
        <ele>31.6</ele>
        <time>2020-03-26T12:28:12Z</time>
        <extensions><gpxtpx:TrackPointExtension><gpxtpx:hr>148</gpxtpx:hr></gpxtpx:TrackPointExtension></extensions>
      </trkpt>
      <trkpt lat="59.090549" lon="17.349948">
        <ele>31.4</ele>
        <time>2020-03-26T12:28:13Z</time>
        <extensions><gpxtpx:TrackPointExtension><gpxtpx:hr>148</gpxtpx:hr></gpxtpx:TrackPointExtension></extensions>
      </trkpt>
      <trkpt lat="59.090637" lon="17.349952">
        <ele>31.2</ele>
        <time>2020-03-26T12:28:14Z</time>
        <extensions><gpxtpx:TrackPointExtension><gpxtpx:hr>148</gpxtpx:hr></gpxtpx:TrackPointExtension></extensions>
      </trkpt>
      <trkpt lat="59.090725" lon="17.349952">
        <ele>31</ele>
        <time>2020-03-26T12:28:15Z</time>
        <extensions><gpxtpx:TrackPointExtension><gpxtpx:hr>148</gpxtpx:hr></gpxtpx:TrackPointExtension></extensions>
      </trkpt>
      <trkpt lat="59.09081" lon="17.349946">
        <ele>30.8</ele>
        <time>2020-03-26T12:28:16Z</time>
        <extensions><gpxtpx:TrackPointExtension><gpxtpx:hr>149</gpxtpx:hr></gpxtpx:TrackPointExtension></extensions>
      </trkpt>
      <trkpt lat="59.090896" lon="17.349938">
        <ele>30.8</ele>
        <time>2020-03-26T12:28:17Z</time>
        <extensions><gpxtpx:TrackPointExtension><gpxtpx:hr>149</gpxtpx:hr></gpxtpx:TrackPointExtension></extensions>
      </trkpt>
      <trkpt lat="59.090982" lon="17.34993">
        <ele>30.6</ele>
        <time>2020-03-26T12:28:18Z</time>
        <extensions><gpxtpx:TrackPointExtension><gpxtpx:hr>148</gpxtpx:hr></gpxtpx:TrackPointExtension></extensions>
      </trkpt>
      <trkpt lat="59.091046" lon="17.349933">
        <ele>30.6</ele>
        <time>2020-03-26T12:28:19Z</time>
        <extensions><gpxtpx:TrackPointExtension><gpxtpx:hr>148</gpxtpx:hr></gpxtpx:TrackPointExtension></extensions>
      </trkpt>
      <trkpt lat="59.091109" lon="17.349936">
        <ele>30.6</ele>
        <time>2020-03-26T12:28:20Z</time>
        <extensions><gpxtpx:TrackPointExtension><gpxtpx:hr>148</gpxtpx:hr></gpxtpx:TrackPointExtension></extensions>
      </trkpt>
      <trkpt lat="59.091235" lon="17.349942">
        <ele>30.6</ele>
        <time>2020-03-26T12:28:21Z</time>
        <extensions><gpxtpx:TrackPointExtension><gpxtpx:hr>147</gpxtpx:hr></gpxtpx:TrackPointExtension></extensions>
      </trkpt>
      <trkpt lat="59.091318" lon="17.349977">
        <ele>30.4</ele>
        <time>2020-03-26T12:28:22Z</time>
        <extensions><gpxtpx:TrackPointExtension><gpxtpx:hr>147</gpxtpx:hr></gpxtpx:TrackPointExtension></extensions>
      </trkpt>
      <trkpt lat="59.091396" lon="17.35003">
        <ele>30.2</ele>
        <time>2020-03-26T12:28:23Z</time>
        <extensions><gpxtpx:TrackPointExtension><gpxtpx:hr>146</gpxtpx:hr></gpxtpx:TrackPointExtension></extensions>
      </trkpt>
      <trkpt lat="59.091471" lon="17.350105">
        <ele>30</ele>
        <time>2020-03-26T12:28:24Z</time>
        <extensions><gpxtpx:TrackPointExtension><gpxtpx:hr>145</gpxtpx:hr></gpxtpx:TrackPointExtension></extensions>
      </trkpt>
      <trkpt lat="59.091544" lon="17.3502">
        <ele>30</ele>
        <time>2020-03-26T12:28:25Z</time>
        <extensions><gpxtpx:TrackPointExtension><gpxtpx:hr>145</gpxtpx:hr></gpxtpx:TrackPointExtension></extensions>
      </trkpt>
      <trkpt lat="59.091609" lon="17.350307">
        <ele>29.8</ele>
        <time>2020-03-26T12:28:26Z</time>
        <extensions><gpxtpx:TrackPointExtension><gpxtpx:hr>145</gpxtpx:hr></gpxtpx:TrackPointExtension></extensions>
      </trkpt>
      <trkpt lat="59.091667" lon="17.350424">
        <ele>29.8</ele>
        <time>2020-03-26T12:28:27Z</time>
        <extensions><gpxtpx:TrackPointExtension><gpxtpx:hr>145</gpxtpx:hr></gpxtpx:TrackPointExtension></extensions>
      </trkpt>
      <trkpt lat="59.091718" lon="17.350552">
        <ele>29.8</ele>
        <time>2020-03-26T12:28:28Z</time>
        <extensions><gpxtpx:TrackPointExtension><gpxtpx:hr>145</gpxtpx:hr></gpxtpx:TrackPointExtension></extensions>
      </trkpt>
      <trkpt lat="59.091765" lon="17.350686">
        <ele>29.8</ele>
        <time>2020-03-26T12:28:29Z</time>
        <extensions><gpxtpx:TrackPointExtension><gpxtpx:hr>145</gpxtpx:hr></gpxtpx:TrackPointExtension></extensions>
      </trkpt>
      <trkpt lat="59.091808" lon="17.350823">
        <ele>29.8</ele>
        <time>2020-03-26T12:28:30Z</time>
        <extensions><gpxtpx:TrackPointExtension><gpxtpx:hr>144</gpxtpx:hr></gpxtpx:TrackPointExtension></extensions>
      </trkpt>
      <trkpt lat="59.091848" lon="17.350962">
        <ele>29.8</ele>
        <time>2020-03-26T12:28:31Z</time>
        <extensions><gpxtpx:TrackPointExtension><gpxtpx:hr>144</gpxtpx:hr></gpxtpx:TrackPointExtension></extensions>
      </trkpt>
      <trkpt lat="59.09188" lon="17.351104">
        <ele>29.8</ele>
        <time>2020-03-26T12:28:32Z</time>
        <extensions><gpxtpx:TrackPointExtension><gpxtpx:hr>144</gpxtpx:hr></gpxtpx:TrackPointExtension></extensions>
      </trkpt>
      <trkpt lat="59.091906" lon="17.351252">
        <ele>29.8</ele>
        <time>2020-03-26T12:28:33Z</time>
        <extensions><gpxtpx:TrackPointExtension><gpxtpx:hr>145</gpxtpx:hr></gpxtpx:TrackPointExtension></extensions>
      </trkpt>
      <trkpt lat="59.091926" lon="17.351406">
        <ele>30</ele>
        <time>2020-03-26T12:28:34Z</time>
        <extensions><gpxtpx:TrackPointExtension><gpxtpx:hr>145</gpxtpx:hr></gpxtpx:TrackPointExtension></extensions>
      </trkpt>
      <trkpt lat="59.091939" lon="17.351565">
        <ele>30</ele>
        <time>2020-03-26T12:28:35Z</time>
        <extensions><gpxtpx:TrackPointExtension><gpxtpx:hr>145</gpxtpx:hr></gpxtpx:TrackPointExtension></extensions>
      </trkpt>
      <trkpt lat="59.091944" lon="17.351726">
        <ele>30</ele>
        <time>2020-03-26T12:28:36Z</time>
        <extensions><gpxtpx:TrackPointExtension><gpxtpx:hr>146</gpxtpx:hr></gpxtpx:TrackPointExtension></extensions>
      </trkpt>
      <trkpt lat="59.091943" lon="17.351887">
        <ele>30</ele>
        <time>2020-03-26T12:28:37Z</time>
        <extensions><gpxtpx:TrackPointExtension><gpxtpx:hr>146</gpxtpx:hr></gpxtpx:TrackPointExtension></extensions>
      </trkpt>
      <trkpt lat="59.091931" lon="17.352044">
        <ele>30.2</ele>
        <time>2020-03-26T12:28:38Z</time>
        <extensions><gpxtpx:TrackPointExtension><gpxtpx:hr>146</gpxtpx:hr></gpxtpx:TrackPointExtension></extensions>
      </trkpt>
      <trkpt lat="59.091904" lon="17.352191">
        <ele>30.2</ele>
        <time>2020-03-26T12:28:39Z</time>
        <extensions><gpxtpx:TrackPointExtension><gpxtpx:hr>147</gpxtpx:hr></gpxtpx:TrackPointExtension></extensions>
      </trkpt>
      <trkpt lat="59.091859" lon="17.352327">
        <ele>30.2</ele>
        <time>2020-03-26T12:28:40Z</time>
        <extensions><gpxtpx:TrackPointExtension><gpxtpx:hr>148</gpxtpx:hr></gpxtpx:TrackPointExtension></extensions>
      </trkpt>
      <trkpt lat="59.091798" lon="17.352444">
        <ele>30.2</ele>
        <time>2020-03-26T12:28:41Z</time>
        <extensions><gpxtpx:TrackPointExtension><gpxtpx:hr>148</gpxtpx:hr></gpxtpx:TrackPointExtension></extensions>
      </trkpt>
      <trkpt lat="59.091735" lon="17.352543">
        <ele>30.2</ele>
        <time>2020-03-26T12:28:42Z</time>
        <extensions><gpxtpx:TrackPointExtension><gpxtpx:hr>148</gpxtpx:hr></gpxtpx:TrackPointExtension></extensions>
      </trkpt>
      <trkpt lat="59.091669" lon="17.352632">
        <ele>30.2</ele>
        <time>2020-03-26T12:28:43Z</time>
        <extensions><gpxtpx:TrackPointExtension><gpxtpx:hr>149</gpxtpx:hr></gpxtpx:TrackPointExtension></extensions>
      </trkpt>
      <trkpt lat="59.091605" lon="17.35272">
        <ele>30.2</ele>
        <time>2020-03-26T12:28:44Z</time>
        <extensions><gpxtpx:TrackPointExtension><gpxtpx:hr>149</gpxtpx:hr></gpxtpx:TrackPointExtension></extensions>
      </trkpt>
      <trkpt lat="59.091539" lon="17.352816">
        <ele>30.2</ele>
        <time>2020-03-26T12:28:45Z</time>
        <extensions><gpxtpx:TrackPointExtension><gpxtpx:hr>149</gpxtpx:hr></gpxtpx:TrackPointExtension></extensions>
      </trkpt>
      <trkpt lat="59.091474" lon="17.352913">
        <ele>30.2</ele>
        <time>2020-03-26T12:28:46Z</time>
        <extensions><gpxtpx:TrackPointExtension><gpxtpx:hr>149</gpxtpx:hr></gpxtpx:TrackPointExtension></extensions>
      </trkpt>
      <trkpt lat="59.091406" lon="17.353002">
        <ele>30.2</ele>
        <time>2020-03-26T12:28:47Z</time>
        <extensions><gpxtpx:TrackPointExtension><gpxtpx:hr>150</gpxtpx:hr></gpxtpx:TrackPointExtension></extensions>
      </trkpt>
      <trkpt lat="59.091338" lon="17.353092">
        <ele>30</ele>
        <time>2020-03-26T12:28:48Z</time>
        <extensions><gpxtpx:TrackPointExtension><gpxtpx:hr>150</gpxtpx:hr></gpxtpx:TrackPointExtension></extensions>
      </trkpt>
      <trkpt lat="59.091275" lon="17.353196">
        <ele>30</ele>
        <time>2020-03-26T12:28:49Z</time>
        <extensions><gpxtpx:TrackPointExtension><gpxtpx:hr>150</gpxtpx:hr></gpxtpx:TrackPointExtension></extensions>
      </trkpt>
      <trkpt lat="59.091217" lon="17.353316">
        <ele>30</ele>
        <time>2020-03-26T12:28:50Z</time>
        <extensions><gpxtpx:TrackPointExtension><gpxtpx:hr>150</gpxtpx:hr></gpxtpx:TrackPointExtension></extensions>
      </trkpt>
      <trkpt lat="59.091169" lon="17.353444">
        <ele>29.8</ele>
        <time>2020-03-26T12:28:51Z</time>
        <extensions><gpxtpx:TrackPointExtension><gpxtpx:hr>150</gpxtpx:hr></gpxtpx:TrackPointExtension></extensions>
      </trkpt>
      <trkpt lat="59.091128" lon="17.35358">
        <ele>29.8</ele>
        <time>2020-03-26T12:28:52Z</time>
        <extensions><gpxtpx:TrackPointExtension><gpxtpx:hr>150</gpxtpx:hr></gpxtpx:TrackPointExtension></extensions>
      </trkpt>
      <trkpt lat="59.091092" lon="17.35372">
        <ele>29.6</ele>
        <time>2020-03-26T12:28:53Z</time>
        <extensions><gpxtpx:TrackPointExtension><gpxtpx:hr>150</gpxtpx:hr></gpxtpx:TrackPointExtension></extensions>
      </trkpt>
      <trkpt lat="59.09106" lon="17.353871">
        <ele>29.6</ele>
        <time>2020-03-26T12:28:54Z</time>
        <extensions><gpxtpx:TrackPointExtension><gpxtpx:hr>150</gpxtpx:hr></gpxtpx:TrackPointExtension></extensions>
      </trkpt>
      <trkpt lat="59.091039" lon="17.354024">
        <ele>29.6</ele>
        <time>2020-03-26T12:28:55Z</time>
        <extensions><gpxtpx:TrackPointExtension><gpxtpx:hr>150</gpxtpx:hr></gpxtpx:TrackPointExtension></extensions>
      </trkpt>
      <trkpt lat="59.091028" lon="17.354175">
        <ele>29.6</ele>
        <time>2020-03-26T12:28:56Z</time>
        <extensions><gpxtpx:TrackPointExtension><gpxtpx:hr>150</gpxtpx:hr></gpxtpx:TrackPointExtension></extensions>
      </trkpt>
      <trkpt lat="59.091036" lon="17.354318">
        <ele>29.6</ele>
        <time>2020-03-26T12:28:57Z</time>
        <extensions><gpxtpx:TrackPointExtension><gpxtpx:hr>150</gpxtpx:hr></gpxtpx:TrackPointExtension></extensions>
      </trkpt>
      <trkpt lat="59.091057" lon="17.354458">
        <ele>29.6</ele>
        <time>2020-03-26T12:28:58Z</time>
        <extensions><gpxtpx:TrackPointExtension><gpxtpx:hr>150</gpxtpx:hr></gpxtpx:TrackPointExtension></extensions>
      </trkpt>
      <trkpt lat="59.09109" lon="17.354596">
        <ele>29.6</ele>
        <time>2020-03-26T12:28:59Z</time>
        <extensions><gpxtpx:TrackPointExtension><gpxtpx:hr>150</gpxtpx:hr></gpxtpx:TrackPointExtension></extensions>
      </trkpt>
      <trkpt lat="59.09113" lon="17.354725">
        <ele>29.8</ele>
        <time>2020-03-26T12:29:00Z</time>
        <extensions><gpxtpx:TrackPointExtension><gpxtpx:hr>151</gpxtpx:hr></gpxtpx:TrackPointExtension></extensions>
      </trkpt>
      <trkpt lat="59.091177" lon="17.354855">
        <ele>29.8</ele>
        <time>2020-03-26T12:29:01Z</time>
        <extensions><gpxtpx:TrackPointExtension><gpxtpx:hr>151</gpxtpx:hr></gpxtpx:TrackPointExtension></extensions>
      </trkpt>
      <trkpt lat="59.091224" lon="17.354985">
        <ele>29.8</ele>
        <time>2020-03-26T12:29:02Z</time>
        <extensions><gpxtpx:TrackPointExtension><gpxtpx:hr>152</gpxtpx:hr></gpxtpx:TrackPointExtension></extensions>
      </trkpt>
      <trkpt lat="59.091271" lon="17.355117">
        <ele>29.8</ele>
        <time>2020-03-26T12:29:03Z</time>
        <extensions><gpxtpx:TrackPointExtension><gpxtpx:hr>152</gpxtpx:hr></gpxtpx:TrackPointExtension></extensions>
      </trkpt>
      <trkpt lat="59.091321" lon="17.355247">
        <ele>30</ele>
        <time>2020-03-26T12:29:04Z</time>
        <extensions><gpxtpx:TrackPointExtension><gpxtpx:hr>152</gpxtpx:hr></gpxtpx:TrackPointExtension></extensions>
      </trkpt>
      <trkpt lat="59.091373" lon="17.35537">
        <ele>30</ele>
        <time>2020-03-26T12:29:05Z</time>
        <extensions><gpxtpx:TrackPointExtension><gpxtpx:hr>152</gpxtpx:hr></gpxtpx:TrackPointExtension></extensions>
      </trkpt>
      <trkpt lat="59.09143" lon="17.355482">
        <ele>30</ele>
        <time>2020-03-26T12:29:06Z</time>
        <extensions><gpxtpx:TrackPointExtension><gpxtpx:hr>152</gpxtpx:hr></gpxtpx:TrackPointExtension></extensions>
      </trkpt>
      <trkpt lat="59.091499" lon="17.355567">
        <ele>30</ele>
        <time>2020-03-26T12:29:07Z</time>
        <extensions><gpxtpx:TrackPointExtension><gpxtpx:hr>152</gpxtpx:hr></gpxtpx:TrackPointExtension></extensions>
      </trkpt>
      <trkpt lat="59.091579" lon="17.355615">
        <ele>30</ele>
        <time>2020-03-26T12:29:08Z</time>
        <extensions><gpxtpx:TrackPointExtension><gpxtpx:hr>152</gpxtpx:hr></gpxtpx:TrackPointExtension></extensions>
      </trkpt>
      <trkpt lat="59.09166" lon="17.355641">
        <ele>30</ele>
        <time>2020-03-26T12:29:09Z</time>
        <extensions><gpxtpx:TrackPointExtension><gpxtpx:hr>152</gpxtpx:hr></gpxtpx:TrackPointExtension></extensions>
      </trkpt>
      <trkpt lat="59.091737" lon="17.355659">
        <ele>30.2</ele>
        <time>2020-03-26T12:29:10Z</time>
        <extensions><gpxtpx:TrackPointExtension><gpxtpx:hr>152</gpxtpx:hr></gpxtpx:TrackPointExtension></extensions>
      </trkpt>
      <trkpt lat="59.091813" lon="17.35568">
        <ele>30.2</ele>
        <time>2020-03-26T12:29:11Z</time>
        <extensions><gpxtpx:TrackPointExtension><gpxtpx:hr>152</gpxtpx:hr></gpxtpx:TrackPointExtension></extensions>
      </trkpt>
      <trkpt lat="59.091887" lon="17.355721">
        <ele>30.4</ele>
        <time>2020-03-26T12:29:12Z</time>
        <extensions><gpxtpx:TrackPointExtension><gpxtpx:hr>153</gpxtpx:hr></gpxtpx:TrackPointExtension></extensions>
      </trkpt>
      <trkpt lat="59.091958" lon="17.355787">
        <ele>30.4</ele>
        <time>2020-03-26T12:29:13Z</time>
        <extensions><gpxtpx:TrackPointExtension><gpxtpx:hr>153</gpxtpx:hr></gpxtpx:TrackPointExtension></extensions>
      </trkpt>
      <trkpt lat="59.092022" lon="17.355873">
        <ele>30.4</ele>
        <time>2020-03-26T12:29:14Z</time>
        <extensions><gpxtpx:TrackPointExtension><gpxtpx:hr>153</gpxtpx:hr></gpxtpx:TrackPointExtension></extensions>
      </trkpt>
      <trkpt lat="59.092081" lon="17.355969">
        <ele>30.4</ele>
        <time>2020-03-26T12:29:15Z</time>
        <extensions><gpxtpx:TrackPointExtension><gpxtpx:hr>153</gpxtpx:hr></gpxtpx:TrackPointExtension></extensions>
      </trkpt>
      <trkpt lat="59.09214" lon="17.356062">
        <ele>30.4</ele>
        <time>2020-03-26T12:29:16Z</time>
        <extensions><gpxtpx:TrackPointExtension><gpxtpx:hr>153</gpxtpx:hr></gpxtpx:TrackPointExtension></extensions>
      </trkpt>
      <trkpt lat="59.092183" lon="17.356133">
        <ele>30.4</ele>
        <time>2020-03-26T12:29:17Z</time>
        <extensions><gpxtpx:TrackPointExtension><gpxtpx:hr>153</gpxtpx:hr></gpxtpx:TrackPointExtension></extensions>
      </trkpt>
      <trkpt lat="59.092226" lon="17.356204">
        <ele>30.4</ele>
        <time>2020-03-26T12:29:18Z</time>
        <extensions><gpxtpx:TrackPointExtension><gpxtpx:hr>153</gpxtpx:hr></gpxtpx:TrackPointExtension></extensions>
      </trkpt>
      <trkpt lat="59.092311" lon="17.356346">
        <ele>30.4</ele>
        <time>2020-03-26T12:29:19Z</time>
        <extensions><gpxtpx:TrackPointExtension><gpxtpx:hr>153</gpxtpx:hr></gpxtpx:TrackPointExtension></extensions>
      </trkpt>
      <trkpt lat="59.092366" lon="17.356434">
        <ele>30.4</ele>
        <time>2020-03-26T12:29:20Z</time>
        <extensions><gpxtpx:TrackPointExtension><gpxtpx:hr>153</gpxtpx:hr></gpxtpx:TrackPointExtension></extensions>
      </trkpt>
      <trkpt lat="59.092424" lon="17.356517">
        <ele>30.6</ele>
        <time>2020-03-26T12:29:21Z</time>
        <extensions><gpxtpx:TrackPointExtension><gpxtpx:hr>154</gpxtpx:hr></gpxtpx:TrackPointExtension></extensions>
      </trkpt>
      <trkpt lat="59.092481" lon="17.356588">
        <ele>30.6</ele>
        <time>2020-03-26T12:29:22Z</time>
        <extensions><gpxtpx:TrackPointExtension><gpxtpx:hr>154</gpxtpx:hr></gpxtpx:TrackPointExtension></extensions>
      </trkpt>
      <trkpt lat="59.092539" lon="17.356645">
        <ele>30.6</ele>
        <time>2020-03-26T12:29:23Z</time>
        <extensions><gpxtpx:TrackPointExtension><gpxtpx:hr>154</gpxtpx:hr></gpxtpx:TrackPointExtension></extensions>
      </trkpt>
      <trkpt lat="59.092604" lon="17.356681">
        <ele>30.6</ele>
        <time>2020-03-26T12:29:24Z</time>
        <extensions><gpxtpx:TrackPointExtension><gpxtpx:hr>154</gpxtpx:hr></gpxtpx:TrackPointExtension></extensions>
      </trkpt>
      <trkpt lat="59.092669" lon="17.356704">
        <ele>30.6</ele>
        <time>2020-03-26T12:29:25Z</time>
        <extensions><gpxtpx:TrackPointExtension><gpxtpx:hr>154</gpxtpx:hr></gpxtpx:TrackPointExtension></extensions>
      </trkpt>
      <trkpt lat="59.092739" lon="17.356723">
        <ele>30.8</ele>
        <time>2020-03-26T12:29:26Z</time>
        <extensions><gpxtpx:TrackPointExtension><gpxtpx:hr>155</gpxtpx:hr></gpxtpx:TrackPointExtension></extensions>
      </trkpt>
      <trkpt lat="59.09281" lon="17.356734">
        <ele>30.8</ele>
        <time>2020-03-26T12:29:27Z</time>
        <extensions><gpxtpx:TrackPointExtension><gpxtpx:hr>155</gpxtpx:hr></gpxtpx:TrackPointExtension></extensions>
      </trkpt>
      <trkpt lat="59.092885" lon="17.35674">
        <ele>30.8</ele>
        <time>2020-03-26T12:29:28Z</time>
        <extensions><gpxtpx:TrackPointExtension><gpxtpx:hr>155</gpxtpx:hr></gpxtpx:TrackPointExtension></extensions>
      </trkpt>
      <trkpt lat="59.09296" lon="17.356746">
        <ele>31</ele>
        <time>2020-03-26T12:29:29Z</time>
        <extensions><gpxtpx:TrackPointExtension><gpxtpx:hr>155</gpxtpx:hr></gpxtpx:TrackPointExtension></extensions>
      </trkpt>
      <trkpt lat="59.093034" lon="17.356754">
        <ele>31.2</ele>
        <time>2020-03-26T12:29:30Z</time>
        <extensions><gpxtpx:TrackPointExtension><gpxtpx:hr>155</gpxtpx:hr></gpxtpx:TrackPointExtension></extensions>
      </trkpt>
      <trkpt lat="59.093111" lon="17.356761">
        <ele>31.4</ele>
        <time>2020-03-26T12:29:31Z</time>
        <extensions><gpxtpx:TrackPointExtension><gpxtpx:hr>156</gpxtpx:hr></gpxtpx:TrackPointExtension></extensions>
      </trkpt>
      <trkpt lat="59.093182" lon="17.356771">
        <ele>31.4</ele>
        <time>2020-03-26T12:29:32Z</time>
        <extensions><gpxtpx:TrackPointExtension><gpxtpx:hr>156</gpxtpx:hr></gpxtpx:TrackPointExtension></extensions>
      </trkpt>
      <trkpt lat="59.093255" lon="17.356787">
        <ele>31.4</ele>
        <time>2020-03-26T12:29:33Z</time>
        <extensions><gpxtpx:TrackPointExtension><gpxtpx:hr>156</gpxtpx:hr></gpxtpx:TrackPointExtension></extensions>
      </trkpt>
      <trkpt lat="59.093328" lon="17.356804">
        <ele>31.6</ele>
        <time>2020-03-26T12:29:34Z</time>
        <extensions><gpxtpx:TrackPointExtension><gpxtpx:hr>157</gpxtpx:hr></gpxtpx:TrackPointExtension></extensions>
      </trkpt>
      <trkpt lat="59.093402" lon="17.356818">
        <ele>31.6</ele>
        <time>2020-03-26T12:29:35Z</time>
        <extensions><gpxtpx:TrackPointExtension><gpxtpx:hr>156</gpxtpx:hr></gpxtpx:TrackPointExtension></extensions>
      </trkpt>
      <trkpt lat="59.093475" lon="17.356831">
        <ele>31.6</ele>
        <time>2020-03-26T12:29:36Z</time>
        <extensions><gpxtpx:TrackPointExtension><gpxtpx:hr>156</gpxtpx:hr></gpxtpx:TrackPointExtension></extensions>
      </trkpt>
      <trkpt lat="59.093545" lon="17.356846">
        <ele>31.6</ele>
        <time>2020-03-26T12:29:37Z</time>
        <extensions><gpxtpx:TrackPointExtension><gpxtpx:hr>156</gpxtpx:hr></gpxtpx:TrackPointExtension></extensions>
      </trkpt>
      <trkpt lat="59.093613" lon="17.356861">
        <ele>31.6</ele>
        <time>2020-03-26T12:29:38Z</time>
        <extensions><gpxtpx:TrackPointExtension><gpxtpx:hr>156</gpxtpx:hr></gpxtpx:TrackPointExtension></extensions>
      </trkpt>
      <trkpt lat="59.093676" lon="17.356877">
        <ele>31.8</ele>
        <time>2020-03-26T12:29:39Z</time>
        <extensions><gpxtpx:TrackPointExtension><gpxtpx:hr>156</gpxtpx:hr></gpxtpx:TrackPointExtension></extensions>
      </trkpt>
      <trkpt lat="59.093737" lon="17.35689">
        <ele>31.8</ele>
        <time>2020-03-26T12:29:40Z</time>
        <extensions><gpxtpx:TrackPointExtension><gpxtpx:hr>157</gpxtpx:hr></gpxtpx:TrackPointExtension></extensions>
      </trkpt>
      <trkpt lat="59.093791" lon="17.356902">
        <ele>31.8</ele>
        <time>2020-03-26T12:29:41Z</time>
        <extensions><gpxtpx:TrackPointExtension><gpxtpx:hr>157</gpxtpx:hr></gpxtpx:TrackPointExtension></extensions>
      </trkpt>
      <trkpt lat="59.093839" lon="17.356917">
        <ele>31.8</ele>
        <time>2020-03-26T12:29:42Z</time>
        <extensions><gpxtpx:TrackPointExtension><gpxtpx:hr>157</gpxtpx:hr></gpxtpx:TrackPointExtension></extensions>
      </trkpt>
      <trkpt lat="59.093886" lon="17.356927">
        <ele>32</ele>
        <time>2020-03-26T12:29:43Z</time>
        <extensions><gpxtpx:TrackPointExtension><gpxtpx:hr>157</gpxtpx:hr></gpxtpx:TrackPointExtension></extensions>
      </trkpt>
      <trkpt lat="59.093927" lon="17.356937">
        <ele>32</ele>
        <time>2020-03-26T12:29:44Z</time>
        <extensions><gpxtpx:TrackPointExtension><gpxtpx:hr>157</gpxtpx:hr></gpxtpx:TrackPointExtension></extensions>
      </trkpt>
      <trkpt lat="59.093965" lon="17.356938">
        <ele>32</ele>
        <time>2020-03-26T12:29:45Z</time>
        <extensions><gpxtpx:TrackPointExtension><gpxtpx:hr>156</gpxtpx:hr></gpxtpx:TrackPointExtension></extensions>
      </trkpt>
      <trkpt lat="59.094006" lon="17.35694">
        <ele>32.2</ele>
        <time>2020-03-26T12:29:46Z</time>
        <extensions><gpxtpx:TrackPointExtension><gpxtpx:hr>156</gpxtpx:hr></gpxtpx:TrackPointExtension></extensions>
      </trkpt>
      <trkpt lat="59.094044" lon="17.356945">
        <ele>32.4</ele>
        <time>2020-03-26T12:29:47Z</time>
        <extensions><gpxtpx:TrackPointExtension><gpxtpx:hr>156</gpxtpx:hr></gpxtpx:TrackPointExtension></extensions>
      </trkpt>
      <trkpt lat="59.094083" lon="17.356952">
        <ele>32.8</ele>
        <time>2020-03-26T12:29:48Z</time>
        <extensions><gpxtpx:TrackPointExtension><gpxtpx:hr>156</gpxtpx:hr></gpxtpx:TrackPointExtension></extensions>
      </trkpt>
      <trkpt lat="59.09414" lon="17.356953">
        <ele>33.2</ele>
        <time>2020-03-26T12:29:49Z</time>
        <extensions><gpxtpx:TrackPointExtension><gpxtpx:hr>157</gpxtpx:hr></gpxtpx:TrackPointExtension></extensions>
      </trkpt>
      <trkpt lat="59.094185" lon="17.356959">
        <ele>33.8</ele>
        <time>2020-03-26T12:29:50Z</time>
        <extensions><gpxtpx:TrackPointExtension><gpxtpx:hr>157</gpxtpx:hr></gpxtpx:TrackPointExtension></extensions>
      </trkpt>
      <trkpt lat="59.094235" lon="17.356962">
        <ele>34.4</ele>
        <time>2020-03-26T12:29:51Z</time>
        <extensions><gpxtpx:TrackPointExtension><gpxtpx:hr>158</gpxtpx:hr></gpxtpx:TrackPointExtension></extensions>
      </trkpt>
      <trkpt lat="59.094284" lon="17.356964">
        <ele>34.8</ele>
        <time>2020-03-26T12:29:52Z</time>
        <extensions><gpxtpx:TrackPointExtension><gpxtpx:hr>158</gpxtpx:hr></gpxtpx:TrackPointExtension></extensions>
      </trkpt>
      <trkpt lat="59.094331" lon="17.356969">
        <ele>35.4</ele>
        <time>2020-03-26T12:29:53Z</time>
        <extensions><gpxtpx:TrackPointExtension><gpxtpx:hr>158</gpxtpx:hr></gpxtpx:TrackPointExtension></extensions>
      </trkpt>
      <trkpt lat="59.094376" lon="17.356979">
        <ele>35.8</ele>
        <time>2020-03-26T12:29:54Z</time>
        <extensions><gpxtpx:TrackPointExtension><gpxtpx:hr>159</gpxtpx:hr></gpxtpx:TrackPointExtension></extensions>
      </trkpt>
      <trkpt lat="59.094424" lon="17.356993">
        <ele>36.4</ele>
        <time>2020-03-26T12:29:55Z</time>
        <extensions><gpxtpx:TrackPointExtension><gpxtpx:hr>159</gpxtpx:hr></gpxtpx:TrackPointExtension></extensions>
      </trkpt>
      <trkpt lat="59.09448" lon="17.357013">
        <ele>37</ele>
        <time>2020-03-26T12:29:56Z</time>
        <extensions><gpxtpx:TrackPointExtension><gpxtpx:hr>159</gpxtpx:hr></gpxtpx:TrackPointExtension></extensions>
      </trkpt>
      <trkpt lat="59.094543" lon="17.357052">
        <ele>37.6</ele>
        <time>2020-03-26T12:29:57Z</time>
        <extensions><gpxtpx:TrackPointExtension><gpxtpx:hr>159</gpxtpx:hr></gpxtpx:TrackPointExtension></extensions>
      </trkpt>
      <trkpt lat="59.094596" lon="17.357114">
        <ele>37.6</ele>
        <time>2020-03-26T12:29:58Z</time>
        <extensions><gpxtpx:TrackPointExtension><gpxtpx:hr>159</gpxtpx:hr></gpxtpx:TrackPointExtension></extensions>
      </trkpt>
      <trkpt lat="59.094642" lon="17.357202">
        <ele>37.6</ele>
        <time>2020-03-26T12:29:59Z</time>
        <extensions><gpxtpx:TrackPointExtension><gpxtpx:hr>159</gpxtpx:hr></gpxtpx:TrackPointExtension></extensions>
      </trkpt>
      <trkpt lat="59.094673" lon="17.35731">
        <ele>37.8</ele>
        <time>2020-03-26T12:30:00Z</time>
        <extensions><gpxtpx:TrackPointExtension><gpxtpx:hr>159</gpxtpx:hr></gpxtpx:TrackPointExtension></extensions>
      </trkpt>
      <trkpt lat="59.094695" lon="17.357426">
        <ele>37.8</ele>
        <time>2020-03-26T12:30:01Z</time>
        <extensions><gpxtpx:TrackPointExtension><gpxtpx:hr>159</gpxtpx:hr></gpxtpx:TrackPointExtension></extensions>
      </trkpt>
      <trkpt lat="59.094707" lon="17.357551">
        <ele>37.8</ele>
        <time>2020-03-26T12:30:02Z</time>
        <extensions><gpxtpx:TrackPointExtension><gpxtpx:hr>159</gpxtpx:hr></gpxtpx:TrackPointExtension></extensions>
      </trkpt>
      <trkpt lat="59.094721" lon="17.357683">
        <ele>37.8</ele>
        <time>2020-03-26T12:30:03Z</time>
        <extensions><gpxtpx:TrackPointExtension><gpxtpx:hr>160</gpxtpx:hr></gpxtpx:TrackPointExtension></extensions>
      </trkpt>
      <trkpt lat="59.094731" lon="17.357818">
        <ele>37.8</ele>
        <time>2020-03-26T12:30:04Z</time>
        <extensions><gpxtpx:TrackPointExtension><gpxtpx:hr>160</gpxtpx:hr></gpxtpx:TrackPointExtension></extensions>
      </trkpt>
      <trkpt lat="59.09474" lon="17.357954">
        <ele>37.8</ele>
        <time>2020-03-26T12:30:05Z</time>
        <extensions><gpxtpx:TrackPointExtension><gpxtpx:hr>160</gpxtpx:hr></gpxtpx:TrackPointExtension></extensions>
      </trkpt>
      <trkpt lat="59.094757" lon="17.358099">
        <ele>37.6</ele>
        <time>2020-03-26T12:30:06Z</time>
        <extensions><gpxtpx:TrackPointExtension><gpxtpx:hr>159</gpxtpx:hr></gpxtpx:TrackPointExtension></extensions>
      </trkpt>
      <trkpt lat="59.094786" lon="17.358232">
        <ele>37.2</ele>
        <time>2020-03-26T12:30:07Z</time>
        <extensions><gpxtpx:TrackPointExtension><gpxtpx:hr>159</gpxtpx:hr></gpxtpx:TrackPointExtension></extensions>
      </trkpt>
      <trkpt lat="59.094825" lon="17.358358">
        <ele>36.8</ele>
        <time>2020-03-26T12:30:08Z</time>
        <extensions><gpxtpx:TrackPointExtension><gpxtpx:hr>159</gpxtpx:hr></gpxtpx:TrackPointExtension></extensions>
      </trkpt>
      <trkpt lat="59.09488" lon="17.358465">
        <ele>36.2</ele>
        <time>2020-03-26T12:30:09Z</time>
        <extensions><gpxtpx:TrackPointExtension><gpxtpx:hr>158</gpxtpx:hr></gpxtpx:TrackPointExtension></extensions>
      </trkpt>
      <trkpt lat="59.09495" lon="17.35856">
        <ele>35.6</ele>
        <time>2020-03-26T12:30:10Z</time>
        <extensions><gpxtpx:TrackPointExtension><gpxtpx:hr>158</gpxtpx:hr></gpxtpx:TrackPointExtension></extensions>
      </trkpt>
      <trkpt lat="59.095023" lon="17.358639">
        <ele>35.4</ele>
        <time>2020-03-26T12:30:11Z</time>
        <extensions><gpxtpx:TrackPointExtension><gpxtpx:hr>157</gpxtpx:hr></gpxtpx:TrackPointExtension></extensions>
      </trkpt>
      <trkpt lat="59.0951" lon="17.358698">
        <ele>35.2</ele>
        <time>2020-03-26T12:30:12Z</time>
        <extensions><gpxtpx:TrackPointExtension><gpxtpx:hr>157</gpxtpx:hr></gpxtpx:TrackPointExtension></extensions>
      </trkpt>
      <trkpt lat="59.095188" lon="17.358733">
        <ele>35</ele>
        <time>2020-03-26T12:30:13Z</time>
        <extensions><gpxtpx:TrackPointExtension><gpxtpx:hr>155</gpxtpx:hr></gpxtpx:TrackPointExtension></extensions>
      </trkpt>
      <trkpt lat="59.095276" lon="17.358757">
        <ele>35</ele>
        <time>2020-03-26T12:30:14Z</time>
        <extensions><gpxtpx:TrackPointExtension><gpxtpx:hr>154</gpxtpx:hr></gpxtpx:TrackPointExtension></extensions>
      </trkpt>
      <trkpt lat="59.095361" lon="17.358775">
        <ele>35</ele>
        <time>2020-03-26T12:30:15Z</time>
        <extensions><gpxtpx:TrackPointExtension><gpxtpx:hr>153</gpxtpx:hr></gpxtpx:TrackPointExtension></extensions>
      </trkpt>
      <trkpt lat="59.095446" lon="17.358796">
        <ele>34.6</ele>
        <time>2020-03-26T12:30:16Z</time>
        <extensions><gpxtpx:TrackPointExtension><gpxtpx:hr>152</gpxtpx:hr></gpxtpx:TrackPointExtension></extensions>
      </trkpt>
      <trkpt lat="59.095536" lon="17.358809">
        <ele>34.4</ele>
        <time>2020-03-26T12:30:17Z</time>
        <extensions><gpxtpx:TrackPointExtension><gpxtpx:hr>151</gpxtpx:hr></gpxtpx:TrackPointExtension></extensions>
      </trkpt>
      <trkpt lat="59.095621" lon="17.358834">
        <ele>34.4</ele>
        <time>2020-03-26T12:30:18Z</time>
        <extensions><gpxtpx:TrackPointExtension><gpxtpx:hr>150</gpxtpx:hr></gpxtpx:TrackPointExtension></extensions>
      </trkpt>
      <trkpt lat="59.095703" lon="17.358879">
        <ele>34</ele>
        <time>2020-03-26T12:30:19Z</time>
        <extensions><gpxtpx:TrackPointExtension><gpxtpx:hr>150</gpxtpx:hr></gpxtpx:TrackPointExtension></extensions>
      </trkpt>
      <trkpt lat="59.095785" lon="17.35895">
        <ele>33.8</ele>
        <time>2020-03-26T12:30:20Z</time>
        <extensions><gpxtpx:TrackPointExtension><gpxtpx:hr>149</gpxtpx:hr></gpxtpx:TrackPointExtension></extensions>
      </trkpt>
      <trkpt lat="59.095857" lon="17.359036">
        <ele>33.8</ele>
        <time>2020-03-26T12:30:21Z</time>
        <extensions><gpxtpx:TrackPointExtension><gpxtpx:hr>148</gpxtpx:hr></gpxtpx:TrackPointExtension></extensions>
      </trkpt>
      <trkpt lat="59.095931" lon="17.359123">
        <ele>33.6</ele>
        <time>2020-03-26T12:30:22Z</time>
        <extensions><gpxtpx:TrackPointExtension><gpxtpx:hr>148</gpxtpx:hr></gpxtpx:TrackPointExtension></extensions>
      </trkpt>
      <trkpt lat="59.096003" lon="17.359214">
        <ele>33.4</ele>
        <time>2020-03-26T12:30:23Z</time>
        <extensions><gpxtpx:TrackPointExtension><gpxtpx:hr>147</gpxtpx:hr></gpxtpx:TrackPointExtension></extensions>
      </trkpt>
      <trkpt lat="59.09607" lon="17.359312">
        <ele>33</ele>
        <time>2020-03-26T12:30:24Z</time>
        <extensions><gpxtpx:TrackPointExtension><gpxtpx:hr>146</gpxtpx:hr></gpxtpx:TrackPointExtension></extensions>
      </trkpt>
      <trkpt lat="59.096133" lon="17.359404">
        <ele>32</ele>
        <time>2020-03-26T12:30:25Z</time>
        <extensions><gpxtpx:TrackPointExtension><gpxtpx:hr>145</gpxtpx:hr></gpxtpx:TrackPointExtension></extensions>
      </trkpt>
      <trkpt lat="59.096196" lon="17.359499">
        <ele>31.6</ele>
        <time>2020-03-26T12:30:26Z</time>
        <extensions><gpxtpx:TrackPointExtension><gpxtpx:hr>144</gpxtpx:hr></gpxtpx:TrackPointExtension></extensions>
      </trkpt>
      <trkpt lat="59.096255" lon="17.359588">
        <ele>31.4</ele>
        <time>2020-03-26T12:30:27Z</time>
        <extensions><gpxtpx:TrackPointExtension><gpxtpx:hr>143</gpxtpx:hr></gpxtpx:TrackPointExtension></extensions>
      </trkpt>
      <trkpt lat="59.096311" lon="17.359673">
        <ele>31.4</ele>
        <time>2020-03-26T12:30:28Z</time>
        <extensions><gpxtpx:TrackPointExtension><gpxtpx:hr>142</gpxtpx:hr></gpxtpx:TrackPointExtension></extensions>
      </trkpt>
      <trkpt lat="59.096362" lon="17.359756">
        <ele>31.4</ele>
        <time>2020-03-26T12:30:29Z</time>
        <extensions><gpxtpx:TrackPointExtension><gpxtpx:hr>142</gpxtpx:hr></gpxtpx:TrackPointExtension></extensions>
      </trkpt>
      <trkpt lat="59.096416" lon="17.359844">
        <ele>31.4</ele>
        <time>2020-03-26T12:30:30Z</time>
        <extensions><gpxtpx:TrackPointExtension><gpxtpx:hr>143</gpxtpx:hr></gpxtpx:TrackPointExtension></extensions>
      </trkpt>
      <trkpt lat="59.096472" lon="17.359927">
        <ele>31.4</ele>
        <time>2020-03-26T12:30:31Z</time>
        <extensions><gpxtpx:TrackPointExtension><gpxtpx:hr>143</gpxtpx:hr></gpxtpx:TrackPointExtension></extensions>
      </trkpt>
      <trkpt lat="59.096527" lon="17.36001">
        <ele>31.4</ele>
        <time>2020-03-26T12:30:32Z</time>
        <extensions><gpxtpx:TrackPointExtension><gpxtpx:hr>143</gpxtpx:hr></gpxtpx:TrackPointExtension></extensions>
      </trkpt>
      <trkpt lat="59.096585" lon="17.360094">
        <ele>31.4</ele>
        <time>2020-03-26T12:30:33Z</time>
        <extensions><gpxtpx:TrackPointExtension><gpxtpx:hr>144</gpxtpx:hr></gpxtpx:TrackPointExtension></extensions>
      </trkpt>
      <trkpt lat="59.096644" lon="17.360178">
        <ele>31.4</ele>
        <time>2020-03-26T12:30:34Z</time>
        <extensions><gpxtpx:TrackPointExtension><gpxtpx:hr>144</gpxtpx:hr></gpxtpx:TrackPointExtension></extensions>
      </trkpt>
      <trkpt lat="59.0967" lon="17.360259">
        <ele>31.4</ele>
        <time>2020-03-26T12:30:35Z</time>
        <extensions><gpxtpx:TrackPointExtension><gpxtpx:hr>144</gpxtpx:hr></gpxtpx:TrackPointExtension></extensions>
      </trkpt>
      <trkpt lat="59.096755" lon="17.360337">
        <ele>31.4</ele>
        <time>2020-03-26T12:30:36Z</time>
        <extensions><gpxtpx:TrackPointExtension><gpxtpx:hr>144</gpxtpx:hr></gpxtpx:TrackPointExtension></extensions>
      </trkpt>
      <trkpt lat="59.096808" lon="17.360415">
        <ele>31.6</ele>
        <time>2020-03-26T12:30:37Z</time>
        <extensions><gpxtpx:TrackPointExtension><gpxtpx:hr>144</gpxtpx:hr></gpxtpx:TrackPointExtension></extensions>
      </trkpt>
      <trkpt lat="59.096857" lon="17.36049">
        <ele>32</ele>
        <time>2020-03-26T12:30:38Z</time>
        <extensions><gpxtpx:TrackPointExtension><gpxtpx:hr>145</gpxtpx:hr></gpxtpx:TrackPointExtension></extensions>
      </trkpt>
      <trkpt lat="59.096901" lon="17.360559">
        <ele>32.2</ele>
        <time>2020-03-26T12:30:39Z</time>
        <extensions><gpxtpx:TrackPointExtension><gpxtpx:hr>145</gpxtpx:hr></gpxtpx:TrackPointExtension></extensions>
      </trkpt>
      <trkpt lat="59.096946" lon="17.360633">
        <ele>32.2</ele>
        <time>2020-03-26T12:30:40Z</time>
        <extensions><gpxtpx:TrackPointExtension><gpxtpx:hr>145</gpxtpx:hr></gpxtpx:TrackPointExtension></extensions>
      </trkpt>
      <trkpt lat="59.096993" lon="17.360705">
        <ele>32.4</ele>
        <time>2020-03-26T12:30:41Z</time>
        <extensions><gpxtpx:TrackPointExtension><gpxtpx:hr>145</gpxtpx:hr></gpxtpx:TrackPointExtension></extensions>
      </trkpt>
      <trkpt lat="59.097043" lon="17.360771">
        <ele>32.6</ele>
        <time>2020-03-26T12:30:42Z</time>
        <extensions><gpxtpx:TrackPointExtension><gpxtpx:hr>145</gpxtpx:hr></gpxtpx:TrackPointExtension></extensions>
      </trkpt>
      <trkpt lat="59.097094" lon="17.360835">
        <ele>32.6</ele>
        <time>2020-03-26T12:30:43Z</time>
        <extensions><gpxtpx:TrackPointExtension><gpxtpx:hr>145</gpxtpx:hr></gpxtpx:TrackPointExtension></extensions>
      </trkpt>
      <trkpt lat="59.097148" lon="17.3609">
        <ele>32.8</ele>
        <time>2020-03-26T12:30:44Z</time>
        <extensions><gpxtpx:TrackPointExtension><gpxtpx:hr>145</gpxtpx:hr></gpxtpx:TrackPointExtension></extensions>
      </trkpt>
      <trkpt lat="59.097202" lon="17.360957">
        <ele>32.8</ele>
        <time>2020-03-26T12:30:45Z</time>
        <extensions><gpxtpx:TrackPointExtension><gpxtpx:hr>145</gpxtpx:hr></gpxtpx:TrackPointExtension></extensions>
      </trkpt>
      <trkpt lat="59.097257" lon="17.361012">
        <ele>33.2</ele>
        <time>2020-03-26T12:30:46Z</time>
        <extensions><gpxtpx:TrackPointExtension><gpxtpx:hr>145</gpxtpx:hr></gpxtpx:TrackPointExtension></extensions>
      </trkpt>
      <trkpt lat="59.097315" lon="17.361069">
        <ele>33.6</ele>
        <time>2020-03-26T12:30:47Z</time>
        <extensions><gpxtpx:TrackPointExtension><gpxtpx:hr>146</gpxtpx:hr></gpxtpx:TrackPointExtension></extensions>
      </trkpt>
      <trkpt lat="59.097377" lon="17.361126">
        <ele>33.8</ele>
        <time>2020-03-26T12:30:48Z</time>
        <extensions><gpxtpx:TrackPointExtension><gpxtpx:hr>146</gpxtpx:hr></gpxtpx:TrackPointExtension></extensions>
      </trkpt>
      <trkpt lat="59.097443" lon="17.361185">
        <ele>33.8</ele>
        <time>2020-03-26T12:30:49Z</time>
        <extensions><gpxtpx:TrackPointExtension><gpxtpx:hr>146</gpxtpx:hr></gpxtpx:TrackPointExtension></extensions>
      </trkpt>
      <trkpt lat="59.097512" lon="17.36125">
        <ele>34</ele>
        <time>2020-03-26T12:30:50Z</time>
        <extensions><gpxtpx:TrackPointExtension><gpxtpx:hr>146</gpxtpx:hr></gpxtpx:TrackPointExtension></extensions>
      </trkpt>
      <trkpt lat="59.09758" lon="17.361327">
        <ele>34</ele>
        <time>2020-03-26T12:30:51Z</time>
        <extensions><gpxtpx:TrackPointExtension><gpxtpx:hr>146</gpxtpx:hr></gpxtpx:TrackPointExtension></extensions>
      </trkpt>
      <trkpt lat="59.097646" lon="17.361416">
        <ele>34</ele>
        <time>2020-03-26T12:30:52Z</time>
        <extensions><gpxtpx:TrackPointExtension><gpxtpx:hr>146</gpxtpx:hr></gpxtpx:TrackPointExtension></extensions>
      </trkpt>
      <trkpt lat="59.097702" lon="17.361521">
        <ele>34</ele>
        <time>2020-03-26T12:30:53Z</time>
        <extensions><gpxtpx:TrackPointExtension><gpxtpx:hr>146</gpxtpx:hr></gpxtpx:TrackPointExtension></extensions>
      </trkpt>
      <trkpt lat="59.097752" lon="17.361648">
        <ele>34</ele>
        <time>2020-03-26T12:30:54Z</time>
        <extensions><gpxtpx:TrackPointExtension><gpxtpx:hr>145</gpxtpx:hr></gpxtpx:TrackPointExtension></extensions>
      </trkpt>
      <trkpt lat="59.097794" lon="17.361781">
        <ele>34</ele>
        <time>2020-03-26T12:30:55Z</time>
        <extensions><gpxtpx:TrackPointExtension><gpxtpx:hr>145</gpxtpx:hr></gpxtpx:TrackPointExtension></extensions>
      </trkpt>
      <trkpt lat="59.097831" lon="17.361916">
        <ele>33.8</ele>
        <time>2020-03-26T12:30:56Z</time>
        <extensions><gpxtpx:TrackPointExtension><gpxtpx:hr>145</gpxtpx:hr></gpxtpx:TrackPointExtension></extensions>
      </trkpt>
      <trkpt lat="59.097864" lon="17.362054">
        <ele>33.4</ele>
        <time>2020-03-26T12:30:57Z</time>
        <extensions><gpxtpx:TrackPointExtension><gpxtpx:hr>144</gpxtpx:hr></gpxtpx:TrackPointExtension></extensions>
      </trkpt>
      <trkpt lat="59.097896" lon="17.362195">
        <ele>32.8</ele>
        <time>2020-03-26T12:30:58Z</time>
        <extensions><gpxtpx:TrackPointExtension><gpxtpx:hr>143</gpxtpx:hr></gpxtpx:TrackPointExtension></extensions>
      </trkpt>
      <trkpt lat="59.097928" lon="17.362337">
        <ele>32.2</ele>
        <time>2020-03-26T12:30:59Z</time>
        <extensions><gpxtpx:TrackPointExtension><gpxtpx:hr>142</gpxtpx:hr></gpxtpx:TrackPointExtension></extensions>
      </trkpt>
      <trkpt lat="59.097959" lon="17.36248">
        <ele>31.8</ele>
        <time>2020-03-26T12:31:00Z</time>
        <extensions><gpxtpx:TrackPointExtension><gpxtpx:hr>142</gpxtpx:hr></gpxtpx:TrackPointExtension></extensions>
      </trkpt>
      <trkpt lat="59.09799" lon="17.362623">
        <ele>31.4</ele>
        <time>2020-03-26T12:31:01Z</time>
        <extensions><gpxtpx:TrackPointExtension><gpxtpx:hr>142</gpxtpx:hr></gpxtpx:TrackPointExtension></extensions>
      </trkpt>
      <trkpt lat="59.098022" lon="17.362767">
        <ele>31.2</ele>
        <time>2020-03-26T12:31:02Z</time>
        <extensions><gpxtpx:TrackPointExtension><gpxtpx:hr>142</gpxtpx:hr></gpxtpx:TrackPointExtension></extensions>
      </trkpt>
      <trkpt lat="59.098049" lon="17.362866">
        <ele>31</ele>
        <time>2020-03-26T12:31:03Z</time>
        <extensions><gpxtpx:TrackPointExtension><gpxtpx:hr>142</gpxtpx:hr></gpxtpx:TrackPointExtension></extensions>
      </trkpt>
      <trkpt lat="59.098076" lon="17.362965">
        <ele>31</ele>
        <time>2020-03-26T12:31:04Z</time>
        <extensions><gpxtpx:TrackPointExtension><gpxtpx:hr>142</gpxtpx:hr></gpxtpx:TrackPointExtension></extensions>
      </trkpt>
      <trkpt lat="59.09813" lon="17.363164">
        <ele>31</ele>
        <time>2020-03-26T12:31:05Z</time>
        <extensions><gpxtpx:TrackPointExtension><gpxtpx:hr>142</gpxtpx:hr></gpxtpx:TrackPointExtension></extensions>
      </trkpt>
      <trkpt lat="59.098173" lon="17.363288">
        <ele>31</ele>
        <time>2020-03-26T12:31:06Z</time>
        <extensions><gpxtpx:TrackPointExtension><gpxtpx:hr>142</gpxtpx:hr></gpxtpx:TrackPointExtension></extensions>
      </trkpt>
      <trkpt lat="59.098218" lon="17.363407">
        <ele>30.8</ele>
        <time>2020-03-26T12:31:07Z</time>
        <extensions><gpxtpx:TrackPointExtension><gpxtpx:hr>142</gpxtpx:hr></gpxtpx:TrackPointExtension></extensions>
      </trkpt>
      <trkpt lat="59.098268" lon="17.363525">
        <ele>30.8</ele>
        <time>2020-03-26T12:31:08Z</time>
        <extensions><gpxtpx:TrackPointExtension><gpxtpx:hr>142</gpxtpx:hr></gpxtpx:TrackPointExtension></extensions>
      </trkpt>
      <trkpt lat="59.098321" lon="17.36364">
        <ele>30.8</ele>
        <time>2020-03-26T12:31:09Z</time>
        <extensions><gpxtpx:TrackPointExtension><gpxtpx:hr>142</gpxtpx:hr></gpxtpx:TrackPointExtension></extensions>
      </trkpt>
      <trkpt lat="59.098375" lon="17.363756">
        <ele>30.8</ele>
        <time>2020-03-26T12:31:10Z</time>
        <extensions><gpxtpx:TrackPointExtension><gpxtpx:hr>142</gpxtpx:hr></gpxtpx:TrackPointExtension></extensions>
      </trkpt>
      <trkpt lat="59.09843" lon="17.363871">
        <ele>30.8</ele>
        <time>2020-03-26T12:31:11Z</time>
        <extensions><gpxtpx:TrackPointExtension><gpxtpx:hr>143</gpxtpx:hr></gpxtpx:TrackPointExtension></extensions>
      </trkpt>
      <trkpt lat="59.098486" lon="17.36399">
        <ele>30.8</ele>
        <time>2020-03-26T12:31:12Z</time>
        <extensions><gpxtpx:TrackPointExtension><gpxtpx:hr>143</gpxtpx:hr></gpxtpx:TrackPointExtension></extensions>
      </trkpt>
      <trkpt lat="59.098541" lon="17.364107">
        <ele>30.8</ele>
        <time>2020-03-26T12:31:13Z</time>
        <extensions><gpxtpx:TrackPointExtension><gpxtpx:hr>144</gpxtpx:hr></gpxtpx:TrackPointExtension></extensions>
      </trkpt>
      <trkpt lat="59.098597" lon="17.364226">
        <ele>30.8</ele>
        <time>2020-03-26T12:31:14Z</time>
        <extensions><gpxtpx:TrackPointExtension><gpxtpx:hr>144</gpxtpx:hr></gpxtpx:TrackPointExtension></extensions>
      </trkpt>
      <trkpt lat="59.098652" lon="17.364342">
        <ele>30.8</ele>
        <time>2020-03-26T12:31:15Z</time>
        <extensions><gpxtpx:TrackPointExtension><gpxtpx:hr>144</gpxtpx:hr></gpxtpx:TrackPointExtension></extensions>
      </trkpt>
      <trkpt lat="59.098707" lon="17.364456">
        <ele>31</ele>
        <time>2020-03-26T12:31:16Z</time>
        <extensions><gpxtpx:TrackPointExtension><gpxtpx:hr>144</gpxtpx:hr></gpxtpx:TrackPointExtension></extensions>
      </trkpt>
      <trkpt lat="59.098763" lon="17.364569">
        <ele>31</ele>
        <time>2020-03-26T12:31:17Z</time>
        <extensions><gpxtpx:TrackPointExtension><gpxtpx:hr>145</gpxtpx:hr></gpxtpx:TrackPointExtension></extensions>
      </trkpt>
      <trkpt lat="59.098816" lon="17.364678">
        <ele>31</ele>
        <time>2020-03-26T12:31:18Z</time>
        <extensions><gpxtpx:TrackPointExtension><gpxtpx:hr>145</gpxtpx:hr></gpxtpx:TrackPointExtension></extensions>
      </trkpt>
      <trkpt lat="59.098866" lon="17.364787">
        <ele>31</ele>
        <time>2020-03-26T12:31:19Z</time>
        <extensions><gpxtpx:TrackPointExtension><gpxtpx:hr>145</gpxtpx:hr></gpxtpx:TrackPointExtension></extensions>
      </trkpt>
      <trkpt lat="59.098915" lon="17.364894">
        <ele>31</ele>
        <time>2020-03-26T12:31:20Z</time>
        <extensions><gpxtpx:TrackPointExtension><gpxtpx:hr>145</gpxtpx:hr></gpxtpx:TrackPointExtension></extensions>
      </trkpt>
      <trkpt lat="59.098962" lon="17.364998">
        <ele>31</ele>
        <time>2020-03-26T12:31:21Z</time>
        <extensions><gpxtpx:TrackPointExtension><gpxtpx:hr>146</gpxtpx:hr></gpxtpx:TrackPointExtension></extensions>
      </trkpt>
      <trkpt lat="59.099008" lon="17.365101">
        <ele>31</ele>
        <time>2020-03-26T12:31:22Z</time>
        <extensions><gpxtpx:TrackPointExtension><gpxtpx:hr>146</gpxtpx:hr></gpxtpx:TrackPointExtension></extensions>
      </trkpt>
      <trkpt lat="59.09905" lon="17.365201">
        <ele>31.2</ele>
        <time>2020-03-26T12:31:23Z</time>
        <extensions><gpxtpx:TrackPointExtension><gpxtpx:hr>147</gpxtpx:hr></gpxtpx:TrackPointExtension></extensions>
      </trkpt>
      <trkpt lat="59.099093" lon="17.365298">
        <ele>31.2</ele>
        <time>2020-03-26T12:31:24Z</time>
        <extensions><gpxtpx:TrackPointExtension><gpxtpx:hr>147</gpxtpx:hr></gpxtpx:TrackPointExtension></extensions>
      </trkpt>
      <trkpt lat="59.099134" lon="17.365392">
        <ele>31.2</ele>
        <time>2020-03-26T12:31:25Z</time>
        <extensions><gpxtpx:TrackPointExtension><gpxtpx:hr>147</gpxtpx:hr></gpxtpx:TrackPointExtension></extensions>
      </trkpt>
      <trkpt lat="59.099174" lon="17.365484">
        <ele>31.4</ele>
        <time>2020-03-26T12:31:26Z</time>
        <extensions><gpxtpx:TrackPointExtension><gpxtpx:hr>147</gpxtpx:hr></gpxtpx:TrackPointExtension></extensions>
      </trkpt>
      <trkpt lat="59.099212" lon="17.365574">
        <ele>31.6</ele>
        <time>2020-03-26T12:31:27Z</time>
        <extensions><gpxtpx:TrackPointExtension><gpxtpx:hr>147</gpxtpx:hr></gpxtpx:TrackPointExtension></extensions>
      </trkpt>
      <trkpt lat="59.099252" lon="17.36566">
        <ele>32</ele>
        <time>2020-03-26T12:31:28Z</time>
        <extensions><gpxtpx:TrackPointExtension><gpxtpx:hr>147</gpxtpx:hr></gpxtpx:TrackPointExtension></extensions>
      </trkpt>
      <trkpt lat="59.099291" lon="17.365742">
        <ele>32.2</ele>
        <time>2020-03-26T12:31:29Z</time>
        <extensions><gpxtpx:TrackPointExtension><gpxtpx:hr>148</gpxtpx:hr></gpxtpx:TrackPointExtension></extensions>
      </trkpt>
      <trkpt lat="59.099332" lon="17.365828">
        <ele>32.4</ele>
        <time>2020-03-26T12:31:30Z</time>
        <extensions><gpxtpx:TrackPointExtension><gpxtpx:hr>148</gpxtpx:hr></gpxtpx:TrackPointExtension></extensions>
      </trkpt>
      <trkpt lat="59.099372" lon="17.365913">
        <ele>32.6</ele>
        <time>2020-03-26T12:31:31Z</time>
        <extensions><gpxtpx:TrackPointExtension><gpxtpx:hr>149</gpxtpx:hr></gpxtpx:TrackPointExtension></extensions>
      </trkpt>
      <trkpt lat="59.099413" lon="17.365998">
        <ele>33</ele>
        <time>2020-03-26T12:31:32Z</time>
        <extensions><gpxtpx:TrackPointExtension><gpxtpx:hr>149</gpxtpx:hr></gpxtpx:TrackPointExtension></extensions>
      </trkpt>
      <trkpt lat="59.099454" lon="17.366078">
        <ele>33.4</ele>
        <time>2020-03-26T12:31:33Z</time>
        <extensions><gpxtpx:TrackPointExtension><gpxtpx:hr>150</gpxtpx:hr></gpxtpx:TrackPointExtension></extensions>
      </trkpt>
      <trkpt lat="59.099499" lon="17.366153">
        <ele>33.8</ele>
        <time>2020-03-26T12:31:34Z</time>
        <extensions><gpxtpx:TrackPointExtension><gpxtpx:hr>151</gpxtpx:hr></gpxtpx:TrackPointExtension></extensions>
      </trkpt>
      <trkpt lat="59.099548" lon="17.366218">
        <ele>34.2</ele>
        <time>2020-03-26T12:31:35Z</time>
        <extensions><gpxtpx:TrackPointExtension><gpxtpx:hr>151</gpxtpx:hr></gpxtpx:TrackPointExtension></extensions>
      </trkpt>
      <trkpt lat="59.099595" lon="17.366279">
        <ele>34.6</ele>
        <time>2020-03-26T12:31:36Z</time>
        <extensions><gpxtpx:TrackPointExtension><gpxtpx:hr>152</gpxtpx:hr></gpxtpx:TrackPointExtension></extensions>
      </trkpt>
      <trkpt lat="59.099644" lon="17.36634">
        <ele>35</ele>
        <time>2020-03-26T12:31:37Z</time>
        <extensions><gpxtpx:TrackPointExtension><gpxtpx:hr>152</gpxtpx:hr></gpxtpx:TrackPointExtension></extensions>
      </trkpt>
      <trkpt lat="59.099691" lon="17.366403">
        <ele>35.2</ele>
        <time>2020-03-26T12:31:38Z</time>
        <extensions><gpxtpx:TrackPointExtension><gpxtpx:hr>152</gpxtpx:hr></gpxtpx:TrackPointExtension></extensions>
      </trkpt>
      <trkpt lat="59.099738" lon="17.366468">
        <ele>35.6</ele>
        <time>2020-03-26T12:31:39Z</time>
        <extensions><gpxtpx:TrackPointExtension><gpxtpx:hr>153</gpxtpx:hr></gpxtpx:TrackPointExtension></extensions>
      </trkpt>
      <trkpt lat="59.099787" lon="17.366536">
        <ele>35.8</ele>
        <time>2020-03-26T12:31:40Z</time>
        <extensions><gpxtpx:TrackPointExtension><gpxtpx:hr>154</gpxtpx:hr></gpxtpx:TrackPointExtension></extensions>
      </trkpt>
      <trkpt lat="59.099835" lon="17.36661">
        <ele>36</ele>
        <time>2020-03-26T12:31:41Z</time>
        <extensions><gpxtpx:TrackPointExtension><gpxtpx:hr>154</gpxtpx:hr></gpxtpx:TrackPointExtension></extensions>
      </trkpt>
      <trkpt lat="59.099886" lon="17.36669">
        <ele>36</ele>
        <time>2020-03-26T12:31:42Z</time>
        <extensions><gpxtpx:TrackPointExtension><gpxtpx:hr>155</gpxtpx:hr></gpxtpx:TrackPointExtension></extensions>
      </trkpt>
      <trkpt lat="59.099933" lon="17.366776">
        <ele>36.2</ele>
        <time>2020-03-26T12:31:43Z</time>
        <extensions><gpxtpx:TrackPointExtension><gpxtpx:hr>155</gpxtpx:hr></gpxtpx:TrackPointExtension></extensions>
      </trkpt>
      <trkpt lat="59.099982" lon="17.366869">
        <ele>36.4</ele>
        <time>2020-03-26T12:31:44Z</time>
        <extensions><gpxtpx:TrackPointExtension><gpxtpx:hr>156</gpxtpx:hr></gpxtpx:TrackPointExtension></extensions>
      </trkpt>
      <trkpt lat="59.100024" lon="17.36697">
        <ele>36.6</ele>
        <time>2020-03-26T12:31:45Z</time>
        <extensions><gpxtpx:TrackPointExtension><gpxtpx:hr>156</gpxtpx:hr></gpxtpx:TrackPointExtension></extensions>
      </trkpt>
      <trkpt lat="59.100067" lon="17.367075">
        <ele>36.6</ele>
        <time>2020-03-26T12:31:46Z</time>
        <extensions><gpxtpx:TrackPointExtension><gpxtpx:hr>156</gpxtpx:hr></gpxtpx:TrackPointExtension></extensions>
      </trkpt>
      <trkpt lat="59.100106" lon="17.367183">
        <ele>36.8</ele>
        <time>2020-03-26T12:31:47Z</time>
        <extensions><gpxtpx:TrackPointExtension><gpxtpx:hr>157</gpxtpx:hr></gpxtpx:TrackPointExtension></extensions>
      </trkpt>
      <trkpt lat="59.100143" lon="17.367293">
        <ele>36.8</ele>
        <time>2020-03-26T12:31:48Z</time>
        <extensions><gpxtpx:TrackPointExtension><gpxtpx:hr>157</gpxtpx:hr></gpxtpx:TrackPointExtension></extensions>
      </trkpt>
      <trkpt lat="59.100178" lon="17.367407">
        <ele>36.8</ele>
        <time>2020-03-26T12:31:49Z</time>
        <extensions><gpxtpx:TrackPointExtension><gpxtpx:hr>157</gpxtpx:hr></gpxtpx:TrackPointExtension></extensions>
      </trkpt>
      <trkpt lat="59.10021" lon="17.367522">
        <ele>37</ele>
        <time>2020-03-26T12:31:50Z</time>
        <extensions><gpxtpx:TrackPointExtension><gpxtpx:hr>158</gpxtpx:hr></gpxtpx:TrackPointExtension></extensions>
      </trkpt>
      <trkpt lat="59.100248" lon="17.367634">
        <ele>37</ele>
        <time>2020-03-26T12:31:51Z</time>
        <extensions><gpxtpx:TrackPointExtension><gpxtpx:hr>158</gpxtpx:hr></gpxtpx:TrackPointExtension></extensions>
      </trkpt>
      <trkpt lat="59.100272" lon="17.367723">
        <ele>37</ele>
        <time>2020-03-26T12:31:52Z</time>
        <extensions><gpxtpx:TrackPointExtension><gpxtpx:hr>158</gpxtpx:hr></gpxtpx:TrackPointExtension></extensions>
      </trkpt>
      <trkpt lat="59.100296" lon="17.367812">
        <ele>37</ele>
        <time>2020-03-26T12:31:53Z</time>
        <extensions><gpxtpx:TrackPointExtension><gpxtpx:hr>158</gpxtpx:hr></gpxtpx:TrackPointExtension></extensions>
      </trkpt>
      <trkpt lat="59.100343" lon="17.367991">
        <ele>37.2</ele>
        <time>2020-03-26T12:31:54Z</time>
        <extensions><gpxtpx:TrackPointExtension><gpxtpx:hr>158</gpxtpx:hr></gpxtpx:TrackPointExtension></extensions>
      </trkpt>
      <trkpt lat="59.10037" lon="17.368115">
        <ele>37.2</ele>
        <time>2020-03-26T12:31:55Z</time>
        <extensions><gpxtpx:TrackPointExtension><gpxtpx:hr>158</gpxtpx:hr></gpxtpx:TrackPointExtension></extensions>
      </trkpt>
      <trkpt lat="59.100398" lon="17.36824">
        <ele>37.2</ele>
        <time>2020-03-26T12:31:56Z</time>
        <extensions><gpxtpx:TrackPointExtension><gpxtpx:hr>159</gpxtpx:hr></gpxtpx:TrackPointExtension></extensions>
      </trkpt>
      <trkpt lat="59.100428" lon="17.368365">
        <ele>37.2</ele>
        <time>2020-03-26T12:31:57Z</time>
        <extensions><gpxtpx:TrackPointExtension><gpxtpx:hr>159</gpxtpx:hr></gpxtpx:TrackPointExtension></extensions>
      </trkpt>
      <trkpt lat="59.100458" lon="17.368491">
        <ele>37.2</ele>
        <time>2020-03-26T12:31:58Z</time>
        <extensions><gpxtpx:TrackPointExtension><gpxtpx:hr>159</gpxtpx:hr></gpxtpx:TrackPointExtension></extensions>
      </trkpt>
      <trkpt lat="59.100489" lon="17.368617">
        <ele>37</ele>
        <time>2020-03-26T12:31:59Z</time>
        <extensions><gpxtpx:TrackPointExtension><gpxtpx:hr>158</gpxtpx:hr></gpxtpx:TrackPointExtension></extensions>
      </trkpt>
      <trkpt lat="59.100519" lon="17.368744">
        <ele>37</ele>
        <time>2020-03-26T12:32:00Z</time>
        <extensions><gpxtpx:TrackPointExtension><gpxtpx:hr>158</gpxtpx:hr></gpxtpx:TrackPointExtension></extensions>
      </trkpt>
      <trkpt lat="59.10055" lon="17.368871">
        <ele>37</ele>
        <time>2020-03-26T12:32:01Z</time>
        <extensions><gpxtpx:TrackPointExtension><gpxtpx:hr>158</gpxtpx:hr></gpxtpx:TrackPointExtension></extensions>
      </trkpt>
      <trkpt lat="59.100582" lon="17.368997">
        <ele>37</ele>
        <time>2020-03-26T12:32:02Z</time>
        <extensions><gpxtpx:TrackPointExtension><gpxtpx:hr>157</gpxtpx:hr></gpxtpx:TrackPointExtension></extensions>
      </trkpt>
      <trkpt lat="59.100613" lon="17.369123">
        <ele>37</ele>
        <time>2020-03-26T12:32:03Z</time>
        <extensions><gpxtpx:TrackPointExtension><gpxtpx:hr>157</gpxtpx:hr></gpxtpx:TrackPointExtension></extensions>
      </trkpt>
      <trkpt lat="59.100644" lon="17.369248">
        <ele>36.8</ele>
        <time>2020-03-26T12:32:04Z</time>
        <extensions><gpxtpx:TrackPointExtension><gpxtpx:hr>157</gpxtpx:hr></gpxtpx:TrackPointExtension></extensions>
      </trkpt>
      <trkpt lat="59.100675" lon="17.369371">
        <ele>36.8</ele>
        <time>2020-03-26T12:32:05Z</time>
        <extensions><gpxtpx:TrackPointExtension><gpxtpx:hr>157</gpxtpx:hr></gpxtpx:TrackPointExtension></extensions>
      </trkpt>
      <trkpt lat="59.100709" lon="17.369489">
        <ele>36.6</ele>
        <time>2020-03-26T12:32:06Z</time>
        <extensions><gpxtpx:TrackPointExtension><gpxtpx:hr>157</gpxtpx:hr></gpxtpx:TrackPointExtension></extensions>
      </trkpt>
      <trkpt lat="59.100744" lon="17.369602">
        <ele>36.6</ele>
        <time>2020-03-26T12:32:07Z</time>
        <extensions><gpxtpx:TrackPointExtension><gpxtpx:hr>157</gpxtpx:hr></gpxtpx:TrackPointExtension></extensions>
      </trkpt>
      <trkpt lat="59.100781" lon="17.369707">
        <ele>36.4</ele>
        <time>2020-03-26T12:32:08Z</time>
        <extensions><gpxtpx:TrackPointExtension><gpxtpx:hr>157</gpxtpx:hr></gpxtpx:TrackPointExtension></extensions>
      </trkpt>
      <trkpt lat="59.100819" lon="17.369808">
        <ele>36.4</ele>
        <time>2020-03-26T12:32:09Z</time>
        <extensions><gpxtpx:TrackPointExtension><gpxtpx:hr>157</gpxtpx:hr></gpxtpx:TrackPointExtension></extensions>
      </trkpt>
      <trkpt lat="59.100855" lon="17.369905">
        <ele>36.2</ele>
        <time>2020-03-26T12:32:10Z</time>
        <extensions><gpxtpx:TrackPointExtension><gpxtpx:hr>156</gpxtpx:hr></gpxtpx:TrackPointExtension></extensions>
      </trkpt>
      <trkpt lat="59.100891" lon="17.369998">
        <ele>36.2</ele>
        <time>2020-03-26T12:32:11Z</time>
        <extensions><gpxtpx:TrackPointExtension><gpxtpx:hr>156</gpxtpx:hr></gpxtpx:TrackPointExtension></extensions>
      </trkpt>
      <trkpt lat="59.100926" lon="17.370085">
        <ele>36.2</ele>
        <time>2020-03-26T12:32:12Z</time>
        <extensions><gpxtpx:TrackPointExtension><gpxtpx:hr>156</gpxtpx:hr></gpxtpx:TrackPointExtension></extensions>
      </trkpt>
      <trkpt lat="59.100961" lon="17.370167">
        <ele>36.2</ele>
        <time>2020-03-26T12:32:13Z</time>
        <extensions><gpxtpx:TrackPointExtension><gpxtpx:hr>155</gpxtpx:hr></gpxtpx:TrackPointExtension></extensions>
      </trkpt>
      <trkpt lat="59.100994" lon="17.370243">
        <ele>36.2</ele>
        <time>2020-03-26T12:32:14Z</time>
        <extensions><gpxtpx:TrackPointExtension><gpxtpx:hr>155</gpxtpx:hr></gpxtpx:TrackPointExtension></extensions>
      </trkpt>
      <trkpt lat="59.101026" lon="17.370317">
        <ele>36.2</ele>
        <time>2020-03-26T12:32:15Z</time>
        <extensions><gpxtpx:TrackPointExtension><gpxtpx:hr>155</gpxtpx:hr></gpxtpx:TrackPointExtension></extensions>
      </trkpt>
      <trkpt lat="59.101061" lon="17.370386">
        <ele>36.2</ele>
        <time>2020-03-26T12:32:16Z</time>
        <extensions><gpxtpx:TrackPointExtension><gpxtpx:hr>155</gpxtpx:hr></gpxtpx:TrackPointExtension></extensions>
      </trkpt>
      <trkpt lat="59.1011" lon="17.370449">
        <ele>36.2</ele>
        <time>2020-03-26T12:32:17Z</time>
        <extensions><gpxtpx:TrackPointExtension><gpxtpx:hr>154</gpxtpx:hr></gpxtpx:TrackPointExtension></extensions>
      </trkpt>
      <trkpt lat="59.101139" lon="17.370509">
        <ele>36.4</ele>
        <time>2020-03-26T12:32:18Z</time>
        <extensions><gpxtpx:TrackPointExtension><gpxtpx:hr>154</gpxtpx:hr></gpxtpx:TrackPointExtension></extensions>
      </trkpt>
      <trkpt lat="59.101175" lon="17.370568">
        <ele>36.8</ele>
        <time>2020-03-26T12:32:19Z</time>
        <extensions><gpxtpx:TrackPointExtension><gpxtpx:hr>154</gpxtpx:hr></gpxtpx:TrackPointExtension></extensions>
      </trkpt>
      <trkpt lat="59.101214" lon="17.370625">
        <ele>37</ele>
        <time>2020-03-26T12:32:20Z</time>
        <extensions><gpxtpx:TrackPointExtension><gpxtpx:hr>154</gpxtpx:hr></gpxtpx:TrackPointExtension></extensions>
      </trkpt>
      <trkpt lat="59.101258" lon="17.37068">
        <ele>37.4</ele>
        <time>2020-03-26T12:32:21Z</time>
        <extensions><gpxtpx:TrackPointExtension><gpxtpx:hr>154</gpxtpx:hr></gpxtpx:TrackPointExtension></extensions>
      </trkpt>
      <trkpt lat="59.101298" lon="17.370731">
        <ele>37.6</ele>
        <time>2020-03-26T12:32:22Z</time>
        <extensions><gpxtpx:TrackPointExtension><gpxtpx:hr>154</gpxtpx:hr></gpxtpx:TrackPointExtension></extensions>
      </trkpt>
      <trkpt lat="59.101338" lon="17.370786">
        <ele>38.6</ele>
        <time>2020-03-26T12:32:23Z</time>
        <extensions><gpxtpx:TrackPointExtension><gpxtpx:hr>154</gpxtpx:hr></gpxtpx:TrackPointExtension></extensions>
      </trkpt>
      <trkpt lat="59.101378" lon="17.370843">
        <ele>39</ele>
        <time>2020-03-26T12:32:24Z</time>
        <extensions><gpxtpx:TrackPointExtension><gpxtpx:hr>155</gpxtpx:hr></gpxtpx:TrackPointExtension></extensions>
      </trkpt>
      <trkpt lat="59.101422" lon="17.370899">
        <ele>39.4</ele>
        <time>2020-03-26T12:32:25Z</time>
        <extensions><gpxtpx:TrackPointExtension><gpxtpx:hr>155</gpxtpx:hr></gpxtpx:TrackPointExtension></extensions>
      </trkpt>
      <trkpt lat="59.101466" lon="17.370956">
        <ele>40</ele>
        <time>2020-03-26T12:32:26Z</time>
        <extensions><gpxtpx:TrackPointExtension><gpxtpx:hr>155</gpxtpx:hr></gpxtpx:TrackPointExtension></extensions>
      </trkpt>
      <trkpt lat="59.10151" lon="17.371019">
        <ele>40.4</ele>
        <time>2020-03-26T12:32:27Z</time>
        <extensions><gpxtpx:TrackPointExtension><gpxtpx:hr>155</gpxtpx:hr></gpxtpx:TrackPointExtension></extensions>
      </trkpt>
      <trkpt lat="59.101553" lon="17.371082">
        <ele>40.6</ele>
        <time>2020-03-26T12:32:28Z</time>
        <extensions><gpxtpx:TrackPointExtension><gpxtpx:hr>155</gpxtpx:hr></gpxtpx:TrackPointExtension></extensions>
      </trkpt>
      <trkpt lat="59.101598" lon="17.371144">
        <ele>40.6</ele>
        <time>2020-03-26T12:32:29Z</time>
        <extensions><gpxtpx:TrackPointExtension><gpxtpx:hr>155</gpxtpx:hr></gpxtpx:TrackPointExtension></extensions>
      </trkpt>
      <trkpt lat="59.101647" lon="17.371205">
        <ele>40.8</ele>
        <time>2020-03-26T12:32:30Z</time>
        <extensions><gpxtpx:TrackPointExtension><gpxtpx:hr>156</gpxtpx:hr></gpxtpx:TrackPointExtension></extensions>
      </trkpt>
      <trkpt lat="59.101696" lon="17.371272">
        <ele>40.8</ele>
        <time>2020-03-26T12:32:31Z</time>
        <extensions><gpxtpx:TrackPointExtension><gpxtpx:hr>156</gpxtpx:hr></gpxtpx:TrackPointExtension></extensions>
      </trkpt>
      <trkpt lat="59.101747" lon="17.371346">
        <ele>40.8</ele>
        <time>2020-03-26T12:32:32Z</time>
        <extensions><gpxtpx:TrackPointExtension><gpxtpx:hr>156</gpxtpx:hr></gpxtpx:TrackPointExtension></extensions>
      </trkpt>
      <trkpt lat="59.101798" lon="17.371422">
        <ele>40.8</ele>
        <time>2020-03-26T12:32:33Z</time>
        <extensions><gpxtpx:TrackPointExtension><gpxtpx:hr>157</gpxtpx:hr></gpxtpx:TrackPointExtension></extensions>
      </trkpt>
      <trkpt lat="59.101853" lon="17.371504">
        <ele>40.8</ele>
        <time>2020-03-26T12:32:34Z</time>
        <extensions><gpxtpx:TrackPointExtension><gpxtpx:hr>156</gpxtpx:hr></gpxtpx:TrackPointExtension></extensions>
      </trkpt>
      <trkpt lat="59.101911" lon="17.371587">
        <ele>40.8</ele>
        <time>2020-03-26T12:32:35Z</time>
        <extensions><gpxtpx:TrackPointExtension><gpxtpx:hr>156</gpxtpx:hr></gpxtpx:TrackPointExtension></extensions>
      </trkpt>
      <trkpt lat="59.101971" lon="17.371672">
        <ele>40.8</ele>
        <time>2020-03-26T12:32:36Z</time>
        <extensions><gpxtpx:TrackPointExtension><gpxtpx:hr>156</gpxtpx:hr></gpxtpx:TrackPointExtension></extensions>
      </trkpt>
      <trkpt lat="59.102033" lon="17.371758">
        <ele>40.8</ele>
        <time>2020-03-26T12:32:37Z</time>
        <extensions><gpxtpx:TrackPointExtension><gpxtpx:hr>156</gpxtpx:hr></gpxtpx:TrackPointExtension></extensions>
      </trkpt>
      <trkpt lat="59.102093" lon="17.371843">
        <ele>40.8</ele>
        <time>2020-03-26T12:32:38Z</time>
        <extensions><gpxtpx:TrackPointExtension><gpxtpx:hr>155</gpxtpx:hr></gpxtpx:TrackPointExtension></extensions>
      </trkpt>
      <trkpt lat="59.102153" lon="17.371929">
        <ele>40.8</ele>
        <time>2020-03-26T12:32:39Z</time>
        <extensions><gpxtpx:TrackPointExtension><gpxtpx:hr>155</gpxtpx:hr></gpxtpx:TrackPointExtension></extensions>
      </trkpt>
      <trkpt lat="59.10221" lon="17.372015">
        <ele>40.8</ele>
        <time>2020-03-26T12:32:40Z</time>
        <extensions><gpxtpx:TrackPointExtension><gpxtpx:hr>155</gpxtpx:hr></gpxtpx:TrackPointExtension></extensions>
      </trkpt>
      <trkpt lat="59.102266" lon="17.372101">
        <ele>40.4</ele>
        <time>2020-03-26T12:32:41Z</time>
        <extensions><gpxtpx:TrackPointExtension><gpxtpx:hr>154</gpxtpx:hr></gpxtpx:TrackPointExtension></extensions>
      </trkpt>
      <trkpt lat="59.102322" lon="17.372179">
        <ele>40.2</ele>
        <time>2020-03-26T12:32:42Z</time>
        <extensions><gpxtpx:TrackPointExtension><gpxtpx:hr>154</gpxtpx:hr></gpxtpx:TrackPointExtension></extensions>
      </trkpt>
      <trkpt lat="59.102373" lon="17.37226">
        <ele>40</ele>
        <time>2020-03-26T12:32:43Z</time>
        <extensions><gpxtpx:TrackPointExtension><gpxtpx:hr>153</gpxtpx:hr></gpxtpx:TrackPointExtension></extensions>
      </trkpt>
      <trkpt lat="59.102423" lon="17.372345">
        <ele>39.6</ele>
        <time>2020-03-26T12:32:44Z</time>
        <extensions><gpxtpx:TrackPointExtension><gpxtpx:hr>152</gpxtpx:hr></gpxtpx:TrackPointExtension></extensions>
      </trkpt>
      <trkpt lat="59.102474" lon="17.372438">
        <ele>39.2</ele>
        <time>2020-03-26T12:32:45Z</time>
        <extensions><gpxtpx:TrackPointExtension><gpxtpx:hr>150</gpxtpx:hr></gpxtpx:TrackPointExtension></extensions>
      </trkpt>
      <trkpt lat="59.102529" lon="17.372527">
        <ele>39</ele>
        <time>2020-03-26T12:32:46Z</time>
        <extensions><gpxtpx:TrackPointExtension><gpxtpx:hr>149</gpxtpx:hr></gpxtpx:TrackPointExtension></extensions>
      </trkpt>
      <trkpt lat="59.102585" lon="17.372607">
        <ele>38.8</ele>
        <time>2020-03-26T12:32:47Z</time>
        <extensions><gpxtpx:TrackPointExtension><gpxtpx:hr>147</gpxtpx:hr></gpxtpx:TrackPointExtension></extensions>
      </trkpt>
      <trkpt lat="59.102648" lon="17.372675">
        <ele>38.6</ele>
        <time>2020-03-26T12:32:48Z</time>
        <extensions><gpxtpx:TrackPointExtension><gpxtpx:hr>147</gpxtpx:hr></gpxtpx:TrackPointExtension></extensions>
      </trkpt>
      <trkpt lat="59.102717" lon="17.372735">
        <ele>38.6</ele>
        <time>2020-03-26T12:32:49Z</time>
        <extensions><gpxtpx:TrackPointExtension><gpxtpx:hr>146</gpxtpx:hr></gpxtpx:TrackPointExtension></extensions>
      </trkpt>
      <trkpt lat="59.102779" lon="17.372791">
        <ele>38.4</ele>
        <time>2020-03-26T12:32:50Z</time>
        <extensions><gpxtpx:TrackPointExtension><gpxtpx:hr>146</gpxtpx:hr></gpxtpx:TrackPointExtension></extensions>
      </trkpt>
      <trkpt lat="59.102841" lon="17.372838">
        <ele>38.4</ele>
        <time>2020-03-26T12:32:51Z</time>
        <extensions><gpxtpx:TrackPointExtension><gpxtpx:hr>146</gpxtpx:hr></gpxtpx:TrackPointExtension></extensions>
      </trkpt>
      <trkpt lat="59.102902" lon="17.372873">
        <ele>38.4</ele>
        <time>2020-03-26T12:32:52Z</time>
        <extensions><gpxtpx:TrackPointExtension><gpxtpx:hr>146</gpxtpx:hr></gpxtpx:TrackPointExtension></extensions>
      </trkpt>
      <trkpt lat="59.102961" lon="17.372898">
        <ele>38.4</ele>
        <time>2020-03-26T12:32:53Z</time>
        <extensions><gpxtpx:TrackPointExtension><gpxtpx:hr>145</gpxtpx:hr></gpxtpx:TrackPointExtension></extensions>
      </trkpt>
      <trkpt lat="59.103019" lon="17.372916">
        <ele>38.4</ele>
        <time>2020-03-26T12:32:54Z</time>
        <extensions><gpxtpx:TrackPointExtension><gpxtpx:hr>145</gpxtpx:hr></gpxtpx:TrackPointExtension></extensions>
      </trkpt>
      <trkpt lat="59.103073" lon="17.372927">
        <ele>38.4</ele>
        <time>2020-03-26T12:32:55Z</time>
        <extensions><gpxtpx:TrackPointExtension><gpxtpx:hr>145</gpxtpx:hr></gpxtpx:TrackPointExtension></extensions>
      </trkpt>
      <trkpt lat="59.103125" lon="17.372936">
        <ele>38.4</ele>
        <time>2020-03-26T12:32:56Z</time>
        <extensions><gpxtpx:TrackPointExtension><gpxtpx:hr>145</gpxtpx:hr></gpxtpx:TrackPointExtension></extensions>
      </trkpt>
      <trkpt lat="59.103175" lon="17.372938">
        <ele>38.4</ele>
        <time>2020-03-26T12:32:57Z</time>
        <extensions><gpxtpx:TrackPointExtension><gpxtpx:hr>145</gpxtpx:hr></gpxtpx:TrackPointExtension></extensions>
      </trkpt>
      <trkpt lat="59.103226" lon="17.37294">
        <ele>38.4</ele>
        <time>2020-03-26T12:32:58Z</time>
        <extensions><gpxtpx:TrackPointExtension><gpxtpx:hr>145</gpxtpx:hr></gpxtpx:TrackPointExtension></extensions>
      </trkpt>
      <trkpt lat="59.103278" lon="17.372946">
        <ele>38.6</ele>
        <time>2020-03-26T12:32:59Z</time>
        <extensions><gpxtpx:TrackPointExtension><gpxtpx:hr>145</gpxtpx:hr></gpxtpx:TrackPointExtension></extensions>
      </trkpt>
      <trkpt lat="59.103329" lon="17.372953">
        <ele>38.8</ele>
        <time>2020-03-26T12:33:00Z</time>
        <extensions><gpxtpx:TrackPointExtension><gpxtpx:hr>145</gpxtpx:hr></gpxtpx:TrackPointExtension></extensions>
      </trkpt>
      <trkpt lat="59.10337" lon="17.372959">
        <ele>39</ele>
        <time>2020-03-26T12:33:01Z</time>
        <extensions><gpxtpx:TrackPointExtension><gpxtpx:hr>145</gpxtpx:hr></gpxtpx:TrackPointExtension></extensions>
      </trkpt>
      <trkpt lat="59.103415" lon="17.372959">
        <ele>39.4</ele>
        <time>2020-03-26T12:33:02Z</time>
        <extensions><gpxtpx:TrackPointExtension><gpxtpx:hr>145</gpxtpx:hr></gpxtpx:TrackPointExtension></extensions>
      </trkpt>
      <trkpt lat="59.10345" lon="17.37296">
        <ele>39.6</ele>
        <time>2020-03-26T12:33:03Z</time>
        <extensions><gpxtpx:TrackPointExtension><gpxtpx:hr>146</gpxtpx:hr></gpxtpx:TrackPointExtension></extensions>
      </trkpt>
      <trkpt lat="59.103493" lon="17.372964">
        <ele>39.8</ele>
        <time>2020-03-26T12:33:04Z</time>
        <extensions><gpxtpx:TrackPointExtension><gpxtpx:hr>146</gpxtpx:hr></gpxtpx:TrackPointExtension></extensions>
      </trkpt>
      <trkpt lat="59.103536" lon="17.372962">
        <ele>40</ele>
        <time>2020-03-26T12:33:05Z</time>
        <extensions><gpxtpx:TrackPointExtension><gpxtpx:hr>147</gpxtpx:hr></gpxtpx:TrackPointExtension></extensions>
      </trkpt>
      <trkpt lat="59.103582" lon="17.372958">
        <ele>40.2</ele>
        <time>2020-03-26T12:33:06Z</time>
        <extensions><gpxtpx:TrackPointExtension><gpxtpx:hr>147</gpxtpx:hr></gpxtpx:TrackPointExtension></extensions>
      </trkpt>
      <trkpt lat="59.103625" lon="17.372949">
        <ele>40.4</ele>
        <time>2020-03-26T12:33:07Z</time>
        <extensions><gpxtpx:TrackPointExtension><gpxtpx:hr>148</gpxtpx:hr></gpxtpx:TrackPointExtension></extensions>
      </trkpt>
      <trkpt lat="59.103673" lon="17.372948">
        <ele>40.6</ele>
        <time>2020-03-26T12:33:08Z</time>
        <extensions><gpxtpx:TrackPointExtension><gpxtpx:hr>148</gpxtpx:hr></gpxtpx:TrackPointExtension></extensions>
      </trkpt>
      <trkpt lat="59.103712" lon="17.372948">
        <ele>40.8</ele>
        <time>2020-03-26T12:33:09Z</time>
        <extensions><gpxtpx:TrackPointExtension><gpxtpx:hr>148</gpxtpx:hr></gpxtpx:TrackPointExtension></extensions>
      </trkpt>
      <trkpt lat="59.103755" lon="17.372948">
        <ele>41</ele>
        <time>2020-03-26T12:33:10Z</time>
        <extensions><gpxtpx:TrackPointExtension><gpxtpx:hr>148</gpxtpx:hr></gpxtpx:TrackPointExtension></extensions>
      </trkpt>
      <trkpt lat="59.103793" lon="17.372944">
        <ele>41.2</ele>
        <time>2020-03-26T12:33:11Z</time>
        <extensions><gpxtpx:TrackPointExtension><gpxtpx:hr>149</gpxtpx:hr></gpxtpx:TrackPointExtension></extensions>
      </trkpt>
      <trkpt lat="59.103835" lon="17.372939">
        <ele>41.6</ele>
        <time>2020-03-26T12:33:12Z</time>
        <extensions><gpxtpx:TrackPointExtension><gpxtpx:hr>149</gpxtpx:hr></gpxtpx:TrackPointExtension></extensions>
      </trkpt>
      <trkpt lat="59.103879" lon="17.372943">
        <ele>41.8</ele>
        <time>2020-03-26T12:33:13Z</time>
        <extensions><gpxtpx:TrackPointExtension><gpxtpx:hr>149</gpxtpx:hr></gpxtpx:TrackPointExtension></extensions>
      </trkpt>
      <trkpt lat="59.103918" lon="17.372946">
        <ele>42.2</ele>
        <time>2020-03-26T12:33:14Z</time>
        <extensions><gpxtpx:TrackPointExtension><gpxtpx:hr>149</gpxtpx:hr></gpxtpx:TrackPointExtension></extensions>
      </trkpt>
      <trkpt lat="59.103957" lon="17.372944">
        <ele>42.6</ele>
        <time>2020-03-26T12:33:15Z</time>
        <extensions><gpxtpx:TrackPointExtension><gpxtpx:hr>149</gpxtpx:hr></gpxtpx:TrackPointExtension></extensions>
      </trkpt>
      <trkpt lat="59.104003" lon="17.372936">
        <ele>43</ele>
        <time>2020-03-26T12:33:16Z</time>
        <extensions><gpxtpx:TrackPointExtension><gpxtpx:hr>150</gpxtpx:hr></gpxtpx:TrackPointExtension></extensions>
      </trkpt>
      <trkpt lat="59.104042" lon="17.372924">
        <ele>43.4</ele>
        <time>2020-03-26T12:33:17Z</time>
        <extensions><gpxtpx:TrackPointExtension><gpxtpx:hr>150</gpxtpx:hr></gpxtpx:TrackPointExtension></extensions>
      </trkpt>
      <trkpt lat="59.104073" lon="17.372923">
        <ele>43.8</ele>
        <time>2020-03-26T12:33:18Z</time>
        <extensions><gpxtpx:TrackPointExtension><gpxtpx:hr>150</gpxtpx:hr></gpxtpx:TrackPointExtension></extensions>
      </trkpt>
      <trkpt lat="59.104113" lon="17.372916">
        <ele>44.2</ele>
        <time>2020-03-26T12:33:19Z</time>
        <extensions><gpxtpx:TrackPointExtension><gpxtpx:hr>150</gpxtpx:hr></gpxtpx:TrackPointExtension></extensions>
      </trkpt>
      <trkpt lat="59.104152" lon="17.37291">
        <ele>44.4</ele>
        <time>2020-03-26T12:33:20Z</time>
        <extensions><gpxtpx:TrackPointExtension><gpxtpx:hr>150</gpxtpx:hr></gpxtpx:TrackPointExtension></extensions>
      </trkpt>
      <trkpt lat="59.10419" lon="17.372908">
        <ele>44.6</ele>
        <time>2020-03-26T12:33:21Z</time>
        <extensions><gpxtpx:TrackPointExtension><gpxtpx:hr>151</gpxtpx:hr></gpxtpx:TrackPointExtension></extensions>
      </trkpt>
      <trkpt lat="59.104236" lon="17.37291">
        <ele>44.8</ele>
        <time>2020-03-26T12:33:22Z</time>
        <extensions><gpxtpx:TrackPointExtension><gpxtpx:hr>151</gpxtpx:hr></gpxtpx:TrackPointExtension></extensions>
      </trkpt>
      <trkpt lat="59.104281" lon="17.37291">
        <ele>45.6</ele>
        <time>2020-03-26T12:33:23Z</time>
        <extensions><gpxtpx:TrackPointExtension><gpxtpx:hr>152</gpxtpx:hr></gpxtpx:TrackPointExtension></extensions>
      </trkpt>
      <trkpt lat="59.104329" lon="17.372911">
        <ele>46</ele>
        <time>2020-03-26T12:33:24Z</time>
        <extensions><gpxtpx:TrackPointExtension><gpxtpx:hr>153</gpxtpx:hr></gpxtpx:TrackPointExtension></extensions>
      </trkpt>
      <trkpt lat="59.10437" lon="17.372914">
        <ele>46.4</ele>
        <time>2020-03-26T12:33:25Z</time>
        <extensions><gpxtpx:TrackPointExtension><gpxtpx:hr>153</gpxtpx:hr></gpxtpx:TrackPointExtension></extensions>
      </trkpt>
      <trkpt lat="59.104407" lon="17.372916">
        <ele>46.8</ele>
        <time>2020-03-26T12:33:26Z</time>
        <extensions><gpxtpx:TrackPointExtension><gpxtpx:hr>154</gpxtpx:hr></gpxtpx:TrackPointExtension></extensions>
      </trkpt>
      <trkpt lat="59.104443" lon="17.372924">
        <ele>47.2</ele>
        <time>2020-03-26T12:33:27Z</time>
        <extensions><gpxtpx:TrackPointExtension><gpxtpx:hr>154</gpxtpx:hr></gpxtpx:TrackPointExtension></extensions>
      </trkpt>
      <trkpt lat="59.104481" lon="17.372936">
        <ele>47.4</ele>
        <time>2020-03-26T12:33:28Z</time>
        <extensions><gpxtpx:TrackPointExtension><gpxtpx:hr>154</gpxtpx:hr></gpxtpx:TrackPointExtension></extensions>
      </trkpt>
      <trkpt lat="59.104522" lon="17.372953">
        <ele>48</ele>
        <time>2020-03-26T12:33:29Z</time>
        <extensions><gpxtpx:TrackPointExtension><gpxtpx:hr>155</gpxtpx:hr></gpxtpx:TrackPointExtension></extensions>
      </trkpt>
      <trkpt lat="59.104572" lon="17.372968">
        <ele>48.2</ele>
        <time>2020-03-26T12:33:30Z</time>
        <extensions><gpxtpx:TrackPointExtension><gpxtpx:hr>155</gpxtpx:hr></gpxtpx:TrackPointExtension></extensions>
      </trkpt>
      <trkpt lat="59.104607" lon="17.372993">
        <ele>48.6</ele>
        <time>2020-03-26T12:33:31Z</time>
        <extensions><gpxtpx:TrackPointExtension><gpxtpx:hr>155</gpxtpx:hr></gpxtpx:TrackPointExtension></extensions>
      </trkpt>
      <trkpt lat="59.104637" lon="17.373025">
        <ele>48.8</ele>
        <time>2020-03-26T12:33:32Z</time>
        <extensions><gpxtpx:TrackPointExtension><gpxtpx:hr>156</gpxtpx:hr></gpxtpx:TrackPointExtension></extensions>
      </trkpt>
      <trkpt lat="59.104669" lon="17.373062">
        <ele>49.2</ele>
        <time>2020-03-26T12:33:33Z</time>
        <extensions><gpxtpx:TrackPointExtension><gpxtpx:hr>156</gpxtpx:hr></gpxtpx:TrackPointExtension></extensions>
      </trkpt>
      <trkpt lat="59.104698" lon="17.373109">
        <ele>49.4</ele>
        <time>2020-03-26T12:33:34Z</time>
        <extensions><gpxtpx:TrackPointExtension><gpxtpx:hr>157</gpxtpx:hr></gpxtpx:TrackPointExtension></extensions>
      </trkpt>
      <trkpt lat="59.104737" lon="17.373154">
        <ele>49.8</ele>
        <time>2020-03-26T12:33:35Z</time>
        <extensions><gpxtpx:TrackPointExtension><gpxtpx:hr>157</gpxtpx:hr></gpxtpx:TrackPointExtension></extensions>
      </trkpt>
      <trkpt lat="59.104769" lon="17.373203">
        <ele>50</ele>
        <time>2020-03-26T12:33:36Z</time>
        <extensions><gpxtpx:TrackPointExtension><gpxtpx:hr>157</gpxtpx:hr></gpxtpx:TrackPointExtension></extensions>
      </trkpt>
      <trkpt lat="59.104798" lon="17.373255">
        <ele>50.2</ele>
        <time>2020-03-26T12:33:37Z</time>
        <extensions><gpxtpx:TrackPointExtension><gpxtpx:hr>158</gpxtpx:hr></gpxtpx:TrackPointExtension></extensions>
      </trkpt>
      <trkpt lat="59.10483" lon="17.373309">
        <ele>50.6</ele>
        <time>2020-03-26T12:33:38Z</time>
        <extensions><gpxtpx:TrackPointExtension><gpxtpx:hr>158</gpxtpx:hr></gpxtpx:TrackPointExtension></extensions>
      </trkpt>
      <trkpt lat="59.104861" lon="17.373363">
        <ele>51</ele>
        <time>2020-03-26T12:33:39Z</time>
        <extensions><gpxtpx:TrackPointExtension><gpxtpx:hr>159</gpxtpx:hr></gpxtpx:TrackPointExtension></extensions>
      </trkpt>
      <trkpt lat="59.104887" lon="17.37342">
        <ele>51.4</ele>
        <time>2020-03-26T12:33:40Z</time>
        <extensions><gpxtpx:TrackPointExtension><gpxtpx:hr>160</gpxtpx:hr></gpxtpx:TrackPointExtension></extensions>
      </trkpt>
      <trkpt lat="59.104913" lon="17.37348">
        <ele>51.8</ele>
        <time>2020-03-26T12:33:41Z</time>
        <extensions><gpxtpx:TrackPointExtension><gpxtpx:hr>160</gpxtpx:hr></gpxtpx:TrackPointExtension></extensions>
      </trkpt>
      <trkpt lat="59.104933" lon="17.373548">
        <ele>52.2</ele>
        <time>2020-03-26T12:33:42Z</time>
        <extensions><gpxtpx:TrackPointExtension><gpxtpx:hr>160</gpxtpx:hr></gpxtpx:TrackPointExtension></extensions>
      </trkpt>
      <trkpt lat="59.104956" lon="17.373616">
        <ele>52.4</ele>
        <time>2020-03-26T12:33:43Z</time>
        <extensions><gpxtpx:TrackPointExtension><gpxtpx:hr>161</gpxtpx:hr></gpxtpx:TrackPointExtension></extensions>
      </trkpt>
      <trkpt lat="59.104978" lon="17.373681">
        <ele>52.6</ele>
        <time>2020-03-26T12:33:44Z</time>
        <extensions><gpxtpx:TrackPointExtension><gpxtpx:hr>161</gpxtpx:hr></gpxtpx:TrackPointExtension></extensions>
      </trkpt>
      <trkpt lat="59.104998" lon="17.373745">
        <ele>53</ele>
        <time>2020-03-26T12:33:45Z</time>
        <extensions><gpxtpx:TrackPointExtension><gpxtpx:hr>162</gpxtpx:hr></gpxtpx:TrackPointExtension></extensions>
      </trkpt>
      <trkpt lat="59.105015" lon="17.373812">
        <ele>53.4</ele>
        <time>2020-03-26T12:33:46Z</time>
        <extensions><gpxtpx:TrackPointExtension><gpxtpx:hr>162</gpxtpx:hr></gpxtpx:TrackPointExtension></extensions>
      </trkpt>
      <trkpt lat="59.105033" lon="17.373885">
        <ele>53.6</ele>
        <time>2020-03-26T12:33:47Z</time>
        <extensions><gpxtpx:TrackPointExtension><gpxtpx:hr>163</gpxtpx:hr></gpxtpx:TrackPointExtension></extensions>
      </trkpt>
      <trkpt lat="59.105052" lon="17.373958">
        <ele>54</ele>
        <time>2020-03-26T12:33:48Z</time>
        <extensions><gpxtpx:TrackPointExtension><gpxtpx:hr>163</gpxtpx:hr></gpxtpx:TrackPointExtension></extensions>
      </trkpt>
      <trkpt lat="59.10507" lon="17.37403">
        <ele>54.4</ele>
        <time>2020-03-26T12:33:49Z</time>
        <extensions><gpxtpx:TrackPointExtension><gpxtpx:hr>163</gpxtpx:hr></gpxtpx:TrackPointExtension></extensions>
      </trkpt>
      <trkpt lat="59.105086" lon="17.374105">
        <ele>54.6</ele>
        <time>2020-03-26T12:33:50Z</time>
        <extensions><gpxtpx:TrackPointExtension><gpxtpx:hr>164</gpxtpx:hr></gpxtpx:TrackPointExtension></extensions>
      </trkpt>
      <trkpt lat="59.105104" lon="17.374178">
        <ele>55.2</ele>
        <time>2020-03-26T12:33:51Z</time>
        <extensions><gpxtpx:TrackPointExtension><gpxtpx:hr>164</gpxtpx:hr></gpxtpx:TrackPointExtension></extensions>
      </trkpt>
      <trkpt lat="59.105127" lon="17.37426">
        <ele>55.6</ele>
        <time>2020-03-26T12:33:52Z</time>
        <extensions><gpxtpx:TrackPointExtension><gpxtpx:hr>164</gpxtpx:hr></gpxtpx:TrackPointExtension></extensions>
      </trkpt>
      <trkpt lat="59.105151" lon="17.374335">
        <ele>55.8</ele>
        <time>2020-03-26T12:33:53Z</time>
        <extensions><gpxtpx:TrackPointExtension><gpxtpx:hr>164</gpxtpx:hr></gpxtpx:TrackPointExtension></extensions>
      </trkpt>
      <trkpt lat="59.105176" lon="17.374414">
        <ele>56</ele>
        <time>2020-03-26T12:33:54Z</time>
        <extensions><gpxtpx:TrackPointExtension><gpxtpx:hr>165</gpxtpx:hr></gpxtpx:TrackPointExtension></extensions>
      </trkpt>
      <trkpt lat="59.105202" lon="17.374489">
        <ele>56.2</ele>
        <time>2020-03-26T12:33:55Z</time>
        <extensions><gpxtpx:TrackPointExtension><gpxtpx:hr>165</gpxtpx:hr></gpxtpx:TrackPointExtension></extensions>
      </trkpt>
      <trkpt lat="59.105228" lon="17.374565">
        <ele>56.4</ele>
        <time>2020-03-26T12:33:56Z</time>
        <extensions><gpxtpx:TrackPointExtension><gpxtpx:hr>165</gpxtpx:hr></gpxtpx:TrackPointExtension></extensions>
      </trkpt>
      <trkpt lat="59.105259" lon="17.374643">
        <ele>56.6</ele>
        <time>2020-03-26T12:33:57Z</time>
        <extensions><gpxtpx:TrackPointExtension><gpxtpx:hr>165</gpxtpx:hr></gpxtpx:TrackPointExtension></extensions>
      </trkpt>
      <trkpt lat="59.105291" lon="17.374726">
        <ele>56.8</ele>
        <time>2020-03-26T12:33:58Z</time>
        <extensions><gpxtpx:TrackPointExtension><gpxtpx:hr>165</gpxtpx:hr></gpxtpx:TrackPointExtension></extensions>
      </trkpt>
      <trkpt lat="59.105328" lon="17.374805">
        <ele>56.8</ele>
        <time>2020-03-26T12:33:59Z</time>
        <extensions><gpxtpx:TrackPointExtension><gpxtpx:hr>165</gpxtpx:hr></gpxtpx:TrackPointExtension></extensions>
      </trkpt>
      <trkpt lat="59.105371" lon="17.37488">
        <ele>56.8</ele>
        <time>2020-03-26T12:34:00Z</time>
        <extensions><gpxtpx:TrackPointExtension><gpxtpx:hr>165</gpxtpx:hr></gpxtpx:TrackPointExtension></extensions>
      </trkpt>
      <trkpt lat="59.105415" lon="17.374952">
        <ele>57</ele>
        <time>2020-03-26T12:34:01Z</time>
        <extensions><gpxtpx:TrackPointExtension><gpxtpx:hr>165</gpxtpx:hr></gpxtpx:TrackPointExtension></extensions>
      </trkpt>
      <trkpt lat="59.10546" lon="17.375026">
        <ele>57</ele>
        <time>2020-03-26T12:34:02Z</time>
        <extensions><gpxtpx:TrackPointExtension><gpxtpx:hr>164</gpxtpx:hr></gpxtpx:TrackPointExtension></extensions>
      </trkpt>
      <trkpt lat="59.105505" lon="17.375097">
        <ele>57</ele>
        <time>2020-03-26T12:34:03Z</time>
        <extensions><gpxtpx:TrackPointExtension><gpxtpx:hr>164</gpxtpx:hr></gpxtpx:TrackPointExtension></extensions>
      </trkpt>
      <trkpt lat="59.105552" lon="17.375167">
        <ele>57</ele>
        <time>2020-03-26T12:34:04Z</time>
        <extensions><gpxtpx:TrackPointExtension><gpxtpx:hr>164</gpxtpx:hr></gpxtpx:TrackPointExtension></extensions>
      </trkpt>
      <trkpt lat="59.105598" lon="17.375231">
        <ele>57</ele>
        <time>2020-03-26T12:34:05Z</time>
        <extensions><gpxtpx:TrackPointExtension><gpxtpx:hr>164</gpxtpx:hr></gpxtpx:TrackPointExtension></extensions>
      </trkpt>
      <trkpt lat="59.105643" lon="17.375293">
        <ele>57</ele>
        <time>2020-03-26T12:34:06Z</time>
        <extensions><gpxtpx:TrackPointExtension><gpxtpx:hr>163</gpxtpx:hr></gpxtpx:TrackPointExtension></extensions>
      </trkpt>
      <trkpt lat="59.10569" lon="17.375351">
        <ele>57</ele>
        <time>2020-03-26T12:34:07Z</time>
        <extensions><gpxtpx:TrackPointExtension><gpxtpx:hr>163</gpxtpx:hr></gpxtpx:TrackPointExtension></extensions>
      </trkpt>
      <trkpt lat="59.10574" lon="17.375405">
        <ele>57</ele>
        <time>2020-03-26T12:34:08Z</time>
        <extensions><gpxtpx:TrackPointExtension><gpxtpx:hr>163</gpxtpx:hr></gpxtpx:TrackPointExtension></extensions>
      </trkpt>
      <trkpt lat="59.10579" lon="17.375454">
        <ele>57</ele>
        <time>2020-03-26T12:34:09Z</time>
        <extensions><gpxtpx:TrackPointExtension><gpxtpx:hr>162</gpxtpx:hr></gpxtpx:TrackPointExtension></extensions>
      </trkpt>
      <trkpt lat="59.105843" lon="17.375507">
        <ele>56.8</ele>
        <time>2020-03-26T12:34:10Z</time>
        <extensions><gpxtpx:TrackPointExtension><gpxtpx:hr>161</gpxtpx:hr></gpxtpx:TrackPointExtension></extensions>
      </trkpt>
      <trkpt lat="59.105896" lon="17.375564">
        <ele>56.8</ele>
        <time>2020-03-26T12:34:11Z</time>
        <extensions><gpxtpx:TrackPointExtension><gpxtpx:hr>161</gpxtpx:hr></gpxtpx:TrackPointExtension></extensions>
      </trkpt>
      <trkpt lat="59.105949" lon="17.375624">
        <ele>56.8</ele>
        <time>2020-03-26T12:34:12Z</time>
        <extensions><gpxtpx:TrackPointExtension><gpxtpx:hr>161</gpxtpx:hr></gpxtpx:TrackPointExtension></extensions>
      </trkpt>
      <trkpt lat="59.106004" lon="17.375688">
        <ele>56.8</ele>
        <time>2020-03-26T12:34:13Z</time>
        <extensions><gpxtpx:TrackPointExtension><gpxtpx:hr>160</gpxtpx:hr></gpxtpx:TrackPointExtension></extensions>
      </trkpt>
      <trkpt lat="59.106054" lon="17.37575">
        <ele>56.8</ele>
        <time>2020-03-26T12:34:14Z</time>
        <extensions><gpxtpx:TrackPointExtension><gpxtpx:hr>160</gpxtpx:hr></gpxtpx:TrackPointExtension></extensions>
      </trkpt>
      <trkpt lat="59.106108" lon="17.375807">
        <ele>56.8</ele>
        <time>2020-03-26T12:34:15Z</time>
        <extensions><gpxtpx:TrackPointExtension><gpxtpx:hr>160</gpxtpx:hr></gpxtpx:TrackPointExtension></extensions>
      </trkpt>
      <trkpt lat="59.106163" lon="17.375864">
        <ele>56.8</ele>
        <time>2020-03-26T12:34:16Z</time>
        <extensions><gpxtpx:TrackPointExtension><gpxtpx:hr>159</gpxtpx:hr></gpxtpx:TrackPointExtension></extensions>
      </trkpt>
      <trkpt lat="59.106219" lon="17.375924">
        <ele>56.8</ele>
        <time>2020-03-26T12:34:17Z</time>
        <extensions><gpxtpx:TrackPointExtension><gpxtpx:hr>159</gpxtpx:hr></gpxtpx:TrackPointExtension></extensions>
      </trkpt>
      <trkpt lat="59.106277" lon="17.375991">
        <ele>56.8</ele>
        <time>2020-03-26T12:34:18Z</time>
        <extensions><gpxtpx:TrackPointExtension><gpxtpx:hr>158</gpxtpx:hr></gpxtpx:TrackPointExtension></extensions>
      </trkpt>
      <trkpt lat="59.106334" lon="17.376062">
        <ele>56.8</ele>
        <time>2020-03-26T12:34:19Z</time>
        <extensions><gpxtpx:TrackPointExtension><gpxtpx:hr>158</gpxtpx:hr></gpxtpx:TrackPointExtension></extensions>
      </trkpt>
      <trkpt lat="59.106392" lon="17.376135">
        <ele>56.8</ele>
        <time>2020-03-26T12:34:20Z</time>
        <extensions><gpxtpx:TrackPointExtension><gpxtpx:hr>157</gpxtpx:hr></gpxtpx:TrackPointExtension></extensions>
      </trkpt>
      <trkpt lat="59.106455" lon="17.376206">
        <ele>56.8</ele>
        <time>2020-03-26T12:34:21Z</time>
        <extensions><gpxtpx:TrackPointExtension><gpxtpx:hr>157</gpxtpx:hr></gpxtpx:TrackPointExtension></extensions>
      </trkpt>
      <trkpt lat="59.106522" lon="17.37628">
        <ele>56.8</ele>
        <time>2020-03-26T12:34:22Z</time>
        <extensions><gpxtpx:TrackPointExtension><gpxtpx:hr>156</gpxtpx:hr></gpxtpx:TrackPointExtension></extensions>
      </trkpt>
      <trkpt lat="59.106587" lon="17.376357">
        <ele>56.8</ele>
        <time>2020-03-26T12:34:23Z</time>
        <extensions><gpxtpx:TrackPointExtension><gpxtpx:hr>155</gpxtpx:hr></gpxtpx:TrackPointExtension></extensions>
      </trkpt>
      <trkpt lat="59.106655" lon="17.376436">
        <ele>56.8</ele>
        <time>2020-03-26T12:34:24Z</time>
        <extensions><gpxtpx:TrackPointExtension><gpxtpx:hr>154</gpxtpx:hr></gpxtpx:TrackPointExtension></extensions>
      </trkpt>
      <trkpt lat="59.106724" lon="17.376518">
        <ele>56.6</ele>
        <time>2020-03-26T12:34:25Z</time>
        <extensions><gpxtpx:TrackPointExtension><gpxtpx:hr>153</gpxtpx:hr></gpxtpx:TrackPointExtension></extensions>
      </trkpt>
      <trkpt lat="59.106794" lon="17.3766">
        <ele>56.6</ele>
        <time>2020-03-26T12:34:26Z</time>
        <extensions><gpxtpx:TrackPointExtension><gpxtpx:hr>152</gpxtpx:hr></gpxtpx:TrackPointExtension></extensions>
      </trkpt>
      <trkpt lat="59.106866" lon="17.376681">
        <ele>56.6</ele>
        <time>2020-03-26T12:34:27Z</time>
        <extensions><gpxtpx:TrackPointExtension><gpxtpx:hr>151</gpxtpx:hr></gpxtpx:TrackPointExtension></extensions>
      </trkpt>
      <trkpt lat="59.106936" lon="17.376764">
        <ele>56.6</ele>
        <time>2020-03-26T12:34:28Z</time>
        <extensions><gpxtpx:TrackPointExtension><gpxtpx:hr>150</gpxtpx:hr></gpxtpx:TrackPointExtension></extensions>
      </trkpt>
      <trkpt lat="59.107008" lon="17.376841">
        <ele>56.4</ele>
        <time>2020-03-26T12:34:29Z</time>
        <extensions><gpxtpx:TrackPointExtension><gpxtpx:hr>147</gpxtpx:hr></gpxtpx:TrackPointExtension></extensions>
      </trkpt>
      <trkpt lat="59.107081" lon="17.376909">
        <ele>56</ele>
        <time>2020-03-26T12:34:30Z</time>
        <extensions><gpxtpx:TrackPointExtension><gpxtpx:hr>146</gpxtpx:hr></gpxtpx:TrackPointExtension></extensions>
      </trkpt>
      <trkpt lat="59.107167" lon="17.376962">
        <ele>55.4</ele>
        <time>2020-03-26T12:34:31Z</time>
        <extensions><gpxtpx:TrackPointExtension><gpxtpx:hr>145</gpxtpx:hr></gpxtpx:TrackPointExtension></extensions>
      </trkpt>
      <trkpt lat="59.107244" lon="17.377009">
        <ele>54.8</ele>
        <time>2020-03-26T12:34:32Z</time>
        <extensions><gpxtpx:TrackPointExtension><gpxtpx:hr>142</gpxtpx:hr></gpxtpx:TrackPointExtension></extensions>
      </trkpt>
      <trkpt lat="59.107321" lon="17.377045">
        <ele>54.2</ele>
        <time>2020-03-26T12:34:33Z</time>
        <extensions><gpxtpx:TrackPointExtension><gpxtpx:hr>142</gpxtpx:hr></gpxtpx:TrackPointExtension></extensions>
      </trkpt>
      <trkpt lat="59.107394" lon="17.377078">
        <ele>53.8</ele>
        <time>2020-03-26T12:34:34Z</time>
        <extensions><gpxtpx:TrackPointExtension><gpxtpx:hr>141</gpxtpx:hr></gpxtpx:TrackPointExtension></extensions>
      </trkpt>
      <trkpt lat="59.107473" lon="17.377105">
        <ele>53.6</ele>
        <time>2020-03-26T12:34:35Z</time>
        <extensions><gpxtpx:TrackPointExtension><gpxtpx:hr>141</gpxtpx:hr></gpxtpx:TrackPointExtension></extensions>
      </trkpt>
      <trkpt lat="59.10755" lon="17.377131">
        <ele>53.2</ele>
        <time>2020-03-26T12:34:36Z</time>
        <extensions><gpxtpx:TrackPointExtension><gpxtpx:hr>141</gpxtpx:hr></gpxtpx:TrackPointExtension></extensions>
      </trkpt>
      <trkpt lat="59.107634" lon="17.377162">
        <ele>53</ele>
        <time>2020-03-26T12:34:37Z</time>
        <extensions><gpxtpx:TrackPointExtension><gpxtpx:hr>140</gpxtpx:hr></gpxtpx:TrackPointExtension></extensions>
      </trkpt>
      <trkpt lat="59.107734" lon="17.377205">
        <ele>52.8</ele>
        <time>2020-03-26T12:34:38Z</time>
        <extensions><gpxtpx:TrackPointExtension><gpxtpx:hr>140</gpxtpx:hr></gpxtpx:TrackPointExtension></extensions>
      </trkpt>
      <trkpt lat="59.107829" lon="17.377272">
        <ele>52.4</ele>
        <time>2020-03-26T12:34:39Z</time>
        <extensions><gpxtpx:TrackPointExtension><gpxtpx:hr>140</gpxtpx:hr></gpxtpx:TrackPointExtension></extensions>
      </trkpt>
      <trkpt lat="59.107914" lon="17.377364">
        <ele>52</ele>
        <time>2020-03-26T12:34:40Z</time>
        <extensions><gpxtpx:TrackPointExtension><gpxtpx:hr>139</gpxtpx:hr></gpxtpx:TrackPointExtension></extensions>
      </trkpt>
      <trkpt lat="59.107986" lon="17.377474">
        <ele>51.8</ele>
        <time>2020-03-26T12:34:41Z</time>
        <extensions><gpxtpx:TrackPointExtension><gpxtpx:hr>138</gpxtpx:hr></gpxtpx:TrackPointExtension></extensions>
      </trkpt>
      <trkpt lat="59.108036" lon="17.377604">
        <ele>51.8</ele>
        <time>2020-03-26T12:34:42Z</time>
        <extensions><gpxtpx:TrackPointExtension><gpxtpx:hr>137</gpxtpx:hr></gpxtpx:TrackPointExtension></extensions>
      </trkpt>
      <trkpt lat="59.108074" lon="17.377738">
        <ele>51.4</ele>
        <time>2020-03-26T12:34:43Z</time>
        <extensions><gpxtpx:TrackPointExtension><gpxtpx:hr>136</gpxtpx:hr></gpxtpx:TrackPointExtension></extensions>
      </trkpt>
      <trkpt lat="59.108109" lon="17.377878">
        <ele>51.2</ele>
        <time>2020-03-26T12:34:44Z</time>
        <extensions><gpxtpx:TrackPointExtension><gpxtpx:hr>136</gpxtpx:hr></gpxtpx:TrackPointExtension></extensions>
      </trkpt>
      <trkpt lat="59.108136" lon="17.378017">
        <ele>51</ele>
        <time>2020-03-26T12:34:45Z</time>
        <extensions><gpxtpx:TrackPointExtension><gpxtpx:hr>137</gpxtpx:hr></gpxtpx:TrackPointExtension></extensions>
      </trkpt>
      <trkpt lat="59.108161" lon="17.378157">
        <ele>50.8</ele>
        <time>2020-03-26T12:34:46Z</time>
        <extensions><gpxtpx:TrackPointExtension><gpxtpx:hr>138</gpxtpx:hr></gpxtpx:TrackPointExtension></extensions>
      </trkpt>
      <trkpt lat="59.108186" lon="17.378301">
        <ele>50.8</ele>
        <time>2020-03-26T12:34:47Z</time>
        <extensions><gpxtpx:TrackPointExtension><gpxtpx:hr>138</gpxtpx:hr></gpxtpx:TrackPointExtension></extensions>
      </trkpt>
      <trkpt lat="59.108211" lon="17.378451">
        <ele>50.6</ele>
        <time>2020-03-26T12:34:48Z</time>
        <extensions><gpxtpx:TrackPointExtension><gpxtpx:hr>139</gpxtpx:hr></gpxtpx:TrackPointExtension></extensions>
      </trkpt>
      <trkpt lat="59.108235" lon="17.378612">
        <ele>50.6</ele>
        <time>2020-03-26T12:34:49Z</time>
        <extensions><gpxtpx:TrackPointExtension><gpxtpx:hr>139</gpxtpx:hr></gpxtpx:TrackPointExtension></extensions>
      </trkpt>
      <trkpt lat="59.108258" lon="17.37878">
        <ele>50.4</ele>
        <time>2020-03-26T12:34:50Z</time>
        <extensions><gpxtpx:TrackPointExtension><gpxtpx:hr>139</gpxtpx:hr></gpxtpx:TrackPointExtension></extensions>
      </trkpt>
      <trkpt lat="59.108282" lon="17.378956">
        <ele>50.2</ele>
        <time>2020-03-26T12:34:51Z</time>
        <extensions><gpxtpx:TrackPointExtension><gpxtpx:hr>139</gpxtpx:hr></gpxtpx:TrackPointExtension></extensions>
      </trkpt>
      <trkpt lat="59.108307" lon="17.379132">
        <ele>50</ele>
        <time>2020-03-26T12:34:52Z</time>
        <extensions><gpxtpx:TrackPointExtension><gpxtpx:hr>139</gpxtpx:hr></gpxtpx:TrackPointExtension></extensions>
      </trkpt>
      <trkpt lat="59.108331" lon="17.379309">
        <ele>50</ele>
        <time>2020-03-26T12:34:53Z</time>
        <extensions><gpxtpx:TrackPointExtension><gpxtpx:hr>139</gpxtpx:hr></gpxtpx:TrackPointExtension></extensions>
      </trkpt>
      <trkpt lat="59.10836" lon="17.379476">
        <ele>49.8</ele>
        <time>2020-03-26T12:34:54Z</time>
        <extensions><gpxtpx:TrackPointExtension><gpxtpx:hr>138</gpxtpx:hr></gpxtpx:TrackPointExtension></extensions>
      </trkpt>
      <trkpt lat="59.108385" lon="17.379652">
        <ele>49.6</ele>
        <time>2020-03-26T12:34:55Z</time>
        <extensions><gpxtpx:TrackPointExtension><gpxtpx:hr>138</gpxtpx:hr></gpxtpx:TrackPointExtension></extensions>
      </trkpt>
      <trkpt lat="59.108411" lon="17.379825">
        <ele>49.4</ele>
        <time>2020-03-26T12:34:56Z</time>
        <extensions><gpxtpx:TrackPointExtension><gpxtpx:hr>137</gpxtpx:hr></gpxtpx:TrackPointExtension></extensions>
      </trkpt>
      <trkpt lat="59.10844" lon="17.379985">
        <ele>49</ele>
        <time>2020-03-26T12:34:57Z</time>
        <extensions><gpxtpx:TrackPointExtension><gpxtpx:hr>135</gpxtpx:hr></gpxtpx:TrackPointExtension></extensions>
      </trkpt>
      <trkpt lat="59.108471" lon="17.380143">
        <ele>48.4</ele>
        <time>2020-03-26T12:34:58Z</time>
        <extensions><gpxtpx:TrackPointExtension><gpxtpx:hr>134</gpxtpx:hr></gpxtpx:TrackPointExtension></extensions>
      </trkpt>
      <trkpt lat="59.108504" lon="17.380284">
        <ele>48</ele>
        <time>2020-03-26T12:34:59Z</time>
        <extensions><gpxtpx:TrackPointExtension><gpxtpx:hr>132</gpxtpx:hr></gpxtpx:TrackPointExtension></extensions>
      </trkpt>
      <trkpt lat="59.108533" lon="17.380414">
        <ele>47.8</ele>
        <time>2020-03-26T12:35:00Z</time>
        <extensions><gpxtpx:TrackPointExtension><gpxtpx:hr>132</gpxtpx:hr></gpxtpx:TrackPointExtension></extensions>
      </trkpt>
      <trkpt lat="59.108562" lon="17.380546">
        <ele>47.8</ele>
        <time>2020-03-26T12:35:01Z</time>
        <extensions><gpxtpx:TrackPointExtension><gpxtpx:hr>132</gpxtpx:hr></gpxtpx:TrackPointExtension></extensions>
      </trkpt>
      <trkpt lat="59.10859" lon="17.380671">
        <ele>47.8</ele>
        <time>2020-03-26T12:35:02Z</time>
        <extensions><gpxtpx:TrackPointExtension><gpxtpx:hr>132</gpxtpx:hr></gpxtpx:TrackPointExtension></extensions>
      </trkpt>
      <trkpt lat="59.108619" lon="17.380794">
        <ele>47.8</ele>
        <time>2020-03-26T12:35:03Z</time>
        <extensions><gpxtpx:TrackPointExtension><gpxtpx:hr>134</gpxtpx:hr></gpxtpx:TrackPointExtension></extensions>
      </trkpt>
      <trkpt lat="59.108653" lon="17.380913">
        <ele>47.8</ele>
        <time>2020-03-26T12:35:04Z</time>
        <extensions><gpxtpx:TrackPointExtension><gpxtpx:hr>135</gpxtpx:hr></gpxtpx:TrackPointExtension></extensions>
      </trkpt>
      <trkpt lat="59.108677" lon="17.381021">
        <ele>47.8</ele>
        <time>2020-03-26T12:35:05Z</time>
        <extensions><gpxtpx:TrackPointExtension><gpxtpx:hr>136</gpxtpx:hr></gpxtpx:TrackPointExtension></extensions>
      </trkpt>
      <trkpt lat="59.108701" lon="17.381123">
        <ele>47.8</ele>
        <time>2020-03-26T12:35:06Z</time>
        <extensions><gpxtpx:TrackPointExtension><gpxtpx:hr>138</gpxtpx:hr></gpxtpx:TrackPointExtension></extensions>
      </trkpt>
      <trkpt lat="59.108731" lon="17.381219">
        <ele>47.8</ele>
        <time>2020-03-26T12:35:07Z</time>
        <extensions><gpxtpx:TrackPointExtension><gpxtpx:hr>138</gpxtpx:hr></gpxtpx:TrackPointExtension></extensions>
      </trkpt>
      <trkpt lat="59.108761" lon="17.381305">
        <ele>47.8</ele>
        <time>2020-03-26T12:35:08Z</time>
        <extensions><gpxtpx:TrackPointExtension><gpxtpx:hr>138</gpxtpx:hr></gpxtpx:TrackPointExtension></extensions>
      </trkpt>
      <trkpt lat="59.108783" lon="17.381367">
        <ele>48</ele>
        <time>2020-03-26T12:35:09Z</time>
        <extensions><gpxtpx:TrackPointExtension><gpxtpx:hr>139</gpxtpx:hr></gpxtpx:TrackPointExtension></extensions>
      </trkpt>
      <trkpt lat="59.108805" lon="17.381429">
        <ele>48.4</ele>
        <time>2020-03-26T12:35:10Z</time>
        <extensions><gpxtpx:TrackPointExtension><gpxtpx:hr>139</gpxtpx:hr></gpxtpx:TrackPointExtension></extensions>
      </trkpt>
      <trkpt lat="59.108849" lon="17.381554">
        <ele>48.6</ele>
        <time>2020-03-26T12:35:11Z</time>
        <extensions><gpxtpx:TrackPointExtension><gpxtpx:hr>140</gpxtpx:hr></gpxtpx:TrackPointExtension></extensions>
      </trkpt>
      <trkpt lat="59.108875" lon="17.381632">
        <ele>49</ele>
        <time>2020-03-26T12:35:12Z</time>
        <extensions><gpxtpx:TrackPointExtension><gpxtpx:hr>141</gpxtpx:hr></gpxtpx:TrackPointExtension></extensions>
      </trkpt>
      <trkpt lat="59.108899" lon="17.381704">
        <ele>49.2</ele>
        <time>2020-03-26T12:35:13Z</time>
        <extensions><gpxtpx:TrackPointExtension><gpxtpx:hr>143</gpxtpx:hr></gpxtpx:TrackPointExtension></extensions>
      </trkpt>
      <trkpt lat="59.108925" lon="17.381771">
        <ele>49.6</ele>
        <time>2020-03-26T12:35:14Z</time>
        <extensions><gpxtpx:TrackPointExtension><gpxtpx:hr>144</gpxtpx:hr></gpxtpx:TrackPointExtension></extensions>
      </trkpt>
      <trkpt lat="59.10895" lon="17.381835">
        <ele>50</ele>
        <time>2020-03-26T12:35:15Z</time>
        <extensions><gpxtpx:TrackPointExtension><gpxtpx:hr>144</gpxtpx:hr></gpxtpx:TrackPointExtension></extensions>
      </trkpt>
      <trkpt lat="59.108977" lon="17.3819">
        <ele>50.4</ele>
        <time>2020-03-26T12:35:16Z</time>
        <extensions><gpxtpx:TrackPointExtension><gpxtpx:hr>146</gpxtpx:hr></gpxtpx:TrackPointExtension></extensions>
      </trkpt>
      <trkpt lat="59.109003" lon="17.381968">
        <ele>50.8</ele>
        <time>2020-03-26T12:35:17Z</time>
        <extensions><gpxtpx:TrackPointExtension><gpxtpx:hr>146</gpxtpx:hr></gpxtpx:TrackPointExtension></extensions>
      </trkpt>
      <trkpt lat="59.109025" lon="17.38204">
        <ele>51</ele>
        <time>2020-03-26T12:35:18Z</time>
        <extensions><gpxtpx:TrackPointExtension><gpxtpx:hr>147</gpxtpx:hr></gpxtpx:TrackPointExtension></extensions>
      </trkpt>
      <trkpt lat="59.109047" lon="17.382115">
        <ele>51.6</ele>
        <time>2020-03-26T12:35:19Z</time>
        <extensions><gpxtpx:TrackPointExtension><gpxtpx:hr>148</gpxtpx:hr></gpxtpx:TrackPointExtension></extensions>
      </trkpt>
      <trkpt lat="59.109067" lon="17.382193">
        <ele>52</ele>
        <time>2020-03-26T12:35:20Z</time>
        <extensions><gpxtpx:TrackPointExtension><gpxtpx:hr>148</gpxtpx:hr></gpxtpx:TrackPointExtension></extensions>
      </trkpt>
      <trkpt lat="59.109085" lon="17.382272">
        <ele>52.4</ele>
        <time>2020-03-26T12:35:21Z</time>
        <extensions><gpxtpx:TrackPointExtension><gpxtpx:hr>149</gpxtpx:hr></gpxtpx:TrackPointExtension></extensions>
      </trkpt>
      <trkpt lat="59.1091" lon="17.382348">
        <ele>52.8</ele>
        <time>2020-03-26T12:35:22Z</time>
        <extensions><gpxtpx:TrackPointExtension><gpxtpx:hr>149</gpxtpx:hr></gpxtpx:TrackPointExtension></extensions>
      </trkpt>
      <trkpt lat="59.109114" lon="17.382425">
        <ele>53.4</ele>
        <time>2020-03-26T12:35:23Z</time>
        <extensions><gpxtpx:TrackPointExtension><gpxtpx:hr>150</gpxtpx:hr></gpxtpx:TrackPointExtension></extensions>
      </trkpt>
      <trkpt lat="59.109123" lon="17.382504">
        <ele>53.8</ele>
        <time>2020-03-26T12:35:24Z</time>
        <extensions><gpxtpx:TrackPointExtension><gpxtpx:hr>151</gpxtpx:hr></gpxtpx:TrackPointExtension></extensions>
      </trkpt>
      <trkpt lat="59.109132" lon="17.382587">
        <ele>54.2</ele>
        <time>2020-03-26T12:35:25Z</time>
        <extensions><gpxtpx:TrackPointExtension><gpxtpx:hr>151</gpxtpx:hr></gpxtpx:TrackPointExtension></extensions>
      </trkpt>
      <trkpt lat="59.109139" lon="17.382672">
        <ele>54.6</ele>
        <time>2020-03-26T12:35:26Z</time>
        <extensions><gpxtpx:TrackPointExtension><gpxtpx:hr>152</gpxtpx:hr></gpxtpx:TrackPointExtension></extensions>
      </trkpt>
      <trkpt lat="59.109147" lon="17.382763">
        <ele>55</ele>
        <time>2020-03-26T12:35:27Z</time>
        <extensions><gpxtpx:TrackPointExtension><gpxtpx:hr>152</gpxtpx:hr></gpxtpx:TrackPointExtension></extensions>
      </trkpt>
      <trkpt lat="59.109158" lon="17.382856">
        <ele>55.2</ele>
        <time>2020-03-26T12:35:28Z</time>
        <extensions><gpxtpx:TrackPointExtension><gpxtpx:hr>152</gpxtpx:hr></gpxtpx:TrackPointExtension></extensions>
      </trkpt>
      <trkpt lat="59.109169" lon="17.382946">
        <ele>55.4</ele>
        <time>2020-03-26T12:35:29Z</time>
        <extensions><gpxtpx:TrackPointExtension><gpxtpx:hr>152</gpxtpx:hr></gpxtpx:TrackPointExtension></extensions>
      </trkpt>
      <trkpt lat="59.109181" lon="17.38304">
        <ele>55.4</ele>
        <time>2020-03-26T12:35:30Z</time>
        <extensions><gpxtpx:TrackPointExtension><gpxtpx:hr>152</gpxtpx:hr></gpxtpx:TrackPointExtension></extensions>
      </trkpt>
      <trkpt lat="59.109194" lon="17.383133">
        <ele>55.6</ele>
        <time>2020-03-26T12:35:31Z</time>
        <extensions><gpxtpx:TrackPointExtension><gpxtpx:hr>152</gpxtpx:hr></gpxtpx:TrackPointExtension></extensions>
      </trkpt>
      <trkpt lat="59.109207" lon="17.383227">
        <ele>55.6</ele>
        <time>2020-03-26T12:35:32Z</time>
        <extensions><gpxtpx:TrackPointExtension><gpxtpx:hr>153</gpxtpx:hr></gpxtpx:TrackPointExtension></extensions>
      </trkpt>
      <trkpt lat="59.109221" lon="17.383322">
        <ele>55.6</ele>
        <time>2020-03-26T12:35:33Z</time>
        <extensions><gpxtpx:TrackPointExtension><gpxtpx:hr>153</gpxtpx:hr></gpxtpx:TrackPointExtension></extensions>
      </trkpt>
      <trkpt lat="59.109234" lon="17.383413">
        <ele>55.8</ele>
        <time>2020-03-26T12:35:34Z</time>
        <extensions><gpxtpx:TrackPointExtension><gpxtpx:hr>154</gpxtpx:hr></gpxtpx:TrackPointExtension></extensions>
      </trkpt>
      <trkpt lat="59.109245" lon="17.383511">
        <ele>55.8</ele>
        <time>2020-03-26T12:35:35Z</time>
        <extensions><gpxtpx:TrackPointExtension><gpxtpx:hr>154</gpxtpx:hr></gpxtpx:TrackPointExtension></extensions>
      </trkpt>
      <trkpt lat="59.109255" lon="17.383613">
        <ele>55.8</ele>
        <time>2020-03-26T12:35:36Z</time>
        <extensions><gpxtpx:TrackPointExtension><gpxtpx:hr>154</gpxtpx:hr></gpxtpx:TrackPointExtension></extensions>
      </trkpt>
      <trkpt lat="59.109265" lon="17.383716">
        <ele>55.8</ele>
        <time>2020-03-26T12:35:37Z</time>
        <extensions><gpxtpx:TrackPointExtension><gpxtpx:hr>155</gpxtpx:hr></gpxtpx:TrackPointExtension></extensions>
      </trkpt>
      <trkpt lat="59.109274" lon="17.383824">
        <ele>55.8</ele>
        <time>2020-03-26T12:35:38Z</time>
        <extensions><gpxtpx:TrackPointExtension><gpxtpx:hr>155</gpxtpx:hr></gpxtpx:TrackPointExtension></extensions>
      </trkpt>
      <trkpt lat="59.109281" lon="17.383936">
        <ele>55.8</ele>
        <time>2020-03-26T12:35:39Z</time>
        <extensions><gpxtpx:TrackPointExtension><gpxtpx:hr>155</gpxtpx:hr></gpxtpx:TrackPointExtension></extensions>
      </trkpt>
      <trkpt lat="59.109287" lon="17.384051">
        <ele>55.8</ele>
        <time>2020-03-26T12:35:40Z</time>
        <extensions><gpxtpx:TrackPointExtension><gpxtpx:hr>155</gpxtpx:hr></gpxtpx:TrackPointExtension></extensions>
      </trkpt>
      <trkpt lat="59.10929" lon="17.384169">
        <ele>55.8</ele>
        <time>2020-03-26T12:35:41Z</time>
        <extensions><gpxtpx:TrackPointExtension><gpxtpx:hr>155</gpxtpx:hr></gpxtpx:TrackPointExtension></extensions>
      </trkpt>
      <trkpt lat="59.10929" lon="17.384289">
        <ele>55.8</ele>
        <time>2020-03-26T12:35:42Z</time>
        <extensions><gpxtpx:TrackPointExtension><gpxtpx:hr>155</gpxtpx:hr></gpxtpx:TrackPointExtension></extensions>
      </trkpt>
      <trkpt lat="59.109288" lon="17.384408">
        <ele>55.8</ele>
        <time>2020-03-26T12:35:43Z</time>
        <extensions><gpxtpx:TrackPointExtension><gpxtpx:hr>155</gpxtpx:hr></gpxtpx:TrackPointExtension></extensions>
      </trkpt>
      <trkpt lat="59.109287" lon="17.384529">
        <ele>55.8</ele>
        <time>2020-03-26T12:35:44Z</time>
        <extensions><gpxtpx:TrackPointExtension><gpxtpx:hr>155</gpxtpx:hr></gpxtpx:TrackPointExtension></extensions>
      </trkpt>
      <trkpt lat="59.109286" lon="17.384652">
        <ele>55.8</ele>
        <time>2020-03-26T12:35:45Z</time>
        <extensions><gpxtpx:TrackPointExtension><gpxtpx:hr>155</gpxtpx:hr></gpxtpx:TrackPointExtension></extensions>
      </trkpt>
      <trkpt lat="59.109285" lon="17.384775">
        <ele>55.8</ele>
        <time>2020-03-26T12:35:46Z</time>
        <extensions><gpxtpx:TrackPointExtension><gpxtpx:hr>154</gpxtpx:hr></gpxtpx:TrackPointExtension></extensions>
      </trkpt>
      <trkpt lat="59.109282" lon="17.38489">
        <ele>55.8</ele>
        <time>2020-03-26T12:35:47Z</time>
        <extensions><gpxtpx:TrackPointExtension><gpxtpx:hr>154</gpxtpx:hr></gpxtpx:TrackPointExtension></extensions>
      </trkpt>
      <trkpt lat="59.109279" lon="17.384999">
        <ele>55.8</ele>
        <time>2020-03-26T12:35:48Z</time>
        <extensions><gpxtpx:TrackPointExtension><gpxtpx:hr>154</gpxtpx:hr></gpxtpx:TrackPointExtension></extensions>
      </trkpt>
      <trkpt lat="59.109278" lon="17.385106">
        <ele>55.8</ele>
        <time>2020-03-26T12:35:49Z</time>
        <extensions><gpxtpx:TrackPointExtension><gpxtpx:hr>153</gpxtpx:hr></gpxtpx:TrackPointExtension></extensions>
      </trkpt>
      <trkpt lat="59.109277" lon="17.38521">
        <ele>55.8</ele>
        <time>2020-03-26T12:35:50Z</time>
        <extensions><gpxtpx:TrackPointExtension><gpxtpx:hr>153</gpxtpx:hr></gpxtpx:TrackPointExtension></extensions>
      </trkpt>
      <trkpt lat="59.109274" lon="17.385308">
        <ele>56</ele>
        <time>2020-03-26T12:35:51Z</time>
        <extensions><gpxtpx:TrackPointExtension><gpxtpx:hr>153</gpxtpx:hr></gpxtpx:TrackPointExtension></extensions>
      </trkpt>
      <trkpt lat="59.109271" lon="17.385404">
        <ele>56</ele>
        <time>2020-03-26T12:35:52Z</time>
        <extensions><gpxtpx:TrackPointExtension><gpxtpx:hr>152</gpxtpx:hr></gpxtpx:TrackPointExtension></extensions>
      </trkpt>
      <trkpt lat="59.109266" lon="17.385495">
        <ele>56.2</ele>
        <time>2020-03-26T12:35:53Z</time>
        <extensions><gpxtpx:TrackPointExtension><gpxtpx:hr>152</gpxtpx:hr></gpxtpx:TrackPointExtension></extensions>
      </trkpt>
      <trkpt lat="59.109258" lon="17.38558">
        <ele>56.4</ele>
        <time>2020-03-26T12:35:54Z</time>
        <extensions><gpxtpx:TrackPointExtension><gpxtpx:hr>152</gpxtpx:hr></gpxtpx:TrackPointExtension></extensions>
      </trkpt>
      <trkpt lat="59.109247" lon="17.385659">
        <ele>56.6</ele>
        <time>2020-03-26T12:35:55Z</time>
        <extensions><gpxtpx:TrackPointExtension><gpxtpx:hr>152</gpxtpx:hr></gpxtpx:TrackPointExtension></extensions>
      </trkpt>
      <trkpt lat="59.109232" lon="17.385734">
        <ele>56.4</ele>
        <time>2020-03-26T12:35:56Z</time>
        <extensions><gpxtpx:TrackPointExtension><gpxtpx:hr>152</gpxtpx:hr></gpxtpx:TrackPointExtension></extensions>
      </trkpt>
      <trkpt lat="59.109215" lon="17.3858">
        <ele>56.6</ele>
        <time>2020-03-26T12:35:57Z</time>
        <extensions><gpxtpx:TrackPointExtension><gpxtpx:hr>152</gpxtpx:hr></gpxtpx:TrackPointExtension></extensions>
      </trkpt>
      <trkpt lat="59.109192" lon="17.385861">
        <ele>57</ele>
        <time>2020-03-26T12:35:58Z</time>
        <extensions><gpxtpx:TrackPointExtension><gpxtpx:hr>152</gpxtpx:hr></gpxtpx:TrackPointExtension></extensions>
      </trkpt>
      <trkpt lat="59.109167" lon="17.385925">
        <ele>57.4</ele>
        <time>2020-03-26T12:35:59Z</time>
        <extensions><gpxtpx:TrackPointExtension><gpxtpx:hr>152</gpxtpx:hr></gpxtpx:TrackPointExtension></extensions>
      </trkpt>
      <trkpt lat="59.109139" lon="17.385979">
        <ele>57.8</ele>
        <time>2020-03-26T12:36:00Z</time>
        <extensions><gpxtpx:TrackPointExtension><gpxtpx:hr>152</gpxtpx:hr></gpxtpx:TrackPointExtension></extensions>
      </trkpt>
      <trkpt lat="59.109108" lon="17.386029">
        <ele>58</ele>
        <time>2020-03-26T12:36:01Z</time>
        <extensions><gpxtpx:TrackPointExtension><gpxtpx:hr>152</gpxtpx:hr></gpxtpx:TrackPointExtension></extensions>
      </trkpt>
      <trkpt lat="59.109075" lon="17.38607">
        <ele>58.4</ele>
        <time>2020-03-26T12:36:02Z</time>
        <extensions><gpxtpx:TrackPointExtension><gpxtpx:hr>153</gpxtpx:hr></gpxtpx:TrackPointExtension></extensions>
      </trkpt>
      <trkpt lat="59.109038" lon="17.386113">
        <ele>58.6</ele>
        <time>2020-03-26T12:36:03Z</time>
        <extensions><gpxtpx:TrackPointExtension><gpxtpx:hr>152</gpxtpx:hr></gpxtpx:TrackPointExtension></extensions>
      </trkpt>
      <trkpt lat="59.109003" lon="17.386153">
        <ele>58.8</ele>
        <time>2020-03-26T12:36:04Z</time>
        <extensions><gpxtpx:TrackPointExtension><gpxtpx:hr>152</gpxtpx:hr></gpxtpx:TrackPointExtension></extensions>
      </trkpt>
      <trkpt lat="59.108966" lon="17.386187">
        <ele>59</ele>
        <time>2020-03-26T12:36:05Z</time>
        <extensions><gpxtpx:TrackPointExtension><gpxtpx:hr>152</gpxtpx:hr></gpxtpx:TrackPointExtension></extensions>
      </trkpt>
      <trkpt lat="59.108928" lon="17.386215">
        <ele>59.2</ele>
        <time>2020-03-26T12:36:06Z</time>
        <extensions><gpxtpx:TrackPointExtension><gpxtpx:hr>152</gpxtpx:hr></gpxtpx:TrackPointExtension></extensions>
      </trkpt>
      <trkpt lat="59.108888" lon="17.386242">
        <ele>59.4</ele>
        <time>2020-03-26T12:36:07Z</time>
        <extensions><gpxtpx:TrackPointExtension><gpxtpx:hr>153</gpxtpx:hr></gpxtpx:TrackPointExtension></extensions>
      </trkpt>
      <trkpt lat="59.108848" lon="17.38627">
        <ele>59.6</ele>
        <time>2020-03-26T12:36:08Z</time>
        <extensions><gpxtpx:TrackPointExtension><gpxtpx:hr>153</gpxtpx:hr></gpxtpx:TrackPointExtension></extensions>
      </trkpt>
      <trkpt lat="59.108809" lon="17.386295">
        <ele>59.8</ele>
        <time>2020-03-26T12:36:09Z</time>
        <extensions><gpxtpx:TrackPointExtension><gpxtpx:hr>153</gpxtpx:hr></gpxtpx:TrackPointExtension></extensions>
      </trkpt>
      <trkpt lat="59.108773" lon="17.386333">
        <ele>60</ele>
        <time>2020-03-26T12:36:10Z</time>
        <extensions><gpxtpx:TrackPointExtension><gpxtpx:hr>152</gpxtpx:hr></gpxtpx:TrackPointExtension></extensions>
      </trkpt>
      <trkpt lat="59.108737" lon="17.386365">
        <ele>60</ele>
        <time>2020-03-26T12:36:11Z</time>
        <extensions><gpxtpx:TrackPointExtension><gpxtpx:hr>152</gpxtpx:hr></gpxtpx:TrackPointExtension></extensions>
      </trkpt>
      <trkpt lat="59.108701" lon="17.386395">
        <ele>60</ele>
        <time>2020-03-26T12:36:12Z</time>
        <extensions><gpxtpx:TrackPointExtension><gpxtpx:hr>152</gpxtpx:hr></gpxtpx:TrackPointExtension></extensions>
      </trkpt>
      <trkpt lat="59.108664" lon="17.386426">
        <ele>60.2</ele>
        <time>2020-03-26T12:36:13Z</time>
        <extensions><gpxtpx:TrackPointExtension><gpxtpx:hr>152</gpxtpx:hr></gpxtpx:TrackPointExtension></extensions>
      </trkpt>
      <trkpt lat="59.108627" lon="17.386455">
        <ele>60.2</ele>
        <time>2020-03-26T12:36:14Z</time>
        <extensions><gpxtpx:TrackPointExtension><gpxtpx:hr>152</gpxtpx:hr></gpxtpx:TrackPointExtension></extensions>
      </trkpt>
      <trkpt lat="59.10859" lon="17.386481">
        <ele>60.4</ele>
        <time>2020-03-26T12:36:15Z</time>
        <extensions><gpxtpx:TrackPointExtension><gpxtpx:hr>152</gpxtpx:hr></gpxtpx:TrackPointExtension></extensions>
      </trkpt>
      <trkpt lat="59.108554" lon="17.386502">
        <ele>60.8</ele>
        <time>2020-03-26T12:36:16Z</time>
        <extensions><gpxtpx:TrackPointExtension><gpxtpx:hr>152</gpxtpx:hr></gpxtpx:TrackPointExtension></extensions>
      </trkpt>
      <trkpt lat="59.108517" lon="17.386521">
        <ele>61</ele>
        <time>2020-03-26T12:36:17Z</time>
        <extensions><gpxtpx:TrackPointExtension><gpxtpx:hr>152</gpxtpx:hr></gpxtpx:TrackPointExtension></extensions>
      </trkpt>
      <trkpt lat="59.10848" lon="17.386541">
        <ele>61.4</ele>
        <time>2020-03-26T12:36:18Z</time>
        <extensions><gpxtpx:TrackPointExtension><gpxtpx:hr>152</gpxtpx:hr></gpxtpx:TrackPointExtension></extensions>
      </trkpt>
      <trkpt lat="59.108442" lon="17.386561">
        <ele>61.4</ele>
        <time>2020-03-26T12:36:19Z</time>
        <extensions><gpxtpx:TrackPointExtension><gpxtpx:hr>152</gpxtpx:hr></gpxtpx:TrackPointExtension></extensions>
      </trkpt>
      <trkpt lat="59.108405" lon="17.38658">
        <ele>61.6</ele>
        <time>2020-03-26T12:36:20Z</time>
        <extensions><gpxtpx:TrackPointExtension><gpxtpx:hr>153</gpxtpx:hr></gpxtpx:TrackPointExtension></extensions>
      </trkpt>
      <trkpt lat="59.10837" lon="17.386603">
        <ele>62.2</ele>
        <time>2020-03-26T12:36:21Z</time>
        <extensions><gpxtpx:TrackPointExtension><gpxtpx:hr>153</gpxtpx:hr></gpxtpx:TrackPointExtension></extensions>
      </trkpt>
      <trkpt lat="59.108334" lon="17.386627">
        <ele>62.4</ele>
        <time>2020-03-26T12:36:22Z</time>
        <extensions><gpxtpx:TrackPointExtension><gpxtpx:hr>153</gpxtpx:hr></gpxtpx:TrackPointExtension></extensions>
      </trkpt>
      <trkpt lat="59.108301" lon="17.386645">
        <ele>62.6</ele>
        <time>2020-03-26T12:36:23Z</time>
        <extensions><gpxtpx:TrackPointExtension><gpxtpx:hr>153</gpxtpx:hr></gpxtpx:TrackPointExtension></extensions>
      </trkpt>
      <trkpt lat="59.10827" lon="17.386673">
        <ele>62.8</ele>
        <time>2020-03-26T12:36:24Z</time>
        <extensions><gpxtpx:TrackPointExtension><gpxtpx:hr>153</gpxtpx:hr></gpxtpx:TrackPointExtension></extensions>
      </trkpt>
      <trkpt lat="59.10824" lon="17.386713">
        <ele>63</ele>
        <time>2020-03-26T12:36:25Z</time>
        <extensions><gpxtpx:TrackPointExtension><gpxtpx:hr>153</gpxtpx:hr></gpxtpx:TrackPointExtension></extensions>
      </trkpt>
      <trkpt lat="59.108211" lon="17.386748">
        <ele>63.2</ele>
        <time>2020-03-26T12:36:26Z</time>
        <extensions><gpxtpx:TrackPointExtension><gpxtpx:hr>154</gpxtpx:hr></gpxtpx:TrackPointExtension></extensions>
      </trkpt>
      <trkpt lat="59.108189" lon="17.386786">
        <ele>63.4</ele>
        <time>2020-03-26T12:36:27Z</time>
        <extensions><gpxtpx:TrackPointExtension><gpxtpx:hr>154</gpxtpx:hr></gpxtpx:TrackPointExtension></extensions>
      </trkpt>
      <trkpt lat="59.108167" lon="17.386831">
        <ele>63.6</ele>
        <time>2020-03-26T12:36:28Z</time>
        <extensions><gpxtpx:TrackPointExtension><gpxtpx:hr>154</gpxtpx:hr></gpxtpx:TrackPointExtension></extensions>
      </trkpt>
      <trkpt lat="59.108147" lon="17.386891">
        <ele>63.8</ele>
        <time>2020-03-26T12:36:29Z</time>
        <extensions><gpxtpx:TrackPointExtension><gpxtpx:hr>154</gpxtpx:hr></gpxtpx:TrackPointExtension></extensions>
      </trkpt>
      <trkpt lat="59.108134" lon="17.38695">
        <ele>64.2</ele>
        <time>2020-03-26T12:36:30Z</time>
        <extensions><gpxtpx:TrackPointExtension><gpxtpx:hr>154</gpxtpx:hr></gpxtpx:TrackPointExtension></extensions>
      </trkpt>
      <trkpt lat="59.108123" lon="17.387015">
        <ele>64.4</ele>
        <time>2020-03-26T12:36:31Z</time>
        <extensions><gpxtpx:TrackPointExtension><gpxtpx:hr>154</gpxtpx:hr></gpxtpx:TrackPointExtension></extensions>
      </trkpt>
      <trkpt lat="59.108111" lon="17.387095">
        <ele>64.6</ele>
        <time>2020-03-26T12:36:32Z</time>
        <extensions><gpxtpx:TrackPointExtension><gpxtpx:hr>154</gpxtpx:hr></gpxtpx:TrackPointExtension></extensions>
      </trkpt>
      <trkpt lat="59.108108" lon="17.387166">
        <ele>64.8</ele>
        <time>2020-03-26T12:36:33Z</time>
        <extensions><gpxtpx:TrackPointExtension><gpxtpx:hr>154</gpxtpx:hr></gpxtpx:TrackPointExtension></extensions>
      </trkpt>
      <trkpt lat="59.108112" lon="17.387244">
        <ele>65.2</ele>
        <time>2020-03-26T12:36:34Z</time>
        <extensions><gpxtpx:TrackPointExtension><gpxtpx:hr>154</gpxtpx:hr></gpxtpx:TrackPointExtension></extensions>
      </trkpt>
      <trkpt lat="59.108122" lon="17.387329">
        <ele>65.4</ele>
        <time>2020-03-26T12:36:35Z</time>
        <extensions><gpxtpx:TrackPointExtension><gpxtpx:hr>154</gpxtpx:hr></gpxtpx:TrackPointExtension></extensions>
      </trkpt>
      <trkpt lat="59.108133" lon="17.387409">
        <ele>65.8</ele>
        <time>2020-03-26T12:36:36Z</time>
        <extensions><gpxtpx:TrackPointExtension><gpxtpx:hr>154</gpxtpx:hr></gpxtpx:TrackPointExtension></extensions>
      </trkpt>
      <trkpt lat="59.108142" lon="17.387489">
        <ele>66.2</ele>
        <time>2020-03-26T12:36:37Z</time>
        <extensions><gpxtpx:TrackPointExtension><gpxtpx:hr>154</gpxtpx:hr></gpxtpx:TrackPointExtension></extensions>
      </trkpt>
      <trkpt lat="59.108151" lon="17.387561">
        <ele>66.8</ele>
        <time>2020-03-26T12:36:38Z</time>
        <extensions><gpxtpx:TrackPointExtension><gpxtpx:hr>154</gpxtpx:hr></gpxtpx:TrackPointExtension></extensions>
      </trkpt>
      <trkpt lat="59.10816" lon="17.38764">
        <ele>67.6</ele>
        <time>2020-03-26T12:36:39Z</time>
        <extensions><gpxtpx:TrackPointExtension><gpxtpx:hr>155</gpxtpx:hr></gpxtpx:TrackPointExtension></extensions>
      </trkpt>
      <trkpt lat="59.108172" lon="17.38773">
        <ele>68</ele>
        <time>2020-03-26T12:36:40Z</time>
        <extensions><gpxtpx:TrackPointExtension><gpxtpx:hr>155</gpxtpx:hr></gpxtpx:TrackPointExtension></extensions>
      </trkpt>
      <trkpt lat="59.108188" lon="17.387828">
        <ele>68.2</ele>
        <time>2020-03-26T12:36:41Z</time>
        <extensions><gpxtpx:TrackPointExtension><gpxtpx:hr>155</gpxtpx:hr></gpxtpx:TrackPointExtension></extensions>
      </trkpt>
      <trkpt lat="59.108204" lon="17.387919">
        <ele>68.4</ele>
        <time>2020-03-26T12:36:42Z</time>
        <extensions><gpxtpx:TrackPointExtension><gpxtpx:hr>155</gpxtpx:hr></gpxtpx:TrackPointExtension></extensions>
      </trkpt>
      <trkpt lat="59.108219" lon="17.388005">
        <ele>68.8</ele>
        <time>2020-03-26T12:36:43Z</time>
        <extensions><gpxtpx:TrackPointExtension><gpxtpx:hr>156</gpxtpx:hr></gpxtpx:TrackPointExtension></extensions>
      </trkpt>
      <trkpt lat="59.108233" lon="17.38809">
        <ele>69</ele>
        <time>2020-03-26T12:36:44Z</time>
        <extensions><gpxtpx:TrackPointExtension><gpxtpx:hr>156</gpxtpx:hr></gpxtpx:TrackPointExtension></extensions>
      </trkpt>
      <trkpt lat="59.108247" lon="17.388178">
        <ele>69.2</ele>
        <time>2020-03-26T12:36:45Z</time>
        <extensions><gpxtpx:TrackPointExtension><gpxtpx:hr>157</gpxtpx:hr></gpxtpx:TrackPointExtension></extensions>
      </trkpt>
      <trkpt lat="59.108263" lon="17.388266">
        <ele>69.6</ele>
        <time>2020-03-26T12:36:46Z</time>
        <extensions><gpxtpx:TrackPointExtension><gpxtpx:hr>157</gpxtpx:hr></gpxtpx:TrackPointExtension></extensions>
      </trkpt>
      <trkpt lat="59.10828" lon="17.388359">
        <ele>69.8</ele>
        <time>2020-03-26T12:36:47Z</time>
        <extensions><gpxtpx:TrackPointExtension><gpxtpx:hr>158</gpxtpx:hr></gpxtpx:TrackPointExtension></extensions>
      </trkpt>
      <trkpt lat="59.108296" lon="17.388455">
        <ele>70.2</ele>
        <time>2020-03-26T12:36:48Z</time>
        <extensions><gpxtpx:TrackPointExtension><gpxtpx:hr>158</gpxtpx:hr></gpxtpx:TrackPointExtension></extensions>
      </trkpt>
      <trkpt lat="59.108311" lon="17.388555">
        <ele>70.4</ele>
        <time>2020-03-26T12:36:49Z</time>
        <extensions><gpxtpx:TrackPointExtension><gpxtpx:hr>159</gpxtpx:hr></gpxtpx:TrackPointExtension></extensions>
      </trkpt>
      <trkpt lat="59.108327" lon="17.388661">
        <ele>70.6</ele>
        <time>2020-03-26T12:36:50Z</time>
        <extensions><gpxtpx:TrackPointExtension><gpxtpx:hr>159</gpxtpx:hr></gpxtpx:TrackPointExtension></extensions>
      </trkpt>
      <trkpt lat="59.108342" lon="17.38877">
        <ele>70.8</ele>
        <time>2020-03-26T12:36:51Z</time>
        <extensions><gpxtpx:TrackPointExtension><gpxtpx:hr>160</gpxtpx:hr></gpxtpx:TrackPointExtension></extensions>
      </trkpt>
      <trkpt lat="59.108357" lon="17.38888">
        <ele>70.8</ele>
        <time>2020-03-26T12:36:52Z</time>
        <extensions><gpxtpx:TrackPointExtension><gpxtpx:hr>160</gpxtpx:hr></gpxtpx:TrackPointExtension></extensions>
      </trkpt>
      <trkpt lat="59.108371" lon="17.38899">
        <ele>70.8</ele>
        <time>2020-03-26T12:36:53Z</time>
        <extensions><gpxtpx:TrackPointExtension><gpxtpx:hr>160</gpxtpx:hr></gpxtpx:TrackPointExtension></extensions>
      </trkpt>
      <trkpt lat="59.108385" lon="17.389106">
        <ele>70.8</ele>
        <time>2020-03-26T12:36:54Z</time>
        <extensions><gpxtpx:TrackPointExtension><gpxtpx:hr>160</gpxtpx:hr></gpxtpx:TrackPointExtension></extensions>
      </trkpt>
      <trkpt lat="59.108397" lon="17.389224">
        <ele>70.8</ele>
        <time>2020-03-26T12:36:55Z</time>
        <extensions><gpxtpx:TrackPointExtension><gpxtpx:hr>160</gpxtpx:hr></gpxtpx:TrackPointExtension></extensions>
      </trkpt>
      <trkpt lat="59.108411" lon="17.389349">
        <ele>70.8</ele>
        <time>2020-03-26T12:36:56Z</time>
        <extensions><gpxtpx:TrackPointExtension><gpxtpx:hr>160</gpxtpx:hr></gpxtpx:TrackPointExtension></extensions>
      </trkpt>
      <trkpt lat="59.108431" lon="17.38947">
        <ele>70.8</ele>
        <time>2020-03-26T12:36:57Z</time>
        <extensions><gpxtpx:TrackPointExtension><gpxtpx:hr>160</gpxtpx:hr></gpxtpx:TrackPointExtension></extensions>
      </trkpt>
      <trkpt lat="59.108464" lon="17.389583">
        <ele>70.8</ele>
        <time>2020-03-26T12:36:58Z</time>
        <extensions><gpxtpx:TrackPointExtension><gpxtpx:hr>159</gpxtpx:hr></gpxtpx:TrackPointExtension></extensions>
      </trkpt>
      <trkpt lat="59.108504" lon="17.389684">
        <ele>70.8</ele>
        <time>2020-03-26T12:36:59Z</time>
        <extensions><gpxtpx:TrackPointExtension><gpxtpx:hr>159</gpxtpx:hr></gpxtpx:TrackPointExtension></extensions>
      </trkpt>
      <trkpt lat="59.108551" lon="17.389772">
        <ele>70.8</ele>
        <time>2020-03-26T12:37:00Z</time>
        <extensions><gpxtpx:TrackPointExtension><gpxtpx:hr>159</gpxtpx:hr></gpxtpx:TrackPointExtension></extensions>
      </trkpt>
      <trkpt lat="59.108612" lon="17.389845">
        <ele>70.6</ele>
        <time>2020-03-26T12:37:01Z</time>
        <extensions><gpxtpx:TrackPointExtension><gpxtpx:hr>159</gpxtpx:hr></gpxtpx:TrackPointExtension></extensions>
      </trkpt>
      <trkpt lat="59.108683" lon="17.38991">
        <ele>70.4</ele>
        <time>2020-03-26T12:37:02Z</time>
        <extensions><gpxtpx:TrackPointExtension><gpxtpx:hr>158</gpxtpx:hr></gpxtpx:TrackPointExtension></extensions>
      </trkpt>
      <trkpt lat="59.108755" lon="17.38998">
        <ele>70.2</ele>
        <time>2020-03-26T12:37:03Z</time>
        <extensions><gpxtpx:TrackPointExtension><gpxtpx:hr>158</gpxtpx:hr></gpxtpx:TrackPointExtension></extensions>
      </trkpt>
      <trkpt lat="59.108819" lon="17.390065">
        <ele>70.2</ele>
        <time>2020-03-26T12:37:04Z</time>
        <extensions><gpxtpx:TrackPointExtension><gpxtpx:hr>157</gpxtpx:hr></gpxtpx:TrackPointExtension></extensions>
      </trkpt>
      <trkpt lat="59.10887" lon="17.390179">
        <ele>70</ele>
        <time>2020-03-26T12:37:05Z</time>
        <extensions><gpxtpx:TrackPointExtension><gpxtpx:hr>156</gpxtpx:hr></gpxtpx:TrackPointExtension></extensions>
      </trkpt>
      <trkpt lat="59.108902" lon="17.39031">
        <ele>69.8</ele>
        <time>2020-03-26T12:37:06Z</time>
        <extensions><gpxtpx:TrackPointExtension><gpxtpx:hr>156</gpxtpx:hr></gpxtpx:TrackPointExtension></extensions>
      </trkpt>
      <trkpt lat="59.108906" lon="17.390451">
        <ele>69.6</ele>
        <time>2020-03-26T12:37:07Z</time>
        <extensions><gpxtpx:TrackPointExtension><gpxtpx:hr>155</gpxtpx:hr></gpxtpx:TrackPointExtension></extensions>
      </trkpt>
      <trkpt lat="59.108896" lon="17.390592">
        <ele>69.6</ele>
        <time>2020-03-26T12:37:08Z</time>
        <extensions><gpxtpx:TrackPointExtension><gpxtpx:hr>155</gpxtpx:hr></gpxtpx:TrackPointExtension></extensions>
      </trkpt>
      <trkpt lat="59.108887" lon="17.390739">
        <ele>69.6</ele>
        <time>2020-03-26T12:37:09Z</time>
        <extensions><gpxtpx:TrackPointExtension><gpxtpx:hr>154</gpxtpx:hr></gpxtpx:TrackPointExtension></extensions>
      </trkpt>
      <trkpt lat="59.108882" lon="17.39089">
        <ele>69.2</ele>
        <time>2020-03-26T12:37:10Z</time>
        <extensions><gpxtpx:TrackPointExtension><gpxtpx:hr>153</gpxtpx:hr></gpxtpx:TrackPointExtension></extensions>
      </trkpt>
      <trkpt lat="59.108887" lon="17.391052">
        <ele>68.8</ele>
        <time>2020-03-26T12:37:11Z</time>
        <extensions><gpxtpx:TrackPointExtension><gpxtpx:hr>152</gpxtpx:hr></gpxtpx:TrackPointExtension></extensions>
      </trkpt>
      <trkpt lat="59.108896" lon="17.391223">
        <ele>68.6</ele>
        <time>2020-03-26T12:37:12Z</time>
        <extensions><gpxtpx:TrackPointExtension><gpxtpx:hr>151</gpxtpx:hr></gpxtpx:TrackPointExtension></extensions>
      </trkpt>
      <trkpt lat="59.108912" lon="17.391401">
        <ele>68.4</ele>
        <time>2020-03-26T12:37:13Z</time>
        <extensions><gpxtpx:TrackPointExtension><gpxtpx:hr>150</gpxtpx:hr></gpxtpx:TrackPointExtension></extensions>
      </trkpt>
      <trkpt lat="59.108933" lon="17.391586">
        <ele>68.2</ele>
        <time>2020-03-26T12:37:14Z</time>
        <extensions><gpxtpx:TrackPointExtension><gpxtpx:hr>150</gpxtpx:hr></gpxtpx:TrackPointExtension></extensions>
      </trkpt>
      <trkpt lat="59.108957" lon="17.391773">
        <ele>67.8</ele>
        <time>2020-03-26T12:37:15Z</time>
        <extensions><gpxtpx:TrackPointExtension><gpxtpx:hr>149</gpxtpx:hr></gpxtpx:TrackPointExtension></extensions>
      </trkpt>
      <trkpt lat="59.10898" lon="17.391962">
        <ele>67.6</ele>
        <time>2020-03-26T12:37:16Z</time>
        <extensions><gpxtpx:TrackPointExtension><gpxtpx:hr>148</gpxtpx:hr></gpxtpx:TrackPointExtension></extensions>
      </trkpt>
      <trkpt lat="59.109005" lon="17.392156">
        <ele>67.6</ele>
        <time>2020-03-26T12:37:17Z</time>
        <extensions><gpxtpx:TrackPointExtension><gpxtpx:hr>148</gpxtpx:hr></gpxtpx:TrackPointExtension></extensions>
      </trkpt>
      <trkpt lat="59.109031" lon="17.392351">
        <ele>67.4</ele>
        <time>2020-03-26T12:37:18Z</time>
        <extensions><gpxtpx:TrackPointExtension><gpxtpx:hr>147</gpxtpx:hr></gpxtpx:TrackPointExtension></extensions>
      </trkpt>
      <trkpt lat="59.109057" lon="17.392543">
        <ele>67.2</ele>
        <time>2020-03-26T12:37:19Z</time>
        <extensions><gpxtpx:TrackPointExtension><gpxtpx:hr>146</gpxtpx:hr></gpxtpx:TrackPointExtension></extensions>
      </trkpt>
      <trkpt lat="59.109081" lon="17.392731">
        <ele>66.8</ele>
        <time>2020-03-26T12:37:20Z</time>
        <extensions><gpxtpx:TrackPointExtension><gpxtpx:hr>144</gpxtpx:hr></gpxtpx:TrackPointExtension></extensions>
      </trkpt>
      <trkpt lat="59.109102" lon="17.39291">
        <ele>66.2</ele>
        <time>2020-03-26T12:37:21Z</time>
        <extensions><gpxtpx:TrackPointExtension><gpxtpx:hr>143</gpxtpx:hr></gpxtpx:TrackPointExtension></extensions>
      </trkpt>
      <trkpt lat="59.109122" lon="17.39308">
        <ele>65.6</ele>
        <time>2020-03-26T12:37:22Z</time>
        <extensions><gpxtpx:TrackPointExtension><gpxtpx:hr>142</gpxtpx:hr></gpxtpx:TrackPointExtension></extensions>
      </trkpt>
      <trkpt lat="59.10914" lon="17.393246">
        <ele>65</ele>
        <time>2020-03-26T12:37:23Z</time>
        <extensions><gpxtpx:TrackPointExtension><gpxtpx:hr>141</gpxtpx:hr></gpxtpx:TrackPointExtension></extensions>
      </trkpt>
      <trkpt lat="59.109157" lon="17.39341">
        <ele>64</ele>
        <time>2020-03-26T12:37:24Z</time>
        <extensions><gpxtpx:TrackPointExtension><gpxtpx:hr>140</gpxtpx:hr></gpxtpx:TrackPointExtension></extensions>
      </trkpt>
      <trkpt lat="59.109174" lon="17.39357">
        <ele>63.6</ele>
        <time>2020-03-26T12:37:25Z</time>
        <extensions><gpxtpx:TrackPointExtension><gpxtpx:hr>140</gpxtpx:hr></gpxtpx:TrackPointExtension></extensions>
      </trkpt>
      <trkpt lat="59.109189" lon="17.393724">
        <ele>63.4</ele>
        <time>2020-03-26T12:37:26Z</time>
        <extensions><gpxtpx:TrackPointExtension><gpxtpx:hr>140</gpxtpx:hr></gpxtpx:TrackPointExtension></extensions>
      </trkpt>
      <trkpt lat="59.109208" lon="17.393874">
        <ele>63.2</ele>
        <time>2020-03-26T12:37:27Z</time>
        <extensions><gpxtpx:TrackPointExtension><gpxtpx:hr>140</gpxtpx:hr></gpxtpx:TrackPointExtension></extensions>
      </trkpt>
      <trkpt lat="59.109226" lon="17.394018">
        <ele>63.2</ele>
        <time>2020-03-26T12:37:28Z</time>
        <extensions><gpxtpx:TrackPointExtension><gpxtpx:hr>140</gpxtpx:hr></gpxtpx:TrackPointExtension></extensions>
      </trkpt>
      <trkpt lat="59.109244" lon="17.394156">
        <ele>63.2</ele>
        <time>2020-03-26T12:37:29Z</time>
        <extensions><gpxtpx:TrackPointExtension><gpxtpx:hr>141</gpxtpx:hr></gpxtpx:TrackPointExtension></extensions>
      </trkpt>
      <trkpt lat="59.109259" lon="17.394292">
        <ele>63.2</ele>
        <time>2020-03-26T12:37:30Z</time>
        <extensions><gpxtpx:TrackPointExtension><gpxtpx:hr>141</gpxtpx:hr></gpxtpx:TrackPointExtension></extensions>
      </trkpt>
      <trkpt lat="59.109275" lon="17.394422">
        <ele>63.2</ele>
        <time>2020-03-26T12:37:31Z</time>
        <extensions><gpxtpx:TrackPointExtension><gpxtpx:hr>141</gpxtpx:hr></gpxtpx:TrackPointExtension></extensions>
      </trkpt>
      <trkpt lat="59.109291" lon="17.394547">
        <ele>63.2</ele>
        <time>2020-03-26T12:37:32Z</time>
        <extensions><gpxtpx:TrackPointExtension><gpxtpx:hr>142</gpxtpx:hr></gpxtpx:TrackPointExtension></extensions>
      </trkpt>
      <trkpt lat="59.109307" lon="17.394671">
        <ele>63.2</ele>
        <time>2020-03-26T12:37:33Z</time>
        <extensions><gpxtpx:TrackPointExtension><gpxtpx:hr>142</gpxtpx:hr></gpxtpx:TrackPointExtension></extensions>
      </trkpt>
      <trkpt lat="59.109322" lon="17.394791">
        <ele>63.4</ele>
        <time>2020-03-26T12:37:34Z</time>
        <extensions><gpxtpx:TrackPointExtension><gpxtpx:hr>142</gpxtpx:hr></gpxtpx:TrackPointExtension></extensions>
      </trkpt>
      <trkpt lat="59.109341" lon="17.39491">
        <ele>63.6</ele>
        <time>2020-03-26T12:37:35Z</time>
        <extensions><gpxtpx:TrackPointExtension><gpxtpx:hr>142</gpxtpx:hr></gpxtpx:TrackPointExtension></extensions>
      </trkpt>
      <trkpt lat="59.109363" lon="17.395023">
        <ele>64</ele>
        <time>2020-03-26T12:37:36Z</time>
        <extensions><gpxtpx:TrackPointExtension><gpxtpx:hr>143</gpxtpx:hr></gpxtpx:TrackPointExtension></extensions>
      </trkpt>
      <trkpt lat="59.109386" lon="17.395132">
        <ele>64.2</ele>
        <time>2020-03-26T12:37:37Z</time>
        <extensions><gpxtpx:TrackPointExtension><gpxtpx:hr>143</gpxtpx:hr></gpxtpx:TrackPointExtension></extensions>
      </trkpt>
      <trkpt lat="59.10941" lon="17.395244">
        <ele>64.4</ele>
        <time>2020-03-26T12:37:38Z</time>
        <extensions><gpxtpx:TrackPointExtension><gpxtpx:hr>143</gpxtpx:hr></gpxtpx:TrackPointExtension></extensions>
      </trkpt>
      <trkpt lat="59.109438" lon="17.395354">
        <ele>64.8</ele>
        <time>2020-03-26T12:37:39Z</time>
        <extensions><gpxtpx:TrackPointExtension><gpxtpx:hr>144</gpxtpx:hr></gpxtpx:TrackPointExtension></extensions>
      </trkpt>
      <trkpt lat="59.109469" lon="17.395465">
        <ele>65.2</ele>
        <time>2020-03-26T12:37:40Z</time>
        <extensions><gpxtpx:TrackPointExtension><gpxtpx:hr>144</gpxtpx:hr></gpxtpx:TrackPointExtension></extensions>
      </trkpt>
      <trkpt lat="59.109499" lon="17.395575">
        <ele>65.6</ele>
        <time>2020-03-26T12:37:41Z</time>
        <extensions><gpxtpx:TrackPointExtension><gpxtpx:hr>145</gpxtpx:hr></gpxtpx:TrackPointExtension></extensions>
      </trkpt>
      <trkpt lat="59.109529" lon="17.395688">
        <ele>66</ele>
        <time>2020-03-26T12:37:42Z</time>
        <extensions><gpxtpx:TrackPointExtension><gpxtpx:hr>145</gpxtpx:hr></gpxtpx:TrackPointExtension></extensions>
      </trkpt>
      <trkpt lat="59.109563" lon="17.395804">
        <ele>66.2</ele>
        <time>2020-03-26T12:37:43Z</time>
        <extensions><gpxtpx:TrackPointExtension><gpxtpx:hr>146</gpxtpx:hr></gpxtpx:TrackPointExtension></extensions>
      </trkpt>
      <trkpt lat="59.109599" lon="17.395919">
        <ele>66.6</ele>
        <time>2020-03-26T12:37:44Z</time>
        <extensions><gpxtpx:TrackPointExtension><gpxtpx:hr>147</gpxtpx:hr></gpxtpx:TrackPointExtension></extensions>
      </trkpt>
      <trkpt lat="59.109635" lon="17.396036">
        <ele>66.8</ele>
        <time>2020-03-26T12:37:45Z</time>
        <extensions><gpxtpx:TrackPointExtension><gpxtpx:hr>148</gpxtpx:hr></gpxtpx:TrackPointExtension></extensions>
      </trkpt>
      <trkpt lat="59.109672" lon="17.396156">
        <ele>66.8</ele>
        <time>2020-03-26T12:37:46Z</time>
        <extensions><gpxtpx:TrackPointExtension><gpxtpx:hr>148</gpxtpx:hr></gpxtpx:TrackPointExtension></extensions>
      </trkpt>
      <trkpt lat="59.109709" lon="17.396279">
        <ele>67</ele>
        <time>2020-03-26T12:37:47Z</time>
        <extensions><gpxtpx:TrackPointExtension><gpxtpx:hr>148</gpxtpx:hr></gpxtpx:TrackPointExtension></extensions>
      </trkpt>
      <trkpt lat="59.109739" lon="17.396406">
        <ele>67</ele>
        <time>2020-03-26T12:37:48Z</time>
        <extensions><gpxtpx:TrackPointExtension><gpxtpx:hr>149</gpxtpx:hr></gpxtpx:TrackPointExtension></extensions>
      </trkpt>
      <trkpt lat="59.109768" lon="17.396536">
        <ele>67</ele>
        <time>2020-03-26T12:37:49Z</time>
        <extensions><gpxtpx:TrackPointExtension><gpxtpx:hr>149</gpxtpx:hr></gpxtpx:TrackPointExtension></extensions>
      </trkpt>
      <trkpt lat="59.109791" lon="17.396673">
        <ele>67.2</ele>
        <time>2020-03-26T12:37:50Z</time>
        <extensions><gpxtpx:TrackPointExtension><gpxtpx:hr>149</gpxtpx:hr></gpxtpx:TrackPointExtension></extensions>
      </trkpt>
      <trkpt lat="59.109807" lon="17.396814">
        <ele>67.2</ele>
        <time>2020-03-26T12:37:51Z</time>
        <extensions><gpxtpx:TrackPointExtension><gpxtpx:hr>149</gpxtpx:hr></gpxtpx:TrackPointExtension></extensions>
      </trkpt>
      <trkpt lat="59.109809" lon="17.396956">
        <ele>67.2</ele>
        <time>2020-03-26T12:37:52Z</time>
        <extensions><gpxtpx:TrackPointExtension><gpxtpx:hr>149</gpxtpx:hr></gpxtpx:TrackPointExtension></extensions>
      </trkpt>
      <trkpt lat="59.109802" lon="17.397098">
        <ele>67.2</ele>
        <time>2020-03-26T12:37:53Z</time>
        <extensions><gpxtpx:TrackPointExtension><gpxtpx:hr>149</gpxtpx:hr></gpxtpx:TrackPointExtension></extensions>
      </trkpt>
      <trkpt lat="59.10979" lon="17.397235">
        <ele>67.2</ele>
        <time>2020-03-26T12:37:54Z</time>
        <extensions><gpxtpx:TrackPointExtension><gpxtpx:hr>149</gpxtpx:hr></gpxtpx:TrackPointExtension></extensions>
      </trkpt>
      <trkpt lat="59.109775" lon="17.397369">
        <ele>67.2</ele>
        <time>2020-03-26T12:37:55Z</time>
        <extensions><gpxtpx:TrackPointExtension><gpxtpx:hr>149</gpxtpx:hr></gpxtpx:TrackPointExtension></extensions>
      </trkpt>
      <trkpt lat="59.109759" lon="17.397504">
        <ele>67.2</ele>
        <time>2020-03-26T12:37:56Z</time>
        <extensions><gpxtpx:TrackPointExtension><gpxtpx:hr>150</gpxtpx:hr></gpxtpx:TrackPointExtension></extensions>
      </trkpt>
      <trkpt lat="59.109742" lon="17.397634">
        <ele>67.2</ele>
        <time>2020-03-26T12:37:57Z</time>
        <extensions><gpxtpx:TrackPointExtension><gpxtpx:hr>150</gpxtpx:hr></gpxtpx:TrackPointExtension></extensions>
      </trkpt>
      <trkpt lat="59.10973" lon="17.397766">
        <ele>67.2</ele>
        <time>2020-03-26T12:37:58Z</time>
        <extensions><gpxtpx:TrackPointExtension><gpxtpx:hr>150</gpxtpx:hr></gpxtpx:TrackPointExtension></extensions>
      </trkpt>
      <trkpt lat="59.109733" lon="17.39789">
        <ele>67.2</ele>
        <time>2020-03-26T12:37:59Z</time>
        <extensions><gpxtpx:TrackPointExtension><gpxtpx:hr>151</gpxtpx:hr></gpxtpx:TrackPointExtension></extensions>
      </trkpt>
      <trkpt lat="59.109753" lon="17.398008">
        <ele>67.4</ele>
        <time>2020-03-26T12:38:00Z</time>
        <extensions><gpxtpx:TrackPointExtension><gpxtpx:hr>151</gpxtpx:hr></gpxtpx:TrackPointExtension></extensions>
      </trkpt>
      <trkpt lat="59.109787" lon="17.398112">
        <ele>67.4</ele>
        <time>2020-03-26T12:38:01Z</time>
        <extensions><gpxtpx:TrackPointExtension><gpxtpx:hr>151</gpxtpx:hr></gpxtpx:TrackPointExtension></extensions>
      </trkpt>
      <trkpt lat="59.109827" lon="17.398197">
        <ele>67.4</ele>
        <time>2020-03-26T12:38:02Z</time>
        <extensions><gpxtpx:TrackPointExtension><gpxtpx:hr>151</gpxtpx:hr></gpxtpx:TrackPointExtension></extensions>
      </trkpt>
      <trkpt lat="59.109876" lon="17.398258">
        <ele>67.6</ele>
        <time>2020-03-26T12:38:03Z</time>
        <extensions><gpxtpx:TrackPointExtension><gpxtpx:hr>152</gpxtpx:hr></gpxtpx:TrackPointExtension></extensions>
      </trkpt>
      <trkpt lat="59.109932" lon="17.398299">
        <ele>67.8</ele>
        <time>2020-03-26T12:38:04Z</time>
        <extensions><gpxtpx:TrackPointExtension><gpxtpx:hr>152</gpxtpx:hr></gpxtpx:TrackPointExtension></extensions>
      </trkpt>
      <trkpt lat="59.109985" lon="17.398328">
        <ele>67.8</ele>
        <time>2020-03-26T12:38:05Z</time>
        <extensions><gpxtpx:TrackPointExtension><gpxtpx:hr>152</gpxtpx:hr></gpxtpx:TrackPointExtension></extensions>
      </trkpt>
      <trkpt lat="59.110039" lon="17.398352">
        <ele>68</ele>
        <time>2020-03-26T12:38:06Z</time>
        <extensions><gpxtpx:TrackPointExtension><gpxtpx:hr>152</gpxtpx:hr></gpxtpx:TrackPointExtension></extensions>
      </trkpt>
      <trkpt lat="59.110091" lon="17.398372">
        <ele>68</ele>
        <time>2020-03-26T12:38:07Z</time>
        <extensions><gpxtpx:TrackPointExtension><gpxtpx:hr>152</gpxtpx:hr></gpxtpx:TrackPointExtension></extensions>
      </trkpt>
      <trkpt lat="59.110143" lon="17.398396">
        <ele>68.2</ele>
        <time>2020-03-26T12:38:08Z</time>
        <extensions><gpxtpx:TrackPointExtension><gpxtpx:hr>153</gpxtpx:hr></gpxtpx:TrackPointExtension></extensions>
      </trkpt>
      <trkpt lat="59.110194" lon="17.398423">
        <ele>68.4</ele>
        <time>2020-03-26T12:38:09Z</time>
        <extensions><gpxtpx:TrackPointExtension><gpxtpx:hr>153</gpxtpx:hr></gpxtpx:TrackPointExtension></extensions>
      </trkpt>
      <trkpt lat="59.110248" lon="17.398452">
        <ele>68.6</ele>
        <time>2020-03-26T12:38:10Z</time>
        <extensions><gpxtpx:TrackPointExtension><gpxtpx:hr>153</gpxtpx:hr></gpxtpx:TrackPointExtension></extensions>
      </trkpt>
      <trkpt lat="59.110305" lon="17.398479">
        <ele>69</ele>
        <time>2020-03-26T12:38:11Z</time>
        <extensions><gpxtpx:TrackPointExtension><gpxtpx:hr>154</gpxtpx:hr></gpxtpx:TrackPointExtension></extensions>
      </trkpt>
      <trkpt lat="59.110362" lon="17.398507">
        <ele>69.2</ele>
        <time>2020-03-26T12:38:12Z</time>
        <extensions><gpxtpx:TrackPointExtension><gpxtpx:hr>154</gpxtpx:hr></gpxtpx:TrackPointExtension></extensions>
      </trkpt>
      <trkpt lat="59.110421" lon="17.398534">
        <ele>69.8</ele>
        <time>2020-03-26T12:38:13Z</time>
        <extensions><gpxtpx:TrackPointExtension><gpxtpx:hr>154</gpxtpx:hr></gpxtpx:TrackPointExtension></extensions>
      </trkpt>
      <trkpt lat="59.110479" lon="17.398565">
        <ele>70.6</ele>
        <time>2020-03-26T12:38:14Z</time>
        <extensions><gpxtpx:TrackPointExtension><gpxtpx:hr>155</gpxtpx:hr></gpxtpx:TrackPointExtension></extensions>
      </trkpt>
      <trkpt lat="59.110537" lon="17.3986">
        <ele>70.8</ele>
        <time>2020-03-26T12:38:15Z</time>
        <extensions><gpxtpx:TrackPointExtension><gpxtpx:hr>155</gpxtpx:hr></gpxtpx:TrackPointExtension></extensions>
      </trkpt>
      <trkpt lat="59.110595" lon="17.398641">
        <ele>71</ele>
        <time>2020-03-26T12:38:16Z</time>
        <extensions><gpxtpx:TrackPointExtension><gpxtpx:hr>155</gpxtpx:hr></gpxtpx:TrackPointExtension></extensions>
      </trkpt>
      <trkpt lat="59.110652" lon="17.398691">
        <ele>71</ele>
        <time>2020-03-26T12:38:17Z</time>
        <extensions><gpxtpx:TrackPointExtension><gpxtpx:hr>155</gpxtpx:hr></gpxtpx:TrackPointExtension></extensions>
      </trkpt>
      <trkpt lat="59.110707" lon="17.398752">
        <ele>71.2</ele>
        <time>2020-03-26T12:38:18Z</time>
        <extensions><gpxtpx:TrackPointExtension><gpxtpx:hr>155</gpxtpx:hr></gpxtpx:TrackPointExtension></extensions>
      </trkpt>
      <trkpt lat="59.110759" lon="17.398827">
        <ele>71.2</ele>
        <time>2020-03-26T12:38:19Z</time>
        <extensions><gpxtpx:TrackPointExtension><gpxtpx:hr>156</gpxtpx:hr></gpxtpx:TrackPointExtension></extensions>
      </trkpt>
      <trkpt lat="59.110809" lon="17.398915">
        <ele>71.2</ele>
        <time>2020-03-26T12:38:20Z</time>
        <extensions><gpxtpx:TrackPointExtension><gpxtpx:hr>155</gpxtpx:hr></gpxtpx:TrackPointExtension></extensions>
      </trkpt>
      <trkpt lat="59.110855" lon="17.399015">
        <ele>71.2</ele>
        <time>2020-03-26T12:38:21Z</time>
        <extensions><gpxtpx:TrackPointExtension><gpxtpx:hr>155</gpxtpx:hr></gpxtpx:TrackPointExtension></extensions>
      </trkpt>
      <trkpt lat="59.110893" lon="17.399129">
        <ele>71.4</ele>
        <time>2020-03-26T12:38:22Z</time>
        <extensions><gpxtpx:TrackPointExtension><gpxtpx:hr>155</gpxtpx:hr></gpxtpx:TrackPointExtension></extensions>
      </trkpt>
      <trkpt lat="59.110923" lon="17.399252">
        <ele>71.4</ele>
        <time>2020-03-26T12:38:23Z</time>
        <extensions><gpxtpx:TrackPointExtension><gpxtpx:hr>155</gpxtpx:hr></gpxtpx:TrackPointExtension></extensions>
      </trkpt>
      <trkpt lat="59.110948" lon="17.399379">
        <ele>71.4</ele>
        <time>2020-03-26T12:38:24Z</time>
        <extensions><gpxtpx:TrackPointExtension><gpxtpx:hr>155</gpxtpx:hr></gpxtpx:TrackPointExtension></extensions>
      </trkpt>
      <trkpt lat="59.110968" lon="17.399509">
        <ele>71.4</ele>
        <time>2020-03-26T12:38:25Z</time>
        <extensions><gpxtpx:TrackPointExtension><gpxtpx:hr>155</gpxtpx:hr></gpxtpx:TrackPointExtension></extensions>
      </trkpt>
      <trkpt lat="59.110984" lon="17.399641">
        <ele>71.4</ele>
        <time>2020-03-26T12:38:26Z</time>
        <extensions><gpxtpx:TrackPointExtension><gpxtpx:hr>155</gpxtpx:hr></gpxtpx:TrackPointExtension></extensions>
      </trkpt>
      <trkpt lat="59.110997" lon="17.399775">
        <ele>71.2</ele>
        <time>2020-03-26T12:38:27Z</time>
        <extensions><gpxtpx:TrackPointExtension><gpxtpx:hr>155</gpxtpx:hr></gpxtpx:TrackPointExtension></extensions>
      </trkpt>
      <trkpt lat="59.111008" lon="17.399914">
        <ele>71.2</ele>
        <time>2020-03-26T12:38:28Z</time>
        <extensions><gpxtpx:TrackPointExtension><gpxtpx:hr>155</gpxtpx:hr></gpxtpx:TrackPointExtension></extensions>
      </trkpt>
      <trkpt lat="59.111019" lon="17.400054">
        <ele>71</ele>
        <time>2020-03-26T12:38:29Z</time>
        <extensions><gpxtpx:TrackPointExtension><gpxtpx:hr>155</gpxtpx:hr></gpxtpx:TrackPointExtension></extensions>
      </trkpt>
      <trkpt lat="59.111028" lon="17.400202">
        <ele>71</ele>
        <time>2020-03-26T12:38:30Z</time>
        <extensions><gpxtpx:TrackPointExtension><gpxtpx:hr>155</gpxtpx:hr></gpxtpx:TrackPointExtension></extensions>
      </trkpt>
      <trkpt lat="59.111036" lon="17.400357">
        <ele>71</ele>
        <time>2020-03-26T12:38:31Z</time>
        <extensions><gpxtpx:TrackPointExtension><gpxtpx:hr>155</gpxtpx:hr></gpxtpx:TrackPointExtension></extensions>
      </trkpt>
      <trkpt lat="59.111041" lon="17.400513">
        <ele>71</ele>
        <time>2020-03-26T12:38:32Z</time>
        <extensions><gpxtpx:TrackPointExtension><gpxtpx:hr>154</gpxtpx:hr></gpxtpx:TrackPointExtension></extensions>
      </trkpt>
      <trkpt lat="59.111043" lon="17.400676">
        <ele>71</ele>
        <time>2020-03-26T12:38:33Z</time>
        <extensions><gpxtpx:TrackPointExtension><gpxtpx:hr>154</gpxtpx:hr></gpxtpx:TrackPointExtension></extensions>
      </trkpt>
      <trkpt lat="59.111043" lon="17.400844">
        <ele>71</ele>
        <time>2020-03-26T12:38:34Z</time>
        <extensions><gpxtpx:TrackPointExtension><gpxtpx:hr>154</gpxtpx:hr></gpxtpx:TrackPointExtension></extensions>
      </trkpt>
      <trkpt lat="59.111042" lon="17.401014">
        <ele>71</ele>
        <time>2020-03-26T12:38:35Z</time>
        <extensions><gpxtpx:TrackPointExtension><gpxtpx:hr>154</gpxtpx:hr></gpxtpx:TrackPointExtension></extensions>
      </trkpt>
      <trkpt lat="59.11104" lon="17.401184">
        <ele>71</ele>
        <time>2020-03-26T12:38:36Z</time>
        <extensions><gpxtpx:TrackPointExtension><gpxtpx:hr>154</gpxtpx:hr></gpxtpx:TrackPointExtension></extensions>
      </trkpt>
      <trkpt lat="59.111035" lon="17.401353">
        <ele>71</ele>
        <time>2020-03-26T12:38:37Z</time>
        <extensions><gpxtpx:TrackPointExtension><gpxtpx:hr>154</gpxtpx:hr></gpxtpx:TrackPointExtension></extensions>
      </trkpt>
      <trkpt lat="59.111027" lon="17.401521">
        <ele>71</ele>
        <time>2020-03-26T12:38:38Z</time>
        <extensions><gpxtpx:TrackPointExtension><gpxtpx:hr>154</gpxtpx:hr></gpxtpx:TrackPointExtension></extensions>
      </trkpt>
      <trkpt lat="59.111011" lon="17.401688">
        <ele>70.8</ele>
        <time>2020-03-26T12:38:39Z</time>
        <extensions><gpxtpx:TrackPointExtension><gpxtpx:hr>153</gpxtpx:hr></gpxtpx:TrackPointExtension></extensions>
      </trkpt>
      <trkpt lat="59.110987" lon="17.401852">
        <ele>70.6</ele>
        <time>2020-03-26T12:38:40Z</time>
        <extensions><gpxtpx:TrackPointExtension><gpxtpx:hr>153</gpxtpx:hr></gpxtpx:TrackPointExtension></extensions>
      </trkpt>
      <trkpt lat="59.110956" lon="17.40201">
        <ele>70.2</ele>
        <time>2020-03-26T12:38:41Z</time>
        <extensions><gpxtpx:TrackPointExtension><gpxtpx:hr>152</gpxtpx:hr></gpxtpx:TrackPointExtension></extensions>
      </trkpt>
      <trkpt lat="59.110927" lon="17.402165">
        <ele>69.6</ele>
        <time>2020-03-26T12:38:42Z</time>
        <extensions><gpxtpx:TrackPointExtension><gpxtpx:hr>152</gpxtpx:hr></gpxtpx:TrackPointExtension></extensions>
      </trkpt>
      <trkpt lat="59.110903" lon="17.402319">
        <ele>69.2</ele>
        <time>2020-03-26T12:38:43Z</time>
        <extensions><gpxtpx:TrackPointExtension><gpxtpx:hr>152</gpxtpx:hr></gpxtpx:TrackPointExtension></extensions>
      </trkpt>
      <trkpt lat="59.110886" lon="17.402475">
        <ele>68.6</ele>
        <time>2020-03-26T12:38:44Z</time>
        <extensions><gpxtpx:TrackPointExtension><gpxtpx:hr>151</gpxtpx:hr></gpxtpx:TrackPointExtension></extensions>
      </trkpt>
      <trkpt lat="59.110876" lon="17.402632">
        <ele>68.4</ele>
        <time>2020-03-26T12:38:45Z</time>
        <extensions><gpxtpx:TrackPointExtension><gpxtpx:hr>151</gpxtpx:hr></gpxtpx:TrackPointExtension></extensions>
      </trkpt>
      <trkpt lat="59.110873" lon="17.402788">
        <ele>68.4</ele>
        <time>2020-03-26T12:38:46Z</time>
        <extensions><gpxtpx:TrackPointExtension><gpxtpx:hr>150</gpxtpx:hr></gpxtpx:TrackPointExtension></extensions>
      </trkpt>
      <trkpt lat="59.110873" lon="17.402946">
        <ele>68.2</ele>
        <time>2020-03-26T12:38:47Z</time>
        <extensions><gpxtpx:TrackPointExtension><gpxtpx:hr>150</gpxtpx:hr></gpxtpx:TrackPointExtension></extensions>
      </trkpt>
      <trkpt lat="59.110877" lon="17.403103">
        <ele>68</ele>
        <time>2020-03-26T12:38:48Z</time>
        <extensions><gpxtpx:TrackPointExtension><gpxtpx:hr>150</gpxtpx:hr></gpxtpx:TrackPointExtension></extensions>
      </trkpt>
      <trkpt lat="59.110885" lon="17.403256">
        <ele>68</ele>
        <time>2020-03-26T12:38:49Z</time>
        <extensions><gpxtpx:TrackPointExtension><gpxtpx:hr>150</gpxtpx:hr></gpxtpx:TrackPointExtension></extensions>
      </trkpt>
      <trkpt lat="59.110899" lon="17.403407">
        <ele>68</ele>
        <time>2020-03-26T12:38:50Z</time>
        <extensions><gpxtpx:TrackPointExtension><gpxtpx:hr>150</gpxtpx:hr></gpxtpx:TrackPointExtension></extensions>
      </trkpt>
      <trkpt lat="59.110916" lon="17.403557">
        <ele>68</ele>
        <time>2020-03-26T12:38:51Z</time>
        <extensions><gpxtpx:TrackPointExtension><gpxtpx:hr>151</gpxtpx:hr></gpxtpx:TrackPointExtension></extensions>
      </trkpt>
      <trkpt lat="59.110935" lon="17.403708">
        <ele>67.8</ele>
        <time>2020-03-26T12:38:52Z</time>
        <extensions><gpxtpx:TrackPointExtension><gpxtpx:hr>151</gpxtpx:hr></gpxtpx:TrackPointExtension></extensions>
      </trkpt>
      <trkpt lat="59.110956" lon="17.40386">
        <ele>67.8</ele>
        <time>2020-03-26T12:38:53Z</time>
        <extensions><gpxtpx:TrackPointExtension><gpxtpx:hr>151</gpxtpx:hr></gpxtpx:TrackPointExtension></extensions>
      </trkpt>
      <trkpt lat="59.110977" lon="17.404011">
        <ele>67.8</ele>
        <time>2020-03-26T12:38:54Z</time>
        <extensions><gpxtpx:TrackPointExtension><gpxtpx:hr>151</gpxtpx:hr></gpxtpx:TrackPointExtension></extensions>
      </trkpt>
      <trkpt lat="59.110997" lon="17.404164">
        <ele>67.8</ele>
        <time>2020-03-26T12:38:55Z</time>
        <extensions><gpxtpx:TrackPointExtension><gpxtpx:hr>151</gpxtpx:hr></gpxtpx:TrackPointExtension></extensions>
      </trkpt>
      <trkpt lat="59.111016" lon="17.404317">
        <ele>67.8</ele>
        <time>2020-03-26T12:38:56Z</time>
        <extensions><gpxtpx:TrackPointExtension><gpxtpx:hr>151</gpxtpx:hr></gpxtpx:TrackPointExtension></extensions>
      </trkpt>
      <trkpt lat="59.111033" lon="17.404472">
        <ele>67.8</ele>
        <time>2020-03-26T12:38:57Z</time>
        <extensions><gpxtpx:TrackPointExtension><gpxtpx:hr>152</gpxtpx:hr></gpxtpx:TrackPointExtension></extensions>
      </trkpt>
      <trkpt lat="59.111048" lon="17.404628">
        <ele>68</ele>
        <time>2020-03-26T12:38:58Z</time>
        <extensions><gpxtpx:TrackPointExtension><gpxtpx:hr>152</gpxtpx:hr></gpxtpx:TrackPointExtension></extensions>
      </trkpt>
      <trkpt lat="59.111061" lon="17.404785">
        <ele>68</ele>
        <time>2020-03-26T12:38:59Z</time>
        <extensions><gpxtpx:TrackPointExtension><gpxtpx:hr>152</gpxtpx:hr></gpxtpx:TrackPointExtension></extensions>
      </trkpt>
      <trkpt lat="59.111071" lon="17.404939">
        <ele>68</ele>
        <time>2020-03-26T12:39:00Z</time>
        <extensions><gpxtpx:TrackPointExtension><gpxtpx:hr>152</gpxtpx:hr></gpxtpx:TrackPointExtension></extensions>
      </trkpt>
      <trkpt lat="59.111079" lon="17.405089">
        <ele>68</ele>
        <time>2020-03-26T12:39:01Z</time>
        <extensions><gpxtpx:TrackPointExtension><gpxtpx:hr>152</gpxtpx:hr></gpxtpx:TrackPointExtension></extensions>
      </trkpt>
      <trkpt lat="59.111087" lon="17.405235">
        <ele>68</ele>
        <time>2020-03-26T12:39:02Z</time>
        <extensions><gpxtpx:TrackPointExtension><gpxtpx:hr>152</gpxtpx:hr></gpxtpx:TrackPointExtension></extensions>
      </trkpt>
      <trkpt lat="59.111096" lon="17.405378">
        <ele>68.2</ele>
        <time>2020-03-26T12:39:03Z</time>
        <extensions><gpxtpx:TrackPointExtension><gpxtpx:hr>152</gpxtpx:hr></gpxtpx:TrackPointExtension></extensions>
      </trkpt>
      <trkpt lat="59.111105" lon="17.405521">
        <ele>68.2</ele>
        <time>2020-03-26T12:39:04Z</time>
        <extensions><gpxtpx:TrackPointExtension><gpxtpx:hr>152</gpxtpx:hr></gpxtpx:TrackPointExtension></extensions>
      </trkpt>
      <trkpt lat="59.111116" lon="17.405663">
        <ele>68.2</ele>
        <time>2020-03-26T12:39:05Z</time>
        <extensions><gpxtpx:TrackPointExtension><gpxtpx:hr>153</gpxtpx:hr></gpxtpx:TrackPointExtension></extensions>
      </trkpt>
      <trkpt lat="59.111131" lon="17.405806">
        <ele>68.4</ele>
        <time>2020-03-26T12:39:06Z</time>
        <extensions><gpxtpx:TrackPointExtension><gpxtpx:hr>153</gpxtpx:hr></gpxtpx:TrackPointExtension></extensions>
      </trkpt>
      <trkpt lat="59.11115" lon="17.405948">
        <ele>68.4</ele>
        <time>2020-03-26T12:39:07Z</time>
        <extensions><gpxtpx:TrackPointExtension><gpxtpx:hr>154</gpxtpx:hr></gpxtpx:TrackPointExtension></extensions>
      </trkpt>
      <trkpt lat="59.111172" lon="17.406088">
        <ele>68.6</ele>
        <time>2020-03-26T12:39:08Z</time>
        <extensions><gpxtpx:TrackPointExtension><gpxtpx:hr>154</gpxtpx:hr></gpxtpx:TrackPointExtension></extensions>
      </trkpt>
      <trkpt lat="59.111195" lon="17.406226">
        <ele>68.6</ele>
        <time>2020-03-26T12:39:09Z</time>
        <extensions><gpxtpx:TrackPointExtension><gpxtpx:hr>155</gpxtpx:hr></gpxtpx:TrackPointExtension></extensions>
      </trkpt>
      <trkpt lat="59.111218" lon="17.406365">
        <ele>69</ele>
        <time>2020-03-26T12:39:10Z</time>
        <extensions><gpxtpx:TrackPointExtension><gpxtpx:hr>155</gpxtpx:hr></gpxtpx:TrackPointExtension></extensions>
      </trkpt>
      <trkpt lat="59.11124" lon="17.406504">
        <ele>69.2</ele>
        <time>2020-03-26T12:39:11Z</time>
        <extensions><gpxtpx:TrackPointExtension><gpxtpx:hr>156</gpxtpx:hr></gpxtpx:TrackPointExtension></extensions>
      </trkpt>
      <trkpt lat="59.111263" lon="17.406645">
        <ele>69.6</ele>
        <time>2020-03-26T12:39:12Z</time>
        <extensions><gpxtpx:TrackPointExtension><gpxtpx:hr>156</gpxtpx:hr></gpxtpx:TrackPointExtension></extensions>
      </trkpt>
      <trkpt lat="59.111284" lon="17.406788">
        <ele>70</ele>
        <time>2020-03-26T12:39:13Z</time>
        <extensions><gpxtpx:TrackPointExtension><gpxtpx:hr>156</gpxtpx:hr></gpxtpx:TrackPointExtension></extensions>
      </trkpt>
      <trkpt lat="59.111306" lon="17.406933">
        <ele>70.2</ele>
        <time>2020-03-26T12:39:14Z</time>
        <extensions><gpxtpx:TrackPointExtension><gpxtpx:hr>157</gpxtpx:hr></gpxtpx:TrackPointExtension></extensions>
      </trkpt>
      <trkpt lat="59.111327" lon="17.407082">
        <ele>70.2</ele>
        <time>2020-03-26T12:39:15Z</time>
        <extensions><gpxtpx:TrackPointExtension><gpxtpx:hr>157</gpxtpx:hr></gpxtpx:TrackPointExtension></extensions>
      </trkpt>
      <trkpt lat="59.111349" lon="17.407232">
        <ele>70</ele>
        <time>2020-03-26T12:39:16Z</time>
        <extensions><gpxtpx:TrackPointExtension><gpxtpx:hr>157</gpxtpx:hr></gpxtpx:TrackPointExtension></extensions>
      </trkpt>
      <trkpt lat="59.111373" lon="17.407382">
        <ele>70</ele>
        <time>2020-03-26T12:39:17Z</time>
        <extensions><gpxtpx:TrackPointExtension><gpxtpx:hr>157</gpxtpx:hr></gpxtpx:TrackPointExtension></extensions>
      </trkpt>
      <trkpt lat="59.111402" lon="17.407531">
        <ele>70</ele>
        <time>2020-03-26T12:39:18Z</time>
        <extensions><gpxtpx:TrackPointExtension><gpxtpx:hr>157</gpxtpx:hr></gpxtpx:TrackPointExtension></extensions>
      </trkpt>
      <trkpt lat="59.111434" lon="17.407677">
        <ele>70</ele>
        <time>2020-03-26T12:39:19Z</time>
        <extensions><gpxtpx:TrackPointExtension><gpxtpx:hr>157</gpxtpx:hr></gpxtpx:TrackPointExtension></extensions>
      </trkpt>
      <trkpt lat="59.11147" lon="17.407817">
        <ele>70</ele>
        <time>2020-03-26T12:39:20Z</time>
        <extensions><gpxtpx:TrackPointExtension><gpxtpx:hr>157</gpxtpx:hr></gpxtpx:TrackPointExtension></extensions>
      </trkpt>
      <trkpt lat="59.111501" lon="17.40795">
        <ele>70</ele>
        <time>2020-03-26T12:39:21Z</time>
        <extensions><gpxtpx:TrackPointExtension><gpxtpx:hr>158</gpxtpx:hr></gpxtpx:TrackPointExtension></extensions>
      </trkpt>
      <trkpt lat="59.111535" lon="17.40808">
        <ele>70</ele>
        <time>2020-03-26T12:39:22Z</time>
        <extensions><gpxtpx:TrackPointExtension><gpxtpx:hr>158</gpxtpx:hr></gpxtpx:TrackPointExtension></extensions>
      </trkpt>
      <trkpt lat="59.111574" lon="17.408212">
        <ele>70</ele>
        <time>2020-03-26T12:39:23Z</time>
        <extensions><gpxtpx:TrackPointExtension><gpxtpx:hr>158</gpxtpx:hr></gpxtpx:TrackPointExtension></extensions>
      </trkpt>
      <trkpt lat="59.111613" lon="17.408343">
        <ele>70</ele>
        <time>2020-03-26T12:39:24Z</time>
        <extensions><gpxtpx:TrackPointExtension><gpxtpx:hr>159</gpxtpx:hr></gpxtpx:TrackPointExtension></extensions>
      </trkpt>
      <trkpt lat="59.111651" lon="17.408476">
        <ele>70</ele>
        <time>2020-03-26T12:39:25Z</time>
        <extensions><gpxtpx:TrackPointExtension><gpxtpx:hr>159</gpxtpx:hr></gpxtpx:TrackPointExtension></extensions>
      </trkpt>
      <trkpt lat="59.111686" lon="17.408613">
        <ele>70</ele>
        <time>2020-03-26T12:39:26Z</time>
        <extensions><gpxtpx:TrackPointExtension><gpxtpx:hr>159</gpxtpx:hr></gpxtpx:TrackPointExtension></extensions>
      </trkpt>
      <trkpt lat="59.111717" lon="17.408756">
        <ele>69.8</ele>
        <time>2020-03-26T12:39:27Z</time>
        <extensions><gpxtpx:TrackPointExtension><gpxtpx:hr>159</gpxtpx:hr></gpxtpx:TrackPointExtension></extensions>
      </trkpt>
      <trkpt lat="59.111744" lon="17.408899">
        <ele>69.8</ele>
        <time>2020-03-26T12:39:28Z</time>
        <extensions><gpxtpx:TrackPointExtension><gpxtpx:hr>159</gpxtpx:hr></gpxtpx:TrackPointExtension></extensions>
      </trkpt>
      <trkpt lat="59.111766" lon="17.409044">
        <ele>69.6</ele>
        <time>2020-03-26T12:39:29Z</time>
        <extensions><gpxtpx:TrackPointExtension><gpxtpx:hr>160</gpxtpx:hr></gpxtpx:TrackPointExtension></extensions>
      </trkpt>
      <trkpt lat="59.111785" lon="17.409191">
        <ele>69.4</ele>
        <time>2020-03-26T12:39:30Z</time>
        <extensions><gpxtpx:TrackPointExtension><gpxtpx:hr>160</gpxtpx:hr></gpxtpx:TrackPointExtension></extensions>
      </trkpt>
      <trkpt lat="59.111799" lon="17.40934">
        <ele>69.4</ele>
        <time>2020-03-26T12:39:31Z</time>
        <extensions><gpxtpx:TrackPointExtension><gpxtpx:hr>160</gpxtpx:hr></gpxtpx:TrackPointExtension></extensions>
      </trkpt>
      <trkpt lat="59.111813" lon="17.409491">
        <ele>69.4</ele>
        <time>2020-03-26T12:39:32Z</time>
        <extensions><gpxtpx:TrackPointExtension><gpxtpx:hr>160</gpxtpx:hr></gpxtpx:TrackPointExtension></extensions>
      </trkpt>
      <trkpt lat="59.11183" lon="17.409636">
        <ele>69.4</ele>
        <time>2020-03-26T12:39:33Z</time>
        <extensions><gpxtpx:TrackPointExtension><gpxtpx:hr>160</gpxtpx:hr></gpxtpx:TrackPointExtension></extensions>
      </trkpt>
      <trkpt lat="59.111856" lon="17.409774">
        <ele>69.4</ele>
        <time>2020-03-26T12:39:34Z</time>
        <extensions><gpxtpx:TrackPointExtension><gpxtpx:hr>160</gpxtpx:hr></gpxtpx:TrackPointExtension></extensions>
      </trkpt>
      <trkpt lat="59.111888" lon="17.409905">
        <ele>69.4</ele>
        <time>2020-03-26T12:39:35Z</time>
        <extensions><gpxtpx:TrackPointExtension><gpxtpx:hr>160</gpxtpx:hr></gpxtpx:TrackPointExtension></extensions>
      </trkpt>
      <trkpt lat="59.111925" lon="17.410035">
        <ele>69.6</ele>
        <time>2020-03-26T12:39:36Z</time>
        <extensions><gpxtpx:TrackPointExtension><gpxtpx:hr>160</gpxtpx:hr></gpxtpx:TrackPointExtension></extensions>
      </trkpt>
      <trkpt lat="59.111973" lon="17.410156">
        <ele>69.6</ele>
        <time>2020-03-26T12:39:37Z</time>
        <extensions><gpxtpx:TrackPointExtension><gpxtpx:hr>160</gpxtpx:hr></gpxtpx:TrackPointExtension></extensions>
      </trkpt>
      <trkpt lat="59.112023" lon="17.410272">
        <ele>69.8</ele>
        <time>2020-03-26T12:39:38Z</time>
        <extensions><gpxtpx:TrackPointExtension><gpxtpx:hr>160</gpxtpx:hr></gpxtpx:TrackPointExtension></extensions>
      </trkpt>
      <trkpt lat="59.112076" lon="17.410381">
        <ele>69.8</ele>
        <time>2020-03-26T12:39:39Z</time>
        <extensions><gpxtpx:TrackPointExtension><gpxtpx:hr>159</gpxtpx:hr></gpxtpx:TrackPointExtension></extensions>
      </trkpt>
      <trkpt lat="59.112127" lon="17.410487">
        <ele>69.8</ele>
        <time>2020-03-26T12:39:40Z</time>
        <extensions><gpxtpx:TrackPointExtension><gpxtpx:hr>159</gpxtpx:hr></gpxtpx:TrackPointExtension></extensions>
      </trkpt>
      <trkpt lat="59.112176" lon="17.410593">
        <ele>69.8</ele>
        <time>2020-03-26T12:39:41Z</time>
        <extensions><gpxtpx:TrackPointExtension><gpxtpx:hr>159</gpxtpx:hr></gpxtpx:TrackPointExtension></extensions>
      </trkpt>
      <trkpt lat="59.112224" lon="17.4107">
        <ele>69.8</ele>
        <time>2020-03-26T12:39:42Z</time>
        <extensions><gpxtpx:TrackPointExtension><gpxtpx:hr>158</gpxtpx:hr></gpxtpx:TrackPointExtension></extensions>
      </trkpt>
      <trkpt lat="59.112273" lon="17.410807">
        <ele>69.6</ele>
        <time>2020-03-26T12:39:43Z</time>
        <extensions><gpxtpx:TrackPointExtension><gpxtpx:hr>158</gpxtpx:hr></gpxtpx:TrackPointExtension></extensions>
      </trkpt>
      <trkpt lat="59.11232" lon="17.410916">
        <ele>69.6</ele>
        <time>2020-03-26T12:39:44Z</time>
        <extensions><gpxtpx:TrackPointExtension><gpxtpx:hr>158</gpxtpx:hr></gpxtpx:TrackPointExtension></extensions>
      </trkpt>
      <trkpt lat="59.112366" lon="17.411023">
        <ele>69.6</ele>
        <time>2020-03-26T12:39:45Z</time>
        <extensions><gpxtpx:TrackPointExtension><gpxtpx:hr>158</gpxtpx:hr></gpxtpx:TrackPointExtension></extensions>
      </trkpt>
      <trkpt lat="59.112413" lon="17.411125">
        <ele>69.8</ele>
        <time>2020-03-26T12:39:46Z</time>
        <extensions><gpxtpx:TrackPointExtension><gpxtpx:hr>158</gpxtpx:hr></gpxtpx:TrackPointExtension></extensions>
      </trkpt>
      <trkpt lat="59.112459" lon="17.41123">
        <ele>69.8</ele>
        <time>2020-03-26T12:39:47Z</time>
        <extensions><gpxtpx:TrackPointExtension><gpxtpx:hr>158</gpxtpx:hr></gpxtpx:TrackPointExtension></extensions>
      </trkpt>
      <trkpt lat="59.11251" lon="17.411333">
        <ele>69.8</ele>
        <time>2020-03-26T12:39:48Z</time>
        <extensions><gpxtpx:TrackPointExtension><gpxtpx:hr>159</gpxtpx:hr></gpxtpx:TrackPointExtension></extensions>
      </trkpt>
      <trkpt lat="59.112557" lon="17.411438">
        <ele>69.8</ele>
        <time>2020-03-26T12:39:49Z</time>
        <extensions><gpxtpx:TrackPointExtension><gpxtpx:hr>158</gpxtpx:hr></gpxtpx:TrackPointExtension></extensions>
      </trkpt>
      <trkpt lat="59.112606" lon="17.411545">
        <ele>69.8</ele>
        <time>2020-03-26T12:39:50Z</time>
        <extensions><gpxtpx:TrackPointExtension><gpxtpx:hr>158</gpxtpx:hr></gpxtpx:TrackPointExtension></extensions>
      </trkpt>
      <trkpt lat="59.112658" lon="17.411654">
        <ele>69.8</ele>
        <time>2020-03-26T12:39:51Z</time>
        <extensions><gpxtpx:TrackPointExtension><gpxtpx:hr>158</gpxtpx:hr></gpxtpx:TrackPointExtension></extensions>
      </trkpt>
      <trkpt lat="59.112706" lon="17.41176">
        <ele>69.8</ele>
        <time>2020-03-26T12:39:52Z</time>
        <extensions><gpxtpx:TrackPointExtension><gpxtpx:hr>157</gpxtpx:hr></gpxtpx:TrackPointExtension></extensions>
      </trkpt>
      <trkpt lat="59.112768" lon="17.411869">
        <ele>69.8</ele>
        <time>2020-03-26T12:39:53Z</time>
        <extensions><gpxtpx:TrackPointExtension><gpxtpx:hr>157</gpxtpx:hr></gpxtpx:TrackPointExtension></extensions>
      </trkpt>
      <trkpt lat="59.112818" lon="17.411978">
        <ele>69.8</ele>
        <time>2020-03-26T12:39:54Z</time>
        <extensions><gpxtpx:TrackPointExtension><gpxtpx:hr>156</gpxtpx:hr></gpxtpx:TrackPointExtension></extensions>
      </trkpt>
      <trkpt lat="59.112867" lon="17.412092">
        <ele>69.8</ele>
        <time>2020-03-26T12:39:55Z</time>
        <extensions><gpxtpx:TrackPointExtension><gpxtpx:hr>156</gpxtpx:hr></gpxtpx:TrackPointExtension></extensions>
      </trkpt>
      <trkpt lat="59.112916" lon="17.412209">
        <ele>69.8</ele>
        <time>2020-03-26T12:39:56Z</time>
        <extensions><gpxtpx:TrackPointExtension><gpxtpx:hr>156</gpxtpx:hr></gpxtpx:TrackPointExtension></extensions>
      </trkpt>
      <trkpt lat="59.112963" lon="17.412323">
        <ele>69.8</ele>
        <time>2020-03-26T12:39:57Z</time>
        <extensions><gpxtpx:TrackPointExtension><gpxtpx:hr>155</gpxtpx:hr></gpxtpx:TrackPointExtension></extensions>
      </trkpt>
      <trkpt lat="59.113006" lon="17.41244">
        <ele>69.8</ele>
        <time>2020-03-26T12:39:58Z</time>
        <extensions><gpxtpx:TrackPointExtension><gpxtpx:hr>155</gpxtpx:hr></gpxtpx:TrackPointExtension></extensions>
      </trkpt>
      <trkpt lat="59.113051" lon="17.412559">
        <ele>69.8</ele>
        <time>2020-03-26T12:39:59Z</time>
        <extensions><gpxtpx:TrackPointExtension><gpxtpx:hr>155</gpxtpx:hr></gpxtpx:TrackPointExtension></extensions>
      </trkpt>
      <trkpt lat="59.113098" lon="17.41268">
        <ele>69.8</ele>
        <time>2020-03-26T12:40:00Z</time>
        <extensions><gpxtpx:TrackPointExtension><gpxtpx:hr>154</gpxtpx:hr></gpxtpx:TrackPointExtension></extensions>
      </trkpt>
      <trkpt lat="59.113139" lon="17.412807">
        <ele>70</ele>
        <time>2020-03-26T12:40:01Z</time>
        <extensions><gpxtpx:TrackPointExtension><gpxtpx:hr>154</gpxtpx:hr></gpxtpx:TrackPointExtension></extensions>
      </trkpt>
      <trkpt lat="59.11318" lon="17.412938">
        <ele>70</ele>
        <time>2020-03-26T12:40:02Z</time>
        <extensions><gpxtpx:TrackPointExtension><gpxtpx:hr>153</gpxtpx:hr></gpxtpx:TrackPointExtension></extensions>
      </trkpt>
      <trkpt lat="59.113221" lon="17.41307">
        <ele>70</ele>
        <time>2020-03-26T12:40:03Z</time>
        <extensions><gpxtpx:TrackPointExtension><gpxtpx:hr>153</gpxtpx:hr></gpxtpx:TrackPointExtension></extensions>
      </trkpt>
      <trkpt lat="59.113261" lon="17.413204">
        <ele>70</ele>
        <time>2020-03-26T12:40:04Z</time>
        <extensions><gpxtpx:TrackPointExtension><gpxtpx:hr>153</gpxtpx:hr></gpxtpx:TrackPointExtension></extensions>
      </trkpt>
      <trkpt lat="59.113297" lon="17.41334">
        <ele>70.2</ele>
        <time>2020-03-26T12:40:05Z</time>
        <extensions><gpxtpx:TrackPointExtension><gpxtpx:hr>152</gpxtpx:hr></gpxtpx:TrackPointExtension></extensions>
      </trkpt>
      <trkpt lat="59.113338" lon="17.413475">
        <ele>70.2</ele>
        <time>2020-03-26T12:40:06Z</time>
        <extensions><gpxtpx:TrackPointExtension><gpxtpx:hr>152</gpxtpx:hr></gpxtpx:TrackPointExtension></extensions>
      </trkpt>
      <trkpt lat="59.113374" lon="17.41361">
        <ele>70.4</ele>
        <time>2020-03-26T12:40:07Z</time>
        <extensions><gpxtpx:TrackPointExtension><gpxtpx:hr>152</gpxtpx:hr></gpxtpx:TrackPointExtension></extensions>
      </trkpt>
      <trkpt lat="59.113409" lon="17.41375">
        <ele>70.4</ele>
        <time>2020-03-26T12:40:08Z</time>
        <extensions><gpxtpx:TrackPointExtension><gpxtpx:hr>152</gpxtpx:hr></gpxtpx:TrackPointExtension></extensions>
      </trkpt>
      <trkpt lat="59.113443" lon="17.413893">
        <ele>70.4</ele>
        <time>2020-03-26T12:40:09Z</time>
        <extensions><gpxtpx:TrackPointExtension><gpxtpx:hr>152</gpxtpx:hr></gpxtpx:TrackPointExtension></extensions>
      </trkpt>
      <trkpt lat="59.113475" lon="17.414039">
        <ele>70.4</ele>
        <time>2020-03-26T12:40:10Z</time>
        <extensions><gpxtpx:TrackPointExtension><gpxtpx:hr>153</gpxtpx:hr></gpxtpx:TrackPointExtension></extensions>
      </trkpt>
      <trkpt lat="59.113506" lon="17.414193">
        <ele>70.4</ele>
        <time>2020-03-26T12:40:11Z</time>
        <extensions><gpxtpx:TrackPointExtension><gpxtpx:hr>153</gpxtpx:hr></gpxtpx:TrackPointExtension></extensions>
      </trkpt>
      <trkpt lat="59.113537" lon="17.414346">
        <ele>70.4</ele>
        <time>2020-03-26T12:40:12Z</time>
        <extensions><gpxtpx:TrackPointExtension><gpxtpx:hr>153</gpxtpx:hr></gpxtpx:TrackPointExtension></extensions>
      </trkpt>
      <trkpt lat="59.113559" lon="17.414497">
        <ele>70.4</ele>
        <time>2020-03-26T12:40:13Z</time>
        <extensions><gpxtpx:TrackPointExtension><gpxtpx:hr>153</gpxtpx:hr></gpxtpx:TrackPointExtension></extensions>
      </trkpt>
      <trkpt lat="59.113588" lon="17.414648">
        <ele>70.4</ele>
        <time>2020-03-26T12:40:14Z</time>
        <extensions><gpxtpx:TrackPointExtension><gpxtpx:hr>153</gpxtpx:hr></gpxtpx:TrackPointExtension></extensions>
      </trkpt>
      <trkpt lat="59.113615" lon="17.414794">
        <ele>70.4</ele>
        <time>2020-03-26T12:40:15Z</time>
        <extensions><gpxtpx:TrackPointExtension><gpxtpx:hr>153</gpxtpx:hr></gpxtpx:TrackPointExtension></extensions>
      </trkpt>
      <trkpt lat="59.113645" lon="17.414944">
        <ele>70.4</ele>
        <time>2020-03-26T12:40:16Z</time>
        <extensions><gpxtpx:TrackPointExtension><gpxtpx:hr>152</gpxtpx:hr></gpxtpx:TrackPointExtension></extensions>
      </trkpt>
      <trkpt lat="59.113677" lon="17.415093">
        <ele>70.4</ele>
        <time>2020-03-26T12:40:17Z</time>
        <extensions><gpxtpx:TrackPointExtension><gpxtpx:hr>152</gpxtpx:hr></gpxtpx:TrackPointExtension></extensions>
      </trkpt>
      <trkpt lat="59.113708" lon="17.41524">
        <ele>70.4</ele>
        <time>2020-03-26T12:40:18Z</time>
        <extensions><gpxtpx:TrackPointExtension><gpxtpx:hr>152</gpxtpx:hr></gpxtpx:TrackPointExtension></extensions>
      </trkpt>
      <trkpt lat="59.113738" lon="17.415391">
        <ele>70.2</ele>
        <time>2020-03-26T12:40:19Z</time>
        <extensions><gpxtpx:TrackPointExtension><gpxtpx:hr>152</gpxtpx:hr></gpxtpx:TrackPointExtension></extensions>
      </trkpt>
      <trkpt lat="59.113769" lon="17.415538">
        <ele>70.2</ele>
        <time>2020-03-26T12:40:20Z</time>
        <extensions><gpxtpx:TrackPointExtension><gpxtpx:hr>152</gpxtpx:hr></gpxtpx:TrackPointExtension></extensions>
      </trkpt>
      <trkpt lat="59.1138" lon="17.415687">
        <ele>70.2</ele>
        <time>2020-03-26T12:40:21Z</time>
        <extensions><gpxtpx:TrackPointExtension><gpxtpx:hr>152</gpxtpx:hr></gpxtpx:TrackPointExtension></extensions>
      </trkpt>
      <trkpt lat="59.113834" lon="17.415842">
        <ele>70.2</ele>
        <time>2020-03-26T12:40:22Z</time>
        <extensions><gpxtpx:TrackPointExtension><gpxtpx:hr>152</gpxtpx:hr></gpxtpx:TrackPointExtension></extensions>
      </trkpt>
      <trkpt lat="59.113868" lon="17.415997">
        <ele>70</ele>
        <time>2020-03-26T12:40:23Z</time>
        <extensions><gpxtpx:TrackPointExtension><gpxtpx:hr>152</gpxtpx:hr></gpxtpx:TrackPointExtension></extensions>
      </trkpt>
      <trkpt lat="59.113902" lon="17.416149">
        <ele>70</ele>
        <time>2020-03-26T12:40:24Z</time>
        <extensions><gpxtpx:TrackPointExtension><gpxtpx:hr>152</gpxtpx:hr></gpxtpx:TrackPointExtension></extensions>
      </trkpt>
      <trkpt lat="59.113935" lon="17.416308">
        <ele>70</ele>
        <time>2020-03-26T12:40:25Z</time>
        <extensions><gpxtpx:TrackPointExtension><gpxtpx:hr>151</gpxtpx:hr></gpxtpx:TrackPointExtension></extensions>
      </trkpt>
      <trkpt lat="59.113968" lon="17.416468">
        <ele>69.8</ele>
        <time>2020-03-26T12:40:26Z</time>
        <extensions><gpxtpx:TrackPointExtension><gpxtpx:hr>151</gpxtpx:hr></gpxtpx:TrackPointExtension></extensions>
      </trkpt>
      <trkpt lat="59.114001" lon="17.41664">
        <ele>69.8</ele>
        <time>2020-03-26T12:40:27Z</time>
        <extensions><gpxtpx:TrackPointExtension><gpxtpx:hr>151</gpxtpx:hr></gpxtpx:TrackPointExtension></extensions>
      </trkpt>
      <trkpt lat="59.114032" lon="17.416822">
        <ele>69.8</ele>
        <time>2020-03-26T12:40:28Z</time>
        <extensions><gpxtpx:TrackPointExtension><gpxtpx:hr>150</gpxtpx:hr></gpxtpx:TrackPointExtension></extensions>
      </trkpt>
      <trkpt lat="59.114059" lon="17.417005">
        <ele>69.6</ele>
        <time>2020-03-26T12:40:29Z</time>
        <extensions><gpxtpx:TrackPointExtension><gpxtpx:hr>150</gpxtpx:hr></gpxtpx:TrackPointExtension></extensions>
      </trkpt>
      <trkpt lat="59.114081" lon="17.417196">
        <ele>69.6</ele>
        <time>2020-03-26T12:40:30Z</time>
        <extensions><gpxtpx:TrackPointExtension><gpxtpx:hr>150</gpxtpx:hr></gpxtpx:TrackPointExtension></extensions>
      </trkpt>
      <trkpt lat="59.114095" lon="17.417383">
        <ele>69.6</ele>
        <time>2020-03-26T12:40:31Z</time>
        <extensions><gpxtpx:TrackPointExtension><gpxtpx:hr>150</gpxtpx:hr></gpxtpx:TrackPointExtension></extensions>
      </trkpt>
      <trkpt lat="59.114105" lon="17.417574">
        <ele>69.4</ele>
        <time>2020-03-26T12:40:32Z</time>
        <extensions><gpxtpx:TrackPointExtension><gpxtpx:hr>150</gpxtpx:hr></gpxtpx:TrackPointExtension></extensions>
      </trkpt>
      <trkpt lat="59.114111" lon="17.417759">
        <ele>69.4</ele>
        <time>2020-03-26T12:40:33Z</time>
        <extensions><gpxtpx:TrackPointExtension><gpxtpx:hr>150</gpxtpx:hr></gpxtpx:TrackPointExtension></extensions>
      </trkpt>
      <trkpt lat="59.114115" lon="17.417941">
        <ele>69.2</ele>
        <time>2020-03-26T12:40:34Z</time>
        <extensions><gpxtpx:TrackPointExtension><gpxtpx:hr>150</gpxtpx:hr></gpxtpx:TrackPointExtension></extensions>
      </trkpt>
      <trkpt lat="59.11412" lon="17.418125">
        <ele>69</ele>
        <time>2020-03-26T12:40:35Z</time>
        <extensions><gpxtpx:TrackPointExtension><gpxtpx:hr>150</gpxtpx:hr></gpxtpx:TrackPointExtension></extensions>
      </trkpt>
      <trkpt lat="59.114127" lon="17.418306">
        <ele>68.6</ele>
        <time>2020-03-26T12:40:36Z</time>
        <extensions><gpxtpx:TrackPointExtension><gpxtpx:hr>150</gpxtpx:hr></gpxtpx:TrackPointExtension></extensions>
      </trkpt>
      <trkpt lat="59.114135" lon="17.418482">
        <ele>68.2</ele>
        <time>2020-03-26T12:40:37Z</time>
        <extensions><gpxtpx:TrackPointExtension><gpxtpx:hr>149</gpxtpx:hr></gpxtpx:TrackPointExtension></extensions>
      </trkpt>
      <trkpt lat="59.114149" lon="17.418651">
        <ele>67.6</ele>
        <time>2020-03-26T12:40:38Z</time>
        <extensions><gpxtpx:TrackPointExtension><gpxtpx:hr>149</gpxtpx:hr></gpxtpx:TrackPointExtension></extensions>
      </trkpt>
      <trkpt lat="59.114169" lon="17.418815">
        <ele>67.2</ele>
        <time>2020-03-26T12:40:39Z</time>
        <extensions><gpxtpx:TrackPointExtension><gpxtpx:hr>148</gpxtpx:hr></gpxtpx:TrackPointExtension></extensions>
      </trkpt>
      <trkpt lat="59.114196" lon="17.418972">
        <ele>67</ele>
        <time>2020-03-26T12:40:40Z</time>
        <extensions><gpxtpx:TrackPointExtension><gpxtpx:hr>147</gpxtpx:hr></gpxtpx:TrackPointExtension></extensions>
      </trkpt>
      <trkpt lat="59.114227" lon="17.41913">
        <ele>66.6</ele>
        <time>2020-03-26T12:40:41Z</time>
        <extensions><gpxtpx:TrackPointExtension><gpxtpx:hr>147</gpxtpx:hr></gpxtpx:TrackPointExtension></extensions>
      </trkpt>
      <trkpt lat="59.114257" lon="17.419287">
        <ele>66.6</ele>
        <time>2020-03-26T12:40:42Z</time>
        <extensions><gpxtpx:TrackPointExtension><gpxtpx:hr>147</gpxtpx:hr></gpxtpx:TrackPointExtension></extensions>
      </trkpt>
      <trkpt lat="59.114285" lon="17.419445">
        <ele>66.6</ele>
        <time>2020-03-26T12:40:43Z</time>
        <extensions><gpxtpx:TrackPointExtension><gpxtpx:hr>147</gpxtpx:hr></gpxtpx:TrackPointExtension></extensions>
      </trkpt>
      <trkpt lat="59.114313" lon="17.419603">
        <ele>66.4</ele>
        <time>2020-03-26T12:40:44Z</time>
        <extensions><gpxtpx:TrackPointExtension><gpxtpx:hr>148</gpxtpx:hr></gpxtpx:TrackPointExtension></extensions>
      </trkpt>
      <trkpt lat="59.11434" lon="17.419763">
        <ele>66.4</ele>
        <time>2020-03-26T12:40:45Z</time>
        <extensions><gpxtpx:TrackPointExtension><gpxtpx:hr>148</gpxtpx:hr></gpxtpx:TrackPointExtension></extensions>
      </trkpt>
      <trkpt lat="59.114366" lon="17.419917">
        <ele>66.4</ele>
        <time>2020-03-26T12:40:46Z</time>
        <extensions><gpxtpx:TrackPointExtension><gpxtpx:hr>149</gpxtpx:hr></gpxtpx:TrackPointExtension></extensions>
      </trkpt>
      <trkpt lat="59.114389" lon="17.420069">
        <ele>66.4</ele>
        <time>2020-03-26T12:40:47Z</time>
        <extensions><gpxtpx:TrackPointExtension><gpxtpx:hr>149</gpxtpx:hr></gpxtpx:TrackPointExtension></extensions>
      </trkpt>
      <trkpt lat="59.114406" lon="17.420217">
        <ele>66.4</ele>
        <time>2020-03-26T12:40:48Z</time>
        <extensions><gpxtpx:TrackPointExtension><gpxtpx:hr>148</gpxtpx:hr></gpxtpx:TrackPointExtension></extensions>
      </trkpt>
      <trkpt lat="59.114419" lon="17.420361">
        <ele>66.4</ele>
        <time>2020-03-26T12:40:49Z</time>
        <extensions><gpxtpx:TrackPointExtension><gpxtpx:hr>148</gpxtpx:hr></gpxtpx:TrackPointExtension></extensions>
      </trkpt>
      <trkpt lat="59.114418" lon="17.420467">
        <ele>66.4</ele>
        <time>2020-03-26T12:40:50Z</time>
        <extensions><gpxtpx:TrackPointExtension><gpxtpx:hr>148</gpxtpx:hr></gpxtpx:TrackPointExtension></extensions>
      </trkpt>
      <trkpt lat="59.114417" lon="17.420572">
        <ele>66.4</ele>
        <time>2020-03-26T12:40:51Z</time>
        <extensions><gpxtpx:TrackPointExtension><gpxtpx:hr>148</gpxtpx:hr></gpxtpx:TrackPointExtension></extensions>
      </trkpt>
      <trkpt lat="59.114415" lon="17.420782">
        <ele>66.4</ele>
        <time>2020-03-26T12:40:52Z</time>
        <extensions><gpxtpx:TrackPointExtension><gpxtpx:hr>149</gpxtpx:hr></gpxtpx:TrackPointExtension></extensions>
      </trkpt>
      <trkpt lat="59.114409" lon="17.420919">
        <ele>66.6</ele>
        <time>2020-03-26T12:40:53Z</time>
        <extensions><gpxtpx:TrackPointExtension><gpxtpx:hr>149</gpxtpx:hr></gpxtpx:TrackPointExtension></extensions>
      </trkpt>
      <trkpt lat="59.114407" lon="17.421052">
        <ele>66.6</ele>
        <time>2020-03-26T12:40:54Z</time>
        <extensions><gpxtpx:TrackPointExtension><gpxtpx:hr>149</gpxtpx:hr></gpxtpx:TrackPointExtension></extensions>
      </trkpt>
      <trkpt lat="59.114412" lon="17.421182">
        <ele>66.8</ele>
        <time>2020-03-26T12:40:55Z</time>
        <extensions><gpxtpx:TrackPointExtension><gpxtpx:hr>149</gpxtpx:hr></gpxtpx:TrackPointExtension></extensions>
      </trkpt>
      <trkpt lat="59.114424" lon="17.421305">
        <ele>67.2</ele>
        <time>2020-03-26T12:40:56Z</time>
        <extensions><gpxtpx:TrackPointExtension><gpxtpx:hr>149</gpxtpx:hr></gpxtpx:TrackPointExtension></extensions>
      </trkpt>
      <trkpt lat="59.114442" lon="17.421426">
        <ele>67.8</ele>
        <time>2020-03-26T12:40:57Z</time>
        <extensions><gpxtpx:TrackPointExtension><gpxtpx:hr>149</gpxtpx:hr></gpxtpx:TrackPointExtension></extensions>
      </trkpt>
      <trkpt lat="59.114462" lon="17.421543">
        <ele>68</ele>
        <time>2020-03-26T12:40:58Z</time>
        <extensions><gpxtpx:TrackPointExtension><gpxtpx:hr>149</gpxtpx:hr></gpxtpx:TrackPointExtension></extensions>
      </trkpt>
      <trkpt lat="59.114483" lon="17.421656">
        <ele>68.6</ele>
        <time>2020-03-26T12:40:59Z</time>
        <extensions><gpxtpx:TrackPointExtension><gpxtpx:hr>149</gpxtpx:hr></gpxtpx:TrackPointExtension></extensions>
      </trkpt>
      <trkpt lat="59.1145" lon="17.421771">
        <ele>68.8</ele>
        <time>2020-03-26T12:41:00Z</time>
        <extensions><gpxtpx:TrackPointExtension><gpxtpx:hr>150</gpxtpx:hr></gpxtpx:TrackPointExtension></extensions>
      </trkpt>
      <trkpt lat="59.114509" lon="17.421889">
        <ele>69</ele>
        <time>2020-03-26T12:41:01Z</time>
        <extensions><gpxtpx:TrackPointExtension><gpxtpx:hr>150</gpxtpx:hr></gpxtpx:TrackPointExtension></extensions>
      </trkpt>
      <trkpt lat="59.114509" lon="17.422005">
        <ele>69.2</ele>
        <time>2020-03-26T12:41:02Z</time>
        <extensions><gpxtpx:TrackPointExtension><gpxtpx:hr>151</gpxtpx:hr></gpxtpx:TrackPointExtension></extensions>
      </trkpt>
      <trkpt lat="59.114497" lon="17.422115">
        <ele>69.4</ele>
        <time>2020-03-26T12:41:03Z</time>
        <extensions><gpxtpx:TrackPointExtension><gpxtpx:hr>151</gpxtpx:hr></gpxtpx:TrackPointExtension></extensions>
      </trkpt>
      <trkpt lat="59.114476" lon="17.422215">
        <ele>69.6</ele>
        <time>2020-03-26T12:41:04Z</time>
        <extensions><gpxtpx:TrackPointExtension><gpxtpx:hr>152</gpxtpx:hr></gpxtpx:TrackPointExtension></extensions>
      </trkpt>
      <trkpt lat="59.114439" lon="17.4223">
        <ele>70</ele>
        <time>2020-03-26T12:41:05Z</time>
        <extensions><gpxtpx:TrackPointExtension><gpxtpx:hr>152</gpxtpx:hr></gpxtpx:TrackPointExtension></extensions>
      </trkpt>
      <trkpt lat="59.114382" lon="17.422346">
        <ele>70.4</ele>
        <time>2020-03-26T12:41:06Z</time>
        <extensions><gpxtpx:TrackPointExtension><gpxtpx:hr>153</gpxtpx:hr></gpxtpx:TrackPointExtension></extensions>
      </trkpt>
      <trkpt lat="59.114327" lon="17.422385">
        <ele>70.6</ele>
        <time>2020-03-26T12:41:07Z</time>
        <extensions><gpxtpx:TrackPointExtension><gpxtpx:hr>153</gpxtpx:hr></gpxtpx:TrackPointExtension></extensions>
      </trkpt>
      <trkpt lat="59.114279" lon="17.42243">
        <ele>70.8</ele>
        <time>2020-03-26T12:41:08Z</time>
        <extensions><gpxtpx:TrackPointExtension><gpxtpx:hr>153</gpxtpx:hr></gpxtpx:TrackPointExtension></extensions>
      </trkpt>
      <trkpt lat="59.114234" lon="17.422486">
        <ele>70.8</ele>
        <time>2020-03-26T12:41:09Z</time>
        <extensions><gpxtpx:TrackPointExtension><gpxtpx:hr>153</gpxtpx:hr></gpxtpx:TrackPointExtension></extensions>
      </trkpt>
      <trkpt lat="59.11419" lon="17.422559">
        <ele>71.2</ele>
        <time>2020-03-26T12:41:10Z</time>
        <extensions><gpxtpx:TrackPointExtension><gpxtpx:hr>154</gpxtpx:hr></gpxtpx:TrackPointExtension></extensions>
      </trkpt>
      <trkpt lat="59.11415" lon="17.422644">
        <ele>71.4</ele>
        <time>2020-03-26T12:41:11Z</time>
        <extensions><gpxtpx:TrackPointExtension><gpxtpx:hr>154</gpxtpx:hr></gpxtpx:TrackPointExtension></extensions>
      </trkpt>
      <trkpt lat="59.114112" lon="17.422761">
        <ele>71.6</ele>
        <time>2020-03-26T12:41:12Z</time>
        <extensions><gpxtpx:TrackPointExtension><gpxtpx:hr>154</gpxtpx:hr></gpxtpx:TrackPointExtension></extensions>
      </trkpt>
      <trkpt lat="59.114086" lon="17.42288">
        <ele>71.8</ele>
        <time>2020-03-26T12:41:13Z</time>
        <extensions><gpxtpx:TrackPointExtension><gpxtpx:hr>154</gpxtpx:hr></gpxtpx:TrackPointExtension></extensions>
      </trkpt>
      <trkpt lat="59.114063" lon="17.423004">
        <ele>72.2</ele>
        <time>2020-03-26T12:41:14Z</time>
        <extensions><gpxtpx:TrackPointExtension><gpxtpx:hr>155</gpxtpx:hr></gpxtpx:TrackPointExtension></extensions>
      </trkpt>
      <trkpt lat="59.114043" lon="17.423127">
        <ele>72.4</ele>
        <time>2020-03-26T12:41:15Z</time>
        <extensions><gpxtpx:TrackPointExtension><gpxtpx:hr>156</gpxtpx:hr></gpxtpx:TrackPointExtension></extensions>
      </trkpt>
      <trkpt lat="59.114023" lon="17.423248">
        <ele>72.8</ele>
        <time>2020-03-26T12:41:16Z</time>
        <extensions><gpxtpx:TrackPointExtension><gpxtpx:hr>156</gpxtpx:hr></gpxtpx:TrackPointExtension></extensions>
      </trkpt>
      <trkpt lat="59.114004" lon="17.423374">
        <ele>73.2</ele>
        <time>2020-03-26T12:41:17Z</time>
        <extensions><gpxtpx:TrackPointExtension><gpxtpx:hr>157</gpxtpx:hr></gpxtpx:TrackPointExtension></extensions>
      </trkpt>
      <trkpt lat="59.113984" lon="17.4235">
        <ele>73.4</ele>
        <time>2020-03-26T12:41:18Z</time>
        <extensions><gpxtpx:TrackPointExtension><gpxtpx:hr>158</gpxtpx:hr></gpxtpx:TrackPointExtension></extensions>
      </trkpt>
      <trkpt lat="59.113964" lon="17.42363">
        <ele>73.6</ele>
        <time>2020-03-26T12:41:19Z</time>
        <extensions><gpxtpx:TrackPointExtension><gpxtpx:hr>158</gpxtpx:hr></gpxtpx:TrackPointExtension></extensions>
      </trkpt>
      <trkpt lat="59.113943" lon="17.423767">
        <ele>73.6</ele>
        <time>2020-03-26T12:41:20Z</time>
        <extensions><gpxtpx:TrackPointExtension><gpxtpx:hr>158</gpxtpx:hr></gpxtpx:TrackPointExtension></extensions>
      </trkpt>
      <trkpt lat="59.11392" lon="17.423907">
        <ele>73.6</ele>
        <time>2020-03-26T12:41:21Z</time>
        <extensions><gpxtpx:TrackPointExtension><gpxtpx:hr>159</gpxtpx:hr></gpxtpx:TrackPointExtension></extensions>
      </trkpt>
      <trkpt lat="59.113895" lon="17.424036">
        <ele>73.6</ele>
        <time>2020-03-26T12:41:22Z</time>
        <extensions><gpxtpx:TrackPointExtension><gpxtpx:hr>159</gpxtpx:hr></gpxtpx:TrackPointExtension></extensions>
      </trkpt>
      <trkpt lat="59.11387" lon="17.424178">
        <ele>73.6</ele>
        <time>2020-03-26T12:41:23Z</time>
        <extensions><gpxtpx:TrackPointExtension><gpxtpx:hr>160</gpxtpx:hr></gpxtpx:TrackPointExtension></extensions>
      </trkpt>
      <trkpt lat="59.113845" lon="17.424323">
        <ele>73.6</ele>
        <time>2020-03-26T12:41:24Z</time>
        <extensions><gpxtpx:TrackPointExtension><gpxtpx:hr>160</gpxtpx:hr></gpxtpx:TrackPointExtension></extensions>
      </trkpt>
      <trkpt lat="59.11382" lon="17.424473">
        <ele>73.6</ele>
        <time>2020-03-26T12:41:25Z</time>
        <extensions><gpxtpx:TrackPointExtension><gpxtpx:hr>160</gpxtpx:hr></gpxtpx:TrackPointExtension></extensions>
      </trkpt>
      <trkpt lat="59.113792" lon="17.42463">
        <ele>73.6</ele>
        <time>2020-03-26T12:41:26Z</time>
        <extensions><gpxtpx:TrackPointExtension><gpxtpx:hr>159</gpxtpx:hr></gpxtpx:TrackPointExtension></extensions>
      </trkpt>
      <trkpt lat="59.113761" lon="17.424791">
        <ele>73.6</ele>
        <time>2020-03-26T12:41:27Z</time>
        <extensions><gpxtpx:TrackPointExtension><gpxtpx:hr>159</gpxtpx:hr></gpxtpx:TrackPointExtension></extensions>
      </trkpt>
      <trkpt lat="59.113726" lon="17.42496">
        <ele>73.4</ele>
        <time>2020-03-26T12:41:28Z</time>
        <extensions><gpxtpx:TrackPointExtension><gpxtpx:hr>159</gpxtpx:hr></gpxtpx:TrackPointExtension></extensions>
      </trkpt>
      <trkpt lat="59.113691" lon="17.425136">
        <ele>73.4</ele>
        <time>2020-03-26T12:41:29Z</time>
        <extensions><gpxtpx:TrackPointExtension><gpxtpx:hr>159</gpxtpx:hr></gpxtpx:TrackPointExtension></extensions>
      </trkpt>
      <trkpt lat="59.113654" lon="17.425322">
        <ele>73.2</ele>
        <time>2020-03-26T12:41:30Z</time>
        <extensions><gpxtpx:TrackPointExtension><gpxtpx:hr>159</gpxtpx:hr></gpxtpx:TrackPointExtension></extensions>
      </trkpt>
      <trkpt lat="59.113615" lon="17.425515">
        <ele>72.8</ele>
        <time>2020-03-26T12:41:31Z</time>
        <extensions><gpxtpx:TrackPointExtension><gpxtpx:hr>158</gpxtpx:hr></gpxtpx:TrackPointExtension></extensions>
      </trkpt>
      <trkpt lat="59.113573" lon="17.425707">
        <ele>72.6</ele>
        <time>2020-03-26T12:41:32Z</time>
        <extensions><gpxtpx:TrackPointExtension><gpxtpx:hr>158</gpxtpx:hr></gpxtpx:TrackPointExtension></extensions>
      </trkpt>
      <trkpt lat="59.113526" lon="17.425906">
        <ele>72.2</ele>
        <time>2020-03-26T12:41:33Z</time>
        <extensions><gpxtpx:TrackPointExtension><gpxtpx:hr>157</gpxtpx:hr></gpxtpx:TrackPointExtension></extensions>
      </trkpt>
      <trkpt lat="59.113476" lon="17.426096">
        <ele>71.6</ele>
        <time>2020-03-26T12:41:34Z</time>
        <extensions><gpxtpx:TrackPointExtension><gpxtpx:hr>156</gpxtpx:hr></gpxtpx:TrackPointExtension></extensions>
      </trkpt>
      <trkpt lat="59.113422" lon="17.426266">
        <ele>71</ele>
        <time>2020-03-26T12:41:35Z</time>
        <extensions><gpxtpx:TrackPointExtension><gpxtpx:hr>155</gpxtpx:hr></gpxtpx:TrackPointExtension></extensions>
      </trkpt>
      <trkpt lat="59.113366" lon="17.426427">
        <ele>70</ele>
        <time>2020-03-26T12:41:36Z</time>
        <extensions><gpxtpx:TrackPointExtension><gpxtpx:hr>154</gpxtpx:hr></gpxtpx:TrackPointExtension></extensions>
      </trkpt>
      <trkpt lat="59.113307" lon="17.42657">
        <ele>68.8</ele>
        <time>2020-03-26T12:41:37Z</time>
        <extensions><gpxtpx:TrackPointExtension><gpxtpx:hr>153</gpxtpx:hr></gpxtpx:TrackPointExtension></extensions>
      </trkpt>
      <trkpt lat="59.113244" lon="17.426705">
        <ele>67.4</ele>
        <time>2020-03-26T12:41:38Z</time>
        <extensions><gpxtpx:TrackPointExtension><gpxtpx:hr>152</gpxtpx:hr></gpxtpx:TrackPointExtension></extensions>
      </trkpt>
      <trkpt lat="59.113183" lon="17.426841">
        <ele>64.8</ele>
        <time>2020-03-26T12:41:39Z</time>
        <extensions><gpxtpx:TrackPointExtension><gpxtpx:hr>151</gpxtpx:hr></gpxtpx:TrackPointExtension></extensions>
      </trkpt>
      <trkpt lat="59.113125" lon="17.426969">
        <ele>64.4</ele>
        <time>2020-03-26T12:41:40Z</time>
        <extensions><gpxtpx:TrackPointExtension><gpxtpx:hr>150</gpxtpx:hr></gpxtpx:TrackPointExtension></extensions>
      </trkpt>
      <trkpt lat="59.113069" lon="17.427092">
        <ele>64.2</ele>
        <time>2020-03-26T12:41:41Z</time>
        <extensions><gpxtpx:TrackPointExtension><gpxtpx:hr>149</gpxtpx:hr></gpxtpx:TrackPointExtension></extensions>
      </trkpt>
      <trkpt lat="59.113013" lon="17.427213">
        <ele>64</ele>
        <time>2020-03-26T12:41:42Z</time>
        <extensions><gpxtpx:TrackPointExtension><gpxtpx:hr>149</gpxtpx:hr></gpxtpx:TrackPointExtension></extensions>
      </trkpt>
      <trkpt lat="59.112954" lon="17.427339">
        <ele>64</ele>
        <time>2020-03-26T12:41:43Z</time>
        <extensions><gpxtpx:TrackPointExtension><gpxtpx:hr>149</gpxtpx:hr></gpxtpx:TrackPointExtension></extensions>
      </trkpt>
      <trkpt lat="59.112895" lon="17.427466">
        <ele>64</ele>
        <time>2020-03-26T12:41:44Z</time>
        <extensions><gpxtpx:TrackPointExtension><gpxtpx:hr>149</gpxtpx:hr></gpxtpx:TrackPointExtension></extensions>
      </trkpt>
      <trkpt lat="59.112837" lon="17.427597">
        <ele>64</ele>
        <time>2020-03-26T12:41:45Z</time>
        <extensions><gpxtpx:TrackPointExtension><gpxtpx:hr>149</gpxtpx:hr></gpxtpx:TrackPointExtension></extensions>
      </trkpt>
      <trkpt lat="59.112781" lon="17.427733">
        <ele>63.8</ele>
        <time>2020-03-26T12:41:46Z</time>
        <extensions><gpxtpx:TrackPointExtension><gpxtpx:hr>149</gpxtpx:hr></gpxtpx:TrackPointExtension></extensions>
      </trkpt>
      <trkpt lat="59.112727" lon="17.427886">
        <ele>63.6</ele>
        <time>2020-03-26T12:41:47Z</time>
        <extensions><gpxtpx:TrackPointExtension><gpxtpx:hr>148</gpxtpx:hr></gpxtpx:TrackPointExtension></extensions>
      </trkpt>
      <trkpt lat="59.11268" lon="17.428044">
        <ele>63.2</ele>
        <time>2020-03-26T12:41:48Z</time>
        <extensions><gpxtpx:TrackPointExtension><gpxtpx:hr>148</gpxtpx:hr></gpxtpx:TrackPointExtension></extensions>
      </trkpt>
      <trkpt lat="59.112644" lon="17.428209">
        <ele>63</ele>
        <time>2020-03-26T12:41:49Z</time>
        <extensions><gpxtpx:TrackPointExtension><gpxtpx:hr>147</gpxtpx:hr></gpxtpx:TrackPointExtension></extensions>
      </trkpt>
      <trkpt lat="59.112615" lon="17.428374">
        <ele>62.8</ele>
        <time>2020-03-26T12:41:50Z</time>
        <extensions><gpxtpx:TrackPointExtension><gpxtpx:hr>146</gpxtpx:hr></gpxtpx:TrackPointExtension></extensions>
      </trkpt>
      <trkpt lat="59.112589" lon="17.428531">
        <ele>62.8</ele>
        <time>2020-03-26T12:41:51Z</time>
        <extensions><gpxtpx:TrackPointExtension><gpxtpx:hr>145</gpxtpx:hr></gpxtpx:TrackPointExtension></extensions>
      </trkpt>
      <trkpt lat="59.112564" lon="17.428687">
        <ele>62.8</ele>
        <time>2020-03-26T12:41:52Z</time>
        <extensions><gpxtpx:TrackPointExtension><gpxtpx:hr>145</gpxtpx:hr></gpxtpx:TrackPointExtension></extensions>
      </trkpt>
      <trkpt lat="59.112536" lon="17.428832">
        <ele>62.8</ele>
        <time>2020-03-26T12:41:53Z</time>
        <extensions><gpxtpx:TrackPointExtension><gpxtpx:hr>144</gpxtpx:hr></gpxtpx:TrackPointExtension></extensions>
      </trkpt>
      <trkpt lat="59.112502" lon="17.428965">
        <ele>62.6</ele>
        <time>2020-03-26T12:41:54Z</time>
        <extensions><gpxtpx:TrackPointExtension><gpxtpx:hr>143</gpxtpx:hr></gpxtpx:TrackPointExtension></extensions>
      </trkpt>
      <trkpt lat="59.112461" lon="17.429088">
        <ele>62.6</ele>
        <time>2020-03-26T12:41:55Z</time>
        <extensions><gpxtpx:TrackPointExtension><gpxtpx:hr>143</gpxtpx:hr></gpxtpx:TrackPointExtension></extensions>
      </trkpt>
      <trkpt lat="59.112414" lon="17.429203">
        <ele>62.6</ele>
        <time>2020-03-26T12:41:56Z</time>
        <extensions><gpxtpx:TrackPointExtension><gpxtpx:hr>143</gpxtpx:hr></gpxtpx:TrackPointExtension></extensions>
      </trkpt>
      <trkpt lat="59.112363" lon="17.429313">
        <ele>62.4</ele>
        <time>2020-03-26T12:41:57Z</time>
        <extensions><gpxtpx:TrackPointExtension><gpxtpx:hr>143</gpxtpx:hr></gpxtpx:TrackPointExtension></extensions>
      </trkpt>
      <trkpt lat="59.112309" lon="17.429422">
        <ele>62.4</ele>
        <time>2020-03-26T12:41:58Z</time>
        <extensions><gpxtpx:TrackPointExtension><gpxtpx:hr>143</gpxtpx:hr></gpxtpx:TrackPointExtension></extensions>
      </trkpt>
      <trkpt lat="59.112255" lon="17.429534">
        <ele>62.2</ele>
        <time>2020-03-26T12:41:59Z</time>
        <extensions><gpxtpx:TrackPointExtension><gpxtpx:hr>143</gpxtpx:hr></gpxtpx:TrackPointExtension></extensions>
      </trkpt>
      <trkpt lat="59.112202" lon="17.429643">
        <ele>62.2</ele>
        <time>2020-03-26T12:42:00Z</time>
        <extensions><gpxtpx:TrackPointExtension><gpxtpx:hr>144</gpxtpx:hr></gpxtpx:TrackPointExtension></extensions>
      </trkpt>
      <trkpt lat="59.112149" lon="17.429753">
        <ele>62.2</ele>
        <time>2020-03-26T12:42:01Z</time>
        <extensions><gpxtpx:TrackPointExtension><gpxtpx:hr>144</gpxtpx:hr></gpxtpx:TrackPointExtension></extensions>
      </trkpt>
      <trkpt lat="59.112096" lon="17.429852">
        <ele>62</ele>
        <time>2020-03-26T12:42:02Z</time>
        <extensions><gpxtpx:TrackPointExtension><gpxtpx:hr>144</gpxtpx:hr></gpxtpx:TrackPointExtension></extensions>
      </trkpt>
      <trkpt lat="59.112041" lon="17.429958">
        <ele>62</ele>
        <time>2020-03-26T12:42:03Z</time>
        <extensions><gpxtpx:TrackPointExtension><gpxtpx:hr>145</gpxtpx:hr></gpxtpx:TrackPointExtension></extensions>
      </trkpt>
      <trkpt lat="59.111984" lon="17.430066">
        <ele>62</ele>
        <time>2020-03-26T12:42:04Z</time>
        <extensions><gpxtpx:TrackPointExtension><gpxtpx:hr>145</gpxtpx:hr></gpxtpx:TrackPointExtension></extensions>
      </trkpt>
      <trkpt lat="59.111926" lon="17.430172">
        <ele>62</ele>
        <time>2020-03-26T12:42:05Z</time>
        <extensions><gpxtpx:TrackPointExtension><gpxtpx:hr>145</gpxtpx:hr></gpxtpx:TrackPointExtension></extensions>
      </trkpt>
      <trkpt lat="59.111869" lon="17.43027">
        <ele>61.8</ele>
        <time>2020-03-26T12:42:06Z</time>
        <extensions><gpxtpx:TrackPointExtension><gpxtpx:hr>146</gpxtpx:hr></gpxtpx:TrackPointExtension></extensions>
      </trkpt>
      <trkpt lat="59.11181" lon="17.430377">
        <ele>61.8</ele>
        <time>2020-03-26T12:42:07Z</time>
        <extensions><gpxtpx:TrackPointExtension><gpxtpx:hr>146</gpxtpx:hr></gpxtpx:TrackPointExtension></extensions>
      </trkpt>
      <trkpt lat="59.111751" lon="17.430486">
        <ele>61.8</ele>
        <time>2020-03-26T12:42:08Z</time>
        <extensions><gpxtpx:TrackPointExtension><gpxtpx:hr>146</gpxtpx:hr></gpxtpx:TrackPointExtension></extensions>
      </trkpt>
      <trkpt lat="59.11169" lon="17.430594">
        <ele>61.8</ele>
        <time>2020-03-26T12:42:09Z</time>
        <extensions><gpxtpx:TrackPointExtension><gpxtpx:hr>146</gpxtpx:hr></gpxtpx:TrackPointExtension></extensions>
      </trkpt>
      <trkpt lat="59.11163" lon="17.430695">
        <ele>61.6</ele>
        <time>2020-03-26T12:42:10Z</time>
        <extensions><gpxtpx:TrackPointExtension><gpxtpx:hr>146</gpxtpx:hr></gpxtpx:TrackPointExtension></extensions>
      </trkpt>
      <trkpt lat="59.111569" lon="17.430782">
        <ele>61.6</ele>
        <time>2020-03-26T12:42:11Z</time>
        <extensions><gpxtpx:TrackPointExtension><gpxtpx:hr>146</gpxtpx:hr></gpxtpx:TrackPointExtension></extensions>
      </trkpt>
      <trkpt lat="59.111502" lon="17.430876">
        <ele>61.4</ele>
        <time>2020-03-26T12:42:12Z</time>
        <extensions><gpxtpx:TrackPointExtension><gpxtpx:hr>146</gpxtpx:hr></gpxtpx:TrackPointExtension></extensions>
      </trkpt>
      <trkpt lat="59.111437" lon="17.430968">
        <ele>61.4</ele>
        <time>2020-03-26T12:42:13Z</time>
        <extensions><gpxtpx:TrackPointExtension><gpxtpx:hr>146</gpxtpx:hr></gpxtpx:TrackPointExtension></extensions>
      </trkpt>
      <trkpt lat="59.111366" lon="17.431068">
        <ele>61.2</ele>
        <time>2020-03-26T12:42:14Z</time>
        <extensions><gpxtpx:TrackPointExtension><gpxtpx:hr>146</gpxtpx:hr></gpxtpx:TrackPointExtension></extensions>
      </trkpt>
      <trkpt lat="59.111284" lon="17.431188">
        <ele>61.2</ele>
        <time>2020-03-26T12:42:15Z</time>
        <extensions><gpxtpx:TrackPointExtension><gpxtpx:hr>146</gpxtpx:hr></gpxtpx:TrackPointExtension></extensions>
      </trkpt>
      <trkpt lat="59.111208" lon="17.431289">
        <ele>60.8</ele>
        <time>2020-03-26T12:42:16Z</time>
        <extensions><gpxtpx:TrackPointExtension><gpxtpx:hr>147</gpxtpx:hr></gpxtpx:TrackPointExtension></extensions>
      </trkpt>
      <trkpt lat="59.111131" lon="17.431389">
        <ele>60.6</ele>
        <time>2020-03-26T12:42:17Z</time>
        <extensions><gpxtpx:TrackPointExtension><gpxtpx:hr>147</gpxtpx:hr></gpxtpx:TrackPointExtension></extensions>
      </trkpt>
      <trkpt lat="59.111054" lon="17.431476">
        <ele>60.2</ele>
        <time>2020-03-26T12:42:18Z</time>
        <extensions><gpxtpx:TrackPointExtension><gpxtpx:hr>147</gpxtpx:hr></gpxtpx:TrackPointExtension></extensions>
      </trkpt>
      <trkpt lat="59.110974" lon="17.431564">
        <ele>59.8</ele>
        <time>2020-03-26T12:42:19Z</time>
        <extensions><gpxtpx:TrackPointExtension><gpxtpx:hr>147</gpxtpx:hr></gpxtpx:TrackPointExtension></extensions>
      </trkpt>
      <trkpt lat="59.110891" lon="17.431646">
        <ele>59.6</ele>
        <time>2020-03-26T12:42:20Z</time>
        <extensions><gpxtpx:TrackPointExtension><gpxtpx:hr>147</gpxtpx:hr></gpxtpx:TrackPointExtension></extensions>
      </trkpt>
      <trkpt lat="59.110806" lon="17.431728">
        <ele>59.4</ele>
        <time>2020-03-26T12:42:21Z</time>
        <extensions><gpxtpx:TrackPointExtension><gpxtpx:hr>148</gpxtpx:hr></gpxtpx:TrackPointExtension></extensions>
      </trkpt>
      <trkpt lat="59.110723" lon="17.431816">
        <ele>59.2</ele>
        <time>2020-03-26T12:42:22Z</time>
        <extensions><gpxtpx:TrackPointExtension><gpxtpx:hr>148</gpxtpx:hr></gpxtpx:TrackPointExtension></extensions>
      </trkpt>
      <trkpt lat="59.110639" lon="17.431914">
        <ele>59.2</ele>
        <time>2020-03-26T12:42:23Z</time>
        <extensions><gpxtpx:TrackPointExtension><gpxtpx:hr>148</gpxtpx:hr></gpxtpx:TrackPointExtension></extensions>
      </trkpt>
      <trkpt lat="59.110563" lon="17.43201">
        <ele>59.2</ele>
        <time>2020-03-26T12:42:24Z</time>
        <extensions><gpxtpx:TrackPointExtension><gpxtpx:hr>148</gpxtpx:hr></gpxtpx:TrackPointExtension></extensions>
      </trkpt>
      <trkpt lat="59.110488" lon="17.432107">
        <ele>59</ele>
        <time>2020-03-26T12:42:25Z</time>
        <extensions><gpxtpx:TrackPointExtension><gpxtpx:hr>148</gpxtpx:hr></gpxtpx:TrackPointExtension></extensions>
      </trkpt>
      <trkpt lat="59.110416" lon="17.432203">
        <ele>58.8</ele>
        <time>2020-03-26T12:42:26Z</time>
        <extensions><gpxtpx:TrackPointExtension><gpxtpx:hr>148</gpxtpx:hr></gpxtpx:TrackPointExtension></extensions>
      </trkpt>
      <trkpt lat="59.110347" lon="17.432302">
        <ele>58.8</ele>
        <time>2020-03-26T12:42:27Z</time>
        <extensions><gpxtpx:TrackPointExtension><gpxtpx:hr>147</gpxtpx:hr></gpxtpx:TrackPointExtension></extensions>
      </trkpt>
      <trkpt lat="59.11028" lon="17.4324">
        <ele>58.6</ele>
        <time>2020-03-26T12:42:28Z</time>
        <extensions><gpxtpx:TrackPointExtension><gpxtpx:hr>146</gpxtpx:hr></gpxtpx:TrackPointExtension></extensions>
      </trkpt>
      <trkpt lat="59.110213" lon="17.432497">
        <ele>58.4</ele>
        <time>2020-03-26T12:42:29Z</time>
        <extensions><gpxtpx:TrackPointExtension><gpxtpx:hr>146</gpxtpx:hr></gpxtpx:TrackPointExtension></extensions>
      </trkpt>
      <trkpt lat="59.110146" lon="17.432593">
        <ele>58</ele>
        <time>2020-03-26T12:42:30Z</time>
        <extensions><gpxtpx:TrackPointExtension><gpxtpx:hr>146</gpxtpx:hr></gpxtpx:TrackPointExtension></extensions>
      </trkpt>
      <trkpt lat="59.110078" lon="17.432687">
        <ele>57.8</ele>
        <time>2020-03-26T12:42:31Z</time>
        <extensions><gpxtpx:TrackPointExtension><gpxtpx:hr>146</gpxtpx:hr></gpxtpx:TrackPointExtension></extensions>
      </trkpt>
      <trkpt lat="59.110007" lon="17.432781">
        <ele>57.6</ele>
        <time>2020-03-26T12:42:32Z</time>
        <extensions><gpxtpx:TrackPointExtension><gpxtpx:hr>146</gpxtpx:hr></gpxtpx:TrackPointExtension></extensions>
      </trkpt>
      <trkpt lat="59.109937" lon="17.43288">
        <ele>57.4</ele>
        <time>2020-03-26T12:42:33Z</time>
        <extensions><gpxtpx:TrackPointExtension><gpxtpx:hr>145</gpxtpx:hr></gpxtpx:TrackPointExtension></extensions>
      </trkpt>
      <trkpt lat="59.10987" lon="17.43299">
        <ele>57.2</ele>
        <time>2020-03-26T12:42:34Z</time>
        <extensions><gpxtpx:TrackPointExtension><gpxtpx:hr>145</gpxtpx:hr></gpxtpx:TrackPointExtension></extensions>
      </trkpt>
      <trkpt lat="59.109809" lon="17.43312">
        <ele>57</ele>
        <time>2020-03-26T12:42:35Z</time>
        <extensions><gpxtpx:TrackPointExtension><gpxtpx:hr>145</gpxtpx:hr></gpxtpx:TrackPointExtension></extensions>
      </trkpt>
      <trkpt lat="59.109754" lon="17.433262">
        <ele>56.8</ele>
        <time>2020-03-26T12:42:36Z</time>
        <extensions><gpxtpx:TrackPointExtension><gpxtpx:hr>145</gpxtpx:hr></gpxtpx:TrackPointExtension></extensions>
      </trkpt>
      <trkpt lat="59.109704" lon="17.433403">
        <ele>56.6</ele>
        <time>2020-03-26T12:42:37Z</time>
        <extensions><gpxtpx:TrackPointExtension><gpxtpx:hr>145</gpxtpx:hr></gpxtpx:TrackPointExtension></extensions>
      </trkpt>
      <trkpt lat="59.109655" lon="17.433541">
        <ele>56.6</ele>
        <time>2020-03-26T12:42:38Z</time>
        <extensions><gpxtpx:TrackPointExtension><gpxtpx:hr>145</gpxtpx:hr></gpxtpx:TrackPointExtension></extensions>
      </trkpt>
      <trkpt lat="59.109606" lon="17.433676">
        <ele>56.6</ele>
        <time>2020-03-26T12:42:39Z</time>
        <extensions><gpxtpx:TrackPointExtension><gpxtpx:hr>145</gpxtpx:hr></gpxtpx:TrackPointExtension></extensions>
      </trkpt>
      <trkpt lat="59.109553" lon="17.433813">
        <ele>56.4</ele>
        <time>2020-03-26T12:42:40Z</time>
        <extensions><gpxtpx:TrackPointExtension><gpxtpx:hr>145</gpxtpx:hr></gpxtpx:TrackPointExtension></extensions>
      </trkpt>
      <trkpt lat="59.1095" lon="17.433949">
        <ele>56.2</ele>
        <time>2020-03-26T12:42:41Z</time>
        <extensions><gpxtpx:TrackPointExtension><gpxtpx:hr>145</gpxtpx:hr></gpxtpx:TrackPointExtension></extensions>
      </trkpt>
      <trkpt lat="59.10945" lon="17.434086">
        <ele>55.8</ele>
        <time>2020-03-26T12:42:42Z</time>
        <extensions><gpxtpx:TrackPointExtension><gpxtpx:hr>145</gpxtpx:hr></gpxtpx:TrackPointExtension></extensions>
      </trkpt>
      <trkpt lat="59.109409" lon="17.434233">
        <ele>55.6</ele>
        <time>2020-03-26T12:42:43Z</time>
        <extensions><gpxtpx:TrackPointExtension><gpxtpx:hr>145</gpxtpx:hr></gpxtpx:TrackPointExtension></extensions>
      </trkpt>
      <trkpt lat="59.109384" lon="17.4344">
        <ele>55.2</ele>
        <time>2020-03-26T12:42:44Z</time>
        <extensions><gpxtpx:TrackPointExtension><gpxtpx:hr>145</gpxtpx:hr></gpxtpx:TrackPointExtension></extensions>
      </trkpt>
      <trkpt lat="59.109381" lon="17.434578">
        <ele>54.8</ele>
        <time>2020-03-26T12:42:45Z</time>
        <extensions><gpxtpx:TrackPointExtension><gpxtpx:hr>145</gpxtpx:hr></gpxtpx:TrackPointExtension></extensions>
      </trkpt>
      <trkpt lat="59.109392" lon="17.434753">
        <ele>54.6</ele>
        <time>2020-03-26T12:42:46Z</time>
        <extensions><gpxtpx:TrackPointExtension><gpxtpx:hr>145</gpxtpx:hr></gpxtpx:TrackPointExtension></extensions>
      </trkpt>
      <trkpt lat="59.109409" lon="17.434926">
        <ele>54.4</ele>
        <time>2020-03-26T12:42:47Z</time>
        <extensions><gpxtpx:TrackPointExtension><gpxtpx:hr>145</gpxtpx:hr></gpxtpx:TrackPointExtension></extensions>
      </trkpt>
      <trkpt lat="59.109428" lon="17.435107">
        <ele>54.4</ele>
        <time>2020-03-26T12:42:48Z</time>
        <extensions><gpxtpx:TrackPointExtension><gpxtpx:hr>145</gpxtpx:hr></gpxtpx:TrackPointExtension></extensions>
      </trkpt>
      <trkpt lat="59.109451" lon="17.435273">
        <ele>54.4</ele>
        <time>2020-03-26T12:42:49Z</time>
        <extensions><gpxtpx:TrackPointExtension><gpxtpx:hr>145</gpxtpx:hr></gpxtpx:TrackPointExtension></extensions>
      </trkpt>
      <trkpt lat="59.109475" lon="17.435432">
        <ele>54</ele>
        <time>2020-03-26T12:42:50Z</time>
        <extensions><gpxtpx:TrackPointExtension><gpxtpx:hr>145</gpxtpx:hr></gpxtpx:TrackPointExtension></extensions>
      </trkpt>
      <trkpt lat="59.109501" lon="17.435589">
        <ele>53.8</ele>
        <time>2020-03-26T12:42:51Z</time>
        <extensions><gpxtpx:TrackPointExtension><gpxtpx:hr>145</gpxtpx:hr></gpxtpx:TrackPointExtension></extensions>
      </trkpt>
      <trkpt lat="59.109527" lon="17.435747">
        <ele>53.6</ele>
        <time>2020-03-26T12:42:52Z</time>
        <extensions><gpxtpx:TrackPointExtension><gpxtpx:hr>145</gpxtpx:hr></gpxtpx:TrackPointExtension></extensions>
      </trkpt>
      <trkpt lat="59.109547" lon="17.435912">
        <ele>53.6</ele>
        <time>2020-03-26T12:42:53Z</time>
        <extensions><gpxtpx:TrackPointExtension><gpxtpx:hr>145</gpxtpx:hr></gpxtpx:TrackPointExtension></extensions>
      </trkpt>
      <trkpt lat="59.109557" lon="17.436086">
        <ele>53.4</ele>
        <time>2020-03-26T12:42:54Z</time>
        <extensions><gpxtpx:TrackPointExtension><gpxtpx:hr>145</gpxtpx:hr></gpxtpx:TrackPointExtension></extensions>
      </trkpt>
      <trkpt lat="59.10956" lon="17.436265">
        <ele>53.4</ele>
        <time>2020-03-26T12:42:55Z</time>
        <extensions><gpxtpx:TrackPointExtension><gpxtpx:hr>145</gpxtpx:hr></gpxtpx:TrackPointExtension></extensions>
      </trkpt>
      <trkpt lat="59.109558" lon="17.436448">
        <ele>53.2</ele>
        <time>2020-03-26T12:42:56Z</time>
        <extensions><gpxtpx:TrackPointExtension><gpxtpx:hr>146</gpxtpx:hr></gpxtpx:TrackPointExtension></extensions>
      </trkpt>
      <trkpt lat="59.109559" lon="17.436632">
        <ele>53.2</ele>
        <time>2020-03-26T12:42:57Z</time>
        <extensions><gpxtpx:TrackPointExtension><gpxtpx:hr>146</gpxtpx:hr></gpxtpx:TrackPointExtension></extensions>
      </trkpt>
      <trkpt lat="59.109567" lon="17.436809">
        <ele>53</ele>
        <time>2020-03-26T12:42:58Z</time>
        <extensions><gpxtpx:TrackPointExtension><gpxtpx:hr>146</gpxtpx:hr></gpxtpx:TrackPointExtension></extensions>
      </trkpt>
      <trkpt lat="59.109583" lon="17.436982">
        <ele>53</ele>
        <time>2020-03-26T12:42:59Z</time>
        <extensions><gpxtpx:TrackPointExtension><gpxtpx:hr>146</gpxtpx:hr></gpxtpx:TrackPointExtension></extensions>
      </trkpt>
      <trkpt lat="59.10961" lon="17.437147">
        <ele>53</ele>
        <time>2020-03-26T12:43:00Z</time>
        <extensions><gpxtpx:TrackPointExtension><gpxtpx:hr>146</gpxtpx:hr></gpxtpx:TrackPointExtension></extensions>
      </trkpt>
      <trkpt lat="59.109643" lon="17.437307">
        <ele>53</ele>
        <time>2020-03-26T12:43:01Z</time>
        <extensions><gpxtpx:TrackPointExtension><gpxtpx:hr>146</gpxtpx:hr></gpxtpx:TrackPointExtension></extensions>
      </trkpt>
      <trkpt lat="59.109681" lon="17.437462">
        <ele>53</ele>
        <time>2020-03-26T12:43:02Z</time>
        <extensions><gpxtpx:TrackPointExtension><gpxtpx:hr>146</gpxtpx:hr></gpxtpx:TrackPointExtension></extensions>
      </trkpt>
      <trkpt lat="59.10972" lon="17.437616">
        <ele>53</ele>
        <time>2020-03-26T12:43:03Z</time>
        <extensions><gpxtpx:TrackPointExtension><gpxtpx:hr>146</gpxtpx:hr></gpxtpx:TrackPointExtension></extensions>
      </trkpt>
      <trkpt lat="59.109758" lon="17.43777">
        <ele>53</ele>
        <time>2020-03-26T12:43:04Z</time>
        <extensions><gpxtpx:TrackPointExtension><gpxtpx:hr>146</gpxtpx:hr></gpxtpx:TrackPointExtension></extensions>
      </trkpt>
      <trkpt lat="59.109795" lon="17.43792">
        <ele>53.2</ele>
        <time>2020-03-26T12:43:05Z</time>
        <extensions><gpxtpx:TrackPointExtension><gpxtpx:hr>147</gpxtpx:hr></gpxtpx:TrackPointExtension></extensions>
      </trkpt>
      <trkpt lat="59.109832" lon="17.438068">
        <ele>53.2</ele>
        <time>2020-03-26T12:43:06Z</time>
        <extensions><gpxtpx:TrackPointExtension><gpxtpx:hr>147</gpxtpx:hr></gpxtpx:TrackPointExtension></extensions>
      </trkpt>
      <trkpt lat="59.10987" lon="17.438211">
        <ele>53.4</ele>
        <time>2020-03-26T12:43:07Z</time>
        <extensions><gpxtpx:TrackPointExtension><gpxtpx:hr>148</gpxtpx:hr></gpxtpx:TrackPointExtension></extensions>
      </trkpt>
      <trkpt lat="59.109908" lon="17.438352">
        <ele>53.4</ele>
        <time>2020-03-26T12:43:08Z</time>
        <extensions><gpxtpx:TrackPointExtension><gpxtpx:hr>148</gpxtpx:hr></gpxtpx:TrackPointExtension></extensions>
      </trkpt>
      <trkpt lat="59.109946" lon="17.438491">
        <ele>53.6</ele>
        <time>2020-03-26T12:43:09Z</time>
        <extensions><gpxtpx:TrackPointExtension><gpxtpx:hr>149</gpxtpx:hr></gpxtpx:TrackPointExtension></extensions>
      </trkpt>
      <trkpt lat="59.109983" lon="17.438629">
        <ele>53.8</ele>
        <time>2020-03-26T12:43:10Z</time>
        <extensions><gpxtpx:TrackPointExtension><gpxtpx:hr>149</gpxtpx:hr></gpxtpx:TrackPointExtension></extensions>
      </trkpt>
      <trkpt lat="59.11002" lon="17.438763">
        <ele>53.8</ele>
        <time>2020-03-26T12:43:11Z</time>
        <extensions><gpxtpx:TrackPointExtension><gpxtpx:hr>149</gpxtpx:hr></gpxtpx:TrackPointExtension></extensions>
      </trkpt>
      <trkpt lat="59.110056" lon="17.438895">
        <ele>54</ele>
        <time>2020-03-26T12:43:12Z</time>
        <extensions><gpxtpx:TrackPointExtension><gpxtpx:hr>150</gpxtpx:hr></gpxtpx:TrackPointExtension></extensions>
      </trkpt>
      <trkpt lat="59.11009" lon="17.439025">
        <ele>54</ele>
        <time>2020-03-26T12:43:13Z</time>
        <extensions><gpxtpx:TrackPointExtension><gpxtpx:hr>150</gpxtpx:hr></gpxtpx:TrackPointExtension></extensions>
      </trkpt>
      <trkpt lat="59.110124" lon="17.439154">
        <ele>54.2</ele>
        <time>2020-03-26T12:43:14Z</time>
        <extensions><gpxtpx:TrackPointExtension><gpxtpx:hr>150</gpxtpx:hr></gpxtpx:TrackPointExtension></extensions>
      </trkpt>
      <trkpt lat="59.110156" lon="17.439281">
        <ele>54.2</ele>
        <time>2020-03-26T12:43:15Z</time>
        <extensions><gpxtpx:TrackPointExtension><gpxtpx:hr>151</gpxtpx:hr></gpxtpx:TrackPointExtension></extensions>
      </trkpt>
      <trkpt lat="59.110187" lon="17.439404">
        <ele>54.2</ele>
        <time>2020-03-26T12:43:16Z</time>
        <extensions><gpxtpx:TrackPointExtension><gpxtpx:hr>151</gpxtpx:hr></gpxtpx:TrackPointExtension></extensions>
      </trkpt>
      <trkpt lat="59.110218" lon="17.439526">
        <ele>54.6</ele>
        <time>2020-03-26T12:43:17Z</time>
        <extensions><gpxtpx:TrackPointExtension><gpxtpx:hr>152</gpxtpx:hr></gpxtpx:TrackPointExtension></extensions>
      </trkpt>
      <trkpt lat="59.110247" lon="17.439645">
        <ele>54.8</ele>
        <time>2020-03-26T12:43:18Z</time>
        <extensions><gpxtpx:TrackPointExtension><gpxtpx:hr>152</gpxtpx:hr></gpxtpx:TrackPointExtension></extensions>
      </trkpt>
      <trkpt lat="59.110275" lon="17.439761">
        <ele>55</ele>
        <time>2020-03-26T12:43:19Z</time>
        <extensions><gpxtpx:TrackPointExtension><gpxtpx:hr>152</gpxtpx:hr></gpxtpx:TrackPointExtension></extensions>
      </trkpt>
      <trkpt lat="59.110303" lon="17.439875">
        <ele>55.4</ele>
        <time>2020-03-26T12:43:20Z</time>
        <extensions><gpxtpx:TrackPointExtension><gpxtpx:hr>152</gpxtpx:hr></gpxtpx:TrackPointExtension></extensions>
      </trkpt>
      <trkpt lat="59.110329" lon="17.439985">
        <ele>55.6</ele>
        <time>2020-03-26T12:43:21Z</time>
        <extensions><gpxtpx:TrackPointExtension><gpxtpx:hr>153</gpxtpx:hr></gpxtpx:TrackPointExtension></extensions>
      </trkpt>
      <trkpt lat="59.110357" lon="17.440092">
        <ele>55.8</ele>
        <time>2020-03-26T12:43:22Z</time>
        <extensions><gpxtpx:TrackPointExtension><gpxtpx:hr>153</gpxtpx:hr></gpxtpx:TrackPointExtension></extensions>
      </trkpt>
      <trkpt lat="59.110383" lon="17.440196">
        <ele>56</ele>
        <time>2020-03-26T12:43:23Z</time>
        <extensions><gpxtpx:TrackPointExtension><gpxtpx:hr>153</gpxtpx:hr></gpxtpx:TrackPointExtension></extensions>
      </trkpt>
      <trkpt lat="59.110409" lon="17.440298">
        <ele>56.2</ele>
        <time>2020-03-26T12:43:24Z</time>
        <extensions><gpxtpx:TrackPointExtension><gpxtpx:hr>153</gpxtpx:hr></gpxtpx:TrackPointExtension></extensions>
      </trkpt>
      <trkpt lat="59.110434" lon="17.4404">
        <ele>56.6</ele>
        <time>2020-03-26T12:43:25Z</time>
        <extensions><gpxtpx:TrackPointExtension><gpxtpx:hr>154</gpxtpx:hr></gpxtpx:TrackPointExtension></extensions>
      </trkpt>
      <trkpt lat="59.11046" lon="17.440497">
        <ele>56.8</ele>
        <time>2020-03-26T12:43:26Z</time>
        <extensions><gpxtpx:TrackPointExtension><gpxtpx:hr>155</gpxtpx:hr></gpxtpx:TrackPointExtension></extensions>
      </trkpt>
      <trkpt lat="59.110484" lon="17.440592">
        <ele>57</ele>
        <time>2020-03-26T12:43:27Z</time>
        <extensions><gpxtpx:TrackPointExtension><gpxtpx:hr>155</gpxtpx:hr></gpxtpx:TrackPointExtension></extensions>
      </trkpt>
      <trkpt lat="59.110506" lon="17.440686">
        <ele>57.4</ele>
        <time>2020-03-26T12:43:28Z</time>
        <extensions><gpxtpx:TrackPointExtension><gpxtpx:hr>155</gpxtpx:hr></gpxtpx:TrackPointExtension></extensions>
      </trkpt>
      <trkpt lat="59.110527" lon="17.440777">
        <ele>57.6</ele>
        <time>2020-03-26T12:43:29Z</time>
        <extensions><gpxtpx:TrackPointExtension><gpxtpx:hr>156</gpxtpx:hr></gpxtpx:TrackPointExtension></extensions>
      </trkpt>
      <trkpt lat="59.110547" lon="17.440865">
        <ele>58</ele>
        <time>2020-03-26T12:43:30Z</time>
        <extensions><gpxtpx:TrackPointExtension><gpxtpx:hr>156</gpxtpx:hr></gpxtpx:TrackPointExtension></extensions>
      </trkpt>
      <trkpt lat="59.110568" lon="17.440953">
        <ele>58.4</ele>
        <time>2020-03-26T12:43:31Z</time>
        <extensions><gpxtpx:TrackPointExtension><gpxtpx:hr>156</gpxtpx:hr></gpxtpx:TrackPointExtension></extensions>
      </trkpt>
      <trkpt lat="59.11059" lon="17.441041">
        <ele>58.6</ele>
        <time>2020-03-26T12:43:32Z</time>
        <extensions><gpxtpx:TrackPointExtension><gpxtpx:hr>156</gpxtpx:hr></gpxtpx:TrackPointExtension></extensions>
      </trkpt>
      <trkpt lat="59.110613" lon="17.441131">
        <ele>59</ele>
        <time>2020-03-26T12:43:33Z</time>
        <extensions><gpxtpx:TrackPointExtension><gpxtpx:hr>156</gpxtpx:hr></gpxtpx:TrackPointExtension></extensions>
      </trkpt>
      <trkpt lat="59.110637" lon="17.44122">
        <ele>59.2</ele>
        <time>2020-03-26T12:43:34Z</time>
        <extensions><gpxtpx:TrackPointExtension><gpxtpx:hr>156</gpxtpx:hr></gpxtpx:TrackPointExtension></extensions>
      </trkpt>
      <trkpt lat="59.110659" lon="17.441312">
        <ele>59.4</ele>
        <time>2020-03-26T12:43:35Z</time>
        <extensions><gpxtpx:TrackPointExtension><gpxtpx:hr>156</gpxtpx:hr></gpxtpx:TrackPointExtension></extensions>
      </trkpt>
      <trkpt lat="59.11068" lon="17.441405">
        <ele>60.4</ele>
        <time>2020-03-26T12:43:36Z</time>
        <extensions><gpxtpx:TrackPointExtension><gpxtpx:hr>156</gpxtpx:hr></gpxtpx:TrackPointExtension></extensions>
      </trkpt>
      <trkpt lat="59.110701" lon="17.441498">
        <ele>60.8</ele>
        <time>2020-03-26T12:43:37Z</time>
        <extensions><gpxtpx:TrackPointExtension><gpxtpx:hr>156</gpxtpx:hr></gpxtpx:TrackPointExtension></extensions>
      </trkpt>
      <trkpt lat="59.110723" lon="17.441591">
        <ele>61.2</ele>
        <time>2020-03-26T12:43:38Z</time>
        <extensions><gpxtpx:TrackPointExtension><gpxtpx:hr>156</gpxtpx:hr></gpxtpx:TrackPointExtension></extensions>
      </trkpt>
      <trkpt lat="59.110746" lon="17.441687">
        <ele>61.6</ele>
        <time>2020-03-26T12:43:39Z</time>
        <extensions><gpxtpx:TrackPointExtension><gpxtpx:hr>156</gpxtpx:hr></gpxtpx:TrackPointExtension></extensions>
      </trkpt>
      <trkpt lat="59.110769" lon="17.441786">
        <ele>62</ele>
        <time>2020-03-26T12:43:40Z</time>
        <extensions><gpxtpx:TrackPointExtension><gpxtpx:hr>156</gpxtpx:hr></gpxtpx:TrackPointExtension></extensions>
      </trkpt>
      <trkpt lat="59.110793" lon="17.441886">
        <ele>62.4</ele>
        <time>2020-03-26T12:43:41Z</time>
        <extensions><gpxtpx:TrackPointExtension><gpxtpx:hr>157</gpxtpx:hr></gpxtpx:TrackPointExtension></extensions>
      </trkpt>
      <trkpt lat="59.110817" lon="17.441987">
        <ele>62.4</ele>
        <time>2020-03-26T12:43:42Z</time>
        <extensions><gpxtpx:TrackPointExtension><gpxtpx:hr>156</gpxtpx:hr></gpxtpx:TrackPointExtension></extensions>
      </trkpt>
      <trkpt lat="59.110842" lon="17.442087">
        <ele>62.6</ele>
        <time>2020-03-26T12:43:43Z</time>
        <extensions><gpxtpx:TrackPointExtension><gpxtpx:hr>156</gpxtpx:hr></gpxtpx:TrackPointExtension></extensions>
      </trkpt>
      <trkpt lat="59.110866" lon="17.442186">
        <ele>62.8</ele>
        <time>2020-03-26T12:43:44Z</time>
        <extensions><gpxtpx:TrackPointExtension><gpxtpx:hr>156</gpxtpx:hr></gpxtpx:TrackPointExtension></extensions>
      </trkpt>
      <trkpt lat="59.110891" lon="17.442285">
        <ele>63.2</ele>
        <time>2020-03-26T12:43:45Z</time>
        <extensions><gpxtpx:TrackPointExtension><gpxtpx:hr>156</gpxtpx:hr></gpxtpx:TrackPointExtension></extensions>
      </trkpt>
      <trkpt lat="59.110914" lon="17.442383">
        <ele>63.2</ele>
        <time>2020-03-26T12:43:46Z</time>
        <extensions><gpxtpx:TrackPointExtension><gpxtpx:hr>156</gpxtpx:hr></gpxtpx:TrackPointExtension></extensions>
      </trkpt>
      <trkpt lat="59.110938" lon="17.44248">
        <ele>63.4</ele>
        <time>2020-03-26T12:43:47Z</time>
        <extensions><gpxtpx:TrackPointExtension><gpxtpx:hr>156</gpxtpx:hr></gpxtpx:TrackPointExtension></extensions>
      </trkpt>
      <trkpt lat="59.110962" lon="17.442575">
        <ele>63.4</ele>
        <time>2020-03-26T12:43:48Z</time>
        <extensions><gpxtpx:TrackPointExtension><gpxtpx:hr>156</gpxtpx:hr></gpxtpx:TrackPointExtension></extensions>
      </trkpt>
      <trkpt lat="59.110984" lon="17.442668">
        <ele>63.6</ele>
        <time>2020-03-26T12:43:49Z</time>
        <extensions><gpxtpx:TrackPointExtension><gpxtpx:hr>156</gpxtpx:hr></gpxtpx:TrackPointExtension></extensions>
      </trkpt>
      <trkpt lat="59.111007" lon="17.442758">
        <ele>63.8</ele>
        <time>2020-03-26T12:43:50Z</time>
        <extensions><gpxtpx:TrackPointExtension><gpxtpx:hr>157</gpxtpx:hr></gpxtpx:TrackPointExtension></extensions>
      </trkpt>
      <trkpt lat="59.11103" lon="17.442842">
        <ele>63.8</ele>
        <time>2020-03-26T12:43:51Z</time>
        <extensions><gpxtpx:TrackPointExtension><gpxtpx:hr>157</gpxtpx:hr></gpxtpx:TrackPointExtension></extensions>
      </trkpt>
      <trkpt lat="59.11105" lon="17.442916">
        <ele>64</ele>
        <time>2020-03-26T12:43:52Z</time>
        <extensions><gpxtpx:TrackPointExtension><gpxtpx:hr>157</gpxtpx:hr></gpxtpx:TrackPointExtension></extensions>
      </trkpt>
      <trkpt lat="59.111071" lon="17.442988">
        <ele>64</ele>
        <time>2020-03-26T12:43:53Z</time>
        <extensions><gpxtpx:TrackPointExtension><gpxtpx:hr>157</gpxtpx:hr></gpxtpx:TrackPointExtension></extensions>
      </trkpt>
      <trkpt lat="59.111092" lon="17.443053">
        <ele>64.2</ele>
        <time>2020-03-26T12:43:54Z</time>
        <extensions><gpxtpx:TrackPointExtension><gpxtpx:hr>157</gpxtpx:hr></gpxtpx:TrackPointExtension></extensions>
      </trkpt>
      <trkpt lat="59.111117" lon="17.443114">
        <ele>64.6</ele>
        <time>2020-03-26T12:43:55Z</time>
        <extensions><gpxtpx:TrackPointExtension><gpxtpx:hr>157</gpxtpx:hr></gpxtpx:TrackPointExtension></extensions>
      </trkpt>
      <trkpt lat="59.111142" lon="17.443178">
        <ele>64.8</ele>
        <time>2020-03-26T12:43:56Z</time>
        <extensions><gpxtpx:TrackPointExtension><gpxtpx:hr>158</gpxtpx:hr></gpxtpx:TrackPointExtension></extensions>
      </trkpt>
      <trkpt lat="59.111169" lon="17.44324">
        <ele>65.2</ele>
        <time>2020-03-26T12:43:57Z</time>
        <extensions><gpxtpx:TrackPointExtension><gpxtpx:hr>159</gpxtpx:hr></gpxtpx:TrackPointExtension></extensions>
      </trkpt>
      <trkpt lat="59.111195" lon="17.443303">
        <ele>65.6</ele>
        <time>2020-03-26T12:43:58Z</time>
        <extensions><gpxtpx:TrackPointExtension><gpxtpx:hr>159</gpxtpx:hr></gpxtpx:TrackPointExtension></extensions>
      </trkpt>
      <trkpt lat="59.111224" lon="17.443368">
        <ele>65.8</ele>
        <time>2020-03-26T12:43:59Z</time>
        <extensions><gpxtpx:TrackPointExtension><gpxtpx:hr>160</gpxtpx:hr></gpxtpx:TrackPointExtension></extensions>
      </trkpt>
      <trkpt lat="59.111247" lon="17.443437">
        <ele>66.2</ele>
        <time>2020-03-26T12:44:00Z</time>
        <extensions><gpxtpx:TrackPointExtension><gpxtpx:hr>160</gpxtpx:hr></gpxtpx:TrackPointExtension></extensions>
      </trkpt>
      <trkpt lat="59.111269" lon="17.443513">
        <ele>66.6</ele>
        <time>2020-03-26T12:44:01Z</time>
        <extensions><gpxtpx:TrackPointExtension><gpxtpx:hr>160</gpxtpx:hr></gpxtpx:TrackPointExtension></extensions>
      </trkpt>
      <trkpt lat="59.111294" lon="17.443595">
        <ele>67</ele>
        <time>2020-03-26T12:44:02Z</time>
        <extensions><gpxtpx:TrackPointExtension><gpxtpx:hr>160</gpxtpx:hr></gpxtpx:TrackPointExtension></extensions>
      </trkpt>
      <trkpt lat="59.111315" lon="17.443689">
        <ele>67.4</ele>
        <time>2020-03-26T12:44:03Z</time>
        <extensions><gpxtpx:TrackPointExtension><gpxtpx:hr>160</gpxtpx:hr></gpxtpx:TrackPointExtension></extensions>
      </trkpt>
      <trkpt lat="59.111327" lon="17.44379">
        <ele>67.8</ele>
        <time>2020-03-26T12:44:04Z</time>
        <extensions><gpxtpx:TrackPointExtension><gpxtpx:hr>161</gpxtpx:hr></gpxtpx:TrackPointExtension></extensions>
      </trkpt>
      <trkpt lat="59.111332" lon="17.443891">
        <ele>68.4</ele>
        <time>2020-03-26T12:44:05Z</time>
        <extensions><gpxtpx:TrackPointExtension><gpxtpx:hr>161</gpxtpx:hr></gpxtpx:TrackPointExtension></extensions>
      </trkpt>
      <trkpt lat="59.111331" lon="17.443991">
        <ele>68.6</ele>
        <time>2020-03-26T12:44:06Z</time>
        <extensions><gpxtpx:TrackPointExtension><gpxtpx:hr>161</gpxtpx:hr></gpxtpx:TrackPointExtension></extensions>
      </trkpt>
      <trkpt lat="59.111327" lon="17.444089">
        <ele>68.6</ele>
        <time>2020-03-26T12:44:07Z</time>
        <extensions><gpxtpx:TrackPointExtension><gpxtpx:hr>162</gpxtpx:hr></gpxtpx:TrackPointExtension></extensions>
      </trkpt>
      <trkpt lat="59.111324" lon="17.444191">
        <ele>68.6</ele>
        <time>2020-03-26T12:44:08Z</time>
        <extensions><gpxtpx:TrackPointExtension><gpxtpx:hr>162</gpxtpx:hr></gpxtpx:TrackPointExtension></extensions>
      </trkpt>
      <trkpt lat="59.111322" lon="17.444299">
        <ele>68.6</ele>
        <time>2020-03-26T12:44:09Z</time>
        <extensions><gpxtpx:TrackPointExtension><gpxtpx:hr>162</gpxtpx:hr></gpxtpx:TrackPointExtension></extensions>
      </trkpt>
      <trkpt lat="59.111322" lon="17.444399">
        <ele>68.8</ele>
        <time>2020-03-26T12:44:10Z</time>
        <extensions><gpxtpx:TrackPointExtension><gpxtpx:hr>163</gpxtpx:hr></gpxtpx:TrackPointExtension></extensions>
      </trkpt>
      <trkpt lat="59.111324" lon="17.444504">
        <ele>69</ele>
        <time>2020-03-26T12:44:11Z</time>
        <extensions><gpxtpx:TrackPointExtension><gpxtpx:hr>163</gpxtpx:hr></gpxtpx:TrackPointExtension></extensions>
      </trkpt>
      <trkpt lat="59.111325" lon="17.444607">
        <ele>69</ele>
        <time>2020-03-26T12:44:12Z</time>
        <extensions><gpxtpx:TrackPointExtension><gpxtpx:hr>163</gpxtpx:hr></gpxtpx:TrackPointExtension></extensions>
      </trkpt>
      <trkpt lat="59.11133" lon="17.444722">
        <ele>69</ele>
        <time>2020-03-26T12:44:13Z</time>
        <extensions><gpxtpx:TrackPointExtension><gpxtpx:hr>163</gpxtpx:hr></gpxtpx:TrackPointExtension></extensions>
      </trkpt>
      <trkpt lat="59.111339" lon="17.444852">
        <ele>69.2</ele>
        <time>2020-03-26T12:44:14Z</time>
        <extensions><gpxtpx:TrackPointExtension><gpxtpx:hr>163</gpxtpx:hr></gpxtpx:TrackPointExtension></extensions>
      </trkpt>
      <trkpt lat="59.111346" lon="17.444982">
        <ele>69.2</ele>
        <time>2020-03-26T12:44:15Z</time>
        <extensions><gpxtpx:TrackPointExtension><gpxtpx:hr>163</gpxtpx:hr></gpxtpx:TrackPointExtension></extensions>
      </trkpt>
      <trkpt lat="59.111358" lon="17.445108">
        <ele>69.2</ele>
        <time>2020-03-26T12:44:16Z</time>
        <extensions><gpxtpx:TrackPointExtension><gpxtpx:hr>163</gpxtpx:hr></gpxtpx:TrackPointExtension></extensions>
      </trkpt>
      <trkpt lat="59.111372" lon="17.445234">
        <ele>69.4</ele>
        <time>2020-03-26T12:44:17Z</time>
        <extensions><gpxtpx:TrackPointExtension><gpxtpx:hr>162</gpxtpx:hr></gpxtpx:TrackPointExtension></extensions>
      </trkpt>
      <trkpt lat="59.111386" lon="17.445362">
        <ele>69.4</ele>
        <time>2020-03-26T12:44:18Z</time>
        <extensions><gpxtpx:TrackPointExtension><gpxtpx:hr>162</gpxtpx:hr></gpxtpx:TrackPointExtension></extensions>
      </trkpt>
      <trkpt lat="59.111402" lon="17.44549">
        <ele>69.4</ele>
        <time>2020-03-26T12:44:19Z</time>
        <extensions><gpxtpx:TrackPointExtension><gpxtpx:hr>162</gpxtpx:hr></gpxtpx:TrackPointExtension></extensions>
      </trkpt>
      <trkpt lat="59.111421" lon="17.445617">
        <ele>69.4</ele>
        <time>2020-03-26T12:44:20Z</time>
        <extensions><gpxtpx:TrackPointExtension><gpxtpx:hr>162</gpxtpx:hr></gpxtpx:TrackPointExtension></extensions>
      </trkpt>
      <trkpt lat="59.111441" lon="17.445749">
        <ele>69.4</ele>
        <time>2020-03-26T12:44:21Z</time>
        <extensions><gpxtpx:TrackPointExtension><gpxtpx:hr>162</gpxtpx:hr></gpxtpx:TrackPointExtension></extensions>
      </trkpt>
      <trkpt lat="59.111462" lon="17.445881">
        <ele>69.4</ele>
        <time>2020-03-26T12:44:22Z</time>
        <extensions><gpxtpx:TrackPointExtension><gpxtpx:hr>161</gpxtpx:hr></gpxtpx:TrackPointExtension></extensions>
      </trkpt>
      <trkpt lat="59.111486" lon="17.446016">
        <ele>69.4</ele>
        <time>2020-03-26T12:44:23Z</time>
        <extensions><gpxtpx:TrackPointExtension><gpxtpx:hr>161</gpxtpx:hr></gpxtpx:TrackPointExtension></extensions>
      </trkpt>
      <trkpt lat="59.11151" lon="17.44615">
        <ele>69.4</ele>
        <time>2020-03-26T12:44:24Z</time>
        <extensions><gpxtpx:TrackPointExtension><gpxtpx:hr>161</gpxtpx:hr></gpxtpx:TrackPointExtension></extensions>
      </trkpt>
      <trkpt lat="59.111535" lon="17.446284">
        <ele>69.4</ele>
        <time>2020-03-26T12:44:25Z</time>
        <extensions><gpxtpx:TrackPointExtension><gpxtpx:hr>161</gpxtpx:hr></gpxtpx:TrackPointExtension></extensions>
      </trkpt>
      <trkpt lat="59.111561" lon="17.446419">
        <ele>69.4</ele>
        <time>2020-03-26T12:44:26Z</time>
        <extensions><gpxtpx:TrackPointExtension><gpxtpx:hr>161</gpxtpx:hr></gpxtpx:TrackPointExtension></extensions>
      </trkpt>
      <trkpt lat="59.11159" lon="17.446547">
        <ele>69.4</ele>
        <time>2020-03-26T12:44:27Z</time>
        <extensions><gpxtpx:TrackPointExtension><gpxtpx:hr>161</gpxtpx:hr></gpxtpx:TrackPointExtension></extensions>
      </trkpt>
      <trkpt lat="59.11162" lon="17.446677">
        <ele>69.2</ele>
        <time>2020-03-26T12:44:28Z</time>
        <extensions><gpxtpx:TrackPointExtension><gpxtpx:hr>160</gpxtpx:hr></gpxtpx:TrackPointExtension></extensions>
      </trkpt>
      <trkpt lat="59.111651" lon="17.446803">
        <ele>69.2</ele>
        <time>2020-03-26T12:44:29Z</time>
        <extensions><gpxtpx:TrackPointExtension><gpxtpx:hr>160</gpxtpx:hr></gpxtpx:TrackPointExtension></extensions>
      </trkpt>
      <trkpt lat="59.111674" lon="17.446897">
        <ele>69</ele>
        <time>2020-03-26T12:44:30Z</time>
        <extensions><gpxtpx:TrackPointExtension><gpxtpx:hr>160</gpxtpx:hr></gpxtpx:TrackPointExtension></extensions>
      </trkpt>
      <trkpt lat="59.111696" lon="17.446991">
        <ele>69</ele>
        <time>2020-03-26T12:44:31Z</time>
        <extensions><gpxtpx:TrackPointExtension><gpxtpx:hr>159</gpxtpx:hr></gpxtpx:TrackPointExtension></extensions>
      </trkpt>
      <trkpt lat="59.11174" lon="17.44718">
        <ele>68.8</ele>
        <time>2020-03-26T12:44:32Z</time>
        <extensions><gpxtpx:TrackPointExtension><gpxtpx:hr>159</gpxtpx:hr></gpxtpx:TrackPointExtension></extensions>
      </trkpt>
      <trkpt lat="59.111771" lon="17.447304">
        <ele>68.8</ele>
        <time>2020-03-26T12:44:33Z</time>
        <extensions><gpxtpx:TrackPointExtension><gpxtpx:hr>159</gpxtpx:hr></gpxtpx:TrackPointExtension></extensions>
      </trkpt>
      <trkpt lat="59.111804" lon="17.447429">
        <ele>68.8</ele>
        <time>2020-03-26T12:44:34Z</time>
        <extensions><gpxtpx:TrackPointExtension><gpxtpx:hr>158</gpxtpx:hr></gpxtpx:TrackPointExtension></extensions>
      </trkpt>
      <trkpt lat="59.111837" lon="17.447555">
        <ele>68.8</ele>
        <time>2020-03-26T12:44:35Z</time>
        <extensions><gpxtpx:TrackPointExtension><gpxtpx:hr>158</gpxtpx:hr></gpxtpx:TrackPointExtension></extensions>
      </trkpt>
      <trkpt lat="59.111869" lon="17.44768">
        <ele>68.8</ele>
        <time>2020-03-26T12:44:36Z</time>
        <extensions><gpxtpx:TrackPointExtension><gpxtpx:hr>157</gpxtpx:hr></gpxtpx:TrackPointExtension></extensions>
      </trkpt>
      <trkpt lat="59.111901" lon="17.447808">
        <ele>68.8</ele>
        <time>2020-03-26T12:44:37Z</time>
        <extensions><gpxtpx:TrackPointExtension><gpxtpx:hr>157</gpxtpx:hr></gpxtpx:TrackPointExtension></extensions>
      </trkpt>
      <trkpt lat="59.111933" lon="17.447938">
        <ele>68.8</ele>
        <time>2020-03-26T12:44:38Z</time>
        <extensions><gpxtpx:TrackPointExtension><gpxtpx:hr>157</gpxtpx:hr></gpxtpx:TrackPointExtension></extensions>
      </trkpt>
      <trkpt lat="59.111964" lon="17.44807">
        <ele>68.8</ele>
        <time>2020-03-26T12:44:39Z</time>
        <extensions><gpxtpx:TrackPointExtension><gpxtpx:hr>156</gpxtpx:hr></gpxtpx:TrackPointExtension></extensions>
      </trkpt>
      <trkpt lat="59.111996" lon="17.4482">
        <ele>68.8</ele>
        <time>2020-03-26T12:44:40Z</time>
        <extensions><gpxtpx:TrackPointExtension><gpxtpx:hr>155</gpxtpx:hr></gpxtpx:TrackPointExtension></extensions>
      </trkpt>
      <trkpt lat="59.11203" lon="17.448336">
        <ele>68.8</ele>
        <time>2020-03-26T12:44:41Z</time>
        <extensions><gpxtpx:TrackPointExtension><gpxtpx:hr>155</gpxtpx:hr></gpxtpx:TrackPointExtension></extensions>
      </trkpt>
      <trkpt lat="59.112063" lon="17.448471">
        <ele>68.8</ele>
        <time>2020-03-26T12:44:42Z</time>
        <extensions><gpxtpx:TrackPointExtension><gpxtpx:hr>154</gpxtpx:hr></gpxtpx:TrackPointExtension></extensions>
      </trkpt>
      <trkpt lat="59.112093" lon="17.448608">
        <ele>68.8</ele>
        <time>2020-03-26T12:44:43Z</time>
        <extensions><gpxtpx:TrackPointExtension><gpxtpx:hr>154</gpxtpx:hr></gpxtpx:TrackPointExtension></extensions>
      </trkpt>
      <trkpt lat="59.112125" lon="17.448744">
        <ele>68.8</ele>
        <time>2020-03-26T12:44:44Z</time>
        <extensions><gpxtpx:TrackPointExtension><gpxtpx:hr>154</gpxtpx:hr></gpxtpx:TrackPointExtension></extensions>
      </trkpt>
      <trkpt lat="59.112159" lon="17.44888">
        <ele>68.8</ele>
        <time>2020-03-26T12:44:45Z</time>
        <extensions><gpxtpx:TrackPointExtension><gpxtpx:hr>153</gpxtpx:hr></gpxtpx:TrackPointExtension></extensions>
      </trkpt>
      <trkpt lat="59.112191" lon="17.449019">
        <ele>68.8</ele>
        <time>2020-03-26T12:44:46Z</time>
        <extensions><gpxtpx:TrackPointExtension><gpxtpx:hr>153</gpxtpx:hr></gpxtpx:TrackPointExtension></extensions>
      </trkpt>
      <trkpt lat="59.112224" lon="17.449158">
        <ele>68.8</ele>
        <time>2020-03-26T12:44:47Z</time>
        <extensions><gpxtpx:TrackPointExtension><gpxtpx:hr>152</gpxtpx:hr></gpxtpx:TrackPointExtension></extensions>
      </trkpt>
      <trkpt lat="59.112257" lon="17.449293">
        <ele>68.8</ele>
        <time>2020-03-26T12:44:48Z</time>
        <extensions><gpxtpx:TrackPointExtension><gpxtpx:hr>152</gpxtpx:hr></gpxtpx:TrackPointExtension></extensions>
      </trkpt>
      <trkpt lat="59.112289" lon="17.449428">
        <ele>68.8</ele>
        <time>2020-03-26T12:44:49Z</time>
        <extensions><gpxtpx:TrackPointExtension><gpxtpx:hr>152</gpxtpx:hr></gpxtpx:TrackPointExtension></extensions>
      </trkpt>
      <trkpt lat="59.112322" lon="17.449563">
        <ele>68.8</ele>
        <time>2020-03-26T12:44:50Z</time>
        <extensions><gpxtpx:TrackPointExtension><gpxtpx:hr>152</gpxtpx:hr></gpxtpx:TrackPointExtension></extensions>
      </trkpt>
      <trkpt lat="59.112354" lon="17.449692">
        <ele>68.8</ele>
        <time>2020-03-26T12:44:51Z</time>
        <extensions><gpxtpx:TrackPointExtension><gpxtpx:hr>151</gpxtpx:hr></gpxtpx:TrackPointExtension></extensions>
      </trkpt>
      <trkpt lat="59.112387" lon="17.449825">
        <ele>68.8</ele>
        <time>2020-03-26T12:44:52Z</time>
        <extensions><gpxtpx:TrackPointExtension><gpxtpx:hr>151</gpxtpx:hr></gpxtpx:TrackPointExtension></extensions>
      </trkpt>
      <trkpt lat="59.112419" lon="17.449959">
        <ele>68.8</ele>
        <time>2020-03-26T12:44:53Z</time>
        <extensions><gpxtpx:TrackPointExtension><gpxtpx:hr>151</gpxtpx:hr></gpxtpx:TrackPointExtension></extensions>
      </trkpt>
      <trkpt lat="59.112448" lon="17.450093">
        <ele>68.8</ele>
        <time>2020-03-26T12:44:54Z</time>
        <extensions><gpxtpx:TrackPointExtension><gpxtpx:hr>151</gpxtpx:hr></gpxtpx:TrackPointExtension></extensions>
      </trkpt>
      <trkpt lat="59.112477" lon="17.450225">
        <ele>68.8</ele>
        <time>2020-03-26T12:44:55Z</time>
        <extensions><gpxtpx:TrackPointExtension><gpxtpx:hr>150</gpxtpx:hr></gpxtpx:TrackPointExtension></extensions>
      </trkpt>
      <trkpt lat="59.112503" lon="17.450359">
        <ele>69</ele>
        <time>2020-03-26T12:44:56Z</time>
        <extensions><gpxtpx:TrackPointExtension><gpxtpx:hr>150</gpxtpx:hr></gpxtpx:TrackPointExtension></extensions>
      </trkpt>
      <trkpt lat="59.112526" lon="17.450497">
        <ele>69</ele>
        <time>2020-03-26T12:44:57Z</time>
        <extensions><gpxtpx:TrackPointExtension><gpxtpx:hr>150</gpxtpx:hr></gpxtpx:TrackPointExtension></extensions>
      </trkpt>
      <trkpt lat="59.112545" lon="17.450636">
        <ele>69</ele>
        <time>2020-03-26T12:44:58Z</time>
        <extensions><gpxtpx:TrackPointExtension><gpxtpx:hr>150</gpxtpx:hr></gpxtpx:TrackPointExtension></extensions>
      </trkpt>
      <trkpt lat="59.112562" lon="17.450778">
        <ele>69</ele>
        <time>2020-03-26T12:44:59Z</time>
        <extensions><gpxtpx:TrackPointExtension><gpxtpx:hr>150</gpxtpx:hr></gpxtpx:TrackPointExtension></extensions>
      </trkpt>
      <trkpt lat="59.112574" lon="17.45092">
        <ele>69</ele>
        <time>2020-03-26T12:45:00Z</time>
        <extensions><gpxtpx:TrackPointExtension><gpxtpx:hr>150</gpxtpx:hr></gpxtpx:TrackPointExtension></extensions>
      </trkpt>
      <trkpt lat="59.112583" lon="17.451065">
        <ele>69</ele>
        <time>2020-03-26T12:45:01Z</time>
        <extensions><gpxtpx:TrackPointExtension><gpxtpx:hr>150</gpxtpx:hr></gpxtpx:TrackPointExtension></extensions>
      </trkpt>
      <trkpt lat="59.11259" lon="17.451206">
        <ele>69</ele>
        <time>2020-03-26T12:45:02Z</time>
        <extensions><gpxtpx:TrackPointExtension><gpxtpx:hr>150</gpxtpx:hr></gpxtpx:TrackPointExtension></extensions>
      </trkpt>
      <trkpt lat="59.112595" lon="17.451347">
        <ele>69</ele>
        <time>2020-03-26T12:45:03Z</time>
        <extensions><gpxtpx:TrackPointExtension><gpxtpx:hr>150</gpxtpx:hr></gpxtpx:TrackPointExtension></extensions>
      </trkpt>
      <trkpt lat="59.112596" lon="17.451488">
        <ele>69.2</ele>
        <time>2020-03-26T12:45:04Z</time>
        <extensions><gpxtpx:TrackPointExtension><gpxtpx:hr>150</gpxtpx:hr></gpxtpx:TrackPointExtension></extensions>
      </trkpt>
      <trkpt lat="59.112595" lon="17.451629">
        <ele>69.2</ele>
        <time>2020-03-26T12:45:05Z</time>
        <extensions><gpxtpx:TrackPointExtension><gpxtpx:hr>150</gpxtpx:hr></gpxtpx:TrackPointExtension></extensions>
      </trkpt>
      <trkpt lat="59.112592" lon="17.451734">
        <ele>69.2</ele>
        <time>2020-03-26T12:45:06Z</time>
        <extensions><gpxtpx:TrackPointExtension><gpxtpx:hr>150</gpxtpx:hr></gpxtpx:TrackPointExtension></extensions>
      </trkpt>
      <trkpt lat="59.112589" lon="17.451839">
        <ele>69.4</ele>
        <time>2020-03-26T12:45:07Z</time>
        <extensions><gpxtpx:TrackPointExtension><gpxtpx:hr>150</gpxtpx:hr></gpxtpx:TrackPointExtension></extensions>
      </trkpt>
      <trkpt lat="59.112583" lon="17.452049">
        <ele>69.4</ele>
        <time>2020-03-26T12:45:08Z</time>
        <extensions><gpxtpx:TrackPointExtension><gpxtpx:hr>150</gpxtpx:hr></gpxtpx:TrackPointExtension></extensions>
      </trkpt>
      <trkpt lat="59.112576" lon="17.452185">
        <ele>69.4</ele>
        <time>2020-03-26T12:45:09Z</time>
        <extensions><gpxtpx:TrackPointExtension><gpxtpx:hr>150</gpxtpx:hr></gpxtpx:TrackPointExtension></extensions>
      </trkpt>
      <trkpt lat="59.112567" lon="17.452322">
        <ele>69.6</ele>
        <time>2020-03-26T12:45:10Z</time>
        <extensions><gpxtpx:TrackPointExtension><gpxtpx:hr>150</gpxtpx:hr></gpxtpx:TrackPointExtension></extensions>
      </trkpt>
      <trkpt lat="59.112557" lon="17.45246">
        <ele>69.8</ele>
        <time>2020-03-26T12:45:11Z</time>
        <extensions><gpxtpx:TrackPointExtension><gpxtpx:hr>150</gpxtpx:hr></gpxtpx:TrackPointExtension></extensions>
      </trkpt>
      <trkpt lat="59.112549" lon="17.452599">
        <ele>69.8</ele>
        <time>2020-03-26T12:45:12Z</time>
        <extensions><gpxtpx:TrackPointExtension><gpxtpx:hr>150</gpxtpx:hr></gpxtpx:TrackPointExtension></extensions>
      </trkpt>
      <trkpt lat="59.112541" lon="17.452733">
        <ele>70</ele>
        <time>2020-03-26T12:45:13Z</time>
        <extensions><gpxtpx:TrackPointExtension><gpxtpx:hr>150</gpxtpx:hr></gpxtpx:TrackPointExtension></extensions>
      </trkpt>
      <trkpt lat="59.112534" lon="17.452868">
        <ele>70</ele>
        <time>2020-03-26T12:45:14Z</time>
        <extensions><gpxtpx:TrackPointExtension><gpxtpx:hr>149</gpxtpx:hr></gpxtpx:TrackPointExtension></extensions>
      </trkpt>
      <trkpt lat="59.112529" lon="17.45301">
        <ele>70</ele>
        <time>2020-03-26T12:45:15Z</time>
        <extensions><gpxtpx:TrackPointExtension><gpxtpx:hr>149</gpxtpx:hr></gpxtpx:TrackPointExtension></extensions>
      </trkpt>
      <trkpt lat="59.112527" lon="17.453155">
        <ele>70.2</ele>
        <time>2020-03-26T12:45:16Z</time>
        <extensions><gpxtpx:TrackPointExtension><gpxtpx:hr>149</gpxtpx:hr></gpxtpx:TrackPointExtension></extensions>
      </trkpt>
      <trkpt lat="59.112529" lon="17.453304">
        <ele>70.2</ele>
        <time>2020-03-26T12:45:17Z</time>
        <extensions><gpxtpx:TrackPointExtension><gpxtpx:hr>149</gpxtpx:hr></gpxtpx:TrackPointExtension></extensions>
      </trkpt>
      <trkpt lat="59.112535" lon="17.453451">
        <ele>70.2</ele>
        <time>2020-03-26T12:45:18Z</time>
        <extensions><gpxtpx:TrackPointExtension><gpxtpx:hr>149</gpxtpx:hr></gpxtpx:TrackPointExtension></extensions>
      </trkpt>
      <trkpt lat="59.112545" lon="17.453599">
        <ele>70.4</ele>
        <time>2020-03-26T12:45:19Z</time>
        <extensions><gpxtpx:TrackPointExtension><gpxtpx:hr>149</gpxtpx:hr></gpxtpx:TrackPointExtension></extensions>
      </trkpt>
      <trkpt lat="59.112559" lon="17.453747">
        <ele>70.4</ele>
        <time>2020-03-26T12:45:20Z</time>
        <extensions><gpxtpx:TrackPointExtension><gpxtpx:hr>149</gpxtpx:hr></gpxtpx:TrackPointExtension></extensions>
      </trkpt>
      <trkpt lat="59.112577" lon="17.453896">
        <ele>70.4</ele>
        <time>2020-03-26T12:45:21Z</time>
        <extensions><gpxtpx:TrackPointExtension><gpxtpx:hr>149</gpxtpx:hr></gpxtpx:TrackPointExtension></extensions>
      </trkpt>
      <trkpt lat="59.112596" lon="17.454048">
        <ele>70.4</ele>
        <time>2020-03-26T12:45:22Z</time>
        <extensions><gpxtpx:TrackPointExtension><gpxtpx:hr>149</gpxtpx:hr></gpxtpx:TrackPointExtension></extensions>
      </trkpt>
      <trkpt lat="59.112618" lon="17.454203">
        <ele>70.4</ele>
        <time>2020-03-26T12:45:23Z</time>
        <extensions><gpxtpx:TrackPointExtension><gpxtpx:hr>149</gpxtpx:hr></gpxtpx:TrackPointExtension></extensions>
      </trkpt>
      <trkpt lat="59.11264" lon="17.454358">
        <ele>70.4</ele>
        <time>2020-03-26T12:45:24Z</time>
        <extensions><gpxtpx:TrackPointExtension><gpxtpx:hr>149</gpxtpx:hr></gpxtpx:TrackPointExtension></extensions>
      </trkpt>
      <trkpt lat="59.112662" lon="17.454512">
        <ele>70.4</ele>
        <time>2020-03-26T12:45:25Z</time>
        <extensions><gpxtpx:TrackPointExtension><gpxtpx:hr>149</gpxtpx:hr></gpxtpx:TrackPointExtension></extensions>
      </trkpt>
      <trkpt lat="59.112683" lon="17.454668">
        <ele>70.4</ele>
        <time>2020-03-26T12:45:26Z</time>
        <extensions><gpxtpx:TrackPointExtension><gpxtpx:hr>149</gpxtpx:hr></gpxtpx:TrackPointExtension></extensions>
      </trkpt>
      <trkpt lat="59.112702" lon="17.454824">
        <ele>70.4</ele>
        <time>2020-03-26T12:45:27Z</time>
        <extensions><gpxtpx:TrackPointExtension><gpxtpx:hr>149</gpxtpx:hr></gpxtpx:TrackPointExtension></extensions>
      </trkpt>
      <trkpt lat="59.11272" lon="17.454979">
        <ele>70.4</ele>
        <time>2020-03-26T12:45:28Z</time>
        <extensions><gpxtpx:TrackPointExtension><gpxtpx:hr>149</gpxtpx:hr></gpxtpx:TrackPointExtension></extensions>
      </trkpt>
      <trkpt lat="59.112737" lon="17.455133">
        <ele>70.4</ele>
        <time>2020-03-26T12:45:29Z</time>
        <extensions><gpxtpx:TrackPointExtension><gpxtpx:hr>149</gpxtpx:hr></gpxtpx:TrackPointExtension></extensions>
      </trkpt>
      <trkpt lat="59.112752" lon="17.455284">
        <ele>70.2</ele>
        <time>2020-03-26T12:45:30Z</time>
        <extensions><gpxtpx:TrackPointExtension><gpxtpx:hr>149</gpxtpx:hr></gpxtpx:TrackPointExtension></extensions>
      </trkpt>
      <trkpt lat="59.112766" lon="17.455433">
        <ele>70.2</ele>
        <time>2020-03-26T12:45:31Z</time>
        <extensions><gpxtpx:TrackPointExtension><gpxtpx:hr>149</gpxtpx:hr></gpxtpx:TrackPointExtension></extensions>
      </trkpt>
      <trkpt lat="59.112777" lon="17.455582">
        <ele>70</ele>
        <time>2020-03-26T12:45:32Z</time>
        <extensions><gpxtpx:TrackPointExtension><gpxtpx:hr>148</gpxtpx:hr></gpxtpx:TrackPointExtension></extensions>
      </trkpt>
      <trkpt lat="59.112787" lon="17.455732">
        <ele>69.8</ele>
        <time>2020-03-26T12:45:33Z</time>
        <extensions><gpxtpx:TrackPointExtension><gpxtpx:hr>148</gpxtpx:hr></gpxtpx:TrackPointExtension></extensions>
      </trkpt>
      <trkpt lat="59.112795" lon="17.455884">
        <ele>69.8</ele>
        <time>2020-03-26T12:45:34Z</time>
        <extensions><gpxtpx:TrackPointExtension><gpxtpx:hr>147</gpxtpx:hr></gpxtpx:TrackPointExtension></extensions>
      </trkpt>
      <trkpt lat="59.112802" lon="17.456037">
        <ele>69.8</ele>
        <time>2020-03-26T12:45:35Z</time>
        <extensions><gpxtpx:TrackPointExtension><gpxtpx:hr>147</gpxtpx:hr></gpxtpx:TrackPointExtension></extensions>
      </trkpt>
      <trkpt lat="59.112808" lon="17.456192">
        <ele>69.8</ele>
        <time>2020-03-26T12:45:36Z</time>
        <extensions><gpxtpx:TrackPointExtension><gpxtpx:hr>146</gpxtpx:hr></gpxtpx:TrackPointExtension></extensions>
      </trkpt>
      <trkpt lat="59.112816" lon="17.456348">
        <ele>69.6</ele>
        <time>2020-03-26T12:45:37Z</time>
        <extensions><gpxtpx:TrackPointExtension><gpxtpx:hr>146</gpxtpx:hr></gpxtpx:TrackPointExtension></extensions>
      </trkpt>
      <trkpt lat="59.112826" lon="17.456505">
        <ele>69.6</ele>
        <time>2020-03-26T12:45:38Z</time>
        <extensions><gpxtpx:TrackPointExtension><gpxtpx:hr>146</gpxtpx:hr></gpxtpx:TrackPointExtension></extensions>
      </trkpt>
      <trkpt lat="59.112841" lon="17.456661">
        <ele>69.6</ele>
        <time>2020-03-26T12:45:39Z</time>
        <extensions><gpxtpx:TrackPointExtension><gpxtpx:hr>147</gpxtpx:hr></gpxtpx:TrackPointExtension></extensions>
      </trkpt>
      <trkpt lat="59.112864" lon="17.456814">
        <ele>69.4</ele>
        <time>2020-03-26T12:45:40Z</time>
        <extensions><gpxtpx:TrackPointExtension><gpxtpx:hr>147</gpxtpx:hr></gpxtpx:TrackPointExtension></extensions>
      </trkpt>
      <trkpt lat="59.112892" lon="17.456962">
        <ele>69.4</ele>
        <time>2020-03-26T12:45:41Z</time>
        <extensions><gpxtpx:TrackPointExtension><gpxtpx:hr>146</gpxtpx:hr></gpxtpx:TrackPointExtension></extensions>
      </trkpt>
      <trkpt lat="59.112923" lon="17.457107">
        <ele>69.4</ele>
        <time>2020-03-26T12:45:42Z</time>
        <extensions><gpxtpx:TrackPointExtension><gpxtpx:hr>146</gpxtpx:hr></gpxtpx:TrackPointExtension></extensions>
      </trkpt>
      <trkpt lat="59.112956" lon="17.45725">
        <ele>69.4</ele>
        <time>2020-03-26T12:45:43Z</time>
        <extensions><gpxtpx:TrackPointExtension><gpxtpx:hr>146</gpxtpx:hr></gpxtpx:TrackPointExtension></extensions>
      </trkpt>
      <trkpt lat="59.112994" lon="17.457391">
        <ele>69.4</ele>
        <time>2020-03-26T12:45:44Z</time>
        <extensions><gpxtpx:TrackPointExtension><gpxtpx:hr>146</gpxtpx:hr></gpxtpx:TrackPointExtension></extensions>
      </trkpt>
      <trkpt lat="59.113031" lon="17.45753">
        <ele>69.2</ele>
        <time>2020-03-26T12:45:45Z</time>
        <extensions><gpxtpx:TrackPointExtension><gpxtpx:hr>145</gpxtpx:hr></gpxtpx:TrackPointExtension></extensions>
      </trkpt>
      <trkpt lat="59.113071" lon="17.457669">
        <ele>69.2</ele>
        <time>2020-03-26T12:45:46Z</time>
        <extensions><gpxtpx:TrackPointExtension><gpxtpx:hr>145</gpxtpx:hr></gpxtpx:TrackPointExtension></extensions>
      </trkpt>
      <trkpt lat="59.113114" lon="17.457811">
        <ele>69.2</ele>
        <time>2020-03-26T12:45:47Z</time>
        <extensions><gpxtpx:TrackPointExtension><gpxtpx:hr>144</gpxtpx:hr></gpxtpx:TrackPointExtension></extensions>
      </trkpt>
      <trkpt lat="59.113157" lon="17.457956">
        <ele>69.2</ele>
        <time>2020-03-26T12:45:48Z</time>
        <extensions><gpxtpx:TrackPointExtension><gpxtpx:hr>144</gpxtpx:hr></gpxtpx:TrackPointExtension></extensions>
      </trkpt>
      <trkpt lat="59.113205" lon="17.458099">
        <ele>69.2</ele>
        <time>2020-03-26T12:45:49Z</time>
        <extensions><gpxtpx:TrackPointExtension><gpxtpx:hr>144</gpxtpx:hr></gpxtpx:TrackPointExtension></extensions>
      </trkpt>
      <trkpt lat="59.113255" lon="17.458232">
        <ele>69.2</ele>
        <time>2020-03-26T12:45:50Z</time>
        <extensions><gpxtpx:TrackPointExtension><gpxtpx:hr>144</gpxtpx:hr></gpxtpx:TrackPointExtension></extensions>
      </trkpt>
      <trkpt lat="59.11331" lon="17.45836">
        <ele>69.2</ele>
        <time>2020-03-26T12:45:51Z</time>
        <extensions><gpxtpx:TrackPointExtension><gpxtpx:hr>145</gpxtpx:hr></gpxtpx:TrackPointExtension></extensions>
      </trkpt>
      <trkpt lat="59.113363" lon="17.45848">
        <ele>69.2</ele>
        <time>2020-03-26T12:45:52Z</time>
        <extensions><gpxtpx:TrackPointExtension><gpxtpx:hr>145</gpxtpx:hr></gpxtpx:TrackPointExtension></extensions>
      </trkpt>
      <trkpt lat="59.113415" lon="17.458595">
        <ele>69.2</ele>
        <time>2020-03-26T12:45:53Z</time>
        <extensions><gpxtpx:TrackPointExtension><gpxtpx:hr>146</gpxtpx:hr></gpxtpx:TrackPointExtension></extensions>
      </trkpt>
      <trkpt lat="59.113472" lon="17.458715">
        <ele>69.2</ele>
        <time>2020-03-26T12:45:54Z</time>
        <extensions><gpxtpx:TrackPointExtension><gpxtpx:hr>146</gpxtpx:hr></gpxtpx:TrackPointExtension></extensions>
      </trkpt>
      <trkpt lat="59.113528" lon="17.458844">
        <ele>69.2</ele>
        <time>2020-03-26T12:45:55Z</time>
        <extensions><gpxtpx:TrackPointExtension><gpxtpx:hr>146</gpxtpx:hr></gpxtpx:TrackPointExtension></extensions>
      </trkpt>
      <trkpt lat="59.113576" lon="17.458984">
        <ele>69.2</ele>
        <time>2020-03-26T12:45:56Z</time>
        <extensions><gpxtpx:TrackPointExtension><gpxtpx:hr>146</gpxtpx:hr></gpxtpx:TrackPointExtension></extensions>
      </trkpt>
      <trkpt lat="59.113617" lon="17.459132">
        <ele>69.2</ele>
        <time>2020-03-26T12:45:57Z</time>
        <extensions><gpxtpx:TrackPointExtension><gpxtpx:hr>146</gpxtpx:hr></gpxtpx:TrackPointExtension></extensions>
      </trkpt>
      <trkpt lat="59.113649" lon="17.459287">
        <ele>69.2</ele>
        <time>2020-03-26T12:45:58Z</time>
        <extensions><gpxtpx:TrackPointExtension><gpxtpx:hr>147</gpxtpx:hr></gpxtpx:TrackPointExtension></extensions>
      </trkpt>
      <trkpt lat="59.113668" lon="17.459445">
        <ele>69.2</ele>
        <time>2020-03-26T12:45:59Z</time>
        <extensions><gpxtpx:TrackPointExtension><gpxtpx:hr>148</gpxtpx:hr></gpxtpx:TrackPointExtension></extensions>
      </trkpt>
      <trkpt lat="59.113685" lon="17.459603">
        <ele>69.2</ele>
        <time>2020-03-26T12:46:00Z</time>
        <extensions><gpxtpx:TrackPointExtension><gpxtpx:hr>149</gpxtpx:hr></gpxtpx:TrackPointExtension></extensions>
      </trkpt>
      <trkpt lat="59.113702" lon="17.459763">
        <ele>69.2</ele>
        <time>2020-03-26T12:46:01Z</time>
        <extensions><gpxtpx:TrackPointExtension><gpxtpx:hr>149</gpxtpx:hr></gpxtpx:TrackPointExtension></extensions>
      </trkpt>
      <trkpt lat="59.113724" lon="17.459925">
        <ele>68.8</ele>
        <time>2020-03-26T12:46:02Z</time>
        <extensions><gpxtpx:TrackPointExtension><gpxtpx:hr>148</gpxtpx:hr></gpxtpx:TrackPointExtension></extensions>
      </trkpt>
      <trkpt lat="59.113748" lon="17.460093">
        <ele>68.8</ele>
        <time>2020-03-26T12:46:03Z</time>
        <extensions><gpxtpx:TrackPointExtension><gpxtpx:hr>148</gpxtpx:hr></gpxtpx:TrackPointExtension></extensions>
      </trkpt>
      <trkpt lat="59.113767" lon="17.460262">
        <ele>68.6</ele>
        <time>2020-03-26T12:46:04Z</time>
        <extensions><gpxtpx:TrackPointExtension><gpxtpx:hr>147</gpxtpx:hr></gpxtpx:TrackPointExtension></extensions>
      </trkpt>
      <trkpt lat="59.11379" lon="17.46043">
        <ele>68.4</ele>
        <time>2020-03-26T12:46:05Z</time>
        <extensions><gpxtpx:TrackPointExtension><gpxtpx:hr>148</gpxtpx:hr></gpxtpx:TrackPointExtension></extensions>
      </trkpt>
      <trkpt lat="59.113813" lon="17.460595">
        <ele>67.8</ele>
        <time>2020-03-26T12:46:06Z</time>
        <extensions><gpxtpx:TrackPointExtension><gpxtpx:hr>148</gpxtpx:hr></gpxtpx:TrackPointExtension></extensions>
      </trkpt>
      <trkpt lat="59.113834" lon="17.460757">
        <ele>67.6</ele>
        <time>2020-03-26T12:46:07Z</time>
        <extensions><gpxtpx:TrackPointExtension><gpxtpx:hr>149</gpxtpx:hr></gpxtpx:TrackPointExtension></extensions>
      </trkpt>
      <trkpt lat="59.113857" lon="17.460916">
        <ele>67.4</ele>
        <time>2020-03-26T12:46:08Z</time>
        <extensions><gpxtpx:TrackPointExtension><gpxtpx:hr>150</gpxtpx:hr></gpxtpx:TrackPointExtension></extensions>
      </trkpt>
      <trkpt lat="59.113879" lon="17.461081">
        <ele>67.2</ele>
        <time>2020-03-26T12:46:09Z</time>
        <extensions><gpxtpx:TrackPointExtension><gpxtpx:hr>150</gpxtpx:hr></gpxtpx:TrackPointExtension></extensions>
      </trkpt>
      <trkpt lat="59.113896" lon="17.461244">
        <ele>67</ele>
        <time>2020-03-26T12:46:10Z</time>
        <extensions><gpxtpx:TrackPointExtension><gpxtpx:hr>150</gpxtpx:hr></gpxtpx:TrackPointExtension></extensions>
      </trkpt>
      <trkpt lat="59.113911" lon="17.461408">
        <ele>66.6</ele>
        <time>2020-03-26T12:46:11Z</time>
        <extensions><gpxtpx:TrackPointExtension><gpxtpx:hr>150</gpxtpx:hr></gpxtpx:TrackPointExtension></extensions>
      </trkpt>
      <trkpt lat="59.113926" lon="17.461574">
        <ele>66.4</ele>
        <time>2020-03-26T12:46:12Z</time>
        <extensions><gpxtpx:TrackPointExtension><gpxtpx:hr>150</gpxtpx:hr></gpxtpx:TrackPointExtension></extensions>
      </trkpt>
      <trkpt lat="59.113937" lon="17.461748">
        <ele>66.2</ele>
        <time>2020-03-26T12:46:13Z</time>
        <extensions><gpxtpx:TrackPointExtension><gpxtpx:hr>150</gpxtpx:hr></gpxtpx:TrackPointExtension></extensions>
      </trkpt>
      <trkpt lat="59.113943" lon="17.461923">
        <ele>66.2</ele>
        <time>2020-03-26T12:46:14Z</time>
        <extensions><gpxtpx:TrackPointExtension><gpxtpx:hr>150</gpxtpx:hr></gpxtpx:TrackPointExtension></extensions>
      </trkpt>
      <trkpt lat="59.113943" lon="17.462095">
        <ele>66</ele>
        <time>2020-03-26T12:46:15Z</time>
        <extensions><gpxtpx:TrackPointExtension><gpxtpx:hr>150</gpxtpx:hr></gpxtpx:TrackPointExtension></extensions>
      </trkpt>
      <trkpt lat="59.113945" lon="17.462269">
        <ele>66</ele>
        <time>2020-03-26T12:46:16Z</time>
        <extensions><gpxtpx:TrackPointExtension><gpxtpx:hr>150</gpxtpx:hr></gpxtpx:TrackPointExtension></extensions>
      </trkpt>
      <trkpt lat="59.113949" lon="17.46244">
        <ele>66</ele>
        <time>2020-03-26T12:46:17Z</time>
        <extensions><gpxtpx:TrackPointExtension><gpxtpx:hr>150</gpxtpx:hr></gpxtpx:TrackPointExtension></extensions>
      </trkpt>
      <trkpt lat="59.113966" lon="17.462611">
        <ele>66</ele>
        <time>2020-03-26T12:46:18Z</time>
        <extensions><gpxtpx:TrackPointExtension><gpxtpx:hr>149</gpxtpx:hr></gpxtpx:TrackPointExtension></extensions>
      </trkpt>
      <trkpt lat="59.113993" lon="17.462773">
        <ele>66</ele>
        <time>2020-03-26T12:46:19Z</time>
        <extensions><gpxtpx:TrackPointExtension><gpxtpx:hr>149</gpxtpx:hr></gpxtpx:TrackPointExtension></extensions>
      </trkpt>
      <trkpt lat="59.114029" lon="17.462919">
        <ele>66</ele>
        <time>2020-03-26T12:46:20Z</time>
        <extensions><gpxtpx:TrackPointExtension><gpxtpx:hr>148</gpxtpx:hr></gpxtpx:TrackPointExtension></extensions>
      </trkpt>
      <trkpt lat="59.114082" lon="17.463056">
        <ele>66</ele>
        <time>2020-03-26T12:46:21Z</time>
        <extensions><gpxtpx:TrackPointExtension><gpxtpx:hr>148</gpxtpx:hr></gpxtpx:TrackPointExtension></extensions>
      </trkpt>
      <trkpt lat="59.114142" lon="17.463175">
        <ele>65.8</ele>
        <time>2020-03-26T12:46:22Z</time>
        <extensions><gpxtpx:TrackPointExtension><gpxtpx:hr>147</gpxtpx:hr></gpxtpx:TrackPointExtension></extensions>
      </trkpt>
      <trkpt lat="59.114206" lon="17.463289">
        <ele>65.8</ele>
        <time>2020-03-26T12:46:23Z</time>
        <extensions><gpxtpx:TrackPointExtension><gpxtpx:hr>147</gpxtpx:hr></gpxtpx:TrackPointExtension></extensions>
      </trkpt>
      <trkpt lat="59.114271" lon="17.4634">
        <ele>65.6</ele>
        <time>2020-03-26T12:46:24Z</time>
        <extensions><gpxtpx:TrackPointExtension><gpxtpx:hr>146</gpxtpx:hr></gpxtpx:TrackPointExtension></extensions>
      </trkpt>
      <trkpt lat="59.114334" lon="17.463503">
        <ele>65.6</ele>
        <time>2020-03-26T12:46:25Z</time>
        <extensions><gpxtpx:TrackPointExtension><gpxtpx:hr>145</gpxtpx:hr></gpxtpx:TrackPointExtension></extensions>
      </trkpt>
      <trkpt lat="59.114393" lon="17.463603">
        <ele>65.4</ele>
        <time>2020-03-26T12:46:26Z</time>
        <extensions><gpxtpx:TrackPointExtension><gpxtpx:hr>144</gpxtpx:hr></gpxtpx:TrackPointExtension></extensions>
      </trkpt>
      <trkpt lat="59.114455" lon="17.463697">
        <ele>65.4</ele>
        <time>2020-03-26T12:46:27Z</time>
        <extensions><gpxtpx:TrackPointExtension><gpxtpx:hr>143</gpxtpx:hr></gpxtpx:TrackPointExtension></extensions>
      </trkpt>
      <trkpt lat="59.114515" lon="17.463799">
        <ele>65.4</ele>
        <time>2020-03-26T12:46:28Z</time>
        <extensions><gpxtpx:TrackPointExtension><gpxtpx:hr>142</gpxtpx:hr></gpxtpx:TrackPointExtension></extensions>
      </trkpt>
      <trkpt lat="59.11457" lon="17.463911">
        <ele>65.2</ele>
        <time>2020-03-26T12:46:29Z</time>
        <extensions><gpxtpx:TrackPointExtension><gpxtpx:hr>141</gpxtpx:hr></gpxtpx:TrackPointExtension></extensions>
      </trkpt>
      <trkpt lat="59.114622" lon="17.464032">
        <ele>65.2</ele>
        <time>2020-03-26T12:46:30Z</time>
        <extensions><gpxtpx:TrackPointExtension><gpxtpx:hr>141</gpxtpx:hr></gpxtpx:TrackPointExtension></extensions>
      </trkpt>
      <trkpt lat="59.114663" lon="17.464161">
        <ele>65</ele>
        <time>2020-03-26T12:46:31Z</time>
        <extensions><gpxtpx:TrackPointExtension><gpxtpx:hr>141</gpxtpx:hr></gpxtpx:TrackPointExtension></extensions>
      </trkpt>
      <trkpt lat="59.114703" lon="17.464297">
        <ele>65</ele>
        <time>2020-03-26T12:46:32Z</time>
        <extensions><gpxtpx:TrackPointExtension><gpxtpx:hr>141</gpxtpx:hr></gpxtpx:TrackPointExtension></extensions>
      </trkpt>
      <trkpt lat="59.114742" lon="17.464435">
        <ele>65</ele>
        <time>2020-03-26T12:46:33Z</time>
        <extensions><gpxtpx:TrackPointExtension><gpxtpx:hr>140</gpxtpx:hr></gpxtpx:TrackPointExtension></extensions>
      </trkpt>
      <trkpt lat="59.114779" lon="17.464578">
        <ele>64.8</ele>
        <time>2020-03-26T12:46:34Z</time>
        <extensions><gpxtpx:TrackPointExtension><gpxtpx:hr>140</gpxtpx:hr></gpxtpx:TrackPointExtension></extensions>
      </trkpt>
      <trkpt lat="59.114819" lon="17.464721">
        <ele>64.8</ele>
        <time>2020-03-26T12:46:35Z</time>
        <extensions><gpxtpx:TrackPointExtension><gpxtpx:hr>140</gpxtpx:hr></gpxtpx:TrackPointExtension></extensions>
      </trkpt>
      <trkpt lat="59.114859" lon="17.464862">
        <ele>64.8</ele>
        <time>2020-03-26T12:46:36Z</time>
        <extensions><gpxtpx:TrackPointExtension><gpxtpx:hr>140</gpxtpx:hr></gpxtpx:TrackPointExtension></extensions>
      </trkpt>
      <trkpt lat="59.114901" lon="17.465004">
        <ele>64.8</ele>
        <time>2020-03-26T12:46:37Z</time>
        <extensions><gpxtpx:TrackPointExtension><gpxtpx:hr>141</gpxtpx:hr></gpxtpx:TrackPointExtension></extensions>
      </trkpt>
      <trkpt lat="59.114936" lon="17.465144">
        <ele>64.8</ele>
        <time>2020-03-26T12:46:38Z</time>
        <extensions><gpxtpx:TrackPointExtension><gpxtpx:hr>141</gpxtpx:hr></gpxtpx:TrackPointExtension></extensions>
      </trkpt>
      <trkpt lat="59.114972" lon="17.465286">
        <ele>64.8</ele>
        <time>2020-03-26T12:46:39Z</time>
        <extensions><gpxtpx:TrackPointExtension><gpxtpx:hr>141</gpxtpx:hr></gpxtpx:TrackPointExtension></extensions>
      </trkpt>
      <trkpt lat="59.115007" lon="17.465428">
        <ele>64.6</ele>
        <time>2020-03-26T12:46:40Z</time>
        <extensions><gpxtpx:TrackPointExtension><gpxtpx:hr>141</gpxtpx:hr></gpxtpx:TrackPointExtension></extensions>
      </trkpt>
      <trkpt lat="59.115042" lon="17.46557">
        <ele>64.6</ele>
        <time>2020-03-26T12:46:41Z</time>
        <extensions><gpxtpx:TrackPointExtension><gpxtpx:hr>141</gpxtpx:hr></gpxtpx:TrackPointExtension></extensions>
      </trkpt>
      <trkpt lat="59.11508" lon="17.465713">
        <ele>64.6</ele>
        <time>2020-03-26T12:46:42Z</time>
        <extensions><gpxtpx:TrackPointExtension><gpxtpx:hr>141</gpxtpx:hr></gpxtpx:TrackPointExtension></extensions>
      </trkpt>
      <trkpt lat="59.11512" lon="17.465856">
        <ele>64.6</ele>
        <time>2020-03-26T12:46:43Z</time>
        <extensions><gpxtpx:TrackPointExtension><gpxtpx:hr>141</gpxtpx:hr></gpxtpx:TrackPointExtension></extensions>
      </trkpt>
      <trkpt lat="59.115161" lon="17.465995">
        <ele>64.6</ele>
        <time>2020-03-26T12:46:44Z</time>
        <extensions><gpxtpx:TrackPointExtension><gpxtpx:hr>141</gpxtpx:hr></gpxtpx:TrackPointExtension></extensions>
      </trkpt>
      <trkpt lat="59.115206" lon="17.46613">
        <ele>64.6</ele>
        <time>2020-03-26T12:46:45Z</time>
        <extensions><gpxtpx:TrackPointExtension><gpxtpx:hr>141</gpxtpx:hr></gpxtpx:TrackPointExtension></extensions>
      </trkpt>
      <trkpt lat="59.115259" lon="17.466263">
        <ele>64.8</ele>
        <time>2020-03-26T12:46:46Z</time>
        <extensions><gpxtpx:TrackPointExtension><gpxtpx:hr>141</gpxtpx:hr></gpxtpx:TrackPointExtension></extensions>
      </trkpt>
      <trkpt lat="59.115317" lon="17.466394">
        <ele>64.8</ele>
        <time>2020-03-26T12:46:47Z</time>
        <extensions><gpxtpx:TrackPointExtension><gpxtpx:hr>141</gpxtpx:hr></gpxtpx:TrackPointExtension></extensions>
      </trkpt>
      <trkpt lat="59.115382" lon="17.466522">
        <ele>64.8</ele>
        <time>2020-03-26T12:46:48Z</time>
        <extensions><gpxtpx:TrackPointExtension><gpxtpx:hr>142</gpxtpx:hr></gpxtpx:TrackPointExtension></extensions>
      </trkpt>
      <trkpt lat="59.11545" lon="17.466647">
        <ele>64.8</ele>
        <time>2020-03-26T12:46:49Z</time>
        <extensions><gpxtpx:TrackPointExtension><gpxtpx:hr>142</gpxtpx:hr></gpxtpx:TrackPointExtension></extensions>
      </trkpt>
      <trkpt lat="59.115519" lon="17.466767">
        <ele>64.8</ele>
        <time>2020-03-26T12:46:50Z</time>
        <extensions><gpxtpx:TrackPointExtension><gpxtpx:hr>143</gpxtpx:hr></gpxtpx:TrackPointExtension></extensions>
      </trkpt>
      <trkpt lat="59.11559" lon="17.466882">
        <ele>64.6</ele>
        <time>2020-03-26T12:46:51Z</time>
        <extensions><gpxtpx:TrackPointExtension><gpxtpx:hr>143</gpxtpx:hr></gpxtpx:TrackPointExtension></extensions>
      </trkpt>
      <trkpt lat="59.115663" lon="17.466997">
        <ele>64.6</ele>
        <time>2020-03-26T12:46:52Z</time>
        <extensions><gpxtpx:TrackPointExtension><gpxtpx:hr>143</gpxtpx:hr></gpxtpx:TrackPointExtension></extensions>
      </trkpt>
      <trkpt lat="59.115735" lon="17.46711">
        <ele>64.6</ele>
        <time>2020-03-26T12:46:53Z</time>
        <extensions><gpxtpx:TrackPointExtension><gpxtpx:hr>142</gpxtpx:hr></gpxtpx:TrackPointExtension></extensions>
      </trkpt>
      <trkpt lat="59.115807" lon="17.467222">
        <ele>64.4</ele>
        <time>2020-03-26T12:46:54Z</time>
        <extensions><gpxtpx:TrackPointExtension><gpxtpx:hr>142</gpxtpx:hr></gpxtpx:TrackPointExtension></extensions>
      </trkpt>
      <trkpt lat="59.115879" lon="17.467331">
        <ele>64.2</ele>
        <time>2020-03-26T12:46:55Z</time>
        <extensions><gpxtpx:TrackPointExtension><gpxtpx:hr>142</gpxtpx:hr></gpxtpx:TrackPointExtension></extensions>
      </trkpt>
      <trkpt lat="59.115948" lon="17.467439">
        <ele>64</ele>
        <time>2020-03-26T12:46:56Z</time>
        <extensions><gpxtpx:TrackPointExtension><gpxtpx:hr>141</gpxtpx:hr></gpxtpx:TrackPointExtension></extensions>
      </trkpt>
      <trkpt lat="59.116016" lon="17.46755">
        <ele>63.6</ele>
        <time>2020-03-26T12:46:57Z</time>
        <extensions><gpxtpx:TrackPointExtension><gpxtpx:hr>140</gpxtpx:hr></gpxtpx:TrackPointExtension></extensions>
      </trkpt>
      <trkpt lat="59.116082" lon="17.46766">
        <ele>63.2</ele>
        <time>2020-03-26T12:46:58Z</time>
        <extensions><gpxtpx:TrackPointExtension><gpxtpx:hr>140</gpxtpx:hr></gpxtpx:TrackPointExtension></extensions>
      </trkpt>
      <trkpt lat="59.116145" lon="17.467771">
        <ele>62.8</ele>
        <time>2020-03-26T12:46:59Z</time>
        <extensions><gpxtpx:TrackPointExtension><gpxtpx:hr>140</gpxtpx:hr></gpxtpx:TrackPointExtension></extensions>
      </trkpt>
      <trkpt lat="59.116208" lon="17.467883">
        <ele>62</ele>
        <time>2020-03-26T12:47:00Z</time>
        <extensions><gpxtpx:TrackPointExtension><gpxtpx:hr>140</gpxtpx:hr></gpxtpx:TrackPointExtension></extensions>
      </trkpt>
      <trkpt lat="59.116267" lon="17.467998">
        <ele>61.8</ele>
        <time>2020-03-26T12:47:01Z</time>
        <extensions><gpxtpx:TrackPointExtension><gpxtpx:hr>140</gpxtpx:hr></gpxtpx:TrackPointExtension></extensions>
      </trkpt>
      <trkpt lat="59.116323" lon="17.468119">
        <ele>61.6</ele>
        <time>2020-03-26T12:47:02Z</time>
        <extensions><gpxtpx:TrackPointExtension><gpxtpx:hr>140</gpxtpx:hr></gpxtpx:TrackPointExtension></extensions>
      </trkpt>
      <trkpt lat="59.116375" lon="17.468248">
        <ele>61.4</ele>
        <time>2020-03-26T12:47:03Z</time>
        <extensions><gpxtpx:TrackPointExtension><gpxtpx:hr>140</gpxtpx:hr></gpxtpx:TrackPointExtension></extensions>
      </trkpt>
      <trkpt lat="59.116425" lon="17.468384">
        <ele>61.4</ele>
        <time>2020-03-26T12:47:04Z</time>
        <extensions><gpxtpx:TrackPointExtension><gpxtpx:hr>140</gpxtpx:hr></gpxtpx:TrackPointExtension></extensions>
      </trkpt>
      <trkpt lat="59.116471" lon="17.468524">
        <ele>61.2</ele>
        <time>2020-03-26T12:47:05Z</time>
        <extensions><gpxtpx:TrackPointExtension><gpxtpx:hr>140</gpxtpx:hr></gpxtpx:TrackPointExtension></extensions>
      </trkpt>
      <trkpt lat="59.116518" lon="17.468663">
        <ele>61.2</ele>
        <time>2020-03-26T12:47:06Z</time>
        <extensions><gpxtpx:TrackPointExtension><gpxtpx:hr>139</gpxtpx:hr></gpxtpx:TrackPointExtension></extensions>
      </trkpt>
      <trkpt lat="59.116567" lon="17.468799">
        <ele>61.2</ele>
        <time>2020-03-26T12:47:07Z</time>
        <extensions><gpxtpx:TrackPointExtension><gpxtpx:hr>138</gpxtpx:hr></gpxtpx:TrackPointExtension></extensions>
      </trkpt>
      <trkpt lat="59.116616" lon="17.468933">
        <ele>61.2</ele>
        <time>2020-03-26T12:47:08Z</time>
        <extensions><gpxtpx:TrackPointExtension><gpxtpx:hr>137</gpxtpx:hr></gpxtpx:TrackPointExtension></extensions>
      </trkpt>
      <trkpt lat="59.11666" lon="17.469072">
        <ele>61</ele>
        <time>2020-03-26T12:47:09Z</time>
        <extensions><gpxtpx:TrackPointExtension><gpxtpx:hr>136</gpxtpx:hr></gpxtpx:TrackPointExtension></extensions>
      </trkpt>
      <trkpt lat="59.116703" lon="17.469211">
        <ele>61</ele>
        <time>2020-03-26T12:47:10Z</time>
        <extensions><gpxtpx:TrackPointExtension><gpxtpx:hr>136</gpxtpx:hr></gpxtpx:TrackPointExtension></extensions>
      </trkpt>
      <trkpt lat="59.116749" lon="17.469349">
        <ele>61</ele>
        <time>2020-03-26T12:47:11Z</time>
        <extensions><gpxtpx:TrackPointExtension><gpxtpx:hr>135</gpxtpx:hr></gpxtpx:TrackPointExtension></extensions>
      </trkpt>
      <trkpt lat="59.116795" lon="17.469486">
        <ele>61</ele>
        <time>2020-03-26T12:47:12Z</time>
        <extensions><gpxtpx:TrackPointExtension><gpxtpx:hr>134</gpxtpx:hr></gpxtpx:TrackPointExtension></extensions>
      </trkpt>
      <trkpt lat="59.116841" lon="17.469625">
        <ele>60.6</ele>
        <time>2020-03-26T12:47:13Z</time>
        <extensions><gpxtpx:TrackPointExtension><gpxtpx:hr>133</gpxtpx:hr></gpxtpx:TrackPointExtension></extensions>
      </trkpt>
      <trkpt lat="59.116886" lon="17.469761">
        <ele>60.4</ele>
        <time>2020-03-26T12:47:14Z</time>
        <extensions><gpxtpx:TrackPointExtension><gpxtpx:hr>132</gpxtpx:hr></gpxtpx:TrackPointExtension></extensions>
      </trkpt>
      <trkpt lat="59.116934" lon="17.469898">
        <ele>60.2</ele>
        <time>2020-03-26T12:47:15Z</time>
        <extensions><gpxtpx:TrackPointExtension><gpxtpx:hr>131</gpxtpx:hr></gpxtpx:TrackPointExtension></extensions>
      </trkpt>
      <trkpt lat="59.116976" lon="17.470034">
        <ele>60</ele>
        <time>2020-03-26T12:47:16Z</time>
        <extensions><gpxtpx:TrackPointExtension><gpxtpx:hr>131</gpxtpx:hr></gpxtpx:TrackPointExtension></extensions>
      </trkpt>
      <trkpt lat="59.117018" lon="17.470174">
        <ele>60</ele>
        <time>2020-03-26T12:47:17Z</time>
        <extensions><gpxtpx:TrackPointExtension><gpxtpx:hr>130</gpxtpx:hr></gpxtpx:TrackPointExtension></extensions>
      </trkpt>
      <trkpt lat="59.117056" lon="17.470314">
        <ele>59.8</ele>
        <time>2020-03-26T12:47:18Z</time>
        <extensions><gpxtpx:TrackPointExtension><gpxtpx:hr>130</gpxtpx:hr></gpxtpx:TrackPointExtension></extensions>
      </trkpt>
      <trkpt lat="59.1171" lon="17.470446">
        <ele>59.8</ele>
        <time>2020-03-26T12:47:19Z</time>
        <extensions><gpxtpx:TrackPointExtension><gpxtpx:hr>129</gpxtpx:hr></gpxtpx:TrackPointExtension></extensions>
      </trkpt>
      <trkpt lat="59.117145" lon="17.470564">
        <ele>59.6</ele>
        <time>2020-03-26T12:47:20Z</time>
        <extensions><gpxtpx:TrackPointExtension><gpxtpx:hr>128</gpxtpx:hr></gpxtpx:TrackPointExtension></extensions>
      </trkpt>
      <trkpt lat="59.117193" lon="17.470644">
        <ele>59.6</ele>
        <time>2020-03-26T12:47:21Z</time>
        <extensions><gpxtpx:TrackPointExtension><gpxtpx:hr>127</gpxtpx:hr></gpxtpx:TrackPointExtension></extensions>
      </trkpt>
      <trkpt lat="59.117237" lon="17.47068">
        <ele>59.2</ele>
        <time>2020-03-26T12:47:22Z</time>
        <extensions><gpxtpx:TrackPointExtension><gpxtpx:hr>126</gpxtpx:hr></gpxtpx:TrackPointExtension></extensions>
      </trkpt>
      <trkpt lat="59.117281" lon="17.470692">
        <ele>59</ele>
        <time>2020-03-26T12:47:23Z</time>
        <extensions><gpxtpx:TrackPointExtension><gpxtpx:hr>124</gpxtpx:hr></gpxtpx:TrackPointExtension></extensions>
      </trkpt>
      <trkpt lat="59.117321" lon="17.470687">
        <ele>58.6</ele>
        <time>2020-03-26T12:47:24Z</time>
        <extensions><gpxtpx:TrackPointExtension><gpxtpx:hr>123</gpxtpx:hr></gpxtpx:TrackPointExtension></extensions>
      </trkpt>
      <trkpt lat="59.117367" lon="17.470669">
        <ele>58.4</ele>
        <time>2020-03-26T12:47:25Z</time>
        <extensions><gpxtpx:TrackPointExtension><gpxtpx:hr>122</gpxtpx:hr></gpxtpx:TrackPointExtension></extensions>
      </trkpt>
      <trkpt lat="59.117417" lon="17.470637">
        <ele>58.4</ele>
        <time>2020-03-26T12:47:26Z</time>
        <extensions><gpxtpx:TrackPointExtension><gpxtpx:hr>122</gpxtpx:hr></gpxtpx:TrackPointExtension></extensions>
      </trkpt>
      <trkpt lat="59.11747" lon="17.470588">
        <ele>58.2</ele>
        <time>2020-03-26T12:47:27Z</time>
        <extensions><gpxtpx:TrackPointExtension><gpxtpx:hr>124</gpxtpx:hr></gpxtpx:TrackPointExtension></extensions>
      </trkpt>
      <trkpt lat="59.117531" lon="17.470525">
        <ele>58.2</ele>
        <time>2020-03-26T12:47:28Z</time>
        <extensions><gpxtpx:TrackPointExtension><gpxtpx:hr>127</gpxtpx:hr></gpxtpx:TrackPointExtension></extensions>
      </trkpt>
      <trkpt lat="59.117594" lon="17.470454">
        <ele>58</ele>
        <time>2020-03-26T12:47:29Z</time>
        <extensions><gpxtpx:TrackPointExtension><gpxtpx:hr>130</gpxtpx:hr></gpxtpx:TrackPointExtension></extensions>
      </trkpt>
      <trkpt lat="59.117663" lon="17.47038">
        <ele>57.8</ele>
        <time>2020-03-26T12:47:30Z</time>
        <extensions><gpxtpx:TrackPointExtension><gpxtpx:hr>132</gpxtpx:hr></gpxtpx:TrackPointExtension></extensions>
      </trkpt>
      <trkpt lat="59.117736" lon="17.470303">
        <ele>57.8</ele>
        <time>2020-03-26T12:47:31Z</time>
        <extensions><gpxtpx:TrackPointExtension><gpxtpx:hr>134</gpxtpx:hr></gpxtpx:TrackPointExtension></extensions>
      </trkpt>
      <trkpt lat="59.11781" lon="17.470224">
        <ele>57.8</ele>
        <time>2020-03-26T12:47:32Z</time>
        <extensions><gpxtpx:TrackPointExtension><gpxtpx:hr>136</gpxtpx:hr></gpxtpx:TrackPointExtension></extensions>
      </trkpt>
      <trkpt lat="59.117876" lon="17.470143">
        <ele>57.6</ele>
        <time>2020-03-26T12:47:33Z</time>
        <extensions><gpxtpx:TrackPointExtension><gpxtpx:hr>136</gpxtpx:hr></gpxtpx:TrackPointExtension></extensions>
      </trkpt>
      <trkpt lat="59.117944" lon="17.470058">
        <ele>57.4</ele>
        <time>2020-03-26T12:47:34Z</time>
        <extensions><gpxtpx:TrackPointExtension><gpxtpx:hr>137</gpxtpx:hr></gpxtpx:TrackPointExtension></extensions>
      </trkpt>
      <trkpt lat="59.118012" lon="17.469976">
        <ele>57.4</ele>
        <time>2020-03-26T12:47:35Z</time>
        <extensions><gpxtpx:TrackPointExtension><gpxtpx:hr>137</gpxtpx:hr></gpxtpx:TrackPointExtension></extensions>
      </trkpt>
      <trkpt lat="59.118086" lon="17.469895">
        <ele>57.4</ele>
        <time>2020-03-26T12:47:36Z</time>
        <extensions><gpxtpx:TrackPointExtension><gpxtpx:hr>138</gpxtpx:hr></gpxtpx:TrackPointExtension></extensions>
      </trkpt>
      <trkpt lat="59.118164" lon="17.469813">
        <ele>57.4</ele>
        <time>2020-03-26T12:47:37Z</time>
        <extensions><gpxtpx:TrackPointExtension><gpxtpx:hr>138</gpxtpx:hr></gpxtpx:TrackPointExtension></extensions>
      </trkpt>
      <trkpt lat="59.118238" lon="17.469736">
        <ele>57.4</ele>
        <time>2020-03-26T12:47:38Z</time>
        <extensions><gpxtpx:TrackPointExtension><gpxtpx:hr>139</gpxtpx:hr></gpxtpx:TrackPointExtension></extensions>
      </trkpt>
      <trkpt lat="59.118314" lon="17.469657">
        <ele>57.4</ele>
        <time>2020-03-26T12:47:39Z</time>
        <extensions><gpxtpx:TrackPointExtension><gpxtpx:hr>140</gpxtpx:hr></gpxtpx:TrackPointExtension></extensions>
      </trkpt>
      <trkpt lat="59.118391" lon="17.469582">
        <ele>57.2</ele>
        <time>2020-03-26T12:47:40Z</time>
        <extensions><gpxtpx:TrackPointExtension><gpxtpx:hr>141</gpxtpx:hr></gpxtpx:TrackPointExtension></extensions>
      </trkpt>
      <trkpt lat="59.118467" lon="17.469507">
        <ele>57.2</ele>
        <time>2020-03-26T12:47:41Z</time>
        <extensions><gpxtpx:TrackPointExtension><gpxtpx:hr>142</gpxtpx:hr></gpxtpx:TrackPointExtension></extensions>
      </trkpt>
      <trkpt lat="59.118542" lon="17.469423">
        <ele>57.2</ele>
        <time>2020-03-26T12:47:42Z</time>
        <extensions><gpxtpx:TrackPointExtension><gpxtpx:hr>143</gpxtpx:hr></gpxtpx:TrackPointExtension></extensions>
      </trkpt>
      <trkpt lat="59.118621" lon="17.469341">
        <ele>57</ele>
        <time>2020-03-26T12:47:43Z</time>
        <extensions><gpxtpx:TrackPointExtension><gpxtpx:hr>143</gpxtpx:hr></gpxtpx:TrackPointExtension></extensions>
      </trkpt>
      <trkpt lat="59.118697" lon="17.46926">
        <ele>57</ele>
        <time>2020-03-26T12:47:44Z</time>
        <extensions><gpxtpx:TrackPointExtension><gpxtpx:hr>144</gpxtpx:hr></gpxtpx:TrackPointExtension></extensions>
      </trkpt>
      <trkpt lat="59.118776" lon="17.469178">
        <ele>57</ele>
        <time>2020-03-26T12:47:45Z</time>
        <extensions><gpxtpx:TrackPointExtension><gpxtpx:hr>145</gpxtpx:hr></gpxtpx:TrackPointExtension></extensions>
      </trkpt>
      <trkpt lat="59.118853" lon="17.469096">
        <ele>57.2</ele>
        <time>2020-03-26T12:47:46Z</time>
        <extensions><gpxtpx:TrackPointExtension><gpxtpx:hr>145</gpxtpx:hr></gpxtpx:TrackPointExtension></extensions>
      </trkpt>
      <trkpt lat="59.11893" lon="17.469016">
        <ele>57.2</ele>
        <time>2020-03-26T12:47:47Z</time>
        <extensions><gpxtpx:TrackPointExtension><gpxtpx:hr>146</gpxtpx:hr></gpxtpx:TrackPointExtension></extensions>
      </trkpt>
      <trkpt lat="59.119007" lon="17.468936">
        <ele>56.8</ele>
        <time>2020-03-26T12:47:48Z</time>
        <extensions><gpxtpx:TrackPointExtension><gpxtpx:hr>146</gpxtpx:hr></gpxtpx:TrackPointExtension></extensions>
      </trkpt>
      <trkpt lat="59.119084" lon="17.468852">
        <ele>56.8</ele>
        <time>2020-03-26T12:47:49Z</time>
        <extensions><gpxtpx:TrackPointExtension><gpxtpx:hr>146</gpxtpx:hr></gpxtpx:TrackPointExtension></extensions>
      </trkpt>
      <trkpt lat="59.119163" lon="17.46877">
        <ele>56.8</ele>
        <time>2020-03-26T12:47:50Z</time>
        <extensions><gpxtpx:TrackPointExtension><gpxtpx:hr>147</gpxtpx:hr></gpxtpx:TrackPointExtension></extensions>
      </trkpt>
      <trkpt lat="59.119236" lon="17.468694">
        <ele>56.6</ele>
        <time>2020-03-26T12:47:51Z</time>
        <extensions><gpxtpx:TrackPointExtension><gpxtpx:hr>147</gpxtpx:hr></gpxtpx:TrackPointExtension></extensions>
      </trkpt>
      <trkpt lat="59.11931" lon="17.468616">
        <ele>56.4</ele>
        <time>2020-03-26T12:47:52Z</time>
        <extensions><gpxtpx:TrackPointExtension><gpxtpx:hr>147</gpxtpx:hr></gpxtpx:TrackPointExtension></extensions>
      </trkpt>
      <trkpt lat="59.119386" lon="17.468541">
        <ele>56.2</ele>
        <time>2020-03-26T12:47:53Z</time>
        <extensions><gpxtpx:TrackPointExtension><gpxtpx:hr>147</gpxtpx:hr></gpxtpx:TrackPointExtension></extensions>
      </trkpt>
      <trkpt lat="59.119462" lon="17.468466">
        <ele>56</ele>
        <time>2020-03-26T12:47:54Z</time>
        <extensions><gpxtpx:TrackPointExtension><gpxtpx:hr>146</gpxtpx:hr></gpxtpx:TrackPointExtension></extensions>
      </trkpt>
      <trkpt lat="59.119538" lon="17.468389">
        <ele>56</ele>
        <time>2020-03-26T12:47:55Z</time>
        <extensions><gpxtpx:TrackPointExtension><gpxtpx:hr>146</gpxtpx:hr></gpxtpx:TrackPointExtension></extensions>
      </trkpt>
      <trkpt lat="59.119612" lon="17.468318">
        <ele>55.8</ele>
        <time>2020-03-26T12:47:56Z</time>
        <extensions><gpxtpx:TrackPointExtension><gpxtpx:hr>145</gpxtpx:hr></gpxtpx:TrackPointExtension></extensions>
      </trkpt>
      <trkpt lat="59.119683" lon="17.468242">
        <ele>55.8</ele>
        <time>2020-03-26T12:47:57Z</time>
        <extensions><gpxtpx:TrackPointExtension><gpxtpx:hr>145</gpxtpx:hr></gpxtpx:TrackPointExtension></extensions>
      </trkpt>
      <trkpt lat="59.119753" lon="17.468168">
        <ele>55.6</ele>
        <time>2020-03-26T12:47:58Z</time>
        <extensions><gpxtpx:TrackPointExtension><gpxtpx:hr>145</gpxtpx:hr></gpxtpx:TrackPointExtension></extensions>
      </trkpt>
      <trkpt lat="59.119824" lon="17.4681">
        <ele>55.6</ele>
        <time>2020-03-26T12:47:59Z</time>
        <extensions><gpxtpx:TrackPointExtension><gpxtpx:hr>145</gpxtpx:hr></gpxtpx:TrackPointExtension></extensions>
      </trkpt>
      <trkpt lat="59.119893" lon="17.468032">
        <ele>55.6</ele>
        <time>2020-03-26T12:48:00Z</time>
        <extensions><gpxtpx:TrackPointExtension><gpxtpx:hr>145</gpxtpx:hr></gpxtpx:TrackPointExtension></extensions>
      </trkpt>
      <trkpt lat="59.119963" lon="17.467958">
        <ele>55.6</ele>
        <time>2020-03-26T12:48:01Z</time>
        <extensions><gpxtpx:TrackPointExtension><gpxtpx:hr>145</gpxtpx:hr></gpxtpx:TrackPointExtension></extensions>
      </trkpt>
      <trkpt lat="59.120035" lon="17.467888">
        <ele>55.6</ele>
        <time>2020-03-26T12:48:02Z</time>
        <extensions><gpxtpx:TrackPointExtension><gpxtpx:hr>145</gpxtpx:hr></gpxtpx:TrackPointExtension></extensions>
      </trkpt>
      <trkpt lat="59.120109" lon="17.467815">
        <ele>55.6</ele>
        <time>2020-03-26T12:48:03Z</time>
        <extensions><gpxtpx:TrackPointExtension><gpxtpx:hr>145</gpxtpx:hr></gpxtpx:TrackPointExtension></extensions>
      </trkpt>
      <trkpt lat="59.12018" lon="17.467739">
        <ele>55.6</ele>
        <time>2020-03-26T12:48:04Z</time>
        <extensions><gpxtpx:TrackPointExtension><gpxtpx:hr>145</gpxtpx:hr></gpxtpx:TrackPointExtension></extensions>
      </trkpt>
      <trkpt lat="59.12025" lon="17.467665">
        <ele>55.4</ele>
        <time>2020-03-26T12:48:05Z</time>
        <extensions><gpxtpx:TrackPointExtension><gpxtpx:hr>145</gpxtpx:hr></gpxtpx:TrackPointExtension></extensions>
      </trkpt>
      <trkpt lat="59.120319" lon="17.467593">
        <ele>55.4</ele>
        <time>2020-03-26T12:48:06Z</time>
        <extensions><gpxtpx:TrackPointExtension><gpxtpx:hr>146</gpxtpx:hr></gpxtpx:TrackPointExtension></extensions>
      </trkpt>
      <trkpt lat="59.120389" lon="17.467522">
        <ele>55.4</ele>
        <time>2020-03-26T12:48:07Z</time>
        <extensions><gpxtpx:TrackPointExtension><gpxtpx:hr>146</gpxtpx:hr></gpxtpx:TrackPointExtension></extensions>
      </trkpt>
      <trkpt lat="59.120458" lon="17.467452">
        <ele>55.4</ele>
        <time>2020-03-26T12:48:08Z</time>
        <extensions><gpxtpx:TrackPointExtension><gpxtpx:hr>146</gpxtpx:hr></gpxtpx:TrackPointExtension></extensions>
      </trkpt>
      <trkpt lat="59.120527" lon="17.467382">
        <ele>55.4</ele>
        <time>2020-03-26T12:48:09Z</time>
        <extensions><gpxtpx:TrackPointExtension><gpxtpx:hr>146</gpxtpx:hr></gpxtpx:TrackPointExtension></extensions>
      </trkpt>
      <trkpt lat="59.120598" lon="17.46732">
        <ele>55.4</ele>
        <time>2020-03-26T12:48:10Z</time>
        <extensions><gpxtpx:TrackPointExtension><gpxtpx:hr>147</gpxtpx:hr></gpxtpx:TrackPointExtension></extensions>
      </trkpt>
      <trkpt lat="59.12067" lon="17.467261">
        <ele>55.2</ele>
        <time>2020-03-26T12:48:11Z</time>
        <extensions><gpxtpx:TrackPointExtension><gpxtpx:hr>147</gpxtpx:hr></gpxtpx:TrackPointExtension></extensions>
      </trkpt>
      <trkpt lat="59.120742" lon="17.467207">
        <ele>55.2</ele>
        <time>2020-03-26T12:48:12Z</time>
        <extensions><gpxtpx:TrackPointExtension><gpxtpx:hr>147</gpxtpx:hr></gpxtpx:TrackPointExtension></extensions>
      </trkpt>
      <trkpt lat="59.120813" lon="17.467154">
        <ele>55.2</ele>
        <time>2020-03-26T12:48:13Z</time>
        <extensions><gpxtpx:TrackPointExtension><gpxtpx:hr>147</gpxtpx:hr></gpxtpx:TrackPointExtension></extensions>
      </trkpt>
      <trkpt lat="59.120886" lon="17.467108">
        <ele>55</ele>
        <time>2020-03-26T12:48:14Z</time>
        <extensions><gpxtpx:TrackPointExtension><gpxtpx:hr>147</gpxtpx:hr></gpxtpx:TrackPointExtension></extensions>
      </trkpt>
      <trkpt lat="59.120959" lon="17.467058">
        <ele>55</ele>
        <time>2020-03-26T12:48:15Z</time>
        <extensions><gpxtpx:TrackPointExtension><gpxtpx:hr>147</gpxtpx:hr></gpxtpx:TrackPointExtension></extensions>
      </trkpt>
      <trkpt lat="59.121031" lon="17.467009">
        <ele>54.8</ele>
        <time>2020-03-26T12:48:16Z</time>
        <extensions><gpxtpx:TrackPointExtension><gpxtpx:hr>147</gpxtpx:hr></gpxtpx:TrackPointExtension></extensions>
      </trkpt>
      <trkpt lat="59.121104" lon="17.466955">
        <ele>54.8</ele>
        <time>2020-03-26T12:48:17Z</time>
        <extensions><gpxtpx:TrackPointExtension><gpxtpx:hr>147</gpxtpx:hr></gpxtpx:TrackPointExtension></extensions>
      </trkpt>
      <trkpt lat="59.121178" lon="17.466902">
        <ele>54.8</ele>
        <time>2020-03-26T12:48:18Z</time>
        <extensions><gpxtpx:TrackPointExtension><gpxtpx:hr>147</gpxtpx:hr></gpxtpx:TrackPointExtension></extensions>
      </trkpt>
      <trkpt lat="59.121252" lon="17.466849">
        <ele>54.8</ele>
        <time>2020-03-26T12:48:19Z</time>
        <extensions><gpxtpx:TrackPointExtension><gpxtpx:hr>148</gpxtpx:hr></gpxtpx:TrackPointExtension></extensions>
      </trkpt>
      <trkpt lat="59.121325" lon="17.466794">
        <ele>54.8</ele>
        <time>2020-03-26T12:48:20Z</time>
        <extensions><gpxtpx:TrackPointExtension><gpxtpx:hr>148</gpxtpx:hr></gpxtpx:TrackPointExtension></extensions>
      </trkpt>
      <trkpt lat="59.121399" lon="17.466734">
        <ele>54.8</ele>
        <time>2020-03-26T12:48:21Z</time>
        <extensions><gpxtpx:TrackPointExtension><gpxtpx:hr>148</gpxtpx:hr></gpxtpx:TrackPointExtension></extensions>
      </trkpt>
      <trkpt lat="59.121473" lon="17.466664">
        <ele>54.8</ele>
        <time>2020-03-26T12:48:22Z</time>
        <extensions><gpxtpx:TrackPointExtension><gpxtpx:hr>148</gpxtpx:hr></gpxtpx:TrackPointExtension></extensions>
      </trkpt>
      <trkpt lat="59.121544" lon="17.466585">
        <ele>54.8</ele>
        <time>2020-03-26T12:48:23Z</time>
        <extensions><gpxtpx:TrackPointExtension><gpxtpx:hr>149</gpxtpx:hr></gpxtpx:TrackPointExtension></extensions>
      </trkpt>
      <trkpt lat="59.12161" lon="17.4665">
        <ele>54.6</ele>
        <time>2020-03-26T12:48:24Z</time>
        <extensions><gpxtpx:TrackPointExtension><gpxtpx:hr>149</gpxtpx:hr></gpxtpx:TrackPointExtension></extensions>
      </trkpt>
      <trkpt lat="59.121675" lon="17.466416">
        <ele>54.6</ele>
        <time>2020-03-26T12:48:25Z</time>
        <extensions><gpxtpx:TrackPointExtension><gpxtpx:hr>149</gpxtpx:hr></gpxtpx:TrackPointExtension></extensions>
      </trkpt>
      <trkpt lat="59.121739" lon="17.46633">
        <ele>54.6</ele>
        <time>2020-03-26T12:48:26Z</time>
        <extensions><gpxtpx:TrackPointExtension><gpxtpx:hr>149</gpxtpx:hr></gpxtpx:TrackPointExtension></extensions>
      </trkpt>
      <trkpt lat="59.121802" lon="17.466245">
        <ele>54.6</ele>
        <time>2020-03-26T12:48:27Z</time>
        <extensions><gpxtpx:TrackPointExtension><gpxtpx:hr>149</gpxtpx:hr></gpxtpx:TrackPointExtension></extensions>
      </trkpt>
      <trkpt lat="59.121846" lon="17.466185">
        <ele>54.6</ele>
        <time>2020-03-26T12:48:28Z</time>
        <extensions><gpxtpx:TrackPointExtension><gpxtpx:hr>149</gpxtpx:hr></gpxtpx:TrackPointExtension></extensions>
      </trkpt>
      <trkpt lat="59.12189" lon="17.466125">
        <ele>54.6</ele>
        <time>2020-03-26T12:48:29Z</time>
        <extensions><gpxtpx:TrackPointExtension><gpxtpx:hr>149</gpxtpx:hr></gpxtpx:TrackPointExtension></extensions>
      </trkpt>
      <trkpt lat="59.121977" lon="17.466005">
        <ele>54.6</ele>
        <time>2020-03-26T12:48:30Z</time>
        <extensions><gpxtpx:TrackPointExtension><gpxtpx:hr>149</gpxtpx:hr></gpxtpx:TrackPointExtension></extensions>
      </trkpt>
      <trkpt lat="59.122032" lon="17.465925">
        <ele>54.8</ele>
        <time>2020-03-26T12:48:31Z</time>
        <extensions><gpxtpx:TrackPointExtension><gpxtpx:hr>149</gpxtpx:hr></gpxtpx:TrackPointExtension></extensions>
      </trkpt>
      <trkpt lat="59.122085" lon="17.465844">
        <ele>54.8</ele>
        <time>2020-03-26T12:48:32Z</time>
        <extensions><gpxtpx:TrackPointExtension><gpxtpx:hr>149</gpxtpx:hr></gpxtpx:TrackPointExtension></extensions>
      </trkpt>
      <trkpt lat="59.122139" lon="17.465762">
        <ele>54.8</ele>
        <time>2020-03-26T12:48:33Z</time>
        <extensions><gpxtpx:TrackPointExtension><gpxtpx:hr>150</gpxtpx:hr></gpxtpx:TrackPointExtension></extensions>
      </trkpt>
      <trkpt lat="59.122194" lon="17.465682">
        <ele>54.8</ele>
        <time>2020-03-26T12:48:34Z</time>
        <extensions><gpxtpx:TrackPointExtension><gpxtpx:hr>150</gpxtpx:hr></gpxtpx:TrackPointExtension></extensions>
      </trkpt>
      <trkpt lat="59.122247" lon="17.465604">
        <ele>55</ele>
        <time>2020-03-26T12:48:35Z</time>
        <extensions><gpxtpx:TrackPointExtension><gpxtpx:hr>150</gpxtpx:hr></gpxtpx:TrackPointExtension></extensions>
      </trkpt>
      <trkpt lat="59.122301" lon="17.465529">
        <ele>55.2</ele>
        <time>2020-03-26T12:48:36Z</time>
        <extensions><gpxtpx:TrackPointExtension><gpxtpx:hr>151</gpxtpx:hr></gpxtpx:TrackPointExtension></extensions>
      </trkpt>
      <trkpt lat="59.122354" lon="17.465456">
        <ele>55.2</ele>
        <time>2020-03-26T12:48:37Z</time>
        <extensions><gpxtpx:TrackPointExtension><gpxtpx:hr>151</gpxtpx:hr></gpxtpx:TrackPointExtension></extensions>
      </trkpt>
      <trkpt lat="59.122406" lon="17.465381">
        <ele>55.4</ele>
        <time>2020-03-26T12:48:38Z</time>
        <extensions><gpxtpx:TrackPointExtension><gpxtpx:hr>152</gpxtpx:hr></gpxtpx:TrackPointExtension></extensions>
      </trkpt>
      <trkpt lat="59.122457" lon="17.465308">
        <ele>55.6</ele>
        <time>2020-03-26T12:48:39Z</time>
        <extensions><gpxtpx:TrackPointExtension><gpxtpx:hr>152</gpxtpx:hr></gpxtpx:TrackPointExtension></extensions>
      </trkpt>
      <trkpt lat="59.122506" lon="17.465237">
        <ele>56</ele>
        <time>2020-03-26T12:48:40Z</time>
        <extensions><gpxtpx:TrackPointExtension><gpxtpx:hr>152</gpxtpx:hr></gpxtpx:TrackPointExtension></extensions>
      </trkpt>
      <trkpt lat="59.122554" lon="17.46517">
        <ele>56.2</ele>
        <time>2020-03-26T12:48:41Z</time>
        <extensions><gpxtpx:TrackPointExtension><gpxtpx:hr>153</gpxtpx:hr></gpxtpx:TrackPointExtension></extensions>
      </trkpt>
      <trkpt lat="59.122603" lon="17.465103">
        <ele>56.2</ele>
        <time>2020-03-26T12:48:42Z</time>
        <extensions><gpxtpx:TrackPointExtension><gpxtpx:hr>153</gpxtpx:hr></gpxtpx:TrackPointExtension></extensions>
      </trkpt>
      <trkpt lat="59.12265" lon="17.465034">
        <ele>56.4</ele>
        <time>2020-03-26T12:48:43Z</time>
        <extensions><gpxtpx:TrackPointExtension><gpxtpx:hr>153</gpxtpx:hr></gpxtpx:TrackPointExtension></extensions>
      </trkpt>
      <trkpt lat="59.122698" lon="17.464965">
        <ele>56.6</ele>
        <time>2020-03-26T12:48:44Z</time>
        <extensions><gpxtpx:TrackPointExtension><gpxtpx:hr>153</gpxtpx:hr></gpxtpx:TrackPointExtension></extensions>
      </trkpt>
      <trkpt lat="59.122746" lon="17.464895">
        <ele>56.8</ele>
        <time>2020-03-26T12:48:45Z</time>
        <extensions><gpxtpx:TrackPointExtension><gpxtpx:hr>154</gpxtpx:hr></gpxtpx:TrackPointExtension></extensions>
      </trkpt>
      <trkpt lat="59.122797" lon="17.464827">
        <ele>57</ele>
        <time>2020-03-26T12:48:46Z</time>
        <extensions><gpxtpx:TrackPointExtension><gpxtpx:hr>154</gpxtpx:hr></gpxtpx:TrackPointExtension></extensions>
      </trkpt>
      <trkpt lat="59.122847" lon="17.464758">
        <ele>57.2</ele>
        <time>2020-03-26T12:48:47Z</time>
        <extensions><gpxtpx:TrackPointExtension><gpxtpx:hr>154</gpxtpx:hr></gpxtpx:TrackPointExtension></extensions>
      </trkpt>
      <trkpt lat="59.122902" lon="17.46469">
        <ele>57.4</ele>
        <time>2020-03-26T12:48:48Z</time>
        <extensions><gpxtpx:TrackPointExtension><gpxtpx:hr>154</gpxtpx:hr></gpxtpx:TrackPointExtension></extensions>
      </trkpt>
      <trkpt lat="59.122955" lon="17.464621">
        <ele>57.6</ele>
        <time>2020-03-26T12:48:49Z</time>
        <extensions><gpxtpx:TrackPointExtension><gpxtpx:hr>154</gpxtpx:hr></gpxtpx:TrackPointExtension></extensions>
      </trkpt>
      <trkpt lat="59.123009" lon="17.464552">
        <ele>58</ele>
        <time>2020-03-26T12:48:50Z</time>
        <extensions><gpxtpx:TrackPointExtension><gpxtpx:hr>154</gpxtpx:hr></gpxtpx:TrackPointExtension></extensions>
      </trkpt>
      <trkpt lat="59.123062" lon="17.464485">
        <ele>58</ele>
        <time>2020-03-26T12:48:51Z</time>
        <extensions><gpxtpx:TrackPointExtension><gpxtpx:hr>154</gpxtpx:hr></gpxtpx:TrackPointExtension></extensions>
      </trkpt>
      <trkpt lat="59.123116" lon="17.464416">
        <ele>58.2</ele>
        <time>2020-03-26T12:48:52Z</time>
        <extensions><gpxtpx:TrackPointExtension><gpxtpx:hr>154</gpxtpx:hr></gpxtpx:TrackPointExtension></extensions>
      </trkpt>
      <trkpt lat="59.123168" lon="17.464347">
        <ele>58.4</ele>
        <time>2020-03-26T12:48:53Z</time>
        <extensions><gpxtpx:TrackPointExtension><gpxtpx:hr>155</gpxtpx:hr></gpxtpx:TrackPointExtension></extensions>
      </trkpt>
      <trkpt lat="59.123221" lon="17.464277">
        <ele>58.4</ele>
        <time>2020-03-26T12:48:54Z</time>
        <extensions><gpxtpx:TrackPointExtension><gpxtpx:hr>155</gpxtpx:hr></gpxtpx:TrackPointExtension></extensions>
      </trkpt>
      <trkpt lat="59.123277" lon="17.46421">
        <ele>58.6</ele>
        <time>2020-03-26T12:48:55Z</time>
        <extensions><gpxtpx:TrackPointExtension><gpxtpx:hr>155</gpxtpx:hr></gpxtpx:TrackPointExtension></extensions>
      </trkpt>
      <trkpt lat="59.123334" lon="17.464146">
        <ele>58.6</ele>
        <time>2020-03-26T12:48:56Z</time>
        <extensions><gpxtpx:TrackPointExtension><gpxtpx:hr>155</gpxtpx:hr></gpxtpx:TrackPointExtension></extensions>
      </trkpt>
      <trkpt lat="59.123392" lon="17.464085">
        <ele>58.8</ele>
        <time>2020-03-26T12:48:57Z</time>
        <extensions><gpxtpx:TrackPointExtension><gpxtpx:hr>155</gpxtpx:hr></gpxtpx:TrackPointExtension></extensions>
      </trkpt>
      <trkpt lat="59.123451" lon="17.464026">
        <ele>59</ele>
        <time>2020-03-26T12:48:58Z</time>
        <extensions><gpxtpx:TrackPointExtension><gpxtpx:hr>156</gpxtpx:hr></gpxtpx:TrackPointExtension></extensions>
      </trkpt>
      <trkpt lat="59.123511" lon="17.463967">
        <ele>59</ele>
        <time>2020-03-26T12:48:59Z</time>
        <extensions><gpxtpx:TrackPointExtension><gpxtpx:hr>156</gpxtpx:hr></gpxtpx:TrackPointExtension></extensions>
      </trkpt>
      <trkpt lat="59.123571" lon="17.463909">
        <ele>59.2</ele>
        <time>2020-03-26T12:49:00Z</time>
        <extensions><gpxtpx:TrackPointExtension><gpxtpx:hr>156</gpxtpx:hr></gpxtpx:TrackPointExtension></extensions>
      </trkpt>
      <trkpt lat="59.123633" lon="17.463853">
        <ele>59.2</ele>
        <time>2020-03-26T12:49:01Z</time>
        <extensions><gpxtpx:TrackPointExtension><gpxtpx:hr>156</gpxtpx:hr></gpxtpx:TrackPointExtension></extensions>
      </trkpt>
      <trkpt lat="59.123695" lon="17.463802">
        <ele>59.2</ele>
        <time>2020-03-26T12:49:02Z</time>
        <extensions><gpxtpx:TrackPointExtension><gpxtpx:hr>156</gpxtpx:hr></gpxtpx:TrackPointExtension></extensions>
      </trkpt>
      <trkpt lat="59.123756" lon="17.463754">
        <ele>59.2</ele>
        <time>2020-03-26T12:49:03Z</time>
        <extensions><gpxtpx:TrackPointExtension><gpxtpx:hr>156</gpxtpx:hr></gpxtpx:TrackPointExtension></extensions>
      </trkpt>
      <trkpt lat="59.12382" lon="17.46371">
        <ele>59.2</ele>
        <time>2020-03-26T12:49:04Z</time>
        <extensions><gpxtpx:TrackPointExtension><gpxtpx:hr>156</gpxtpx:hr></gpxtpx:TrackPointExtension></extensions>
      </trkpt>
      <trkpt lat="59.123884" lon="17.46367">
        <ele>59.2</ele>
        <time>2020-03-26T12:49:05Z</time>
        <extensions><gpxtpx:TrackPointExtension><gpxtpx:hr>156</gpxtpx:hr></gpxtpx:TrackPointExtension></extensions>
      </trkpt>
      <trkpt lat="59.123951" lon="17.463632">
        <ele>59.2</ele>
        <time>2020-03-26T12:49:06Z</time>
        <extensions><gpxtpx:TrackPointExtension><gpxtpx:hr>157</gpxtpx:hr></gpxtpx:TrackPointExtension></extensions>
      </trkpt>
      <trkpt lat="59.124017" lon="17.463596">
        <ele>59.2</ele>
        <time>2020-03-26T12:49:07Z</time>
        <extensions><gpxtpx:TrackPointExtension><gpxtpx:hr>157</gpxtpx:hr></gpxtpx:TrackPointExtension></extensions>
      </trkpt>
      <trkpt lat="59.124084" lon="17.463562">
        <ele>59.2</ele>
        <time>2020-03-26T12:49:08Z</time>
        <extensions><gpxtpx:TrackPointExtension><gpxtpx:hr>157</gpxtpx:hr></gpxtpx:TrackPointExtension></extensions>
      </trkpt>
      <trkpt lat="59.12415" lon="17.463528">
        <ele>59.2</ele>
        <time>2020-03-26T12:49:09Z</time>
        <extensions><gpxtpx:TrackPointExtension><gpxtpx:hr>157</gpxtpx:hr></gpxtpx:TrackPointExtension></extensions>
      </trkpt>
      <trkpt lat="59.124218" lon="17.463494">
        <ele>59.2</ele>
        <time>2020-03-26T12:49:10Z</time>
        <extensions><gpxtpx:TrackPointExtension><gpxtpx:hr>157</gpxtpx:hr></gpxtpx:TrackPointExtension></extensions>
      </trkpt>
      <trkpt lat="59.124286" lon="17.463462">
        <ele>59</ele>
        <time>2020-03-26T12:49:11Z</time>
        <extensions><gpxtpx:TrackPointExtension><gpxtpx:hr>157</gpxtpx:hr></gpxtpx:TrackPointExtension></extensions>
      </trkpt>
      <trkpt lat="59.124355" lon="17.463431">
        <ele>59</ele>
        <time>2020-03-26T12:49:12Z</time>
        <extensions><gpxtpx:TrackPointExtension><gpxtpx:hr>157</gpxtpx:hr></gpxtpx:TrackPointExtension></extensions>
      </trkpt>
      <trkpt lat="59.124423" lon="17.463399">
        <ele>59</ele>
        <time>2020-03-26T12:49:13Z</time>
        <extensions><gpxtpx:TrackPointExtension><gpxtpx:hr>156</gpxtpx:hr></gpxtpx:TrackPointExtension></extensions>
      </trkpt>
      <trkpt lat="59.124491" lon="17.463368">
        <ele>59</ele>
        <time>2020-03-26T12:49:14Z</time>
        <extensions><gpxtpx:TrackPointExtension><gpxtpx:hr>156</gpxtpx:hr></gpxtpx:TrackPointExtension></extensions>
      </trkpt>
      <trkpt lat="59.124557" lon="17.463343">
        <ele>59</ele>
        <time>2020-03-26T12:49:15Z</time>
        <extensions><gpxtpx:TrackPointExtension><gpxtpx:hr>156</gpxtpx:hr></gpxtpx:TrackPointExtension></extensions>
      </trkpt>
      <trkpt lat="59.124625" lon="17.463323">
        <ele>59</ele>
        <time>2020-03-26T12:49:16Z</time>
        <extensions><gpxtpx:TrackPointExtension><gpxtpx:hr>155</gpxtpx:hr></gpxtpx:TrackPointExtension></extensions>
      </trkpt>
      <trkpt lat="59.124694" lon="17.463304">
        <ele>59</ele>
        <time>2020-03-26T12:49:17Z</time>
        <extensions><gpxtpx:TrackPointExtension><gpxtpx:hr>155</gpxtpx:hr></gpxtpx:TrackPointExtension></extensions>
      </trkpt>
      <trkpt lat="59.124762" lon="17.463287">
        <ele>59</ele>
        <time>2020-03-26T12:49:18Z</time>
        <extensions><gpxtpx:TrackPointExtension><gpxtpx:hr>155</gpxtpx:hr></gpxtpx:TrackPointExtension></extensions>
      </trkpt>
      <trkpt lat="59.124833" lon="17.463272">
        <ele>59</ele>
        <time>2020-03-26T12:49:19Z</time>
        <extensions><gpxtpx:TrackPointExtension><gpxtpx:hr>155</gpxtpx:hr></gpxtpx:TrackPointExtension></extensions>
      </trkpt>
      <trkpt lat="59.124901" lon="17.463261">
        <ele>59</ele>
        <time>2020-03-26T12:49:20Z</time>
        <extensions><gpxtpx:TrackPointExtension><gpxtpx:hr>155</gpxtpx:hr></gpxtpx:TrackPointExtension></extensions>
      </trkpt>
      <trkpt lat="59.124973" lon="17.463254">
        <ele>59</ele>
        <time>2020-03-26T12:49:21Z</time>
        <extensions><gpxtpx:TrackPointExtension><gpxtpx:hr>155</gpxtpx:hr></gpxtpx:TrackPointExtension></extensions>
      </trkpt>
      <trkpt lat="59.125047" lon="17.463251">
        <ele>59</ele>
        <time>2020-03-26T12:49:22Z</time>
        <extensions><gpxtpx:TrackPointExtension><gpxtpx:hr>155</gpxtpx:hr></gpxtpx:TrackPointExtension></extensions>
      </trkpt>
      <trkpt lat="59.125124" lon="17.463249">
        <ele>59</ele>
        <time>2020-03-26T12:49:23Z</time>
        <extensions><gpxtpx:TrackPointExtension><gpxtpx:hr>155</gpxtpx:hr></gpxtpx:TrackPointExtension></extensions>
      </trkpt>
      <trkpt lat="59.125204" lon="17.463247">
        <ele>59</ele>
        <time>2020-03-26T12:49:24Z</time>
        <extensions><gpxtpx:TrackPointExtension><gpxtpx:hr>154</gpxtpx:hr></gpxtpx:TrackPointExtension></extensions>
      </trkpt>
      <trkpt lat="59.125287" lon="17.463244">
        <ele>58.8</ele>
        <time>2020-03-26T12:49:25Z</time>
        <extensions><gpxtpx:TrackPointExtension><gpxtpx:hr>154</gpxtpx:hr></gpxtpx:TrackPointExtension></extensions>
      </trkpt>
      <trkpt lat="59.125372" lon="17.463244">
        <ele>58.8</ele>
        <time>2020-03-26T12:49:26Z</time>
        <extensions><gpxtpx:TrackPointExtension><gpxtpx:hr>153</gpxtpx:hr></gpxtpx:TrackPointExtension></extensions>
      </trkpt>
      <trkpt lat="59.125458" lon="17.463247">
        <ele>58.8</ele>
        <time>2020-03-26T12:49:27Z</time>
        <extensions><gpxtpx:TrackPointExtension><gpxtpx:hr>153</gpxtpx:hr></gpxtpx:TrackPointExtension></extensions>
      </trkpt>
      <trkpt lat="59.125543" lon="17.463249">
        <ele>58.8</ele>
        <time>2020-03-26T12:49:28Z</time>
        <extensions><gpxtpx:TrackPointExtension><gpxtpx:hr>152</gpxtpx:hr></gpxtpx:TrackPointExtension></extensions>
      </trkpt>
      <trkpt lat="59.125631" lon="17.46325">
        <ele>58.8</ele>
        <time>2020-03-26T12:49:29Z</time>
        <extensions><gpxtpx:TrackPointExtension><gpxtpx:hr>152</gpxtpx:hr></gpxtpx:TrackPointExtension></extensions>
      </trkpt>
      <trkpt lat="59.125717" lon="17.463251">
        <ele>58.6</ele>
        <time>2020-03-26T12:49:30Z</time>
        <extensions><gpxtpx:TrackPointExtension><gpxtpx:hr>151</gpxtpx:hr></gpxtpx:TrackPointExtension></extensions>
      </trkpt>
      <trkpt lat="59.125801" lon="17.463252">
        <ele>58.4</ele>
        <time>2020-03-26T12:49:31Z</time>
        <extensions><gpxtpx:TrackPointExtension><gpxtpx:hr>150</gpxtpx:hr></gpxtpx:TrackPointExtension></extensions>
      </trkpt>
      <trkpt lat="59.125881" lon="17.46326">
        <ele>58.2</ele>
        <time>2020-03-26T12:49:32Z</time>
        <extensions><gpxtpx:TrackPointExtension><gpxtpx:hr>149</gpxtpx:hr></gpxtpx:TrackPointExtension></extensions>
      </trkpt>
      <trkpt lat="59.125962" lon="17.463278">
        <ele>58</ele>
        <time>2020-03-26T12:49:33Z</time>
        <extensions><gpxtpx:TrackPointExtension><gpxtpx:hr>147</gpxtpx:hr></gpxtpx:TrackPointExtension></extensions>
      </trkpt>
      <trkpt lat="59.12604" lon="17.463302">
        <ele>57.6</ele>
        <time>2020-03-26T12:49:34Z</time>
        <extensions><gpxtpx:TrackPointExtension><gpxtpx:hr>146</gpxtpx:hr></gpxtpx:TrackPointExtension></extensions>
      </trkpt>
      <trkpt lat="59.126115" lon="17.463336">
        <ele>57.2</ele>
        <time>2020-03-26T12:49:35Z</time>
        <extensions><gpxtpx:TrackPointExtension><gpxtpx:hr>145</gpxtpx:hr></gpxtpx:TrackPointExtension></extensions>
      </trkpt>
      <trkpt lat="59.126185" lon="17.463375">
        <ele>56.6</ele>
        <time>2020-03-26T12:49:36Z</time>
        <extensions><gpxtpx:TrackPointExtension><gpxtpx:hr>144</gpxtpx:hr></gpxtpx:TrackPointExtension></extensions>
      </trkpt>
      <trkpt lat="59.126256" lon="17.463417">
        <ele>56</ele>
        <time>2020-03-26T12:49:37Z</time>
        <extensions><gpxtpx:TrackPointExtension><gpxtpx:hr>143</gpxtpx:hr></gpxtpx:TrackPointExtension></extensions>
      </trkpt>
      <trkpt lat="59.126327" lon="17.463465">
        <ele>55.8</ele>
        <time>2020-03-26T12:49:38Z</time>
        <extensions><gpxtpx:TrackPointExtension><gpxtpx:hr>142</gpxtpx:hr></gpxtpx:TrackPointExtension></extensions>
      </trkpt>
      <trkpt lat="59.126398" lon="17.463518">
        <ele>55.6</ele>
        <time>2020-03-26T12:49:39Z</time>
        <extensions><gpxtpx:TrackPointExtension><gpxtpx:hr>142</gpxtpx:hr></gpxtpx:TrackPointExtension></extensions>
      </trkpt>
      <trkpt lat="59.126467" lon="17.463569">
        <ele>55.6</ele>
        <time>2020-03-26T12:49:40Z</time>
        <extensions><gpxtpx:TrackPointExtension><gpxtpx:hr>142</gpxtpx:hr></gpxtpx:TrackPointExtension></extensions>
      </trkpt>
      <trkpt lat="59.126537" lon="17.463616">
        <ele>55.4</ele>
        <time>2020-03-26T12:49:41Z</time>
        <extensions><gpxtpx:TrackPointExtension><gpxtpx:hr>142</gpxtpx:hr></gpxtpx:TrackPointExtension></extensions>
      </trkpt>
      <trkpt lat="59.126607" lon="17.463664">
        <ele>55.4</ele>
        <time>2020-03-26T12:49:42Z</time>
        <extensions><gpxtpx:TrackPointExtension><gpxtpx:hr>142</gpxtpx:hr></gpxtpx:TrackPointExtension></extensions>
      </trkpt>
      <trkpt lat="59.126679" lon="17.463709">
        <ele>55.4</ele>
        <time>2020-03-26T12:49:43Z</time>
        <extensions><gpxtpx:TrackPointExtension><gpxtpx:hr>142</gpxtpx:hr></gpxtpx:TrackPointExtension></extensions>
      </trkpt>
      <trkpt lat="59.126744" lon="17.46375">
        <ele>55.4</ele>
        <time>2020-03-26T12:49:44Z</time>
        <extensions><gpxtpx:TrackPointExtension><gpxtpx:hr>143</gpxtpx:hr></gpxtpx:TrackPointExtension></extensions>
      </trkpt>
      <trkpt lat="59.126815" lon="17.463794">
        <ele>55.4</ele>
        <time>2020-03-26T12:49:45Z</time>
        <extensions><gpxtpx:TrackPointExtension><gpxtpx:hr>143</gpxtpx:hr></gpxtpx:TrackPointExtension></extensions>
      </trkpt>
      <trkpt lat="59.126889" lon="17.463834">
        <ele>55.4</ele>
        <time>2020-03-26T12:49:46Z</time>
        <extensions><gpxtpx:TrackPointExtension><gpxtpx:hr>143</gpxtpx:hr></gpxtpx:TrackPointExtension></extensions>
      </trkpt>
      <trkpt lat="59.126962" lon="17.463876">
        <ele>55.4</ele>
        <time>2020-03-26T12:49:47Z</time>
        <extensions><gpxtpx:TrackPointExtension><gpxtpx:hr>143</gpxtpx:hr></gpxtpx:TrackPointExtension></extensions>
      </trkpt>
      <trkpt lat="59.127036" lon="17.463919">
        <ele>55.6</ele>
        <time>2020-03-26T12:49:48Z</time>
        <extensions><gpxtpx:TrackPointExtension><gpxtpx:hr>143</gpxtpx:hr></gpxtpx:TrackPointExtension></extensions>
      </trkpt>
      <trkpt lat="59.12711" lon="17.463963">
        <ele>55.6</ele>
        <time>2020-03-26T12:49:49Z</time>
        <extensions><gpxtpx:TrackPointExtension><gpxtpx:hr>143</gpxtpx:hr></gpxtpx:TrackPointExtension></extensions>
      </trkpt>
      <trkpt lat="59.127184" lon="17.464007">
        <ele>55.8</ele>
        <time>2020-03-26T12:49:50Z</time>
        <extensions><gpxtpx:TrackPointExtension><gpxtpx:hr>144</gpxtpx:hr></gpxtpx:TrackPointExtension></extensions>
      </trkpt>
      <trkpt lat="59.127259" lon="17.464048">
        <ele>56.2</ele>
        <time>2020-03-26T12:49:51Z</time>
        <extensions><gpxtpx:TrackPointExtension><gpxtpx:hr>145</gpxtpx:hr></gpxtpx:TrackPointExtension></extensions>
      </trkpt>
      <trkpt lat="59.127332" lon="17.464091">
        <ele>56.4</ele>
        <time>2020-03-26T12:49:52Z</time>
        <extensions><gpxtpx:TrackPointExtension><gpxtpx:hr>147</gpxtpx:hr></gpxtpx:TrackPointExtension></extensions>
      </trkpt>
      <trkpt lat="59.127407" lon="17.464136">
        <ele>57</ele>
        <time>2020-03-26T12:49:53Z</time>
        <extensions><gpxtpx:TrackPointExtension><gpxtpx:hr>148</gpxtpx:hr></gpxtpx:TrackPointExtension></extensions>
      </trkpt>
      <trkpt lat="59.127477" lon="17.464183">
        <ele>57.2</ele>
        <time>2020-03-26T12:49:54Z</time>
        <extensions><gpxtpx:TrackPointExtension><gpxtpx:hr>149</gpxtpx:hr></gpxtpx:TrackPointExtension></extensions>
      </trkpt>
      <trkpt lat="59.127547" lon="17.464228">
        <ele>57.4</ele>
        <time>2020-03-26T12:49:55Z</time>
        <extensions><gpxtpx:TrackPointExtension><gpxtpx:hr>149</gpxtpx:hr></gpxtpx:TrackPointExtension></extensions>
      </trkpt>
      <trkpt lat="59.127616" lon="17.464267">
        <ele>57.6</ele>
        <time>2020-03-26T12:49:56Z</time>
        <extensions><gpxtpx:TrackPointExtension><gpxtpx:hr>150</gpxtpx:hr></gpxtpx:TrackPointExtension></extensions>
      </trkpt>
      <trkpt lat="59.127686" lon="17.464308">
        <ele>57.8</ele>
        <time>2020-03-26T12:49:57Z</time>
        <extensions><gpxtpx:TrackPointExtension><gpxtpx:hr>151</gpxtpx:hr></gpxtpx:TrackPointExtension></extensions>
      </trkpt>
      <trkpt lat="59.127755" lon="17.464352">
        <ele>58</ele>
        <time>2020-03-26T12:49:58Z</time>
        <extensions><gpxtpx:TrackPointExtension><gpxtpx:hr>152</gpxtpx:hr></gpxtpx:TrackPointExtension></extensions>
      </trkpt>
      <trkpt lat="59.127826" lon="17.464395">
        <ele>58.2</ele>
        <time>2020-03-26T12:49:59Z</time>
        <extensions><gpxtpx:TrackPointExtension><gpxtpx:hr>152</gpxtpx:hr></gpxtpx:TrackPointExtension></extensions>
      </trkpt>
      <trkpt lat="59.127893" lon="17.464436">
        <ele>58.4</ele>
        <time>2020-03-26T12:50:00Z</time>
        <extensions><gpxtpx:TrackPointExtension><gpxtpx:hr>152</gpxtpx:hr></gpxtpx:TrackPointExtension></extensions>
      </trkpt>
      <trkpt lat="59.127965" lon="17.464479">
        <ele>58.6</ele>
        <time>2020-03-26T12:50:01Z</time>
        <extensions><gpxtpx:TrackPointExtension><gpxtpx:hr>153</gpxtpx:hr></gpxtpx:TrackPointExtension></extensions>
      </trkpt>
      <trkpt lat="59.128039" lon="17.464521">
        <ele>58.6</ele>
        <time>2020-03-26T12:50:02Z</time>
        <extensions><gpxtpx:TrackPointExtension><gpxtpx:hr>153</gpxtpx:hr></gpxtpx:TrackPointExtension></extensions>
      </trkpt>
      <trkpt lat="59.128113" lon="17.464562">
        <ele>58.6</ele>
        <time>2020-03-26T12:50:03Z</time>
        <extensions><gpxtpx:TrackPointExtension><gpxtpx:hr>154</gpxtpx:hr></gpxtpx:TrackPointExtension></extensions>
      </trkpt>
      <trkpt lat="59.128185" lon="17.464598">
        <ele>58.6</ele>
        <time>2020-03-26T12:50:04Z</time>
        <extensions><gpxtpx:TrackPointExtension><gpxtpx:hr>154</gpxtpx:hr></gpxtpx:TrackPointExtension></extensions>
      </trkpt>
      <trkpt lat="59.128254" lon="17.46463">
        <ele>58.6</ele>
        <time>2020-03-26T12:50:05Z</time>
        <extensions><gpxtpx:TrackPointExtension><gpxtpx:hr>155</gpxtpx:hr></gpxtpx:TrackPointExtension></extensions>
      </trkpt>
      <trkpt lat="59.12832" lon="17.464652">
        <ele>58.8</ele>
        <time>2020-03-26T12:50:06Z</time>
        <extensions><gpxtpx:TrackPointExtension><gpxtpx:hr>155</gpxtpx:hr></gpxtpx:TrackPointExtension></extensions>
      </trkpt>
      <trkpt lat="59.128389" lon="17.464669">
        <ele>58.8</ele>
        <time>2020-03-26T12:50:07Z</time>
        <extensions><gpxtpx:TrackPointExtension><gpxtpx:hr>155</gpxtpx:hr></gpxtpx:TrackPointExtension></extensions>
      </trkpt>
      <trkpt lat="59.128462" lon="17.464678">
        <ele>58.8</ele>
        <time>2020-03-26T12:50:08Z</time>
        <extensions><gpxtpx:TrackPointExtension><gpxtpx:hr>156</gpxtpx:hr></gpxtpx:TrackPointExtension></extensions>
      </trkpt>
      <trkpt lat="59.128536" lon="17.464673">
        <ele>58.8</ele>
        <time>2020-03-26T12:50:09Z</time>
        <extensions><gpxtpx:TrackPointExtension><gpxtpx:hr>156</gpxtpx:hr></gpxtpx:TrackPointExtension></extensions>
      </trkpt>
      <trkpt lat="59.12861" lon="17.464651">
        <ele>58.8</ele>
        <time>2020-03-26T12:50:10Z</time>
        <extensions><gpxtpx:TrackPointExtension><gpxtpx:hr>156</gpxtpx:hr></gpxtpx:TrackPointExtension></extensions>
      </trkpt>
      <trkpt lat="59.128685" lon="17.464615">
        <ele>58.8</ele>
        <time>2020-03-26T12:50:11Z</time>
        <extensions><gpxtpx:TrackPointExtension><gpxtpx:hr>156</gpxtpx:hr></gpxtpx:TrackPointExtension></extensions>
      </trkpt>
      <trkpt lat="59.128766" lon="17.464567">
        <ele>58.8</ele>
        <time>2020-03-26T12:50:12Z</time>
        <extensions><gpxtpx:TrackPointExtension><gpxtpx:hr>156</gpxtpx:hr></gpxtpx:TrackPointExtension></extensions>
      </trkpt>
      <trkpt lat="59.128843" lon="17.464505">
        <ele>58.8</ele>
        <time>2020-03-26T12:50:13Z</time>
        <extensions><gpxtpx:TrackPointExtension><gpxtpx:hr>156</gpxtpx:hr></gpxtpx:TrackPointExtension></extensions>
      </trkpt>
      <trkpt lat="59.128917" lon="17.464426">
        <ele>58.8</ele>
        <time>2020-03-26T12:50:14Z</time>
        <extensions><gpxtpx:TrackPointExtension><gpxtpx:hr>156</gpxtpx:hr></gpxtpx:TrackPointExtension></extensions>
      </trkpt>
      <trkpt lat="59.12899" lon="17.464332">
        <ele>58.8</ele>
        <time>2020-03-26T12:50:15Z</time>
        <extensions><gpxtpx:TrackPointExtension><gpxtpx:hr>156</gpxtpx:hr></gpxtpx:TrackPointExtension></extensions>
      </trkpt>
      <trkpt lat="59.129058" lon="17.464223">
        <ele>58.8</ele>
        <time>2020-03-26T12:50:16Z</time>
        <extensions><gpxtpx:TrackPointExtension><gpxtpx:hr>156</gpxtpx:hr></gpxtpx:TrackPointExtension></extensions>
      </trkpt>
      <trkpt lat="59.129127" lon="17.464102">
        <ele>58.8</ele>
        <time>2020-03-26T12:50:17Z</time>
        <extensions><gpxtpx:TrackPointExtension><gpxtpx:hr>156</gpxtpx:hr></gpxtpx:TrackPointExtension></extensions>
      </trkpt>
      <trkpt lat="59.129203" lon="17.463978">
        <ele>58.8</ele>
        <time>2020-03-26T12:50:18Z</time>
        <extensions><gpxtpx:TrackPointExtension><gpxtpx:hr>155</gpxtpx:hr></gpxtpx:TrackPointExtension></extensions>
      </trkpt>
      <trkpt lat="59.129278" lon="17.463851">
        <ele>58.8</ele>
        <time>2020-03-26T12:50:19Z</time>
        <extensions><gpxtpx:TrackPointExtension><gpxtpx:hr>154</gpxtpx:hr></gpxtpx:TrackPointExtension></extensions>
      </trkpt>
      <trkpt lat="59.129359" lon="17.463723">
        <ele>58.4</ele>
        <time>2020-03-26T12:50:20Z</time>
        <extensions><gpxtpx:TrackPointExtension><gpxtpx:hr>154</gpxtpx:hr></gpxtpx:TrackPointExtension></extensions>
      </trkpt>
      <trkpt lat="59.129418" lon="17.463632">
        <ele>57.8</ele>
        <time>2020-03-26T12:50:21Z</time>
        <extensions><gpxtpx:TrackPointExtension><gpxtpx:hr>153</gpxtpx:hr></gpxtpx:TrackPointExtension></extensions>
      </trkpt>
      <trkpt lat="59.129477" lon="17.463541">
        <ele>56.8</ele>
        <time>2020-03-26T12:50:22Z</time>
        <extensions><gpxtpx:TrackPointExtension><gpxtpx:hr>153</gpxtpx:hr></gpxtpx:TrackPointExtension></extensions>
      </trkpt>
      <trkpt lat="59.129594" lon="17.463359">
        <ele>56.4</ele>
        <time>2020-03-26T12:50:23Z</time>
        <extensions><gpxtpx:TrackPointExtension><gpxtpx:hr>152</gpxtpx:hr></gpxtpx:TrackPointExtension></extensions>
      </trkpt>
      <trkpt lat="59.129672" lon="17.463251">
        <ele>55.8</ele>
        <time>2020-03-26T12:50:24Z</time>
        <extensions><gpxtpx:TrackPointExtension><gpxtpx:hr>152</gpxtpx:hr></gpxtpx:TrackPointExtension></extensions>
      </trkpt>
      <trkpt lat="59.129752" lon="17.463159">
        <ele>55.4</ele>
        <time>2020-03-26T12:50:25Z</time>
        <extensions><gpxtpx:TrackPointExtension><gpxtpx:hr>151</gpxtpx:hr></gpxtpx:TrackPointExtension></extensions>
      </trkpt>
      <trkpt lat="59.129829" lon="17.463079">
        <ele>54.8</ele>
        <time>2020-03-26T12:50:26Z</time>
        <extensions><gpxtpx:TrackPointExtension><gpxtpx:hr>150</gpxtpx:hr></gpxtpx:TrackPointExtension></extensions>
      </trkpt>
      <trkpt lat="59.129905" lon="17.46302">
        <ele>54.2</ele>
        <time>2020-03-26T12:50:27Z</time>
        <extensions><gpxtpx:TrackPointExtension><gpxtpx:hr>148</gpxtpx:hr></gpxtpx:TrackPointExtension></extensions>
      </trkpt>
      <trkpt lat="59.129985" lon="17.46298">
        <ele>53.8</ele>
        <time>2020-03-26T12:50:28Z</time>
        <extensions><gpxtpx:TrackPointExtension><gpxtpx:hr>147</gpxtpx:hr></gpxtpx:TrackPointExtension></extensions>
      </trkpt>
      <trkpt lat="59.130059" lon="17.462949">
        <ele>53.6</ele>
        <time>2020-03-26T12:50:29Z</time>
        <extensions><gpxtpx:TrackPointExtension><gpxtpx:hr>147</gpxtpx:hr></gpxtpx:TrackPointExtension></extensions>
      </trkpt>
      <trkpt lat="59.13013" lon="17.462928">
        <ele>53.6</ele>
        <time>2020-03-26T12:50:30Z</time>
        <extensions><gpxtpx:TrackPointExtension><gpxtpx:hr>146</gpxtpx:hr></gpxtpx:TrackPointExtension></extensions>
      </trkpt>
      <trkpt lat="59.130198" lon="17.462912">
        <ele>53.6</ele>
        <time>2020-03-26T12:50:31Z</time>
        <extensions><gpxtpx:TrackPointExtension><gpxtpx:hr>145</gpxtpx:hr></gpxtpx:TrackPointExtension></extensions>
      </trkpt>
      <trkpt lat="59.130264" lon="17.462897">
        <ele>53.6</ele>
        <time>2020-03-26T12:50:32Z</time>
        <extensions><gpxtpx:TrackPointExtension><gpxtpx:hr>145</gpxtpx:hr></gpxtpx:TrackPointExtension></extensions>
      </trkpt>
      <trkpt lat="59.130328" lon="17.462889">
        <ele>53.6</ele>
        <time>2020-03-26T12:50:33Z</time>
        <extensions><gpxtpx:TrackPointExtension><gpxtpx:hr>145</gpxtpx:hr></gpxtpx:TrackPointExtension></extensions>
      </trkpt>
      <trkpt lat="59.130391" lon="17.462883">
        <ele>53.6</ele>
        <time>2020-03-26T12:50:34Z</time>
        <extensions><gpxtpx:TrackPointExtension><gpxtpx:hr>145</gpxtpx:hr></gpxtpx:TrackPointExtension></extensions>
      </trkpt>
      <trkpt lat="59.130451" lon="17.462876">
        <ele>53.6</ele>
        <time>2020-03-26T12:50:35Z</time>
        <extensions><gpxtpx:TrackPointExtension><gpxtpx:hr>145</gpxtpx:hr></gpxtpx:TrackPointExtension></extensions>
      </trkpt>
      <trkpt lat="59.130514" lon="17.462868">
        <ele>53.6</ele>
        <time>2020-03-26T12:50:36Z</time>
        <extensions><gpxtpx:TrackPointExtension><gpxtpx:hr>145</gpxtpx:hr></gpxtpx:TrackPointExtension></extensions>
      </trkpt>
      <trkpt lat="59.130576" lon="17.462856">
        <ele>53.6</ele>
        <time>2020-03-26T12:50:37Z</time>
        <extensions><gpxtpx:TrackPointExtension><gpxtpx:hr>145</gpxtpx:hr></gpxtpx:TrackPointExtension></extensions>
      </trkpt>
      <trkpt lat="59.130635" lon="17.462836">
        <ele>54</ele>
        <time>2020-03-26T12:50:38Z</time>
        <extensions><gpxtpx:TrackPointExtension><gpxtpx:hr>145</gpxtpx:hr></gpxtpx:TrackPointExtension></extensions>
      </trkpt>
      <trkpt lat="59.130692" lon="17.46281">
        <ele>54.4</ele>
        <time>2020-03-26T12:50:39Z</time>
        <extensions><gpxtpx:TrackPointExtension><gpxtpx:hr>146</gpxtpx:hr></gpxtpx:TrackPointExtension></extensions>
      </trkpt>
      <trkpt lat="59.13075" lon="17.462778">
        <ele>54.8</ele>
        <time>2020-03-26T12:50:40Z</time>
        <extensions><gpxtpx:TrackPointExtension><gpxtpx:hr>146</gpxtpx:hr></gpxtpx:TrackPointExtension></extensions>
      </trkpt>
      <trkpt lat="59.130805" lon="17.462731">
        <ele>55.4</ele>
        <time>2020-03-26T12:50:41Z</time>
        <extensions><gpxtpx:TrackPointExtension><gpxtpx:hr>147</gpxtpx:hr></gpxtpx:TrackPointExtension></extensions>
      </trkpt>
      <trkpt lat="59.130861" lon="17.462676">
        <ele>55.8</ele>
        <time>2020-03-26T12:50:42Z</time>
        <extensions><gpxtpx:TrackPointExtension><gpxtpx:hr>147</gpxtpx:hr></gpxtpx:TrackPointExtension></extensions>
      </trkpt>
      <trkpt lat="59.130914" lon="17.46261">
        <ele>56.2</ele>
        <time>2020-03-26T12:50:43Z</time>
        <extensions><gpxtpx:TrackPointExtension><gpxtpx:hr>147</gpxtpx:hr></gpxtpx:TrackPointExtension></extensions>
      </trkpt>
      <trkpt lat="59.130967" lon="17.462539">
        <ele>56.8</ele>
        <time>2020-03-26T12:50:44Z</time>
        <extensions><gpxtpx:TrackPointExtension><gpxtpx:hr>148</gpxtpx:hr></gpxtpx:TrackPointExtension></extensions>
      </trkpt>
      <trkpt lat="59.131021" lon="17.462468">
        <ele>57.2</ele>
        <time>2020-03-26T12:50:45Z</time>
        <extensions><gpxtpx:TrackPointExtension><gpxtpx:hr>148</gpxtpx:hr></gpxtpx:TrackPointExtension></extensions>
      </trkpt>
      <trkpt lat="59.131071" lon="17.462396">
        <ele>57.6</ele>
        <time>2020-03-26T12:50:46Z</time>
        <extensions><gpxtpx:TrackPointExtension><gpxtpx:hr>148</gpxtpx:hr></gpxtpx:TrackPointExtension></extensions>
      </trkpt>
      <trkpt lat="59.131125" lon="17.462326">
        <ele>57.8</ele>
        <time>2020-03-26T12:50:47Z</time>
        <extensions><gpxtpx:TrackPointExtension><gpxtpx:hr>149</gpxtpx:hr></gpxtpx:TrackPointExtension></extensions>
      </trkpt>
      <trkpt lat="59.131176" lon="17.46226">
        <ele>58.2</ele>
        <time>2020-03-26T12:50:48Z</time>
        <extensions><gpxtpx:TrackPointExtension><gpxtpx:hr>149</gpxtpx:hr></gpxtpx:TrackPointExtension></extensions>
      </trkpt>
      <trkpt lat="59.131224" lon="17.462194">
        <ele>58.4</ele>
        <time>2020-03-26T12:50:49Z</time>
        <extensions><gpxtpx:TrackPointExtension><gpxtpx:hr>149</gpxtpx:hr></gpxtpx:TrackPointExtension></extensions>
      </trkpt>
      <trkpt lat="59.13127" lon="17.462129">
        <ele>58.6</ele>
        <time>2020-03-26T12:50:50Z</time>
        <extensions><gpxtpx:TrackPointExtension><gpxtpx:hr>149</gpxtpx:hr></gpxtpx:TrackPointExtension></extensions>
      </trkpt>
      <trkpt lat="59.131319" lon="17.462068">
        <ele>58.6</ele>
        <time>2020-03-26T12:50:51Z</time>
        <extensions><gpxtpx:TrackPointExtension><gpxtpx:hr>149</gpxtpx:hr></gpxtpx:TrackPointExtension></extensions>
      </trkpt>
      <trkpt lat="59.131365" lon="17.462007">
        <ele>58.8</ele>
        <time>2020-03-26T12:50:52Z</time>
        <extensions><gpxtpx:TrackPointExtension><gpxtpx:hr>149</gpxtpx:hr></gpxtpx:TrackPointExtension></extensions>
      </trkpt>
      <trkpt lat="59.131412" lon="17.46195">
        <ele>58.8</ele>
        <time>2020-03-26T12:50:53Z</time>
        <extensions><gpxtpx:TrackPointExtension><gpxtpx:hr>149</gpxtpx:hr></gpxtpx:TrackPointExtension></extensions>
      </trkpt>
      <trkpt lat="59.131461" lon="17.461888">
        <ele>58.8</ele>
        <time>2020-03-26T12:50:54Z</time>
        <extensions><gpxtpx:TrackPointExtension><gpxtpx:hr>149</gpxtpx:hr></gpxtpx:TrackPointExtension></extensions>
      </trkpt>
      <trkpt lat="59.131511" lon="17.46182">
        <ele>59</ele>
        <time>2020-03-26T12:50:55Z</time>
        <extensions><gpxtpx:TrackPointExtension><gpxtpx:hr>149</gpxtpx:hr></gpxtpx:TrackPointExtension></extensions>
      </trkpt>
      <trkpt lat="59.131562" lon="17.461753">
        <ele>59</ele>
        <time>2020-03-26T12:50:56Z</time>
        <extensions><gpxtpx:TrackPointExtension><gpxtpx:hr>150</gpxtpx:hr></gpxtpx:TrackPointExtension></extensions>
      </trkpt>
      <trkpt lat="59.131614" lon="17.461684">
        <ele>59</ele>
        <time>2020-03-26T12:50:57Z</time>
        <extensions><gpxtpx:TrackPointExtension><gpxtpx:hr>150</gpxtpx:hr></gpxtpx:TrackPointExtension></extensions>
      </trkpt>
      <trkpt lat="59.131658" lon="17.461616">
        <ele>59.2</ele>
        <time>2020-03-26T12:50:58Z</time>
        <extensions><gpxtpx:TrackPointExtension><gpxtpx:hr>151</gpxtpx:hr></gpxtpx:TrackPointExtension></extensions>
      </trkpt>
      <trkpt lat="59.131708" lon="17.461542">
        <ele>59.6</ele>
        <time>2020-03-26T12:50:59Z</time>
        <extensions><gpxtpx:TrackPointExtension><gpxtpx:hr>152</gpxtpx:hr></gpxtpx:TrackPointExtension></extensions>
      </trkpt>
      <trkpt lat="59.131763" lon="17.461473">
        <ele>60.2</ele>
        <time>2020-03-26T12:51:00Z</time>
        <extensions><gpxtpx:TrackPointExtension><gpxtpx:hr>152</gpxtpx:hr></gpxtpx:TrackPointExtension></extensions>
      </trkpt>
      <trkpt lat="59.131821" lon="17.461412">
        <ele>60.6</ele>
        <time>2020-03-26T12:51:01Z</time>
        <extensions><gpxtpx:TrackPointExtension><gpxtpx:hr>152</gpxtpx:hr></gpxtpx:TrackPointExtension></extensions>
      </trkpt>
      <trkpt lat="59.131881" lon="17.461357">
        <ele>61</ele>
        <time>2020-03-26T12:51:02Z</time>
        <extensions><gpxtpx:TrackPointExtension><gpxtpx:hr>153</gpxtpx:hr></gpxtpx:TrackPointExtension></extensions>
      </trkpt>
      <trkpt lat="59.131942" lon="17.461312">
        <ele>61.2</ele>
        <time>2020-03-26T12:51:03Z</time>
        <extensions><gpxtpx:TrackPointExtension><gpxtpx:hr>153</gpxtpx:hr></gpxtpx:TrackPointExtension></extensions>
      </trkpt>
      <trkpt lat="59.132" lon="17.461273">
        <ele>61.2</ele>
        <time>2020-03-26T12:51:04Z</time>
        <extensions><gpxtpx:TrackPointExtension><gpxtpx:hr>153</gpxtpx:hr></gpxtpx:TrackPointExtension></extensions>
      </trkpt>
      <trkpt lat="59.132062" lon="17.461252">
        <ele>61.4</ele>
        <time>2020-03-26T12:51:05Z</time>
        <extensions><gpxtpx:TrackPointExtension><gpxtpx:hr>154</gpxtpx:hr></gpxtpx:TrackPointExtension></extensions>
      </trkpt>
      <trkpt lat="59.132123" lon="17.461243">
        <ele>61.6</ele>
        <time>2020-03-26T12:51:06Z</time>
        <extensions><gpxtpx:TrackPointExtension><gpxtpx:hr>154</gpxtpx:hr></gpxtpx:TrackPointExtension></extensions>
      </trkpt>
      <trkpt lat="59.13216" lon="17.461251">
        <ele>61.6</ele>
        <time>2020-03-26T12:51:07Z</time>
        <extensions><gpxtpx:TrackPointExtension><gpxtpx:hr>155</gpxtpx:hr></gpxtpx:TrackPointExtension></extensions>
      </trkpt>
      <trkpt lat="59.132218" lon="17.46125">
        <ele>61.8</ele>
        <time>2020-03-26T12:51:08Z</time>
        <extensions><gpxtpx:TrackPointExtension><gpxtpx:hr>155</gpxtpx:hr></gpxtpx:TrackPointExtension></extensions>
      </trkpt>
      <trkpt lat="59.132271" lon="17.461253">
        <ele>62</ele>
        <time>2020-03-26T12:51:09Z</time>
        <extensions><gpxtpx:TrackPointExtension><gpxtpx:hr>155</gpxtpx:hr></gpxtpx:TrackPointExtension></extensions>
      </trkpt>
      <trkpt lat="59.132315" lon="17.461273">
        <ele>62.2</ele>
        <time>2020-03-26T12:51:10Z</time>
        <extensions><gpxtpx:TrackPointExtension><gpxtpx:hr>156</gpxtpx:hr></gpxtpx:TrackPointExtension></extensions>
      </trkpt>
      <trkpt lat="59.132353" lon="17.461291">
        <ele>62.2</ele>
        <time>2020-03-26T12:51:11Z</time>
        <extensions><gpxtpx:TrackPointExtension><gpxtpx:hr>156</gpxtpx:hr></gpxtpx:TrackPointExtension></extensions>
      </trkpt>
      <trkpt lat="59.13239" lon="17.46129">
        <ele>62.2</ele>
        <time>2020-03-26T12:51:12Z</time>
        <extensions><gpxtpx:TrackPointExtension><gpxtpx:hr>156</gpxtpx:hr></gpxtpx:TrackPointExtension></extensions>
      </trkpt>
      <trkpt lat="59.13241" lon="17.461289">
        <ele>62.2</ele>
        <time>2020-03-26T12:51:13Z</time>
        <extensions><gpxtpx:TrackPointExtension><gpxtpx:hr>156</gpxtpx:hr></gpxtpx:TrackPointExtension></extensions>
      </trkpt>
      <trkpt lat="59.13241" lon="17.461291">
        <ele>62.4</ele>
        <time>2020-03-26T12:51:14Z</time>
        <extensions><gpxtpx:TrackPointExtension><gpxtpx:hr>156</gpxtpx:hr></gpxtpx:TrackPointExtension></extensions>
      </trkpt>
      <trkpt lat="59.132387" lon="17.461289">
        <ele>62.6</ele>
        <time>2020-03-26T12:51:15Z</time>
        <extensions><gpxtpx:TrackPointExtension><gpxtpx:hr>155</gpxtpx:hr></gpxtpx:TrackPointExtension></extensions>
      </trkpt>
      <trkpt lat="59.132399" lon="17.461282">
        <ele>63</ele>
        <time>2020-03-26T12:51:16Z</time>
        <extensions><gpxtpx:TrackPointExtension><gpxtpx:hr>155</gpxtpx:hr></gpxtpx:TrackPointExtension></extensions>
      </trkpt>
      <trkpt lat="59.132447" lon="17.46125">
        <ele>65</ele>
        <time>2020-03-26T12:51:57Z</time>
        <extensions><gpxtpx:TrackPointExtension><gpxtpx:hr>127</gpxtpx:hr></gpxtpx:TrackPointExtension></extensions>
      </trkpt>
      <trkpt lat="59.132468" lon="17.461251">
        <ele>65</ele>
        <time>2020-03-26T12:51:58Z</time>
        <extensions><gpxtpx:TrackPointExtension><gpxtpx:hr>128</gpxtpx:hr></gpxtpx:TrackPointExtension></extensions>
      </trkpt>
      <trkpt lat="59.132493" lon="17.461246">
        <ele>65</ele>
        <time>2020-03-26T12:51:59Z</time>
        <extensions><gpxtpx:TrackPointExtension><gpxtpx:hr>127</gpxtpx:hr></gpxtpx:TrackPointExtension></extensions>
      </trkpt>
      <trkpt lat="59.132524" lon="17.461229">
        <ele>65</ele>
        <time>2020-03-26T12:52:00Z</time>
        <extensions><gpxtpx:TrackPointExtension><gpxtpx:hr>127</gpxtpx:hr></gpxtpx:TrackPointExtension></extensions>
      </trkpt>
      <trkpt lat="59.132563" lon="17.461204">
        <ele>64.8</ele>
        <time>2020-03-26T12:52:01Z</time>
        <extensions><gpxtpx:TrackPointExtension><gpxtpx:hr>126</gpxtpx:hr></gpxtpx:TrackPointExtension></extensions>
      </trkpt>
      <trkpt lat="59.132612" lon="17.46117">
        <ele>64.8</ele>
        <time>2020-03-26T12:52:02Z</time>
        <extensions><gpxtpx:TrackPointExtension><gpxtpx:hr>126</gpxtpx:hr></gpxtpx:TrackPointExtension></extensions>
      </trkpt>
      <trkpt lat="59.132666" lon="17.461125">
        <ele>64.8</ele>
        <time>2020-03-26T12:52:03Z</time>
        <extensions><gpxtpx:TrackPointExtension><gpxtpx:hr>126</gpxtpx:hr></gpxtpx:TrackPointExtension></extensions>
      </trkpt>
      <trkpt lat="59.132721" lon="17.461072">
        <ele>64.8</ele>
        <time>2020-03-26T12:52:04Z</time>
        <extensions><gpxtpx:TrackPointExtension><gpxtpx:hr>127</gpxtpx:hr></gpxtpx:TrackPointExtension></extensions>
      </trkpt>
      <trkpt lat="59.132792" lon="17.461007">
        <ele>64.8</ele>
        <time>2020-03-26T12:52:05Z</time>
        <extensions><gpxtpx:TrackPointExtension><gpxtpx:hr>128</gpxtpx:hr></gpxtpx:TrackPointExtension></extensions>
      </trkpt>
      <trkpt lat="59.13285" lon="17.46094">
        <ele>64.8</ele>
        <time>2020-03-26T12:52:06Z</time>
        <extensions><gpxtpx:TrackPointExtension><gpxtpx:hr>129</gpxtpx:hr></gpxtpx:TrackPointExtension></extensions>
      </trkpt>
      <trkpt lat="59.132903" lon="17.460854">
        <ele>64.6</ele>
        <time>2020-03-26T12:52:07Z</time>
        <extensions><gpxtpx:TrackPointExtension><gpxtpx:hr>130</gpxtpx:hr></gpxtpx:TrackPointExtension></extensions>
      </trkpt>
      <trkpt lat="59.132955" lon="17.460751">
        <ele>64.6</ele>
        <time>2020-03-26T12:52:08Z</time>
        <extensions><gpxtpx:TrackPointExtension><gpxtpx:hr>131</gpxtpx:hr></gpxtpx:TrackPointExtension></extensions>
      </trkpt>
      <trkpt lat="59.133009" lon="17.460638">
        <ele>64.6</ele>
        <time>2020-03-26T12:52:09Z</time>
        <extensions><gpxtpx:TrackPointExtension><gpxtpx:hr>131</gpxtpx:hr></gpxtpx:TrackPointExtension></extensions>
      </trkpt>
      <trkpt lat="59.133064" lon="17.460529">
        <ele>64.6</ele>
        <time>2020-03-26T12:52:10Z</time>
        <extensions><gpxtpx:TrackPointExtension><gpxtpx:hr>132</gpxtpx:hr></gpxtpx:TrackPointExtension></extensions>
      </trkpt>
      <trkpt lat="59.133121" lon="17.460416">
        <ele>64.4</ele>
        <time>2020-03-26T12:52:11Z</time>
        <extensions><gpxtpx:TrackPointExtension><gpxtpx:hr>132</gpxtpx:hr></gpxtpx:TrackPointExtension></extensions>
      </trkpt>
      <trkpt lat="59.133186" lon="17.460312">
        <ele>64.4</ele>
        <time>2020-03-26T12:52:12Z</time>
        <extensions><gpxtpx:TrackPointExtension><gpxtpx:hr>133</gpxtpx:hr></gpxtpx:TrackPointExtension></extensions>
      </trkpt>
      <trkpt lat="59.133253" lon="17.460211">
        <ele>64.2</ele>
        <time>2020-03-26T12:52:13Z</time>
        <extensions><gpxtpx:TrackPointExtension><gpxtpx:hr>134</gpxtpx:hr></gpxtpx:TrackPointExtension></extensions>
      </trkpt>
      <trkpt lat="59.133326" lon="17.460123">
        <ele>64</ele>
        <time>2020-03-26T12:52:14Z</time>
        <extensions><gpxtpx:TrackPointExtension><gpxtpx:hr>134</gpxtpx:hr></gpxtpx:TrackPointExtension></extensions>
      </trkpt>
      <trkpt lat="59.133404" lon="17.460048">
        <ele>63.6</ele>
        <time>2020-03-26T12:52:15Z</time>
        <extensions><gpxtpx:TrackPointExtension><gpxtpx:hr>134</gpxtpx:hr></gpxtpx:TrackPointExtension></extensions>
      </trkpt>
      <trkpt lat="59.133487" lon="17.459987">
        <ele>63.2</ele>
        <time>2020-03-26T12:52:16Z</time>
        <extensions><gpxtpx:TrackPointExtension><gpxtpx:hr>135</gpxtpx:hr></gpxtpx:TrackPointExtension></extensions>
      </trkpt>
      <trkpt lat="59.133577" lon="17.459945">
        <ele>62.8</ele>
        <time>2020-03-26T12:52:17Z</time>
        <extensions><gpxtpx:TrackPointExtension><gpxtpx:hr>135</gpxtpx:hr></gpxtpx:TrackPointExtension></extensions>
      </trkpt>
      <trkpt lat="59.133664" lon="17.459915">
        <ele>61.8</ele>
        <time>2020-03-26T12:52:18Z</time>
        <extensions><gpxtpx:TrackPointExtension><gpxtpx:hr>135</gpxtpx:hr></gpxtpx:TrackPointExtension></extensions>
      </trkpt>
      <trkpt lat="59.13375" lon="17.459908">
        <ele>61.2</ele>
        <time>2020-03-26T12:52:19Z</time>
        <extensions><gpxtpx:TrackPointExtension><gpxtpx:hr>135</gpxtpx:hr></gpxtpx:TrackPointExtension></extensions>
      </trkpt>
      <trkpt lat="59.133833" lon="17.459919">
        <ele>60.6</ele>
        <time>2020-03-26T12:52:20Z</time>
        <extensions><gpxtpx:TrackPointExtension><gpxtpx:hr>136</gpxtpx:hr></gpxtpx:TrackPointExtension></extensions>
      </trkpt>
      <trkpt lat="59.133915" lon="17.459939">
        <ele>59.8</ele>
        <time>2020-03-26T12:52:21Z</time>
        <extensions><gpxtpx:TrackPointExtension><gpxtpx:hr>136</gpxtpx:hr></gpxtpx:TrackPointExtension></extensions>
      </trkpt>
      <trkpt lat="59.133998" lon="17.459966">
        <ele>59</ele>
        <time>2020-03-26T12:52:22Z</time>
        <extensions><gpxtpx:TrackPointExtension><gpxtpx:hr>136</gpxtpx:hr></gpxtpx:TrackPointExtension></extensions>
      </trkpt>
      <trkpt lat="59.134079" lon="17.459994">
        <ele>58.4</ele>
        <time>2020-03-26T12:52:23Z</time>
        <extensions><gpxtpx:TrackPointExtension><gpxtpx:hr>136</gpxtpx:hr></gpxtpx:TrackPointExtension></extensions>
      </trkpt>
      <trkpt lat="59.134166" lon="17.460022">
        <ele>57.8</ele>
        <time>2020-03-26T12:52:24Z</time>
        <extensions><gpxtpx:TrackPointExtension><gpxtpx:hr>136</gpxtpx:hr></gpxtpx:TrackPointExtension></extensions>
      </trkpt>
      <trkpt lat="59.134249" lon="17.460048">
        <ele>57.4</ele>
        <time>2020-03-26T12:52:25Z</time>
        <extensions><gpxtpx:TrackPointExtension><gpxtpx:hr>137</gpxtpx:hr></gpxtpx:TrackPointExtension></extensions>
      </trkpt>
      <trkpt lat="59.134335" lon="17.460075">
        <ele>57</ele>
        <time>2020-03-26T12:52:26Z</time>
        <extensions><gpxtpx:TrackPointExtension><gpxtpx:hr>137</gpxtpx:hr></gpxtpx:TrackPointExtension></extensions>
      </trkpt>
      <trkpt lat="59.134419" lon="17.460108">
        <ele>56.8</ele>
        <time>2020-03-26T12:52:27Z</time>
        <extensions><gpxtpx:TrackPointExtension><gpxtpx:hr>139</gpxtpx:hr></gpxtpx:TrackPointExtension></extensions>
      </trkpt>
      <trkpt lat="59.134505" lon="17.460144">
        <ele>56.8</ele>
        <time>2020-03-26T12:52:28Z</time>
        <extensions><gpxtpx:TrackPointExtension><gpxtpx:hr>140</gpxtpx:hr></gpxtpx:TrackPointExtension></extensions>
      </trkpt>
      <trkpt lat="59.134594" lon="17.460179">
        <ele>56.6</ele>
        <time>2020-03-26T12:52:29Z</time>
        <extensions><gpxtpx:TrackPointExtension><gpxtpx:hr>141</gpxtpx:hr></gpxtpx:TrackPointExtension></extensions>
      </trkpt>
      <trkpt lat="59.134679" lon="17.460217">
        <ele>56.6</ele>
        <time>2020-03-26T12:52:30Z</time>
        <extensions><gpxtpx:TrackPointExtension><gpxtpx:hr>142</gpxtpx:hr></gpxtpx:TrackPointExtension></extensions>
      </trkpt>
      <trkpt lat="59.134764" lon="17.460257">
        <ele>56.6</ele>
        <time>2020-03-26T12:52:31Z</time>
        <extensions><gpxtpx:TrackPointExtension><gpxtpx:hr>142</gpxtpx:hr></gpxtpx:TrackPointExtension></extensions>
      </trkpt>
      <trkpt lat="59.134849" lon="17.460298">
        <ele>56.6</ele>
        <time>2020-03-26T12:52:32Z</time>
        <extensions><gpxtpx:TrackPointExtension><gpxtpx:hr>143</gpxtpx:hr></gpxtpx:TrackPointExtension></extensions>
      </trkpt>
      <trkpt lat="59.134931" lon="17.460343">
        <ele>56.4</ele>
        <time>2020-03-26T12:52:33Z</time>
        <extensions><gpxtpx:TrackPointExtension><gpxtpx:hr>143</gpxtpx:hr></gpxtpx:TrackPointExtension></extensions>
      </trkpt>
      <trkpt lat="59.135012" lon="17.460392">
        <ele>56.4</ele>
        <time>2020-03-26T12:52:34Z</time>
        <extensions><gpxtpx:TrackPointExtension><gpxtpx:hr>143</gpxtpx:hr></gpxtpx:TrackPointExtension></extensions>
      </trkpt>
      <trkpt lat="59.135088" lon="17.46044">
        <ele>56.4</ele>
        <time>2020-03-26T12:52:35Z</time>
        <extensions><gpxtpx:TrackPointExtension><gpxtpx:hr>143</gpxtpx:hr></gpxtpx:TrackPointExtension></extensions>
      </trkpt>
      <trkpt lat="59.135166" lon="17.460491">
        <ele>56.4</ele>
        <time>2020-03-26T12:52:36Z</time>
        <extensions><gpxtpx:TrackPointExtension><gpxtpx:hr>143</gpxtpx:hr></gpxtpx:TrackPointExtension></extensions>
      </trkpt>
      <trkpt lat="59.135248" lon="17.460543">
        <ele>56.4</ele>
        <time>2020-03-26T12:52:37Z</time>
        <extensions><gpxtpx:TrackPointExtension><gpxtpx:hr>144</gpxtpx:hr></gpxtpx:TrackPointExtension></extensions>
      </trkpt>
      <trkpt lat="59.135325" lon="17.460593">
        <ele>56.4</ele>
        <time>2020-03-26T12:52:38Z</time>
        <extensions><gpxtpx:TrackPointExtension><gpxtpx:hr>144</gpxtpx:hr></gpxtpx:TrackPointExtension></extensions>
      </trkpt>
      <trkpt lat="59.135402" lon="17.460647">
        <ele>56.4</ele>
        <time>2020-03-26T12:52:39Z</time>
        <extensions><gpxtpx:TrackPointExtension><gpxtpx:hr>145</gpxtpx:hr></gpxtpx:TrackPointExtension></extensions>
      </trkpt>
      <trkpt lat="59.13548" lon="17.460698">
        <ele>56.4</ele>
        <time>2020-03-26T12:52:40Z</time>
        <extensions><gpxtpx:TrackPointExtension><gpxtpx:hr>145</gpxtpx:hr></gpxtpx:TrackPointExtension></extensions>
      </trkpt>
      <trkpt lat="59.135558" lon="17.460753">
        <ele>56.4</ele>
        <time>2020-03-26T12:52:41Z</time>
        <extensions><gpxtpx:TrackPointExtension><gpxtpx:hr>146</gpxtpx:hr></gpxtpx:TrackPointExtension></extensions>
      </trkpt>
      <trkpt lat="59.135634" lon="17.460808">
        <ele>56.4</ele>
        <time>2020-03-26T12:52:42Z</time>
        <extensions><gpxtpx:TrackPointExtension><gpxtpx:hr>147</gpxtpx:hr></gpxtpx:TrackPointExtension></extensions>
      </trkpt>
      <trkpt lat="59.135712" lon="17.46086">
        <ele>56.4</ele>
        <time>2020-03-26T12:52:43Z</time>
        <extensions><gpxtpx:TrackPointExtension><gpxtpx:hr>147</gpxtpx:hr></gpxtpx:TrackPointExtension></extensions>
      </trkpt>
      <trkpt lat="59.135784" lon="17.460912">
        <ele>56.4</ele>
        <time>2020-03-26T12:52:44Z</time>
        <extensions><gpxtpx:TrackPointExtension><gpxtpx:hr>148</gpxtpx:hr></gpxtpx:TrackPointExtension></extensions>
      </trkpt>
      <trkpt lat="59.135858" lon="17.460966">
        <ele>56.4</ele>
        <time>2020-03-26T12:52:45Z</time>
        <extensions><gpxtpx:TrackPointExtension><gpxtpx:hr>148</gpxtpx:hr></gpxtpx:TrackPointExtension></extensions>
      </trkpt>
      <trkpt lat="59.135933" lon="17.46102">
        <ele>56.4</ele>
        <time>2020-03-26T12:52:46Z</time>
        <extensions><gpxtpx:TrackPointExtension><gpxtpx:hr>149</gpxtpx:hr></gpxtpx:TrackPointExtension></extensions>
      </trkpt>
      <trkpt lat="59.136006" lon="17.461067">
        <ele>56.4</ele>
        <time>2020-03-26T12:52:47Z</time>
        <extensions><gpxtpx:TrackPointExtension><gpxtpx:hr>149</gpxtpx:hr></gpxtpx:TrackPointExtension></extensions>
      </trkpt>
      <trkpt lat="59.13608" lon="17.461113">
        <ele>56.4</ele>
        <time>2020-03-26T12:52:48Z</time>
        <extensions><gpxtpx:TrackPointExtension><gpxtpx:hr>149</gpxtpx:hr></gpxtpx:TrackPointExtension></extensions>
      </trkpt>
      <trkpt lat="59.13615" lon="17.461159">
        <ele>56.6</ele>
        <time>2020-03-26T12:52:49Z</time>
        <extensions><gpxtpx:TrackPointExtension><gpxtpx:hr>150</gpxtpx:hr></gpxtpx:TrackPointExtension></extensions>
      </trkpt>
      <trkpt lat="59.136219" lon="17.461204">
        <ele>56.6</ele>
        <time>2020-03-26T12:52:50Z</time>
        <extensions><gpxtpx:TrackPointExtension><gpxtpx:hr>150</gpxtpx:hr></gpxtpx:TrackPointExtension></extensions>
      </trkpt>
      <trkpt lat="59.136288" lon="17.461243">
        <ele>56.6</ele>
        <time>2020-03-26T12:52:51Z</time>
        <extensions><gpxtpx:TrackPointExtension><gpxtpx:hr>150</gpxtpx:hr></gpxtpx:TrackPointExtension></extensions>
      </trkpt>
      <trkpt lat="59.136355" lon="17.461277">
        <ele>56.8</ele>
        <time>2020-03-26T12:52:52Z</time>
        <extensions><gpxtpx:TrackPointExtension><gpxtpx:hr>150</gpxtpx:hr></gpxtpx:TrackPointExtension></extensions>
      </trkpt>
      <trkpt lat="59.136428" lon="17.461307">
        <ele>56.8</ele>
        <time>2020-03-26T12:52:53Z</time>
        <extensions><gpxtpx:TrackPointExtension><gpxtpx:hr>151</gpxtpx:hr></gpxtpx:TrackPointExtension></extensions>
      </trkpt>
      <trkpt lat="59.136498" lon="17.461331">
        <ele>56.8</ele>
        <time>2020-03-26T12:52:54Z</time>
        <extensions><gpxtpx:TrackPointExtension><gpxtpx:hr>151</gpxtpx:hr></gpxtpx:TrackPointExtension></extensions>
      </trkpt>
      <trkpt lat="59.136567" lon="17.461349">
        <ele>56.8</ele>
        <time>2020-03-26T12:52:55Z</time>
        <extensions><gpxtpx:TrackPointExtension><gpxtpx:hr>151</gpxtpx:hr></gpxtpx:TrackPointExtension></extensions>
      </trkpt>
      <trkpt lat="59.136636" lon="17.461361">
        <ele>56.8</ele>
        <time>2020-03-26T12:52:56Z</time>
        <extensions><gpxtpx:TrackPointExtension><gpxtpx:hr>151</gpxtpx:hr></gpxtpx:TrackPointExtension></extensions>
      </trkpt>
      <trkpt lat="59.136713" lon="17.461376">
        <ele>56.8</ele>
        <time>2020-03-26T12:52:57Z</time>
        <extensions><gpxtpx:TrackPointExtension><gpxtpx:hr>151</gpxtpx:hr></gpxtpx:TrackPointExtension></extensions>
      </trkpt>
      <trkpt lat="59.136788" lon="17.461385">
        <ele>56.8</ele>
        <time>2020-03-26T12:52:58Z</time>
        <extensions><gpxtpx:TrackPointExtension><gpxtpx:hr>151</gpxtpx:hr></gpxtpx:TrackPointExtension></extensions>
      </trkpt>
      <trkpt lat="59.136858" lon="17.461388">
        <ele>56.8</ele>
        <time>2020-03-26T12:52:59Z</time>
        <extensions><gpxtpx:TrackPointExtension><gpxtpx:hr>152</gpxtpx:hr></gpxtpx:TrackPointExtension></extensions>
      </trkpt>
      <trkpt lat="59.136931" lon="17.461391">
        <ele>56.8</ele>
        <time>2020-03-26T12:53:00Z</time>
        <extensions><gpxtpx:TrackPointExtension><gpxtpx:hr>152</gpxtpx:hr></gpxtpx:TrackPointExtension></extensions>
      </trkpt>
      <trkpt lat="59.137004" lon="17.461395">
        <ele>56.8</ele>
        <time>2020-03-26T12:53:01Z</time>
        <extensions><gpxtpx:TrackPointExtension><gpxtpx:hr>152</gpxtpx:hr></gpxtpx:TrackPointExtension></extensions>
      </trkpt>
      <trkpt lat="59.137081" lon="17.461401">
        <ele>57</ele>
        <time>2020-03-26T12:53:02Z</time>
        <extensions><gpxtpx:TrackPointExtension><gpxtpx:hr>152</gpxtpx:hr></gpxtpx:TrackPointExtension></extensions>
      </trkpt>
      <trkpt lat="59.137157" lon="17.461409">
        <ele>57</ele>
        <time>2020-03-26T12:53:03Z</time>
        <extensions><gpxtpx:TrackPointExtension><gpxtpx:hr>152</gpxtpx:hr></gpxtpx:TrackPointExtension></extensions>
      </trkpt>
      <trkpt lat="59.137232" lon="17.461418">
        <ele>57</ele>
        <time>2020-03-26T12:53:04Z</time>
        <extensions><gpxtpx:TrackPointExtension><gpxtpx:hr>152</gpxtpx:hr></gpxtpx:TrackPointExtension></extensions>
      </trkpt>
      <trkpt lat="59.13731" lon="17.461425">
        <ele>57</ele>
        <time>2020-03-26T12:53:05Z</time>
        <extensions><gpxtpx:TrackPointExtension><gpxtpx:hr>153</gpxtpx:hr></gpxtpx:TrackPointExtension></extensions>
      </trkpt>
      <trkpt lat="59.137383" lon="17.461438">
        <ele>57</ele>
        <time>2020-03-26T12:53:06Z</time>
        <extensions><gpxtpx:TrackPointExtension><gpxtpx:hr>153</gpxtpx:hr></gpxtpx:TrackPointExtension></extensions>
      </trkpt>
      <trkpt lat="59.137467" lon="17.461445">
        <ele>57</ele>
        <time>2020-03-26T12:53:07Z</time>
        <extensions><gpxtpx:TrackPointExtension><gpxtpx:hr>152</gpxtpx:hr></gpxtpx:TrackPointExtension></extensions>
      </trkpt>
      <trkpt lat="59.137543" lon="17.461453">
        <ele>57</ele>
        <time>2020-03-26T12:53:08Z</time>
        <extensions><gpxtpx:TrackPointExtension><gpxtpx:hr>152</gpxtpx:hr></gpxtpx:TrackPointExtension></extensions>
      </trkpt>
      <trkpt lat="59.137627" lon="17.461462">
        <ele>57</ele>
        <time>2020-03-26T12:53:09Z</time>
        <extensions><gpxtpx:TrackPointExtension><gpxtpx:hr>152</gpxtpx:hr></gpxtpx:TrackPointExtension></extensions>
      </trkpt>
      <trkpt lat="59.137712" lon="17.461471">
        <ele>56.8</ele>
        <time>2020-03-26T12:53:10Z</time>
        <extensions><gpxtpx:TrackPointExtension><gpxtpx:hr>152</gpxtpx:hr></gpxtpx:TrackPointExtension></extensions>
      </trkpt>
      <trkpt lat="59.137796" lon="17.461481">
        <ele>56.8</ele>
        <time>2020-03-26T12:53:11Z</time>
        <extensions><gpxtpx:TrackPointExtension><gpxtpx:hr>152</gpxtpx:hr></gpxtpx:TrackPointExtension></extensions>
      </trkpt>
      <trkpt lat="59.137879" lon="17.461492">
        <ele>56.8</ele>
        <time>2020-03-26T12:53:12Z</time>
        <extensions><gpxtpx:TrackPointExtension><gpxtpx:hr>151</gpxtpx:hr></gpxtpx:TrackPointExtension></extensions>
      </trkpt>
      <trkpt lat="59.137954" lon="17.461502">
        <ele>56.8</ele>
        <time>2020-03-26T12:53:13Z</time>
        <extensions><gpxtpx:TrackPointExtension><gpxtpx:hr>151</gpxtpx:hr></gpxtpx:TrackPointExtension></extensions>
      </trkpt>
      <trkpt lat="59.138034" lon="17.461507">
        <ele>56.8</ele>
        <time>2020-03-26T12:53:14Z</time>
        <extensions><gpxtpx:TrackPointExtension><gpxtpx:hr>151</gpxtpx:hr></gpxtpx:TrackPointExtension></extensions>
      </trkpt>
      <trkpt lat="59.13811" lon="17.46151">
        <ele>56.8</ele>
        <time>2020-03-26T12:53:15Z</time>
        <extensions><gpxtpx:TrackPointExtension><gpxtpx:hr>151</gpxtpx:hr></gpxtpx:TrackPointExtension></extensions>
      </trkpt>
      <trkpt lat="59.138179" lon="17.461512">
        <ele>56.8</ele>
        <time>2020-03-26T12:53:16Z</time>
        <extensions><gpxtpx:TrackPointExtension><gpxtpx:hr>151</gpxtpx:hr></gpxtpx:TrackPointExtension></extensions>
      </trkpt>
      <trkpt lat="59.138252" lon="17.461504">
        <ele>56.8</ele>
        <time>2020-03-26T12:53:17Z</time>
        <extensions><gpxtpx:TrackPointExtension><gpxtpx:hr>151</gpxtpx:hr></gpxtpx:TrackPointExtension></extensions>
      </trkpt>
      <trkpt lat="59.138318" lon="17.4615">
        <ele>56.8</ele>
        <time>2020-03-26T12:53:18Z</time>
        <extensions><gpxtpx:TrackPointExtension><gpxtpx:hr>151</gpxtpx:hr></gpxtpx:TrackPointExtension></extensions>
      </trkpt>
      <trkpt lat="59.138386" lon="17.461497">
        <ele>56.8</ele>
        <time>2020-03-26T12:53:19Z</time>
        <extensions><gpxtpx:TrackPointExtension><gpxtpx:hr>152</gpxtpx:hr></gpxtpx:TrackPointExtension></extensions>
      </trkpt>
      <trkpt lat="59.138456" lon="17.461491">
        <ele>56.8</ele>
        <time>2020-03-26T12:53:20Z</time>
        <extensions><gpxtpx:TrackPointExtension><gpxtpx:hr>151</gpxtpx:hr></gpxtpx:TrackPointExtension></extensions>
      </trkpt>
      <trkpt lat="59.138525" lon="17.461479">
        <ele>56.8</ele>
        <time>2020-03-26T12:53:21Z</time>
        <extensions><gpxtpx:TrackPointExtension><gpxtpx:hr>151</gpxtpx:hr></gpxtpx:TrackPointExtension></extensions>
      </trkpt>
      <trkpt lat="59.13858" lon="17.461462">
        <ele>56.8</ele>
        <time>2020-03-26T12:53:22Z</time>
        <extensions><gpxtpx:TrackPointExtension><gpxtpx:hr>151</gpxtpx:hr></gpxtpx:TrackPointExtension></extensions>
      </trkpt>
      <trkpt lat="59.138626" lon="17.461439">
        <ele>56.8</ele>
        <time>2020-03-26T12:53:23Z</time>
        <extensions><gpxtpx:TrackPointExtension><gpxtpx:hr>150</gpxtpx:hr></gpxtpx:TrackPointExtension></extensions>
      </trkpt>
      <trkpt lat="59.138677" lon="17.461417">
        <ele>57</ele>
        <time>2020-03-26T12:53:24Z</time>
        <extensions><gpxtpx:TrackPointExtension><gpxtpx:hr>150</gpxtpx:hr></gpxtpx:TrackPointExtension></extensions>
      </trkpt>
      <trkpt lat="59.138725" lon="17.461393">
        <ele>57.4</ele>
        <time>2020-03-26T12:53:25Z</time>
        <extensions><gpxtpx:TrackPointExtension><gpxtpx:hr>150</gpxtpx:hr></gpxtpx:TrackPointExtension></extensions>
      </trkpt>
      <trkpt lat="59.138777" lon="17.461365">
        <ele>57.6</ele>
        <time>2020-03-26T12:53:26Z</time>
        <extensions><gpxtpx:TrackPointExtension><gpxtpx:hr>150</gpxtpx:hr></gpxtpx:TrackPointExtension></extensions>
      </trkpt>
      <trkpt lat="59.13882" lon="17.461333">
        <ele>58</ele>
        <time>2020-03-26T12:53:27Z</time>
        <extensions><gpxtpx:TrackPointExtension><gpxtpx:hr>150</gpxtpx:hr></gpxtpx:TrackPointExtension></extensions>
      </trkpt>
      <trkpt lat="59.138869" lon="17.461293">
        <ele>58.4</ele>
        <time>2020-03-26T12:53:28Z</time>
        <extensions><gpxtpx:TrackPointExtension><gpxtpx:hr>150</gpxtpx:hr></gpxtpx:TrackPointExtension></extensions>
      </trkpt>
      <trkpt lat="59.138932" lon="17.461249">
        <ele>58.8</ele>
        <time>2020-03-26T12:53:29Z</time>
        <extensions><gpxtpx:TrackPointExtension><gpxtpx:hr>150</gpxtpx:hr></gpxtpx:TrackPointExtension></extensions>
      </trkpt>
      <trkpt lat="59.138996" lon="17.461204">
        <ele>59.2</ele>
        <time>2020-03-26T12:53:30Z</time>
        <extensions><gpxtpx:TrackPointExtension><gpxtpx:hr>151</gpxtpx:hr></gpxtpx:TrackPointExtension></extensions>
      </trkpt>
      <trkpt lat="59.139063" lon="17.461159">
        <ele>59.4</ele>
        <time>2020-03-26T12:53:31Z</time>
        <extensions><gpxtpx:TrackPointExtension><gpxtpx:hr>151</gpxtpx:hr></gpxtpx:TrackPointExtension></extensions>
      </trkpt>
      <trkpt lat="59.139133" lon="17.461105">
        <ele>59.6</ele>
        <time>2020-03-26T12:53:32Z</time>
        <extensions><gpxtpx:TrackPointExtension><gpxtpx:hr>151</gpxtpx:hr></gpxtpx:TrackPointExtension></extensions>
      </trkpt>
      <trkpt lat="59.139205" lon="17.461057">
        <ele>59.6</ele>
        <time>2020-03-26T12:53:33Z</time>
        <extensions><gpxtpx:TrackPointExtension><gpxtpx:hr>152</gpxtpx:hr></gpxtpx:TrackPointExtension></extensions>
      </trkpt>
      <trkpt lat="59.139275" lon="17.461007">
        <ele>59.8</ele>
        <time>2020-03-26T12:53:34Z</time>
        <extensions><gpxtpx:TrackPointExtension><gpxtpx:hr>152</gpxtpx:hr></gpxtpx:TrackPointExtension></extensions>
      </trkpt>
      <trkpt lat="59.139348" lon="17.46095">
        <ele>60</ele>
        <time>2020-03-26T12:53:35Z</time>
        <extensions><gpxtpx:TrackPointExtension><gpxtpx:hr>152</gpxtpx:hr></gpxtpx:TrackPointExtension></extensions>
      </trkpt>
      <trkpt lat="59.139411" lon="17.460896">
        <ele>60.2</ele>
        <time>2020-03-26T12:53:36Z</time>
        <extensions><gpxtpx:TrackPointExtension><gpxtpx:hr>153</gpxtpx:hr></gpxtpx:TrackPointExtension></extensions>
      </trkpt>
      <trkpt lat="59.139483" lon="17.460844">
        <ele>60.4</ele>
        <time>2020-03-26T12:53:37Z</time>
        <extensions><gpxtpx:TrackPointExtension><gpxtpx:hr>153</gpxtpx:hr></gpxtpx:TrackPointExtension></extensions>
      </trkpt>
      <trkpt lat="59.139546" lon="17.460787">
        <ele>60.4</ele>
        <time>2020-03-26T12:53:38Z</time>
        <extensions><gpxtpx:TrackPointExtension><gpxtpx:hr>153</gpxtpx:hr></gpxtpx:TrackPointExtension></extensions>
      </trkpt>
      <trkpt lat="59.139608" lon="17.460733">
        <ele>60.4</ele>
        <time>2020-03-26T12:53:39Z</time>
        <extensions><gpxtpx:TrackPointExtension><gpxtpx:hr>153</gpxtpx:hr></gpxtpx:TrackPointExtension></extensions>
      </trkpt>
      <trkpt lat="59.139674" lon="17.460678">
        <ele>60.4</ele>
        <time>2020-03-26T12:53:40Z</time>
        <extensions><gpxtpx:TrackPointExtension><gpxtpx:hr>153</gpxtpx:hr></gpxtpx:TrackPointExtension></extensions>
      </trkpt>
      <trkpt lat="59.139737" lon="17.460623">
        <ele>60.6</ele>
        <time>2020-03-26T12:53:41Z</time>
        <extensions><gpxtpx:TrackPointExtension><gpxtpx:hr>154</gpxtpx:hr></gpxtpx:TrackPointExtension></extensions>
      </trkpt>
      <trkpt lat="59.139802" lon="17.460561">
        <ele>60.6</ele>
        <time>2020-03-26T12:53:42Z</time>
        <extensions><gpxtpx:TrackPointExtension><gpxtpx:hr>154</gpxtpx:hr></gpxtpx:TrackPointExtension></extensions>
      </trkpt>
      <trkpt lat="59.139863" lon="17.460493">
        <ele>60.6</ele>
        <time>2020-03-26T12:53:43Z</time>
        <extensions><gpxtpx:TrackPointExtension><gpxtpx:hr>153</gpxtpx:hr></gpxtpx:TrackPointExtension></extensions>
      </trkpt>
      <trkpt lat="59.139928" lon="17.460424">
        <ele>60.6</ele>
        <time>2020-03-26T12:53:44Z</time>
        <extensions><gpxtpx:TrackPointExtension><gpxtpx:hr>153</gpxtpx:hr></gpxtpx:TrackPointExtension></extensions>
      </trkpt>
      <trkpt lat="59.139996" lon="17.460353">
        <ele>60.6</ele>
        <time>2020-03-26T12:53:45Z</time>
        <extensions><gpxtpx:TrackPointExtension><gpxtpx:hr>153</gpxtpx:hr></gpxtpx:TrackPointExtension></extensions>
      </trkpt>
      <trkpt lat="59.140063" lon="17.460273">
        <ele>60.6</ele>
        <time>2020-03-26T12:53:46Z</time>
        <extensions><gpxtpx:TrackPointExtension><gpxtpx:hr>152</gpxtpx:hr></gpxtpx:TrackPointExtension></extensions>
      </trkpt>
      <trkpt lat="59.140132" lon="17.460194">
        <ele>60.6</ele>
        <time>2020-03-26T12:53:47Z</time>
        <extensions><gpxtpx:TrackPointExtension><gpxtpx:hr>152</gpxtpx:hr></gpxtpx:TrackPointExtension></extensions>
      </trkpt>
      <trkpt lat="59.140206" lon="17.460111">
        <ele>60.6</ele>
        <time>2020-03-26T12:53:48Z</time>
        <extensions><gpxtpx:TrackPointExtension><gpxtpx:hr>152</gpxtpx:hr></gpxtpx:TrackPointExtension></extensions>
      </trkpt>
      <trkpt lat="59.140281" lon="17.460027">
        <ele>60.6</ele>
        <time>2020-03-26T12:53:49Z</time>
        <extensions><gpxtpx:TrackPointExtension><gpxtpx:hr>152</gpxtpx:hr></gpxtpx:TrackPointExtension></extensions>
      </trkpt>
      <trkpt lat="59.140362" lon="17.459942">
        <ele>60.6</ele>
        <time>2020-03-26T12:53:50Z</time>
        <extensions><gpxtpx:TrackPointExtension><gpxtpx:hr>151</gpxtpx:hr></gpxtpx:TrackPointExtension></extensions>
      </trkpt>
      <trkpt lat="59.140447" lon="17.459863">
        <ele>60.4</ele>
        <time>2020-03-26T12:53:51Z</time>
        <extensions><gpxtpx:TrackPointExtension><gpxtpx:hr>151</gpxtpx:hr></gpxtpx:TrackPointExtension></extensions>
      </trkpt>
      <trkpt lat="59.140532" lon="17.459788">
        <ele>60.4</ele>
        <time>2020-03-26T12:53:52Z</time>
        <extensions><gpxtpx:TrackPointExtension><gpxtpx:hr>150</gpxtpx:hr></gpxtpx:TrackPointExtension></extensions>
      </trkpt>
      <trkpt lat="59.14062" lon="17.459725">
        <ele>60.2</ele>
        <time>2020-03-26T12:53:53Z</time>
        <extensions><gpxtpx:TrackPointExtension><gpxtpx:hr>150</gpxtpx:hr></gpxtpx:TrackPointExtension></extensions>
      </trkpt>
      <trkpt lat="59.140688" lon="17.459677">
        <ele>59.8</ele>
        <time>2020-03-26T12:53:54Z</time>
        <extensions><gpxtpx:TrackPointExtension><gpxtpx:hr>149</gpxtpx:hr></gpxtpx:TrackPointExtension></extensions>
      </trkpt>
      <trkpt lat="59.140767" lon="17.459636">
        <ele>59.4</ele>
        <time>2020-03-26T12:53:55Z</time>
        <extensions><gpxtpx:TrackPointExtension><gpxtpx:hr>149</gpxtpx:hr></gpxtpx:TrackPointExtension></extensions>
      </trkpt>
      <trkpt lat="59.140849" lon="17.459603">
        <ele>58.8</ele>
        <time>2020-03-26T12:53:56Z</time>
        <extensions><gpxtpx:TrackPointExtension><gpxtpx:hr>148</gpxtpx:hr></gpxtpx:TrackPointExtension></extensions>
      </trkpt>
      <trkpt lat="59.140929" lon="17.459572">
        <ele>58.2</ele>
        <time>2020-03-26T12:53:57Z</time>
        <extensions><gpxtpx:TrackPointExtension><gpxtpx:hr>147</gpxtpx:hr></gpxtpx:TrackPointExtension></extensions>
      </trkpt>
      <trkpt lat="59.141012" lon="17.459542">
        <ele>57.6</ele>
        <time>2020-03-26T12:53:58Z</time>
        <extensions><gpxtpx:TrackPointExtension><gpxtpx:hr>146</gpxtpx:hr></gpxtpx:TrackPointExtension></extensions>
      </trkpt>
      <trkpt lat="59.141094" lon="17.459508">
        <ele>57.2</ele>
        <time>2020-03-26T12:53:59Z</time>
        <extensions><gpxtpx:TrackPointExtension><gpxtpx:hr>145</gpxtpx:hr></gpxtpx:TrackPointExtension></extensions>
      </trkpt>
      <trkpt lat="59.141175" lon="17.459467">
        <ele>56.6</ele>
        <time>2020-03-26T12:54:00Z</time>
        <extensions><gpxtpx:TrackPointExtension><gpxtpx:hr>144</gpxtpx:hr></gpxtpx:TrackPointExtension></extensions>
      </trkpt>
      <trkpt lat="59.141251" lon="17.459418">
        <ele>56.4</ele>
        <time>2020-03-26T12:54:01Z</time>
        <extensions><gpxtpx:TrackPointExtension><gpxtpx:hr>144</gpxtpx:hr></gpxtpx:TrackPointExtension></extensions>
      </trkpt>
      <trkpt lat="59.141323" lon="17.459363">
        <ele>56.2</ele>
        <time>2020-03-26T12:54:02Z</time>
        <extensions><gpxtpx:TrackPointExtension><gpxtpx:hr>143</gpxtpx:hr></gpxtpx:TrackPointExtension></extensions>
      </trkpt>
      <trkpt lat="59.14139" lon="17.459303">
        <ele>56.2</ele>
        <time>2020-03-26T12:54:03Z</time>
        <extensions><gpxtpx:TrackPointExtension><gpxtpx:hr>143</gpxtpx:hr></gpxtpx:TrackPointExtension></extensions>
      </trkpt>
      <trkpt lat="59.141455" lon="17.459246">
        <ele>56.2</ele>
        <time>2020-03-26T12:54:04Z</time>
        <extensions><gpxtpx:TrackPointExtension><gpxtpx:hr>143</gpxtpx:hr></gpxtpx:TrackPointExtension></extensions>
      </trkpt>
      <trkpt lat="59.141516" lon="17.459186">
        <ele>56.2</ele>
        <time>2020-03-26T12:54:05Z</time>
        <extensions><gpxtpx:TrackPointExtension><gpxtpx:hr>142</gpxtpx:hr></gpxtpx:TrackPointExtension></extensions>
      </trkpt>
      <trkpt lat="59.141583" lon="17.459127">
        <ele>56.2</ele>
        <time>2020-03-26T12:54:06Z</time>
        <extensions><gpxtpx:TrackPointExtension><gpxtpx:hr>142</gpxtpx:hr></gpxtpx:TrackPointExtension></extensions>
      </trkpt>
      <trkpt lat="59.14164" lon="17.459069">
        <ele>56.2</ele>
        <time>2020-03-26T12:54:07Z</time>
        <extensions><gpxtpx:TrackPointExtension><gpxtpx:hr>141</gpxtpx:hr></gpxtpx:TrackPointExtension></extensions>
      </trkpt>
      <trkpt lat="59.141694" lon="17.459011">
        <ele>56</ele>
        <time>2020-03-26T12:54:08Z</time>
        <extensions><gpxtpx:TrackPointExtension><gpxtpx:hr>140</gpxtpx:hr></gpxtpx:TrackPointExtension></extensions>
      </trkpt>
      <trkpt lat="59.141747" lon="17.458962">
        <ele>56</ele>
        <time>2020-03-26T12:54:09Z</time>
        <extensions><gpxtpx:TrackPointExtension><gpxtpx:hr>139</gpxtpx:hr></gpxtpx:TrackPointExtension></extensions>
      </trkpt>
      <trkpt lat="59.141797" lon="17.458914">
        <ele>56.2</ele>
        <time>2020-03-26T12:54:10Z</time>
        <extensions><gpxtpx:TrackPointExtension><gpxtpx:hr>139</gpxtpx:hr></gpxtpx:TrackPointExtension></extensions>
      </trkpt>
      <trkpt lat="59.141845" lon="17.458869">
        <ele>56.4</ele>
        <time>2020-03-26T12:54:11Z</time>
        <extensions><gpxtpx:TrackPointExtension><gpxtpx:hr>139</gpxtpx:hr></gpxtpx:TrackPointExtension></extensions>
      </trkpt>
      <trkpt lat="59.141894" lon="17.45882">
        <ele>56.8</ele>
        <time>2020-03-26T12:54:12Z</time>
        <extensions><gpxtpx:TrackPointExtension><gpxtpx:hr>139</gpxtpx:hr></gpxtpx:TrackPointExtension></extensions>
      </trkpt>
      <trkpt lat="59.141942" lon="17.45877">
        <ele>57.2</ele>
        <time>2020-03-26T12:54:13Z</time>
        <extensions><gpxtpx:TrackPointExtension><gpxtpx:hr>139</gpxtpx:hr></gpxtpx:TrackPointExtension></extensions>
      </trkpt>
      <trkpt lat="59.14199" lon="17.458724">
        <ele>57.4</ele>
        <time>2020-03-26T12:54:14Z</time>
        <extensions><gpxtpx:TrackPointExtension><gpxtpx:hr>139</gpxtpx:hr></gpxtpx:TrackPointExtension></extensions>
      </trkpt>
      <trkpt lat="59.142035" lon="17.458672">
        <ele>57.8</ele>
        <time>2020-03-26T12:54:15Z</time>
        <extensions><gpxtpx:TrackPointExtension><gpxtpx:hr>139</gpxtpx:hr></gpxtpx:TrackPointExtension></extensions>
      </trkpt>
      <trkpt lat="59.142077" lon="17.458624">
        <ele>58.4</ele>
        <time>2020-03-26T12:54:16Z</time>
        <extensions><gpxtpx:TrackPointExtension><gpxtpx:hr>140</gpxtpx:hr></gpxtpx:TrackPointExtension></extensions>
      </trkpt>
      <trkpt lat="59.142125" lon="17.458575">
        <ele>58.6</ele>
        <time>2020-03-26T12:54:17Z</time>
        <extensions><gpxtpx:TrackPointExtension><gpxtpx:hr>141</gpxtpx:hr></gpxtpx:TrackPointExtension></extensions>
      </trkpt>
      <trkpt lat="59.142174" lon="17.45853">
        <ele>59</ele>
        <time>2020-03-26T12:54:18Z</time>
        <extensions><gpxtpx:TrackPointExtension><gpxtpx:hr>142</gpxtpx:hr></gpxtpx:TrackPointExtension></extensions>
      </trkpt>
      <trkpt lat="59.142223" lon="17.458489">
        <ele>59.2</ele>
        <time>2020-03-26T12:54:19Z</time>
        <extensions><gpxtpx:TrackPointExtension><gpxtpx:hr>143</gpxtpx:hr></gpxtpx:TrackPointExtension></extensions>
      </trkpt>
      <trkpt lat="59.142274" lon="17.458439">
        <ele>59.6</ele>
        <time>2020-03-26T12:54:20Z</time>
        <extensions><gpxtpx:TrackPointExtension><gpxtpx:hr>144</gpxtpx:hr></gpxtpx:TrackPointExtension></extensions>
      </trkpt>
      <trkpt lat="59.142321" lon="17.458388">
        <ele>60</ele>
        <time>2020-03-26T12:54:21Z</time>
        <extensions><gpxtpx:TrackPointExtension><gpxtpx:hr>145</gpxtpx:hr></gpxtpx:TrackPointExtension></extensions>
      </trkpt>
      <trkpt lat="59.142366" lon="17.458338">
        <ele>60.4</ele>
        <time>2020-03-26T12:54:22Z</time>
        <extensions><gpxtpx:TrackPointExtension><gpxtpx:hr>146</gpxtpx:hr></gpxtpx:TrackPointExtension></extensions>
      </trkpt>
      <trkpt lat="59.142413" lon="17.458287">
        <ele>60.6</ele>
        <time>2020-03-26T12:54:23Z</time>
        <extensions><gpxtpx:TrackPointExtension><gpxtpx:hr>147</gpxtpx:hr></gpxtpx:TrackPointExtension></extensions>
      </trkpt>
      <trkpt lat="59.14246" lon="17.458238">
        <ele>60.8</ele>
        <time>2020-03-26T12:54:24Z</time>
        <extensions><gpxtpx:TrackPointExtension><gpxtpx:hr>148</gpxtpx:hr></gpxtpx:TrackPointExtension></extensions>
      </trkpt>
      <trkpt lat="59.142508" lon="17.458191">
        <ele>61.2</ele>
        <time>2020-03-26T12:54:25Z</time>
        <extensions><gpxtpx:TrackPointExtension><gpxtpx:hr>149</gpxtpx:hr></gpxtpx:TrackPointExtension></extensions>
      </trkpt>
      <trkpt lat="59.14256" lon="17.45814">
        <ele>61.6</ele>
        <time>2020-03-26T12:54:26Z</time>
        <extensions><gpxtpx:TrackPointExtension><gpxtpx:hr>150</gpxtpx:hr></gpxtpx:TrackPointExtension></extensions>
      </trkpt>
      <trkpt lat="59.14261" lon="17.45809">
        <ele>62</ele>
        <time>2020-03-26T12:54:27Z</time>
        <extensions><gpxtpx:TrackPointExtension><gpxtpx:hr>151</gpxtpx:hr></gpxtpx:TrackPointExtension></extensions>
      </trkpt>
      <trkpt lat="59.142658" lon="17.458038">
        <ele>62.4</ele>
        <time>2020-03-26T12:54:28Z</time>
        <extensions><gpxtpx:TrackPointExtension><gpxtpx:hr>152</gpxtpx:hr></gpxtpx:TrackPointExtension></extensions>
      </trkpt>
      <trkpt lat="59.142713" lon="17.457979">
        <ele>62.6</ele>
        <time>2020-03-26T12:54:29Z</time>
        <extensions><gpxtpx:TrackPointExtension><gpxtpx:hr>153</gpxtpx:hr></gpxtpx:TrackPointExtension></extensions>
      </trkpt>
      <trkpt lat="59.142763" lon="17.457928">
        <ele>63</ele>
        <time>2020-03-26T12:54:30Z</time>
        <extensions><gpxtpx:TrackPointExtension><gpxtpx:hr>154</gpxtpx:hr></gpxtpx:TrackPointExtension></extensions>
      </trkpt>
      <trkpt lat="59.142812" lon="17.457875">
        <ele>63.2</ele>
        <time>2020-03-26T12:54:31Z</time>
        <extensions><gpxtpx:TrackPointExtension><gpxtpx:hr>155</gpxtpx:hr></gpxtpx:TrackPointExtension></extensions>
      </trkpt>
      <trkpt lat="59.142861" lon="17.457822">
        <ele>63.4</ele>
        <time>2020-03-26T12:54:32Z</time>
        <extensions><gpxtpx:TrackPointExtension><gpxtpx:hr>155</gpxtpx:hr></gpxtpx:TrackPointExtension></extensions>
      </trkpt>
      <trkpt lat="59.14291" lon="17.457768">
        <ele>63.4</ele>
        <time>2020-03-26T12:54:33Z</time>
        <extensions><gpxtpx:TrackPointExtension><gpxtpx:hr>156</gpxtpx:hr></gpxtpx:TrackPointExtension></extensions>
      </trkpt>
      <trkpt lat="59.142957" lon="17.457716">
        <ele>63.6</ele>
        <time>2020-03-26T12:54:34Z</time>
        <extensions><gpxtpx:TrackPointExtension><gpxtpx:hr>156</gpxtpx:hr></gpxtpx:TrackPointExtension></extensions>
      </trkpt>
      <trkpt lat="59.143004" lon="17.457664">
        <ele>63.8</ele>
        <time>2020-03-26T12:54:35Z</time>
        <extensions><gpxtpx:TrackPointExtension><gpxtpx:hr>156</gpxtpx:hr></gpxtpx:TrackPointExtension></extensions>
      </trkpt>
      <trkpt lat="59.143052" lon="17.457614">
        <ele>64</ele>
        <time>2020-03-26T12:54:36Z</time>
        <extensions><gpxtpx:TrackPointExtension><gpxtpx:hr>157</gpxtpx:hr></gpxtpx:TrackPointExtension></extensions>
      </trkpt>
      <trkpt lat="59.1431" lon="17.457561">
        <ele>64.2</ele>
        <time>2020-03-26T12:54:37Z</time>
        <extensions><gpxtpx:TrackPointExtension><gpxtpx:hr>157</gpxtpx:hr></gpxtpx:TrackPointExtension></extensions>
      </trkpt>
      <trkpt lat="59.14315" lon="17.457511">
        <ele>64.2</ele>
        <time>2020-03-26T12:54:38Z</time>
        <extensions><gpxtpx:TrackPointExtension><gpxtpx:hr>158</gpxtpx:hr></gpxtpx:TrackPointExtension></extensions>
      </trkpt>
      <trkpt lat="59.143202" lon="17.457461">
        <ele>64.2</ele>
        <time>2020-03-26T12:54:39Z</time>
        <extensions><gpxtpx:TrackPointExtension><gpxtpx:hr>158</gpxtpx:hr></gpxtpx:TrackPointExtension></extensions>
      </trkpt>
      <trkpt lat="59.143254" lon="17.457411">
        <ele>64.2</ele>
        <time>2020-03-26T12:54:40Z</time>
        <extensions><gpxtpx:TrackPointExtension><gpxtpx:hr>159</gpxtpx:hr></gpxtpx:TrackPointExtension></extensions>
      </trkpt>
      <trkpt lat="59.143309" lon="17.457365">
        <ele>64.4</ele>
        <time>2020-03-26T12:54:41Z</time>
        <extensions><gpxtpx:TrackPointExtension><gpxtpx:hr>159</gpxtpx:hr></gpxtpx:TrackPointExtension></extensions>
      </trkpt>
      <trkpt lat="59.143359" lon="17.457323">
        <ele>64.4</ele>
        <time>2020-03-26T12:54:42Z</time>
        <extensions><gpxtpx:TrackPointExtension><gpxtpx:hr>159</gpxtpx:hr></gpxtpx:TrackPointExtension></extensions>
      </trkpt>
      <trkpt lat="59.143409" lon="17.457283">
        <ele>64.4</ele>
        <time>2020-03-26T12:54:43Z</time>
        <extensions><gpxtpx:TrackPointExtension><gpxtpx:hr>160</gpxtpx:hr></gpxtpx:TrackPointExtension></extensions>
      </trkpt>
      <trkpt lat="59.143465" lon="17.457246">
        <ele>64.4</ele>
        <time>2020-03-26T12:54:44Z</time>
        <extensions><gpxtpx:TrackPointExtension><gpxtpx:hr>159</gpxtpx:hr></gpxtpx:TrackPointExtension></extensions>
      </trkpt>
      <trkpt lat="59.143522" lon="17.457202">
        <ele>64.4</ele>
        <time>2020-03-26T12:54:45Z</time>
        <extensions><gpxtpx:TrackPointExtension><gpxtpx:hr>159</gpxtpx:hr></gpxtpx:TrackPointExtension></extensions>
      </trkpt>
      <trkpt lat="59.143584" lon="17.457164">
        <ele>64.6</ele>
        <time>2020-03-26T12:54:46Z</time>
        <extensions><gpxtpx:TrackPointExtension><gpxtpx:hr>159</gpxtpx:hr></gpxtpx:TrackPointExtension></extensions>
      </trkpt>
      <trkpt lat="59.143633" lon="17.457145">
        <ele>64.8</ele>
        <time>2020-03-26T12:54:47Z</time>
        <extensions><gpxtpx:TrackPointExtension><gpxtpx:hr>158</gpxtpx:hr></gpxtpx:TrackPointExtension></extensions>
      </trkpt>
      <trkpt lat="59.143682" lon="17.457126">
        <ele>64.8</ele>
        <time>2020-03-26T12:54:48Z</time>
        <extensions><gpxtpx:TrackPointExtension><gpxtpx:hr>158</gpxtpx:hr></gpxtpx:TrackPointExtension></extensions>
      </trkpt>
      <trkpt lat="59.14378" lon="17.457087">
        <ele>64.8</ele>
        <time>2020-03-26T12:54:49Z</time>
        <extensions><gpxtpx:TrackPointExtension><gpxtpx:hr>157</gpxtpx:hr></gpxtpx:TrackPointExtension></extensions>
      </trkpt>
      <trkpt lat="59.143847" lon="17.457068">
        <ele>64.8</ele>
        <time>2020-03-26T12:54:50Z</time>
        <extensions><gpxtpx:TrackPointExtension><gpxtpx:hr>157</gpxtpx:hr></gpxtpx:TrackPointExtension></extensions>
      </trkpt>
      <trkpt lat="59.143915" lon="17.457048">
        <ele>64.8</ele>
        <time>2020-03-26T12:54:51Z</time>
        <extensions><gpxtpx:TrackPointExtension><gpxtpx:hr>157</gpxtpx:hr></gpxtpx:TrackPointExtension></extensions>
      </trkpt>
      <trkpt lat="59.143983" lon="17.457026">
        <ele>64.8</ele>
        <time>2020-03-26T12:54:52Z</time>
        <extensions><gpxtpx:TrackPointExtension><gpxtpx:hr>157</gpxtpx:hr></gpxtpx:TrackPointExtension></extensions>
      </trkpt>
      <trkpt lat="59.144052" lon="17.457005">
        <ele>64.8</ele>
        <time>2020-03-26T12:54:53Z</time>
        <extensions><gpxtpx:TrackPointExtension><gpxtpx:hr>156</gpxtpx:hr></gpxtpx:TrackPointExtension></extensions>
      </trkpt>
      <trkpt lat="59.144122" lon="17.456983">
        <ele>64.8</ele>
        <time>2020-03-26T12:54:54Z</time>
        <extensions><gpxtpx:TrackPointExtension><gpxtpx:hr>156</gpxtpx:hr></gpxtpx:TrackPointExtension></extensions>
      </trkpt>
      <trkpt lat="59.144191" lon="17.456957">
        <ele>64.8</ele>
        <time>2020-03-26T12:54:55Z</time>
        <extensions><gpxtpx:TrackPointExtension><gpxtpx:hr>155</gpxtpx:hr></gpxtpx:TrackPointExtension></extensions>
      </trkpt>
      <trkpt lat="59.144262" lon="17.456926">
        <ele>64.8</ele>
        <time>2020-03-26T12:54:56Z</time>
        <extensions><gpxtpx:TrackPointExtension><gpxtpx:hr>155</gpxtpx:hr></gpxtpx:TrackPointExtension></extensions>
      </trkpt>
      <trkpt lat="59.144333" lon="17.456891">
        <ele>64.8</ele>
        <time>2020-03-26T12:54:57Z</time>
        <extensions><gpxtpx:TrackPointExtension><gpxtpx:hr>155</gpxtpx:hr></gpxtpx:TrackPointExtension></extensions>
      </trkpt>
      <trkpt lat="59.1444" lon="17.456853">
        <ele>64.8</ele>
        <time>2020-03-26T12:54:58Z</time>
        <extensions><gpxtpx:TrackPointExtension><gpxtpx:hr>154</gpxtpx:hr></gpxtpx:TrackPointExtension></extensions>
      </trkpt>
      <trkpt lat="59.144465" lon="17.456811">
        <ele>64.8</ele>
        <time>2020-03-26T12:54:59Z</time>
        <extensions><gpxtpx:TrackPointExtension><gpxtpx:hr>154</gpxtpx:hr></gpxtpx:TrackPointExtension></extensions>
      </trkpt>
      <trkpt lat="59.144527" lon="17.456766">
        <ele>64.8</ele>
        <time>2020-03-26T12:55:00Z</time>
        <extensions><gpxtpx:TrackPointExtension><gpxtpx:hr>153</gpxtpx:hr></gpxtpx:TrackPointExtension></extensions>
      </trkpt>
      <trkpt lat="59.144588" lon="17.456717">
        <ele>64.6</ele>
        <time>2020-03-26T12:55:01Z</time>
        <extensions><gpxtpx:TrackPointExtension><gpxtpx:hr>153</gpxtpx:hr></gpxtpx:TrackPointExtension></extensions>
      </trkpt>
      <trkpt lat="59.14465" lon="17.456666">
        <ele>64.6</ele>
        <time>2020-03-26T12:55:02Z</time>
        <extensions><gpxtpx:TrackPointExtension><gpxtpx:hr>152</gpxtpx:hr></gpxtpx:TrackPointExtension></extensions>
      </trkpt>
      <trkpt lat="59.144711" lon="17.456612">
        <ele>64.6</ele>
        <time>2020-03-26T12:55:03Z</time>
        <extensions><gpxtpx:TrackPointExtension><gpxtpx:hr>151</gpxtpx:hr></gpxtpx:TrackPointExtension></extensions>
      </trkpt>
      <trkpt lat="59.14477" lon="17.456551">
        <ele>64.6</ele>
        <time>2020-03-26T12:55:04Z</time>
        <extensions><gpxtpx:TrackPointExtension><gpxtpx:hr>151</gpxtpx:hr></gpxtpx:TrackPointExtension></extensions>
      </trkpt>
      <trkpt lat="59.144825" lon="17.456482">
        <ele>64.6</ele>
        <time>2020-03-26T12:55:05Z</time>
        <extensions><gpxtpx:TrackPointExtension><gpxtpx:hr>150</gpxtpx:hr></gpxtpx:TrackPointExtension></extensions>
      </trkpt>
      <trkpt lat="59.144878" lon="17.456407">
        <ele>64.4</ele>
        <time>2020-03-26T12:55:06Z</time>
        <extensions><gpxtpx:TrackPointExtension><gpxtpx:hr>150</gpxtpx:hr></gpxtpx:TrackPointExtension></extensions>
      </trkpt>
      <trkpt lat="59.144931" lon="17.456327">
        <ele>64.4</ele>
        <time>2020-03-26T12:55:07Z</time>
        <extensions><gpxtpx:TrackPointExtension><gpxtpx:hr>150</gpxtpx:hr></gpxtpx:TrackPointExtension></extensions>
      </trkpt>
      <trkpt lat="59.144985" lon="17.456246">
        <ele>64.4</ele>
        <time>2020-03-26T12:55:08Z</time>
        <extensions><gpxtpx:TrackPointExtension><gpxtpx:hr>150</gpxtpx:hr></gpxtpx:TrackPointExtension></extensions>
      </trkpt>
      <trkpt lat="59.145037" lon="17.456164">
        <ele>64.4</ele>
        <time>2020-03-26T12:55:09Z</time>
        <extensions><gpxtpx:TrackPointExtension><gpxtpx:hr>150</gpxtpx:hr></gpxtpx:TrackPointExtension></extensions>
      </trkpt>
      <trkpt lat="59.145087" lon="17.456079">
        <ele>64.4</ele>
        <time>2020-03-26T12:55:10Z</time>
        <extensions><gpxtpx:TrackPointExtension><gpxtpx:hr>150</gpxtpx:hr></gpxtpx:TrackPointExtension></extensions>
      </trkpt>
      <trkpt lat="59.145133" lon="17.455988">
        <ele>64.4</ele>
        <time>2020-03-26T12:55:11Z</time>
        <extensions><gpxtpx:TrackPointExtension><gpxtpx:hr>150</gpxtpx:hr></gpxtpx:TrackPointExtension></extensions>
      </trkpt>
      <trkpt lat="59.145176" lon="17.455894">
        <ele>64.4</ele>
        <time>2020-03-26T12:55:12Z</time>
        <extensions><gpxtpx:TrackPointExtension><gpxtpx:hr>150</gpxtpx:hr></gpxtpx:TrackPointExtension></extensions>
      </trkpt>
      <trkpt lat="59.145218" lon="17.455802">
        <ele>64.4</ele>
        <time>2020-03-26T12:55:13Z</time>
        <extensions><gpxtpx:TrackPointExtension><gpxtpx:hr>150</gpxtpx:hr></gpxtpx:TrackPointExtension></extensions>
      </trkpt>
      <trkpt lat="59.14526" lon="17.455711">
        <ele>64.4</ele>
        <time>2020-03-26T12:55:14Z</time>
        <extensions><gpxtpx:TrackPointExtension><gpxtpx:hr>150</gpxtpx:hr></gpxtpx:TrackPointExtension></extensions>
      </trkpt>
      <trkpt lat="59.145302" lon="17.455622">
        <ele>64.6</ele>
        <time>2020-03-26T12:55:15Z</time>
        <extensions><gpxtpx:TrackPointExtension><gpxtpx:hr>150</gpxtpx:hr></gpxtpx:TrackPointExtension></extensions>
      </trkpt>
      <trkpt lat="59.145343" lon="17.455536">
        <ele>64.6</ele>
        <time>2020-03-26T12:55:16Z</time>
        <extensions><gpxtpx:TrackPointExtension><gpxtpx:hr>149</gpxtpx:hr></gpxtpx:TrackPointExtension></extensions>
      </trkpt>
      <trkpt lat="59.145383" lon="17.455451">
        <ele>64.6</ele>
        <time>2020-03-26T12:55:17Z</time>
        <extensions><gpxtpx:TrackPointExtension><gpxtpx:hr>149</gpxtpx:hr></gpxtpx:TrackPointExtension></extensions>
      </trkpt>
      <trkpt lat="59.145423" lon="17.455366">
        <ele>64.8</ele>
        <time>2020-03-26T12:55:18Z</time>
        <extensions><gpxtpx:TrackPointExtension><gpxtpx:hr>149</gpxtpx:hr></gpxtpx:TrackPointExtension></extensions>
      </trkpt>
      <trkpt lat="59.145462" lon="17.455284">
        <ele>64.8</ele>
        <time>2020-03-26T12:55:19Z</time>
        <extensions><gpxtpx:TrackPointExtension><gpxtpx:hr>148</gpxtpx:hr></gpxtpx:TrackPointExtension></extensions>
      </trkpt>
      <trkpt lat="59.145501" lon="17.455202">
        <ele>65</ele>
        <time>2020-03-26T12:55:20Z</time>
        <extensions><gpxtpx:TrackPointExtension><gpxtpx:hr>148</gpxtpx:hr></gpxtpx:TrackPointExtension></extensions>
      </trkpt>
      <trkpt lat="59.145541" lon="17.455122">
        <ele>65.2</ele>
        <time>2020-03-26T12:55:21Z</time>
        <extensions><gpxtpx:TrackPointExtension><gpxtpx:hr>148</gpxtpx:hr></gpxtpx:TrackPointExtension></extensions>
      </trkpt>
      <trkpt lat="59.145582" lon="17.455045">
        <ele>65.4</ele>
        <time>2020-03-26T12:55:22Z</time>
        <extensions><gpxtpx:TrackPointExtension><gpxtpx:hr>148</gpxtpx:hr></gpxtpx:TrackPointExtension></extensions>
      </trkpt>
      <trkpt lat="59.145626" lon="17.454971">
        <ele>65.6</ele>
        <time>2020-03-26T12:55:23Z</time>
        <extensions><gpxtpx:TrackPointExtension><gpxtpx:hr>148</gpxtpx:hr></gpxtpx:TrackPointExtension></extensions>
      </trkpt>
      <trkpt lat="59.145669" lon="17.454896">
        <ele>65.8</ele>
        <time>2020-03-26T12:55:24Z</time>
        <extensions><gpxtpx:TrackPointExtension><gpxtpx:hr>148</gpxtpx:hr></gpxtpx:TrackPointExtension></extensions>
      </trkpt>
      <trkpt lat="59.14571" lon="17.454816">
        <ele>65.8</ele>
        <time>2020-03-26T12:55:25Z</time>
        <extensions><gpxtpx:TrackPointExtension><gpxtpx:hr>147</gpxtpx:hr></gpxtpx:TrackPointExtension></extensions>
      </trkpt>
      <trkpt lat="59.145752" lon="17.454735">
        <ele>66</ele>
        <time>2020-03-26T12:55:26Z</time>
        <extensions><gpxtpx:TrackPointExtension><gpxtpx:hr>147</gpxtpx:hr></gpxtpx:TrackPointExtension></extensions>
      </trkpt>
      <trkpt lat="59.145794" lon="17.454655">
        <ele>66.2</ele>
        <time>2020-03-26T12:55:27Z</time>
        <extensions><gpxtpx:TrackPointExtension><gpxtpx:hr>146</gpxtpx:hr></gpxtpx:TrackPointExtension></extensions>
      </trkpt>
      <trkpt lat="59.145836" lon="17.454575">
        <ele>66.4</ele>
        <time>2020-03-26T12:55:28Z</time>
        <extensions><gpxtpx:TrackPointExtension><gpxtpx:hr>146</gpxtpx:hr></gpxtpx:TrackPointExtension></extensions>
      </trkpt>
      <trkpt lat="59.145878" lon="17.454496">
        <ele>66.4</ele>
        <time>2020-03-26T12:55:29Z</time>
        <extensions><gpxtpx:TrackPointExtension><gpxtpx:hr>145</gpxtpx:hr></gpxtpx:TrackPointExtension></extensions>
      </trkpt>
      <trkpt lat="59.145923" lon="17.45442">
        <ele>66.6</ele>
        <time>2020-03-26T12:55:30Z</time>
        <extensions><gpxtpx:TrackPointExtension><gpxtpx:hr>145</gpxtpx:hr></gpxtpx:TrackPointExtension></extensions>
      </trkpt>
      <trkpt lat="59.145967" lon="17.454342">
        <ele>66.6</ele>
        <time>2020-03-26T12:55:31Z</time>
        <extensions><gpxtpx:TrackPointExtension><gpxtpx:hr>145</gpxtpx:hr></gpxtpx:TrackPointExtension></extensions>
      </trkpt>
      <trkpt lat="59.146013" lon="17.454263">
        <ele>66.6</ele>
        <time>2020-03-26T12:55:32Z</time>
        <extensions><gpxtpx:TrackPointExtension><gpxtpx:hr>145</gpxtpx:hr></gpxtpx:TrackPointExtension></extensions>
      </trkpt>
      <trkpt lat="59.146064" lon="17.454176">
        <ele>66.6</ele>
        <time>2020-03-26T12:55:33Z</time>
        <extensions><gpxtpx:TrackPointExtension><gpxtpx:hr>145</gpxtpx:hr></gpxtpx:TrackPointExtension></extensions>
      </trkpt>
      <trkpt lat="59.146113" lon="17.454089">
        <ele>66.6</ele>
        <time>2020-03-26T12:55:34Z</time>
        <extensions><gpxtpx:TrackPointExtension><gpxtpx:hr>145</gpxtpx:hr></gpxtpx:TrackPointExtension></extensions>
      </trkpt>
      <trkpt lat="59.146163" lon="17.454002">
        <ele>66.6</ele>
        <time>2020-03-26T12:55:35Z</time>
        <extensions><gpxtpx:TrackPointExtension><gpxtpx:hr>145</gpxtpx:hr></gpxtpx:TrackPointExtension></extensions>
      </trkpt>
      <trkpt lat="59.146216" lon="17.453911">
        <ele>66.6</ele>
        <time>2020-03-26T12:55:36Z</time>
        <extensions><gpxtpx:TrackPointExtension><gpxtpx:hr>145</gpxtpx:hr></gpxtpx:TrackPointExtension></extensions>
      </trkpt>
      <trkpt lat="59.14627" lon="17.453819">
        <ele>66.6</ele>
        <time>2020-03-26T12:55:37Z</time>
        <extensions><gpxtpx:TrackPointExtension><gpxtpx:hr>144</gpxtpx:hr></gpxtpx:TrackPointExtension></extensions>
      </trkpt>
      <trkpt lat="59.146328" lon="17.453729">
        <ele>66.6</ele>
        <time>2020-03-26T12:55:38Z</time>
        <extensions><gpxtpx:TrackPointExtension><gpxtpx:hr>144</gpxtpx:hr></gpxtpx:TrackPointExtension></extensions>
      </trkpt>
      <trkpt lat="59.146387" lon="17.453638">
        <ele>66.6</ele>
        <time>2020-03-26T12:55:39Z</time>
        <extensions><gpxtpx:TrackPointExtension><gpxtpx:hr>143</gpxtpx:hr></gpxtpx:TrackPointExtension></extensions>
      </trkpt>
      <trkpt lat="59.146449" lon="17.453546">
        <ele>66.6</ele>
        <time>2020-03-26T12:55:40Z</time>
        <extensions><gpxtpx:TrackPointExtension><gpxtpx:hr>143</gpxtpx:hr></gpxtpx:TrackPointExtension></extensions>
      </trkpt>
      <trkpt lat="59.146513" lon="17.453449">
        <ele>66.6</ele>
        <time>2020-03-26T12:55:41Z</time>
        <extensions><gpxtpx:TrackPointExtension><gpxtpx:hr>142</gpxtpx:hr></gpxtpx:TrackPointExtension></extensions>
      </trkpt>
      <trkpt lat="59.146581" lon="17.453356">
        <ele>66.4</ele>
        <time>2020-03-26T12:55:42Z</time>
        <extensions><gpxtpx:TrackPointExtension><gpxtpx:hr>142</gpxtpx:hr></gpxtpx:TrackPointExtension></extensions>
      </trkpt>
      <trkpt lat="59.146651" lon="17.453265">
        <ele>66</ele>
        <time>2020-03-26T12:55:43Z</time>
        <extensions><gpxtpx:TrackPointExtension><gpxtpx:hr>142</gpxtpx:hr></gpxtpx:TrackPointExtension></extensions>
      </trkpt>
      <trkpt lat="59.146725" lon="17.453178">
        <ele>65.8</ele>
        <time>2020-03-26T12:55:44Z</time>
        <extensions><gpxtpx:TrackPointExtension><gpxtpx:hr>142</gpxtpx:hr></gpxtpx:TrackPointExtension></extensions>
      </trkpt>
      <trkpt lat="59.146798" lon="17.453095">
        <ele>65.4</ele>
        <time>2020-03-26T12:55:45Z</time>
        <extensions><gpxtpx:TrackPointExtension><gpxtpx:hr>142</gpxtpx:hr></gpxtpx:TrackPointExtension></extensions>
      </trkpt>
      <trkpt lat="59.146873" lon="17.45302">
        <ele>65</ele>
        <time>2020-03-26T12:55:46Z</time>
        <extensions><gpxtpx:TrackPointExtension><gpxtpx:hr>142</gpxtpx:hr></gpxtpx:TrackPointExtension></extensions>
      </trkpt>
      <trkpt lat="59.146947" lon="17.452953">
        <ele>64.6</ele>
        <time>2020-03-26T12:55:47Z</time>
        <extensions><gpxtpx:TrackPointExtension><gpxtpx:hr>142</gpxtpx:hr></gpxtpx:TrackPointExtension></extensions>
      </trkpt>
      <trkpt lat="59.147019" lon="17.452884">
        <ele>64.2</ele>
        <time>2020-03-26T12:55:48Z</time>
        <extensions><gpxtpx:TrackPointExtension><gpxtpx:hr>141</gpxtpx:hr></gpxtpx:TrackPointExtension></extensions>
      </trkpt>
      <trkpt lat="59.147086" lon="17.45282">
        <ele>63.8</ele>
        <time>2020-03-26T12:55:49Z</time>
        <extensions><gpxtpx:TrackPointExtension><gpxtpx:hr>140</gpxtpx:hr></gpxtpx:TrackPointExtension></extensions>
      </trkpt>
      <trkpt lat="59.147151" lon="17.452757">
        <ele>63.4</ele>
        <time>2020-03-26T12:55:50Z</time>
        <extensions><gpxtpx:TrackPointExtension><gpxtpx:hr>139</gpxtpx:hr></gpxtpx:TrackPointExtension></extensions>
      </trkpt>
      <trkpt lat="59.147215" lon="17.452698">
        <ele>63.4</ele>
        <time>2020-03-26T12:55:51Z</time>
        <extensions><gpxtpx:TrackPointExtension><gpxtpx:hr>139</gpxtpx:hr></gpxtpx:TrackPointExtension></extensions>
      </trkpt>
      <trkpt lat="59.147275" lon="17.452637">
        <ele>63.2</ele>
        <time>2020-03-26T12:55:52Z</time>
        <extensions><gpxtpx:TrackPointExtension><gpxtpx:hr>138</gpxtpx:hr></gpxtpx:TrackPointExtension></extensions>
      </trkpt>
      <trkpt lat="59.147336" lon="17.452578">
        <ele>63.2</ele>
        <time>2020-03-26T12:55:53Z</time>
        <extensions><gpxtpx:TrackPointExtension><gpxtpx:hr>138</gpxtpx:hr></gpxtpx:TrackPointExtension></extensions>
      </trkpt>
      <trkpt lat="59.1474" lon="17.452525">
        <ele>63.2</ele>
        <time>2020-03-26T12:55:54Z</time>
        <extensions><gpxtpx:TrackPointExtension><gpxtpx:hr>138</gpxtpx:hr></gpxtpx:TrackPointExtension></extensions>
      </trkpt>
      <trkpt lat="59.147465" lon="17.45247">
        <ele>63.2</ele>
        <time>2020-03-26T12:55:55Z</time>
        <extensions><gpxtpx:TrackPointExtension><gpxtpx:hr>138</gpxtpx:hr></gpxtpx:TrackPointExtension></extensions>
      </trkpt>
      <trkpt lat="59.14753" lon="17.452413">
        <ele>63.2</ele>
        <time>2020-03-26T12:55:56Z</time>
        <extensions><gpxtpx:TrackPointExtension><gpxtpx:hr>138</gpxtpx:hr></gpxtpx:TrackPointExtension></extensions>
      </trkpt>
      <trkpt lat="59.147598" lon="17.452357">
        <ele>63.2</ele>
        <time>2020-03-26T12:55:57Z</time>
        <extensions><gpxtpx:TrackPointExtension><gpxtpx:hr>138</gpxtpx:hr></gpxtpx:TrackPointExtension></extensions>
      </trkpt>
      <trkpt lat="59.147667" lon="17.452304">
        <ele>63.2</ele>
        <time>2020-03-26T12:55:58Z</time>
        <extensions><gpxtpx:TrackPointExtension><gpxtpx:hr>138</gpxtpx:hr></gpxtpx:TrackPointExtension></extensions>
      </trkpt>
      <trkpt lat="59.147736" lon="17.45225">
        <ele>63.2</ele>
        <time>2020-03-26T12:55:59Z</time>
        <extensions><gpxtpx:TrackPointExtension><gpxtpx:hr>139</gpxtpx:hr></gpxtpx:TrackPointExtension></extensions>
      </trkpt>
      <trkpt lat="59.147806" lon="17.452199">
        <ele>63.4</ele>
        <time>2020-03-26T12:56:00Z</time>
        <extensions><gpxtpx:TrackPointExtension><gpxtpx:hr>139</gpxtpx:hr></gpxtpx:TrackPointExtension></extensions>
      </trkpt>
      <trkpt lat="59.147879" lon="17.452146">
        <ele>63.4</ele>
        <time>2020-03-26T12:56:01Z</time>
        <extensions><gpxtpx:TrackPointExtension><gpxtpx:hr>139</gpxtpx:hr></gpxtpx:TrackPointExtension></extensions>
      </trkpt>
      <trkpt lat="59.147953" lon="17.452091">
        <ele>63.4</ele>
        <time>2020-03-26T12:56:02Z</time>
        <extensions><gpxtpx:TrackPointExtension><gpxtpx:hr>139</gpxtpx:hr></gpxtpx:TrackPointExtension></extensions>
      </trkpt>
      <trkpt lat="59.148029" lon="17.452033">
        <ele>63.4</ele>
        <time>2020-03-26T12:56:03Z</time>
        <extensions><gpxtpx:TrackPointExtension><gpxtpx:hr>140</gpxtpx:hr></gpxtpx:TrackPointExtension></extensions>
      </trkpt>
      <trkpt lat="59.148108" lon="17.451976">
        <ele>63.4</ele>
        <time>2020-03-26T12:56:04Z</time>
        <extensions><gpxtpx:TrackPointExtension><gpxtpx:hr>140</gpxtpx:hr></gpxtpx:TrackPointExtension></extensions>
      </trkpt>
      <trkpt lat="59.148189" lon="17.451921">
        <ele>63.4</ele>
        <time>2020-03-26T12:56:05Z</time>
        <extensions><gpxtpx:TrackPointExtension><gpxtpx:hr>140</gpxtpx:hr></gpxtpx:TrackPointExtension></extensions>
      </trkpt>
      <trkpt lat="59.148271" lon="17.451865">
        <ele>63.4</ele>
        <time>2020-03-26T12:56:06Z</time>
        <extensions><gpxtpx:TrackPointExtension><gpxtpx:hr>140</gpxtpx:hr></gpxtpx:TrackPointExtension></extensions>
      </trkpt>
      <trkpt lat="59.148352" lon="17.451807">
        <ele>63.4</ele>
        <time>2020-03-26T12:56:07Z</time>
        <extensions><gpxtpx:TrackPointExtension><gpxtpx:hr>141</gpxtpx:hr></gpxtpx:TrackPointExtension></extensions>
      </trkpt>
      <trkpt lat="59.148431" lon="17.451752">
        <ele>63.4</ele>
        <time>2020-03-26T12:56:08Z</time>
        <extensions><gpxtpx:TrackPointExtension><gpxtpx:hr>141</gpxtpx:hr></gpxtpx:TrackPointExtension></extensions>
      </trkpt>
      <trkpt lat="59.148509" lon="17.4517">
        <ele>63.4</ele>
        <time>2020-03-26T12:56:09Z</time>
        <extensions><gpxtpx:TrackPointExtension><gpxtpx:hr>141</gpxtpx:hr></gpxtpx:TrackPointExtension></extensions>
      </trkpt>
      <trkpt lat="59.148587" lon="17.451651">
        <ele>63.4</ele>
        <time>2020-03-26T12:56:10Z</time>
        <extensions><gpxtpx:TrackPointExtension><gpxtpx:hr>142</gpxtpx:hr></gpxtpx:TrackPointExtension></extensions>
      </trkpt>
      <trkpt lat="59.148666" lon="17.451602">
        <ele>63.2</ele>
        <time>2020-03-26T12:56:11Z</time>
        <extensions><gpxtpx:TrackPointExtension><gpxtpx:hr>141</gpxtpx:hr></gpxtpx:TrackPointExtension></extensions>
      </trkpt>
      <trkpt lat="59.148746" lon="17.451557">
        <ele>62.6</ele>
        <time>2020-03-26T12:56:12Z</time>
        <extensions><gpxtpx:TrackPointExtension><gpxtpx:hr>141</gpxtpx:hr></gpxtpx:TrackPointExtension></extensions>
      </trkpt>
      <trkpt lat="59.148827" lon="17.451513">
        <ele>62.2</ele>
        <time>2020-03-26T12:56:13Z</time>
        <extensions><gpxtpx:TrackPointExtension><gpxtpx:hr>141</gpxtpx:hr></gpxtpx:TrackPointExtension></extensions>
      </trkpt>
      <trkpt lat="59.148908" lon="17.451471">
        <ele>61.8</ele>
        <time>2020-03-26T12:56:14Z</time>
        <extensions><gpxtpx:TrackPointExtension><gpxtpx:hr>141</gpxtpx:hr></gpxtpx:TrackPointExtension></extensions>
      </trkpt>
      <trkpt lat="59.14899" lon="17.451428">
        <ele>61.4</ele>
        <time>2020-03-26T12:56:15Z</time>
        <extensions><gpxtpx:TrackPointExtension><gpxtpx:hr>141</gpxtpx:hr></gpxtpx:TrackPointExtension></extensions>
      </trkpt>
      <trkpt lat="59.149072" lon="17.451388">
        <ele>61.2</ele>
        <time>2020-03-26T12:56:16Z</time>
        <extensions><gpxtpx:TrackPointExtension><gpxtpx:hr>142</gpxtpx:hr></gpxtpx:TrackPointExtension></extensions>
      </trkpt>
      <trkpt lat="59.149154" lon="17.451348">
        <ele>61.2</ele>
        <time>2020-03-26T12:56:17Z</time>
        <extensions><gpxtpx:TrackPointExtension><gpxtpx:hr>142</gpxtpx:hr></gpxtpx:TrackPointExtension></extensions>
      </trkpt>
      <trkpt lat="59.149238" lon="17.451311">
        <ele>61</ele>
        <time>2020-03-26T12:56:18Z</time>
        <extensions><gpxtpx:TrackPointExtension><gpxtpx:hr>142</gpxtpx:hr></gpxtpx:TrackPointExtension></extensions>
      </trkpt>
      <trkpt lat="59.149323" lon="17.45128">
        <ele>61</ele>
        <time>2020-03-26T12:56:19Z</time>
        <extensions><gpxtpx:TrackPointExtension><gpxtpx:hr>142</gpxtpx:hr></gpxtpx:TrackPointExtension></extensions>
      </trkpt>
      <trkpt lat="59.149407" lon="17.45125">
        <ele>61</ele>
        <time>2020-03-26T12:56:20Z</time>
        <extensions><gpxtpx:TrackPointExtension><gpxtpx:hr>142</gpxtpx:hr></gpxtpx:TrackPointExtension></extensions>
      </trkpt>
      <trkpt lat="59.14949" lon="17.451221">
        <ele>60.8</ele>
        <time>2020-03-26T12:56:21Z</time>
        <extensions><gpxtpx:TrackPointExtension><gpxtpx:hr>143</gpxtpx:hr></gpxtpx:TrackPointExtension></extensions>
      </trkpt>
      <trkpt lat="59.149573" lon="17.451194">
        <ele>60.8</ele>
        <time>2020-03-26T12:56:22Z</time>
        <extensions><gpxtpx:TrackPointExtension><gpxtpx:hr>143</gpxtpx:hr></gpxtpx:TrackPointExtension></extensions>
      </trkpt>
      <trkpt lat="59.149654" lon="17.451174">
        <ele>60.8</ele>
        <time>2020-03-26T12:56:23Z</time>
        <extensions><gpxtpx:TrackPointExtension><gpxtpx:hr>143</gpxtpx:hr></gpxtpx:TrackPointExtension></extensions>
      </trkpt>
      <trkpt lat="59.149733" lon="17.451156">
        <ele>60.8</ele>
        <time>2020-03-26T12:56:24Z</time>
        <extensions><gpxtpx:TrackPointExtension><gpxtpx:hr>142</gpxtpx:hr></gpxtpx:TrackPointExtension></extensions>
      </trkpt>
      <trkpt lat="59.149813" lon="17.451141">
        <ele>60.8</ele>
        <time>2020-03-26T12:56:25Z</time>
        <extensions><gpxtpx:TrackPointExtension><gpxtpx:hr>142</gpxtpx:hr></gpxtpx:TrackPointExtension></extensions>
      </trkpt>
      <trkpt lat="59.149893" lon="17.451128">
        <ele>60.6</ele>
        <time>2020-03-26T12:56:26Z</time>
        <extensions><gpxtpx:TrackPointExtension><gpxtpx:hr>141</gpxtpx:hr></gpxtpx:TrackPointExtension></extensions>
      </trkpt>
      <trkpt lat="59.149974" lon="17.451116">
        <ele>60.6</ele>
        <time>2020-03-26T12:56:27Z</time>
        <extensions><gpxtpx:TrackPointExtension><gpxtpx:hr>140</gpxtpx:hr></gpxtpx:TrackPointExtension></extensions>
      </trkpt>
      <trkpt lat="59.150059" lon="17.451107">
        <ele>60.6</ele>
        <time>2020-03-26T12:56:28Z</time>
        <extensions><gpxtpx:TrackPointExtension><gpxtpx:hr>140</gpxtpx:hr></gpxtpx:TrackPointExtension></extensions>
      </trkpt>
      <trkpt lat="59.15014" lon="17.451097">
        <ele>60.4</ele>
        <time>2020-03-26T12:56:29Z</time>
        <extensions><gpxtpx:TrackPointExtension><gpxtpx:hr>140</gpxtpx:hr></gpxtpx:TrackPointExtension></extensions>
      </trkpt>
      <trkpt lat="59.150221" lon="17.451088">
        <ele>60.2</ele>
        <time>2020-03-26T12:56:30Z</time>
        <extensions><gpxtpx:TrackPointExtension><gpxtpx:hr>141</gpxtpx:hr></gpxtpx:TrackPointExtension></extensions>
      </trkpt>
      <trkpt lat="59.150303" lon="17.451078">
        <ele>60.2</ele>
        <time>2020-03-26T12:56:31Z</time>
        <extensions><gpxtpx:TrackPointExtension><gpxtpx:hr>141</gpxtpx:hr></gpxtpx:TrackPointExtension></extensions>
      </trkpt>
      <trkpt lat="59.150385" lon="17.451072">
        <ele>60</ele>
        <time>2020-03-26T12:56:32Z</time>
        <extensions><gpxtpx:TrackPointExtension><gpxtpx:hr>142</gpxtpx:hr></gpxtpx:TrackPointExtension></extensions>
      </trkpt>
      <trkpt lat="59.150467" lon="17.451067">
        <ele>60</ele>
        <time>2020-03-26T12:56:33Z</time>
        <extensions><gpxtpx:TrackPointExtension><gpxtpx:hr>142</gpxtpx:hr></gpxtpx:TrackPointExtension></extensions>
      </trkpt>
      <trkpt lat="59.15055" lon="17.451062">
        <ele>59.6</ele>
        <time>2020-03-26T12:56:34Z</time>
        <extensions><gpxtpx:TrackPointExtension><gpxtpx:hr>143</gpxtpx:hr></gpxtpx:TrackPointExtension></extensions>
      </trkpt>
      <trkpt lat="59.150633" lon="17.451056">
        <ele>59.6</ele>
        <time>2020-03-26T12:56:35Z</time>
        <extensions><gpxtpx:TrackPointExtension><gpxtpx:hr>143</gpxtpx:hr></gpxtpx:TrackPointExtension></extensions>
      </trkpt>
      <trkpt lat="59.150716" lon="17.45105">
        <ele>59.4</ele>
        <time>2020-03-26T12:56:36Z</time>
        <extensions><gpxtpx:TrackPointExtension><gpxtpx:hr>143</gpxtpx:hr></gpxtpx:TrackPointExtension></extensions>
      </trkpt>
      <trkpt lat="59.150801" lon="17.451045">
        <ele>59.2</ele>
        <time>2020-03-26T12:56:37Z</time>
        <extensions><gpxtpx:TrackPointExtension><gpxtpx:hr>143</gpxtpx:hr></gpxtpx:TrackPointExtension></extensions>
      </trkpt>
      <trkpt lat="59.150886" lon="17.45104">
        <ele>59.2</ele>
        <time>2020-03-26T12:56:38Z</time>
        <extensions><gpxtpx:TrackPointExtension><gpxtpx:hr>142</gpxtpx:hr></gpxtpx:TrackPointExtension></extensions>
      </trkpt>
      <trkpt lat="59.150972" lon="17.451034">
        <ele>59</ele>
        <time>2020-03-26T12:56:39Z</time>
        <extensions><gpxtpx:TrackPointExtension><gpxtpx:hr>142</gpxtpx:hr></gpxtpx:TrackPointExtension></extensions>
      </trkpt>
      <trkpt lat="59.15106" lon="17.451027">
        <ele>58.6</ele>
        <time>2020-03-26T12:56:40Z</time>
        <extensions><gpxtpx:TrackPointExtension><gpxtpx:hr>142</gpxtpx:hr></gpxtpx:TrackPointExtension></extensions>
      </trkpt>
      <trkpt lat="59.151148" lon="17.451021">
        <ele>58.4</ele>
        <time>2020-03-26T12:56:41Z</time>
        <extensions><gpxtpx:TrackPointExtension><gpxtpx:hr>143</gpxtpx:hr></gpxtpx:TrackPointExtension></extensions>
      </trkpt>
      <trkpt lat="59.151238" lon="17.451018">
        <ele>58.2</ele>
        <time>2020-03-26T12:56:42Z</time>
        <extensions><gpxtpx:TrackPointExtension><gpxtpx:hr>142</gpxtpx:hr></gpxtpx:TrackPointExtension></extensions>
      </trkpt>
      <trkpt lat="59.151328" lon="17.451013">
        <ele>58.2</ele>
        <time>2020-03-26T12:56:43Z</time>
        <extensions><gpxtpx:TrackPointExtension><gpxtpx:hr>142</gpxtpx:hr></gpxtpx:TrackPointExtension></extensions>
      </trkpt>
      <trkpt lat="59.151419" lon="17.451011">
        <ele>58</ele>
        <time>2020-03-26T12:56:44Z</time>
        <extensions><gpxtpx:TrackPointExtension><gpxtpx:hr>142</gpxtpx:hr></gpxtpx:TrackPointExtension></extensions>
      </trkpt>
      <trkpt lat="59.151512" lon="17.451007">
        <ele>58</ele>
        <time>2020-03-26T12:56:45Z</time>
        <extensions><gpxtpx:TrackPointExtension><gpxtpx:hr>142</gpxtpx:hr></gpxtpx:TrackPointExtension></extensions>
      </trkpt>
      <trkpt lat="59.151605" lon="17.451001">
        <ele>57.8</ele>
        <time>2020-03-26T12:56:46Z</time>
        <extensions><gpxtpx:TrackPointExtension><gpxtpx:hr>142</gpxtpx:hr></gpxtpx:TrackPointExtension></extensions>
      </trkpt>
      <trkpt lat="59.151698" lon="17.450995">
        <ele>57.8</ele>
        <time>2020-03-26T12:56:47Z</time>
        <extensions><gpxtpx:TrackPointExtension><gpxtpx:hr>142</gpxtpx:hr></gpxtpx:TrackPointExtension></extensions>
      </trkpt>
      <trkpt lat="59.151792" lon="17.450987">
        <ele>57.8</ele>
        <time>2020-03-26T12:56:48Z</time>
        <extensions><gpxtpx:TrackPointExtension><gpxtpx:hr>141</gpxtpx:hr></gpxtpx:TrackPointExtension></extensions>
      </trkpt>
      <trkpt lat="59.151888" lon="17.450978">
        <ele>57.8</ele>
        <time>2020-03-26T12:56:49Z</time>
        <extensions><gpxtpx:TrackPointExtension><gpxtpx:hr>141</gpxtpx:hr></gpxtpx:TrackPointExtension></extensions>
      </trkpt>
      <trkpt lat="59.151983" lon="17.450972">
        <ele>57.6</ele>
        <time>2020-03-26T12:56:50Z</time>
        <extensions><gpxtpx:TrackPointExtension><gpxtpx:hr>141</gpxtpx:hr></gpxtpx:TrackPointExtension></extensions>
      </trkpt>
      <trkpt lat="59.152078" lon="17.450964">
        <ele>57.6</ele>
        <time>2020-03-26T12:56:51Z</time>
        <extensions><gpxtpx:TrackPointExtension><gpxtpx:hr>141</gpxtpx:hr></gpxtpx:TrackPointExtension></extensions>
      </trkpt>
      <trkpt lat="59.152175" lon="17.450956">
        <ele>57.4</ele>
        <time>2020-03-26T12:56:52Z</time>
        <extensions><gpxtpx:TrackPointExtension><gpxtpx:hr>141</gpxtpx:hr></gpxtpx:TrackPointExtension></extensions>
      </trkpt>
      <trkpt lat="59.152273" lon="17.450952">
        <ele>57.2</ele>
        <time>2020-03-26T12:56:53Z</time>
        <extensions><gpxtpx:TrackPointExtension><gpxtpx:hr>141</gpxtpx:hr></gpxtpx:TrackPointExtension></extensions>
      </trkpt>
      <trkpt lat="59.15237" lon="17.450948">
        <ele>57.4</ele>
        <time>2020-03-26T12:56:54Z</time>
        <extensions><gpxtpx:TrackPointExtension><gpxtpx:hr>141</gpxtpx:hr></gpxtpx:TrackPointExtension></extensions>
      </trkpt>
      <trkpt lat="59.152466" lon="17.450945">
        <ele>57.2</ele>
        <time>2020-03-26T12:56:55Z</time>
        <extensions><gpxtpx:TrackPointExtension><gpxtpx:hr>141</gpxtpx:hr></gpxtpx:TrackPointExtension></extensions>
      </trkpt>
      <trkpt lat="59.152562" lon="17.450942">
        <ele>57</ele>
        <time>2020-03-26T12:56:56Z</time>
        <extensions><gpxtpx:TrackPointExtension><gpxtpx:hr>141</gpxtpx:hr></gpxtpx:TrackPointExtension></extensions>
      </trkpt>
      <trkpt lat="59.152656" lon="17.450938">
        <ele>56.8</ele>
        <time>2020-03-26T12:56:57Z</time>
        <extensions><gpxtpx:TrackPointExtension><gpxtpx:hr>141</gpxtpx:hr></gpxtpx:TrackPointExtension></extensions>
      </trkpt>
      <trkpt lat="59.152749" lon="17.450934">
        <ele>56.6</ele>
        <time>2020-03-26T12:56:58Z</time>
        <extensions><gpxtpx:TrackPointExtension><gpxtpx:hr>141</gpxtpx:hr></gpxtpx:TrackPointExtension></extensions>
      </trkpt>
      <trkpt lat="59.152841" lon="17.450932">
        <ele>56.4</ele>
        <time>2020-03-26T12:56:59Z</time>
        <extensions><gpxtpx:TrackPointExtension><gpxtpx:hr>140</gpxtpx:hr></gpxtpx:TrackPointExtension></extensions>
      </trkpt>
      <trkpt lat="59.152934" lon="17.450929">
        <ele>56.4</ele>
        <time>2020-03-26T12:57:00Z</time>
        <extensions><gpxtpx:TrackPointExtension><gpxtpx:hr>140</gpxtpx:hr></gpxtpx:TrackPointExtension></extensions>
      </trkpt>
      <trkpt lat="59.153028" lon="17.450925">
        <ele>56</ele>
        <time>2020-03-26T12:57:01Z</time>
        <extensions><gpxtpx:TrackPointExtension><gpxtpx:hr>139</gpxtpx:hr></gpxtpx:TrackPointExtension></extensions>
      </trkpt>
      <trkpt lat="59.153121" lon="17.450919">
        <ele>56</ele>
        <time>2020-03-26T12:57:02Z</time>
        <extensions><gpxtpx:TrackPointExtension><gpxtpx:hr>138</gpxtpx:hr></gpxtpx:TrackPointExtension></extensions>
      </trkpt>
      <trkpt lat="59.153213" lon="17.450915">
        <ele>55.8</ele>
        <time>2020-03-26T12:57:03Z</time>
        <extensions><gpxtpx:TrackPointExtension><gpxtpx:hr>138</gpxtpx:hr></gpxtpx:TrackPointExtension></extensions>
      </trkpt>
      <trkpt lat="59.153306" lon="17.450909">
        <ele>55.8</ele>
        <time>2020-03-26T12:57:04Z</time>
        <extensions><gpxtpx:TrackPointExtension><gpxtpx:hr>138</gpxtpx:hr></gpxtpx:TrackPointExtension></extensions>
      </trkpt>
      <trkpt lat="59.153401" lon="17.450902">
        <ele>55.6</ele>
        <time>2020-03-26T12:57:05Z</time>
        <extensions><gpxtpx:TrackPointExtension><gpxtpx:hr>138</gpxtpx:hr></gpxtpx:TrackPointExtension></extensions>
      </trkpt>
      <trkpt lat="59.153497" lon="17.450898">
        <ele>55.6</ele>
        <time>2020-03-26T12:57:06Z</time>
        <extensions><gpxtpx:TrackPointExtension><gpxtpx:hr>138</gpxtpx:hr></gpxtpx:TrackPointExtension></extensions>
      </trkpt>
      <trkpt lat="59.153591" lon="17.450895">
        <ele>55.4</ele>
        <time>2020-03-26T12:57:07Z</time>
        <extensions><gpxtpx:TrackPointExtension><gpxtpx:hr>138</gpxtpx:hr></gpxtpx:TrackPointExtension></extensions>
      </trkpt>
      <trkpt lat="59.153685" lon="17.450893">
        <ele>55.2</ele>
        <time>2020-03-26T12:57:08Z</time>
        <extensions><gpxtpx:TrackPointExtension><gpxtpx:hr>138</gpxtpx:hr></gpxtpx:TrackPointExtension></extensions>
      </trkpt>
      <trkpt lat="59.15378" lon="17.450891">
        <ele>54.8</ele>
        <time>2020-03-26T12:57:09Z</time>
        <extensions><gpxtpx:TrackPointExtension><gpxtpx:hr>138</gpxtpx:hr></gpxtpx:TrackPointExtension></extensions>
      </trkpt>
      <trkpt lat="59.153876" lon="17.450885">
        <ele>54.6</ele>
        <time>2020-03-26T12:57:10Z</time>
        <extensions><gpxtpx:TrackPointExtension><gpxtpx:hr>138</gpxtpx:hr></gpxtpx:TrackPointExtension></extensions>
      </trkpt>
      <trkpt lat="59.153975" lon="17.450874">
        <ele>54.2</ele>
        <time>2020-03-26T12:57:11Z</time>
        <extensions><gpxtpx:TrackPointExtension><gpxtpx:hr>138</gpxtpx:hr></gpxtpx:TrackPointExtension></extensions>
      </trkpt>
      <trkpt lat="59.154071" lon="17.450868">
        <ele>54</ele>
        <time>2020-03-26T12:57:12Z</time>
        <extensions><gpxtpx:TrackPointExtension><gpxtpx:hr>138</gpxtpx:hr></gpxtpx:TrackPointExtension></extensions>
      </trkpt>
      <trkpt lat="59.15417" lon="17.450862">
        <ele>53.8</ele>
        <time>2020-03-26T12:57:13Z</time>
        <extensions><gpxtpx:TrackPointExtension><gpxtpx:hr>137</gpxtpx:hr></gpxtpx:TrackPointExtension></extensions>
      </trkpt>
      <trkpt lat="59.15427" lon="17.450856">
        <ele>53.8</ele>
        <time>2020-03-26T12:57:14Z</time>
        <extensions><gpxtpx:TrackPointExtension><gpxtpx:hr>137</gpxtpx:hr></gpxtpx:TrackPointExtension></extensions>
      </trkpt>
      <trkpt lat="59.154369" lon="17.45085">
        <ele>53.8</ele>
        <time>2020-03-26T12:57:15Z</time>
        <extensions><gpxtpx:TrackPointExtension><gpxtpx:hr>138</gpxtpx:hr></gpxtpx:TrackPointExtension></extensions>
      </trkpt>
      <trkpt lat="59.154468" lon="17.450845">
        <ele>53.6</ele>
        <time>2020-03-26T12:57:16Z</time>
        <extensions><gpxtpx:TrackPointExtension><gpxtpx:hr>138</gpxtpx:hr></gpxtpx:TrackPointExtension></extensions>
      </trkpt>
      <trkpt lat="59.154567" lon="17.450841">
        <ele>53.6</ele>
        <time>2020-03-26T12:57:17Z</time>
        <extensions><gpxtpx:TrackPointExtension><gpxtpx:hr>138</gpxtpx:hr></gpxtpx:TrackPointExtension></extensions>
      </trkpt>
      <trkpt lat="59.154667" lon="17.450835">
        <ele>53.6</ele>
        <time>2020-03-26T12:57:18Z</time>
        <extensions><gpxtpx:TrackPointExtension><gpxtpx:hr>138</gpxtpx:hr></gpxtpx:TrackPointExtension></extensions>
      </trkpt>
      <trkpt lat="59.154767" lon="17.450825">
        <ele>53.4</ele>
        <time>2020-03-26T12:57:19Z</time>
        <extensions><gpxtpx:TrackPointExtension><gpxtpx:hr>139</gpxtpx:hr></gpxtpx:TrackPointExtension></extensions>
      </trkpt>
      <trkpt lat="59.154867" lon="17.450815">
        <ele>53.4</ele>
        <time>2020-03-26T12:57:20Z</time>
        <extensions><gpxtpx:TrackPointExtension><gpxtpx:hr>138</gpxtpx:hr></gpxtpx:TrackPointExtension></extensions>
      </trkpt>
      <trkpt lat="59.154967" lon="17.450804">
        <ele>53.2</ele>
        <time>2020-03-26T12:57:21Z</time>
        <extensions><gpxtpx:TrackPointExtension><gpxtpx:hr>138</gpxtpx:hr></gpxtpx:TrackPointExtension></extensions>
      </trkpt>
      <trkpt lat="59.155066" lon="17.450792">
        <ele>53</ele>
        <time>2020-03-26T12:57:22Z</time>
        <extensions><gpxtpx:TrackPointExtension><gpxtpx:hr>138</gpxtpx:hr></gpxtpx:TrackPointExtension></extensions>
      </trkpt>
      <trkpt lat="59.155166" lon="17.450779">
        <ele>52.8</ele>
        <time>2020-03-26T12:57:23Z</time>
        <extensions><gpxtpx:TrackPointExtension><gpxtpx:hr>138</gpxtpx:hr></gpxtpx:TrackPointExtension></extensions>
      </trkpt>
      <trkpt lat="59.155266" lon="17.450766">
        <ele>52.6</ele>
        <time>2020-03-26T12:57:24Z</time>
        <extensions><gpxtpx:TrackPointExtension><gpxtpx:hr>138</gpxtpx:hr></gpxtpx:TrackPointExtension></extensions>
      </trkpt>
      <trkpt lat="59.155365" lon="17.45075">
        <ele>52.2</ele>
        <time>2020-03-26T12:57:25Z</time>
        <extensions><gpxtpx:TrackPointExtension><gpxtpx:hr>138</gpxtpx:hr></gpxtpx:TrackPointExtension></extensions>
      </trkpt>
      <trkpt lat="59.155463" lon="17.450732">
        <ele>52</ele>
        <time>2020-03-26T12:57:26Z</time>
        <extensions><gpxtpx:TrackPointExtension><gpxtpx:hr>138</gpxtpx:hr></gpxtpx:TrackPointExtension></extensions>
      </trkpt>
      <trkpt lat="59.155562" lon="17.450716">
        <ele>51.6</ele>
        <time>2020-03-26T12:57:27Z</time>
        <extensions><gpxtpx:TrackPointExtension><gpxtpx:hr>139</gpxtpx:hr></gpxtpx:TrackPointExtension></extensions>
      </trkpt>
      <trkpt lat="59.15566" lon="17.450701">
        <ele>51.4</ele>
        <time>2020-03-26T12:57:28Z</time>
        <extensions><gpxtpx:TrackPointExtension><gpxtpx:hr>139</gpxtpx:hr></gpxtpx:TrackPointExtension></extensions>
      </trkpt>
      <trkpt lat="59.155759" lon="17.450688">
        <ele>51.2</ele>
        <time>2020-03-26T12:57:29Z</time>
        <extensions><gpxtpx:TrackPointExtension><gpxtpx:hr>139</gpxtpx:hr></gpxtpx:TrackPointExtension></extensions>
      </trkpt>
      <trkpt lat="59.155857" lon="17.450671">
        <ele>51</ele>
        <time>2020-03-26T12:57:30Z</time>
        <extensions><gpxtpx:TrackPointExtension><gpxtpx:hr>139</gpxtpx:hr></gpxtpx:TrackPointExtension></extensions>
      </trkpt>
      <trkpt lat="59.155955" lon="17.450655">
        <ele>50.8</ele>
        <time>2020-03-26T12:57:31Z</time>
        <extensions><gpxtpx:TrackPointExtension><gpxtpx:hr>139</gpxtpx:hr></gpxtpx:TrackPointExtension></extensions>
      </trkpt>
      <trkpt lat="59.156052" lon="17.450636">
        <ele>50.6</ele>
        <time>2020-03-26T12:57:32Z</time>
        <extensions><gpxtpx:TrackPointExtension><gpxtpx:hr>139</gpxtpx:hr></gpxtpx:TrackPointExtension></extensions>
      </trkpt>
      <trkpt lat="59.156147" lon="17.450614">
        <ele>50.4</ele>
        <time>2020-03-26T12:57:33Z</time>
        <extensions><gpxtpx:TrackPointExtension><gpxtpx:hr>139</gpxtpx:hr></gpxtpx:TrackPointExtension></extensions>
      </trkpt>
      <trkpt lat="59.156242" lon="17.450589">
        <ele>50.2</ele>
        <time>2020-03-26T12:57:34Z</time>
        <extensions><gpxtpx:TrackPointExtension><gpxtpx:hr>140</gpxtpx:hr></gpxtpx:TrackPointExtension></extensions>
      </trkpt>
      <trkpt lat="59.156338" lon="17.450562">
        <ele>50</ele>
        <time>2020-03-26T12:57:35Z</time>
        <extensions><gpxtpx:TrackPointExtension><gpxtpx:hr>140</gpxtpx:hr></gpxtpx:TrackPointExtension></extensions>
      </trkpt>
      <trkpt lat="59.156435" lon="17.450536">
        <ele>50</ele>
        <time>2020-03-26T12:57:36Z</time>
        <extensions><gpxtpx:TrackPointExtension><gpxtpx:hr>141</gpxtpx:hr></gpxtpx:TrackPointExtension></extensions>
      </trkpt>
      <trkpt lat="59.156532" lon="17.450512">
        <ele>49.8</ele>
        <time>2020-03-26T12:57:37Z</time>
        <extensions><gpxtpx:TrackPointExtension><gpxtpx:hr>141</gpxtpx:hr></gpxtpx:TrackPointExtension></extensions>
      </trkpt>
      <trkpt lat="59.156628" lon="17.450488">
        <ele>49.8</ele>
        <time>2020-03-26T12:57:38Z</time>
        <extensions><gpxtpx:TrackPointExtension><gpxtpx:hr>142</gpxtpx:hr></gpxtpx:TrackPointExtension></extensions>
      </trkpt>
      <trkpt lat="59.156725" lon="17.450464">
        <ele>49.4</ele>
        <time>2020-03-26T12:57:39Z</time>
        <extensions><gpxtpx:TrackPointExtension><gpxtpx:hr>142</gpxtpx:hr></gpxtpx:TrackPointExtension></extensions>
      </trkpt>
      <trkpt lat="59.156821" lon="17.450438">
        <ele>49.4</ele>
        <time>2020-03-26T12:57:40Z</time>
        <extensions><gpxtpx:TrackPointExtension><gpxtpx:hr>142</gpxtpx:hr></gpxtpx:TrackPointExtension></extensions>
      </trkpt>
      <trkpt lat="59.156917" lon="17.450411">
        <ele>49</ele>
        <time>2020-03-26T12:57:41Z</time>
        <extensions><gpxtpx:TrackPointExtension><gpxtpx:hr>143</gpxtpx:hr></gpxtpx:TrackPointExtension></extensions>
      </trkpt>
      <trkpt lat="59.157012" lon="17.450382">
        <ele>48.8</ele>
        <time>2020-03-26T12:57:42Z</time>
        <extensions><gpxtpx:TrackPointExtension><gpxtpx:hr>143</gpxtpx:hr></gpxtpx:TrackPointExtension></extensions>
      </trkpt>
      <trkpt lat="59.157108" lon="17.450349">
        <ele>48.6</ele>
        <time>2020-03-26T12:57:43Z</time>
        <extensions><gpxtpx:TrackPointExtension><gpxtpx:hr>143</gpxtpx:hr></gpxtpx:TrackPointExtension></extensions>
      </trkpt>
      <trkpt lat="59.157209" lon="17.450313">
        <ele>48.6</ele>
        <time>2020-03-26T12:57:44Z</time>
        <extensions><gpxtpx:TrackPointExtension><gpxtpx:hr>143</gpxtpx:hr></gpxtpx:TrackPointExtension></extensions>
      </trkpt>
      <trkpt lat="59.157313" lon="17.450278">
        <ele>48.2</ele>
        <time>2020-03-26T12:57:45Z</time>
        <extensions><gpxtpx:TrackPointExtension><gpxtpx:hr>144</gpxtpx:hr></gpxtpx:TrackPointExtension></extensions>
      </trkpt>
      <trkpt lat="59.157413" lon="17.450242">
        <ele>48.2</ele>
        <time>2020-03-26T12:57:46Z</time>
        <extensions><gpxtpx:TrackPointExtension><gpxtpx:hr>144</gpxtpx:hr></gpxtpx:TrackPointExtension></extensions>
      </trkpt>
      <trkpt lat="59.157515" lon="17.450205">
        <ele>48.2</ele>
        <time>2020-03-26T12:57:47Z</time>
        <extensions><gpxtpx:TrackPointExtension><gpxtpx:hr>145</gpxtpx:hr></gpxtpx:TrackPointExtension></extensions>
      </trkpt>
      <trkpt lat="59.157614" lon="17.450171">
        <ele>48</ele>
        <time>2020-03-26T12:57:48Z</time>
        <extensions><gpxtpx:TrackPointExtension><gpxtpx:hr>145</gpxtpx:hr></gpxtpx:TrackPointExtension></extensions>
      </trkpt>
      <trkpt lat="59.157714" lon="17.450136">
        <ele>48</ele>
        <time>2020-03-26T12:57:49Z</time>
        <extensions><gpxtpx:TrackPointExtension><gpxtpx:hr>146</gpxtpx:hr></gpxtpx:TrackPointExtension></extensions>
      </trkpt>
      <trkpt lat="59.157812" lon="17.450099">
        <ele>47.8</ele>
        <time>2020-03-26T12:57:50Z</time>
        <extensions><gpxtpx:TrackPointExtension><gpxtpx:hr>146</gpxtpx:hr></gpxtpx:TrackPointExtension></extensions>
      </trkpt>
      <trkpt lat="59.157911" lon="17.450063">
        <ele>47.8</ele>
        <time>2020-03-26T12:57:51Z</time>
        <extensions><gpxtpx:TrackPointExtension><gpxtpx:hr>147</gpxtpx:hr></gpxtpx:TrackPointExtension></extensions>
      </trkpt>
      <trkpt lat="59.158008" lon="17.450026">
        <ele>47.6</ele>
        <time>2020-03-26T12:57:52Z</time>
        <extensions><gpxtpx:TrackPointExtension><gpxtpx:hr>148</gpxtpx:hr></gpxtpx:TrackPointExtension></extensions>
      </trkpt>
      <trkpt lat="59.158104" lon="17.449988">
        <ele>47.6</ele>
        <time>2020-03-26T12:57:53Z</time>
        <extensions><gpxtpx:TrackPointExtension><gpxtpx:hr>148</gpxtpx:hr></gpxtpx:TrackPointExtension></extensions>
      </trkpt>
      <trkpt lat="59.158201" lon="17.449948">
        <ele>47.4</ele>
        <time>2020-03-26T12:57:54Z</time>
        <extensions><gpxtpx:TrackPointExtension><gpxtpx:hr>148</gpxtpx:hr></gpxtpx:TrackPointExtension></extensions>
      </trkpt>
      <trkpt lat="59.158298" lon="17.449908">
        <ele>47.2</ele>
        <time>2020-03-26T12:57:55Z</time>
        <extensions><gpxtpx:TrackPointExtension><gpxtpx:hr>148</gpxtpx:hr></gpxtpx:TrackPointExtension></extensions>
      </trkpt>
      <trkpt lat="59.158394" lon="17.449866">
        <ele>47.2</ele>
        <time>2020-03-26T12:57:56Z</time>
        <extensions><gpxtpx:TrackPointExtension><gpxtpx:hr>148</gpxtpx:hr></gpxtpx:TrackPointExtension></extensions>
      </trkpt>
      <trkpt lat="59.158489" lon="17.449822">
        <ele>47.4</ele>
        <time>2020-03-26T12:57:57Z</time>
        <extensions><gpxtpx:TrackPointExtension><gpxtpx:hr>148</gpxtpx:hr></gpxtpx:TrackPointExtension></extensions>
      </trkpt>
      <trkpt lat="59.158583" lon="17.449778">
        <ele>47</ele>
        <time>2020-03-26T12:57:58Z</time>
        <extensions><gpxtpx:TrackPointExtension><gpxtpx:hr>148</gpxtpx:hr></gpxtpx:TrackPointExtension></extensions>
      </trkpt>
      <trkpt lat="59.158678" lon="17.449732">
        <ele>46.6</ele>
        <time>2020-03-26T12:57:59Z</time>
        <extensions><gpxtpx:TrackPointExtension><gpxtpx:hr>147</gpxtpx:hr></gpxtpx:TrackPointExtension></extensions>
      </trkpt>
      <trkpt lat="59.158772" lon="17.449687">
        <ele>46.2</ele>
        <time>2020-03-26T12:58:00Z</time>
        <extensions><gpxtpx:TrackPointExtension><gpxtpx:hr>147</gpxtpx:hr></gpxtpx:TrackPointExtension></extensions>
      </trkpt>
      <trkpt lat="59.158865" lon="17.449644">
        <ele>46</ele>
        <time>2020-03-26T12:58:01Z</time>
        <extensions><gpxtpx:TrackPointExtension><gpxtpx:hr>147</gpxtpx:hr></gpxtpx:TrackPointExtension></extensions>
      </trkpt>
      <trkpt lat="59.158959" lon="17.449599">
        <ele>45.6</ele>
        <time>2020-03-26T12:58:02Z</time>
        <extensions><gpxtpx:TrackPointExtension><gpxtpx:hr>146</gpxtpx:hr></gpxtpx:TrackPointExtension></extensions>
      </trkpt>
      <trkpt lat="59.159052" lon="17.449554">
        <ele>45.2</ele>
        <time>2020-03-26T12:58:03Z</time>
        <extensions><gpxtpx:TrackPointExtension><gpxtpx:hr>146</gpxtpx:hr></gpxtpx:TrackPointExtension></extensions>
      </trkpt>
      <trkpt lat="59.159145" lon="17.44951">
        <ele>45</ele>
        <time>2020-03-26T12:58:04Z</time>
        <extensions><gpxtpx:TrackPointExtension><gpxtpx:hr>145</gpxtpx:hr></gpxtpx:TrackPointExtension></extensions>
      </trkpt>
      <trkpt lat="59.159239" lon="17.449466">
        <ele>44.8</ele>
        <time>2020-03-26T12:58:05Z</time>
        <extensions><gpxtpx:TrackPointExtension><gpxtpx:hr>145</gpxtpx:hr></gpxtpx:TrackPointExtension></extensions>
      </trkpt>
      <trkpt lat="59.159332" lon="17.449424">
        <ele>44.8</ele>
        <time>2020-03-26T12:58:06Z</time>
        <extensions><gpxtpx:TrackPointExtension><gpxtpx:hr>145</gpxtpx:hr></gpxtpx:TrackPointExtension></extensions>
      </trkpt>
      <trkpt lat="59.159424" lon="17.449383">
        <ele>44.8</ele>
        <time>2020-03-26T12:58:07Z</time>
        <extensions><gpxtpx:TrackPointExtension><gpxtpx:hr>145</gpxtpx:hr></gpxtpx:TrackPointExtension></extensions>
      </trkpt>
      <trkpt lat="59.159517" lon="17.449342">
        <ele>44.6</ele>
        <time>2020-03-26T12:58:08Z</time>
        <extensions><gpxtpx:TrackPointExtension><gpxtpx:hr>145</gpxtpx:hr></gpxtpx:TrackPointExtension></extensions>
      </trkpt>
      <trkpt lat="59.159609" lon="17.4493">
        <ele>44.6</ele>
        <time>2020-03-26T12:58:09Z</time>
        <extensions><gpxtpx:TrackPointExtension><gpxtpx:hr>144</gpxtpx:hr></gpxtpx:TrackPointExtension></extensions>
      </trkpt>
      <trkpt lat="59.159699" lon="17.449258">
        <ele>44.6</ele>
        <time>2020-03-26T12:58:10Z</time>
        <extensions><gpxtpx:TrackPointExtension><gpxtpx:hr>144</gpxtpx:hr></gpxtpx:TrackPointExtension></extensions>
      </trkpt>
      <trkpt lat="59.159793" lon="17.44922">
        <ele>44.6</ele>
        <time>2020-03-26T12:58:11Z</time>
        <extensions><gpxtpx:TrackPointExtension><gpxtpx:hr>144</gpxtpx:hr></gpxtpx:TrackPointExtension></extensions>
      </trkpt>
      <trkpt lat="59.159883" lon="17.44918">
        <ele>44.4</ele>
        <time>2020-03-26T12:58:12Z</time>
        <extensions><gpxtpx:TrackPointExtension><gpxtpx:hr>143</gpxtpx:hr></gpxtpx:TrackPointExtension></extensions>
      </trkpt>
      <trkpt lat="59.159972" lon="17.449139">
        <ele>44.4</ele>
        <time>2020-03-26T12:58:13Z</time>
        <extensions><gpxtpx:TrackPointExtension><gpxtpx:hr>143</gpxtpx:hr></gpxtpx:TrackPointExtension></extensions>
      </trkpt>
      <trkpt lat="59.160061" lon="17.449103">
        <ele>44.2</ele>
        <time>2020-03-26T12:58:14Z</time>
        <extensions><gpxtpx:TrackPointExtension><gpxtpx:hr>143</gpxtpx:hr></gpxtpx:TrackPointExtension></extensions>
      </trkpt>
      <trkpt lat="59.160148" lon="17.44907">
        <ele>44</ele>
        <time>2020-03-26T12:58:15Z</time>
        <extensions><gpxtpx:TrackPointExtension><gpxtpx:hr>144</gpxtpx:hr></gpxtpx:TrackPointExtension></extensions>
      </trkpt>
      <trkpt lat="59.160236" lon="17.449036">
        <ele>43.8</ele>
        <time>2020-03-26T12:58:16Z</time>
        <extensions><gpxtpx:TrackPointExtension><gpxtpx:hr>144</gpxtpx:hr></gpxtpx:TrackPointExtension></extensions>
      </trkpt>
      <trkpt lat="59.160324" lon="17.449001">
        <ele>43.8</ele>
        <time>2020-03-26T12:58:17Z</time>
        <extensions><gpxtpx:TrackPointExtension><gpxtpx:hr>144</gpxtpx:hr></gpxtpx:TrackPointExtension></extensions>
      </trkpt>
      <trkpt lat="59.160411" lon="17.448968">
        <ele>43.8</ele>
        <time>2020-03-26T12:58:18Z</time>
        <extensions><gpxtpx:TrackPointExtension><gpxtpx:hr>145</gpxtpx:hr></gpxtpx:TrackPointExtension></extensions>
      </trkpt>
      <trkpt lat="59.160498" lon="17.448938">
        <ele>43.8</ele>
        <time>2020-03-26T12:58:19Z</time>
        <extensions><gpxtpx:TrackPointExtension><gpxtpx:hr>145</gpxtpx:hr></gpxtpx:TrackPointExtension></extensions>
      </trkpt>
      <trkpt lat="59.160581" lon="17.448909">
        <ele>43.8</ele>
        <time>2020-03-26T12:58:20Z</time>
        <extensions><gpxtpx:TrackPointExtension><gpxtpx:hr>145</gpxtpx:hr></gpxtpx:TrackPointExtension></extensions>
      </trkpt>
      <trkpt lat="59.160664" lon="17.44888">
        <ele>43.8</ele>
        <time>2020-03-26T12:58:21Z</time>
        <extensions><gpxtpx:TrackPointExtension><gpxtpx:hr>146</gpxtpx:hr></gpxtpx:TrackPointExtension></extensions>
      </trkpt>
      <trkpt lat="59.160747" lon="17.448851">
        <ele>43.8</ele>
        <time>2020-03-26T12:58:22Z</time>
        <extensions><gpxtpx:TrackPointExtension><gpxtpx:hr>146</gpxtpx:hr></gpxtpx:TrackPointExtension></extensions>
      </trkpt>
      <trkpt lat="59.160831" lon="17.448824">
        <ele>43.8</ele>
        <time>2020-03-26T12:58:23Z</time>
        <extensions><gpxtpx:TrackPointExtension><gpxtpx:hr>146</gpxtpx:hr></gpxtpx:TrackPointExtension></extensions>
      </trkpt>
      <trkpt lat="59.160915" lon="17.4488">
        <ele>43.8</ele>
        <time>2020-03-26T12:58:24Z</time>
        <extensions><gpxtpx:TrackPointExtension><gpxtpx:hr>146</gpxtpx:hr></gpxtpx:TrackPointExtension></extensions>
      </trkpt>
      <trkpt lat="59.160998" lon="17.448774">
        <ele>43.8</ele>
        <time>2020-03-26T12:58:25Z</time>
        <extensions><gpxtpx:TrackPointExtension><gpxtpx:hr>146</gpxtpx:hr></gpxtpx:TrackPointExtension></extensions>
      </trkpt>
      <trkpt lat="59.16108" lon="17.44875">
        <ele>43.8</ele>
        <time>2020-03-26T12:58:26Z</time>
        <extensions><gpxtpx:TrackPointExtension><gpxtpx:hr>146</gpxtpx:hr></gpxtpx:TrackPointExtension></extensions>
      </trkpt>
      <trkpt lat="59.161159" lon="17.448731">
        <ele>43.8</ele>
        <time>2020-03-26T12:58:27Z</time>
        <extensions><gpxtpx:TrackPointExtension><gpxtpx:hr>146</gpxtpx:hr></gpxtpx:TrackPointExtension></extensions>
      </trkpt>
      <trkpt lat="59.161238" lon="17.448713">
        <ele>43.8</ele>
        <time>2020-03-26T12:58:28Z</time>
        <extensions><gpxtpx:TrackPointExtension><gpxtpx:hr>146</gpxtpx:hr></gpxtpx:TrackPointExtension></extensions>
      </trkpt>
      <trkpt lat="59.161314" lon="17.44869">
        <ele>43.8</ele>
        <time>2020-03-26T12:58:29Z</time>
        <extensions><gpxtpx:TrackPointExtension><gpxtpx:hr>147</gpxtpx:hr></gpxtpx:TrackPointExtension></extensions>
      </trkpt>
      <trkpt lat="59.161393" lon="17.448666">
        <ele>43.8</ele>
        <time>2020-03-26T12:58:30Z</time>
        <extensions><gpxtpx:TrackPointExtension><gpxtpx:hr>146</gpxtpx:hr></gpxtpx:TrackPointExtension></extensions>
      </trkpt>
      <trkpt lat="59.16147" lon="17.448644">
        <ele>43.8</ele>
        <time>2020-03-26T12:58:31Z</time>
        <extensions><gpxtpx:TrackPointExtension><gpxtpx:hr>146</gpxtpx:hr></gpxtpx:TrackPointExtension></extensions>
      </trkpt>
      <trkpt lat="59.161549" lon="17.448627">
        <ele>44</ele>
        <time>2020-03-26T12:58:32Z</time>
        <extensions><gpxtpx:TrackPointExtension><gpxtpx:hr>146</gpxtpx:hr></gpxtpx:TrackPointExtension></extensions>
      </trkpt>
      <trkpt lat="59.161627" lon="17.448612">
        <ele>44</ele>
        <time>2020-03-26T12:58:33Z</time>
        <extensions><gpxtpx:TrackPointExtension><gpxtpx:hr>145</gpxtpx:hr></gpxtpx:TrackPointExtension></extensions>
      </trkpt>
      <trkpt lat="59.161703" lon="17.448596">
        <ele>44</ele>
        <time>2020-03-26T12:58:34Z</time>
        <extensions><gpxtpx:TrackPointExtension><gpxtpx:hr>145</gpxtpx:hr></gpxtpx:TrackPointExtension></extensions>
      </trkpt>
      <trkpt lat="59.16178" lon="17.448578">
        <ele>44.2</ele>
        <time>2020-03-26T12:58:35Z</time>
        <extensions><gpxtpx:TrackPointExtension><gpxtpx:hr>145</gpxtpx:hr></gpxtpx:TrackPointExtension></extensions>
      </trkpt>
      <trkpt lat="59.161857" lon="17.44856">
        <ele>44.2</ele>
        <time>2020-03-26T12:58:36Z</time>
        <extensions><gpxtpx:TrackPointExtension><gpxtpx:hr>145</gpxtpx:hr></gpxtpx:TrackPointExtension></extensions>
      </trkpt>
      <trkpt lat="59.161933" lon="17.448539">
        <ele>44.2</ele>
        <time>2020-03-26T12:58:37Z</time>
        <extensions><gpxtpx:TrackPointExtension><gpxtpx:hr>145</gpxtpx:hr></gpxtpx:TrackPointExtension></extensions>
      </trkpt>
      <trkpt lat="59.162009" lon="17.448523">
        <ele>44.2</ele>
        <time>2020-03-26T12:58:38Z</time>
        <extensions><gpxtpx:TrackPointExtension><gpxtpx:hr>145</gpxtpx:hr></gpxtpx:TrackPointExtension></extensions>
      </trkpt>
      <trkpt lat="59.162083" lon="17.448511">
        <ele>44.4</ele>
        <time>2020-03-26T12:58:39Z</time>
        <extensions><gpxtpx:TrackPointExtension><gpxtpx:hr>145</gpxtpx:hr></gpxtpx:TrackPointExtension></extensions>
      </trkpt>
      <trkpt lat="59.162161" lon="17.448497">
        <ele>44.4</ele>
        <time>2020-03-26T12:58:40Z</time>
        <extensions><gpxtpx:TrackPointExtension><gpxtpx:hr>145</gpxtpx:hr></gpxtpx:TrackPointExtension></extensions>
      </trkpt>
      <trkpt lat="59.162239" lon="17.448481">
        <ele>44.6</ele>
        <time>2020-03-26T12:58:41Z</time>
        <extensions><gpxtpx:TrackPointExtension><gpxtpx:hr>145</gpxtpx:hr></gpxtpx:TrackPointExtension></extensions>
      </trkpt>
      <trkpt lat="59.162317" lon="17.448465">
        <ele>44.6</ele>
        <time>2020-03-26T12:58:42Z</time>
        <extensions><gpxtpx:TrackPointExtension><gpxtpx:hr>146</gpxtpx:hr></gpxtpx:TrackPointExtension></extensions>
      </trkpt>
      <trkpt lat="59.16239" lon="17.448448">
        <ele>44.8</ele>
        <time>2020-03-26T12:58:43Z</time>
        <extensions><gpxtpx:TrackPointExtension><gpxtpx:hr>147</gpxtpx:hr></gpxtpx:TrackPointExtension></extensions>
      </trkpt>
      <trkpt lat="59.162464" lon="17.448431">
        <ele>44.8</ele>
        <time>2020-03-26T12:58:44Z</time>
        <extensions><gpxtpx:TrackPointExtension><gpxtpx:hr>148</gpxtpx:hr></gpxtpx:TrackPointExtension></extensions>
      </trkpt>
      <trkpt lat="59.162534" lon="17.448418">
        <ele>45</ele>
        <time>2020-03-26T12:58:45Z</time>
        <extensions><gpxtpx:TrackPointExtension><gpxtpx:hr>149</gpxtpx:hr></gpxtpx:TrackPointExtension></extensions>
      </trkpt>
      <trkpt lat="59.162601" lon="17.448404">
        <ele>45</ele>
        <time>2020-03-26T12:58:46Z</time>
        <extensions><gpxtpx:TrackPointExtension><gpxtpx:hr>149</gpxtpx:hr></gpxtpx:TrackPointExtension></extensions>
      </trkpt>
      <trkpt lat="59.162667" lon="17.448391">
        <ele>45</ele>
        <time>2020-03-26T12:58:47Z</time>
        <extensions><gpxtpx:TrackPointExtension><gpxtpx:hr>150</gpxtpx:hr></gpxtpx:TrackPointExtension></extensions>
      </trkpt>
      <trkpt lat="59.162734" lon="17.448381">
        <ele>45.2</ele>
        <time>2020-03-26T12:58:48Z</time>
        <extensions><gpxtpx:TrackPointExtension><gpxtpx:hr>150</gpxtpx:hr></gpxtpx:TrackPointExtension></extensions>
      </trkpt>
      <trkpt lat="59.162801" lon="17.448369">
        <ele>45.2</ele>
        <time>2020-03-26T12:58:49Z</time>
        <extensions><gpxtpx:TrackPointExtension><gpxtpx:hr>150</gpxtpx:hr></gpxtpx:TrackPointExtension></extensions>
      </trkpt>
      <trkpt lat="59.162865" lon="17.448358">
        <ele>45.2</ele>
        <time>2020-03-26T12:58:50Z</time>
        <extensions><gpxtpx:TrackPointExtension><gpxtpx:hr>151</gpxtpx:hr></gpxtpx:TrackPointExtension></extensions>
      </trkpt>
      <trkpt lat="59.162925" lon="17.448353">
        <ele>45.4</ele>
        <time>2020-03-26T12:58:51Z</time>
        <extensions><gpxtpx:TrackPointExtension><gpxtpx:hr>151</gpxtpx:hr></gpxtpx:TrackPointExtension></extensions>
      </trkpt>
      <trkpt lat="59.162987" lon="17.448349">
        <ele>45.4</ele>
        <time>2020-03-26T12:58:52Z</time>
        <extensions><gpxtpx:TrackPointExtension><gpxtpx:hr>152</gpxtpx:hr></gpxtpx:TrackPointExtension></extensions>
      </trkpt>
      <trkpt lat="59.163051" lon="17.448342">
        <ele>45.4</ele>
        <time>2020-03-26T12:58:53Z</time>
        <extensions><gpxtpx:TrackPointExtension><gpxtpx:hr>152</gpxtpx:hr></gpxtpx:TrackPointExtension></extensions>
      </trkpt>
      <trkpt lat="59.163124" lon="17.448333">
        <ele>45.6</ele>
        <time>2020-03-26T12:58:54Z</time>
        <extensions><gpxtpx:TrackPointExtension><gpxtpx:hr>152</gpxtpx:hr></gpxtpx:TrackPointExtension></extensions>
      </trkpt>
      <trkpt lat="59.16319" lon="17.448326">
        <ele>45.6</ele>
        <time>2020-03-26T12:58:55Z</time>
        <extensions><gpxtpx:TrackPointExtension><gpxtpx:hr>153</gpxtpx:hr></gpxtpx:TrackPointExtension></extensions>
      </trkpt>
      <trkpt lat="59.163257" lon="17.448322">
        <ele>45.8</ele>
        <time>2020-03-26T12:58:56Z</time>
        <extensions><gpxtpx:TrackPointExtension><gpxtpx:hr>153</gpxtpx:hr></gpxtpx:TrackPointExtension></extensions>
      </trkpt>
      <trkpt lat="59.163326" lon="17.448316">
        <ele>46</ele>
        <time>2020-03-26T12:58:57Z</time>
        <extensions><gpxtpx:TrackPointExtension><gpxtpx:hr>153</gpxtpx:hr></gpxtpx:TrackPointExtension></extensions>
      </trkpt>
      <trkpt lat="59.163393" lon="17.448311">
        <ele>46.2</ele>
        <time>2020-03-26T12:58:58Z</time>
        <extensions><gpxtpx:TrackPointExtension><gpxtpx:hr>153</gpxtpx:hr></gpxtpx:TrackPointExtension></extensions>
      </trkpt>
      <trkpt lat="59.16346" lon="17.448306">
        <ele>46.4</ele>
        <time>2020-03-26T12:58:59Z</time>
        <extensions><gpxtpx:TrackPointExtension><gpxtpx:hr>153</gpxtpx:hr></gpxtpx:TrackPointExtension></extensions>
      </trkpt>
      <trkpt lat="59.163529" lon="17.448301">
        <ele>46.6</ele>
        <time>2020-03-26T12:59:00Z</time>
        <extensions><gpxtpx:TrackPointExtension><gpxtpx:hr>153</gpxtpx:hr></gpxtpx:TrackPointExtension></extensions>
      </trkpt>
      <trkpt lat="59.163595" lon="17.448295">
        <ele>46.6</ele>
        <time>2020-03-26T12:59:01Z</time>
        <extensions><gpxtpx:TrackPointExtension><gpxtpx:hr>153</gpxtpx:hr></gpxtpx:TrackPointExtension></extensions>
      </trkpt>
      <trkpt lat="59.163662" lon="17.448289">
        <ele>46.8</ele>
        <time>2020-03-26T12:59:02Z</time>
        <extensions><gpxtpx:TrackPointExtension><gpxtpx:hr>153</gpxtpx:hr></gpxtpx:TrackPointExtension></extensions>
      </trkpt>
      <trkpt lat="59.163727" lon="17.448285">
        <ele>46.8</ele>
        <time>2020-03-26T12:59:03Z</time>
        <extensions><gpxtpx:TrackPointExtension><gpxtpx:hr>153</gpxtpx:hr></gpxtpx:TrackPointExtension></extensions>
      </trkpt>
      <trkpt lat="59.163791" lon="17.448283">
        <ele>47</ele>
        <time>2020-03-26T12:59:04Z</time>
        <extensions><gpxtpx:TrackPointExtension><gpxtpx:hr>153</gpxtpx:hr></gpxtpx:TrackPointExtension></extensions>
      </trkpt>
      <trkpt lat="59.163855" lon="17.44828">
        <ele>47</ele>
        <time>2020-03-26T12:59:05Z</time>
        <extensions><gpxtpx:TrackPointExtension><gpxtpx:hr>154</gpxtpx:hr></gpxtpx:TrackPointExtension></extensions>
      </trkpt>
      <trkpt lat="59.163919" lon="17.448277">
        <ele>47.4</ele>
        <time>2020-03-26T12:59:06Z</time>
        <extensions><gpxtpx:TrackPointExtension><gpxtpx:hr>154</gpxtpx:hr></gpxtpx:TrackPointExtension></extensions>
      </trkpt>
      <trkpt lat="59.163983" lon="17.448274">
        <ele>47.4</ele>
        <time>2020-03-26T12:59:07Z</time>
        <extensions><gpxtpx:TrackPointExtension><gpxtpx:hr>154</gpxtpx:hr></gpxtpx:TrackPointExtension></extensions>
      </trkpt>
      <trkpt lat="59.164045" lon="17.448272">
        <ele>47.8</ele>
        <time>2020-03-26T12:59:08Z</time>
        <extensions><gpxtpx:TrackPointExtension><gpxtpx:hr>154</gpxtpx:hr></gpxtpx:TrackPointExtension></extensions>
      </trkpt>
      <trkpt lat="59.164108" lon="17.448272">
        <ele>48</ele>
        <time>2020-03-26T12:59:09Z</time>
        <extensions><gpxtpx:TrackPointExtension><gpxtpx:hr>154</gpxtpx:hr></gpxtpx:TrackPointExtension></extensions>
      </trkpt>
      <trkpt lat="59.16417" lon="17.448272">
        <ele>48</ele>
        <time>2020-03-26T12:59:10Z</time>
        <extensions><gpxtpx:TrackPointExtension><gpxtpx:hr>154</gpxtpx:hr></gpxtpx:TrackPointExtension></extensions>
      </trkpt>
      <trkpt lat="59.164231" lon="17.44827">
        <ele>48.2</ele>
        <time>2020-03-26T12:59:11Z</time>
        <extensions><gpxtpx:TrackPointExtension><gpxtpx:hr>154</gpxtpx:hr></gpxtpx:TrackPointExtension></extensions>
      </trkpt>
      <trkpt lat="59.164293" lon="17.448268">
        <ele>48.4</ele>
        <time>2020-03-26T12:59:12Z</time>
        <extensions><gpxtpx:TrackPointExtension><gpxtpx:hr>154</gpxtpx:hr></gpxtpx:TrackPointExtension></extensions>
      </trkpt>
      <trkpt lat="59.164355" lon="17.448269">
        <ele>48.4</ele>
        <time>2020-03-26T12:59:13Z</time>
        <extensions><gpxtpx:TrackPointExtension><gpxtpx:hr>155</gpxtpx:hr></gpxtpx:TrackPointExtension></extensions>
      </trkpt>
      <trkpt lat="59.164415" lon="17.448272">
        <ele>48.8</ele>
        <time>2020-03-26T12:59:14Z</time>
        <extensions><gpxtpx:TrackPointExtension><gpxtpx:hr>155</gpxtpx:hr></gpxtpx:TrackPointExtension></extensions>
      </trkpt>
      <trkpt lat="59.164478" lon="17.448274">
        <ele>49.2</ele>
        <time>2020-03-26T12:59:15Z</time>
        <extensions><gpxtpx:TrackPointExtension><gpxtpx:hr>155</gpxtpx:hr></gpxtpx:TrackPointExtension></extensions>
      </trkpt>
      <trkpt lat="59.164537" lon="17.448275">
        <ele>49.4</ele>
        <time>2020-03-26T12:59:16Z</time>
        <extensions><gpxtpx:TrackPointExtension><gpxtpx:hr>155</gpxtpx:hr></gpxtpx:TrackPointExtension></extensions>
      </trkpt>
      <trkpt lat="59.164597" lon="17.448273">
        <ele>49.6</ele>
        <time>2020-03-26T12:59:17Z</time>
        <extensions><gpxtpx:TrackPointExtension><gpxtpx:hr>155</gpxtpx:hr></gpxtpx:TrackPointExtension></extensions>
      </trkpt>
      <trkpt lat="59.164656" lon="17.448271">
        <ele>49.8</ele>
        <time>2020-03-26T12:59:18Z</time>
        <extensions><gpxtpx:TrackPointExtension><gpxtpx:hr>155</gpxtpx:hr></gpxtpx:TrackPointExtension></extensions>
      </trkpt>
      <trkpt lat="59.164713" lon="17.44827">
        <ele>50.2</ele>
        <time>2020-03-26T12:59:19Z</time>
        <extensions><gpxtpx:TrackPointExtension><gpxtpx:hr>155</gpxtpx:hr></gpxtpx:TrackPointExtension></extensions>
      </trkpt>
      <trkpt lat="59.164771" lon="17.44827">
        <ele>50.4</ele>
        <time>2020-03-26T12:59:20Z</time>
        <extensions><gpxtpx:TrackPointExtension><gpxtpx:hr>155</gpxtpx:hr></gpxtpx:TrackPointExtension></extensions>
      </trkpt>
      <trkpt lat="59.164829" lon="17.448272">
        <ele>50.6</ele>
        <time>2020-03-26T12:59:21Z</time>
        <extensions><gpxtpx:TrackPointExtension><gpxtpx:hr>155</gpxtpx:hr></gpxtpx:TrackPointExtension></extensions>
      </trkpt>
      <trkpt lat="59.164887" lon="17.448277">
        <ele>50.8</ele>
        <time>2020-03-26T12:59:22Z</time>
        <extensions><gpxtpx:TrackPointExtension><gpxtpx:hr>155</gpxtpx:hr></gpxtpx:TrackPointExtension></extensions>
      </trkpt>
      <trkpt lat="59.164945" lon="17.448285">
        <ele>51</ele>
        <time>2020-03-26T12:59:23Z</time>
        <extensions><gpxtpx:TrackPointExtension><gpxtpx:hr>155</gpxtpx:hr></gpxtpx:TrackPointExtension></extensions>
      </trkpt>
      <trkpt lat="59.165002" lon="17.448291">
        <ele>51.4</ele>
        <time>2020-03-26T12:59:24Z</time>
        <extensions><gpxtpx:TrackPointExtension><gpxtpx:hr>155</gpxtpx:hr></gpxtpx:TrackPointExtension></extensions>
      </trkpt>
      <trkpt lat="59.165061" lon="17.448295">
        <ele>51.6</ele>
        <time>2020-03-26T12:59:25Z</time>
        <extensions><gpxtpx:TrackPointExtension><gpxtpx:hr>155</gpxtpx:hr></gpxtpx:TrackPointExtension></extensions>
      </trkpt>
      <trkpt lat="59.16512" lon="17.448299">
        <ele>51.8</ele>
        <time>2020-03-26T12:59:26Z</time>
        <extensions><gpxtpx:TrackPointExtension><gpxtpx:hr>155</gpxtpx:hr></gpxtpx:TrackPointExtension></extensions>
      </trkpt>
      <trkpt lat="59.165178" lon="17.448305">
        <ele>52</ele>
        <time>2020-03-26T12:59:27Z</time>
        <extensions><gpxtpx:TrackPointExtension><gpxtpx:hr>155</gpxtpx:hr></gpxtpx:TrackPointExtension></extensions>
      </trkpt>
      <trkpt lat="59.165237" lon="17.448313">
        <ele>52.2</ele>
        <time>2020-03-26T12:59:28Z</time>
        <extensions><gpxtpx:TrackPointExtension><gpxtpx:hr>155</gpxtpx:hr></gpxtpx:TrackPointExtension></extensions>
      </trkpt>
      <trkpt lat="59.165295" lon="17.448318">
        <ele>52.4</ele>
        <time>2020-03-26T12:59:29Z</time>
        <extensions><gpxtpx:TrackPointExtension><gpxtpx:hr>156</gpxtpx:hr></gpxtpx:TrackPointExtension></extensions>
      </trkpt>
      <trkpt lat="59.165353" lon="17.448323">
        <ele>52.6</ele>
        <time>2020-03-26T12:59:30Z</time>
        <extensions><gpxtpx:TrackPointExtension><gpxtpx:hr>156</gpxtpx:hr></gpxtpx:TrackPointExtension></extensions>
      </trkpt>
      <trkpt lat="59.165411" lon="17.448331">
        <ele>52.6</ele>
        <time>2020-03-26T12:59:31Z</time>
        <extensions><gpxtpx:TrackPointExtension><gpxtpx:hr>156</gpxtpx:hr></gpxtpx:TrackPointExtension></extensions>
      </trkpt>
      <trkpt lat="59.165469" lon="17.448342">
        <ele>52.8</ele>
        <time>2020-03-26T12:59:32Z</time>
        <extensions><gpxtpx:TrackPointExtension><gpxtpx:hr>156</gpxtpx:hr></gpxtpx:TrackPointExtension></extensions>
      </trkpt>
      <trkpt lat="59.165528" lon="17.448352">
        <ele>52.8</ele>
        <time>2020-03-26T12:59:33Z</time>
        <extensions><gpxtpx:TrackPointExtension><gpxtpx:hr>156</gpxtpx:hr></gpxtpx:TrackPointExtension></extensions>
      </trkpt>
      <trkpt lat="59.165588" lon="17.448361">
        <ele>53</ele>
        <time>2020-03-26T12:59:34Z</time>
        <extensions><gpxtpx:TrackPointExtension><gpxtpx:hr>156</gpxtpx:hr></gpxtpx:TrackPointExtension></extensions>
      </trkpt>
      <trkpt lat="59.165649" lon="17.448371">
        <ele>53</ele>
        <time>2020-03-26T12:59:35Z</time>
        <extensions><gpxtpx:TrackPointExtension><gpxtpx:hr>156</gpxtpx:hr></gpxtpx:TrackPointExtension></extensions>
      </trkpt>
      <trkpt lat="59.165711" lon="17.448382">
        <ele>53</ele>
        <time>2020-03-26T12:59:36Z</time>
        <extensions><gpxtpx:TrackPointExtension><gpxtpx:hr>156</gpxtpx:hr></gpxtpx:TrackPointExtension></extensions>
      </trkpt>
      <trkpt lat="59.165774" lon="17.448393">
        <ele>53.2</ele>
        <time>2020-03-26T12:59:37Z</time>
        <extensions><gpxtpx:TrackPointExtension><gpxtpx:hr>156</gpxtpx:hr></gpxtpx:TrackPointExtension></extensions>
      </trkpt>
      <trkpt lat="59.165838" lon="17.448404">
        <ele>53.4</ele>
        <time>2020-03-26T12:59:38Z</time>
        <extensions><gpxtpx:TrackPointExtension><gpxtpx:hr>156</gpxtpx:hr></gpxtpx:TrackPointExtension></extensions>
      </trkpt>
      <trkpt lat="59.165902" lon="17.448415">
        <ele>53.4</ele>
        <time>2020-03-26T12:59:39Z</time>
        <extensions><gpxtpx:TrackPointExtension><gpxtpx:hr>156</gpxtpx:hr></gpxtpx:TrackPointExtension></extensions>
      </trkpt>
      <trkpt lat="59.165966" lon="17.448425">
        <ele>53.6</ele>
        <time>2020-03-26T12:59:40Z</time>
        <extensions><gpxtpx:TrackPointExtension><gpxtpx:hr>156</gpxtpx:hr></gpxtpx:TrackPointExtension></extensions>
      </trkpt>
      <trkpt lat="59.16603" lon="17.448436">
        <ele>53.6</ele>
        <time>2020-03-26T12:59:41Z</time>
        <extensions><gpxtpx:TrackPointExtension><gpxtpx:hr>156</gpxtpx:hr></gpxtpx:TrackPointExtension></extensions>
      </trkpt>
      <trkpt lat="59.166095" lon="17.448449">
        <ele>53.8</ele>
        <time>2020-03-26T12:59:42Z</time>
        <extensions><gpxtpx:TrackPointExtension><gpxtpx:hr>155</gpxtpx:hr></gpxtpx:TrackPointExtension></extensions>
      </trkpt>
      <trkpt lat="59.166161" lon="17.448461">
        <ele>54</ele>
        <time>2020-03-26T12:59:43Z</time>
        <extensions><gpxtpx:TrackPointExtension><gpxtpx:hr>155</gpxtpx:hr></gpxtpx:TrackPointExtension></extensions>
      </trkpt>
      <trkpt lat="59.166229" lon="17.448472">
        <ele>54.2</ele>
        <time>2020-03-26T12:59:44Z</time>
        <extensions><gpxtpx:TrackPointExtension><gpxtpx:hr>155</gpxtpx:hr></gpxtpx:TrackPointExtension></extensions>
      </trkpt>
      <trkpt lat="59.166298" lon="17.448486">
        <ele>54.2</ele>
        <time>2020-03-26T12:59:45Z</time>
        <extensions><gpxtpx:TrackPointExtension><gpxtpx:hr>155</gpxtpx:hr></gpxtpx:TrackPointExtension></extensions>
      </trkpt>
      <trkpt lat="59.166368" lon="17.448502">
        <ele>54.6</ele>
        <time>2020-03-26T12:59:46Z</time>
        <extensions><gpxtpx:TrackPointExtension><gpxtpx:hr>155</gpxtpx:hr></gpxtpx:TrackPointExtension></extensions>
      </trkpt>
      <trkpt lat="59.166438" lon="17.44852">
        <ele>55</ele>
        <time>2020-03-26T12:59:47Z</time>
        <extensions><gpxtpx:TrackPointExtension><gpxtpx:hr>155</gpxtpx:hr></gpxtpx:TrackPointExtension></extensions>
      </trkpt>
      <trkpt lat="59.166509" lon="17.448538">
        <ele>55</ele>
        <time>2020-03-26T12:59:48Z</time>
        <extensions><gpxtpx:TrackPointExtension><gpxtpx:hr>155</gpxtpx:hr></gpxtpx:TrackPointExtension></extensions>
      </trkpt>
      <trkpt lat="59.166579" lon="17.448555">
        <ele>55.2</ele>
        <time>2020-03-26T12:59:49Z</time>
        <extensions><gpxtpx:TrackPointExtension><gpxtpx:hr>155</gpxtpx:hr></gpxtpx:TrackPointExtension></extensions>
      </trkpt>
      <trkpt lat="59.16665" lon="17.448569">
        <ele>55.4</ele>
        <time>2020-03-26T12:59:50Z</time>
        <extensions><gpxtpx:TrackPointExtension><gpxtpx:hr>155</gpxtpx:hr></gpxtpx:TrackPointExtension></extensions>
      </trkpt>
      <trkpt lat="59.166721" lon="17.448582">
        <ele>55.4</ele>
        <time>2020-03-26T12:59:51Z</time>
        <extensions><gpxtpx:TrackPointExtension><gpxtpx:hr>155</gpxtpx:hr></gpxtpx:TrackPointExtension></extensions>
      </trkpt>
      <trkpt lat="59.166792" lon="17.448597">
        <ele>55.6</ele>
        <time>2020-03-26T12:59:52Z</time>
        <extensions><gpxtpx:TrackPointExtension><gpxtpx:hr>155</gpxtpx:hr></gpxtpx:TrackPointExtension></extensions>
      </trkpt>
      <trkpt lat="59.166862" lon="17.448615">
        <ele>55.6</ele>
        <time>2020-03-26T12:59:53Z</time>
        <extensions><gpxtpx:TrackPointExtension><gpxtpx:hr>156</gpxtpx:hr></gpxtpx:TrackPointExtension></extensions>
      </trkpt>
      <trkpt lat="59.166932" lon="17.448632">
        <ele>55.6</ele>
        <time>2020-03-26T12:59:54Z</time>
        <extensions><gpxtpx:TrackPointExtension><gpxtpx:hr>156</gpxtpx:hr></gpxtpx:TrackPointExtension></extensions>
      </trkpt>
      <trkpt lat="59.167001" lon="17.448651">
        <ele>55.6</ele>
        <time>2020-03-26T12:59:55Z</time>
        <extensions><gpxtpx:TrackPointExtension><gpxtpx:hr>156</gpxtpx:hr></gpxtpx:TrackPointExtension></extensions>
      </trkpt>
      <trkpt lat="59.16707" lon="17.448671">
        <ele>55.6</ele>
        <time>2020-03-26T12:59:56Z</time>
        <extensions><gpxtpx:TrackPointExtension><gpxtpx:hr>156</gpxtpx:hr></gpxtpx:TrackPointExtension></extensions>
      </trkpt>
      <trkpt lat="59.167139" lon="17.44869">
        <ele>55.6</ele>
        <time>2020-03-26T12:59:57Z</time>
        <extensions><gpxtpx:TrackPointExtension><gpxtpx:hr>156</gpxtpx:hr></gpxtpx:TrackPointExtension></extensions>
      </trkpt>
      <trkpt lat="59.167209" lon="17.448708">
        <ele>55.6</ele>
        <time>2020-03-26T12:59:58Z</time>
        <extensions><gpxtpx:TrackPointExtension><gpxtpx:hr>156</gpxtpx:hr></gpxtpx:TrackPointExtension></extensions>
      </trkpt>
      <trkpt lat="59.167277" lon="17.448725">
        <ele>55.6</ele>
        <time>2020-03-26T12:59:59Z</time>
        <extensions><gpxtpx:TrackPointExtension><gpxtpx:hr>156</gpxtpx:hr></gpxtpx:TrackPointExtension></extensions>
      </trkpt>
      <trkpt lat="59.167346" lon="17.448744">
        <ele>55.8</ele>
        <time>2020-03-26T13:00:00Z</time>
        <extensions><gpxtpx:TrackPointExtension><gpxtpx:hr>156</gpxtpx:hr></gpxtpx:TrackPointExtension></extensions>
      </trkpt>
      <trkpt lat="59.167414" lon="17.448767">
        <ele>55.8</ele>
        <time>2020-03-26T13:00:01Z</time>
        <extensions><gpxtpx:TrackPointExtension><gpxtpx:hr>155</gpxtpx:hr></gpxtpx:TrackPointExtension></extensions>
      </trkpt>
      <trkpt lat="59.167484" lon="17.448789">
        <ele>55.8</ele>
        <time>2020-03-26T13:00:02Z</time>
        <extensions><gpxtpx:TrackPointExtension><gpxtpx:hr>155</gpxtpx:hr></gpxtpx:TrackPointExtension></extensions>
      </trkpt>
      <trkpt lat="59.167554" lon="17.448812">
        <ele>55.8</ele>
        <time>2020-03-26T13:00:03Z</time>
        <extensions><gpxtpx:TrackPointExtension><gpxtpx:hr>154</gpxtpx:hr></gpxtpx:TrackPointExtension></extensions>
      </trkpt>
      <trkpt lat="59.167623" lon="17.448836">
        <ele>55.8</ele>
        <time>2020-03-26T13:00:04Z</time>
        <extensions><gpxtpx:TrackPointExtension><gpxtpx:hr>154</gpxtpx:hr></gpxtpx:TrackPointExtension></extensions>
      </trkpt>
      <trkpt lat="59.167694" lon="17.448861">
        <ele>55.8</ele>
        <time>2020-03-26T13:00:05Z</time>
        <extensions><gpxtpx:TrackPointExtension><gpxtpx:hr>154</gpxtpx:hr></gpxtpx:TrackPointExtension></extensions>
      </trkpt>
      <trkpt lat="59.167765" lon="17.448886">
        <ele>55.8</ele>
        <time>2020-03-26T13:00:06Z</time>
        <extensions><gpxtpx:TrackPointExtension><gpxtpx:hr>153</gpxtpx:hr></gpxtpx:TrackPointExtension></extensions>
      </trkpt>
      <trkpt lat="59.167836" lon="17.448912">
        <ele>55.8</ele>
        <time>2020-03-26T13:00:07Z</time>
        <extensions><gpxtpx:TrackPointExtension><gpxtpx:hr>153</gpxtpx:hr></gpxtpx:TrackPointExtension></extensions>
      </trkpt>
      <trkpt lat="59.167909" lon="17.448937">
        <ele>55.8</ele>
        <time>2020-03-26T13:00:08Z</time>
        <extensions><gpxtpx:TrackPointExtension><gpxtpx:hr>153</gpxtpx:hr></gpxtpx:TrackPointExtension></extensions>
      </trkpt>
      <trkpt lat="59.167982" lon="17.448963">
        <ele>55.8</ele>
        <time>2020-03-26T13:00:09Z</time>
        <extensions><gpxtpx:TrackPointExtension><gpxtpx:hr>152</gpxtpx:hr></gpxtpx:TrackPointExtension></extensions>
      </trkpt>
      <trkpt lat="59.168056" lon="17.448989">
        <ele>55.6</ele>
        <time>2020-03-26T13:00:10Z</time>
        <extensions><gpxtpx:TrackPointExtension><gpxtpx:hr>152</gpxtpx:hr></gpxtpx:TrackPointExtension></extensions>
      </trkpt>
      <trkpt lat="59.16813" lon="17.449015">
        <ele>55.4</ele>
        <time>2020-03-26T13:00:11Z</time>
        <extensions><gpxtpx:TrackPointExtension><gpxtpx:hr>152</gpxtpx:hr></gpxtpx:TrackPointExtension></extensions>
      </trkpt>
      <trkpt lat="59.168206" lon="17.449042">
        <ele>55.4</ele>
        <time>2020-03-26T13:00:12Z</time>
        <extensions><gpxtpx:TrackPointExtension><gpxtpx:hr>151</gpxtpx:hr></gpxtpx:TrackPointExtension></extensions>
      </trkpt>
      <trkpt lat="59.168282" lon="17.449069">
        <ele>55.6</ele>
        <time>2020-03-26T13:00:13Z</time>
        <extensions><gpxtpx:TrackPointExtension><gpxtpx:hr>151</gpxtpx:hr></gpxtpx:TrackPointExtension></extensions>
      </trkpt>
      <trkpt lat="59.168359" lon="17.449101">
        <ele>55.6</ele>
        <time>2020-03-26T13:00:14Z</time>
        <extensions><gpxtpx:TrackPointExtension><gpxtpx:hr>150</gpxtpx:hr></gpxtpx:TrackPointExtension></extensions>
      </trkpt>
      <trkpt lat="59.168435" lon="17.449138">
        <ele>55.6</ele>
        <time>2020-03-26T13:00:15Z</time>
        <extensions><gpxtpx:TrackPointExtension><gpxtpx:hr>150</gpxtpx:hr></gpxtpx:TrackPointExtension></extensions>
      </trkpt>
      <trkpt lat="59.168512" lon="17.449175">
        <ele>55.6</ele>
        <time>2020-03-26T13:00:16Z</time>
        <extensions><gpxtpx:TrackPointExtension><gpxtpx:hr>149</gpxtpx:hr></gpxtpx:TrackPointExtension></extensions>
      </trkpt>
      <trkpt lat="59.168589" lon="17.44921">
        <ele>55.2</ele>
        <time>2020-03-26T13:00:17Z</time>
        <extensions><gpxtpx:TrackPointExtension><gpxtpx:hr>149</gpxtpx:hr></gpxtpx:TrackPointExtension></extensions>
      </trkpt>
      <trkpt lat="59.168669" lon="17.449246">
        <ele>55.2</ele>
        <time>2020-03-26T13:00:18Z</time>
        <extensions><gpxtpx:TrackPointExtension><gpxtpx:hr>148</gpxtpx:hr></gpxtpx:TrackPointExtension></extensions>
      </trkpt>
      <trkpt lat="59.168746" lon="17.44928">
        <ele>55.4</ele>
        <time>2020-03-26T13:00:19Z</time>
        <extensions><gpxtpx:TrackPointExtension><gpxtpx:hr>148</gpxtpx:hr></gpxtpx:TrackPointExtension></extensions>
      </trkpt>
      <trkpt lat="59.168825" lon="17.449315">
        <ele>55.4</ele>
        <time>2020-03-26T13:00:20Z</time>
        <extensions><gpxtpx:TrackPointExtension><gpxtpx:hr>148</gpxtpx:hr></gpxtpx:TrackPointExtension></extensions>
      </trkpt>
      <trkpt lat="59.168904" lon="17.449349">
        <ele>55</ele>
        <time>2020-03-26T13:00:21Z</time>
        <extensions><gpxtpx:TrackPointExtension><gpxtpx:hr>147</gpxtpx:hr></gpxtpx:TrackPointExtension></extensions>
      </trkpt>
      <trkpt lat="59.168984" lon="17.449387">
        <ele>55</ele>
        <time>2020-03-26T13:00:22Z</time>
        <extensions><gpxtpx:TrackPointExtension><gpxtpx:hr>146</gpxtpx:hr></gpxtpx:TrackPointExtension></extensions>
      </trkpt>
      <trkpt lat="59.169065" lon="17.449429">
        <ele>55</ele>
        <time>2020-03-26T13:00:23Z</time>
        <extensions><gpxtpx:TrackPointExtension><gpxtpx:hr>145</gpxtpx:hr></gpxtpx:TrackPointExtension></extensions>
      </trkpt>
      <trkpt lat="59.169152" lon="17.449471">
        <ele>55</ele>
        <time>2020-03-26T13:00:24Z</time>
        <extensions><gpxtpx:TrackPointExtension><gpxtpx:hr>145</gpxtpx:hr></gpxtpx:TrackPointExtension></extensions>
      </trkpt>
      <trkpt lat="59.169236" lon="17.449515">
        <ele>55</ele>
        <time>2020-03-26T13:00:25Z</time>
        <extensions><gpxtpx:TrackPointExtension><gpxtpx:hr>145</gpxtpx:hr></gpxtpx:TrackPointExtension></extensions>
      </trkpt>
      <trkpt lat="59.169324" lon="17.44956">
        <ele>54.8</ele>
        <time>2020-03-26T13:00:26Z</time>
        <extensions><gpxtpx:TrackPointExtension><gpxtpx:hr>144</gpxtpx:hr></gpxtpx:TrackPointExtension></extensions>
      </trkpt>
      <trkpt lat="59.169412" lon="17.449605">
        <ele>54.8</ele>
        <time>2020-03-26T13:00:27Z</time>
        <extensions><gpxtpx:TrackPointExtension><gpxtpx:hr>144</gpxtpx:hr></gpxtpx:TrackPointExtension></extensions>
      </trkpt>
      <trkpt lat="59.169501" lon="17.449651">
        <ele>54.8</ele>
        <time>2020-03-26T13:00:28Z</time>
        <extensions><gpxtpx:TrackPointExtension><gpxtpx:hr>144</gpxtpx:hr></gpxtpx:TrackPointExtension></extensions>
      </trkpt>
      <trkpt lat="59.16959" lon="17.449699">
        <ele>54.6</ele>
        <time>2020-03-26T13:00:29Z</time>
        <extensions><gpxtpx:TrackPointExtension><gpxtpx:hr>144</gpxtpx:hr></gpxtpx:TrackPointExtension></extensions>
      </trkpt>
      <trkpt lat="59.16968" lon="17.449749">
        <ele>54.6</ele>
        <time>2020-03-26T13:00:30Z</time>
        <extensions><gpxtpx:TrackPointExtension><gpxtpx:hr>143</gpxtpx:hr></gpxtpx:TrackPointExtension></extensions>
      </trkpt>
      <trkpt lat="59.169768" lon="17.4498">
        <ele>54.6</ele>
        <time>2020-03-26T13:00:31Z</time>
        <extensions><gpxtpx:TrackPointExtension><gpxtpx:hr>143</gpxtpx:hr></gpxtpx:TrackPointExtension></extensions>
      </trkpt>
      <trkpt lat="59.169857" lon="17.44985">
        <ele>54.4</ele>
        <time>2020-03-26T13:00:32Z</time>
        <extensions><gpxtpx:TrackPointExtension><gpxtpx:hr>143</gpxtpx:hr></gpxtpx:TrackPointExtension></extensions>
      </trkpt>
      <trkpt lat="59.169945" lon="17.449902">
        <ele>54.4</ele>
        <time>2020-03-26T13:00:33Z</time>
        <extensions><gpxtpx:TrackPointExtension><gpxtpx:hr>142</gpxtpx:hr></gpxtpx:TrackPointExtension></extensions>
      </trkpt>
      <trkpt lat="59.170033" lon="17.449953">
        <ele>54</ele>
        <time>2020-03-26T13:00:34Z</time>
        <extensions><gpxtpx:TrackPointExtension><gpxtpx:hr>141</gpxtpx:hr></gpxtpx:TrackPointExtension></extensions>
      </trkpt>
      <trkpt lat="59.17012" lon="17.450003">
        <ele>53.6</ele>
        <time>2020-03-26T13:00:35Z</time>
        <extensions><gpxtpx:TrackPointExtension><gpxtpx:hr>140</gpxtpx:hr></gpxtpx:TrackPointExtension></extensions>
      </trkpt>
      <trkpt lat="59.170208" lon="17.450053">
        <ele>52.6</ele>
        <time>2020-03-26T13:00:36Z</time>
        <extensions><gpxtpx:TrackPointExtension><gpxtpx:hr>138</gpxtpx:hr></gpxtpx:TrackPointExtension></extensions>
      </trkpt>
      <trkpt lat="59.170298" lon="17.450103">
        <ele>52</ele>
        <time>2020-03-26T13:00:37Z</time>
        <extensions><gpxtpx:TrackPointExtension><gpxtpx:hr>136</gpxtpx:hr></gpxtpx:TrackPointExtension></extensions>
      </trkpt>
      <trkpt lat="59.170387" lon="17.450152">
        <ele>51.6</ele>
        <time>2020-03-26T13:00:38Z</time>
        <extensions><gpxtpx:TrackPointExtension><gpxtpx:hr>136</gpxtpx:hr></gpxtpx:TrackPointExtension></extensions>
      </trkpt>
      <trkpt lat="59.170478" lon="17.450201">
        <ele>51.2</ele>
        <time>2020-03-26T13:00:39Z</time>
        <extensions><gpxtpx:TrackPointExtension><gpxtpx:hr>135</gpxtpx:hr></gpxtpx:TrackPointExtension></extensions>
      </trkpt>
      <trkpt lat="59.170568" lon="17.450252">
        <ele>51</ele>
        <time>2020-03-26T13:00:40Z</time>
        <extensions><gpxtpx:TrackPointExtension><gpxtpx:hr>136</gpxtpx:hr></gpxtpx:TrackPointExtension></extensions>
      </trkpt>
      <trkpt lat="59.17066" lon="17.450305">
        <ele>50.6</ele>
        <time>2020-03-26T13:00:41Z</time>
        <extensions><gpxtpx:TrackPointExtension><gpxtpx:hr>136</gpxtpx:hr></gpxtpx:TrackPointExtension></extensions>
      </trkpt>
      <trkpt lat="59.170753" lon="17.450358">
        <ele>50.4</ele>
        <time>2020-03-26T13:00:42Z</time>
        <extensions><gpxtpx:TrackPointExtension><gpxtpx:hr>137</gpxtpx:hr></gpxtpx:TrackPointExtension></extensions>
      </trkpt>
      <trkpt lat="59.170847" lon="17.450411">
        <ele>50</ele>
        <time>2020-03-26T13:00:43Z</time>
        <extensions><gpxtpx:TrackPointExtension><gpxtpx:hr>137</gpxtpx:hr></gpxtpx:TrackPointExtension></extensions>
      </trkpt>
      <trkpt lat="59.170942" lon="17.450465">
        <ele>49.8</ele>
        <time>2020-03-26T13:00:44Z</time>
        <extensions><gpxtpx:TrackPointExtension><gpxtpx:hr>136</gpxtpx:hr></gpxtpx:TrackPointExtension></extensions>
      </trkpt>
      <trkpt lat="59.171036" lon="17.45052">
        <ele>49.6</ele>
        <time>2020-03-26T13:00:45Z</time>
        <extensions><gpxtpx:TrackPointExtension><gpxtpx:hr>135</gpxtpx:hr></gpxtpx:TrackPointExtension></extensions>
      </trkpt>
      <trkpt lat="59.17113" lon="17.450575">
        <ele>49.2</ele>
        <time>2020-03-26T13:00:46Z</time>
        <extensions><gpxtpx:TrackPointExtension><gpxtpx:hr>134</gpxtpx:hr></gpxtpx:TrackPointExtension></extensions>
      </trkpt>
      <trkpt lat="59.171222" lon="17.450629">
        <ele>48.8</ele>
        <time>2020-03-26T13:00:47Z</time>
        <extensions><gpxtpx:TrackPointExtension><gpxtpx:hr>133</gpxtpx:hr></gpxtpx:TrackPointExtension></extensions>
      </trkpt>
      <trkpt lat="59.171313" lon="17.450682">
        <ele>48.6</ele>
        <time>2020-03-26T13:00:48Z</time>
        <extensions><gpxtpx:TrackPointExtension><gpxtpx:hr>132</gpxtpx:hr></gpxtpx:TrackPointExtension></extensions>
      </trkpt>
      <trkpt lat="59.171403" lon="17.450735">
        <ele>48.4</ele>
        <time>2020-03-26T13:00:49Z</time>
        <extensions><gpxtpx:TrackPointExtension><gpxtpx:hr>132</gpxtpx:hr></gpxtpx:TrackPointExtension></extensions>
      </trkpt>
      <trkpt lat="59.171492" lon="17.450786">
        <ele>48.2</ele>
        <time>2020-03-26T13:00:50Z</time>
        <extensions><gpxtpx:TrackPointExtension><gpxtpx:hr>132</gpxtpx:hr></gpxtpx:TrackPointExtension></extensions>
      </trkpt>
      <trkpt lat="59.17158" lon="17.450833">
        <ele>48</ele>
        <time>2020-03-26T13:00:51Z</time>
        <extensions><gpxtpx:TrackPointExtension><gpxtpx:hr>132</gpxtpx:hr></gpxtpx:TrackPointExtension></extensions>
      </trkpt>
      <trkpt lat="59.171667" lon="17.450879">
        <ele>47.6</ele>
        <time>2020-03-26T13:00:52Z</time>
        <extensions><gpxtpx:TrackPointExtension><gpxtpx:hr>132</gpxtpx:hr></gpxtpx:TrackPointExtension></extensions>
      </trkpt>
      <trkpt lat="59.171753" lon="17.450926">
        <ele>47.4</ele>
        <time>2020-03-26T13:00:53Z</time>
        <extensions><gpxtpx:TrackPointExtension><gpxtpx:hr>131</gpxtpx:hr></gpxtpx:TrackPointExtension></extensions>
      </trkpt>
      <trkpt lat="59.171839" lon="17.450976">
        <ele>47</ele>
        <time>2020-03-26T13:00:54Z</time>
        <extensions><gpxtpx:TrackPointExtension><gpxtpx:hr>130</gpxtpx:hr></gpxtpx:TrackPointExtension></extensions>
      </trkpt>
      <trkpt lat="59.171925" lon="17.451026">
        <ele>47</ele>
        <time>2020-03-26T13:00:55Z</time>
        <extensions><gpxtpx:TrackPointExtension><gpxtpx:hr>129</gpxtpx:hr></gpxtpx:TrackPointExtension></extensions>
      </trkpt>
      <trkpt lat="59.17201" lon="17.451076">
        <ele>46.8</ele>
        <time>2020-03-26T13:00:56Z</time>
        <extensions><gpxtpx:TrackPointExtension><gpxtpx:hr>128</gpxtpx:hr></gpxtpx:TrackPointExtension></extensions>
      </trkpt>
      <trkpt lat="59.172096" lon="17.451123">
        <ele>46.8</ele>
        <time>2020-03-26T13:00:57Z</time>
        <extensions><gpxtpx:TrackPointExtension><gpxtpx:hr>128</gpxtpx:hr></gpxtpx:TrackPointExtension></extensions>
      </trkpt>
      <trkpt lat="59.172184" lon="17.451171">
        <ele>46.6</ele>
        <time>2020-03-26T13:00:58Z</time>
        <extensions><gpxtpx:TrackPointExtension><gpxtpx:hr>128</gpxtpx:hr></gpxtpx:TrackPointExtension></extensions>
      </trkpt>
      <trkpt lat="59.172271" lon="17.451221">
        <ele>46.6</ele>
        <time>2020-03-26T13:00:59Z</time>
        <extensions><gpxtpx:TrackPointExtension><gpxtpx:hr>129</gpxtpx:hr></gpxtpx:TrackPointExtension></extensions>
      </trkpt>
      <trkpt lat="59.172358" lon="17.451271">
        <ele>46.4</ele>
        <time>2020-03-26T13:01:00Z</time>
        <extensions><gpxtpx:TrackPointExtension><gpxtpx:hr>129</gpxtpx:hr></gpxtpx:TrackPointExtension></extensions>
      </trkpt>
      <trkpt lat="59.172445" lon="17.451319">
        <ele>46.2</ele>
        <time>2020-03-26T13:01:01Z</time>
        <extensions><gpxtpx:TrackPointExtension><gpxtpx:hr>129</gpxtpx:hr></gpxtpx:TrackPointExtension></extensions>
      </trkpt>
      <trkpt lat="59.17253" lon="17.451367">
        <ele>46</ele>
        <time>2020-03-26T13:01:02Z</time>
        <extensions><gpxtpx:TrackPointExtension><gpxtpx:hr>129</gpxtpx:hr></gpxtpx:TrackPointExtension></extensions>
      </trkpt>
      <trkpt lat="59.172616" lon="17.451414">
        <ele>46</ele>
        <time>2020-03-26T13:01:03Z</time>
        <extensions><gpxtpx:TrackPointExtension><gpxtpx:hr>129</gpxtpx:hr></gpxtpx:TrackPointExtension></extensions>
      </trkpt>
      <trkpt lat="59.172699" lon="17.451461">
        <ele>46</ele>
        <time>2020-03-26T13:01:04Z</time>
        <extensions><gpxtpx:TrackPointExtension><gpxtpx:hr>129</gpxtpx:hr></gpxtpx:TrackPointExtension></extensions>
      </trkpt>
      <trkpt lat="59.172781" lon="17.451508">
        <ele>45.8</ele>
        <time>2020-03-26T13:01:05Z</time>
        <extensions><gpxtpx:TrackPointExtension><gpxtpx:hr>129</gpxtpx:hr></gpxtpx:TrackPointExtension></extensions>
      </trkpt>
      <trkpt lat="59.172864" lon="17.451553">
        <ele>45.8</ele>
        <time>2020-03-26T13:01:06Z</time>
        <extensions><gpxtpx:TrackPointExtension><gpxtpx:hr>129</gpxtpx:hr></gpxtpx:TrackPointExtension></extensions>
      </trkpt>
      <trkpt lat="59.172945" lon="17.451598">
        <ele>45.6</ele>
        <time>2020-03-26T13:01:07Z</time>
        <extensions><gpxtpx:TrackPointExtension><gpxtpx:hr>130</gpxtpx:hr></gpxtpx:TrackPointExtension></extensions>
      </trkpt>
      <trkpt lat="59.173026" lon="17.451643">
        <ele>45.6</ele>
        <time>2020-03-26T13:01:08Z</time>
        <extensions><gpxtpx:TrackPointExtension><gpxtpx:hr>131</gpxtpx:hr></gpxtpx:TrackPointExtension></extensions>
      </trkpt>
      <trkpt lat="59.173106" lon="17.45169">
        <ele>45.4</ele>
        <time>2020-03-26T13:01:09Z</time>
        <extensions><gpxtpx:TrackPointExtension><gpxtpx:hr>132</gpxtpx:hr></gpxtpx:TrackPointExtension></extensions>
      </trkpt>
      <trkpt lat="59.173185" lon="17.451738">
        <ele>45.4</ele>
        <time>2020-03-26T13:01:10Z</time>
        <extensions><gpxtpx:TrackPointExtension><gpxtpx:hr>134</gpxtpx:hr></gpxtpx:TrackPointExtension></extensions>
      </trkpt>
      <trkpt lat="59.173263" lon="17.451783">
        <ele>45.4</ele>
        <time>2020-03-26T13:01:11Z</time>
        <extensions><gpxtpx:TrackPointExtension><gpxtpx:hr>135</gpxtpx:hr></gpxtpx:TrackPointExtension></extensions>
      </trkpt>
      <trkpt lat="59.17334" lon="17.45183">
        <ele>45.4</ele>
        <time>2020-03-26T13:01:12Z</time>
        <extensions><gpxtpx:TrackPointExtension><gpxtpx:hr>136</gpxtpx:hr></gpxtpx:TrackPointExtension></extensions>
      </trkpt>
      <trkpt lat="59.173415" lon="17.45188">
        <ele>45.4</ele>
        <time>2020-03-26T13:01:13Z</time>
        <extensions><gpxtpx:TrackPointExtension><gpxtpx:hr>136</gpxtpx:hr></gpxtpx:TrackPointExtension></extensions>
      </trkpt>
      <trkpt lat="59.173487" lon="17.451938">
        <ele>45.4</ele>
        <time>2020-03-26T13:01:14Z</time>
        <extensions><gpxtpx:TrackPointExtension><gpxtpx:hr>136</gpxtpx:hr></gpxtpx:TrackPointExtension></extensions>
      </trkpt>
      <trkpt lat="59.173556" lon="17.452005">
        <ele>45.4</ele>
        <time>2020-03-26T13:01:15Z</time>
        <extensions><gpxtpx:TrackPointExtension><gpxtpx:hr>135</gpxtpx:hr></gpxtpx:TrackPointExtension></extensions>
      </trkpt>
      <trkpt lat="59.173621" lon="17.452084">
        <ele>45.4</ele>
        <time>2020-03-26T13:01:16Z</time>
        <extensions><gpxtpx:TrackPointExtension><gpxtpx:hr>135</gpxtpx:hr></gpxtpx:TrackPointExtension></extensions>
      </trkpt>
      <trkpt lat="59.173682" lon="17.452168">
        <ele>45.4</ele>
        <time>2020-03-26T13:01:17Z</time>
        <extensions><gpxtpx:TrackPointExtension><gpxtpx:hr>135</gpxtpx:hr></gpxtpx:TrackPointExtension></extensions>
      </trkpt>
      <trkpt lat="59.173746" lon="17.452245">
        <ele>45.4</ele>
        <time>2020-03-26T13:01:18Z</time>
        <extensions><gpxtpx:TrackPointExtension><gpxtpx:hr>135</gpxtpx:hr></gpxtpx:TrackPointExtension></extensions>
      </trkpt>
      <trkpt lat="59.173816" lon="17.452293">
        <ele>45.4</ele>
        <time>2020-03-26T13:01:19Z</time>
        <extensions><gpxtpx:TrackPointExtension><gpxtpx:hr>135</gpxtpx:hr></gpxtpx:TrackPointExtension></extensions>
      </trkpt>
      <trkpt lat="59.173889" lon="17.452311">
        <ele>45.8</ele>
        <time>2020-03-26T13:01:20Z</time>
        <extensions><gpxtpx:TrackPointExtension><gpxtpx:hr>135</gpxtpx:hr></gpxtpx:TrackPointExtension></extensions>
      </trkpt>
      <trkpt lat="59.173964" lon="17.452322">
        <ele>45.8</ele>
        <time>2020-03-26T13:01:21Z</time>
        <extensions><gpxtpx:TrackPointExtension><gpxtpx:hr>135</gpxtpx:hr></gpxtpx:TrackPointExtension></extensions>
      </trkpt>
      <trkpt lat="59.174037" lon="17.45234">
        <ele>45.8</ele>
        <time>2020-03-26T13:01:22Z</time>
        <extensions><gpxtpx:TrackPointExtension><gpxtpx:hr>136</gpxtpx:hr></gpxtpx:TrackPointExtension></extensions>
      </trkpt>
      <trkpt lat="59.17411" lon="17.452362">
        <ele>46</ele>
        <time>2020-03-26T13:01:23Z</time>
        <extensions><gpxtpx:TrackPointExtension><gpxtpx:hr>136</gpxtpx:hr></gpxtpx:TrackPointExtension></extensions>
      </trkpt>
      <trkpt lat="59.17418" lon="17.452384">
        <ele>46.2</ele>
        <time>2020-03-26T13:01:24Z</time>
        <extensions><gpxtpx:TrackPointExtension><gpxtpx:hr>137</gpxtpx:hr></gpxtpx:TrackPointExtension></extensions>
      </trkpt>
      <trkpt lat="59.17425" lon="17.45241">
        <ele>46.2</ele>
        <time>2020-03-26T13:01:25Z</time>
        <extensions><gpxtpx:TrackPointExtension><gpxtpx:hr>138</gpxtpx:hr></gpxtpx:TrackPointExtension></extensions>
      </trkpt>
      <trkpt lat="59.174318" lon="17.452441">
        <ele>46.4</ele>
        <time>2020-03-26T13:01:26Z</time>
        <extensions><gpxtpx:TrackPointExtension><gpxtpx:hr>139</gpxtpx:hr></gpxtpx:TrackPointExtension></extensions>
      </trkpt>
      <trkpt lat="59.174385" lon="17.452474">
        <ele>46.6</ele>
        <time>2020-03-26T13:01:27Z</time>
        <extensions><gpxtpx:TrackPointExtension><gpxtpx:hr>140</gpxtpx:hr></gpxtpx:TrackPointExtension></extensions>
      </trkpt>
      <trkpt lat="59.17445" lon="17.452509">
        <ele>46.6</ele>
        <time>2020-03-26T13:01:28Z</time>
        <extensions><gpxtpx:TrackPointExtension><gpxtpx:hr>141</gpxtpx:hr></gpxtpx:TrackPointExtension></extensions>
      </trkpt>
      <trkpt lat="59.174516" lon="17.452543">
        <ele>46.8</ele>
        <time>2020-03-26T13:01:29Z</time>
        <extensions><gpxtpx:TrackPointExtension><gpxtpx:hr>141</gpxtpx:hr></gpxtpx:TrackPointExtension></extensions>
      </trkpt>
      <trkpt lat="59.174581" lon="17.452578">
        <ele>47</ele>
        <time>2020-03-26T13:01:30Z</time>
        <extensions><gpxtpx:TrackPointExtension><gpxtpx:hr>142</gpxtpx:hr></gpxtpx:TrackPointExtension></extensions>
      </trkpt>
      <trkpt lat="59.174644" lon="17.452615">
        <ele>47</ele>
        <time>2020-03-26T13:01:31Z</time>
        <extensions><gpxtpx:TrackPointExtension><gpxtpx:hr>142</gpxtpx:hr></gpxtpx:TrackPointExtension></extensions>
      </trkpt>
      <trkpt lat="59.174709" lon="17.45265">
        <ele>47.2</ele>
        <time>2020-03-26T13:01:32Z</time>
        <extensions><gpxtpx:TrackPointExtension><gpxtpx:hr>142</gpxtpx:hr></gpxtpx:TrackPointExtension></extensions>
      </trkpt>
      <trkpt lat="59.174773" lon="17.452683">
        <ele>47.2</ele>
        <time>2020-03-26T13:01:33Z</time>
        <extensions><gpxtpx:TrackPointExtension><gpxtpx:hr>143</gpxtpx:hr></gpxtpx:TrackPointExtension></extensions>
      </trkpt>
      <trkpt lat="59.174837" lon="17.452719">
        <ele>47.6</ele>
        <time>2020-03-26T13:01:34Z</time>
        <extensions><gpxtpx:TrackPointExtension><gpxtpx:hr>143</gpxtpx:hr></gpxtpx:TrackPointExtension></extensions>
      </trkpt>
      <trkpt lat="59.174897" lon="17.452757">
        <ele>47.8</ele>
        <time>2020-03-26T13:01:35Z</time>
        <extensions><gpxtpx:TrackPointExtension><gpxtpx:hr>143</gpxtpx:hr></gpxtpx:TrackPointExtension></extensions>
      </trkpt>
      <trkpt lat="59.174958" lon="17.452794">
        <ele>48</ele>
        <time>2020-03-26T13:01:36Z</time>
        <extensions><gpxtpx:TrackPointExtension><gpxtpx:hr>143</gpxtpx:hr></gpxtpx:TrackPointExtension></extensions>
      </trkpt>
      <trkpt lat="59.175019" lon="17.452829">
        <ele>48.2</ele>
        <time>2020-03-26T13:01:37Z</time>
        <extensions><gpxtpx:TrackPointExtension><gpxtpx:hr>144</gpxtpx:hr></gpxtpx:TrackPointExtension></extensions>
      </trkpt>
      <trkpt lat="59.175082" lon="17.452866">
        <ele>48.4</ele>
        <time>2020-03-26T13:01:38Z</time>
        <extensions><gpxtpx:TrackPointExtension><gpxtpx:hr>144</gpxtpx:hr></gpxtpx:TrackPointExtension></extensions>
      </trkpt>
      <trkpt lat="59.175142" lon="17.452903">
        <ele>48.6</ele>
        <time>2020-03-26T13:01:39Z</time>
        <extensions><gpxtpx:TrackPointExtension><gpxtpx:hr>144</gpxtpx:hr></gpxtpx:TrackPointExtension></extensions>
      </trkpt>
      <trkpt lat="59.175205" lon="17.452938">
        <ele>48.8</ele>
        <time>2020-03-26T13:01:40Z</time>
        <extensions><gpxtpx:TrackPointExtension><gpxtpx:hr>145</gpxtpx:hr></gpxtpx:TrackPointExtension></extensions>
      </trkpt>
      <trkpt lat="59.175268" lon="17.452973">
        <ele>48.8</ele>
        <time>2020-03-26T13:01:41Z</time>
        <extensions><gpxtpx:TrackPointExtension><gpxtpx:hr>145</gpxtpx:hr></gpxtpx:TrackPointExtension></extensions>
      </trkpt>
      <trkpt lat="59.175331" lon="17.453008">
        <ele>48.8</ele>
        <time>2020-03-26T13:01:42Z</time>
        <extensions><gpxtpx:TrackPointExtension><gpxtpx:hr>145</gpxtpx:hr></gpxtpx:TrackPointExtension></extensions>
      </trkpt>
      <trkpt lat="59.175397" lon="17.453045">
        <ele>48.8</ele>
        <time>2020-03-26T13:01:43Z</time>
        <extensions><gpxtpx:TrackPointExtension><gpxtpx:hr>145</gpxtpx:hr></gpxtpx:TrackPointExtension></extensions>
      </trkpt>
      <trkpt lat="59.175462" lon="17.453081">
        <ele>49</ele>
        <time>2020-03-26T13:01:44Z</time>
        <extensions><gpxtpx:TrackPointExtension><gpxtpx:hr>145</gpxtpx:hr></gpxtpx:TrackPointExtension></extensions>
      </trkpt>
      <trkpt lat="59.175528" lon="17.453117">
        <ele>49.2</ele>
        <time>2020-03-26T13:01:45Z</time>
        <extensions><gpxtpx:TrackPointExtension><gpxtpx:hr>146</gpxtpx:hr></gpxtpx:TrackPointExtension></extensions>
      </trkpt>
      <trkpt lat="59.175593" lon="17.453153">
        <ele>49.4</ele>
        <time>2020-03-26T13:01:46Z</time>
        <extensions><gpxtpx:TrackPointExtension><gpxtpx:hr>146</gpxtpx:hr></gpxtpx:TrackPointExtension></extensions>
      </trkpt>
      <trkpt lat="59.175659" lon="17.45319">
        <ele>49.4</ele>
        <time>2020-03-26T13:01:47Z</time>
        <extensions><gpxtpx:TrackPointExtension><gpxtpx:hr>146</gpxtpx:hr></gpxtpx:TrackPointExtension></extensions>
      </trkpt>
      <trkpt lat="59.175725" lon="17.453225">
        <ele>49.6</ele>
        <time>2020-03-26T13:01:48Z</time>
        <extensions><gpxtpx:TrackPointExtension><gpxtpx:hr>147</gpxtpx:hr></gpxtpx:TrackPointExtension></extensions>
      </trkpt>
      <trkpt lat="59.17579" lon="17.453264">
        <ele>49.6</ele>
        <time>2020-03-26T13:01:49Z</time>
        <extensions><gpxtpx:TrackPointExtension><gpxtpx:hr>147</gpxtpx:hr></gpxtpx:TrackPointExtension></extensions>
      </trkpt>
      <trkpt lat="59.175855" lon="17.453302">
        <ele>49.8</ele>
        <time>2020-03-26T13:01:50Z</time>
        <extensions><gpxtpx:TrackPointExtension><gpxtpx:hr>147</gpxtpx:hr></gpxtpx:TrackPointExtension></extensions>
      </trkpt>
      <trkpt lat="59.175921" lon="17.453338">
        <ele>49.8</ele>
        <time>2020-03-26T13:01:51Z</time>
        <extensions><gpxtpx:TrackPointExtension><gpxtpx:hr>148</gpxtpx:hr></gpxtpx:TrackPointExtension></extensions>
      </trkpt>
      <trkpt lat="59.175987" lon="17.453374">
        <ele>50</ele>
        <time>2020-03-26T13:01:52Z</time>
        <extensions><gpxtpx:TrackPointExtension><gpxtpx:hr>148</gpxtpx:hr></gpxtpx:TrackPointExtension></extensions>
      </trkpt>
      <trkpt lat="59.176055" lon="17.453415">
        <ele>50</ele>
        <time>2020-03-26T13:01:53Z</time>
        <extensions><gpxtpx:TrackPointExtension><gpxtpx:hr>148</gpxtpx:hr></gpxtpx:TrackPointExtension></extensions>
      </trkpt>
      <trkpt lat="59.176124" lon="17.453456">
        <ele>50.2</ele>
        <time>2020-03-26T13:01:54Z</time>
        <extensions><gpxtpx:TrackPointExtension><gpxtpx:hr>148</gpxtpx:hr></gpxtpx:TrackPointExtension></extensions>
      </trkpt>
      <trkpt lat="59.176193" lon="17.453497">
        <ele>50.2</ele>
        <time>2020-03-26T13:01:55Z</time>
        <extensions><gpxtpx:TrackPointExtension><gpxtpx:hr>148</gpxtpx:hr></gpxtpx:TrackPointExtension></extensions>
      </trkpt>
      <trkpt lat="59.176263" lon="17.453538">
        <ele>50.2</ele>
        <time>2020-03-26T13:01:56Z</time>
        <extensions><gpxtpx:TrackPointExtension><gpxtpx:hr>148</gpxtpx:hr></gpxtpx:TrackPointExtension></extensions>
      </trkpt>
      <trkpt lat="59.176335" lon="17.453578">
        <ele>50.2</ele>
        <time>2020-03-26T13:01:57Z</time>
        <extensions><gpxtpx:TrackPointExtension><gpxtpx:hr>147</gpxtpx:hr></gpxtpx:TrackPointExtension></extensions>
      </trkpt>
      <trkpt lat="59.176406" lon="17.453619">
        <ele>50.2</ele>
        <time>2020-03-26T13:01:58Z</time>
        <extensions><gpxtpx:TrackPointExtension><gpxtpx:hr>147</gpxtpx:hr></gpxtpx:TrackPointExtension></extensions>
      </trkpt>
      <trkpt lat="59.17648" lon="17.453661">
        <ele>50.2</ele>
        <time>2020-03-26T13:01:59Z</time>
        <extensions><gpxtpx:TrackPointExtension><gpxtpx:hr>147</gpxtpx:hr></gpxtpx:TrackPointExtension></extensions>
      </trkpt>
      <trkpt lat="59.176554" lon="17.453704">
        <ele>50.4</ele>
        <time>2020-03-26T13:02:00Z</time>
        <extensions><gpxtpx:TrackPointExtension><gpxtpx:hr>147</gpxtpx:hr></gpxtpx:TrackPointExtension></extensions>
      </trkpt>
      <trkpt lat="59.176629" lon="17.453749">
        <ele>50.2</ele>
        <time>2020-03-26T13:02:01Z</time>
        <extensions><gpxtpx:TrackPointExtension><gpxtpx:hr>147</gpxtpx:hr></gpxtpx:TrackPointExtension></extensions>
      </trkpt>
      <trkpt lat="59.176705" lon="17.453792">
        <ele>50.4</ele>
        <time>2020-03-26T13:02:02Z</time>
        <extensions><gpxtpx:TrackPointExtension><gpxtpx:hr>147</gpxtpx:hr></gpxtpx:TrackPointExtension></extensions>
      </trkpt>
      <trkpt lat="59.176782" lon="17.453835">
        <ele>50.4</ele>
        <time>2020-03-26T13:02:03Z</time>
        <extensions><gpxtpx:TrackPointExtension><gpxtpx:hr>147</gpxtpx:hr></gpxtpx:TrackPointExtension></extensions>
      </trkpt>
      <trkpt lat="59.176859" lon="17.453878">
        <ele>50.4</ele>
        <time>2020-03-26T13:02:04Z</time>
        <extensions><gpxtpx:TrackPointExtension><gpxtpx:hr>147</gpxtpx:hr></gpxtpx:TrackPointExtension></extensions>
      </trkpt>
      <trkpt lat="59.176938" lon="17.453923">
        <ele>50.4</ele>
        <time>2020-03-26T13:02:05Z</time>
        <extensions><gpxtpx:TrackPointExtension><gpxtpx:hr>147</gpxtpx:hr></gpxtpx:TrackPointExtension></extensions>
      </trkpt>
      <trkpt lat="59.177017" lon="17.453968">
        <ele>50.4</ele>
        <time>2020-03-26T13:02:06Z</time>
        <extensions><gpxtpx:TrackPointExtension><gpxtpx:hr>147</gpxtpx:hr></gpxtpx:TrackPointExtension></extensions>
      </trkpt>
      <trkpt lat="59.177097" lon="17.454014">
        <ele>50.4</ele>
        <time>2020-03-26T13:02:07Z</time>
        <extensions><gpxtpx:TrackPointExtension><gpxtpx:hr>147</gpxtpx:hr></gpxtpx:TrackPointExtension></extensions>
      </trkpt>
      <trkpt lat="59.177177" lon="17.454058">
        <ele>50.4</ele>
        <time>2020-03-26T13:02:08Z</time>
        <extensions><gpxtpx:TrackPointExtension><gpxtpx:hr>146</gpxtpx:hr></gpxtpx:TrackPointExtension></extensions>
      </trkpt>
      <trkpt lat="59.177255" lon="17.4541">
        <ele>50.4</ele>
        <time>2020-03-26T13:02:09Z</time>
        <extensions><gpxtpx:TrackPointExtension><gpxtpx:hr>146</gpxtpx:hr></gpxtpx:TrackPointExtension></extensions>
      </trkpt>
      <trkpt lat="59.177333" lon="17.454143">
        <ele>50.2</ele>
        <time>2020-03-26T13:02:10Z</time>
        <extensions><gpxtpx:TrackPointExtension><gpxtpx:hr>146</gpxtpx:hr></gpxtpx:TrackPointExtension></extensions>
      </trkpt>
      <trkpt lat="59.177411" lon="17.454187">
        <ele>50</ele>
        <time>2020-03-26T13:02:11Z</time>
        <extensions><gpxtpx:TrackPointExtension><gpxtpx:hr>145</gpxtpx:hr></gpxtpx:TrackPointExtension></extensions>
      </trkpt>
      <trkpt lat="59.17749" lon="17.454233">
        <ele>50</ele>
        <time>2020-03-26T13:02:12Z</time>
        <extensions><gpxtpx:TrackPointExtension><gpxtpx:hr>144</gpxtpx:hr></gpxtpx:TrackPointExtension></extensions>
      </trkpt>
      <trkpt lat="59.177569" lon="17.45428">
        <ele>49.8</ele>
        <time>2020-03-26T13:02:13Z</time>
        <extensions><gpxtpx:TrackPointExtension><gpxtpx:hr>144</gpxtpx:hr></gpxtpx:TrackPointExtension></extensions>
      </trkpt>
      <trkpt lat="59.17765" lon="17.454327">
        <ele>49.8</ele>
        <time>2020-03-26T13:02:14Z</time>
        <extensions><gpxtpx:TrackPointExtension><gpxtpx:hr>143</gpxtpx:hr></gpxtpx:TrackPointExtension></extensions>
      </trkpt>
      <trkpt lat="59.177731" lon="17.454374">
        <ele>49.6</ele>
        <time>2020-03-26T13:02:15Z</time>
        <extensions><gpxtpx:TrackPointExtension><gpxtpx:hr>143</gpxtpx:hr></gpxtpx:TrackPointExtension></extensions>
      </trkpt>
      <trkpt lat="59.177814" lon="17.454422">
        <ele>49.4</ele>
        <time>2020-03-26T13:02:16Z</time>
        <extensions><gpxtpx:TrackPointExtension><gpxtpx:hr>143</gpxtpx:hr></gpxtpx:TrackPointExtension></extensions>
      </trkpt>
      <trkpt lat="59.177897" lon="17.45447">
        <ele>49.2</ele>
        <time>2020-03-26T13:02:17Z</time>
        <extensions><gpxtpx:TrackPointExtension><gpxtpx:hr>143</gpxtpx:hr></gpxtpx:TrackPointExtension></extensions>
      </trkpt>
      <trkpt lat="59.177982" lon="17.454518">
        <ele>49</ele>
        <time>2020-03-26T13:02:18Z</time>
        <extensions><gpxtpx:TrackPointExtension><gpxtpx:hr>143</gpxtpx:hr></gpxtpx:TrackPointExtension></extensions>
      </trkpt>
      <trkpt lat="59.178067" lon="17.454566">
        <ele>48.6</ele>
        <time>2020-03-26T13:02:19Z</time>
        <extensions><gpxtpx:TrackPointExtension><gpxtpx:hr>143</gpxtpx:hr></gpxtpx:TrackPointExtension></extensions>
      </trkpt>
      <trkpt lat="59.178153" lon="17.454617">
        <ele>48.2</ele>
        <time>2020-03-26T13:02:20Z</time>
        <extensions><gpxtpx:TrackPointExtension><gpxtpx:hr>142</gpxtpx:hr></gpxtpx:TrackPointExtension></extensions>
      </trkpt>
      <trkpt lat="59.178241" lon="17.454668">
        <ele>48</ele>
        <time>2020-03-26T13:02:21Z</time>
        <extensions><gpxtpx:TrackPointExtension><gpxtpx:hr>142</gpxtpx:hr></gpxtpx:TrackPointExtension></extensions>
      </trkpt>
      <trkpt lat="59.17833" lon="17.454721">
        <ele>47.8</ele>
        <time>2020-03-26T13:02:22Z</time>
        <extensions><gpxtpx:TrackPointExtension><gpxtpx:hr>142</gpxtpx:hr></gpxtpx:TrackPointExtension></extensions>
      </trkpt>
      <trkpt lat="59.17842" lon="17.454772">
        <ele>47.6</ele>
        <time>2020-03-26T13:02:23Z</time>
        <extensions><gpxtpx:TrackPointExtension><gpxtpx:hr>141</gpxtpx:hr></gpxtpx:TrackPointExtension></extensions>
      </trkpt>
      <trkpt lat="59.178512" lon="17.454824">
        <ele>47.2</ele>
        <time>2020-03-26T13:02:24Z</time>
        <extensions><gpxtpx:TrackPointExtension><gpxtpx:hr>140</gpxtpx:hr></gpxtpx:TrackPointExtension></extensions>
      </trkpt>
      <trkpt lat="59.178605" lon="17.454876">
        <ele>47</ele>
        <time>2020-03-26T13:02:25Z</time>
        <extensions><gpxtpx:TrackPointExtension><gpxtpx:hr>140</gpxtpx:hr></gpxtpx:TrackPointExtension></extensions>
      </trkpt>
      <trkpt lat="59.178698" lon="17.454929">
        <ele>46.8</ele>
        <time>2020-03-26T13:02:26Z</time>
        <extensions><gpxtpx:TrackPointExtension><gpxtpx:hr>139</gpxtpx:hr></gpxtpx:TrackPointExtension></extensions>
      </trkpt>
      <trkpt lat="59.178794" lon="17.454983">
        <ele>46.4</ele>
        <time>2020-03-26T13:02:27Z</time>
        <extensions><gpxtpx:TrackPointExtension><gpxtpx:hr>139</gpxtpx:hr></gpxtpx:TrackPointExtension></extensions>
      </trkpt>
      <trkpt lat="59.17889" lon="17.455035">
        <ele>46.2</ele>
        <time>2020-03-26T13:02:28Z</time>
        <extensions><gpxtpx:TrackPointExtension><gpxtpx:hr>138</gpxtpx:hr></gpxtpx:TrackPointExtension></extensions>
      </trkpt>
      <trkpt lat="59.178985" lon="17.455087">
        <ele>46</ele>
        <time>2020-03-26T13:02:29Z</time>
        <extensions><gpxtpx:TrackPointExtension><gpxtpx:hr>138</gpxtpx:hr></gpxtpx:TrackPointExtension></extensions>
      </trkpt>
      <trkpt lat="59.179079" lon="17.455138">
        <ele>45.6</ele>
        <time>2020-03-26T13:02:30Z</time>
        <extensions><gpxtpx:TrackPointExtension><gpxtpx:hr>138</gpxtpx:hr></gpxtpx:TrackPointExtension></extensions>
      </trkpt>
      <trkpt lat="59.179173" lon="17.45519">
        <ele>45.6</ele>
        <time>2020-03-26T13:02:31Z</time>
        <extensions><gpxtpx:TrackPointExtension><gpxtpx:hr>138</gpxtpx:hr></gpxtpx:TrackPointExtension></extensions>
      </trkpt>
      <trkpt lat="59.179267" lon="17.455242">
        <ele>45.2</ele>
        <time>2020-03-26T13:02:32Z</time>
        <extensions><gpxtpx:TrackPointExtension><gpxtpx:hr>138</gpxtpx:hr></gpxtpx:TrackPointExtension></extensions>
      </trkpt>
      <trkpt lat="59.179361" lon="17.455292">
        <ele>44.8</ele>
        <time>2020-03-26T13:02:33Z</time>
        <extensions><gpxtpx:TrackPointExtension><gpxtpx:hr>138</gpxtpx:hr></gpxtpx:TrackPointExtension></extensions>
      </trkpt>
      <trkpt lat="59.179455" lon="17.455341">
        <ele>44.6</ele>
        <time>2020-03-26T13:02:34Z</time>
        <extensions><gpxtpx:TrackPointExtension><gpxtpx:hr>138</gpxtpx:hr></gpxtpx:TrackPointExtension></extensions>
      </trkpt>
      <trkpt lat="59.179551" lon="17.45539">
        <ele>44.4</ele>
        <time>2020-03-26T13:02:35Z</time>
        <extensions><gpxtpx:TrackPointExtension><gpxtpx:hr>137</gpxtpx:hr></gpxtpx:TrackPointExtension></extensions>
      </trkpt>
      <trkpt lat="59.179649" lon="17.45544">
        <ele>44.2</ele>
        <time>2020-03-26T13:02:36Z</time>
        <extensions><gpxtpx:TrackPointExtension><gpxtpx:hr>137</gpxtpx:hr></gpxtpx:TrackPointExtension></extensions>
      </trkpt>
      <trkpt lat="59.179748" lon="17.455489">
        <ele>43.6</ele>
        <time>2020-03-26T13:02:37Z</time>
        <extensions><gpxtpx:TrackPointExtension><gpxtpx:hr>137</gpxtpx:hr></gpxtpx:TrackPointExtension></extensions>
      </trkpt>
      <trkpt lat="59.17985" lon="17.455538">
        <ele>43.2</ele>
        <time>2020-03-26T13:02:38Z</time>
        <extensions><gpxtpx:TrackPointExtension><gpxtpx:hr>136</gpxtpx:hr></gpxtpx:TrackPointExtension></extensions>
      </trkpt>
      <trkpt lat="59.179951" lon="17.455587">
        <ele>42.8</ele>
        <time>2020-03-26T13:02:39Z</time>
        <extensions><gpxtpx:TrackPointExtension><gpxtpx:hr>136</gpxtpx:hr></gpxtpx:TrackPointExtension></extensions>
      </trkpt>
      <trkpt lat="59.180055" lon="17.455637">
        <ele>42.6</ele>
        <time>2020-03-26T13:02:40Z</time>
        <extensions><gpxtpx:TrackPointExtension><gpxtpx:hr>136</gpxtpx:hr></gpxtpx:TrackPointExtension></extensions>
      </trkpt>
      <trkpt lat="59.180159" lon="17.455686">
        <ele>42.4</ele>
        <time>2020-03-26T13:02:41Z</time>
        <extensions><gpxtpx:TrackPointExtension><gpxtpx:hr>135</gpxtpx:hr></gpxtpx:TrackPointExtension></extensions>
      </trkpt>
      <trkpt lat="59.180265" lon="17.455733">
        <ele>42.4</ele>
        <time>2020-03-26T13:02:42Z</time>
        <extensions><gpxtpx:TrackPointExtension><gpxtpx:hr>135</gpxtpx:hr></gpxtpx:TrackPointExtension></extensions>
      </trkpt>
      <trkpt lat="59.180371" lon="17.455781">
        <ele>42.4</ele>
        <time>2020-03-26T13:02:43Z</time>
        <extensions><gpxtpx:TrackPointExtension><gpxtpx:hr>134</gpxtpx:hr></gpxtpx:TrackPointExtension></extensions>
      </trkpt>
      <trkpt lat="59.180478" lon="17.455828">
        <ele>42.2</ele>
        <time>2020-03-26T13:02:44Z</time>
        <extensions><gpxtpx:TrackPointExtension><gpxtpx:hr>134</gpxtpx:hr></gpxtpx:TrackPointExtension></extensions>
      </trkpt>
      <trkpt lat="59.180585" lon="17.455875">
        <ele>42</ele>
        <time>2020-03-26T13:02:45Z</time>
        <extensions><gpxtpx:TrackPointExtension><gpxtpx:hr>134</gpxtpx:hr></gpxtpx:TrackPointExtension></extensions>
      </trkpt>
      <trkpt lat="59.180694" lon="17.455921">
        <ele>41.6</ele>
        <time>2020-03-26T13:02:46Z</time>
        <extensions><gpxtpx:TrackPointExtension><gpxtpx:hr>133</gpxtpx:hr></gpxtpx:TrackPointExtension></extensions>
      </trkpt>
      <trkpt lat="59.180803" lon="17.455964">
        <ele>41.2</ele>
        <time>2020-03-26T13:02:47Z</time>
        <extensions><gpxtpx:TrackPointExtension><gpxtpx:hr>132</gpxtpx:hr></gpxtpx:TrackPointExtension></extensions>
      </trkpt>
      <trkpt lat="59.180911" lon="17.456005">
        <ele>40.6</ele>
        <time>2020-03-26T13:02:48Z</time>
        <extensions><gpxtpx:TrackPointExtension><gpxtpx:hr>132</gpxtpx:hr></gpxtpx:TrackPointExtension></extensions>
      </trkpt>
      <trkpt lat="59.18102" lon="17.456047">
        <ele>40.2</ele>
        <time>2020-03-26T13:02:49Z</time>
        <extensions><gpxtpx:TrackPointExtension><gpxtpx:hr>132</gpxtpx:hr></gpxtpx:TrackPointExtension></extensions>
      </trkpt>
      <trkpt lat="59.181128" lon="17.456088">
        <ele>39.8</ele>
        <time>2020-03-26T13:02:50Z</time>
        <extensions><gpxtpx:TrackPointExtension><gpxtpx:hr>131</gpxtpx:hr></gpxtpx:TrackPointExtension></extensions>
      </trkpt>
      <trkpt lat="59.181235" lon="17.45613">
        <ele>39.6</ele>
        <time>2020-03-26T13:02:51Z</time>
        <extensions><gpxtpx:TrackPointExtension><gpxtpx:hr>131</gpxtpx:hr></gpxtpx:TrackPointExtension></extensions>
      </trkpt>
      <trkpt lat="59.181315" lon="17.45616">
        <ele>39.2</ele>
        <time>2020-03-26T13:02:52Z</time>
        <extensions><gpxtpx:TrackPointExtension><gpxtpx:hr>130</gpxtpx:hr></gpxtpx:TrackPointExtension></extensions>
      </trkpt>
      <trkpt lat="59.181395" lon="17.456191">
        <ele>39</ele>
        <time>2020-03-26T13:02:53Z</time>
        <extensions><gpxtpx:TrackPointExtension><gpxtpx:hr>129</gpxtpx:hr></gpxtpx:TrackPointExtension></extensions>
      </trkpt>
      <trkpt lat="59.181554" lon="17.456252">
        <ele>38.6</ele>
        <time>2020-03-26T13:02:54Z</time>
        <extensions><gpxtpx:TrackPointExtension><gpxtpx:hr>128</gpxtpx:hr></gpxtpx:TrackPointExtension></extensions>
      </trkpt>
      <trkpt lat="59.181659" lon="17.456289">
        <ele>38.4</ele>
        <time>2020-03-26T13:02:55Z</time>
        <extensions><gpxtpx:TrackPointExtension><gpxtpx:hr>127</gpxtpx:hr></gpxtpx:TrackPointExtension></extensions>
      </trkpt>
      <trkpt lat="59.181764" lon="17.456324">
        <ele>38</ele>
        <time>2020-03-26T13:02:56Z</time>
        <extensions><gpxtpx:TrackPointExtension><gpxtpx:hr>127</gpxtpx:hr></gpxtpx:TrackPointExtension></extensions>
      </trkpt>
      <trkpt lat="59.18187" lon="17.456359">
        <ele>37.6</ele>
        <time>2020-03-26T13:02:57Z</time>
        <extensions><gpxtpx:TrackPointExtension><gpxtpx:hr>126</gpxtpx:hr></gpxtpx:TrackPointExtension></extensions>
      </trkpt>
      <trkpt lat="59.181978" lon="17.456393">
        <ele>37</ele>
        <time>2020-03-26T13:02:58Z</time>
        <extensions><gpxtpx:TrackPointExtension><gpxtpx:hr>125</gpxtpx:hr></gpxtpx:TrackPointExtension></extensions>
      </trkpt>
      <trkpt lat="59.182089" lon="17.456429">
        <ele>36.6</ele>
        <time>2020-03-26T13:02:59Z</time>
        <extensions><gpxtpx:TrackPointExtension><gpxtpx:hr>125</gpxtpx:hr></gpxtpx:TrackPointExtension></extensions>
      </trkpt>
      <trkpt lat="59.182201" lon="17.456464">
        <ele>36.4</ele>
        <time>2020-03-26T13:03:00Z</time>
        <extensions><gpxtpx:TrackPointExtension><gpxtpx:hr>125</gpxtpx:hr></gpxtpx:TrackPointExtension></extensions>
      </trkpt>
      <trkpt lat="59.182314" lon="17.456496">
        <ele>36</ele>
        <time>2020-03-26T13:03:01Z</time>
        <extensions><gpxtpx:TrackPointExtension><gpxtpx:hr>124</gpxtpx:hr></gpxtpx:TrackPointExtension></extensions>
      </trkpt>
      <trkpt lat="59.182427" lon="17.456529">
        <ele>35</ele>
        <time>2020-03-26T13:03:02Z</time>
        <extensions><gpxtpx:TrackPointExtension><gpxtpx:hr>125</gpxtpx:hr></gpxtpx:TrackPointExtension></extensions>
      </trkpt>
      <trkpt lat="59.182543" lon="17.456561">
        <ele>34.4</ele>
        <time>2020-03-26T13:03:03Z</time>
        <extensions><gpxtpx:TrackPointExtension><gpxtpx:hr>126</gpxtpx:hr></gpxtpx:TrackPointExtension></extensions>
      </trkpt>
      <trkpt lat="59.182659" lon="17.456592">
        <ele>34</ele>
        <time>2020-03-26T13:03:04Z</time>
        <extensions><gpxtpx:TrackPointExtension><gpxtpx:hr>126</gpxtpx:hr></gpxtpx:TrackPointExtension></extensions>
      </trkpt>
      <trkpt lat="59.182775" lon="17.456625">
        <ele>33.8</ele>
        <time>2020-03-26T13:03:05Z</time>
        <extensions><gpxtpx:TrackPointExtension><gpxtpx:hr>127</gpxtpx:hr></gpxtpx:TrackPointExtension></extensions>
      </trkpt>
      <trkpt lat="59.182893" lon="17.456657">
        <ele>33.6</ele>
        <time>2020-03-26T13:03:06Z</time>
        <extensions><gpxtpx:TrackPointExtension><gpxtpx:hr>128</gpxtpx:hr></gpxtpx:TrackPointExtension></extensions>
      </trkpt>
      <trkpt lat="59.183011" lon="17.456686">
        <ele>33</ele>
        <time>2020-03-26T13:03:07Z</time>
        <extensions><gpxtpx:TrackPointExtension><gpxtpx:hr>130</gpxtpx:hr></gpxtpx:TrackPointExtension></extensions>
      </trkpt>
      <trkpt lat="59.183128" lon="17.456715">
        <ele>32.6</ele>
        <time>2020-03-26T13:03:08Z</time>
        <extensions><gpxtpx:TrackPointExtension><gpxtpx:hr>130</gpxtpx:hr></gpxtpx:TrackPointExtension></extensions>
      </trkpt>
      <trkpt lat="59.183245" lon="17.456743">
        <ele>32.2</ele>
        <time>2020-03-26T13:03:09Z</time>
        <extensions><gpxtpx:TrackPointExtension><gpxtpx:hr>131</gpxtpx:hr></gpxtpx:TrackPointExtension></extensions>
      </trkpt>
      <trkpt lat="59.18336" lon="17.456771">
        <ele>31.8</ele>
        <time>2020-03-26T13:03:10Z</time>
        <extensions><gpxtpx:TrackPointExtension><gpxtpx:hr>132</gpxtpx:hr></gpxtpx:TrackPointExtension></extensions>
      </trkpt>
      <trkpt lat="59.183473" lon="17.4568">
        <ele>31.4</ele>
        <time>2020-03-26T13:03:11Z</time>
        <extensions><gpxtpx:TrackPointExtension><gpxtpx:hr>132</gpxtpx:hr></gpxtpx:TrackPointExtension></extensions>
      </trkpt>
      <trkpt lat="59.183585" lon="17.456831">
        <ele>31</ele>
        <time>2020-03-26T13:03:12Z</time>
        <extensions><gpxtpx:TrackPointExtension><gpxtpx:hr>132</gpxtpx:hr></gpxtpx:TrackPointExtension></extensions>
      </trkpt>
      <trkpt lat="59.183695" lon="17.456862">
        <ele>30.8</ele>
        <time>2020-03-26T13:03:13Z</time>
        <extensions><gpxtpx:TrackPointExtension><gpxtpx:hr>133</gpxtpx:hr></gpxtpx:TrackPointExtension></extensions>
      </trkpt>
      <trkpt lat="59.183804" lon="17.456893">
        <ele>30.4</ele>
        <time>2020-03-26T13:03:14Z</time>
        <extensions><gpxtpx:TrackPointExtension><gpxtpx:hr>132</gpxtpx:hr></gpxtpx:TrackPointExtension></extensions>
      </trkpt>
      <trkpt lat="59.183912" lon="17.456918">
        <ele>30</ele>
        <time>2020-03-26T13:03:15Z</time>
        <extensions><gpxtpx:TrackPointExtension><gpxtpx:hr>132</gpxtpx:hr></gpxtpx:TrackPointExtension></extensions>
      </trkpt>
      <trkpt lat="59.184017" lon="17.456938">
        <ele>29.6</ele>
        <time>2020-03-26T13:03:16Z</time>
        <extensions><gpxtpx:TrackPointExtension><gpxtpx:hr>132</gpxtpx:hr></gpxtpx:TrackPointExtension></extensions>
      </trkpt>
      <trkpt lat="59.18412" lon="17.456957">
        <ele>29.4</ele>
        <time>2020-03-26T13:03:17Z</time>
        <extensions><gpxtpx:TrackPointExtension><gpxtpx:hr>131</gpxtpx:hr></gpxtpx:TrackPointExtension></extensions>
      </trkpt>
      <trkpt lat="59.184221" lon="17.456979">
        <ele>29</ele>
        <time>2020-03-26T13:03:18Z</time>
        <extensions><gpxtpx:TrackPointExtension><gpxtpx:hr>130</gpxtpx:hr></gpxtpx:TrackPointExtension></extensions>
      </trkpt>
      <trkpt lat="59.184321" lon="17.457003">
        <ele>28.8</ele>
        <time>2020-03-26T13:03:19Z</time>
        <extensions><gpxtpx:TrackPointExtension><gpxtpx:hr>129</gpxtpx:hr></gpxtpx:TrackPointExtension></extensions>
      </trkpt>
      <trkpt lat="59.184422" lon="17.457027">
        <ele>28.8</ele>
        <time>2020-03-26T13:03:20Z</time>
        <extensions><gpxtpx:TrackPointExtension><gpxtpx:hr>128</gpxtpx:hr></gpxtpx:TrackPointExtension></extensions>
      </trkpt>
      <trkpt lat="59.184523" lon="17.457049">
        <ele>28.6</ele>
        <time>2020-03-26T13:03:21Z</time>
        <extensions><gpxtpx:TrackPointExtension><gpxtpx:hr>128</gpxtpx:hr></gpxtpx:TrackPointExtension></extensions>
      </trkpt>
      <trkpt lat="59.184622" lon="17.457068">
        <ele>28.6</ele>
        <time>2020-03-26T13:03:22Z</time>
        <extensions><gpxtpx:TrackPointExtension><gpxtpx:hr>129</gpxtpx:hr></gpxtpx:TrackPointExtension></extensions>
      </trkpt>
      <trkpt lat="59.184721" lon="17.457086">
        <ele>28.4</ele>
        <time>2020-03-26T13:03:23Z</time>
        <extensions><gpxtpx:TrackPointExtension><gpxtpx:hr>130</gpxtpx:hr></gpxtpx:TrackPointExtension></extensions>
      </trkpt>
      <trkpt lat="59.184819" lon="17.457103">
        <ele>28.4</ele>
        <time>2020-03-26T13:03:24Z</time>
        <extensions><gpxtpx:TrackPointExtension><gpxtpx:hr>131</gpxtpx:hr></gpxtpx:TrackPointExtension></extensions>
      </trkpt>
      <trkpt lat="59.184916" lon="17.457117">
        <ele>28.2</ele>
        <time>2020-03-26T13:03:25Z</time>
        <extensions><gpxtpx:TrackPointExtension><gpxtpx:hr>132</gpxtpx:hr></gpxtpx:TrackPointExtension></extensions>
      </trkpt>
      <trkpt lat="59.185013" lon="17.457131">
        <ele>28</ele>
        <time>2020-03-26T13:03:26Z</time>
        <extensions><gpxtpx:TrackPointExtension><gpxtpx:hr>133</gpxtpx:hr></gpxtpx:TrackPointExtension></extensions>
      </trkpt>
      <trkpt lat="59.185109" lon="17.457147">
        <ele>28</ele>
        <time>2020-03-26T13:03:27Z</time>
        <extensions><gpxtpx:TrackPointExtension><gpxtpx:hr>134</gpxtpx:hr></gpxtpx:TrackPointExtension></extensions>
      </trkpt>
      <trkpt lat="59.185204" lon="17.457163">
        <ele>28</ele>
        <time>2020-03-26T13:03:28Z</time>
        <extensions><gpxtpx:TrackPointExtension><gpxtpx:hr>134</gpxtpx:hr></gpxtpx:TrackPointExtension></extensions>
      </trkpt>
      <trkpt lat="59.185298" lon="17.45718">
        <ele>28</ele>
        <time>2020-03-26T13:03:29Z</time>
        <extensions><gpxtpx:TrackPointExtension><gpxtpx:hr>135</gpxtpx:hr></gpxtpx:TrackPointExtension></extensions>
      </trkpt>
      <trkpt lat="59.185391" lon="17.4572">
        <ele>27.8</ele>
        <time>2020-03-26T13:03:30Z</time>
        <extensions><gpxtpx:TrackPointExtension><gpxtpx:hr>136</gpxtpx:hr></gpxtpx:TrackPointExtension></extensions>
      </trkpt>
      <trkpt lat="59.185483" lon="17.45722">
        <ele>27.8</ele>
        <time>2020-03-26T13:03:31Z</time>
        <extensions><gpxtpx:TrackPointExtension><gpxtpx:hr>136</gpxtpx:hr></gpxtpx:TrackPointExtension></extensions>
      </trkpt>
      <trkpt lat="59.185574" lon="17.457241">
        <ele>28</ele>
        <time>2020-03-26T13:03:32Z</time>
        <extensions><gpxtpx:TrackPointExtension><gpxtpx:hr>137</gpxtpx:hr></gpxtpx:TrackPointExtension></extensions>
      </trkpt>
      <trkpt lat="59.185666" lon="17.457261">
        <ele>28</ele>
        <time>2020-03-26T13:03:33Z</time>
        <extensions><gpxtpx:TrackPointExtension><gpxtpx:hr>138</gpxtpx:hr></gpxtpx:TrackPointExtension></extensions>
      </trkpt>
      <trkpt lat="59.185759" lon="17.457281">
        <ele>28</ele>
        <time>2020-03-26T13:03:34Z</time>
        <extensions><gpxtpx:TrackPointExtension><gpxtpx:hr>138</gpxtpx:hr></gpxtpx:TrackPointExtension></extensions>
      </trkpt>
      <trkpt lat="59.185851" lon="17.4573">
        <ele>28</ele>
        <time>2020-03-26T13:03:35Z</time>
        <extensions><gpxtpx:TrackPointExtension><gpxtpx:hr>139</gpxtpx:hr></gpxtpx:TrackPointExtension></extensions>
      </trkpt>
      <trkpt lat="59.185944" lon="17.457319">
        <ele>28</ele>
        <time>2020-03-26T13:03:36Z</time>
        <extensions><gpxtpx:TrackPointExtension><gpxtpx:hr>140</gpxtpx:hr></gpxtpx:TrackPointExtension></extensions>
      </trkpt>
      <trkpt lat="59.186037" lon="17.457336">
        <ele>28</ele>
        <time>2020-03-26T13:03:37Z</time>
        <extensions><gpxtpx:TrackPointExtension><gpxtpx:hr>140</gpxtpx:hr></gpxtpx:TrackPointExtension></extensions>
      </trkpt>
      <trkpt lat="59.186129" lon="17.457353">
        <ele>28</ele>
        <time>2020-03-26T13:03:38Z</time>
        <extensions><gpxtpx:TrackPointExtension><gpxtpx:hr>139</gpxtpx:hr></gpxtpx:TrackPointExtension></extensions>
      </trkpt>
      <trkpt lat="59.186221" lon="17.457369">
        <ele>28.2</ele>
        <time>2020-03-26T13:03:39Z</time>
        <extensions><gpxtpx:TrackPointExtension><gpxtpx:hr>139</gpxtpx:hr></gpxtpx:TrackPointExtension></extensions>
      </trkpt>
      <trkpt lat="59.186311" lon="17.457382">
        <ele>28.4</ele>
        <time>2020-03-26T13:03:40Z</time>
        <extensions><gpxtpx:TrackPointExtension><gpxtpx:hr>139</gpxtpx:hr></gpxtpx:TrackPointExtension></extensions>
      </trkpt>
      <trkpt lat="59.186399" lon="17.457393">
        <ele>28.6</ele>
        <time>2020-03-26T13:03:41Z</time>
        <extensions><gpxtpx:TrackPointExtension><gpxtpx:hr>141</gpxtpx:hr></gpxtpx:TrackPointExtension></extensions>
      </trkpt>
      <trkpt lat="59.186484" lon="17.457404">
        <ele>28.6</ele>
        <time>2020-03-26T13:03:42Z</time>
        <extensions><gpxtpx:TrackPointExtension><gpxtpx:hr>142</gpxtpx:hr></gpxtpx:TrackPointExtension></extensions>
      </trkpt>
      <trkpt lat="59.186567" lon="17.457416">
        <ele>28.8</ele>
        <time>2020-03-26T13:03:43Z</time>
        <extensions><gpxtpx:TrackPointExtension><gpxtpx:hr>142</gpxtpx:hr></gpxtpx:TrackPointExtension></extensions>
      </trkpt>
      <trkpt lat="59.186647" lon="17.45743">
        <ele>28.8</ele>
        <time>2020-03-26T13:03:44Z</time>
        <extensions><gpxtpx:TrackPointExtension><gpxtpx:hr>142</gpxtpx:hr></gpxtpx:TrackPointExtension></extensions>
      </trkpt>
      <trkpt lat="59.186726" lon="17.457444">
        <ele>28.8</ele>
        <time>2020-03-26T13:03:45Z</time>
        <extensions><gpxtpx:TrackPointExtension><gpxtpx:hr>143</gpxtpx:hr></gpxtpx:TrackPointExtension></extensions>
      </trkpt>
      <trkpt lat="59.186804" lon="17.457464">
        <ele>28.8</ele>
        <time>2020-03-26T13:03:46Z</time>
        <extensions><gpxtpx:TrackPointExtension><gpxtpx:hr>143</gpxtpx:hr></gpxtpx:TrackPointExtension></extensions>
      </trkpt>
      <trkpt lat="59.18688" lon="17.457494">
        <ele>28.8</ele>
        <time>2020-03-26T13:03:47Z</time>
        <extensions><gpxtpx:TrackPointExtension><gpxtpx:hr>143</gpxtpx:hr></gpxtpx:TrackPointExtension></extensions>
      </trkpt>
      <trkpt lat="59.186952" lon="17.457535">
        <ele>28.8</ele>
        <time>2020-03-26T13:03:48Z</time>
        <extensions><gpxtpx:TrackPointExtension><gpxtpx:hr>143</gpxtpx:hr></gpxtpx:TrackPointExtension></extensions>
      </trkpt>
      <trkpt lat="59.187021" lon="17.457589">
        <ele>28.8</ele>
        <time>2020-03-26T13:03:49Z</time>
        <extensions><gpxtpx:TrackPointExtension><gpxtpx:hr>143</gpxtpx:hr></gpxtpx:TrackPointExtension></extensions>
      </trkpt>
      <trkpt lat="59.187088" lon="17.457647">
        <ele>29</ele>
        <time>2020-03-26T13:03:50Z</time>
        <extensions><gpxtpx:TrackPointExtension><gpxtpx:hr>143</gpxtpx:hr></gpxtpx:TrackPointExtension></extensions>
      </trkpt>
      <trkpt lat="59.187154" lon="17.457694">
        <ele>29</ele>
        <time>2020-03-26T13:03:51Z</time>
        <extensions><gpxtpx:TrackPointExtension><gpxtpx:hr>144</gpxtpx:hr></gpxtpx:TrackPointExtension></extensions>
      </trkpt>
      <trkpt lat="59.187223" lon="17.457721">
        <ele>29</ele>
        <time>2020-03-26T13:03:52Z</time>
        <extensions><gpxtpx:TrackPointExtension><gpxtpx:hr>144</gpxtpx:hr></gpxtpx:TrackPointExtension></extensions>
      </trkpt>
      <trkpt lat="59.187294" lon="17.457725">
        <ele>29.2</ele>
        <time>2020-03-26T13:03:53Z</time>
        <extensions><gpxtpx:TrackPointExtension><gpxtpx:hr>145</gpxtpx:hr></gpxtpx:TrackPointExtension></extensions>
      </trkpt>
      <trkpt lat="59.187366" lon="17.457717">
        <ele>29.2</ele>
        <time>2020-03-26T13:03:54Z</time>
        <extensions><gpxtpx:TrackPointExtension><gpxtpx:hr>145</gpxtpx:hr></gpxtpx:TrackPointExtension></extensions>
      </trkpt>
      <trkpt lat="59.187441" lon="17.45771">
        <ele>29.4</ele>
        <time>2020-03-26T13:03:55Z</time>
        <extensions><gpxtpx:TrackPointExtension><gpxtpx:hr>145</gpxtpx:hr></gpxtpx:TrackPointExtension></extensions>
      </trkpt>
      <trkpt lat="59.187517" lon="17.457714">
        <ele>29.4</ele>
        <time>2020-03-26T13:03:56Z</time>
        <extensions><gpxtpx:TrackPointExtension><gpxtpx:hr>145</gpxtpx:hr></gpxtpx:TrackPointExtension></extensions>
      </trkpt>
      <trkpt lat="59.187594" lon="17.457733">
        <ele>29.6</ele>
        <time>2020-03-26T13:03:57Z</time>
        <extensions><gpxtpx:TrackPointExtension><gpxtpx:hr>144</gpxtpx:hr></gpxtpx:TrackPointExtension></extensions>
      </trkpt>
      <trkpt lat="59.187672" lon="17.457762">
        <ele>29.8</ele>
        <time>2020-03-26T13:03:58Z</time>
        <extensions><gpxtpx:TrackPointExtension><gpxtpx:hr>144</gpxtpx:hr></gpxtpx:TrackPointExtension></extensions>
      </trkpt>
      <trkpt lat="59.187748" lon="17.457796">
        <ele>30</ele>
        <time>2020-03-26T13:03:59Z</time>
        <extensions><gpxtpx:TrackPointExtension><gpxtpx:hr>144</gpxtpx:hr></gpxtpx:TrackPointExtension></extensions>
      </trkpt>
      <trkpt lat="59.187826" lon="17.457831">
        <ele>30.2</ele>
        <time>2020-03-26T13:04:00Z</time>
        <extensions><gpxtpx:TrackPointExtension><gpxtpx:hr>144</gpxtpx:hr></gpxtpx:TrackPointExtension></extensions>
      </trkpt>
      <trkpt lat="59.187905" lon="17.457867">
        <ele>30.2</ele>
        <time>2020-03-26T13:04:01Z</time>
        <extensions><gpxtpx:TrackPointExtension><gpxtpx:hr>144</gpxtpx:hr></gpxtpx:TrackPointExtension></extensions>
      </trkpt>
      <trkpt lat="59.187985" lon="17.457903">
        <ele>30.4</ele>
        <time>2020-03-26T13:04:02Z</time>
        <extensions><gpxtpx:TrackPointExtension><gpxtpx:hr>144</gpxtpx:hr></gpxtpx:TrackPointExtension></extensions>
      </trkpt>
      <trkpt lat="59.188064" lon="17.457941">
        <ele>30.4</ele>
        <time>2020-03-26T13:04:03Z</time>
        <extensions><gpxtpx:TrackPointExtension><gpxtpx:hr>144</gpxtpx:hr></gpxtpx:TrackPointExtension></extensions>
      </trkpt>
      <trkpt lat="59.188144" lon="17.457981">
        <ele>30.4</ele>
        <time>2020-03-26T13:04:04Z</time>
        <extensions><gpxtpx:TrackPointExtension><gpxtpx:hr>144</gpxtpx:hr></gpxtpx:TrackPointExtension></extensions>
      </trkpt>
      <trkpt lat="59.188223" lon="17.458025">
        <ele>30.4</ele>
        <time>2020-03-26T13:04:05Z</time>
        <extensions><gpxtpx:TrackPointExtension><gpxtpx:hr>143</gpxtpx:hr></gpxtpx:TrackPointExtension></extensions>
      </trkpt>
      <trkpt lat="59.188303" lon="17.458069">
        <ele>30.4</ele>
        <time>2020-03-26T13:04:06Z</time>
        <extensions><gpxtpx:TrackPointExtension><gpxtpx:hr>143</gpxtpx:hr></gpxtpx:TrackPointExtension></extensions>
      </trkpt>
      <trkpt lat="59.188383" lon="17.458113">
        <ele>30.4</ele>
        <time>2020-03-26T13:04:07Z</time>
        <extensions><gpxtpx:TrackPointExtension><gpxtpx:hr>142</gpxtpx:hr></gpxtpx:TrackPointExtension></extensions>
      </trkpt>
      <trkpt lat="59.188462" lon="17.458156">
        <ele>30.4</ele>
        <time>2020-03-26T13:04:08Z</time>
        <extensions><gpxtpx:TrackPointExtension><gpxtpx:hr>142</gpxtpx:hr></gpxtpx:TrackPointExtension></extensions>
      </trkpt>
      <trkpt lat="59.18852" lon="17.45819">
        <ele>30.4</ele>
        <time>2020-03-26T13:04:09Z</time>
        <extensions><gpxtpx:TrackPointExtension><gpxtpx:hr>142</gpxtpx:hr></gpxtpx:TrackPointExtension></extensions>
      </trkpt>
      <trkpt lat="59.188578" lon="17.458224">
        <ele>30.4</ele>
        <time>2020-03-26T13:04:10Z</time>
        <extensions><gpxtpx:TrackPointExtension><gpxtpx:hr>142</gpxtpx:hr></gpxtpx:TrackPointExtension></extensions>
      </trkpt>
      <trkpt lat="59.188693" lon="17.458293">
        <ele>30.4</ele>
        <time>2020-03-26T13:04:11Z</time>
        <extensions><gpxtpx:TrackPointExtension><gpxtpx:hr>143</gpxtpx:hr></gpxtpx:TrackPointExtension></extensions>
      </trkpt>
      <trkpt lat="59.188767" lon="17.458337">
        <ele>30.4</ele>
        <time>2020-03-26T13:04:12Z</time>
        <extensions><gpxtpx:TrackPointExtension><gpxtpx:hr>143</gpxtpx:hr></gpxtpx:TrackPointExtension></extensions>
      </trkpt>
      <trkpt lat="59.188839" lon="17.458383">
        <ele>30.4</ele>
        <time>2020-03-26T13:04:13Z</time>
        <extensions><gpxtpx:TrackPointExtension><gpxtpx:hr>143</gpxtpx:hr></gpxtpx:TrackPointExtension></extensions>
      </trkpt>
      <trkpt lat="59.188908" lon="17.458429">
        <ele>30.2</ele>
        <time>2020-03-26T13:04:14Z</time>
        <extensions><gpxtpx:TrackPointExtension><gpxtpx:hr>143</gpxtpx:hr></gpxtpx:TrackPointExtension></extensions>
      </trkpt>
      <trkpt lat="59.188977" lon="17.458473">
        <ele>30.2</ele>
        <time>2020-03-26T13:04:15Z</time>
        <extensions><gpxtpx:TrackPointExtension><gpxtpx:hr>143</gpxtpx:hr></gpxtpx:TrackPointExtension></extensions>
      </trkpt>
      <trkpt lat="59.189045" lon="17.458516">
        <ele>30.2</ele>
        <time>2020-03-26T13:04:16Z</time>
        <extensions><gpxtpx:TrackPointExtension><gpxtpx:hr>143</gpxtpx:hr></gpxtpx:TrackPointExtension></extensions>
      </trkpt>
      <trkpt lat="59.189114" lon="17.458562">
        <ele>30.2</ele>
        <time>2020-03-26T13:04:17Z</time>
        <extensions><gpxtpx:TrackPointExtension><gpxtpx:hr>143</gpxtpx:hr></gpxtpx:TrackPointExtension></extensions>
      </trkpt>
      <trkpt lat="59.189183" lon="17.458608">
        <ele>30.2</ele>
        <time>2020-03-26T13:04:18Z</time>
        <extensions><gpxtpx:TrackPointExtension><gpxtpx:hr>143</gpxtpx:hr></gpxtpx:TrackPointExtension></extensions>
      </trkpt>
      <trkpt lat="59.189252" lon="17.458652">
        <ele>30.2</ele>
        <time>2020-03-26T13:04:19Z</time>
        <extensions><gpxtpx:TrackPointExtension><gpxtpx:hr>143</gpxtpx:hr></gpxtpx:TrackPointExtension></extensions>
      </trkpt>
      <trkpt lat="59.189321" lon="17.458695">
        <ele>30.2</ele>
        <time>2020-03-26T13:04:20Z</time>
        <extensions><gpxtpx:TrackPointExtension><gpxtpx:hr>143</gpxtpx:hr></gpxtpx:TrackPointExtension></extensions>
      </trkpt>
      <trkpt lat="59.189391" lon="17.458735">
        <ele>30.2</ele>
        <time>2020-03-26T13:04:21Z</time>
        <extensions><gpxtpx:TrackPointExtension><gpxtpx:hr>143</gpxtpx:hr></gpxtpx:TrackPointExtension></extensions>
      </trkpt>
      <trkpt lat="59.189462" lon="17.458777">
        <ele>30.2</ele>
        <time>2020-03-26T13:04:22Z</time>
        <extensions><gpxtpx:TrackPointExtension><gpxtpx:hr>144</gpxtpx:hr></gpxtpx:TrackPointExtension></extensions>
      </trkpt>
      <trkpt lat="59.189533" lon="17.458822">
        <ele>30.2</ele>
        <time>2020-03-26T13:04:23Z</time>
        <extensions><gpxtpx:TrackPointExtension><gpxtpx:hr>144</gpxtpx:hr></gpxtpx:TrackPointExtension></extensions>
      </trkpt>
      <trkpt lat="59.189605" lon="17.458865">
        <ele>30.2</ele>
        <time>2020-03-26T13:04:24Z</time>
        <extensions><gpxtpx:TrackPointExtension><gpxtpx:hr>144</gpxtpx:hr></gpxtpx:TrackPointExtension></extensions>
      </trkpt>
      <trkpt lat="59.189675" lon="17.458906">
        <ele>30.2</ele>
        <time>2020-03-26T13:04:25Z</time>
        <extensions><gpxtpx:TrackPointExtension><gpxtpx:hr>144</gpxtpx:hr></gpxtpx:TrackPointExtension></extensions>
      </trkpt>
      <trkpt lat="59.189742" lon="17.458946">
        <ele>30.2</ele>
        <time>2020-03-26T13:04:26Z</time>
        <extensions><gpxtpx:TrackPointExtension><gpxtpx:hr>145</gpxtpx:hr></gpxtpx:TrackPointExtension></extensions>
      </trkpt>
      <trkpt lat="59.189807" lon="17.458984">
        <ele>30.4</ele>
        <time>2020-03-26T13:04:27Z</time>
        <extensions><gpxtpx:TrackPointExtension><gpxtpx:hr>146</gpxtpx:hr></gpxtpx:TrackPointExtension></extensions>
      </trkpt>
      <trkpt lat="59.18987" lon="17.459022">
        <ele>30.6</ele>
        <time>2020-03-26T13:04:28Z</time>
        <extensions><gpxtpx:TrackPointExtension><gpxtpx:hr>146</gpxtpx:hr></gpxtpx:TrackPointExtension></extensions>
      </trkpt>
      <trkpt lat="59.189933" lon="17.459061">
        <ele>30.8</ele>
        <time>2020-03-26T13:04:29Z</time>
        <extensions><gpxtpx:TrackPointExtension><gpxtpx:hr>147</gpxtpx:hr></gpxtpx:TrackPointExtension></extensions>
      </trkpt>
      <trkpt lat="59.189997" lon="17.459097">
        <ele>31</ele>
        <time>2020-03-26T13:04:30Z</time>
        <extensions><gpxtpx:TrackPointExtension><gpxtpx:hr>147</gpxtpx:hr></gpxtpx:TrackPointExtension></extensions>
      </trkpt>
      <trkpt lat="59.19006" lon="17.459132">
        <ele>31.2</ele>
        <time>2020-03-26T13:04:31Z</time>
        <extensions><gpxtpx:TrackPointExtension><gpxtpx:hr>148</gpxtpx:hr></gpxtpx:TrackPointExtension></extensions>
      </trkpt>
      <trkpt lat="59.190124" lon="17.459168">
        <ele>31.6</ele>
        <time>2020-03-26T13:04:32Z</time>
        <extensions><gpxtpx:TrackPointExtension><gpxtpx:hr>148</gpxtpx:hr></gpxtpx:TrackPointExtension></extensions>
      </trkpt>
      <trkpt lat="59.190187" lon="17.459205">
        <ele>31.8</ele>
        <time>2020-03-26T13:04:33Z</time>
        <extensions><gpxtpx:TrackPointExtension><gpxtpx:hr>149</gpxtpx:hr></gpxtpx:TrackPointExtension></extensions>
      </trkpt>
      <trkpt lat="59.190249" lon="17.459244">
        <ele>32</ele>
        <time>2020-03-26T13:04:34Z</time>
        <extensions><gpxtpx:TrackPointExtension><gpxtpx:hr>149</gpxtpx:hr></gpxtpx:TrackPointExtension></extensions>
      </trkpt>
      <trkpt lat="59.190311" lon="17.459282">
        <ele>32.2</ele>
        <time>2020-03-26T13:04:35Z</time>
        <extensions><gpxtpx:TrackPointExtension><gpxtpx:hr>149</gpxtpx:hr></gpxtpx:TrackPointExtension></extensions>
      </trkpt>
      <trkpt lat="59.190373" lon="17.45932">
        <ele>32.2</ele>
        <time>2020-03-26T13:04:36Z</time>
        <extensions><gpxtpx:TrackPointExtension><gpxtpx:hr>149</gpxtpx:hr></gpxtpx:TrackPointExtension></extensions>
      </trkpt>
      <trkpt lat="59.190435" lon="17.459358">
        <ele>32.4</ele>
        <time>2020-03-26T13:04:37Z</time>
        <extensions><gpxtpx:TrackPointExtension><gpxtpx:hr>150</gpxtpx:hr></gpxtpx:TrackPointExtension></extensions>
      </trkpt>
      <trkpt lat="59.190496" lon="17.459395">
        <ele>32.8</ele>
        <time>2020-03-26T13:04:38Z</time>
        <extensions><gpxtpx:TrackPointExtension><gpxtpx:hr>150</gpxtpx:hr></gpxtpx:TrackPointExtension></extensions>
      </trkpt>
      <trkpt lat="59.190558" lon="17.459433">
        <ele>32.8</ele>
        <time>2020-03-26T13:04:39Z</time>
        <extensions><gpxtpx:TrackPointExtension><gpxtpx:hr>150</gpxtpx:hr></gpxtpx:TrackPointExtension></extensions>
      </trkpt>
      <trkpt lat="59.190619" lon="17.459469">
        <ele>33</ele>
        <time>2020-03-26T13:04:40Z</time>
        <extensions><gpxtpx:TrackPointExtension><gpxtpx:hr>150</gpxtpx:hr></gpxtpx:TrackPointExtension></extensions>
      </trkpt>
      <trkpt lat="59.19068" lon="17.459503">
        <ele>33</ele>
        <time>2020-03-26T13:04:41Z</time>
        <extensions><gpxtpx:TrackPointExtension><gpxtpx:hr>150</gpxtpx:hr></gpxtpx:TrackPointExtension></extensions>
      </trkpt>
      <trkpt lat="59.190742" lon="17.459539">
        <ele>33</ele>
        <time>2020-03-26T13:04:42Z</time>
        <extensions><gpxtpx:TrackPointExtension><gpxtpx:hr>150</gpxtpx:hr></gpxtpx:TrackPointExtension></extensions>
      </trkpt>
      <trkpt lat="59.190804" lon="17.459575">
        <ele>33.4</ele>
        <time>2020-03-26T13:04:43Z</time>
        <extensions><gpxtpx:TrackPointExtension><gpxtpx:hr>150</gpxtpx:hr></gpxtpx:TrackPointExtension></extensions>
      </trkpt>
      <trkpt lat="59.190866" lon="17.459611">
        <ele>33.4</ele>
        <time>2020-03-26T13:04:44Z</time>
        <extensions><gpxtpx:TrackPointExtension><gpxtpx:hr>150</gpxtpx:hr></gpxtpx:TrackPointExtension></extensions>
      </trkpt>
      <trkpt lat="59.190928" lon="17.45965">
        <ele>33.4</ele>
        <time>2020-03-26T13:04:45Z</time>
        <extensions><gpxtpx:TrackPointExtension><gpxtpx:hr>150</gpxtpx:hr></gpxtpx:TrackPointExtension></extensions>
      </trkpt>
      <trkpt lat="59.19099" lon="17.45969">
        <ele>33.6</ele>
        <time>2020-03-26T13:04:46Z</time>
        <extensions><gpxtpx:TrackPointExtension><gpxtpx:hr>150</gpxtpx:hr></gpxtpx:TrackPointExtension></extensions>
      </trkpt>
      <trkpt lat="59.191053" lon="17.459727">
        <ele>33.6</ele>
        <time>2020-03-26T13:04:47Z</time>
        <extensions><gpxtpx:TrackPointExtension><gpxtpx:hr>150</gpxtpx:hr></gpxtpx:TrackPointExtension></extensions>
      </trkpt>
      <trkpt lat="59.191116" lon="17.459762">
        <ele>33.8</ele>
        <time>2020-03-26T13:04:48Z</time>
        <extensions><gpxtpx:TrackPointExtension><gpxtpx:hr>150</gpxtpx:hr></gpxtpx:TrackPointExtension></extensions>
      </trkpt>
      <trkpt lat="59.191179" lon="17.459795">
        <ele>33.8</ele>
        <time>2020-03-26T13:04:49Z</time>
        <extensions><gpxtpx:TrackPointExtension><gpxtpx:hr>150</gpxtpx:hr></gpxtpx:TrackPointExtension></extensions>
      </trkpt>
      <trkpt lat="59.191239" lon="17.459829">
        <ele>34</ele>
        <time>2020-03-26T13:04:50Z</time>
        <extensions><gpxtpx:TrackPointExtension><gpxtpx:hr>150</gpxtpx:hr></gpxtpx:TrackPointExtension></extensions>
      </trkpt>
      <trkpt lat="59.191296" lon="17.459866">
        <ele>34.2</ele>
        <time>2020-03-26T13:04:51Z</time>
        <extensions><gpxtpx:TrackPointExtension><gpxtpx:hr>149</gpxtpx:hr></gpxtpx:TrackPointExtension></extensions>
      </trkpt>
      <trkpt lat="59.191345" lon="17.459905">
        <ele>34.4</ele>
        <time>2020-03-26T13:04:52Z</time>
        <extensions><gpxtpx:TrackPointExtension><gpxtpx:hr>149</gpxtpx:hr></gpxtpx:TrackPointExtension></extensions>
      </trkpt>
      <trkpt lat="59.191381" lon="17.45996">
        <ele>34.6</ele>
        <time>2020-03-26T13:04:53Z</time>
        <extensions><gpxtpx:TrackPointExtension><gpxtpx:hr>149</gpxtpx:hr></gpxtpx:TrackPointExtension></extensions>
      </trkpt>
      <trkpt lat="59.191403" lon="17.460038">
        <ele>34.8</ele>
        <time>2020-03-26T13:04:54Z</time>
        <extensions><gpxtpx:TrackPointExtension><gpxtpx:hr>149</gpxtpx:hr></gpxtpx:TrackPointExtension></extensions>
      </trkpt>
      <trkpt lat="59.191404" lon="17.460126">
        <ele>35.2</ele>
        <time>2020-03-26T13:04:55Z</time>
        <extensions><gpxtpx:TrackPointExtension><gpxtpx:hr>148</gpxtpx:hr></gpxtpx:TrackPointExtension></extensions>
      </trkpt>
      <trkpt lat="59.191387" lon="17.460214">
        <ele>35.4</ele>
        <time>2020-03-26T13:04:56Z</time>
        <extensions><gpxtpx:TrackPointExtension><gpxtpx:hr>148</gpxtpx:hr></gpxtpx:TrackPointExtension></extensions>
      </trkpt>
      <trkpt lat="59.19136" lon="17.460304">
        <ele>35.8</ele>
        <time>2020-03-26T13:04:57Z</time>
        <extensions><gpxtpx:TrackPointExtension><gpxtpx:hr>147</gpxtpx:hr></gpxtpx:TrackPointExtension></extensions>
      </trkpt>
      <trkpt lat="59.191329" lon="17.460406">
        <ele>35.8</ele>
        <time>2020-03-26T13:04:58Z</time>
        <extensions><gpxtpx:TrackPointExtension><gpxtpx:hr>146</gpxtpx:hr></gpxtpx:TrackPointExtension></extensions>
      </trkpt>
      <trkpt lat="59.191297" lon="17.460512">
        <ele>35.8</ele>
        <time>2020-03-26T13:04:59Z</time>
        <extensions><gpxtpx:TrackPointExtension><gpxtpx:hr>146</gpxtpx:hr></gpxtpx:TrackPointExtension></extensions>
      </trkpt>
      <trkpt lat="59.191262" lon="17.46062">
        <ele>35.8</ele>
        <time>2020-03-26T13:05:00Z</time>
        <extensions><gpxtpx:TrackPointExtension><gpxtpx:hr>146</gpxtpx:hr></gpxtpx:TrackPointExtension></extensions>
      </trkpt>
      <trkpt lat="59.191227" lon="17.46073">
        <ele>35.8</ele>
        <time>2020-03-26T13:05:01Z</time>
        <extensions><gpxtpx:TrackPointExtension><gpxtpx:hr>146</gpxtpx:hr></gpxtpx:TrackPointExtension></extensions>
      </trkpt>
      <trkpt lat="59.191192" lon="17.460841">
        <ele>36</ele>
        <time>2020-03-26T13:05:02Z</time>
        <extensions><gpxtpx:TrackPointExtension><gpxtpx:hr>146</gpxtpx:hr></gpxtpx:TrackPointExtension></extensions>
      </trkpt>
      <trkpt lat="59.191157" lon="17.460951">
        <ele>36</ele>
        <time>2020-03-26T13:05:03Z</time>
        <extensions><gpxtpx:TrackPointExtension><gpxtpx:hr>146</gpxtpx:hr></gpxtpx:TrackPointExtension></extensions>
      </trkpt>
      <trkpt lat="59.191122" lon="17.461062">
        <ele>36</ele>
        <time>2020-03-26T13:05:04Z</time>
        <extensions><gpxtpx:TrackPointExtension><gpxtpx:hr>146</gpxtpx:hr></gpxtpx:TrackPointExtension></extensions>
      </trkpt>
      <trkpt lat="59.191087" lon="17.461174">
        <ele>36</ele>
        <time>2020-03-26T13:05:05Z</time>
        <extensions><gpxtpx:TrackPointExtension><gpxtpx:hr>146</gpxtpx:hr></gpxtpx:TrackPointExtension></extensions>
      </trkpt>
      <trkpt lat="59.191051" lon="17.461288">
        <ele>36</ele>
        <time>2020-03-26T13:05:06Z</time>
        <extensions><gpxtpx:TrackPointExtension><gpxtpx:hr>146</gpxtpx:hr></gpxtpx:TrackPointExtension></extensions>
      </trkpt>
      <trkpt lat="59.191013" lon="17.461405">
        <ele>36</ele>
        <time>2020-03-26T13:05:07Z</time>
        <extensions><gpxtpx:TrackPointExtension><gpxtpx:hr>146</gpxtpx:hr></gpxtpx:TrackPointExtension></extensions>
      </trkpt>
      <trkpt lat="59.190975" lon="17.461521">
        <ele>36.2</ele>
        <time>2020-03-26T13:05:08Z</time>
        <extensions><gpxtpx:TrackPointExtension><gpxtpx:hr>146</gpxtpx:hr></gpxtpx:TrackPointExtension></extensions>
      </trkpt>
      <trkpt lat="59.190935" lon="17.461637">
        <ele>36.2</ele>
        <time>2020-03-26T13:05:09Z</time>
        <extensions><gpxtpx:TrackPointExtension><gpxtpx:hr>146</gpxtpx:hr></gpxtpx:TrackPointExtension></extensions>
      </trkpt>
      <trkpt lat="59.190895" lon="17.461755">
        <ele>36.2</ele>
        <time>2020-03-26T13:05:10Z</time>
        <extensions><gpxtpx:TrackPointExtension><gpxtpx:hr>146</gpxtpx:hr></gpxtpx:TrackPointExtension></extensions>
      </trkpt>
      <trkpt lat="59.190856" lon="17.461876">
        <ele>36.2</ele>
        <time>2020-03-26T13:05:11Z</time>
        <extensions><gpxtpx:TrackPointExtension><gpxtpx:hr>146</gpxtpx:hr></gpxtpx:TrackPointExtension></extensions>
      </trkpt>
      <trkpt lat="59.190818" lon="17.461999">
        <ele>36.2</ele>
        <time>2020-03-26T13:05:12Z</time>
        <extensions><gpxtpx:TrackPointExtension><gpxtpx:hr>147</gpxtpx:hr></gpxtpx:TrackPointExtension></extensions>
      </trkpt>
      <trkpt lat="59.190778" lon="17.462125">
        <ele>36.2</ele>
        <time>2020-03-26T13:05:13Z</time>
        <extensions><gpxtpx:TrackPointExtension><gpxtpx:hr>147</gpxtpx:hr></gpxtpx:TrackPointExtension></extensions>
      </trkpt>
      <trkpt lat="59.190738" lon="17.462254">
        <ele>36.2</ele>
        <time>2020-03-26T13:05:14Z</time>
        <extensions><gpxtpx:TrackPointExtension><gpxtpx:hr>147</gpxtpx:hr></gpxtpx:TrackPointExtension></extensions>
      </trkpt>
      <trkpt lat="59.190696" lon="17.462382">
        <ele>36.2</ele>
        <time>2020-03-26T13:05:15Z</time>
        <extensions><gpxtpx:TrackPointExtension><gpxtpx:hr>148</gpxtpx:hr></gpxtpx:TrackPointExtension></extensions>
      </trkpt>
      <trkpt lat="59.190654" lon="17.462511">
        <ele>36.4</ele>
        <time>2020-03-26T13:05:16Z</time>
        <extensions><gpxtpx:TrackPointExtension><gpxtpx:hr>148</gpxtpx:hr></gpxtpx:TrackPointExtension></extensions>
      </trkpt>
      <trkpt lat="59.190613" lon="17.462639">
        <ele>36.4</ele>
        <time>2020-03-26T13:05:17Z</time>
        <extensions><gpxtpx:TrackPointExtension><gpxtpx:hr>148</gpxtpx:hr></gpxtpx:TrackPointExtension></extensions>
      </trkpt>
      <trkpt lat="59.190572" lon="17.462768">
        <ele>36.4</ele>
        <time>2020-03-26T13:05:18Z</time>
        <extensions><gpxtpx:TrackPointExtension><gpxtpx:hr>148</gpxtpx:hr></gpxtpx:TrackPointExtension></extensions>
      </trkpt>
      <trkpt lat="59.19053" lon="17.462895">
        <ele>36.4</ele>
        <time>2020-03-26T13:05:19Z</time>
        <extensions><gpxtpx:TrackPointExtension><gpxtpx:hr>148</gpxtpx:hr></gpxtpx:TrackPointExtension></extensions>
      </trkpt>
      <trkpt lat="59.190488" lon="17.463023">
        <ele>36.2</ele>
        <time>2020-03-26T13:05:20Z</time>
        <extensions><gpxtpx:TrackPointExtension><gpxtpx:hr>148</gpxtpx:hr></gpxtpx:TrackPointExtension></extensions>
      </trkpt>
      <trkpt lat="59.190447" lon="17.463152">
        <ele>36.2</ele>
        <time>2020-03-26T13:05:21Z</time>
        <extensions><gpxtpx:TrackPointExtension><gpxtpx:hr>148</gpxtpx:hr></gpxtpx:TrackPointExtension></extensions>
      </trkpt>
      <trkpt lat="59.190406" lon="17.463281">
        <ele>36.2</ele>
        <time>2020-03-26T13:05:22Z</time>
        <extensions><gpxtpx:TrackPointExtension><gpxtpx:hr>148</gpxtpx:hr></gpxtpx:TrackPointExtension></extensions>
      </trkpt>
      <trkpt lat="59.190367" lon="17.463411">
        <ele>36.2</ele>
        <time>2020-03-26T13:05:23Z</time>
        <extensions><gpxtpx:TrackPointExtension><gpxtpx:hr>147</gpxtpx:hr></gpxtpx:TrackPointExtension></extensions>
      </trkpt>
      <trkpt lat="59.190327" lon="17.463541">
        <ele>36</ele>
        <time>2020-03-26T13:05:24Z</time>
        <extensions><gpxtpx:TrackPointExtension><gpxtpx:hr>147</gpxtpx:hr></gpxtpx:TrackPointExtension></extensions>
      </trkpt>
      <trkpt lat="59.190287" lon="17.463671">
        <ele>35.6</ele>
        <time>2020-03-26T13:05:25Z</time>
        <extensions><gpxtpx:TrackPointExtension><gpxtpx:hr>147</gpxtpx:hr></gpxtpx:TrackPointExtension></extensions>
      </trkpt>
      <trkpt lat="59.190247" lon="17.463801">
        <ele>35.4</ele>
        <time>2020-03-26T13:05:26Z</time>
        <extensions><gpxtpx:TrackPointExtension><gpxtpx:hr>146</gpxtpx:hr></gpxtpx:TrackPointExtension></extensions>
      </trkpt>
      <trkpt lat="59.190207" lon="17.463929">
        <ele>35.2</ele>
        <time>2020-03-26T13:05:27Z</time>
        <extensions><gpxtpx:TrackPointExtension><gpxtpx:hr>146</gpxtpx:hr></gpxtpx:TrackPointExtension></extensions>
      </trkpt>
      <trkpt lat="59.190167" lon="17.464057">
        <ele>35.2</ele>
        <time>2020-03-26T13:05:28Z</time>
        <extensions><gpxtpx:TrackPointExtension><gpxtpx:hr>146</gpxtpx:hr></gpxtpx:TrackPointExtension></extensions>
      </trkpt>
      <trkpt lat="59.190128" lon="17.464185">
        <ele>35.2</ele>
        <time>2020-03-26T13:05:29Z</time>
        <extensions><gpxtpx:TrackPointExtension><gpxtpx:hr>146</gpxtpx:hr></gpxtpx:TrackPointExtension></extensions>
      </trkpt>
      <trkpt lat="59.190092" lon="17.464314">
        <ele>35.2</ele>
        <time>2020-03-26T13:05:30Z</time>
        <extensions><gpxtpx:TrackPointExtension><gpxtpx:hr>146</gpxtpx:hr></gpxtpx:TrackPointExtension></extensions>
      </trkpt>
      <trkpt lat="59.190057" lon="17.464442">
        <ele>35.2</ele>
        <time>2020-03-26T13:05:31Z</time>
        <extensions><gpxtpx:TrackPointExtension><gpxtpx:hr>146</gpxtpx:hr></gpxtpx:TrackPointExtension></extensions>
      </trkpt>
      <trkpt lat="59.190024" lon="17.464571">
        <ele>35.2</ele>
        <time>2020-03-26T13:05:32Z</time>
        <extensions><gpxtpx:TrackPointExtension><gpxtpx:hr>146</gpxtpx:hr></gpxtpx:TrackPointExtension></extensions>
      </trkpt>
      <trkpt lat="59.18999" lon="17.464699">
        <ele>35</ele>
        <time>2020-03-26T13:05:33Z</time>
        <extensions><gpxtpx:TrackPointExtension><gpxtpx:hr>146</gpxtpx:hr></gpxtpx:TrackPointExtension></extensions>
      </trkpt>
      <trkpt lat="59.189959" lon="17.464828">
        <ele>35.2</ele>
        <time>2020-03-26T13:05:34Z</time>
        <extensions><gpxtpx:TrackPointExtension><gpxtpx:hr>146</gpxtpx:hr></gpxtpx:TrackPointExtension></extensions>
      </trkpt>
      <trkpt lat="59.189931" lon="17.464956">
        <ele>35.2</ele>
        <time>2020-03-26T13:05:35Z</time>
        <extensions><gpxtpx:TrackPointExtension><gpxtpx:hr>146</gpxtpx:hr></gpxtpx:TrackPointExtension></extensions>
      </trkpt>
      <trkpt lat="59.189905" lon="17.465087">
        <ele>35.2</ele>
        <time>2020-03-26T13:05:36Z</time>
        <extensions><gpxtpx:TrackPointExtension><gpxtpx:hr>146</gpxtpx:hr></gpxtpx:TrackPointExtension></extensions>
      </trkpt>
      <trkpt lat="59.189879" lon="17.465216">
        <ele>35.4</ele>
        <time>2020-03-26T13:05:37Z</time>
        <extensions><gpxtpx:TrackPointExtension><gpxtpx:hr>146</gpxtpx:hr></gpxtpx:TrackPointExtension></extensions>
      </trkpt>
      <trkpt lat="59.189854" lon="17.465345">
        <ele>35.2</ele>
        <time>2020-03-26T13:05:38Z</time>
        <extensions><gpxtpx:TrackPointExtension><gpxtpx:hr>146</gpxtpx:hr></gpxtpx:TrackPointExtension></extensions>
      </trkpt>
      <trkpt lat="59.189829" lon="17.465478">
        <ele>35.4</ele>
        <time>2020-03-26T13:05:39Z</time>
        <extensions><gpxtpx:TrackPointExtension><gpxtpx:hr>146</gpxtpx:hr></gpxtpx:TrackPointExtension></extensions>
      </trkpt>
      <trkpt lat="59.189803" lon="17.465614">
        <ele>35.4</ele>
        <time>2020-03-26T13:05:40Z</time>
        <extensions><gpxtpx:TrackPointExtension><gpxtpx:hr>146</gpxtpx:hr></gpxtpx:TrackPointExtension></extensions>
      </trkpt>
      <trkpt lat="59.189778" lon="17.465752">
        <ele>35.8</ele>
        <time>2020-03-26T13:05:41Z</time>
        <extensions><gpxtpx:TrackPointExtension><gpxtpx:hr>146</gpxtpx:hr></gpxtpx:TrackPointExtension></extensions>
      </trkpt>
      <trkpt lat="59.189754" lon="17.465889">
        <ele>35.8</ele>
        <time>2020-03-26T13:05:42Z</time>
        <extensions><gpxtpx:TrackPointExtension><gpxtpx:hr>147</gpxtpx:hr></gpxtpx:TrackPointExtension></extensions>
      </trkpt>
      <trkpt lat="59.189731" lon="17.466026">
        <ele>36</ele>
        <time>2020-03-26T13:05:43Z</time>
        <extensions><gpxtpx:TrackPointExtension><gpxtpx:hr>147</gpxtpx:hr></gpxtpx:TrackPointExtension></extensions>
      </trkpt>
      <trkpt lat="59.189709" lon="17.466161">
        <ele>36.2</ele>
        <time>2020-03-26T13:05:44Z</time>
        <extensions><gpxtpx:TrackPointExtension><gpxtpx:hr>147</gpxtpx:hr></gpxtpx:TrackPointExtension></extensions>
      </trkpt>
      <trkpt lat="59.189687" lon="17.466293">
        <ele>36.6</ele>
        <time>2020-03-26T13:05:45Z</time>
        <extensions><gpxtpx:TrackPointExtension><gpxtpx:hr>148</gpxtpx:hr></gpxtpx:TrackPointExtension></extensions>
      </trkpt>
      <trkpt lat="59.189667" lon="17.466425">
        <ele>36.6</ele>
        <time>2020-03-26T13:05:46Z</time>
        <extensions><gpxtpx:TrackPointExtension><gpxtpx:hr>148</gpxtpx:hr></gpxtpx:TrackPointExtension></extensions>
      </trkpt>
      <trkpt lat="59.189647" lon="17.466556">
        <ele>36.8</ele>
        <time>2020-03-26T13:05:47Z</time>
        <extensions><gpxtpx:TrackPointExtension><gpxtpx:hr>148</gpxtpx:hr></gpxtpx:TrackPointExtension></extensions>
      </trkpt>
      <trkpt lat="59.18963" lon="17.466687">
        <ele>37</ele>
        <time>2020-03-26T13:05:48Z</time>
        <extensions><gpxtpx:TrackPointExtension><gpxtpx:hr>149</gpxtpx:hr></gpxtpx:TrackPointExtension></extensions>
      </trkpt>
      <trkpt lat="59.189614" lon="17.466818">
        <ele>37</ele>
        <time>2020-03-26T13:05:49Z</time>
        <extensions><gpxtpx:TrackPointExtension><gpxtpx:hr>149</gpxtpx:hr></gpxtpx:TrackPointExtension></extensions>
      </trkpt>
      <trkpt lat="59.189601" lon="17.466947">
        <ele>37.2</ele>
        <time>2020-03-26T13:05:50Z</time>
        <extensions><gpxtpx:TrackPointExtension><gpxtpx:hr>149</gpxtpx:hr></gpxtpx:TrackPointExtension></extensions>
      </trkpt>
      <trkpt lat="59.189589" lon="17.467073">
        <ele>37.2</ele>
        <time>2020-03-26T13:05:51Z</time>
        <extensions><gpxtpx:TrackPointExtension><gpxtpx:hr>150</gpxtpx:hr></gpxtpx:TrackPointExtension></extensions>
      </trkpt>
      <trkpt lat="59.189578" lon="17.467198">
        <ele>37.2</ele>
        <time>2020-03-26T13:05:52Z</time>
        <extensions><gpxtpx:TrackPointExtension><gpxtpx:hr>150</gpxtpx:hr></gpxtpx:TrackPointExtension></extensions>
      </trkpt>
      <trkpt lat="59.189569" lon="17.467322">
        <ele>37.4</ele>
        <time>2020-03-26T13:05:53Z</time>
        <extensions><gpxtpx:TrackPointExtension><gpxtpx:hr>151</gpxtpx:hr></gpxtpx:TrackPointExtension></extensions>
      </trkpt>
      <trkpt lat="59.189562" lon="17.467449">
        <ele>37.4</ele>
        <time>2020-03-26T13:05:54Z</time>
        <extensions><gpxtpx:TrackPointExtension><gpxtpx:hr>151</gpxtpx:hr></gpxtpx:TrackPointExtension></extensions>
      </trkpt>
      <trkpt lat="59.189556" lon="17.467578">
        <ele>37.6</ele>
        <time>2020-03-26T13:05:55Z</time>
        <extensions><gpxtpx:TrackPointExtension><gpxtpx:hr>151</gpxtpx:hr></gpxtpx:TrackPointExtension></extensions>
      </trkpt>
      <trkpt lat="59.189549" lon="17.46771">
        <ele>37.6</ele>
        <time>2020-03-26T13:05:56Z</time>
        <extensions><gpxtpx:TrackPointExtension><gpxtpx:hr>152</gpxtpx:hr></gpxtpx:TrackPointExtension></extensions>
      </trkpt>
      <trkpt lat="59.189542" lon="17.467841">
        <ele>37.8</ele>
        <time>2020-03-26T13:05:57Z</time>
        <extensions><gpxtpx:TrackPointExtension><gpxtpx:hr>152</gpxtpx:hr></gpxtpx:TrackPointExtension></extensions>
      </trkpt>
      <trkpt lat="59.189538" lon="17.467974">
        <ele>37.8</ele>
        <time>2020-03-26T13:05:58Z</time>
        <extensions><gpxtpx:TrackPointExtension><gpxtpx:hr>152</gpxtpx:hr></gpxtpx:TrackPointExtension></extensions>
      </trkpt>
      <trkpt lat="59.189534" lon="17.468108">
        <ele>37.8</ele>
        <time>2020-03-26T13:05:59Z</time>
        <extensions><gpxtpx:TrackPointExtension><gpxtpx:hr>153</gpxtpx:hr></gpxtpx:TrackPointExtension></extensions>
      </trkpt>
      <trkpt lat="59.189531" lon="17.468243">
        <ele>38</ele>
        <time>2020-03-26T13:06:00Z</time>
        <extensions><gpxtpx:TrackPointExtension><gpxtpx:hr>153</gpxtpx:hr></gpxtpx:TrackPointExtension></extensions>
      </trkpt>
      <trkpt lat="59.189528" lon="17.468376">
        <ele>38.2</ele>
        <time>2020-03-26T13:06:01Z</time>
        <extensions><gpxtpx:TrackPointExtension><gpxtpx:hr>153</gpxtpx:hr></gpxtpx:TrackPointExtension></extensions>
      </trkpt>
      <trkpt lat="59.189525" lon="17.468511">
        <ele>38.6</ele>
        <time>2020-03-26T13:06:02Z</time>
        <extensions><gpxtpx:TrackPointExtension><gpxtpx:hr>154</gpxtpx:hr></gpxtpx:TrackPointExtension></extensions>
      </trkpt>
      <trkpt lat="59.189522" lon="17.468648">
        <ele>38.8</ele>
        <time>2020-03-26T13:06:03Z</time>
        <extensions><gpxtpx:TrackPointExtension><gpxtpx:hr>154</gpxtpx:hr></gpxtpx:TrackPointExtension></extensions>
      </trkpt>
      <trkpt lat="59.189519" lon="17.468785">
        <ele>39.2</ele>
        <time>2020-03-26T13:06:04Z</time>
        <extensions><gpxtpx:TrackPointExtension><gpxtpx:hr>154</gpxtpx:hr></gpxtpx:TrackPointExtension></extensions>
      </trkpt>
      <trkpt lat="59.189516" lon="17.46892">
        <ele>39.4</ele>
        <time>2020-03-26T13:06:05Z</time>
        <extensions><gpxtpx:TrackPointExtension><gpxtpx:hr>154</gpxtpx:hr></gpxtpx:TrackPointExtension></extensions>
      </trkpt>
      <trkpt lat="59.189511" lon="17.469057">
        <ele>39.6</ele>
        <time>2020-03-26T13:06:06Z</time>
        <extensions><gpxtpx:TrackPointExtension><gpxtpx:hr>154</gpxtpx:hr></gpxtpx:TrackPointExtension></extensions>
      </trkpt>
      <trkpt lat="59.189507" lon="17.469195">
        <ele>39.6</ele>
        <time>2020-03-26T13:06:07Z</time>
        <extensions><gpxtpx:TrackPointExtension><gpxtpx:hr>154</gpxtpx:hr></gpxtpx:TrackPointExtension></extensions>
      </trkpt>
      <trkpt lat="59.189502" lon="17.469334">
        <ele>39.6</ele>
        <time>2020-03-26T13:06:08Z</time>
        <extensions><gpxtpx:TrackPointExtension><gpxtpx:hr>154</gpxtpx:hr></gpxtpx:TrackPointExtension></extensions>
      </trkpt>
      <trkpt lat="59.189497" lon="17.469473">
        <ele>39.6</ele>
        <time>2020-03-26T13:06:09Z</time>
        <extensions><gpxtpx:TrackPointExtension><gpxtpx:hr>154</gpxtpx:hr></gpxtpx:TrackPointExtension></extensions>
      </trkpt>
      <trkpt lat="59.189491" lon="17.46961">
        <ele>39.6</ele>
        <time>2020-03-26T13:06:10Z</time>
        <extensions><gpxtpx:TrackPointExtension><gpxtpx:hr>154</gpxtpx:hr></gpxtpx:TrackPointExtension></extensions>
      </trkpt>
      <trkpt lat="59.189484" lon="17.469749">
        <ele>39.6</ele>
        <time>2020-03-26T13:06:11Z</time>
        <extensions><gpxtpx:TrackPointExtension><gpxtpx:hr>155</gpxtpx:hr></gpxtpx:TrackPointExtension></extensions>
      </trkpt>
      <trkpt lat="59.189476" lon="17.46989">
        <ele>39.8</ele>
        <time>2020-03-26T13:06:12Z</time>
        <extensions><gpxtpx:TrackPointExtension><gpxtpx:hr>155</gpxtpx:hr></gpxtpx:TrackPointExtension></extensions>
      </trkpt>
      <trkpt lat="59.189468" lon="17.470035">
        <ele>39.8</ele>
        <time>2020-03-26T13:06:13Z</time>
        <extensions><gpxtpx:TrackPointExtension><gpxtpx:hr>155</gpxtpx:hr></gpxtpx:TrackPointExtension></extensions>
      </trkpt>
      <trkpt lat="59.189461" lon="17.470178">
        <ele>39.8</ele>
        <time>2020-03-26T13:06:14Z</time>
        <extensions><gpxtpx:TrackPointExtension><gpxtpx:hr>154</gpxtpx:hr></gpxtpx:TrackPointExtension></extensions>
      </trkpt>
      <trkpt lat="59.189452" lon="17.470323">
        <ele>39.8</ele>
        <time>2020-03-26T13:06:15Z</time>
        <extensions><gpxtpx:TrackPointExtension><gpxtpx:hr>154</gpxtpx:hr></gpxtpx:TrackPointExtension></extensions>
      </trkpt>
      <trkpt lat="59.189441" lon="17.470463">
        <ele>39.8</ele>
        <time>2020-03-26T13:06:16Z</time>
        <extensions><gpxtpx:TrackPointExtension><gpxtpx:hr>154</gpxtpx:hr></gpxtpx:TrackPointExtension></extensions>
      </trkpt>
      <trkpt lat="59.18943" lon="17.4706">
        <ele>39.8</ele>
        <time>2020-03-26T13:06:17Z</time>
        <extensions><gpxtpx:TrackPointExtension><gpxtpx:hr>154</gpxtpx:hr></gpxtpx:TrackPointExtension></extensions>
      </trkpt>
      <trkpt lat="59.18942" lon="17.470738">
        <ele>39.8</ele>
        <time>2020-03-26T13:06:18Z</time>
        <extensions><gpxtpx:TrackPointExtension><gpxtpx:hr>154</gpxtpx:hr></gpxtpx:TrackPointExtension></extensions>
      </trkpt>
      <trkpt lat="59.18941" lon="17.470873">
        <ele>39.8</ele>
        <time>2020-03-26T13:06:19Z</time>
        <extensions><gpxtpx:TrackPointExtension><gpxtpx:hr>154</gpxtpx:hr></gpxtpx:TrackPointExtension></extensions>
      </trkpt>
      <trkpt lat="59.189401" lon="17.471009">
        <ele>39.8</ele>
        <time>2020-03-26T13:06:20Z</time>
        <extensions><gpxtpx:TrackPointExtension><gpxtpx:hr>154</gpxtpx:hr></gpxtpx:TrackPointExtension></extensions>
      </trkpt>
      <trkpt lat="59.189392" lon="17.471144">
        <ele>39.8</ele>
        <time>2020-03-26T13:06:21Z</time>
        <extensions><gpxtpx:TrackPointExtension><gpxtpx:hr>154</gpxtpx:hr></gpxtpx:TrackPointExtension></extensions>
      </trkpt>
      <trkpt lat="59.189382" lon="17.471278">
        <ele>40</ele>
        <time>2020-03-26T13:06:22Z</time>
        <extensions><gpxtpx:TrackPointExtension><gpxtpx:hr>154</gpxtpx:hr></gpxtpx:TrackPointExtension></extensions>
      </trkpt>
      <trkpt lat="59.189371" lon="17.471411">
        <ele>40</ele>
        <time>2020-03-26T13:06:23Z</time>
        <extensions><gpxtpx:TrackPointExtension><gpxtpx:hr>153</gpxtpx:hr></gpxtpx:TrackPointExtension></extensions>
      </trkpt>
      <trkpt lat="59.189358" lon="17.471543">
        <ele>40.2</ele>
        <time>2020-03-26T13:06:24Z</time>
        <extensions><gpxtpx:TrackPointExtension><gpxtpx:hr>153</gpxtpx:hr></gpxtpx:TrackPointExtension></extensions>
      </trkpt>
      <trkpt lat="59.189348" lon="17.471674">
        <ele>40.4</ele>
        <time>2020-03-26T13:06:25Z</time>
        <extensions><gpxtpx:TrackPointExtension><gpxtpx:hr>153</gpxtpx:hr></gpxtpx:TrackPointExtension></extensions>
      </trkpt>
      <trkpt lat="59.189342" lon="17.471804">
        <ele>40.6</ele>
        <time>2020-03-26T13:06:26Z</time>
        <extensions><gpxtpx:TrackPointExtension><gpxtpx:hr>153</gpxtpx:hr></gpxtpx:TrackPointExtension></extensions>
      </trkpt>
      <trkpt lat="59.189336" lon="17.471936">
        <ele>40.8</ele>
        <time>2020-03-26T13:06:27Z</time>
        <extensions><gpxtpx:TrackPointExtension><gpxtpx:hr>153</gpxtpx:hr></gpxtpx:TrackPointExtension></extensions>
      </trkpt>
      <trkpt lat="59.189329" lon="17.472066">
        <ele>41</ele>
        <time>2020-03-26T13:06:28Z</time>
        <extensions><gpxtpx:TrackPointExtension><gpxtpx:hr>153</gpxtpx:hr></gpxtpx:TrackPointExtension></extensions>
      </trkpt>
      <trkpt lat="59.189323" lon="17.472197">
        <ele>41</ele>
        <time>2020-03-26T13:06:29Z</time>
        <extensions><gpxtpx:TrackPointExtension><gpxtpx:hr>153</gpxtpx:hr></gpxtpx:TrackPointExtension></extensions>
      </trkpt>
      <trkpt lat="59.189318" lon="17.472327">
        <ele>41.2</ele>
        <time>2020-03-26T13:06:30Z</time>
        <extensions><gpxtpx:TrackPointExtension><gpxtpx:hr>153</gpxtpx:hr></gpxtpx:TrackPointExtension></extensions>
      </trkpt>
      <trkpt lat="59.189312" lon="17.472458">
        <ele>41.2</ele>
        <time>2020-03-26T13:06:31Z</time>
        <extensions><gpxtpx:TrackPointExtension><gpxtpx:hr>153</gpxtpx:hr></gpxtpx:TrackPointExtension></extensions>
      </trkpt>
      <trkpt lat="59.189306" lon="17.47259">
        <ele>41.4</ele>
        <time>2020-03-26T13:06:32Z</time>
        <extensions><gpxtpx:TrackPointExtension><gpxtpx:hr>153</gpxtpx:hr></gpxtpx:TrackPointExtension></extensions>
      </trkpt>
      <trkpt lat="59.189302" lon="17.472716">
        <ele>41.6</ele>
        <time>2020-03-26T13:06:33Z</time>
        <extensions><gpxtpx:TrackPointExtension><gpxtpx:hr>153</gpxtpx:hr></gpxtpx:TrackPointExtension></extensions>
      </trkpt>
      <trkpt lat="59.189298" lon="17.472845">
        <ele>41.8</ele>
        <time>2020-03-26T13:06:34Z</time>
        <extensions><gpxtpx:TrackPointExtension><gpxtpx:hr>153</gpxtpx:hr></gpxtpx:TrackPointExtension></extensions>
      </trkpt>
      <trkpt lat="59.18929" lon="17.472972">
        <ele>42</ele>
        <time>2020-03-26T13:06:35Z</time>
        <extensions><gpxtpx:TrackPointExtension><gpxtpx:hr>153</gpxtpx:hr></gpxtpx:TrackPointExtension></extensions>
      </trkpt>
      <trkpt lat="59.189282" lon="17.473096">
        <ele>42.2</ele>
        <time>2020-03-26T13:06:36Z</time>
        <extensions><gpxtpx:TrackPointExtension><gpxtpx:hr>153</gpxtpx:hr></gpxtpx:TrackPointExtension></extensions>
      </trkpt>
      <trkpt lat="59.189272" lon="17.473225">
        <ele>42.4</ele>
        <time>2020-03-26T13:06:37Z</time>
        <extensions><gpxtpx:TrackPointExtension><gpxtpx:hr>153</gpxtpx:hr></gpxtpx:TrackPointExtension></extensions>
      </trkpt>
      <trkpt lat="59.189269" lon="17.473363">
        <ele>42.6</ele>
        <time>2020-03-26T13:06:38Z</time>
        <extensions><gpxtpx:TrackPointExtension><gpxtpx:hr>153</gpxtpx:hr></gpxtpx:TrackPointExtension></extensions>
      </trkpt>
      <trkpt lat="59.189267" lon="17.473494">
        <ele>42.6</ele>
        <time>2020-03-26T13:06:39Z</time>
        <extensions><gpxtpx:TrackPointExtension><gpxtpx:hr>153</gpxtpx:hr></gpxtpx:TrackPointExtension></extensions>
      </trkpt>
      <trkpt lat="59.189259" lon="17.473635">
        <ele>43</ele>
        <time>2020-03-26T13:06:40Z</time>
        <extensions><gpxtpx:TrackPointExtension><gpxtpx:hr>153</gpxtpx:hr></gpxtpx:TrackPointExtension></extensions>
      </trkpt>
      <trkpt lat="59.18925" lon="17.473776">
        <ele>43.2</ele>
        <time>2020-03-26T13:06:41Z</time>
        <extensions><gpxtpx:TrackPointExtension><gpxtpx:hr>153</gpxtpx:hr></gpxtpx:TrackPointExtension></extensions>
      </trkpt>
      <trkpt lat="59.18924" lon="17.473919">
        <ele>43.4</ele>
        <time>2020-03-26T13:06:42Z</time>
        <extensions><gpxtpx:TrackPointExtension><gpxtpx:hr>153</gpxtpx:hr></gpxtpx:TrackPointExtension></extensions>
      </trkpt>
      <trkpt lat="59.189234" lon="17.474066">
        <ele>43.6</ele>
        <time>2020-03-26T13:06:43Z</time>
        <extensions><gpxtpx:TrackPointExtension><gpxtpx:hr>153</gpxtpx:hr></gpxtpx:TrackPointExtension></extensions>
      </trkpt>
      <trkpt lat="59.18923" lon="17.474206">
        <ele>43.8</ele>
        <time>2020-03-26T13:06:44Z</time>
        <extensions><gpxtpx:TrackPointExtension><gpxtpx:hr>153</gpxtpx:hr></gpxtpx:TrackPointExtension></extensions>
      </trkpt>
      <trkpt lat="59.189225" lon="17.474343">
        <ele>43.8</ele>
        <time>2020-03-26T13:06:45Z</time>
        <extensions><gpxtpx:TrackPointExtension><gpxtpx:hr>154</gpxtpx:hr></gpxtpx:TrackPointExtension></extensions>
      </trkpt>
      <trkpt lat="59.18922" lon="17.474491">
        <ele>44</ele>
        <time>2020-03-26T13:06:46Z</time>
        <extensions><gpxtpx:TrackPointExtension><gpxtpx:hr>154</gpxtpx:hr></gpxtpx:TrackPointExtension></extensions>
      </trkpt>
      <trkpt lat="59.189215" lon="17.474645">
        <ele>44</ele>
        <time>2020-03-26T13:06:47Z</time>
        <extensions><gpxtpx:TrackPointExtension><gpxtpx:hr>154</gpxtpx:hr></gpxtpx:TrackPointExtension></extensions>
      </trkpt>
      <trkpt lat="59.18921" lon="17.474754">
        <ele>44.2</ele>
        <time>2020-03-26T13:06:48Z</time>
        <extensions><gpxtpx:TrackPointExtension><gpxtpx:hr>154</gpxtpx:hr></gpxtpx:TrackPointExtension></extensions>
      </trkpt>
      <trkpt lat="59.189205" lon="17.474863">
        <ele>44.2</ele>
        <time>2020-03-26T13:06:49Z</time>
        <extensions><gpxtpx:TrackPointExtension><gpxtpx:hr>154</gpxtpx:hr></gpxtpx:TrackPointExtension></extensions>
      </trkpt>
      <trkpt lat="59.189195" lon="17.475081">
        <ele>44.2</ele>
        <time>2020-03-26T13:06:50Z</time>
        <extensions><gpxtpx:TrackPointExtension><gpxtpx:hr>154</gpxtpx:hr></gpxtpx:TrackPointExtension></extensions>
      </trkpt>
      <trkpt lat="59.189187" lon="17.475228">
        <ele>44.4</ele>
        <time>2020-03-26T13:06:51Z</time>
        <extensions><gpxtpx:TrackPointExtension><gpxtpx:hr>153</gpxtpx:hr></gpxtpx:TrackPointExtension></extensions>
      </trkpt>
      <trkpt lat="59.18918" lon="17.475374">
        <ele>44.4</ele>
        <time>2020-03-26T13:06:52Z</time>
        <extensions><gpxtpx:TrackPointExtension><gpxtpx:hr>153</gpxtpx:hr></gpxtpx:TrackPointExtension></extensions>
      </trkpt>
      <trkpt lat="59.189174" lon="17.475517">
        <ele>44.4</ele>
        <time>2020-03-26T13:06:53Z</time>
        <extensions><gpxtpx:TrackPointExtension><gpxtpx:hr>153</gpxtpx:hr></gpxtpx:TrackPointExtension></extensions>
      </trkpt>
      <trkpt lat="59.189168" lon="17.475661">
        <ele>44.4</ele>
        <time>2020-03-26T13:06:54Z</time>
        <extensions><gpxtpx:TrackPointExtension><gpxtpx:hr>152</gpxtpx:hr></gpxtpx:TrackPointExtension></extensions>
      </trkpt>
      <trkpt lat="59.18916" lon="17.475806">
        <ele>44.4</ele>
        <time>2020-03-26T13:06:55Z</time>
        <extensions><gpxtpx:TrackPointExtension><gpxtpx:hr>152</gpxtpx:hr></gpxtpx:TrackPointExtension></extensions>
      </trkpt>
      <trkpt lat="59.189151" lon="17.475956">
        <ele>44.4</ele>
        <time>2020-03-26T13:06:56Z</time>
        <extensions><gpxtpx:TrackPointExtension><gpxtpx:hr>152</gpxtpx:hr></gpxtpx:TrackPointExtension></extensions>
      </trkpt>
      <trkpt lat="59.189144" lon="17.476102">
        <ele>44.4</ele>
        <time>2020-03-26T13:06:57Z</time>
        <extensions><gpxtpx:TrackPointExtension><gpxtpx:hr>152</gpxtpx:hr></gpxtpx:TrackPointExtension></extensions>
      </trkpt>
      <trkpt lat="59.189136" lon="17.476246">
        <ele>44.6</ele>
        <time>2020-03-26T13:06:58Z</time>
        <extensions><gpxtpx:TrackPointExtension><gpxtpx:hr>151</gpxtpx:hr></gpxtpx:TrackPointExtension></extensions>
      </trkpt>
      <trkpt lat="59.189129" lon="17.476391">
        <ele>44.6</ele>
        <time>2020-03-26T13:06:59Z</time>
        <extensions><gpxtpx:TrackPointExtension><gpxtpx:hr>151</gpxtpx:hr></gpxtpx:TrackPointExtension></extensions>
      </trkpt>
      <trkpt lat="59.189123" lon="17.476532">
        <ele>44.6</ele>
        <time>2020-03-26T13:07:00Z</time>
        <extensions><gpxtpx:TrackPointExtension><gpxtpx:hr>151</gpxtpx:hr></gpxtpx:TrackPointExtension></extensions>
      </trkpt>
      <trkpt lat="59.189117" lon="17.476674">
        <ele>44.6</ele>
        <time>2020-03-26T13:07:01Z</time>
        <extensions><gpxtpx:TrackPointExtension><gpxtpx:hr>151</gpxtpx:hr></gpxtpx:TrackPointExtension></extensions>
      </trkpt>
      <trkpt lat="59.189111" lon="17.476816">
        <ele>44.6</ele>
        <time>2020-03-26T13:07:02Z</time>
        <extensions><gpxtpx:TrackPointExtension><gpxtpx:hr>150</gpxtpx:hr></gpxtpx:TrackPointExtension></extensions>
      </trkpt>
      <trkpt lat="59.189103" lon="17.476956">
        <ele>44.6</ele>
        <time>2020-03-26T13:07:03Z</time>
        <extensions><gpxtpx:TrackPointExtension><gpxtpx:hr>150</gpxtpx:hr></gpxtpx:TrackPointExtension></extensions>
      </trkpt>
      <trkpt lat="59.189098" lon="17.477096">
        <ele>44.6</ele>
        <time>2020-03-26T13:07:04Z</time>
        <extensions><gpxtpx:TrackPointExtension><gpxtpx:hr>150</gpxtpx:hr></gpxtpx:TrackPointExtension></extensions>
      </trkpt>
      <trkpt lat="59.189093" lon="17.477235">
        <ele>44.8</ele>
        <time>2020-03-26T13:07:05Z</time>
        <extensions><gpxtpx:TrackPointExtension><gpxtpx:hr>149</gpxtpx:hr></gpxtpx:TrackPointExtension></extensions>
      </trkpt>
      <trkpt lat="59.189087" lon="17.477375">
        <ele>44.8</ele>
        <time>2020-03-26T13:07:06Z</time>
        <extensions><gpxtpx:TrackPointExtension><gpxtpx:hr>149</gpxtpx:hr></gpxtpx:TrackPointExtension></extensions>
      </trkpt>
      <trkpt lat="59.189081" lon="17.477512">
        <ele>44.8</ele>
        <time>2020-03-26T13:07:07Z</time>
        <extensions><gpxtpx:TrackPointExtension><gpxtpx:hr>149</gpxtpx:hr></gpxtpx:TrackPointExtension></extensions>
      </trkpt>
      <trkpt lat="59.189075" lon="17.477649">
        <ele>45</ele>
        <time>2020-03-26T13:07:08Z</time>
        <extensions><gpxtpx:TrackPointExtension><gpxtpx:hr>149</gpxtpx:hr></gpxtpx:TrackPointExtension></extensions>
      </trkpt>
      <trkpt lat="59.189071" lon="17.477791">
        <ele>45.4</ele>
        <time>2020-03-26T13:07:09Z</time>
        <extensions><gpxtpx:TrackPointExtension><gpxtpx:hr>149</gpxtpx:hr></gpxtpx:TrackPointExtension></extensions>
      </trkpt>
      <trkpt lat="59.189068" lon="17.477936">
        <ele>45.4</ele>
        <time>2020-03-26T13:07:10Z</time>
        <extensions><gpxtpx:TrackPointExtension><gpxtpx:hr>149</gpxtpx:hr></gpxtpx:TrackPointExtension></extensions>
      </trkpt>
      <trkpt lat="59.189067" lon="17.478083">
        <ele>45.6</ele>
        <time>2020-03-26T13:07:11Z</time>
        <extensions><gpxtpx:TrackPointExtension><gpxtpx:hr>148</gpxtpx:hr></gpxtpx:TrackPointExtension></extensions>
      </trkpt>
      <trkpt lat="59.189066" lon="17.478231">
        <ele>45.8</ele>
        <time>2020-03-26T13:07:12Z</time>
        <extensions><gpxtpx:TrackPointExtension><gpxtpx:hr>148</gpxtpx:hr></gpxtpx:TrackPointExtension></extensions>
      </trkpt>
      <trkpt lat="59.189066" lon="17.478379">
        <ele>46</ele>
        <time>2020-03-26T13:07:13Z</time>
        <extensions><gpxtpx:TrackPointExtension><gpxtpx:hr>148</gpxtpx:hr></gpxtpx:TrackPointExtension></extensions>
      </trkpt>
      <trkpt lat="59.189067" lon="17.478528">
        <ele>46</ele>
        <time>2020-03-26T13:07:14Z</time>
        <extensions><gpxtpx:TrackPointExtension><gpxtpx:hr>148</gpxtpx:hr></gpxtpx:TrackPointExtension></extensions>
      </trkpt>
      <trkpt lat="59.189069" lon="17.478672">
        <ele>46</ele>
        <time>2020-03-26T13:07:15Z</time>
        <extensions><gpxtpx:TrackPointExtension><gpxtpx:hr>148</gpxtpx:hr></gpxtpx:TrackPointExtension></extensions>
      </trkpt>
      <trkpt lat="59.189072" lon="17.478816">
        <ele>46.2</ele>
        <time>2020-03-26T13:07:16Z</time>
        <extensions><gpxtpx:TrackPointExtension><gpxtpx:hr>149</gpxtpx:hr></gpxtpx:TrackPointExtension></extensions>
      </trkpt>
      <trkpt lat="59.189076" lon="17.47896">
        <ele>46.2</ele>
        <time>2020-03-26T13:07:17Z</time>
        <extensions><gpxtpx:TrackPointExtension><gpxtpx:hr>149</gpxtpx:hr></gpxtpx:TrackPointExtension></extensions>
      </trkpt>
      <trkpt lat="59.189078" lon="17.479099">
        <ele>46.2</ele>
        <time>2020-03-26T13:07:18Z</time>
        <extensions><gpxtpx:TrackPointExtension><gpxtpx:hr>149</gpxtpx:hr></gpxtpx:TrackPointExtension></extensions>
      </trkpt>
      <trkpt lat="59.189079" lon="17.479237">
        <ele>46.2</ele>
        <time>2020-03-26T13:07:19Z</time>
        <extensions><gpxtpx:TrackPointExtension><gpxtpx:hr>150</gpxtpx:hr></gpxtpx:TrackPointExtension></extensions>
      </trkpt>
      <trkpt lat="59.189075" lon="17.479374">
        <ele>46.4</ele>
        <time>2020-03-26T13:07:20Z</time>
        <extensions><gpxtpx:TrackPointExtension><gpxtpx:hr>150</gpxtpx:hr></gpxtpx:TrackPointExtension></extensions>
      </trkpt>
      <trkpt lat="59.189071" lon="17.479512">
        <ele>46.4</ele>
        <time>2020-03-26T13:07:21Z</time>
        <extensions><gpxtpx:TrackPointExtension><gpxtpx:hr>151</gpxtpx:hr></gpxtpx:TrackPointExtension></extensions>
      </trkpt>
      <trkpt lat="59.189067" lon="17.479648">
        <ele>46.4</ele>
        <time>2020-03-26T13:07:22Z</time>
        <extensions><gpxtpx:TrackPointExtension><gpxtpx:hr>151</gpxtpx:hr></gpxtpx:TrackPointExtension></extensions>
      </trkpt>
      <trkpt lat="59.189063" lon="17.479786">
        <ele>46.4</ele>
        <time>2020-03-26T13:07:23Z</time>
        <extensions><gpxtpx:TrackPointExtension><gpxtpx:hr>151</gpxtpx:hr></gpxtpx:TrackPointExtension></extensions>
      </trkpt>
      <trkpt lat="59.18906" lon="17.479923">
        <ele>46.6</ele>
        <time>2020-03-26T13:07:24Z</time>
        <extensions><gpxtpx:TrackPointExtension><gpxtpx:hr>152</gpxtpx:hr></gpxtpx:TrackPointExtension></extensions>
      </trkpt>
      <trkpt lat="59.189058" lon="17.480059">
        <ele>46.8</ele>
        <time>2020-03-26T13:07:25Z</time>
        <extensions><gpxtpx:TrackPointExtension><gpxtpx:hr>152</gpxtpx:hr></gpxtpx:TrackPointExtension></extensions>
      </trkpt>
      <trkpt lat="59.189052" lon="17.480192">
        <ele>46.8</ele>
        <time>2020-03-26T13:07:26Z</time>
        <extensions><gpxtpx:TrackPointExtension><gpxtpx:hr>152</gpxtpx:hr></gpxtpx:TrackPointExtension></extensions>
      </trkpt>
      <trkpt lat="59.189043" lon="17.480327">
        <ele>46.8</ele>
        <time>2020-03-26T13:07:27Z</time>
        <extensions><gpxtpx:TrackPointExtension><gpxtpx:hr>153</gpxtpx:hr></gpxtpx:TrackPointExtension></extensions>
      </trkpt>
      <trkpt lat="59.189034" lon="17.480466">
        <ele>46.8</ele>
        <time>2020-03-26T13:07:28Z</time>
        <extensions><gpxtpx:TrackPointExtension><gpxtpx:hr>153</gpxtpx:hr></gpxtpx:TrackPointExtension></extensions>
      </trkpt>
      <trkpt lat="59.189026" lon="17.480604">
        <ele>47</ele>
        <time>2020-03-26T13:07:29Z</time>
        <extensions><gpxtpx:TrackPointExtension><gpxtpx:hr>153</gpxtpx:hr></gpxtpx:TrackPointExtension></extensions>
      </trkpt>
      <trkpt lat="59.189016" lon="17.480743">
        <ele>47</ele>
        <time>2020-03-26T13:07:30Z</time>
        <extensions><gpxtpx:TrackPointExtension><gpxtpx:hr>153</gpxtpx:hr></gpxtpx:TrackPointExtension></extensions>
      </trkpt>
      <trkpt lat="59.189007" lon="17.480882">
        <ele>47.2</ele>
        <time>2020-03-26T13:07:31Z</time>
        <extensions><gpxtpx:TrackPointExtension><gpxtpx:hr>153</gpxtpx:hr></gpxtpx:TrackPointExtension></extensions>
      </trkpt>
      <trkpt lat="59.188997" lon="17.481021">
        <ele>47.4</ele>
        <time>2020-03-26T13:07:32Z</time>
        <extensions><gpxtpx:TrackPointExtension><gpxtpx:hr>153</gpxtpx:hr></gpxtpx:TrackPointExtension></extensions>
      </trkpt>
      <trkpt lat="59.188988" lon="17.48116">
        <ele>47.4</ele>
        <time>2020-03-26T13:07:33Z</time>
        <extensions><gpxtpx:TrackPointExtension><gpxtpx:hr>153</gpxtpx:hr></gpxtpx:TrackPointExtension></extensions>
      </trkpt>
      <trkpt lat="59.188981" lon="17.4813">
        <ele>47.6</ele>
        <time>2020-03-26T13:07:34Z</time>
        <extensions><gpxtpx:TrackPointExtension><gpxtpx:hr>153</gpxtpx:hr></gpxtpx:TrackPointExtension></extensions>
      </trkpt>
      <trkpt lat="59.188974" lon="17.481439">
        <ele>47.8</ele>
        <time>2020-03-26T13:07:35Z</time>
        <extensions><gpxtpx:TrackPointExtension><gpxtpx:hr>153</gpxtpx:hr></gpxtpx:TrackPointExtension></extensions>
      </trkpt>
      <trkpt lat="59.188962" lon="17.481575">
        <ele>47.8</ele>
        <time>2020-03-26T13:07:36Z</time>
        <extensions><gpxtpx:TrackPointExtension><gpxtpx:hr>153</gpxtpx:hr></gpxtpx:TrackPointExtension></extensions>
      </trkpt>
      <trkpt lat="59.188942" lon="17.481706">
        <ele>48</ele>
        <time>2020-03-26T13:07:37Z</time>
        <extensions><gpxtpx:TrackPointExtension><gpxtpx:hr>153</gpxtpx:hr></gpxtpx:TrackPointExtension></extensions>
      </trkpt>
      <trkpt lat="59.188927" lon="17.481849">
        <ele>48.4</ele>
        <time>2020-03-26T13:07:38Z</time>
        <extensions><gpxtpx:TrackPointExtension><gpxtpx:hr>153</gpxtpx:hr></gpxtpx:TrackPointExtension></extensions>
      </trkpt>
      <trkpt lat="59.188921" lon="17.481994">
        <ele>48.6</ele>
        <time>2020-03-26T13:07:39Z</time>
        <extensions><gpxtpx:TrackPointExtension><gpxtpx:hr>153</gpxtpx:hr></gpxtpx:TrackPointExtension></extensions>
      </trkpt>
      <trkpt lat="59.188917" lon="17.482138">
        <ele>48.6</ele>
        <time>2020-03-26T13:07:40Z</time>
        <extensions><gpxtpx:TrackPointExtension><gpxtpx:hr>153</gpxtpx:hr></gpxtpx:TrackPointExtension></extensions>
      </trkpt>
      <trkpt lat="59.188911" lon="17.482283">
        <ele>48.8</ele>
        <time>2020-03-26T13:07:41Z</time>
        <extensions><gpxtpx:TrackPointExtension><gpxtpx:hr>153</gpxtpx:hr></gpxtpx:TrackPointExtension></extensions>
      </trkpt>
      <trkpt lat="59.188905" lon="17.482428">
        <ele>48.8</ele>
        <time>2020-03-26T13:07:42Z</time>
        <extensions><gpxtpx:TrackPointExtension><gpxtpx:hr>153</gpxtpx:hr></gpxtpx:TrackPointExtension></extensions>
      </trkpt>
      <trkpt lat="59.1889" lon="17.482572">
        <ele>49</ele>
        <time>2020-03-26T13:07:43Z</time>
        <extensions><gpxtpx:TrackPointExtension><gpxtpx:hr>153</gpxtpx:hr></gpxtpx:TrackPointExtension></extensions>
      </trkpt>
      <trkpt lat="59.188893" lon="17.482726">
        <ele>49</ele>
        <time>2020-03-26T13:07:44Z</time>
        <extensions><gpxtpx:TrackPointExtension><gpxtpx:hr>153</gpxtpx:hr></gpxtpx:TrackPointExtension></extensions>
      </trkpt>
      <trkpt lat="59.188888" lon="17.48287">
        <ele>49</ele>
        <time>2020-03-26T13:07:45Z</time>
        <extensions><gpxtpx:TrackPointExtension><gpxtpx:hr>153</gpxtpx:hr></gpxtpx:TrackPointExtension></extensions>
      </trkpt>
      <trkpt lat="59.188884" lon="17.483014">
        <ele>49.2</ele>
        <time>2020-03-26T13:07:46Z</time>
        <extensions><gpxtpx:TrackPointExtension><gpxtpx:hr>153</gpxtpx:hr></gpxtpx:TrackPointExtension></extensions>
      </trkpt>
      <trkpt lat="59.188883" lon="17.483158">
        <ele>49.4</ele>
        <time>2020-03-26T13:07:47Z</time>
        <extensions><gpxtpx:TrackPointExtension><gpxtpx:hr>153</gpxtpx:hr></gpxtpx:TrackPointExtension></extensions>
      </trkpt>
      <trkpt lat="59.188883" lon="17.483304">
        <ele>49.4</ele>
        <time>2020-03-26T13:07:48Z</time>
        <extensions><gpxtpx:TrackPointExtension><gpxtpx:hr>152</gpxtpx:hr></gpxtpx:TrackPointExtension></extensions>
      </trkpt>
      <trkpt lat="59.188882" lon="17.483452">
        <ele>49.4</ele>
        <time>2020-03-26T13:07:49Z</time>
        <extensions><gpxtpx:TrackPointExtension><gpxtpx:hr>152</gpxtpx:hr></gpxtpx:TrackPointExtension></extensions>
      </trkpt>
      <trkpt lat="59.188881" lon="17.4836">
        <ele>49.6</ele>
        <time>2020-03-26T13:07:50Z</time>
        <extensions><gpxtpx:TrackPointExtension><gpxtpx:hr>152</gpxtpx:hr></gpxtpx:TrackPointExtension></extensions>
      </trkpt>
      <trkpt lat="59.188881" lon="17.483748">
        <ele>49.6</ele>
        <time>2020-03-26T13:07:51Z</time>
        <extensions><gpxtpx:TrackPointExtension><gpxtpx:hr>152</gpxtpx:hr></gpxtpx:TrackPointExtension></extensions>
      </trkpt>
      <trkpt lat="59.188882" lon="17.483896">
        <ele>49.6</ele>
        <time>2020-03-26T13:07:52Z</time>
        <extensions><gpxtpx:TrackPointExtension><gpxtpx:hr>151</gpxtpx:hr></gpxtpx:TrackPointExtension></extensions>
      </trkpt>
      <trkpt lat="59.188883" lon="17.484045">
        <ele>49.6</ele>
        <time>2020-03-26T13:07:53Z</time>
        <extensions><gpxtpx:TrackPointExtension><gpxtpx:hr>151</gpxtpx:hr></gpxtpx:TrackPointExtension></extensions>
      </trkpt>
      <trkpt lat="59.188884" lon="17.484194">
        <ele>49.6</ele>
        <time>2020-03-26T13:07:54Z</time>
        <extensions><gpxtpx:TrackPointExtension><gpxtpx:hr>150</gpxtpx:hr></gpxtpx:TrackPointExtension></extensions>
      </trkpt>
      <trkpt lat="59.188885" lon="17.484343">
        <ele>49.6</ele>
        <time>2020-03-26T13:07:55Z</time>
        <extensions><gpxtpx:TrackPointExtension><gpxtpx:hr>150</gpxtpx:hr></gpxtpx:TrackPointExtension></extensions>
      </trkpt>
      <trkpt lat="59.188886" lon="17.484493">
        <ele>49.6</ele>
        <time>2020-03-26T13:07:56Z</time>
        <extensions><gpxtpx:TrackPointExtension><gpxtpx:hr>150</gpxtpx:hr></gpxtpx:TrackPointExtension></extensions>
      </trkpt>
      <trkpt lat="59.188888" lon="17.484641">
        <ele>49.6</ele>
        <time>2020-03-26T13:07:57Z</time>
        <extensions><gpxtpx:TrackPointExtension><gpxtpx:hr>149</gpxtpx:hr></gpxtpx:TrackPointExtension></extensions>
      </trkpt>
      <trkpt lat="59.188889" lon="17.484792">
        <ele>49.6</ele>
        <time>2020-03-26T13:07:58Z</time>
        <extensions><gpxtpx:TrackPointExtension><gpxtpx:hr>149</gpxtpx:hr></gpxtpx:TrackPointExtension></extensions>
      </trkpt>
      <trkpt lat="59.18889" lon="17.484946">
        <ele>49.6</ele>
        <time>2020-03-26T13:07:59Z</time>
        <extensions><gpxtpx:TrackPointExtension><gpxtpx:hr>148</gpxtpx:hr></gpxtpx:TrackPointExtension></extensions>
      </trkpt>
      <trkpt lat="59.188891" lon="17.485104">
        <ele>49.6</ele>
        <time>2020-03-26T13:08:00Z</time>
        <extensions><gpxtpx:TrackPointExtension><gpxtpx:hr>148</gpxtpx:hr></gpxtpx:TrackPointExtension></extensions>
      </trkpt>
      <trkpt lat="59.188893" lon="17.485267">
        <ele>49.6</ele>
        <time>2020-03-26T13:08:01Z</time>
        <extensions><gpxtpx:TrackPointExtension><gpxtpx:hr>148</gpxtpx:hr></gpxtpx:TrackPointExtension></extensions>
      </trkpt>
      <trkpt lat="59.188895" lon="17.485429">
        <ele>49.6</ele>
        <time>2020-03-26T13:08:02Z</time>
        <extensions><gpxtpx:TrackPointExtension><gpxtpx:hr>147</gpxtpx:hr></gpxtpx:TrackPointExtension></extensions>
      </trkpt>
      <trkpt lat="59.188898" lon="17.485593">
        <ele>49.4</ele>
        <time>2020-03-26T13:08:03Z</time>
        <extensions><gpxtpx:TrackPointExtension><gpxtpx:hr>147</gpxtpx:hr></gpxtpx:TrackPointExtension></extensions>
      </trkpt>
      <trkpt lat="59.1889" lon="17.48576">
        <ele>49.4</ele>
        <time>2020-03-26T13:08:04Z</time>
        <extensions><gpxtpx:TrackPointExtension><gpxtpx:hr>147</gpxtpx:hr></gpxtpx:TrackPointExtension></extensions>
      </trkpt>
      <trkpt lat="59.188902" lon="17.485928">
        <ele>49.4</ele>
        <time>2020-03-26T13:08:05Z</time>
        <extensions><gpxtpx:TrackPointExtension><gpxtpx:hr>146</gpxtpx:hr></gpxtpx:TrackPointExtension></extensions>
      </trkpt>
      <trkpt lat="59.188904" lon="17.486094">
        <ele>49</ele>
        <time>2020-03-26T13:08:06Z</time>
        <extensions><gpxtpx:TrackPointExtension><gpxtpx:hr>146</gpxtpx:hr></gpxtpx:TrackPointExtension></extensions>
      </trkpt>
      <trkpt lat="59.188906" lon="17.486259">
        <ele>48.8</ele>
        <time>2020-03-26T13:08:07Z</time>
        <extensions><gpxtpx:TrackPointExtension><gpxtpx:hr>146</gpxtpx:hr></gpxtpx:TrackPointExtension></extensions>
      </trkpt>
      <trkpt lat="59.188907" lon="17.486424">
        <ele>48.8</ele>
        <time>2020-03-26T13:08:08Z</time>
        <extensions><gpxtpx:TrackPointExtension><gpxtpx:hr>146</gpxtpx:hr></gpxtpx:TrackPointExtension></extensions>
      </trkpt>
      <trkpt lat="59.188907" lon="17.486586">
        <ele>48.6</ele>
        <time>2020-03-26T13:08:09Z</time>
        <extensions><gpxtpx:TrackPointExtension><gpxtpx:hr>146</gpxtpx:hr></gpxtpx:TrackPointExtension></extensions>
      </trkpt>
      <trkpt lat="59.18891" lon="17.486751">
        <ele>48.4</ele>
        <time>2020-03-26T13:08:10Z</time>
        <extensions><gpxtpx:TrackPointExtension><gpxtpx:hr>146</gpxtpx:hr></gpxtpx:TrackPointExtension></extensions>
      </trkpt>
      <trkpt lat="59.188914" lon="17.486913">
        <ele>48.4</ele>
        <time>2020-03-26T13:08:11Z</time>
        <extensions><gpxtpx:TrackPointExtension><gpxtpx:hr>145</gpxtpx:hr></gpxtpx:TrackPointExtension></extensions>
      </trkpt>
      <trkpt lat="59.188917" lon="17.487076">
        <ele>48.2</ele>
        <time>2020-03-26T13:08:12Z</time>
        <extensions><gpxtpx:TrackPointExtension><gpxtpx:hr>145</gpxtpx:hr></gpxtpx:TrackPointExtension></extensions>
      </trkpt>
      <trkpt lat="59.188918" lon="17.487198">
        <ele>48</ele>
        <time>2020-03-26T13:08:13Z</time>
        <extensions><gpxtpx:TrackPointExtension><gpxtpx:hr>144</gpxtpx:hr></gpxtpx:TrackPointExtension></extensions>
      </trkpt>
      <trkpt lat="59.188918" lon="17.487321">
        <ele>47.8</ele>
        <time>2020-03-26T13:08:14Z</time>
        <extensions><gpxtpx:TrackPointExtension><gpxtpx:hr>144</gpxtpx:hr></gpxtpx:TrackPointExtension></extensions>
      </trkpt>
      <trkpt lat="59.188919" lon="17.487567">
        <ele>47.6</ele>
        <time>2020-03-26T13:08:15Z</time>
        <extensions><gpxtpx:TrackPointExtension><gpxtpx:hr>144</gpxtpx:hr></gpxtpx:TrackPointExtension></extensions>
      </trkpt>
      <trkpt lat="59.188919" lon="17.487731">
        <ele>47.6</ele>
        <time>2020-03-26T13:08:16Z</time>
        <extensions><gpxtpx:TrackPointExtension><gpxtpx:hr>144</gpxtpx:hr></gpxtpx:TrackPointExtension></extensions>
      </trkpt>
      <trkpt lat="59.188921" lon="17.487894">
        <ele>47.4</ele>
        <time>2020-03-26T13:08:17Z</time>
        <extensions><gpxtpx:TrackPointExtension><gpxtpx:hr>144</gpxtpx:hr></gpxtpx:TrackPointExtension></extensions>
      </trkpt>
      <trkpt lat="59.188922" lon="17.488055">
        <ele>47.4</ele>
        <time>2020-03-26T13:08:18Z</time>
        <extensions><gpxtpx:TrackPointExtension><gpxtpx:hr>144</gpxtpx:hr></gpxtpx:TrackPointExtension></extensions>
      </trkpt>
      <trkpt lat="59.188923" lon="17.488213">
        <ele>47.2</ele>
        <time>2020-03-26T13:08:19Z</time>
        <extensions><gpxtpx:TrackPointExtension><gpxtpx:hr>143</gpxtpx:hr></gpxtpx:TrackPointExtension></extensions>
      </trkpt>
      <trkpt lat="59.188924" lon="17.48837">
        <ele>47.2</ele>
        <time>2020-03-26T13:08:20Z</time>
        <extensions><gpxtpx:TrackPointExtension><gpxtpx:hr>143</gpxtpx:hr></gpxtpx:TrackPointExtension></extensions>
      </trkpt>
      <trkpt lat="59.188925" lon="17.488529">
        <ele>47.2</ele>
        <time>2020-03-26T13:08:21Z</time>
        <extensions><gpxtpx:TrackPointExtension><gpxtpx:hr>142</gpxtpx:hr></gpxtpx:TrackPointExtension></extensions>
      </trkpt>
      <trkpt lat="59.18893" lon="17.488688">
        <ele>47</ele>
        <time>2020-03-26T13:08:22Z</time>
        <extensions><gpxtpx:TrackPointExtension><gpxtpx:hr>142</gpxtpx:hr></gpxtpx:TrackPointExtension></extensions>
      </trkpt>
      <trkpt lat="59.188935" lon="17.488845">
        <ele>47</ele>
        <time>2020-03-26T13:08:23Z</time>
        <extensions><gpxtpx:TrackPointExtension><gpxtpx:hr>142</gpxtpx:hr></gpxtpx:TrackPointExtension></extensions>
      </trkpt>
      <trkpt lat="59.188939" lon="17.489002">
        <ele>47</ele>
        <time>2020-03-26T13:08:24Z</time>
        <extensions><gpxtpx:TrackPointExtension><gpxtpx:hr>142</gpxtpx:hr></gpxtpx:TrackPointExtension></extensions>
      </trkpt>
      <trkpt lat="59.188943" lon="17.489161">
        <ele>47</ele>
        <time>2020-03-26T13:08:25Z</time>
        <extensions><gpxtpx:TrackPointExtension><gpxtpx:hr>142</gpxtpx:hr></gpxtpx:TrackPointExtension></extensions>
      </trkpt>
      <trkpt lat="59.188946" lon="17.489317">
        <ele>47</ele>
        <time>2020-03-26T13:08:26Z</time>
        <extensions><gpxtpx:TrackPointExtension><gpxtpx:hr>143</gpxtpx:hr></gpxtpx:TrackPointExtension></extensions>
      </trkpt>
      <trkpt lat="59.188947" lon="17.489472">
        <ele>47</ele>
        <time>2020-03-26T13:08:27Z</time>
        <extensions><gpxtpx:TrackPointExtension><gpxtpx:hr>142</gpxtpx:hr></gpxtpx:TrackPointExtension></extensions>
      </trkpt>
      <trkpt lat="59.188948" lon="17.489628">
        <ele>47</ele>
        <time>2020-03-26T13:08:28Z</time>
        <extensions><gpxtpx:TrackPointExtension><gpxtpx:hr>142</gpxtpx:hr></gpxtpx:TrackPointExtension></extensions>
      </trkpt>
      <trkpt lat="59.188949" lon="17.489776">
        <ele>47</ele>
        <time>2020-03-26T13:08:29Z</time>
        <extensions><gpxtpx:TrackPointExtension><gpxtpx:hr>142</gpxtpx:hr></gpxtpx:TrackPointExtension></extensions>
      </trkpt>
      <trkpt lat="59.188951" lon="17.489927">
        <ele>47</ele>
        <time>2020-03-26T13:08:30Z</time>
        <extensions><gpxtpx:TrackPointExtension><gpxtpx:hr>141</gpxtpx:hr></gpxtpx:TrackPointExtension></extensions>
      </trkpt>
      <trkpt lat="59.18895" lon="17.490076">
        <ele>47</ele>
        <time>2020-03-26T13:08:31Z</time>
        <extensions><gpxtpx:TrackPointExtension><gpxtpx:hr>141</gpxtpx:hr></gpxtpx:TrackPointExtension></extensions>
      </trkpt>
      <trkpt lat="59.188945" lon="17.490223">
        <ele>47</ele>
        <time>2020-03-26T13:08:32Z</time>
        <extensions><gpxtpx:TrackPointExtension><gpxtpx:hr>140</gpxtpx:hr></gpxtpx:TrackPointExtension></extensions>
      </trkpt>
      <trkpt lat="59.188941" lon="17.490366">
        <ele>47</ele>
        <time>2020-03-26T13:08:33Z</time>
        <extensions><gpxtpx:TrackPointExtension><gpxtpx:hr>140</gpxtpx:hr></gpxtpx:TrackPointExtension></extensions>
      </trkpt>
      <trkpt lat="59.18894" lon="17.490511">
        <ele>47</ele>
        <time>2020-03-26T13:08:34Z</time>
        <extensions><gpxtpx:TrackPointExtension><gpxtpx:hr>140</gpxtpx:hr></gpxtpx:TrackPointExtension></extensions>
      </trkpt>
      <trkpt lat="59.188941" lon="17.490652">
        <ele>47.2</ele>
        <time>2020-03-26T13:08:35Z</time>
        <extensions><gpxtpx:TrackPointExtension><gpxtpx:hr>140</gpxtpx:hr></gpxtpx:TrackPointExtension></extensions>
      </trkpt>
      <trkpt lat="59.188941" lon="17.49079">
        <ele>47.2</ele>
        <time>2020-03-26T13:08:36Z</time>
        <extensions><gpxtpx:TrackPointExtension><gpxtpx:hr>140</gpxtpx:hr></gpxtpx:TrackPointExtension></extensions>
      </trkpt>
      <trkpt lat="59.188941" lon="17.490934">
        <ele>47.4</ele>
        <time>2020-03-26T13:08:37Z</time>
        <extensions><gpxtpx:TrackPointExtension><gpxtpx:hr>140</gpxtpx:hr></gpxtpx:TrackPointExtension></extensions>
      </trkpt>
      <trkpt lat="59.188942" lon="17.49107">
        <ele>47.6</ele>
        <time>2020-03-26T13:08:38Z</time>
        <extensions><gpxtpx:TrackPointExtension><gpxtpx:hr>140</gpxtpx:hr></gpxtpx:TrackPointExtension></extensions>
      </trkpt>
      <trkpt lat="59.188942" lon="17.491203">
        <ele>47.8</ele>
        <time>2020-03-26T13:08:39Z</time>
        <extensions><gpxtpx:TrackPointExtension><gpxtpx:hr>140</gpxtpx:hr></gpxtpx:TrackPointExtension></extensions>
      </trkpt>
      <trkpt lat="59.188945" lon="17.491342">
        <ele>48</ele>
        <time>2020-03-26T13:08:40Z</time>
        <extensions><gpxtpx:TrackPointExtension><gpxtpx:hr>140</gpxtpx:hr></gpxtpx:TrackPointExtension></extensions>
      </trkpt>
      <trkpt lat="59.188952" lon="17.491483">
        <ele>48.2</ele>
        <time>2020-03-26T13:08:41Z</time>
        <extensions><gpxtpx:TrackPointExtension><gpxtpx:hr>140</gpxtpx:hr></gpxtpx:TrackPointExtension></extensions>
      </trkpt>
      <trkpt lat="59.18896" lon="17.491628">
        <ele>48.6</ele>
        <time>2020-03-26T13:08:42Z</time>
        <extensions><gpxtpx:TrackPointExtension><gpxtpx:hr>140</gpxtpx:hr></gpxtpx:TrackPointExtension></extensions>
      </trkpt>
      <trkpt lat="59.188969" lon="17.491768">
        <ele>48.6</ele>
        <time>2020-03-26T13:08:43Z</time>
        <extensions><gpxtpx:TrackPointExtension><gpxtpx:hr>140</gpxtpx:hr></gpxtpx:TrackPointExtension></extensions>
      </trkpt>
      <trkpt lat="59.188973" lon="17.491914">
        <ele>48.8</ele>
        <time>2020-03-26T13:08:44Z</time>
        <extensions><gpxtpx:TrackPointExtension><gpxtpx:hr>140</gpxtpx:hr></gpxtpx:TrackPointExtension></extensions>
      </trkpt>
      <trkpt lat="59.188979" lon="17.492055">
        <ele>48.8</ele>
        <time>2020-03-26T13:08:45Z</time>
        <extensions><gpxtpx:TrackPointExtension><gpxtpx:hr>141</gpxtpx:hr></gpxtpx:TrackPointExtension></extensions>
      </trkpt>
      <trkpt lat="59.188985" lon="17.492197">
        <ele>48.8</ele>
        <time>2020-03-26T13:08:46Z</time>
        <extensions><gpxtpx:TrackPointExtension><gpxtpx:hr>140</gpxtpx:hr></gpxtpx:TrackPointExtension></extensions>
      </trkpt>
      <trkpt lat="59.188987" lon="17.492342">
        <ele>49</ele>
        <time>2020-03-26T13:08:47Z</time>
        <extensions><gpxtpx:TrackPointExtension><gpxtpx:hr>141</gpxtpx:hr></gpxtpx:TrackPointExtension></extensions>
      </trkpt>
      <trkpt lat="59.18899" lon="17.492485">
        <ele>49.2</ele>
        <time>2020-03-26T13:08:48Z</time>
        <extensions><gpxtpx:TrackPointExtension><gpxtpx:hr>141</gpxtpx:hr></gpxtpx:TrackPointExtension></extensions>
      </trkpt>
      <trkpt lat="59.188997" lon="17.492623">
        <ele>49.4</ele>
        <time>2020-03-26T13:08:49Z</time>
        <extensions><gpxtpx:TrackPointExtension><gpxtpx:hr>142</gpxtpx:hr></gpxtpx:TrackPointExtension></extensions>
      </trkpt>
      <trkpt lat="59.189002" lon="17.492768">
        <ele>49.6</ele>
        <time>2020-03-26T13:08:50Z</time>
        <extensions><gpxtpx:TrackPointExtension><gpxtpx:hr>142</gpxtpx:hr></gpxtpx:TrackPointExtension></extensions>
      </trkpt>
      <trkpt lat="59.18901" lon="17.492916">
        <ele>49.8</ele>
        <time>2020-03-26T13:08:51Z</time>
        <extensions><gpxtpx:TrackPointExtension><gpxtpx:hr>142</gpxtpx:hr></gpxtpx:TrackPointExtension></extensions>
      </trkpt>
      <trkpt lat="59.189015" lon="17.493059">
        <ele>50</ele>
        <time>2020-03-26T13:08:52Z</time>
        <extensions><gpxtpx:TrackPointExtension><gpxtpx:hr>143</gpxtpx:hr></gpxtpx:TrackPointExtension></extensions>
      </trkpt>
      <trkpt lat="59.189019" lon="17.493199">
        <ele>50</ele>
        <time>2020-03-26T13:08:53Z</time>
        <extensions><gpxtpx:TrackPointExtension><gpxtpx:hr>143</gpxtpx:hr></gpxtpx:TrackPointExtension></extensions>
      </trkpt>
      <trkpt lat="59.189021" lon="17.493336">
        <ele>50.2</ele>
        <time>2020-03-26T13:08:54Z</time>
        <extensions><gpxtpx:TrackPointExtension><gpxtpx:hr>143</gpxtpx:hr></gpxtpx:TrackPointExtension></extensions>
      </trkpt>
      <trkpt lat="59.189023" lon="17.493479">
        <ele>50.2</ele>
        <time>2020-03-26T13:08:55Z</time>
        <extensions><gpxtpx:TrackPointExtension><gpxtpx:hr>143</gpxtpx:hr></gpxtpx:TrackPointExtension></extensions>
      </trkpt>
      <trkpt lat="59.189023" lon="17.493624">
        <ele>50.2</ele>
        <time>2020-03-26T13:08:56Z</time>
        <extensions><gpxtpx:TrackPointExtension><gpxtpx:hr>143</gpxtpx:hr></gpxtpx:TrackPointExtension></extensions>
      </trkpt>
      <trkpt lat="59.18902" lon="17.493775">
        <ele>50.2</ele>
        <time>2020-03-26T13:08:57Z</time>
        <extensions><gpxtpx:TrackPointExtension><gpxtpx:hr>143</gpxtpx:hr></gpxtpx:TrackPointExtension></extensions>
      </trkpt>
      <trkpt lat="59.189015" lon="17.493921">
        <ele>50.2</ele>
        <time>2020-03-26T13:08:58Z</time>
        <extensions><gpxtpx:TrackPointExtension><gpxtpx:hr>143</gpxtpx:hr></gpxtpx:TrackPointExtension></extensions>
      </trkpt>
      <trkpt lat="59.189005" lon="17.49407">
        <ele>50.2</ele>
        <time>2020-03-26T13:08:59Z</time>
        <extensions><gpxtpx:TrackPointExtension><gpxtpx:hr>142</gpxtpx:hr></gpxtpx:TrackPointExtension></extensions>
      </trkpt>
      <trkpt lat="59.188992" lon="17.494214">
        <ele>50.2</ele>
        <time>2020-03-26T13:09:00Z</time>
        <extensions><gpxtpx:TrackPointExtension><gpxtpx:hr>142</gpxtpx:hr></gpxtpx:TrackPointExtension></extensions>
      </trkpt>
      <trkpt lat="59.188976" lon="17.49436">
        <ele>50.2</ele>
        <time>2020-03-26T13:09:01Z</time>
        <extensions><gpxtpx:TrackPointExtension><gpxtpx:hr>141</gpxtpx:hr></gpxtpx:TrackPointExtension></extensions>
      </trkpt>
      <trkpt lat="59.188961" lon="17.494517">
        <ele>50.2</ele>
        <time>2020-03-26T13:09:02Z</time>
        <extensions><gpxtpx:TrackPointExtension><gpxtpx:hr>140</gpxtpx:hr></gpxtpx:TrackPointExtension></extensions>
      </trkpt>
      <trkpt lat="59.188943" lon="17.494662">
        <ele>50.2</ele>
        <time>2020-03-26T13:09:03Z</time>
        <extensions><gpxtpx:TrackPointExtension><gpxtpx:hr>139</gpxtpx:hr></gpxtpx:TrackPointExtension></extensions>
      </trkpt>
      <trkpt lat="59.188923" lon="17.494808">
        <ele>50</ele>
        <time>2020-03-26T13:09:04Z</time>
        <extensions><gpxtpx:TrackPointExtension><gpxtpx:hr>139</gpxtpx:hr></gpxtpx:TrackPointExtension></extensions>
      </trkpt>
      <trkpt lat="59.188902" lon="17.494954">
        <ele>49.6</ele>
        <time>2020-03-26T13:09:05Z</time>
        <extensions><gpxtpx:TrackPointExtension><gpxtpx:hr>139</gpxtpx:hr></gpxtpx:TrackPointExtension></extensions>
      </trkpt>
      <trkpt lat="59.188883" lon="17.495096">
        <ele>49.2</ele>
        <time>2020-03-26T13:09:06Z</time>
        <extensions><gpxtpx:TrackPointExtension><gpxtpx:hr>139</gpxtpx:hr></gpxtpx:TrackPointExtension></extensions>
      </trkpt>
      <trkpt lat="59.188864" lon="17.495238">
        <ele>48.8</ele>
        <time>2020-03-26T13:09:07Z</time>
        <extensions><gpxtpx:TrackPointExtension><gpxtpx:hr>139</gpxtpx:hr></gpxtpx:TrackPointExtension></extensions>
      </trkpt>
      <trkpt lat="59.188844" lon="17.495372">
        <ele>48.6</ele>
        <time>2020-03-26T13:09:08Z</time>
        <extensions><gpxtpx:TrackPointExtension><gpxtpx:hr>139</gpxtpx:hr></gpxtpx:TrackPointExtension></extensions>
      </trkpt>
      <trkpt lat="59.188825" lon="17.495494">
        <ele>48.6</ele>
        <time>2020-03-26T13:09:09Z</time>
        <extensions><gpxtpx:TrackPointExtension><gpxtpx:hr>139</gpxtpx:hr></gpxtpx:TrackPointExtension></extensions>
      </trkpt>
      <trkpt lat="59.188806" lon="17.495615">
        <ele>48.4</ele>
        <time>2020-03-26T13:09:10Z</time>
        <extensions><gpxtpx:TrackPointExtension><gpxtpx:hr>139</gpxtpx:hr></gpxtpx:TrackPointExtension></extensions>
      </trkpt>
      <trkpt lat="59.188785" lon="17.495737">
        <ele>48.4</ele>
        <time>2020-03-26T13:09:11Z</time>
        <extensions><gpxtpx:TrackPointExtension><gpxtpx:hr>138</gpxtpx:hr></gpxtpx:TrackPointExtension></extensions>
      </trkpt>
      <trkpt lat="59.188764" lon="17.495862">
        <ele>48.4</ele>
        <time>2020-03-26T13:09:12Z</time>
        <extensions><gpxtpx:TrackPointExtension><gpxtpx:hr>138</gpxtpx:hr></gpxtpx:TrackPointExtension></extensions>
      </trkpt>
      <trkpt lat="59.188745" lon="17.495978">
        <ele>48.4</ele>
        <time>2020-03-26T13:09:13Z</time>
        <extensions><gpxtpx:TrackPointExtension><gpxtpx:hr>138</gpxtpx:hr></gpxtpx:TrackPointExtension></extensions>
      </trkpt>
      <trkpt lat="59.188727" lon="17.496096">
        <ele>48.4</ele>
        <time>2020-03-26T13:09:14Z</time>
        <extensions><gpxtpx:TrackPointExtension><gpxtpx:hr>137</gpxtpx:hr></gpxtpx:TrackPointExtension></extensions>
      </trkpt>
      <trkpt lat="59.18871" lon="17.496206">
        <ele>48.4</ele>
        <time>2020-03-26T13:09:15Z</time>
        <extensions><gpxtpx:TrackPointExtension><gpxtpx:hr>137</gpxtpx:hr></gpxtpx:TrackPointExtension></extensions>
      </trkpt>
      <trkpt lat="59.188691" lon="17.496312">
        <ele>48.4</ele>
        <time>2020-03-26T13:09:16Z</time>
        <extensions><gpxtpx:TrackPointExtension><gpxtpx:hr>138</gpxtpx:hr></gpxtpx:TrackPointExtension></extensions>
      </trkpt>
      <trkpt lat="59.188673" lon="17.496421">
        <ele>48.6</ele>
        <time>2020-03-26T13:09:17Z</time>
        <extensions><gpxtpx:TrackPointExtension><gpxtpx:hr>138</gpxtpx:hr></gpxtpx:TrackPointExtension></extensions>
      </trkpt>
      <trkpt lat="59.188658" lon="17.496532">
        <ele>49</ele>
        <time>2020-03-26T13:09:18Z</time>
        <extensions><gpxtpx:TrackPointExtension><gpxtpx:hr>139</gpxtpx:hr></gpxtpx:TrackPointExtension></extensions>
      </trkpt>
      <trkpt lat="59.188645" lon="17.496638">
        <ele>49.4</ele>
        <time>2020-03-26T13:09:19Z</time>
        <extensions><gpxtpx:TrackPointExtension><gpxtpx:hr>140</gpxtpx:hr></gpxtpx:TrackPointExtension></extensions>
      </trkpt>
      <trkpt lat="59.18863" lon="17.496753">
        <ele>49.8</ele>
        <time>2020-03-26T13:09:20Z</time>
        <extensions><gpxtpx:TrackPointExtension><gpxtpx:hr>142</gpxtpx:hr></gpxtpx:TrackPointExtension></extensions>
      </trkpt>
      <trkpt lat="59.188614" lon="17.49687">
        <ele>50.6</ele>
        <time>2020-03-26T13:09:21Z</time>
        <extensions><gpxtpx:TrackPointExtension><gpxtpx:hr>143</gpxtpx:hr></gpxtpx:TrackPointExtension></extensions>
      </trkpt>
      <trkpt lat="59.188601" lon="17.496983">
        <ele>51</ele>
        <time>2020-03-26T13:09:22Z</time>
        <extensions><gpxtpx:TrackPointExtension><gpxtpx:hr>145</gpxtpx:hr></gpxtpx:TrackPointExtension></extensions>
      </trkpt>
      <trkpt lat="59.188587" lon="17.497094">
        <ele>51.2</ele>
        <time>2020-03-26T13:09:23Z</time>
        <extensions><gpxtpx:TrackPointExtension><gpxtpx:hr>146</gpxtpx:hr></gpxtpx:TrackPointExtension></extensions>
      </trkpt>
      <trkpt lat="59.188575" lon="17.497211">
        <ele>51.6</ele>
        <time>2020-03-26T13:09:24Z</time>
        <extensions><gpxtpx:TrackPointExtension><gpxtpx:hr>147</gpxtpx:hr></gpxtpx:TrackPointExtension></extensions>
      </trkpt>
      <trkpt lat="59.188566" lon="17.49734">
        <ele>52.2</ele>
        <time>2020-03-26T13:09:25Z</time>
        <extensions><gpxtpx:TrackPointExtension><gpxtpx:hr>148</gpxtpx:hr></gpxtpx:TrackPointExtension></extensions>
      </trkpt>
      <trkpt lat="59.188557" lon="17.497471">
        <ele>52.4</ele>
        <time>2020-03-26T13:09:26Z</time>
        <extensions><gpxtpx:TrackPointExtension><gpxtpx:hr>148</gpxtpx:hr></gpxtpx:TrackPointExtension></extensions>
      </trkpt>
      <trkpt lat="59.188549" lon="17.4976">
        <ele>52.8</ele>
        <time>2020-03-26T13:09:27Z</time>
        <extensions><gpxtpx:TrackPointExtension><gpxtpx:hr>149</gpxtpx:hr></gpxtpx:TrackPointExtension></extensions>
      </trkpt>
      <trkpt lat="59.188542" lon="17.49773">
        <ele>53</ele>
        <time>2020-03-26T13:09:28Z</time>
        <extensions><gpxtpx:TrackPointExtension><gpxtpx:hr>151</gpxtpx:hr></gpxtpx:TrackPointExtension></extensions>
      </trkpt>
      <trkpt lat="59.188535" lon="17.497859">
        <ele>53.2</ele>
        <time>2020-03-26T13:09:29Z</time>
        <extensions><gpxtpx:TrackPointExtension><gpxtpx:hr>151</gpxtpx:hr></gpxtpx:TrackPointExtension></extensions>
      </trkpt>
      <trkpt lat="59.188531" lon="17.497988">
        <ele>53.4</ele>
        <time>2020-03-26T13:09:30Z</time>
        <extensions><gpxtpx:TrackPointExtension><gpxtpx:hr>152</gpxtpx:hr></gpxtpx:TrackPointExtension></extensions>
      </trkpt>
      <trkpt lat="59.188526" lon="17.498118">
        <ele>53.6</ele>
        <time>2020-03-26T13:09:31Z</time>
        <extensions><gpxtpx:TrackPointExtension><gpxtpx:hr>152</gpxtpx:hr></gpxtpx:TrackPointExtension></extensions>
      </trkpt>
      <trkpt lat="59.188523" lon="17.498244">
        <ele>53.6</ele>
        <time>2020-03-26T13:09:32Z</time>
        <extensions><gpxtpx:TrackPointExtension><gpxtpx:hr>153</gpxtpx:hr></gpxtpx:TrackPointExtension></extensions>
      </trkpt>
      <trkpt lat="59.188523" lon="17.498372">
        <ele>53.8</ele>
        <time>2020-03-26T13:09:33Z</time>
        <extensions><gpxtpx:TrackPointExtension><gpxtpx:hr>153</gpxtpx:hr></gpxtpx:TrackPointExtension></extensions>
      </trkpt>
      <trkpt lat="59.188526" lon="17.498501">
        <ele>54</ele>
        <time>2020-03-26T13:09:34Z</time>
        <extensions><gpxtpx:TrackPointExtension><gpxtpx:hr>153</gpxtpx:hr></gpxtpx:TrackPointExtension></extensions>
      </trkpt>
      <trkpt lat="59.188529" lon="17.498631">
        <ele>54.2</ele>
        <time>2020-03-26T13:09:35Z</time>
        <extensions><gpxtpx:TrackPointExtension><gpxtpx:hr>154</gpxtpx:hr></gpxtpx:TrackPointExtension></extensions>
      </trkpt>
      <trkpt lat="59.188536" lon="17.49876">
        <ele>54.4</ele>
        <time>2020-03-26T13:09:36Z</time>
        <extensions><gpxtpx:TrackPointExtension><gpxtpx:hr>154</gpxtpx:hr></gpxtpx:TrackPointExtension></extensions>
      </trkpt>
      <trkpt lat="59.188543" lon="17.49889">
        <ele>54.4</ele>
        <time>2020-03-26T13:09:37Z</time>
        <extensions><gpxtpx:TrackPointExtension><gpxtpx:hr>154</gpxtpx:hr></gpxtpx:TrackPointExtension></extensions>
      </trkpt>
      <trkpt lat="59.18855" lon="17.499022">
        <ele>54.6</ele>
        <time>2020-03-26T13:09:38Z</time>
        <extensions><gpxtpx:TrackPointExtension><gpxtpx:hr>154</gpxtpx:hr></gpxtpx:TrackPointExtension></extensions>
      </trkpt>
      <trkpt lat="59.188559" lon="17.499151">
        <ele>54.6</ele>
        <time>2020-03-26T13:09:39Z</time>
        <extensions><gpxtpx:TrackPointExtension><gpxtpx:hr>154</gpxtpx:hr></gpxtpx:TrackPointExtension></extensions>
      </trkpt>
      <trkpt lat="59.188566" lon="17.499282">
        <ele>54.6</ele>
        <time>2020-03-26T13:09:40Z</time>
        <extensions><gpxtpx:TrackPointExtension><gpxtpx:hr>154</gpxtpx:hr></gpxtpx:TrackPointExtension></extensions>
      </trkpt>
      <trkpt lat="59.188575" lon="17.499406">
        <ele>54.8</ele>
        <time>2020-03-26T13:09:41Z</time>
        <extensions><gpxtpx:TrackPointExtension><gpxtpx:hr>154</gpxtpx:hr></gpxtpx:TrackPointExtension></extensions>
      </trkpt>
      <trkpt lat="59.188587" lon="17.499526">
        <ele>54.8</ele>
        <time>2020-03-26T13:09:42Z</time>
        <extensions><gpxtpx:TrackPointExtension><gpxtpx:hr>154</gpxtpx:hr></gpxtpx:TrackPointExtension></extensions>
      </trkpt>
      <trkpt lat="59.188602" lon="17.499638">
        <ele>54.8</ele>
        <time>2020-03-26T13:09:43Z</time>
        <extensions><gpxtpx:TrackPointExtension><gpxtpx:hr>154</gpxtpx:hr></gpxtpx:TrackPointExtension></extensions>
      </trkpt>
      <trkpt lat="59.188618" lon="17.499747">
        <ele>54.8</ele>
        <time>2020-03-26T13:09:44Z</time>
        <extensions><gpxtpx:TrackPointExtension><gpxtpx:hr>154</gpxtpx:hr></gpxtpx:TrackPointExtension></extensions>
      </trkpt>
      <trkpt lat="59.188633" lon="17.49986">
        <ele>54.8</ele>
        <time>2020-03-26T13:09:45Z</time>
        <extensions><gpxtpx:TrackPointExtension><gpxtpx:hr>153</gpxtpx:hr></gpxtpx:TrackPointExtension></extensions>
      </trkpt>
      <trkpt lat="59.188648" lon="17.499973">
        <ele>55</ele>
        <time>2020-03-26T13:09:46Z</time>
        <extensions><gpxtpx:TrackPointExtension><gpxtpx:hr>153</gpxtpx:hr></gpxtpx:TrackPointExtension></extensions>
      </trkpt>
      <trkpt lat="59.188662" lon="17.500084">
        <ele>55</ele>
        <time>2020-03-26T13:09:47Z</time>
        <extensions><gpxtpx:TrackPointExtension><gpxtpx:hr>153</gpxtpx:hr></gpxtpx:TrackPointExtension></extensions>
      </trkpt>
      <trkpt lat="59.188677" lon="17.500195">
        <ele>55</ele>
        <time>2020-03-26T13:09:48Z</time>
        <extensions><gpxtpx:TrackPointExtension><gpxtpx:hr>153</gpxtpx:hr></gpxtpx:TrackPointExtension></extensions>
      </trkpt>
      <trkpt lat="59.188695" lon="17.500301">
        <ele>55</ele>
        <time>2020-03-26T13:09:49Z</time>
        <extensions><gpxtpx:TrackPointExtension><gpxtpx:hr>153</gpxtpx:hr></gpxtpx:TrackPointExtension></extensions>
      </trkpt>
      <trkpt lat="59.188712" lon="17.500414">
        <ele>55</ele>
        <time>2020-03-26T13:09:50Z</time>
        <extensions><gpxtpx:TrackPointExtension><gpxtpx:hr>153</gpxtpx:hr></gpxtpx:TrackPointExtension></extensions>
      </trkpt>
      <trkpt lat="59.188731" lon="17.500534">
        <ele>55.4</ele>
        <time>2020-03-26T13:09:51Z</time>
        <extensions><gpxtpx:TrackPointExtension><gpxtpx:hr>153</gpxtpx:hr></gpxtpx:TrackPointExtension></extensions>
      </trkpt>
      <trkpt lat="59.18875" lon="17.500643">
        <ele>55.4</ele>
        <time>2020-03-26T13:09:52Z</time>
        <extensions><gpxtpx:TrackPointExtension><gpxtpx:hr>153</gpxtpx:hr></gpxtpx:TrackPointExtension></extensions>
      </trkpt>
      <trkpt lat="59.188768" lon="17.500755">
        <ele>55.6</ele>
        <time>2020-03-26T13:09:53Z</time>
        <extensions><gpxtpx:TrackPointExtension><gpxtpx:hr>153</gpxtpx:hr></gpxtpx:TrackPointExtension></extensions>
      </trkpt>
      <trkpt lat="59.188786" lon="17.500861">
        <ele>55.8</ele>
        <time>2020-03-26T13:09:54Z</time>
        <extensions><gpxtpx:TrackPointExtension><gpxtpx:hr>153</gpxtpx:hr></gpxtpx:TrackPointExtension></extensions>
      </trkpt>
      <trkpt lat="59.188802" lon="17.500966">
        <ele>56</ele>
        <time>2020-03-26T13:09:55Z</time>
        <extensions><gpxtpx:TrackPointExtension><gpxtpx:hr>153</gpxtpx:hr></gpxtpx:TrackPointExtension></extensions>
      </trkpt>
      <trkpt lat="59.188819" lon="17.501068">
        <ele>56.2</ele>
        <time>2020-03-26T13:09:56Z</time>
        <extensions><gpxtpx:TrackPointExtension><gpxtpx:hr>153</gpxtpx:hr></gpxtpx:TrackPointExtension></extensions>
      </trkpt>
      <trkpt lat="59.188836" lon="17.501168">
        <ele>56.4</ele>
        <time>2020-03-26T13:09:57Z</time>
        <extensions><gpxtpx:TrackPointExtension><gpxtpx:hr>153</gpxtpx:hr></gpxtpx:TrackPointExtension></extensions>
      </trkpt>
      <trkpt lat="59.188853" lon="17.501266">
        <ele>56.4</ele>
        <time>2020-03-26T13:09:58Z</time>
        <extensions><gpxtpx:TrackPointExtension><gpxtpx:hr>153</gpxtpx:hr></gpxtpx:TrackPointExtension></extensions>
      </trkpt>
      <trkpt lat="59.188869" lon="17.501357">
        <ele>56.6</ele>
        <time>2020-03-26T13:09:59Z</time>
        <extensions><gpxtpx:TrackPointExtension><gpxtpx:hr>153</gpxtpx:hr></gpxtpx:TrackPointExtension></extensions>
      </trkpt>
      <trkpt lat="59.188884" lon="17.501448">
        <ele>56.8</ele>
        <time>2020-03-26T13:10:00Z</time>
        <extensions><gpxtpx:TrackPointExtension><gpxtpx:hr>153</gpxtpx:hr></gpxtpx:TrackPointExtension></extensions>
      </trkpt>
      <trkpt lat="59.188901" lon="17.50154">
        <ele>57</ele>
        <time>2020-03-26T13:10:01Z</time>
        <extensions><gpxtpx:TrackPointExtension><gpxtpx:hr>153</gpxtpx:hr></gpxtpx:TrackPointExtension></extensions>
      </trkpt>
      <trkpt lat="59.188918" lon="17.501631">
        <ele>57.2</ele>
        <time>2020-03-26T13:10:02Z</time>
        <extensions><gpxtpx:TrackPointExtension><gpxtpx:hr>153</gpxtpx:hr></gpxtpx:TrackPointExtension></extensions>
      </trkpt>
      <trkpt lat="59.188936" lon="17.501724">
        <ele>57.6</ele>
        <time>2020-03-26T13:10:03Z</time>
        <extensions><gpxtpx:TrackPointExtension><gpxtpx:hr>153</gpxtpx:hr></gpxtpx:TrackPointExtension></extensions>
      </trkpt>
      <trkpt lat="59.188952" lon="17.501817">
        <ele>57.8</ele>
        <time>2020-03-26T13:10:04Z</time>
        <extensions><gpxtpx:TrackPointExtension><gpxtpx:hr>153</gpxtpx:hr></gpxtpx:TrackPointExtension></extensions>
      </trkpt>
      <trkpt lat="59.188969" lon="17.501912">
        <ele>58.2</ele>
        <time>2020-03-26T13:10:05Z</time>
        <extensions><gpxtpx:TrackPointExtension><gpxtpx:hr>153</gpxtpx:hr></gpxtpx:TrackPointExtension></extensions>
      </trkpt>
      <trkpt lat="59.188986" lon="17.502005">
        <ele>58.4</ele>
        <time>2020-03-26T13:10:06Z</time>
        <extensions><gpxtpx:TrackPointExtension><gpxtpx:hr>153</gpxtpx:hr></gpxtpx:TrackPointExtension></extensions>
      </trkpt>
      <trkpt lat="59.189005" lon="17.502097">
        <ele>58.6</ele>
        <time>2020-03-26T13:10:07Z</time>
        <extensions><gpxtpx:TrackPointExtension><gpxtpx:hr>153</gpxtpx:hr></gpxtpx:TrackPointExtension></extensions>
      </trkpt>
      <trkpt lat="59.189022" lon="17.502188">
        <ele>58.8</ele>
        <time>2020-03-26T13:10:08Z</time>
        <extensions><gpxtpx:TrackPointExtension><gpxtpx:hr>153</gpxtpx:hr></gpxtpx:TrackPointExtension></extensions>
      </trkpt>
      <trkpt lat="59.189038" lon="17.502284">
        <ele>59</ele>
        <time>2020-03-26T13:10:09Z</time>
        <extensions><gpxtpx:TrackPointExtension><gpxtpx:hr>153</gpxtpx:hr></gpxtpx:TrackPointExtension></extensions>
      </trkpt>
      <trkpt lat="59.189055" lon="17.502381">
        <ele>59.2</ele>
        <time>2020-03-26T13:10:10Z</time>
        <extensions><gpxtpx:TrackPointExtension><gpxtpx:hr>153</gpxtpx:hr></gpxtpx:TrackPointExtension></extensions>
      </trkpt>
      <trkpt lat="59.189071" lon="17.502472">
        <ele>59.8</ele>
        <time>2020-03-26T13:10:11Z</time>
        <extensions><gpxtpx:TrackPointExtension><gpxtpx:hr>153</gpxtpx:hr></gpxtpx:TrackPointExtension></extensions>
      </trkpt>
      <trkpt lat="59.189084" lon="17.502563">
        <ele>60</ele>
        <time>2020-03-26T13:10:12Z</time>
        <extensions><gpxtpx:TrackPointExtension><gpxtpx:hr>153</gpxtpx:hr></gpxtpx:TrackPointExtension></extensions>
      </trkpt>
      <trkpt lat="59.189098" lon="17.50266">
        <ele>60.4</ele>
        <time>2020-03-26T13:10:13Z</time>
        <extensions><gpxtpx:TrackPointExtension><gpxtpx:hr>154</gpxtpx:hr></gpxtpx:TrackPointExtension></extensions>
      </trkpt>
      <trkpt lat="59.189114" lon="17.502753">
        <ele>60.6</ele>
        <time>2020-03-26T13:10:14Z</time>
        <extensions><gpxtpx:TrackPointExtension><gpxtpx:hr>153</gpxtpx:hr></gpxtpx:TrackPointExtension></extensions>
      </trkpt>
      <trkpt lat="59.189129" lon="17.502844">
        <ele>61</ele>
        <time>2020-03-26T13:10:15Z</time>
        <extensions><gpxtpx:TrackPointExtension><gpxtpx:hr>153</gpxtpx:hr></gpxtpx:TrackPointExtension></extensions>
      </trkpt>
      <trkpt lat="59.189145" lon="17.502937">
        <ele>61.4</ele>
        <time>2020-03-26T13:10:16Z</time>
        <extensions><gpxtpx:TrackPointExtension><gpxtpx:hr>152</gpxtpx:hr></gpxtpx:TrackPointExtension></extensions>
      </trkpt>
      <trkpt lat="59.189161" lon="17.503033">
        <ele>61.8</ele>
        <time>2020-03-26T13:10:17Z</time>
        <extensions><gpxtpx:TrackPointExtension><gpxtpx:hr>152</gpxtpx:hr></gpxtpx:TrackPointExtension></extensions>
      </trkpt>
      <trkpt lat="59.189176" lon="17.503136">
        <ele>62</ele>
        <time>2020-03-26T13:10:18Z</time>
        <extensions><gpxtpx:TrackPointExtension><gpxtpx:hr>152</gpxtpx:hr></gpxtpx:TrackPointExtension></extensions>
      </trkpt>
      <trkpt lat="59.189192" lon="17.503238">
        <ele>62</ele>
        <time>2020-03-26T13:10:19Z</time>
        <extensions><gpxtpx:TrackPointExtension><gpxtpx:hr>152</gpxtpx:hr></gpxtpx:TrackPointExtension></extensions>
      </trkpt>
      <trkpt lat="59.189208" lon="17.503345">
        <ele>62.2</ele>
        <time>2020-03-26T13:10:20Z</time>
        <extensions><gpxtpx:TrackPointExtension><gpxtpx:hr>152</gpxtpx:hr></gpxtpx:TrackPointExtension></extensions>
      </trkpt>
      <trkpt lat="59.189223" lon="17.503462">
        <ele>62.2</ele>
        <time>2020-03-26T13:10:21Z</time>
        <extensions><gpxtpx:TrackPointExtension><gpxtpx:hr>152</gpxtpx:hr></gpxtpx:TrackPointExtension></extensions>
      </trkpt>
      <trkpt lat="59.189239" lon="17.503584">
        <ele>62.2</ele>
        <time>2020-03-26T13:10:22Z</time>
        <extensions><gpxtpx:TrackPointExtension><gpxtpx:hr>152</gpxtpx:hr></gpxtpx:TrackPointExtension></extensions>
      </trkpt>
      <trkpt lat="59.189253" lon="17.503706">
        <ele>62.2</ele>
        <time>2020-03-26T13:10:23Z</time>
        <extensions><gpxtpx:TrackPointExtension><gpxtpx:hr>152</gpxtpx:hr></gpxtpx:TrackPointExtension></extensions>
      </trkpt>
      <trkpt lat="59.189265" lon="17.503825">
        <ele>62.2</ele>
        <time>2020-03-26T13:10:24Z</time>
        <extensions><gpxtpx:TrackPointExtension><gpxtpx:hr>152</gpxtpx:hr></gpxtpx:TrackPointExtension></extensions>
      </trkpt>
      <trkpt lat="59.189276" lon="17.50395">
        <ele>62.2</ele>
        <time>2020-03-26T13:10:25Z</time>
        <extensions><gpxtpx:TrackPointExtension><gpxtpx:hr>152</gpxtpx:hr></gpxtpx:TrackPointExtension></extensions>
      </trkpt>
      <trkpt lat="59.189287" lon="17.504079">
        <ele>62.2</ele>
        <time>2020-03-26T13:10:26Z</time>
        <extensions><gpxtpx:TrackPointExtension><gpxtpx:hr>152</gpxtpx:hr></gpxtpx:TrackPointExtension></extensions>
      </trkpt>
      <trkpt lat="59.189299" lon="17.504217">
        <ele>62.2</ele>
        <time>2020-03-26T13:10:27Z</time>
        <extensions><gpxtpx:TrackPointExtension><gpxtpx:hr>152</gpxtpx:hr></gpxtpx:TrackPointExtension></extensions>
      </trkpt>
      <trkpt lat="59.18931" lon="17.50436">
        <ele>62.2</ele>
        <time>2020-03-26T13:10:28Z</time>
        <extensions><gpxtpx:TrackPointExtension><gpxtpx:hr>153</gpxtpx:hr></gpxtpx:TrackPointExtension></extensions>
      </trkpt>
      <trkpt lat="59.189321" lon="17.504507">
        <ele>62.2</ele>
        <time>2020-03-26T13:10:29Z</time>
        <extensions><gpxtpx:TrackPointExtension><gpxtpx:hr>153</gpxtpx:hr></gpxtpx:TrackPointExtension></extensions>
      </trkpt>
      <trkpt lat="59.189333" lon="17.504658">
        <ele>62</ele>
        <time>2020-03-26T13:10:30Z</time>
        <extensions><gpxtpx:TrackPointExtension><gpxtpx:hr>153</gpxtpx:hr></gpxtpx:TrackPointExtension></extensions>
      </trkpt>
      <trkpt lat="59.189346" lon="17.504813">
        <ele>61.8</ele>
        <time>2020-03-26T13:10:31Z</time>
        <extensions><gpxtpx:TrackPointExtension><gpxtpx:hr>153</gpxtpx:hr></gpxtpx:TrackPointExtension></extensions>
      </trkpt>
      <trkpt lat="59.189358" lon="17.504975">
        <ele>61.4</ele>
        <time>2020-03-26T13:10:32Z</time>
        <extensions><gpxtpx:TrackPointExtension><gpxtpx:hr>153</gpxtpx:hr></gpxtpx:TrackPointExtension></extensions>
      </trkpt>
      <trkpt lat="59.189369" lon="17.505141">
        <ele>61.2</ele>
        <time>2020-03-26T13:10:33Z</time>
        <extensions><gpxtpx:TrackPointExtension><gpxtpx:hr>153</gpxtpx:hr></gpxtpx:TrackPointExtension></extensions>
      </trkpt>
      <trkpt lat="59.189379" lon="17.505311">
        <ele>61</ele>
        <time>2020-03-26T13:10:34Z</time>
        <extensions><gpxtpx:TrackPointExtension><gpxtpx:hr>153</gpxtpx:hr></gpxtpx:TrackPointExtension></extensions>
      </trkpt>
      <trkpt lat="59.18939" lon="17.505484">
        <ele>60.8</ele>
        <time>2020-03-26T13:10:35Z</time>
        <extensions><gpxtpx:TrackPointExtension><gpxtpx:hr>153</gpxtpx:hr></gpxtpx:TrackPointExtension></extensions>
      </trkpt>
      <trkpt lat="59.1894" lon="17.505656">
        <ele>60.4</ele>
        <time>2020-03-26T13:10:36Z</time>
        <extensions><gpxtpx:TrackPointExtension><gpxtpx:hr>152</gpxtpx:hr></gpxtpx:TrackPointExtension></extensions>
      </trkpt>
      <trkpt lat="59.18941" lon="17.505828">
        <ele>59.8</ele>
        <time>2020-03-26T13:10:37Z</time>
        <extensions><gpxtpx:TrackPointExtension><gpxtpx:hr>152</gpxtpx:hr></gpxtpx:TrackPointExtension></extensions>
      </trkpt>
      <trkpt lat="59.189418" lon="17.506003">
        <ele>59.4</ele>
        <time>2020-03-26T13:10:38Z</time>
        <extensions><gpxtpx:TrackPointExtension><gpxtpx:hr>151</gpxtpx:hr></gpxtpx:TrackPointExtension></extensions>
      </trkpt>
      <trkpt lat="59.189424" lon="17.506178">
        <ele>59</ele>
        <time>2020-03-26T13:10:39Z</time>
        <extensions><gpxtpx:TrackPointExtension><gpxtpx:hr>150</gpxtpx:hr></gpxtpx:TrackPointExtension></extensions>
      </trkpt>
      <trkpt lat="59.189429" lon="17.506354">
        <ele>58.6</ele>
        <time>2020-03-26T13:10:40Z</time>
        <extensions><gpxtpx:TrackPointExtension><gpxtpx:hr>150</gpxtpx:hr></gpxtpx:TrackPointExtension></extensions>
      </trkpt>
      <trkpt lat="59.189431" lon="17.506525">
        <ele>58.2</ele>
        <time>2020-03-26T13:10:41Z</time>
        <extensions><gpxtpx:TrackPointExtension><gpxtpx:hr>149</gpxtpx:hr></gpxtpx:TrackPointExtension></extensions>
      </trkpt>
      <trkpt lat="59.189427" lon="17.506697">
        <ele>58</ele>
        <time>2020-03-26T13:10:42Z</time>
        <extensions><gpxtpx:TrackPointExtension><gpxtpx:hr>148</gpxtpx:hr></gpxtpx:TrackPointExtension></extensions>
      </trkpt>
      <trkpt lat="59.189421" lon="17.506867">
        <ele>57.8</ele>
        <time>2020-03-26T13:10:43Z</time>
        <extensions><gpxtpx:TrackPointExtension><gpxtpx:hr>147</gpxtpx:hr></gpxtpx:TrackPointExtension></extensions>
      </trkpt>
      <trkpt lat="59.189411" lon="17.507044">
        <ele>57.6</ele>
        <time>2020-03-26T13:10:44Z</time>
        <extensions><gpxtpx:TrackPointExtension><gpxtpx:hr>147</gpxtpx:hr></gpxtpx:TrackPointExtension></extensions>
      </trkpt>
      <trkpt lat="59.189401" lon="17.507224">
        <ele>57.2</ele>
        <time>2020-03-26T13:10:45Z</time>
        <extensions><gpxtpx:TrackPointExtension><gpxtpx:hr>145</gpxtpx:hr></gpxtpx:TrackPointExtension></extensions>
      </trkpt>
      <trkpt lat="59.189394" lon="17.507362">
        <ele>57</ele>
        <time>2020-03-26T13:10:46Z</time>
        <extensions><gpxtpx:TrackPointExtension><gpxtpx:hr>143</gpxtpx:hr></gpxtpx:TrackPointExtension></extensions>
      </trkpt>
      <trkpt lat="59.189386" lon="17.5075">
        <ele>56.4</ele>
        <time>2020-03-26T13:10:47Z</time>
        <extensions><gpxtpx:TrackPointExtension><gpxtpx:hr>141</gpxtpx:hr></gpxtpx:TrackPointExtension></extensions>
      </trkpt>
      <trkpt lat="59.189371" lon="17.507776">
        <ele>56</ele>
        <time>2020-03-26T13:10:48Z</time>
        <extensions><gpxtpx:TrackPointExtension><gpxtpx:hr>139</gpxtpx:hr></gpxtpx:TrackPointExtension></extensions>
      </trkpt>
      <trkpt lat="59.189362" lon="17.507956">
        <ele>55.6</ele>
        <time>2020-03-26T13:10:49Z</time>
        <extensions><gpxtpx:TrackPointExtension><gpxtpx:hr>137</gpxtpx:hr></gpxtpx:TrackPointExtension></extensions>
      </trkpt>
      <trkpt lat="59.189353" lon="17.508132">
        <ele>54.6</ele>
        <time>2020-03-26T13:10:50Z</time>
        <extensions><gpxtpx:TrackPointExtension><gpxtpx:hr>136</gpxtpx:hr></gpxtpx:TrackPointExtension></extensions>
      </trkpt>
      <trkpt lat="59.189345" lon="17.508308">
        <ele>54.4</ele>
        <time>2020-03-26T13:10:51Z</time>
        <extensions><gpxtpx:TrackPointExtension><gpxtpx:hr>135</gpxtpx:hr></gpxtpx:TrackPointExtension></extensions>
      </trkpt>
      <trkpt lat="59.189337" lon="17.50849">
        <ele>53.8</ele>
        <time>2020-03-26T13:10:52Z</time>
        <extensions><gpxtpx:TrackPointExtension><gpxtpx:hr>133</gpxtpx:hr></gpxtpx:TrackPointExtension></extensions>
      </trkpt>
      <trkpt lat="59.189329" lon="17.508672">
        <ele>53.2</ele>
        <time>2020-03-26T13:10:53Z</time>
        <extensions><gpxtpx:TrackPointExtension><gpxtpx:hr>132</gpxtpx:hr></gpxtpx:TrackPointExtension></extensions>
      </trkpt>
      <trkpt lat="59.18932" lon="17.508852">
        <ele>52.6</ele>
        <time>2020-03-26T13:10:54Z</time>
        <extensions><gpxtpx:TrackPointExtension><gpxtpx:hr>130</gpxtpx:hr></gpxtpx:TrackPointExtension></extensions>
      </trkpt>
      <trkpt lat="59.18931" lon="17.509029">
        <ele>52.2</ele>
        <time>2020-03-26T13:10:55Z</time>
        <extensions><gpxtpx:TrackPointExtension><gpxtpx:hr>128</gpxtpx:hr></gpxtpx:TrackPointExtension></extensions>
      </trkpt>
      <trkpt lat="59.189299" lon="17.509203">
        <ele>51.6</ele>
        <time>2020-03-26T13:10:56Z</time>
        <extensions><gpxtpx:TrackPointExtension><gpxtpx:hr>126</gpxtpx:hr></gpxtpx:TrackPointExtension></extensions>
      </trkpt>
      <trkpt lat="59.189289" lon="17.509382">
        <ele>51.2</ele>
        <time>2020-03-26T13:10:57Z</time>
        <extensions><gpxtpx:TrackPointExtension><gpxtpx:hr>125</gpxtpx:hr></gpxtpx:TrackPointExtension></extensions>
      </trkpt>
      <trkpt lat="59.189278" lon="17.509556">
        <ele>50.8</ele>
        <time>2020-03-26T13:10:58Z</time>
        <extensions><gpxtpx:TrackPointExtension><gpxtpx:hr>125</gpxtpx:hr></gpxtpx:TrackPointExtension></extensions>
      </trkpt>
      <trkpt lat="59.18927" lon="17.509731">
        <ele>50.8</ele>
        <time>2020-03-26T13:10:59Z</time>
        <extensions><gpxtpx:TrackPointExtension><gpxtpx:hr>126</gpxtpx:hr></gpxtpx:TrackPointExtension></extensions>
      </trkpt>
      <trkpt lat="59.189262" lon="17.509908">
        <ele>50.6</ele>
        <time>2020-03-26T13:11:00Z</time>
        <extensions><gpxtpx:TrackPointExtension><gpxtpx:hr>128</gpxtpx:hr></gpxtpx:TrackPointExtension></extensions>
      </trkpt>
      <trkpt lat="59.189253" lon="17.510084">
        <ele>50.4</ele>
        <time>2020-03-26T13:11:01Z</time>
        <extensions><gpxtpx:TrackPointExtension><gpxtpx:hr>129</gpxtpx:hr></gpxtpx:TrackPointExtension></extensions>
      </trkpt>
      <trkpt lat="59.189242" lon="17.510265">
        <ele>50.2</ele>
        <time>2020-03-26T13:11:02Z</time>
        <extensions><gpxtpx:TrackPointExtension><gpxtpx:hr>129</gpxtpx:hr></gpxtpx:TrackPointExtension></extensions>
      </trkpt>
      <trkpt lat="59.189231" lon="17.510453">
        <ele>50.2</ele>
        <time>2020-03-26T13:11:03Z</time>
        <extensions><gpxtpx:TrackPointExtension><gpxtpx:hr>129</gpxtpx:hr></gpxtpx:TrackPointExtension></extensions>
      </trkpt>
      <trkpt lat="59.189221" lon="17.510641">
        <ele>50</ele>
        <time>2020-03-26T13:11:04Z</time>
        <extensions><gpxtpx:TrackPointExtension><gpxtpx:hr>129</gpxtpx:hr></gpxtpx:TrackPointExtension></extensions>
      </trkpt>
      <trkpt lat="59.189209" lon="17.510831">
        <ele>49.6</ele>
        <time>2020-03-26T13:11:05Z</time>
        <extensions><gpxtpx:TrackPointExtension><gpxtpx:hr>128</gpxtpx:hr></gpxtpx:TrackPointExtension></extensions>
      </trkpt>
      <trkpt lat="59.189198" lon="17.511029">
        <ele>49.4</ele>
        <time>2020-03-26T13:11:06Z</time>
        <extensions><gpxtpx:TrackPointExtension><gpxtpx:hr>128</gpxtpx:hr></gpxtpx:TrackPointExtension></extensions>
      </trkpt>
      <trkpt lat="59.189187" lon="17.511223">
        <ele>49.2</ele>
        <time>2020-03-26T13:11:07Z</time>
        <extensions><gpxtpx:TrackPointExtension><gpxtpx:hr>128</gpxtpx:hr></gpxtpx:TrackPointExtension></extensions>
      </trkpt>
      <trkpt lat="59.189174" lon="17.511417">
        <ele>49</ele>
        <time>2020-03-26T13:11:08Z</time>
        <extensions><gpxtpx:TrackPointExtension><gpxtpx:hr>128</gpxtpx:hr></gpxtpx:TrackPointExtension></extensions>
      </trkpt>
      <trkpt lat="59.189162" lon="17.511615">
        <ele>48.6</ele>
        <time>2020-03-26T13:11:09Z</time>
        <extensions><gpxtpx:TrackPointExtension><gpxtpx:hr>128</gpxtpx:hr></gpxtpx:TrackPointExtension></extensions>
      </trkpt>
      <trkpt lat="59.189153" lon="17.511812">
        <ele>48.2</ele>
        <time>2020-03-26T13:11:10Z</time>
        <extensions><gpxtpx:TrackPointExtension><gpxtpx:hr>129</gpxtpx:hr></gpxtpx:TrackPointExtension></extensions>
      </trkpt>
      <trkpt lat="59.189144" lon="17.512011">
        <ele>48</ele>
        <time>2020-03-26T13:11:11Z</time>
        <extensions><gpxtpx:TrackPointExtension><gpxtpx:hr>129</gpxtpx:hr></gpxtpx:TrackPointExtension></extensions>
      </trkpt>
      <trkpt lat="59.189132" lon="17.51221">
        <ele>47.6</ele>
        <time>2020-03-26T13:11:12Z</time>
        <extensions><gpxtpx:TrackPointExtension><gpxtpx:hr>129</gpxtpx:hr></gpxtpx:TrackPointExtension></extensions>
      </trkpt>
      <trkpt lat="59.189121" lon="17.51241">
        <ele>47.2</ele>
        <time>2020-03-26T13:11:13Z</time>
        <extensions><gpxtpx:TrackPointExtension><gpxtpx:hr>128</gpxtpx:hr></gpxtpx:TrackPointExtension></extensions>
      </trkpt>
      <trkpt lat="59.189111" lon="17.51261">
        <ele>46.8</ele>
        <time>2020-03-26T13:11:14Z</time>
        <extensions><gpxtpx:TrackPointExtension><gpxtpx:hr>127</gpxtpx:hr></gpxtpx:TrackPointExtension></extensions>
      </trkpt>
      <trkpt lat="59.1891" lon="17.512812">
        <ele>46.4</ele>
        <time>2020-03-26T13:11:15Z</time>
        <extensions><gpxtpx:TrackPointExtension><gpxtpx:hr>125</gpxtpx:hr></gpxtpx:TrackPointExtension></extensions>
      </trkpt>
      <trkpt lat="59.189089" lon="17.513013">
        <ele>46</ele>
        <time>2020-03-26T13:11:16Z</time>
        <extensions><gpxtpx:TrackPointExtension><gpxtpx:hr>123</gpxtpx:hr></gpxtpx:TrackPointExtension></extensions>
      </trkpt>
      <trkpt lat="59.189077" lon="17.513215">
        <ele>45.8</ele>
        <time>2020-03-26T13:11:17Z</time>
        <extensions><gpxtpx:TrackPointExtension><gpxtpx:hr>121</gpxtpx:hr></gpxtpx:TrackPointExtension></extensions>
      </trkpt>
      <trkpt lat="59.189067" lon="17.513416">
        <ele>45.4</ele>
        <time>2020-03-26T13:11:18Z</time>
        <extensions><gpxtpx:TrackPointExtension><gpxtpx:hr>121</gpxtpx:hr></gpxtpx:TrackPointExtension></extensions>
      </trkpt>
      <trkpt lat="59.189056" lon="17.513618">
        <ele>44.4</ele>
        <time>2020-03-26T13:11:19Z</time>
        <extensions><gpxtpx:TrackPointExtension><gpxtpx:hr>119</gpxtpx:hr></gpxtpx:TrackPointExtension></extensions>
      </trkpt>
      <trkpt lat="59.189044" lon="17.513818">
        <ele>44</ele>
        <time>2020-03-26T13:11:20Z</time>
        <extensions><gpxtpx:TrackPointExtension><gpxtpx:hr>117</gpxtpx:hr></gpxtpx:TrackPointExtension></extensions>
      </trkpt>
      <trkpt lat="59.189034" lon="17.514017">
        <ele>43.6</ele>
        <time>2020-03-26T13:11:21Z</time>
        <extensions><gpxtpx:TrackPointExtension><gpxtpx:hr>115</gpxtpx:hr></gpxtpx:TrackPointExtension></extensions>
      </trkpt>
      <trkpt lat="59.189023" lon="17.514212">
        <ele>43</ele>
        <time>2020-03-26T13:11:22Z</time>
        <extensions><gpxtpx:TrackPointExtension><gpxtpx:hr>113</gpxtpx:hr></gpxtpx:TrackPointExtension></extensions>
      </trkpt>
      <trkpt lat="59.189014" lon="17.514403">
        <ele>42.4</ele>
        <time>2020-03-26T13:11:23Z</time>
        <extensions><gpxtpx:TrackPointExtension><gpxtpx:hr>111</gpxtpx:hr></gpxtpx:TrackPointExtension></extensions>
      </trkpt>
      <trkpt lat="59.189003" lon="17.514592">
        <ele>42</ele>
        <time>2020-03-26T13:11:24Z</time>
        <extensions><gpxtpx:TrackPointExtension><gpxtpx:hr>110</gpxtpx:hr></gpxtpx:TrackPointExtension></extensions>
      </trkpt>
      <trkpt lat="59.188995" lon="17.514779">
        <ele>41.4</ele>
        <time>2020-03-26T13:11:25Z</time>
        <extensions><gpxtpx:TrackPointExtension><gpxtpx:hr>111</gpxtpx:hr></gpxtpx:TrackPointExtension></extensions>
      </trkpt>
      <trkpt lat="59.188986" lon="17.514962">
        <ele>40.8</ele>
        <time>2020-03-26T13:11:26Z</time>
        <extensions><gpxtpx:TrackPointExtension><gpxtpx:hr>114</gpxtpx:hr></gpxtpx:TrackPointExtension></extensions>
      </trkpt>
      <trkpt lat="59.188977" lon="17.515145">
        <ele>40.4</ele>
        <time>2020-03-26T13:11:27Z</time>
        <extensions><gpxtpx:TrackPointExtension><gpxtpx:hr>117</gpxtpx:hr></gpxtpx:TrackPointExtension></extensions>
      </trkpt>
      <trkpt lat="59.188969" lon="17.515326">
        <ele>40.4</ele>
        <time>2020-03-26T13:11:28Z</time>
        <extensions><gpxtpx:TrackPointExtension><gpxtpx:hr>121</gpxtpx:hr></gpxtpx:TrackPointExtension></extensions>
      </trkpt>
      <trkpt lat="59.188966" lon="17.515505">
        <ele>40.2</ele>
        <time>2020-03-26T13:11:29Z</time>
        <extensions><gpxtpx:TrackPointExtension><gpxtpx:hr>125</gpxtpx:hr></gpxtpx:TrackPointExtension></extensions>
      </trkpt>
      <trkpt lat="59.188966" lon="17.515683">
        <ele>40.2</ele>
        <time>2020-03-26T13:11:30Z</time>
        <extensions><gpxtpx:TrackPointExtension><gpxtpx:hr>127</gpxtpx:hr></gpxtpx:TrackPointExtension></extensions>
      </trkpt>
      <trkpt lat="59.188967" lon="17.515861">
        <ele>40.2</ele>
        <time>2020-03-26T13:11:31Z</time>
        <extensions><gpxtpx:TrackPointExtension><gpxtpx:hr>128</gpxtpx:hr></gpxtpx:TrackPointExtension></extensions>
      </trkpt>
      <trkpt lat="59.188968" lon="17.516039">
        <ele>40.2</ele>
        <time>2020-03-26T13:11:32Z</time>
        <extensions><gpxtpx:TrackPointExtension><gpxtpx:hr>129</gpxtpx:hr></gpxtpx:TrackPointExtension></extensions>
      </trkpt>
      <trkpt lat="59.18897" lon="17.516216">
        <ele>40.2</ele>
        <time>2020-03-26T13:11:33Z</time>
        <extensions><gpxtpx:TrackPointExtension><gpxtpx:hr>130</gpxtpx:hr></gpxtpx:TrackPointExtension></extensions>
      </trkpt>
      <trkpt lat="59.188974" lon="17.516391">
        <ele>40.2</ele>
        <time>2020-03-26T13:11:34Z</time>
        <extensions><gpxtpx:TrackPointExtension><gpxtpx:hr>131</gpxtpx:hr></gpxtpx:TrackPointExtension></extensions>
      </trkpt>
      <trkpt lat="59.188979" lon="17.516565">
        <ele>40.2</ele>
        <time>2020-03-26T13:11:35Z</time>
        <extensions><gpxtpx:TrackPointExtension><gpxtpx:hr>132</gpxtpx:hr></gpxtpx:TrackPointExtension></extensions>
      </trkpt>
      <trkpt lat="59.188987" lon="17.516739">
        <ele>40.2</ele>
        <time>2020-03-26T13:11:36Z</time>
        <extensions><gpxtpx:TrackPointExtension><gpxtpx:hr>134</gpxtpx:hr></gpxtpx:TrackPointExtension></extensions>
      </trkpt>
      <trkpt lat="59.188997" lon="17.51691">
        <ele>40.2</ele>
        <time>2020-03-26T13:11:37Z</time>
        <extensions><gpxtpx:TrackPointExtension><gpxtpx:hr>135</gpxtpx:hr></gpxtpx:TrackPointExtension></extensions>
      </trkpt>
      <trkpt lat="59.189007" lon="17.517081">
        <ele>40.4</ele>
        <time>2020-03-26T13:11:38Z</time>
        <extensions><gpxtpx:TrackPointExtension><gpxtpx:hr>136</gpxtpx:hr></gpxtpx:TrackPointExtension></extensions>
      </trkpt>
      <trkpt lat="59.189019" lon="17.517257">
        <ele>40.4</ele>
        <time>2020-03-26T13:11:39Z</time>
        <extensions><gpxtpx:TrackPointExtension><gpxtpx:hr>137</gpxtpx:hr></gpxtpx:TrackPointExtension></extensions>
      </trkpt>
      <trkpt lat="59.18903" lon="17.517429">
        <ele>40.6</ele>
        <time>2020-03-26T13:11:40Z</time>
        <extensions><gpxtpx:TrackPointExtension><gpxtpx:hr>138</gpxtpx:hr></gpxtpx:TrackPointExtension></extensions>
      </trkpt>
      <trkpt lat="59.189043" lon="17.517597">
        <ele>40.6</ele>
        <time>2020-03-26T13:11:41Z</time>
        <extensions><gpxtpx:TrackPointExtension><gpxtpx:hr>139</gpxtpx:hr></gpxtpx:TrackPointExtension></extensions>
      </trkpt>
      <trkpt lat="59.18906" lon="17.517767">
        <ele>40.6</ele>
        <time>2020-03-26T13:11:42Z</time>
        <extensions><gpxtpx:TrackPointExtension><gpxtpx:hr>139</gpxtpx:hr></gpxtpx:TrackPointExtension></extensions>
      </trkpt>
      <trkpt lat="59.189077" lon="17.517937">
        <ele>40.6</ele>
        <time>2020-03-26T13:11:43Z</time>
        <extensions><gpxtpx:TrackPointExtension><gpxtpx:hr>140</gpxtpx:hr></gpxtpx:TrackPointExtension></extensions>
      </trkpt>
      <trkpt lat="59.189097" lon="17.518103">
        <ele>40.6</ele>
        <time>2020-03-26T13:11:44Z</time>
        <extensions><gpxtpx:TrackPointExtension><gpxtpx:hr>141</gpxtpx:hr></gpxtpx:TrackPointExtension></extensions>
      </trkpt>
      <trkpt lat="59.189119" lon="17.518269">
        <ele>40.6</ele>
        <time>2020-03-26T13:11:45Z</time>
        <extensions><gpxtpx:TrackPointExtension><gpxtpx:hr>142</gpxtpx:hr></gpxtpx:TrackPointExtension></extensions>
      </trkpt>
      <trkpt lat="59.189144" lon="17.518433">
        <ele>40.8</ele>
        <time>2020-03-26T13:11:46Z</time>
        <extensions><gpxtpx:TrackPointExtension><gpxtpx:hr>143</gpxtpx:hr></gpxtpx:TrackPointExtension></extensions>
      </trkpt>
      <trkpt lat="59.189168" lon="17.518596">
        <ele>40.8</ele>
        <time>2020-03-26T13:11:47Z</time>
        <extensions><gpxtpx:TrackPointExtension><gpxtpx:hr>144</gpxtpx:hr></gpxtpx:TrackPointExtension></extensions>
      </trkpt>
      <trkpt lat="59.189194" lon="17.518759">
        <ele>41</ele>
        <time>2020-03-26T13:11:48Z</time>
        <extensions><gpxtpx:TrackPointExtension><gpxtpx:hr>144</gpxtpx:hr></gpxtpx:TrackPointExtension></extensions>
      </trkpt>
      <trkpt lat="59.189222" lon="17.518921">
        <ele>41</ele>
        <time>2020-03-26T13:11:49Z</time>
        <extensions><gpxtpx:TrackPointExtension><gpxtpx:hr>145</gpxtpx:hr></gpxtpx:TrackPointExtension></extensions>
      </trkpt>
      <trkpt lat="59.189251" lon="17.519083">
        <ele>41.2</ele>
        <time>2020-03-26T13:11:50Z</time>
        <extensions><gpxtpx:TrackPointExtension><gpxtpx:hr>145</gpxtpx:hr></gpxtpx:TrackPointExtension></extensions>
      </trkpt>
      <trkpt lat="59.189282" lon="17.519243">
        <ele>41.2</ele>
        <time>2020-03-26T13:11:51Z</time>
        <extensions><gpxtpx:TrackPointExtension><gpxtpx:hr>146</gpxtpx:hr></gpxtpx:TrackPointExtension></extensions>
      </trkpt>
      <trkpt lat="59.189316" lon="17.5194">
        <ele>41.4</ele>
        <time>2020-03-26T13:11:52Z</time>
        <extensions><gpxtpx:TrackPointExtension><gpxtpx:hr>146</gpxtpx:hr></gpxtpx:TrackPointExtension></extensions>
      </trkpt>
      <trkpt lat="59.189354" lon="17.519554">
        <ele>41.4</ele>
        <time>2020-03-26T13:11:53Z</time>
        <extensions><gpxtpx:TrackPointExtension><gpxtpx:hr>147</gpxtpx:hr></gpxtpx:TrackPointExtension></extensions>
      </trkpt>
      <trkpt lat="59.189393" lon="17.519707">
        <ele>41.4</ele>
        <time>2020-03-26T13:11:54Z</time>
        <extensions><gpxtpx:TrackPointExtension><gpxtpx:hr>148</gpxtpx:hr></gpxtpx:TrackPointExtension></extensions>
      </trkpt>
      <trkpt lat="59.189434" lon="17.519856">
        <ele>41.4</ele>
        <time>2020-03-26T13:11:55Z</time>
        <extensions><gpxtpx:TrackPointExtension><gpxtpx:hr>148</gpxtpx:hr></gpxtpx:TrackPointExtension></extensions>
      </trkpt>
      <trkpt lat="59.189476" lon="17.520005">
        <ele>41.4</ele>
        <time>2020-03-26T13:11:56Z</time>
        <extensions><gpxtpx:TrackPointExtension><gpxtpx:hr>149</gpxtpx:hr></gpxtpx:TrackPointExtension></extensions>
      </trkpt>
      <trkpt lat="59.189519" lon="17.520151">
        <ele>41.6</ele>
        <time>2020-03-26T13:11:57Z</time>
        <extensions><gpxtpx:TrackPointExtension><gpxtpx:hr>149</gpxtpx:hr></gpxtpx:TrackPointExtension></extensions>
      </trkpt>
      <trkpt lat="59.189563" lon="17.520295">
        <ele>41.8</ele>
        <time>2020-03-26T13:11:58Z</time>
        <extensions><gpxtpx:TrackPointExtension><gpxtpx:hr>150</gpxtpx:hr></gpxtpx:TrackPointExtension></extensions>
      </trkpt>
      <trkpt lat="59.189607" lon="17.520438">
        <ele>41.8</ele>
        <time>2020-03-26T13:11:59Z</time>
        <extensions><gpxtpx:TrackPointExtension><gpxtpx:hr>150</gpxtpx:hr></gpxtpx:TrackPointExtension></extensions>
      </trkpt>
      <trkpt lat="59.189653" lon="17.520579">
        <ele>41.8</ele>
        <time>2020-03-26T13:12:00Z</time>
        <extensions><gpxtpx:TrackPointExtension><gpxtpx:hr>150</gpxtpx:hr></gpxtpx:TrackPointExtension></extensions>
      </trkpt>
      <trkpt lat="59.189701" lon="17.520718">
        <ele>41.8</ele>
        <time>2020-03-26T13:12:01Z</time>
        <extensions><gpxtpx:TrackPointExtension><gpxtpx:hr>151</gpxtpx:hr></gpxtpx:TrackPointExtension></extensions>
      </trkpt>
      <trkpt lat="59.18975" lon="17.520854">
        <ele>42</ele>
        <time>2020-03-26T13:12:02Z</time>
        <extensions><gpxtpx:TrackPointExtension><gpxtpx:hr>152</gpxtpx:hr></gpxtpx:TrackPointExtension></extensions>
      </trkpt>
      <trkpt lat="59.189803" lon="17.520986">
        <ele>42</ele>
        <time>2020-03-26T13:12:03Z</time>
        <extensions><gpxtpx:TrackPointExtension><gpxtpx:hr>152</gpxtpx:hr></gpxtpx:TrackPointExtension></extensions>
      </trkpt>
      <trkpt lat="59.189856" lon="17.521116">
        <ele>42</ele>
        <time>2020-03-26T13:12:04Z</time>
        <extensions><gpxtpx:TrackPointExtension><gpxtpx:hr>153</gpxtpx:hr></gpxtpx:TrackPointExtension></extensions>
      </trkpt>
      <trkpt lat="59.189912" lon="17.521243">
        <ele>42</ele>
        <time>2020-03-26T13:12:05Z</time>
        <extensions><gpxtpx:TrackPointExtension><gpxtpx:hr>153</gpxtpx:hr></gpxtpx:TrackPointExtension></extensions>
      </trkpt>
      <trkpt lat="59.189968" lon="17.521368">
        <ele>42.2</ele>
        <time>2020-03-26T13:12:06Z</time>
        <extensions><gpxtpx:TrackPointExtension><gpxtpx:hr>154</gpxtpx:hr></gpxtpx:TrackPointExtension></extensions>
      </trkpt>
      <trkpt lat="59.190027" lon="17.52149">
        <ele>42.2</ele>
        <time>2020-03-26T13:12:07Z</time>
        <extensions><gpxtpx:TrackPointExtension><gpxtpx:hr>154</gpxtpx:hr></gpxtpx:TrackPointExtension></extensions>
      </trkpt>
      <trkpt lat="59.190086" lon="17.52161">
        <ele>42.2</ele>
        <time>2020-03-26T13:12:08Z</time>
        <extensions><gpxtpx:TrackPointExtension><gpxtpx:hr>155</gpxtpx:hr></gpxtpx:TrackPointExtension></extensions>
      </trkpt>
      <trkpt lat="59.190147" lon="17.521727">
        <ele>42.2</ele>
        <time>2020-03-26T13:12:09Z</time>
        <extensions><gpxtpx:TrackPointExtension><gpxtpx:hr>155</gpxtpx:hr></gpxtpx:TrackPointExtension></extensions>
      </trkpt>
      <trkpt lat="59.190207" lon="17.521845">
        <ele>42.2</ele>
        <time>2020-03-26T13:12:10Z</time>
        <extensions><gpxtpx:TrackPointExtension><gpxtpx:hr>155</gpxtpx:hr></gpxtpx:TrackPointExtension></extensions>
      </trkpt>
      <trkpt lat="59.190269" lon="17.521958">
        <ele>42.2</ele>
        <time>2020-03-26T13:12:11Z</time>
        <extensions><gpxtpx:TrackPointExtension><gpxtpx:hr>156</gpxtpx:hr></gpxtpx:TrackPointExtension></extensions>
      </trkpt>
      <trkpt lat="59.190331" lon="17.522067">
        <ele>42.2</ele>
        <time>2020-03-26T13:12:12Z</time>
        <extensions><gpxtpx:TrackPointExtension><gpxtpx:hr>156</gpxtpx:hr></gpxtpx:TrackPointExtension></extensions>
      </trkpt>
      <trkpt lat="59.190394" lon="17.522169">
        <ele>42.2</ele>
        <time>2020-03-26T13:12:13Z</time>
        <extensions><gpxtpx:TrackPointExtension><gpxtpx:hr>156</gpxtpx:hr></gpxtpx:TrackPointExtension></extensions>
      </trkpt>
      <trkpt lat="59.190458" lon="17.522267">
        <ele>42.2</ele>
        <time>2020-03-26T13:12:14Z</time>
        <extensions><gpxtpx:TrackPointExtension><gpxtpx:hr>157</gpxtpx:hr></gpxtpx:TrackPointExtension></extensions>
      </trkpt>
      <trkpt lat="59.190524" lon="17.522366">
        <ele>42.4</ele>
        <time>2020-03-26T13:12:15Z</time>
        <extensions><gpxtpx:TrackPointExtension><gpxtpx:hr>157</gpxtpx:hr></gpxtpx:TrackPointExtension></extensions>
      </trkpt>
      <trkpt lat="59.190592" lon="17.522465">
        <ele>42.4</ele>
        <time>2020-03-26T13:12:16Z</time>
        <extensions><gpxtpx:TrackPointExtension><gpxtpx:hr>157</gpxtpx:hr></gpxtpx:TrackPointExtension></extensions>
      </trkpt>
      <trkpt lat="59.19066" lon="17.522564">
        <ele>42.4</ele>
        <time>2020-03-26T13:12:17Z</time>
        <extensions><gpxtpx:TrackPointExtension><gpxtpx:hr>157</gpxtpx:hr></gpxtpx:TrackPointExtension></extensions>
      </trkpt>
      <trkpt lat="59.190727" lon="17.522663">
        <ele>42.4</ele>
        <time>2020-03-26T13:12:18Z</time>
        <extensions><gpxtpx:TrackPointExtension><gpxtpx:hr>157</gpxtpx:hr></gpxtpx:TrackPointExtension></extensions>
      </trkpt>
      <trkpt lat="59.190795" lon="17.522762">
        <ele>42.4</ele>
        <time>2020-03-26T13:12:19Z</time>
        <extensions><gpxtpx:TrackPointExtension><gpxtpx:hr>157</gpxtpx:hr></gpxtpx:TrackPointExtension></extensions>
      </trkpt>
      <trkpt lat="59.190862" lon="17.522863">
        <ele>42.4</ele>
        <time>2020-03-26T13:12:20Z</time>
        <extensions><gpxtpx:TrackPointExtension><gpxtpx:hr>157</gpxtpx:hr></gpxtpx:TrackPointExtension></extensions>
      </trkpt>
      <trkpt lat="59.190929" lon="17.522963">
        <ele>42.4</ele>
        <time>2020-03-26T13:12:21Z</time>
        <extensions><gpxtpx:TrackPointExtension><gpxtpx:hr>157</gpxtpx:hr></gpxtpx:TrackPointExtension></extensions>
      </trkpt>
      <trkpt lat="59.190996" lon="17.523063">
        <ele>42.4</ele>
        <time>2020-03-26T13:12:22Z</time>
        <extensions><gpxtpx:TrackPointExtension><gpxtpx:hr>157</gpxtpx:hr></gpxtpx:TrackPointExtension></extensions>
      </trkpt>
      <trkpt lat="59.191062" lon="17.523163">
        <ele>42.4</ele>
        <time>2020-03-26T13:12:23Z</time>
        <extensions><gpxtpx:TrackPointExtension><gpxtpx:hr>156</gpxtpx:hr></gpxtpx:TrackPointExtension></extensions>
      </trkpt>
      <trkpt lat="59.191127" lon="17.523264">
        <ele>42.4</ele>
        <time>2020-03-26T13:12:24Z</time>
        <extensions><gpxtpx:TrackPointExtension><gpxtpx:hr>156</gpxtpx:hr></gpxtpx:TrackPointExtension></extensions>
      </trkpt>
      <trkpt lat="59.191193" lon="17.523364">
        <ele>42.2</ele>
        <time>2020-03-26T13:12:25Z</time>
        <extensions><gpxtpx:TrackPointExtension><gpxtpx:hr>156</gpxtpx:hr></gpxtpx:TrackPointExtension></extensions>
      </trkpt>
      <trkpt lat="59.191259" lon="17.523463">
        <ele>42.2</ele>
        <time>2020-03-26T13:12:26Z</time>
        <extensions><gpxtpx:TrackPointExtension><gpxtpx:hr>156</gpxtpx:hr></gpxtpx:TrackPointExtension></extensions>
      </trkpt>
      <trkpt lat="59.191324" lon="17.523564">
        <ele>42.2</ele>
        <time>2020-03-26T13:12:27Z</time>
        <extensions><gpxtpx:TrackPointExtension><gpxtpx:hr>156</gpxtpx:hr></gpxtpx:TrackPointExtension></extensions>
      </trkpt>
      <trkpt lat="59.19139" lon="17.523664">
        <ele>42.2</ele>
        <time>2020-03-26T13:12:28Z</time>
        <extensions><gpxtpx:TrackPointExtension><gpxtpx:hr>156</gpxtpx:hr></gpxtpx:TrackPointExtension></extensions>
      </trkpt>
      <trkpt lat="59.191455" lon="17.523763">
        <ele>42.2</ele>
        <time>2020-03-26T13:12:29Z</time>
        <extensions><gpxtpx:TrackPointExtension><gpxtpx:hr>156</gpxtpx:hr></gpxtpx:TrackPointExtension></extensions>
      </trkpt>
      <trkpt lat="59.19152" lon="17.523863">
        <ele>42.4</ele>
        <time>2020-03-26T13:12:30Z</time>
        <extensions><gpxtpx:TrackPointExtension><gpxtpx:hr>155</gpxtpx:hr></gpxtpx:TrackPointExtension></extensions>
      </trkpt>
      <trkpt lat="59.191584" lon="17.523963">
        <ele>42.4</ele>
        <time>2020-03-26T13:12:31Z</time>
        <extensions><gpxtpx:TrackPointExtension><gpxtpx:hr>155</gpxtpx:hr></gpxtpx:TrackPointExtension></extensions>
      </trkpt>
      <trkpt lat="59.191649" lon="17.524064">
        <ele>42.4</ele>
        <time>2020-03-26T13:12:32Z</time>
        <extensions><gpxtpx:TrackPointExtension><gpxtpx:hr>155</gpxtpx:hr></gpxtpx:TrackPointExtension></extensions>
      </trkpt>
      <trkpt lat="59.191715" lon="17.524164">
        <ele>42.2</ele>
        <time>2020-03-26T13:12:33Z</time>
        <extensions><gpxtpx:TrackPointExtension><gpxtpx:hr>154</gpxtpx:hr></gpxtpx:TrackPointExtension></extensions>
      </trkpt>
      <trkpt lat="59.19178" lon="17.524265">
        <ele>42.2</ele>
        <time>2020-03-26T13:12:34Z</time>
        <extensions><gpxtpx:TrackPointExtension><gpxtpx:hr>154</gpxtpx:hr></gpxtpx:TrackPointExtension></extensions>
      </trkpt>
      <trkpt lat="59.191844" lon="17.524368">
        <ele>42.2</ele>
        <time>2020-03-26T13:12:35Z</time>
        <extensions><gpxtpx:TrackPointExtension><gpxtpx:hr>154</gpxtpx:hr></gpxtpx:TrackPointExtension></extensions>
      </trkpt>
      <trkpt lat="59.191908" lon="17.524473">
        <ele>42.2</ele>
        <time>2020-03-26T13:12:36Z</time>
        <extensions><gpxtpx:TrackPointExtension><gpxtpx:hr>154</gpxtpx:hr></gpxtpx:TrackPointExtension></extensions>
      </trkpt>
      <trkpt lat="59.191972" lon="17.52458">
        <ele>42.2</ele>
        <time>2020-03-26T13:12:37Z</time>
        <extensions><gpxtpx:TrackPointExtension><gpxtpx:hr>153</gpxtpx:hr></gpxtpx:TrackPointExtension></extensions>
      </trkpt>
      <trkpt lat="59.192035" lon="17.524689">
        <ele>42.2</ele>
        <time>2020-03-26T13:12:38Z</time>
        <extensions><gpxtpx:TrackPointExtension><gpxtpx:hr>153</gpxtpx:hr></gpxtpx:TrackPointExtension></extensions>
      </trkpt>
      <trkpt lat="59.192099" lon="17.524799">
        <ele>42.2</ele>
        <time>2020-03-26T13:12:39Z</time>
        <extensions><gpxtpx:TrackPointExtension><gpxtpx:hr>153</gpxtpx:hr></gpxtpx:TrackPointExtension></extensions>
      </trkpt>
      <trkpt lat="59.192164" lon="17.52491">
        <ele>42.2</ele>
        <time>2020-03-26T13:12:40Z</time>
        <extensions><gpxtpx:TrackPointExtension><gpxtpx:hr>153</gpxtpx:hr></gpxtpx:TrackPointExtension></extensions>
      </trkpt>
      <trkpt lat="59.192228" lon="17.525025">
        <ele>42</ele>
        <time>2020-03-26T13:12:41Z</time>
        <extensions><gpxtpx:TrackPointExtension><gpxtpx:hr>152</gpxtpx:hr></gpxtpx:TrackPointExtension></extensions>
      </trkpt>
      <trkpt lat="59.19229" lon="17.525143">
        <ele>42</ele>
        <time>2020-03-26T13:12:42Z</time>
        <extensions><gpxtpx:TrackPointExtension><gpxtpx:hr>152</gpxtpx:hr></gpxtpx:TrackPointExtension></extensions>
      </trkpt>
      <trkpt lat="59.192353" lon="17.52526">
        <ele>42</ele>
        <time>2020-03-26T13:12:43Z</time>
        <extensions><gpxtpx:TrackPointExtension><gpxtpx:hr>151</gpxtpx:hr></gpxtpx:TrackPointExtension></extensions>
      </trkpt>
      <trkpt lat="59.192414" lon="17.525378">
        <ele>41.8</ele>
        <time>2020-03-26T13:12:44Z</time>
        <extensions><gpxtpx:TrackPointExtension><gpxtpx:hr>150</gpxtpx:hr></gpxtpx:TrackPointExtension></extensions>
      </trkpt>
      <trkpt lat="59.192475" lon="17.525498">
        <ele>41.8</ele>
        <time>2020-03-26T13:12:45Z</time>
        <extensions><gpxtpx:TrackPointExtension><gpxtpx:hr>150</gpxtpx:hr></gpxtpx:TrackPointExtension></extensions>
      </trkpt>
      <trkpt lat="59.192534" lon="17.525623">
        <ele>41.6</ele>
        <time>2020-03-26T13:12:46Z</time>
        <extensions><gpxtpx:TrackPointExtension><gpxtpx:hr>149</gpxtpx:hr></gpxtpx:TrackPointExtension></extensions>
      </trkpt>
      <trkpt lat="59.19259" lon="17.525752">
        <ele>41.4</ele>
        <time>2020-03-26T13:12:47Z</time>
        <extensions><gpxtpx:TrackPointExtension><gpxtpx:hr>148</gpxtpx:hr></gpxtpx:TrackPointExtension></extensions>
      </trkpt>
      <trkpt lat="59.192651" lon="17.525879">
        <ele>41.2</ele>
        <time>2020-03-26T13:12:48Z</time>
        <extensions><gpxtpx:TrackPointExtension><gpxtpx:hr>148</gpxtpx:hr></gpxtpx:TrackPointExtension></extensions>
      </trkpt>
      <trkpt lat="59.19271" lon="17.526011">
        <ele>41</ele>
        <time>2020-03-26T13:12:49Z</time>
        <extensions><gpxtpx:TrackPointExtension><gpxtpx:hr>147</gpxtpx:hr></gpxtpx:TrackPointExtension></extensions>
      </trkpt>
      <trkpt lat="59.19277" lon="17.526144">
        <ele>40.8</ele>
        <time>2020-03-26T13:12:50Z</time>
        <extensions><gpxtpx:TrackPointExtension><gpxtpx:hr>147</gpxtpx:hr></gpxtpx:TrackPointExtension></extensions>
      </trkpt>
      <trkpt lat="59.192831" lon="17.526281">
        <ele>40.8</ele>
        <time>2020-03-26T13:12:51Z</time>
        <extensions><gpxtpx:TrackPointExtension><gpxtpx:hr>146</gpxtpx:hr></gpxtpx:TrackPointExtension></extensions>
      </trkpt>
      <trkpt lat="59.192897" lon="17.526415">
        <ele>40.6</ele>
        <time>2020-03-26T13:12:52Z</time>
        <extensions><gpxtpx:TrackPointExtension><gpxtpx:hr>146</gpxtpx:hr></gpxtpx:TrackPointExtension></extensions>
      </trkpt>
      <trkpt lat="59.192959" lon="17.526552">
        <ele>40.2</ele>
        <time>2020-03-26T13:12:53Z</time>
        <extensions><gpxtpx:TrackPointExtension><gpxtpx:hr>145</gpxtpx:hr></gpxtpx:TrackPointExtension></extensions>
      </trkpt>
      <trkpt lat="59.193022" lon="17.526689">
        <ele>39.8</ele>
        <time>2020-03-26T13:12:54Z</time>
        <extensions><gpxtpx:TrackPointExtension><gpxtpx:hr>145</gpxtpx:hr></gpxtpx:TrackPointExtension></extensions>
      </trkpt>
      <trkpt lat="59.193084" lon="17.526825">
        <ele>39.6</ele>
        <time>2020-03-26T13:12:55Z</time>
        <extensions><gpxtpx:TrackPointExtension><gpxtpx:hr>144</gpxtpx:hr></gpxtpx:TrackPointExtension></extensions>
      </trkpt>
      <trkpt lat="59.193146" lon="17.526962">
        <ele>39.2</ele>
        <time>2020-03-26T13:12:56Z</time>
        <extensions><gpxtpx:TrackPointExtension><gpxtpx:hr>144</gpxtpx:hr></gpxtpx:TrackPointExtension></extensions>
      </trkpt>
      <trkpt lat="59.193207" lon="17.527102">
        <ele>39</ele>
        <time>2020-03-26T13:12:57Z</time>
        <extensions><gpxtpx:TrackPointExtension><gpxtpx:hr>143</gpxtpx:hr></gpxtpx:TrackPointExtension></extensions>
      </trkpt>
      <trkpt lat="59.193268" lon="17.527242">
        <ele>38.6</ele>
        <time>2020-03-26T13:12:58Z</time>
        <extensions><gpxtpx:TrackPointExtension><gpxtpx:hr>142</gpxtpx:hr></gpxtpx:TrackPointExtension></extensions>
      </trkpt>
      <trkpt lat="59.193329" lon="17.527381">
        <ele>38.4</ele>
        <time>2020-03-26T13:12:59Z</time>
        <extensions><gpxtpx:TrackPointExtension><gpxtpx:hr>142</gpxtpx:hr></gpxtpx:TrackPointExtension></extensions>
      </trkpt>
      <trkpt lat="59.19339" lon="17.527519">
        <ele>38</ele>
        <time>2020-03-26T13:13:00Z</time>
        <extensions><gpxtpx:TrackPointExtension><gpxtpx:hr>141</gpxtpx:hr></gpxtpx:TrackPointExtension></extensions>
      </trkpt>
      <trkpt lat="59.193448" lon="17.527658">
        <ele>37.8</ele>
        <time>2020-03-26T13:13:01Z</time>
        <extensions><gpxtpx:TrackPointExtension><gpxtpx:hr>140</gpxtpx:hr></gpxtpx:TrackPointExtension></extensions>
      </trkpt>
      <trkpt lat="59.193506" lon="17.527792">
        <ele>37.4</ele>
        <time>2020-03-26T13:13:02Z</time>
        <extensions><gpxtpx:TrackPointExtension><gpxtpx:hr>139</gpxtpx:hr></gpxtpx:TrackPointExtension></extensions>
      </trkpt>
      <trkpt lat="59.193563" lon="17.527922">
        <ele>37</ele>
        <time>2020-03-26T13:13:03Z</time>
        <extensions><gpxtpx:TrackPointExtension><gpxtpx:hr>139</gpxtpx:hr></gpxtpx:TrackPointExtension></extensions>
      </trkpt>
      <trkpt lat="59.193614" lon="17.528046">
        <ele>36.8</ele>
        <time>2020-03-26T13:13:04Z</time>
        <extensions><gpxtpx:TrackPointExtension><gpxtpx:hr>138</gpxtpx:hr></gpxtpx:TrackPointExtension></extensions>
      </trkpt>
      <trkpt lat="59.193663" lon="17.528168">
        <ele>36.8</ele>
        <time>2020-03-26T13:13:05Z</time>
        <extensions><gpxtpx:TrackPointExtension><gpxtpx:hr>138</gpxtpx:hr></gpxtpx:TrackPointExtension></extensions>
      </trkpt>
      <trkpt lat="59.193712" lon="17.52828">
        <ele>36.8</ele>
        <time>2020-03-26T13:13:06Z</time>
        <extensions><gpxtpx:TrackPointExtension><gpxtpx:hr>138</gpxtpx:hr></gpxtpx:TrackPointExtension></extensions>
      </trkpt>
      <trkpt lat="59.193763" lon="17.528391">
        <ele>36.8</ele>
        <time>2020-03-26T13:13:07Z</time>
        <extensions><gpxtpx:TrackPointExtension><gpxtpx:hr>138</gpxtpx:hr></gpxtpx:TrackPointExtension></extensions>
      </trkpt>
      <trkpt lat="59.193814" lon="17.528494">
        <ele>36.8</ele>
        <time>2020-03-26T13:13:08Z</time>
        <extensions><gpxtpx:TrackPointExtension><gpxtpx:hr>138</gpxtpx:hr></gpxtpx:TrackPointExtension></extensions>
      </trkpt>
      <trkpt lat="59.19386" lon="17.528599">
        <ele>36.8</ele>
        <time>2020-03-26T13:13:09Z</time>
        <extensions><gpxtpx:TrackPointExtension><gpxtpx:hr>138</gpxtpx:hr></gpxtpx:TrackPointExtension></extensions>
      </trkpt>
      <trkpt lat="59.193901" lon="17.528703">
        <ele>36.8</ele>
        <time>2020-03-26T13:13:10Z</time>
        <extensions><gpxtpx:TrackPointExtension><gpxtpx:hr>138</gpxtpx:hr></gpxtpx:TrackPointExtension></extensions>
      </trkpt>
      <trkpt lat="59.193943" lon="17.528806">
        <ele>36.8</ele>
        <time>2020-03-26T13:13:11Z</time>
        <extensions><gpxtpx:TrackPointExtension><gpxtpx:hr>138</gpxtpx:hr></gpxtpx:TrackPointExtension></extensions>
      </trkpt>
      <trkpt lat="59.193986" lon="17.528904">
        <ele>36.8</ele>
        <time>2020-03-26T13:13:12Z</time>
        <extensions><gpxtpx:TrackPointExtension><gpxtpx:hr>138</gpxtpx:hr></gpxtpx:TrackPointExtension></extensions>
      </trkpt>
      <trkpt lat="59.194032" lon="17.529001">
        <ele>36.8</ele>
        <time>2020-03-26T13:13:13Z</time>
        <extensions><gpxtpx:TrackPointExtension><gpxtpx:hr>139</gpxtpx:hr></gpxtpx:TrackPointExtension></extensions>
      </trkpt>
      <trkpt lat="59.194081" lon="17.529095">
        <ele>37</ele>
        <time>2020-03-26T13:13:14Z</time>
        <extensions><gpxtpx:TrackPointExtension><gpxtpx:hr>140</gpxtpx:hr></gpxtpx:TrackPointExtension></extensions>
      </trkpt>
      <trkpt lat="59.19412" lon="17.529193">
        <ele>37.4</ele>
        <time>2020-03-26T13:13:15Z</time>
        <extensions><gpxtpx:TrackPointExtension><gpxtpx:hr>142</gpxtpx:hr></gpxtpx:TrackPointExtension></extensions>
      </trkpt>
      <trkpt lat="59.194157" lon="17.529291">
        <ele>38.4</ele>
        <time>2020-03-26T13:13:16Z</time>
        <extensions><gpxtpx:TrackPointExtension><gpxtpx:hr>143</gpxtpx:hr></gpxtpx:TrackPointExtension></extensions>
      </trkpt>
      <trkpt lat="59.194193" lon="17.529383">
        <ele>38.8</ele>
        <time>2020-03-26T13:13:17Z</time>
        <extensions><gpxtpx:TrackPointExtension><gpxtpx:hr>144</gpxtpx:hr></gpxtpx:TrackPointExtension></extensions>
      </trkpt>
      <trkpt lat="59.194233" lon="17.529472">
        <ele>39.4</ele>
        <time>2020-03-26T13:13:18Z</time>
        <extensions><gpxtpx:TrackPointExtension><gpxtpx:hr>146</gpxtpx:hr></gpxtpx:TrackPointExtension></extensions>
      </trkpt>
      <trkpt lat="59.194272" lon="17.529559">
        <ele>40</ele>
        <time>2020-03-26T13:13:19Z</time>
        <extensions><gpxtpx:TrackPointExtension><gpxtpx:hr>146</gpxtpx:hr></gpxtpx:TrackPointExtension></extensions>
      </trkpt>
      <trkpt lat="59.194311" lon="17.529644">
        <ele>40.4</ele>
        <time>2020-03-26T13:13:20Z</time>
        <extensions><gpxtpx:TrackPointExtension><gpxtpx:hr>147</gpxtpx:hr></gpxtpx:TrackPointExtension></extensions>
      </trkpt>
      <trkpt lat="59.194349" lon="17.52973">
        <ele>40.6</ele>
        <time>2020-03-26T13:13:21Z</time>
        <extensions><gpxtpx:TrackPointExtension><gpxtpx:hr>148</gpxtpx:hr></gpxtpx:TrackPointExtension></extensions>
      </trkpt>
      <trkpt lat="59.194388" lon="17.529817">
        <ele>41</ele>
        <time>2020-03-26T13:13:22Z</time>
        <extensions><gpxtpx:TrackPointExtension><gpxtpx:hr>149</gpxtpx:hr></gpxtpx:TrackPointExtension></extensions>
      </trkpt>
      <trkpt lat="59.194426" lon="17.529902">
        <ele>41.4</ele>
        <time>2020-03-26T13:13:23Z</time>
        <extensions><gpxtpx:TrackPointExtension><gpxtpx:hr>149</gpxtpx:hr></gpxtpx:TrackPointExtension></extensions>
      </trkpt>
      <trkpt lat="59.194465" lon="17.529987">
        <ele>41.8</ele>
        <time>2020-03-26T13:13:24Z</time>
        <extensions><gpxtpx:TrackPointExtension><gpxtpx:hr>150</gpxtpx:hr></gpxtpx:TrackPointExtension></extensions>
      </trkpt>
      <trkpt lat="59.194504" lon="17.530075">
        <ele>42.2</ele>
        <time>2020-03-26T13:13:25Z</time>
        <extensions><gpxtpx:TrackPointExtension><gpxtpx:hr>151</gpxtpx:hr></gpxtpx:TrackPointExtension></extensions>
      </trkpt>
      <trkpt lat="59.194543" lon="17.530166">
        <ele>42.6</ele>
        <time>2020-03-26T13:13:26Z</time>
        <extensions><gpxtpx:TrackPointExtension><gpxtpx:hr>152</gpxtpx:hr></gpxtpx:TrackPointExtension></extensions>
      </trkpt>
      <trkpt lat="59.19458" lon="17.530253">
        <ele>43</ele>
        <time>2020-03-26T13:13:27Z</time>
        <extensions><gpxtpx:TrackPointExtension><gpxtpx:hr>153</gpxtpx:hr></gpxtpx:TrackPointExtension></extensions>
      </trkpt>
      <trkpt lat="59.194618" lon="17.530333">
        <ele>43.4</ele>
        <time>2020-03-26T13:13:28Z</time>
        <extensions><gpxtpx:TrackPointExtension><gpxtpx:hr>153</gpxtpx:hr></gpxtpx:TrackPointExtension></extensions>
      </trkpt>
      <trkpt lat="59.194655" lon="17.530413">
        <ele>43.8</ele>
        <time>2020-03-26T13:13:29Z</time>
        <extensions><gpxtpx:TrackPointExtension><gpxtpx:hr>154</gpxtpx:hr></gpxtpx:TrackPointExtension></extensions>
      </trkpt>
      <trkpt lat="59.194691" lon="17.530492">
        <ele>44.2</ele>
        <time>2020-03-26T13:13:30Z</time>
        <extensions><gpxtpx:TrackPointExtension><gpxtpx:hr>154</gpxtpx:hr></gpxtpx:TrackPointExtension></extensions>
      </trkpt>
      <trkpt lat="59.194726" lon="17.530574">
        <ele>44.6</ele>
        <time>2020-03-26T13:13:31Z</time>
        <extensions><gpxtpx:TrackPointExtension><gpxtpx:hr>155</gpxtpx:hr></gpxtpx:TrackPointExtension></extensions>
      </trkpt>
      <trkpt lat="59.194761" lon="17.530655">
        <ele>44.8</ele>
        <time>2020-03-26T13:13:32Z</time>
        <extensions><gpxtpx:TrackPointExtension><gpxtpx:hr>155</gpxtpx:hr></gpxtpx:TrackPointExtension></extensions>
      </trkpt>
      <trkpt lat="59.194797" lon="17.530739">
        <ele>45</ele>
        <time>2020-03-26T13:13:33Z</time>
        <extensions><gpxtpx:TrackPointExtension><gpxtpx:hr>156</gpxtpx:hr></gpxtpx:TrackPointExtension></extensions>
      </trkpt>
      <trkpt lat="59.194835" lon="17.530823">
        <ele>45.4</ele>
        <time>2020-03-26T13:13:34Z</time>
        <extensions><gpxtpx:TrackPointExtension><gpxtpx:hr>156</gpxtpx:hr></gpxtpx:TrackPointExtension></extensions>
      </trkpt>
      <trkpt lat="59.194872" lon="17.530908">
        <ele>45.8</ele>
        <time>2020-03-26T13:13:35Z</time>
        <extensions><gpxtpx:TrackPointExtension><gpxtpx:hr>157</gpxtpx:hr></gpxtpx:TrackPointExtension></extensions>
      </trkpt>
      <trkpt lat="59.19491" lon="17.530992">
        <ele>46.4</ele>
        <time>2020-03-26T13:13:36Z</time>
        <extensions><gpxtpx:TrackPointExtension><gpxtpx:hr>158</gpxtpx:hr></gpxtpx:TrackPointExtension></extensions>
      </trkpt>
      <trkpt lat="59.194949" lon="17.531075">
        <ele>46.8</ele>
        <time>2020-03-26T13:13:37Z</time>
        <extensions><gpxtpx:TrackPointExtension><gpxtpx:hr>158</gpxtpx:hr></gpxtpx:TrackPointExtension></extensions>
      </trkpt>
      <trkpt lat="59.194987" lon="17.531159">
        <ele>47</ele>
        <time>2020-03-26T13:13:38Z</time>
        <extensions><gpxtpx:TrackPointExtension><gpxtpx:hr>159</gpxtpx:hr></gpxtpx:TrackPointExtension></extensions>
      </trkpt>
      <trkpt lat="59.195026" lon="17.531241">
        <ele>47.2</ele>
        <time>2020-03-26T13:13:39Z</time>
        <extensions><gpxtpx:TrackPointExtension><gpxtpx:hr>159</gpxtpx:hr></gpxtpx:TrackPointExtension></extensions>
      </trkpt>
      <trkpt lat="59.195065" lon="17.531325">
        <ele>47.6</ele>
        <time>2020-03-26T13:13:40Z</time>
        <extensions><gpxtpx:TrackPointExtension><gpxtpx:hr>159</gpxtpx:hr></gpxtpx:TrackPointExtension></extensions>
      </trkpt>
      <trkpt lat="59.195103" lon="17.53141">
        <ele>47.6</ele>
        <time>2020-03-26T13:13:41Z</time>
        <extensions><gpxtpx:TrackPointExtension><gpxtpx:hr>160</gpxtpx:hr></gpxtpx:TrackPointExtension></extensions>
      </trkpt>
      <trkpt lat="59.195141" lon="17.531496">
        <ele>47.8</ele>
        <time>2020-03-26T13:13:42Z</time>
        <extensions><gpxtpx:TrackPointExtension><gpxtpx:hr>160</gpxtpx:hr></gpxtpx:TrackPointExtension></extensions>
      </trkpt>
      <trkpt lat="59.195182" lon="17.53158">
        <ele>47.8</ele>
        <time>2020-03-26T13:13:43Z</time>
        <extensions><gpxtpx:TrackPointExtension><gpxtpx:hr>160</gpxtpx:hr></gpxtpx:TrackPointExtension></extensions>
      </trkpt>
      <trkpt lat="59.195222" lon="17.531663">
        <ele>47.8</ele>
        <time>2020-03-26T13:13:44Z</time>
        <extensions><gpxtpx:TrackPointExtension><gpxtpx:hr>160</gpxtpx:hr></gpxtpx:TrackPointExtension></extensions>
      </trkpt>
      <trkpt lat="59.195263" lon="17.531747">
        <ele>48</ele>
        <time>2020-03-26T13:13:45Z</time>
        <extensions><gpxtpx:TrackPointExtension><gpxtpx:hr>160</gpxtpx:hr></gpxtpx:TrackPointExtension></extensions>
      </trkpt>
      <trkpt lat="59.195303" lon="17.531832">
        <ele>48</ele>
        <time>2020-03-26T13:13:46Z</time>
        <extensions><gpxtpx:TrackPointExtension><gpxtpx:hr>159</gpxtpx:hr></gpxtpx:TrackPointExtension></extensions>
      </trkpt>
      <trkpt lat="59.195344" lon="17.531917">
        <ele>48</ele>
        <time>2020-03-26T13:13:47Z</time>
        <extensions><gpxtpx:TrackPointExtension><gpxtpx:hr>159</gpxtpx:hr></gpxtpx:TrackPointExtension></extensions>
      </trkpt>
      <trkpt lat="59.195386" lon="17.531999">
        <ele>48.2</ele>
        <time>2020-03-26T13:13:48Z</time>
        <extensions><gpxtpx:TrackPointExtension><gpxtpx:hr>159</gpxtpx:hr></gpxtpx:TrackPointExtension></extensions>
      </trkpt>
      <trkpt lat="59.195429" lon="17.53208">
        <ele>48.2</ele>
        <time>2020-03-26T13:13:49Z</time>
        <extensions><gpxtpx:TrackPointExtension><gpxtpx:hr>158</gpxtpx:hr></gpxtpx:TrackPointExtension></extensions>
      </trkpt>
      <trkpt lat="59.195474" lon="17.53216">
        <ele>48.2</ele>
        <time>2020-03-26T13:13:50Z</time>
        <extensions><gpxtpx:TrackPointExtension><gpxtpx:hr>158</gpxtpx:hr></gpxtpx:TrackPointExtension></extensions>
      </trkpt>
      <trkpt lat="59.195521" lon="17.532238">
        <ele>48.4</ele>
        <time>2020-03-26T13:13:51Z</time>
        <extensions><gpxtpx:TrackPointExtension><gpxtpx:hr>157</gpxtpx:hr></gpxtpx:TrackPointExtension></extensions>
      </trkpt>
      <trkpt lat="59.19557" lon="17.532312">
        <ele>48.4</ele>
        <time>2020-03-26T13:13:52Z</time>
        <extensions><gpxtpx:TrackPointExtension><gpxtpx:hr>157</gpxtpx:hr></gpxtpx:TrackPointExtension></extensions>
      </trkpt>
      <trkpt lat="59.19562" lon="17.532386">
        <ele>48.6</ele>
        <time>2020-03-26T13:13:53Z</time>
        <extensions><gpxtpx:TrackPointExtension><gpxtpx:hr>157</gpxtpx:hr></gpxtpx:TrackPointExtension></extensions>
      </trkpt>
      <trkpt lat="59.195669" lon="17.532461">
        <ele>48.6</ele>
        <time>2020-03-26T13:13:54Z</time>
        <extensions><gpxtpx:TrackPointExtension><gpxtpx:hr>157</gpxtpx:hr></gpxtpx:TrackPointExtension></extensions>
      </trkpt>
      <trkpt lat="59.195718" lon="17.532534">
        <ele>48.8</ele>
        <time>2020-03-26T13:13:55Z</time>
        <extensions><gpxtpx:TrackPointExtension><gpxtpx:hr>157</gpxtpx:hr></gpxtpx:TrackPointExtension></extensions>
      </trkpt>
      <trkpt lat="59.195767" lon="17.532603">
        <ele>48.8</ele>
        <time>2020-03-26T13:13:56Z</time>
        <extensions><gpxtpx:TrackPointExtension><gpxtpx:hr>157</gpxtpx:hr></gpxtpx:TrackPointExtension></extensions>
      </trkpt>
      <trkpt lat="59.195817" lon="17.532671">
        <ele>48.8</ele>
        <time>2020-03-26T13:13:57Z</time>
        <extensions><gpxtpx:TrackPointExtension><gpxtpx:hr>157</gpxtpx:hr></gpxtpx:TrackPointExtension></extensions>
      </trkpt>
      <trkpt lat="59.195864" lon="17.532741">
        <ele>49</ele>
        <time>2020-03-26T13:13:58Z</time>
        <extensions><gpxtpx:TrackPointExtension><gpxtpx:hr>157</gpxtpx:hr></gpxtpx:TrackPointExtension></extensions>
      </trkpt>
      <trkpt lat="59.195913" lon="17.532806">
        <ele>49</ele>
        <time>2020-03-26T13:13:59Z</time>
        <extensions><gpxtpx:TrackPointExtension><gpxtpx:hr>156</gpxtpx:hr></gpxtpx:TrackPointExtension></extensions>
      </trkpt>
      <trkpt lat="59.195961" lon="17.532869">
        <ele>49</ele>
        <time>2020-03-26T13:14:00Z</time>
        <extensions><gpxtpx:TrackPointExtension><gpxtpx:hr>156</gpxtpx:hr></gpxtpx:TrackPointExtension></extensions>
      </trkpt>
      <trkpt lat="59.19601" lon="17.532929">
        <ele>49.2</ele>
        <time>2020-03-26T13:14:01Z</time>
        <extensions><gpxtpx:TrackPointExtension><gpxtpx:hr>156</gpxtpx:hr></gpxtpx:TrackPointExtension></extensions>
      </trkpt>
      <trkpt lat="59.196059" lon="17.532987">
        <ele>49.2</ele>
        <time>2020-03-26T13:14:02Z</time>
        <extensions><gpxtpx:TrackPointExtension><gpxtpx:hr>155</gpxtpx:hr></gpxtpx:TrackPointExtension></extensions>
      </trkpt>
      <trkpt lat="59.196106" lon="17.533049">
        <ele>49.4</ele>
        <time>2020-03-26T13:14:03Z</time>
        <extensions><gpxtpx:TrackPointExtension><gpxtpx:hr>155</gpxtpx:hr></gpxtpx:TrackPointExtension></extensions>
      </trkpt>
      <trkpt lat="59.196153" lon="17.533112">
        <ele>49.4</ele>
        <time>2020-03-26T13:14:04Z</time>
        <extensions><gpxtpx:TrackPointExtension><gpxtpx:hr>155</gpxtpx:hr></gpxtpx:TrackPointExtension></extensions>
      </trkpt>
      <trkpt lat="59.196201" lon="17.533171">
        <ele>49.6</ele>
        <time>2020-03-26T13:14:05Z</time>
        <extensions><gpxtpx:TrackPointExtension><gpxtpx:hr>154</gpxtpx:hr></gpxtpx:TrackPointExtension></extensions>
      </trkpt>
      <trkpt lat="59.196253" lon="17.533229">
        <ele>50.4</ele>
        <time>2020-03-26T13:14:06Z</time>
        <extensions><gpxtpx:TrackPointExtension><gpxtpx:hr>154</gpxtpx:hr></gpxtpx:TrackPointExtension></extensions>
      </trkpt>
      <trkpt lat="59.196304" lon="17.53329">
        <ele>51.2</ele>
        <time>2020-03-26T13:14:07Z</time>
        <extensions><gpxtpx:TrackPointExtension><gpxtpx:hr>153</gpxtpx:hr></gpxtpx:TrackPointExtension></extensions>
      </trkpt>
      <trkpt lat="59.196356" lon="17.533352">
        <ele>51.6</ele>
        <time>2020-03-26T13:14:08Z</time>
        <extensions><gpxtpx:TrackPointExtension><gpxtpx:hr>153</gpxtpx:hr></gpxtpx:TrackPointExtension></extensions>
      </trkpt>
      <trkpt lat="59.196407" lon="17.533416">
        <ele>51.8</ele>
        <time>2020-03-26T13:14:09Z</time>
        <extensions><gpxtpx:TrackPointExtension><gpxtpx:hr>152</gpxtpx:hr></gpxtpx:TrackPointExtension></extensions>
      </trkpt>
      <trkpt lat="59.196457" lon="17.533479">
        <ele>52</ele>
        <time>2020-03-26T13:14:10Z</time>
        <extensions><gpxtpx:TrackPointExtension><gpxtpx:hr>152</gpxtpx:hr></gpxtpx:TrackPointExtension></extensions>
      </trkpt>
      <trkpt lat="59.196508" lon="17.533543">
        <ele>52</ele>
        <time>2020-03-26T13:14:11Z</time>
        <extensions><gpxtpx:TrackPointExtension><gpxtpx:hr>152</gpxtpx:hr></gpxtpx:TrackPointExtension></extensions>
      </trkpt>
      <trkpt lat="59.196561" lon="17.533608">
        <ele>52.2</ele>
        <time>2020-03-26T13:14:12Z</time>
        <extensions><gpxtpx:TrackPointExtension><gpxtpx:hr>151</gpxtpx:hr></gpxtpx:TrackPointExtension></extensions>
      </trkpt>
      <trkpt lat="59.196616" lon="17.533675">
        <ele>52.2</ele>
        <time>2020-03-26T13:14:13Z</time>
        <extensions><gpxtpx:TrackPointExtension><gpxtpx:hr>150</gpxtpx:hr></gpxtpx:TrackPointExtension></extensions>
      </trkpt>
      <trkpt lat="59.196671" lon="17.533747">
        <ele>52</ele>
        <time>2020-03-26T13:14:14Z</time>
        <extensions><gpxtpx:TrackPointExtension><gpxtpx:hr>150</gpxtpx:hr></gpxtpx:TrackPointExtension></extensions>
      </trkpt>
      <trkpt lat="59.196729" lon="17.533821">
        <ele>52</ele>
        <time>2020-03-26T13:14:15Z</time>
        <extensions><gpxtpx:TrackPointExtension><gpxtpx:hr>149</gpxtpx:hr></gpxtpx:TrackPointExtension></extensions>
      </trkpt>
      <trkpt lat="59.196785" lon="17.533903">
        <ele>52</ele>
        <time>2020-03-26T13:14:16Z</time>
        <extensions><gpxtpx:TrackPointExtension><gpxtpx:hr>148</gpxtpx:hr></gpxtpx:TrackPointExtension></extensions>
      </trkpt>
      <trkpt lat="59.196845" lon="17.53399">
        <ele>52</ele>
        <time>2020-03-26T13:14:17Z</time>
        <extensions><gpxtpx:TrackPointExtension><gpxtpx:hr>148</gpxtpx:hr></gpxtpx:TrackPointExtension></extensions>
      </trkpt>
      <trkpt lat="59.196904" lon="17.534083">
        <ele>52</ele>
        <time>2020-03-26T13:14:18Z</time>
        <extensions><gpxtpx:TrackPointExtension><gpxtpx:hr>147</gpxtpx:hr></gpxtpx:TrackPointExtension></extensions>
      </trkpt>
      <trkpt lat="59.19696" lon="17.534184">
        <ele>52</ele>
        <time>2020-03-26T13:14:19Z</time>
        <extensions><gpxtpx:TrackPointExtension><gpxtpx:hr>147</gpxtpx:hr></gpxtpx:TrackPointExtension></extensions>
      </trkpt>
      <trkpt lat="59.197016" lon="17.534289">
        <ele>52</ele>
        <time>2020-03-26T13:14:20Z</time>
        <extensions><gpxtpx:TrackPointExtension><gpxtpx:hr>146</gpxtpx:hr></gpxtpx:TrackPointExtension></extensions>
      </trkpt>
      <trkpt lat="59.197072" lon="17.534397">
        <ele>51.8</ele>
        <time>2020-03-26T13:14:21Z</time>
        <extensions><gpxtpx:TrackPointExtension><gpxtpx:hr>145</gpxtpx:hr></gpxtpx:TrackPointExtension></extensions>
      </trkpt>
      <trkpt lat="59.197129" lon="17.534507">
        <ele>51.8</ele>
        <time>2020-03-26T13:14:22Z</time>
        <extensions><gpxtpx:TrackPointExtension><gpxtpx:hr>143</gpxtpx:hr></gpxtpx:TrackPointExtension></extensions>
      </trkpt>
      <trkpt lat="59.197186" lon="17.53462">
        <ele>51.8</ele>
        <time>2020-03-26T13:14:23Z</time>
        <extensions><gpxtpx:TrackPointExtension><gpxtpx:hr>142</gpxtpx:hr></gpxtpx:TrackPointExtension></extensions>
      </trkpt>
      <trkpt lat="59.197243" lon="17.534735">
        <ele>51.6</ele>
        <time>2020-03-26T13:14:24Z</time>
        <extensions><gpxtpx:TrackPointExtension><gpxtpx:hr>142</gpxtpx:hr></gpxtpx:TrackPointExtension></extensions>
      </trkpt>
      <trkpt lat="59.197301" lon="17.534852">
        <ele>51.6</ele>
        <time>2020-03-26T13:14:25Z</time>
        <extensions><gpxtpx:TrackPointExtension><gpxtpx:hr>141</gpxtpx:hr></gpxtpx:TrackPointExtension></extensions>
      </trkpt>
      <trkpt lat="59.197359" lon="17.53497">
        <ele>51.4</ele>
        <time>2020-03-26T13:14:26Z</time>
        <extensions><gpxtpx:TrackPointExtension><gpxtpx:hr>141</gpxtpx:hr></gpxtpx:TrackPointExtension></extensions>
      </trkpt>
      <trkpt lat="59.197417" lon="17.535088">
        <ele>51</ele>
        <time>2020-03-26T13:14:27Z</time>
        <extensions><gpxtpx:TrackPointExtension><gpxtpx:hr>141</gpxtpx:hr></gpxtpx:TrackPointExtension></extensions>
      </trkpt>
      <trkpt lat="59.197476" lon="17.535208">
        <ele>50.8</ele>
        <time>2020-03-26T13:14:28Z</time>
        <extensions><gpxtpx:TrackPointExtension><gpxtpx:hr>140</gpxtpx:hr></gpxtpx:TrackPointExtension></extensions>
      </trkpt>
      <trkpt lat="59.197536" lon="17.535327">
        <ele>50.4</ele>
        <time>2020-03-26T13:14:29Z</time>
        <extensions><gpxtpx:TrackPointExtension><gpxtpx:hr>138</gpxtpx:hr></gpxtpx:TrackPointExtension></extensions>
      </trkpt>
      <trkpt lat="59.197598" lon="17.535448">
        <ele>50</ele>
        <time>2020-03-26T13:14:30Z</time>
        <extensions><gpxtpx:TrackPointExtension><gpxtpx:hr>137</gpxtpx:hr></gpxtpx:TrackPointExtension></extensions>
      </trkpt>
      <trkpt lat="59.197659" lon="17.53557">
        <ele>49.8</ele>
        <time>2020-03-26T13:14:31Z</time>
        <extensions><gpxtpx:TrackPointExtension><gpxtpx:hr>136</gpxtpx:hr></gpxtpx:TrackPointExtension></extensions>
      </trkpt>
      <trkpt lat="59.197721" lon="17.535696">
        <ele>49.6</ele>
        <time>2020-03-26T13:14:32Z</time>
        <extensions><gpxtpx:TrackPointExtension><gpxtpx:hr>135</gpxtpx:hr></gpxtpx:TrackPointExtension></extensions>
      </trkpt>
      <trkpt lat="59.197783" lon="17.53582">
        <ele>49.4</ele>
        <time>2020-03-26T13:14:33Z</time>
        <extensions><gpxtpx:TrackPointExtension><gpxtpx:hr>135</gpxtpx:hr></gpxtpx:TrackPointExtension></extensions>
      </trkpt>
      <trkpt lat="59.197847" lon="17.535944">
        <ele>49.2</ele>
        <time>2020-03-26T13:14:34Z</time>
        <extensions><gpxtpx:TrackPointExtension><gpxtpx:hr>135</gpxtpx:hr></gpxtpx:TrackPointExtension></extensions>
      </trkpt>
      <trkpt lat="59.197911" lon="17.536068">
        <ele>49.2</ele>
        <time>2020-03-26T13:14:35Z</time>
        <extensions><gpxtpx:TrackPointExtension><gpxtpx:hr>135</gpxtpx:hr></gpxtpx:TrackPointExtension></extensions>
      </trkpt>
      <trkpt lat="59.197974" lon="17.536192">
        <ele>49.2</ele>
        <time>2020-03-26T13:14:36Z</time>
        <extensions><gpxtpx:TrackPointExtension><gpxtpx:hr>135</gpxtpx:hr></gpxtpx:TrackPointExtension></extensions>
      </trkpt>
      <trkpt lat="59.198036" lon="17.536315">
        <ele>49</ele>
        <time>2020-03-26T13:14:37Z</time>
        <extensions><gpxtpx:TrackPointExtension><gpxtpx:hr>135</gpxtpx:hr></gpxtpx:TrackPointExtension></extensions>
      </trkpt>
      <trkpt lat="59.198098" lon="17.536435">
        <ele>49</ele>
        <time>2020-03-26T13:14:38Z</time>
        <extensions><gpxtpx:TrackPointExtension><gpxtpx:hr>135</gpxtpx:hr></gpxtpx:TrackPointExtension></extensions>
      </trkpt>
      <trkpt lat="59.19816" lon="17.536553">
        <ele>49</ele>
        <time>2020-03-26T13:14:39Z</time>
        <extensions><gpxtpx:TrackPointExtension><gpxtpx:hr>135</gpxtpx:hr></gpxtpx:TrackPointExtension></extensions>
      </trkpt>
      <trkpt lat="59.198221" lon="17.536671">
        <ele>48.8</ele>
        <time>2020-03-26T13:14:40Z</time>
        <extensions><gpxtpx:TrackPointExtension><gpxtpx:hr>135</gpxtpx:hr></gpxtpx:TrackPointExtension></extensions>
      </trkpt>
      <trkpt lat="59.198279" lon="17.53679">
        <ele>48.8</ele>
        <time>2020-03-26T13:14:41Z</time>
        <extensions><gpxtpx:TrackPointExtension><gpxtpx:hr>136</gpxtpx:hr></gpxtpx:TrackPointExtension></extensions>
      </trkpt>
      <trkpt lat="59.198336" lon="17.536909">
        <ele>48.8</ele>
        <time>2020-03-26T13:14:42Z</time>
        <extensions><gpxtpx:TrackPointExtension><gpxtpx:hr>136</gpxtpx:hr></gpxtpx:TrackPointExtension></extensions>
      </trkpt>
      <trkpt lat="59.198393" lon="17.537021">
        <ele>48.6</ele>
        <time>2020-03-26T13:14:43Z</time>
        <extensions><gpxtpx:TrackPointExtension><gpxtpx:hr>136</gpxtpx:hr></gpxtpx:TrackPointExtension></extensions>
      </trkpt>
      <trkpt lat="59.198449" lon="17.537131">
        <ele>48.8</ele>
        <time>2020-03-26T13:14:44Z</time>
        <extensions><gpxtpx:TrackPointExtension><gpxtpx:hr>135</gpxtpx:hr></gpxtpx:TrackPointExtension></extensions>
      </trkpt>
      <trkpt lat="59.198504" lon="17.537238">
        <ele>48.8</ele>
        <time>2020-03-26T13:14:45Z</time>
        <extensions><gpxtpx:TrackPointExtension><gpxtpx:hr>135</gpxtpx:hr></gpxtpx:TrackPointExtension></extensions>
      </trkpt>
      <trkpt lat="59.198559" lon="17.537342">
        <ele>48.8</ele>
        <time>2020-03-26T13:14:46Z</time>
        <extensions><gpxtpx:TrackPointExtension><gpxtpx:hr>135</gpxtpx:hr></gpxtpx:TrackPointExtension></extensions>
      </trkpt>
      <trkpt lat="59.198612" lon="17.537447">
        <ele>48.8</ele>
        <time>2020-03-26T13:14:47Z</time>
        <extensions><gpxtpx:TrackPointExtension><gpxtpx:hr>136</gpxtpx:hr></gpxtpx:TrackPointExtension></extensions>
      </trkpt>
      <trkpt lat="59.198663" lon="17.537551">
        <ele>48.8</ele>
        <time>2020-03-26T13:14:48Z</time>
        <extensions><gpxtpx:TrackPointExtension><gpxtpx:hr>136</gpxtpx:hr></gpxtpx:TrackPointExtension></extensions>
      </trkpt>
      <trkpt lat="59.198712" lon="17.537652">
        <ele>48.8</ele>
        <time>2020-03-26T13:14:49Z</time>
        <extensions><gpxtpx:TrackPointExtension><gpxtpx:hr>137</gpxtpx:hr></gpxtpx:TrackPointExtension></extensions>
      </trkpt>
      <trkpt lat="59.198759" lon="17.537752">
        <ele>48.8</ele>
        <time>2020-03-26T13:14:50Z</time>
        <extensions><gpxtpx:TrackPointExtension><gpxtpx:hr>137</gpxtpx:hr></gpxtpx:TrackPointExtension></extensions>
      </trkpt>
      <trkpt lat="59.198807" lon="17.537853">
        <ele>48.8</ele>
        <time>2020-03-26T13:14:51Z</time>
        <extensions><gpxtpx:TrackPointExtension><gpxtpx:hr>138</gpxtpx:hr></gpxtpx:TrackPointExtension></extensions>
      </trkpt>
      <trkpt lat="59.198856" lon="17.537952">
        <ele>48.8</ele>
        <time>2020-03-26T13:14:52Z</time>
        <extensions><gpxtpx:TrackPointExtension><gpxtpx:hr>138</gpxtpx:hr></gpxtpx:TrackPointExtension></extensions>
      </trkpt>
      <trkpt lat="59.198891" lon="17.538029">
        <ele>49</ele>
        <time>2020-03-26T13:14:53Z</time>
        <extensions><gpxtpx:TrackPointExtension><gpxtpx:hr>138</gpxtpx:hr></gpxtpx:TrackPointExtension></extensions>
      </trkpt>
      <trkpt lat="59.198926" lon="17.538107">
        <ele>49.2</ele>
        <time>2020-03-26T13:14:54Z</time>
        <extensions><gpxtpx:TrackPointExtension><gpxtpx:hr>139</gpxtpx:hr></gpxtpx:TrackPointExtension></extensions>
      </trkpt>
      <trkpt lat="59.198995" lon="17.538262">
        <ele>49.4</ele>
        <time>2020-03-26T13:14:55Z</time>
        <extensions><gpxtpx:TrackPointExtension><gpxtpx:hr>139</gpxtpx:hr></gpxtpx:TrackPointExtension></extensions>
      </trkpt>
      <trkpt lat="59.199036" lon="17.538371">
        <ele>49.6</ele>
        <time>2020-03-26T13:14:56Z</time>
        <extensions><gpxtpx:TrackPointExtension><gpxtpx:hr>140</gpxtpx:hr></gpxtpx:TrackPointExtension></extensions>
      </trkpt>
      <trkpt lat="59.199076" lon="17.538484">
        <ele>49.8</ele>
        <time>2020-03-26T13:14:57Z</time>
        <extensions><gpxtpx:TrackPointExtension><gpxtpx:hr>142</gpxtpx:hr></gpxtpx:TrackPointExtension></extensions>
      </trkpt>
      <trkpt lat="59.199113" lon="17.538598">
        <ele>49.8</ele>
        <time>2020-03-26T13:14:58Z</time>
        <extensions><gpxtpx:TrackPointExtension><gpxtpx:hr>143</gpxtpx:hr></gpxtpx:TrackPointExtension></extensions>
      </trkpt>
      <trkpt lat="59.199149" lon="17.538716">
        <ele>50</ele>
        <time>2020-03-26T13:14:59Z</time>
        <extensions><gpxtpx:TrackPointExtension><gpxtpx:hr>143</gpxtpx:hr></gpxtpx:TrackPointExtension></extensions>
      </trkpt>
      <trkpt lat="59.199183" lon="17.538839">
        <ele>50.2</ele>
        <time>2020-03-26T13:15:00Z</time>
        <extensions><gpxtpx:TrackPointExtension><gpxtpx:hr>143</gpxtpx:hr></gpxtpx:TrackPointExtension></extensions>
      </trkpt>
      <trkpt lat="59.199218" lon="17.538966">
        <ele>50.4</ele>
        <time>2020-03-26T13:15:01Z</time>
        <extensions><gpxtpx:TrackPointExtension><gpxtpx:hr>143</gpxtpx:hr></gpxtpx:TrackPointExtension></extensions>
      </trkpt>
      <trkpt lat="59.199252" lon="17.539093">
        <ele>50.8</ele>
        <time>2020-03-26T13:15:02Z</time>
        <extensions><gpxtpx:TrackPointExtension><gpxtpx:hr>144</gpxtpx:hr></gpxtpx:TrackPointExtension></extensions>
      </trkpt>
      <trkpt lat="59.199284" lon="17.539217">
        <ele>51</ele>
        <time>2020-03-26T13:15:03Z</time>
        <extensions><gpxtpx:TrackPointExtension><gpxtpx:hr>145</gpxtpx:hr></gpxtpx:TrackPointExtension></extensions>
      </trkpt>
      <trkpt lat="59.199315" lon="17.539334">
        <ele>51.4</ele>
        <time>2020-03-26T13:15:04Z</time>
        <extensions><gpxtpx:TrackPointExtension><gpxtpx:hr>145</gpxtpx:hr></gpxtpx:TrackPointExtension></extensions>
      </trkpt>
      <trkpt lat="59.199346" lon="17.539458">
        <ele>51.6</ele>
        <time>2020-03-26T13:15:05Z</time>
        <extensions><gpxtpx:TrackPointExtension><gpxtpx:hr>146</gpxtpx:hr></gpxtpx:TrackPointExtension></extensions>
      </trkpt>
      <trkpt lat="59.199376" lon="17.539585">
        <ele>51.8</ele>
        <time>2020-03-26T13:15:06Z</time>
        <extensions><gpxtpx:TrackPointExtension><gpxtpx:hr>147</gpxtpx:hr></gpxtpx:TrackPointExtension></extensions>
      </trkpt>
      <trkpt lat="59.199407" lon="17.539719">
        <ele>51.8</ele>
        <time>2020-03-26T13:15:07Z</time>
        <extensions><gpxtpx:TrackPointExtension><gpxtpx:hr>148</gpxtpx:hr></gpxtpx:TrackPointExtension></extensions>
      </trkpt>
      <trkpt lat="59.199438" lon="17.539848">
        <ele>52</ele>
        <time>2020-03-26T13:15:08Z</time>
        <extensions><gpxtpx:TrackPointExtension><gpxtpx:hr>148</gpxtpx:hr></gpxtpx:TrackPointExtension></extensions>
      </trkpt>
      <trkpt lat="59.199469" lon="17.539979">
        <ele>52.2</ele>
        <time>2020-03-26T13:15:09Z</time>
        <extensions><gpxtpx:TrackPointExtension><gpxtpx:hr>149</gpxtpx:hr></gpxtpx:TrackPointExtension></extensions>
      </trkpt>
      <trkpt lat="59.1995" lon="17.540111">
        <ele>52.2</ele>
        <time>2020-03-26T13:15:10Z</time>
        <extensions><gpxtpx:TrackPointExtension><gpxtpx:hr>149</gpxtpx:hr></gpxtpx:TrackPointExtension></extensions>
      </trkpt>
      <trkpt lat="59.199531" lon="17.540246">
        <ele>52.4</ele>
        <time>2020-03-26T13:15:11Z</time>
        <extensions><gpxtpx:TrackPointExtension><gpxtpx:hr>150</gpxtpx:hr></gpxtpx:TrackPointExtension></extensions>
      </trkpt>
      <trkpt lat="59.199563" lon="17.540379">
        <ele>52.4</ele>
        <time>2020-03-26T13:15:12Z</time>
        <extensions><gpxtpx:TrackPointExtension><gpxtpx:hr>150</gpxtpx:hr></gpxtpx:TrackPointExtension></extensions>
      </trkpt>
      <trkpt lat="59.199594" lon="17.54051">
        <ele>52.4</ele>
        <time>2020-03-26T13:15:13Z</time>
        <extensions><gpxtpx:TrackPointExtension><gpxtpx:hr>151</gpxtpx:hr></gpxtpx:TrackPointExtension></extensions>
      </trkpt>
      <trkpt lat="59.199624" lon="17.540641">
        <ele>52.4</ele>
        <time>2020-03-26T13:15:14Z</time>
        <extensions><gpxtpx:TrackPointExtension><gpxtpx:hr>151</gpxtpx:hr></gpxtpx:TrackPointExtension></extensions>
      </trkpt>
      <trkpt lat="59.199655" lon="17.540768">
        <ele>52.6</ele>
        <time>2020-03-26T13:15:15Z</time>
        <extensions><gpxtpx:TrackPointExtension><gpxtpx:hr>151</gpxtpx:hr></gpxtpx:TrackPointExtension></extensions>
      </trkpt>
      <trkpt lat="59.199686" lon="17.540899">
        <ele>52.6</ele>
        <time>2020-03-26T13:15:16Z</time>
        <extensions><gpxtpx:TrackPointExtension><gpxtpx:hr>152</gpxtpx:hr></gpxtpx:TrackPointExtension></extensions>
      </trkpt>
      <trkpt lat="59.199718" lon="17.541029">
        <ele>52.6</ele>
        <time>2020-03-26T13:15:17Z</time>
        <extensions><gpxtpx:TrackPointExtension><gpxtpx:hr>151</gpxtpx:hr></gpxtpx:TrackPointExtension></extensions>
      </trkpt>
      <trkpt lat="59.19975" lon="17.541159">
        <ele>52.6</ele>
        <time>2020-03-26T13:15:18Z</time>
        <extensions><gpxtpx:TrackPointExtension><gpxtpx:hr>151</gpxtpx:hr></gpxtpx:TrackPointExtension></extensions>
      </trkpt>
      <trkpt lat="59.199781" lon="17.54129">
        <ele>52.8</ele>
        <time>2020-03-26T13:15:19Z</time>
        <extensions><gpxtpx:TrackPointExtension><gpxtpx:hr>151</gpxtpx:hr></gpxtpx:TrackPointExtension></extensions>
      </trkpt>
      <trkpt lat="59.199815" lon="17.541417">
        <ele>52.8</ele>
        <time>2020-03-26T13:15:20Z</time>
        <extensions><gpxtpx:TrackPointExtension><gpxtpx:hr>150</gpxtpx:hr></gpxtpx:TrackPointExtension></extensions>
      </trkpt>
      <trkpt lat="59.199854" lon="17.541549">
        <ele>52.8</ele>
        <time>2020-03-26T13:15:21Z</time>
        <extensions><gpxtpx:TrackPointExtension><gpxtpx:hr>150</gpxtpx:hr></gpxtpx:TrackPointExtension></extensions>
      </trkpt>
      <trkpt lat="59.199897" lon="17.541673">
        <ele>52.8</ele>
        <time>2020-03-26T13:15:22Z</time>
        <extensions><gpxtpx:TrackPointExtension><gpxtpx:hr>150</gpxtpx:hr></gpxtpx:TrackPointExtension></extensions>
      </trkpt>
      <trkpt lat="59.199941" lon="17.541789">
        <ele>52.8</ele>
        <time>2020-03-26T13:15:23Z</time>
        <extensions><gpxtpx:TrackPointExtension><gpxtpx:hr>149</gpxtpx:hr></gpxtpx:TrackPointExtension></extensions>
      </trkpt>
      <trkpt lat="59.19999" lon="17.541889">
        <ele>53</ele>
        <time>2020-03-26T13:15:24Z</time>
        <extensions><gpxtpx:TrackPointExtension><gpxtpx:hr>149</gpxtpx:hr></gpxtpx:TrackPointExtension></extensions>
      </trkpt>
      <trkpt lat="59.200044" lon="17.54199">
        <ele>53</ele>
        <time>2020-03-26T13:15:25Z</time>
        <extensions><gpxtpx:TrackPointExtension><gpxtpx:hr>148</gpxtpx:hr></gpxtpx:TrackPointExtension></extensions>
      </trkpt>
      <trkpt lat="59.200102" lon="17.54209">
        <ele>53</ele>
        <time>2020-03-26T13:15:26Z</time>
        <extensions><gpxtpx:TrackPointExtension><gpxtpx:hr>148</gpxtpx:hr></gpxtpx:TrackPointExtension></extensions>
      </trkpt>
      <trkpt lat="59.200163" lon="17.542195">
        <ele>53</ele>
        <time>2020-03-26T13:15:27Z</time>
        <extensions><gpxtpx:TrackPointExtension><gpxtpx:hr>148</gpxtpx:hr></gpxtpx:TrackPointExtension></extensions>
      </trkpt>
      <trkpt lat="59.200226" lon="17.542292">
        <ele>53</ele>
        <time>2020-03-26T13:15:28Z</time>
        <extensions><gpxtpx:TrackPointExtension><gpxtpx:hr>148</gpxtpx:hr></gpxtpx:TrackPointExtension></extensions>
      </trkpt>
      <trkpt lat="59.200297" lon="17.542378">
        <ele>53</ele>
        <time>2020-03-26T13:15:29Z</time>
        <extensions><gpxtpx:TrackPointExtension><gpxtpx:hr>147</gpxtpx:hr></gpxtpx:TrackPointExtension></extensions>
      </trkpt>
      <trkpt lat="59.20037" lon="17.542462">
        <ele>53</ele>
        <time>2020-03-26T13:15:30Z</time>
        <extensions><gpxtpx:TrackPointExtension><gpxtpx:hr>147</gpxtpx:hr></gpxtpx:TrackPointExtension></extensions>
      </trkpt>
      <trkpt lat="59.200449" lon="17.542541">
        <ele>53</ele>
        <time>2020-03-26T13:15:31Z</time>
        <extensions><gpxtpx:TrackPointExtension><gpxtpx:hr>147</gpxtpx:hr></gpxtpx:TrackPointExtension></extensions>
      </trkpt>
      <trkpt lat="59.200533" lon="17.54263">
        <ele>53</ele>
        <time>2020-03-26T13:15:32Z</time>
        <extensions><gpxtpx:TrackPointExtension><gpxtpx:hr>146</gpxtpx:hr></gpxtpx:TrackPointExtension></extensions>
      </trkpt>
      <trkpt lat="59.200617" lon="17.542714">
        <ele>53</ele>
        <time>2020-03-26T13:15:33Z</time>
        <extensions><gpxtpx:TrackPointExtension><gpxtpx:hr>146</gpxtpx:hr></gpxtpx:TrackPointExtension></extensions>
      </trkpt>
      <trkpt lat="59.200697" lon="17.542799">
        <ele>52.8</ele>
        <time>2020-03-26T13:15:34Z</time>
        <extensions><gpxtpx:TrackPointExtension><gpxtpx:hr>145</gpxtpx:hr></gpxtpx:TrackPointExtension></extensions>
      </trkpt>
      <trkpt lat="59.200779" lon="17.542886">
        <ele>52.6</ele>
        <time>2020-03-26T13:15:35Z</time>
        <extensions><gpxtpx:TrackPointExtension><gpxtpx:hr>144</gpxtpx:hr></gpxtpx:TrackPointExtension></extensions>
      </trkpt>
      <trkpt lat="59.200858" lon="17.542974">
        <ele>52.2</ele>
        <time>2020-03-26T13:15:36Z</time>
        <extensions><gpxtpx:TrackPointExtension><gpxtpx:hr>143</gpxtpx:hr></gpxtpx:TrackPointExtension></extensions>
      </trkpt>
      <trkpt lat="59.200937" lon="17.543061">
        <ele>51.8</ele>
        <time>2020-03-26T13:15:37Z</time>
        <extensions><gpxtpx:TrackPointExtension><gpxtpx:hr>141</gpxtpx:hr></gpxtpx:TrackPointExtension></extensions>
      </trkpt>
      <trkpt lat="59.201011" lon="17.543145">
        <ele>51.4</ele>
        <time>2020-03-26T13:15:38Z</time>
        <extensions><gpxtpx:TrackPointExtension><gpxtpx:hr>140</gpxtpx:hr></gpxtpx:TrackPointExtension></extensions>
      </trkpt>
      <trkpt lat="59.201084" lon="17.543224">
        <ele>51</ele>
        <time>2020-03-26T13:15:39Z</time>
        <extensions><gpxtpx:TrackPointExtension><gpxtpx:hr>139</gpxtpx:hr></gpxtpx:TrackPointExtension></extensions>
      </trkpt>
      <trkpt lat="59.201152" lon="17.543302">
        <ele>50.4</ele>
        <time>2020-03-26T13:15:40Z</time>
        <extensions><gpxtpx:TrackPointExtension><gpxtpx:hr>138</gpxtpx:hr></gpxtpx:TrackPointExtension></extensions>
      </trkpt>
      <trkpt lat="59.201221" lon="17.54338">
        <ele>50</ele>
        <time>2020-03-26T13:15:41Z</time>
        <extensions><gpxtpx:TrackPointExtension><gpxtpx:hr>137</gpxtpx:hr></gpxtpx:TrackPointExtension></extensions>
      </trkpt>
      <trkpt lat="59.201285" lon="17.543452">
        <ele>49.6</ele>
        <time>2020-03-26T13:15:42Z</time>
        <extensions><gpxtpx:TrackPointExtension><gpxtpx:hr>136</gpxtpx:hr></gpxtpx:TrackPointExtension></extensions>
      </trkpt>
      <trkpt lat="59.201346" lon="17.543524">
        <ele>49.4</ele>
        <time>2020-03-26T13:15:43Z</time>
        <extensions><gpxtpx:TrackPointExtension><gpxtpx:hr>135</gpxtpx:hr></gpxtpx:TrackPointExtension></extensions>
      </trkpt>
      <trkpt lat="59.201407" lon="17.5436">
        <ele>49.4</ele>
        <time>2020-03-26T13:15:44Z</time>
        <extensions><gpxtpx:TrackPointExtension><gpxtpx:hr>134</gpxtpx:hr></gpxtpx:TrackPointExtension></extensions>
      </trkpt>
      <trkpt lat="59.201464" lon="17.543677">
        <ele>49.4</ele>
        <time>2020-03-26T13:15:45Z</time>
        <extensions><gpxtpx:TrackPointExtension><gpxtpx:hr>133</gpxtpx:hr></gpxtpx:TrackPointExtension></extensions>
      </trkpt>
      <trkpt lat="59.201518" lon="17.543763">
        <ele>49.4</ele>
        <time>2020-03-26T13:15:46Z</time>
        <extensions><gpxtpx:TrackPointExtension><gpxtpx:hr>133</gpxtpx:hr></gpxtpx:TrackPointExtension></extensions>
      </trkpt>
      <trkpt lat="59.201575" lon="17.543855">
        <ele>49.4</ele>
        <time>2020-03-26T13:15:47Z</time>
        <extensions><gpxtpx:TrackPointExtension><gpxtpx:hr>133</gpxtpx:hr></gpxtpx:TrackPointExtension></extensions>
      </trkpt>
      <trkpt lat="59.201627" lon="17.54395">
        <ele>49.4</ele>
        <time>2020-03-26T13:15:48Z</time>
        <extensions><gpxtpx:TrackPointExtension><gpxtpx:hr>133</gpxtpx:hr></gpxtpx:TrackPointExtension></extensions>
      </trkpt>
      <trkpt lat="59.201678" lon="17.544049">
        <ele>49.4</ele>
        <time>2020-03-26T13:15:49Z</time>
        <extensions><gpxtpx:TrackPointExtension><gpxtpx:hr>134</gpxtpx:hr></gpxtpx:TrackPointExtension></extensions>
      </trkpt>
      <trkpt lat="59.201727" lon="17.544164">
        <ele>49.4</ele>
        <time>2020-03-26T13:15:50Z</time>
        <extensions><gpxtpx:TrackPointExtension><gpxtpx:hr>135</gpxtpx:hr></gpxtpx:TrackPointExtension></extensions>
      </trkpt>
      <trkpt lat="59.201772" lon="17.54428">
        <ele>49.6</ele>
        <time>2020-03-26T13:15:51Z</time>
        <extensions><gpxtpx:TrackPointExtension><gpxtpx:hr>136</gpxtpx:hr></gpxtpx:TrackPointExtension></extensions>
      </trkpt>
      <trkpt lat="59.201817" lon="17.544404">
        <ele>50</ele>
        <time>2020-03-26T13:15:52Z</time>
        <extensions><gpxtpx:TrackPointExtension><gpxtpx:hr>138</gpxtpx:hr></gpxtpx:TrackPointExtension></extensions>
      </trkpt>
      <trkpt lat="59.201856" lon="17.544529">
        <ele>50.2</ele>
        <time>2020-03-26T13:15:53Z</time>
        <extensions><gpxtpx:TrackPointExtension><gpxtpx:hr>138</gpxtpx:hr></gpxtpx:TrackPointExtension></extensions>
      </trkpt>
      <trkpt lat="59.201897" lon="17.544651">
        <ele>50.4</ele>
        <time>2020-03-26T13:15:54Z</time>
        <extensions><gpxtpx:TrackPointExtension><gpxtpx:hr>139</gpxtpx:hr></gpxtpx:TrackPointExtension></extensions>
      </trkpt>
      <trkpt lat="59.201937" lon="17.544771">
        <ele>50.8</ele>
        <time>2020-03-26T13:15:55Z</time>
        <extensions><gpxtpx:TrackPointExtension><gpxtpx:hr>140</gpxtpx:hr></gpxtpx:TrackPointExtension></extensions>
      </trkpt>
      <trkpt lat="59.201988" lon="17.544903">
        <ele>51</ele>
        <time>2020-03-26T13:15:56Z</time>
        <extensions><gpxtpx:TrackPointExtension><gpxtpx:hr>141</gpxtpx:hr></gpxtpx:TrackPointExtension></extensions>
      </trkpt>
      <trkpt lat="59.202033" lon="17.545038">
        <ele>51.2</ele>
        <time>2020-03-26T13:15:57Z</time>
        <extensions><gpxtpx:TrackPointExtension><gpxtpx:hr>141</gpxtpx:hr></gpxtpx:TrackPointExtension></extensions>
      </trkpt>
      <trkpt lat="59.202078" lon="17.545176">
        <ele>51.2</ele>
        <time>2020-03-26T13:15:58Z</time>
        <extensions><gpxtpx:TrackPointExtension><gpxtpx:hr>141</gpxtpx:hr></gpxtpx:TrackPointExtension></extensions>
      </trkpt>
      <trkpt lat="59.202122" lon="17.545316">
        <ele>51.4</ele>
        <time>2020-03-26T13:15:59Z</time>
        <extensions><gpxtpx:TrackPointExtension><gpxtpx:hr>142</gpxtpx:hr></gpxtpx:TrackPointExtension></extensions>
      </trkpt>
      <trkpt lat="59.202167" lon="17.545456">
        <ele>51.4</ele>
        <time>2020-03-26T13:16:00Z</time>
        <extensions><gpxtpx:TrackPointExtension><gpxtpx:hr>142</gpxtpx:hr></gpxtpx:TrackPointExtension></extensions>
      </trkpt>
      <trkpt lat="59.202214" lon="17.545598">
        <ele>51.4</ele>
        <time>2020-03-26T13:16:01Z</time>
        <extensions><gpxtpx:TrackPointExtension><gpxtpx:hr>142</gpxtpx:hr></gpxtpx:TrackPointExtension></extensions>
      </trkpt>
      <trkpt lat="59.20226" lon="17.545739">
        <ele>51.4</ele>
        <time>2020-03-26T13:16:02Z</time>
        <extensions><gpxtpx:TrackPointExtension><gpxtpx:hr>143</gpxtpx:hr></gpxtpx:TrackPointExtension></extensions>
      </trkpt>
      <trkpt lat="59.202306" lon="17.545881">
        <ele>51.4</ele>
        <time>2020-03-26T13:16:03Z</time>
        <extensions><gpxtpx:TrackPointExtension><gpxtpx:hr>143</gpxtpx:hr></gpxtpx:TrackPointExtension></extensions>
      </trkpt>
      <trkpt lat="59.202353" lon="17.546024">
        <ele>51.4</ele>
        <time>2020-03-26T13:16:04Z</time>
        <extensions><gpxtpx:TrackPointExtension><gpxtpx:hr>143</gpxtpx:hr></gpxtpx:TrackPointExtension></extensions>
      </trkpt>
      <trkpt lat="59.202399" lon="17.546166">
        <ele>51.4</ele>
        <time>2020-03-26T13:16:05Z</time>
        <extensions><gpxtpx:TrackPointExtension><gpxtpx:hr>143</gpxtpx:hr></gpxtpx:TrackPointExtension></extensions>
      </trkpt>
      <trkpt lat="59.202444" lon="17.546303">
        <ele>51.4</ele>
        <time>2020-03-26T13:16:06Z</time>
        <extensions><gpxtpx:TrackPointExtension><gpxtpx:hr>144</gpxtpx:hr></gpxtpx:TrackPointExtension></extensions>
      </trkpt>
      <trkpt lat="59.202487" lon="17.54644">
        <ele>51.2</ele>
        <time>2020-03-26T13:16:07Z</time>
        <extensions><gpxtpx:TrackPointExtension><gpxtpx:hr>144</gpxtpx:hr></gpxtpx:TrackPointExtension></extensions>
      </trkpt>
      <trkpt lat="59.202534" lon="17.546578">
        <ele>51.2</ele>
        <time>2020-03-26T13:16:08Z</time>
        <extensions><gpxtpx:TrackPointExtension><gpxtpx:hr>144</gpxtpx:hr></gpxtpx:TrackPointExtension></extensions>
      </trkpt>
      <trkpt lat="59.202574" lon="17.54672">
        <ele>51</ele>
        <time>2020-03-26T13:16:09Z</time>
        <extensions><gpxtpx:TrackPointExtension><gpxtpx:hr>144</gpxtpx:hr></gpxtpx:TrackPointExtension></extensions>
      </trkpt>
      <trkpt lat="59.202614" lon="17.546863">
        <ele>50.8</ele>
        <time>2020-03-26T13:16:10Z</time>
        <extensions><gpxtpx:TrackPointExtension><gpxtpx:hr>144</gpxtpx:hr></gpxtpx:TrackPointExtension></extensions>
      </trkpt>
      <trkpt lat="59.202654" lon="17.54701">
        <ele>50.4</ele>
        <time>2020-03-26T13:16:11Z</time>
        <extensions><gpxtpx:TrackPointExtension><gpxtpx:hr>144</gpxtpx:hr></gpxtpx:TrackPointExtension></extensions>
      </trkpt>
      <trkpt lat="59.202689" lon="17.547159">
        <ele>50</ele>
        <time>2020-03-26T13:16:12Z</time>
        <extensions><gpxtpx:TrackPointExtension><gpxtpx:hr>144</gpxtpx:hr></gpxtpx:TrackPointExtension></extensions>
      </trkpt>
      <trkpt lat="59.202721" lon="17.547307">
        <ele>49.8</ele>
        <time>2020-03-26T13:16:13Z</time>
        <extensions><gpxtpx:TrackPointExtension><gpxtpx:hr>144</gpxtpx:hr></gpxtpx:TrackPointExtension></extensions>
      </trkpt>
      <trkpt lat="59.202755" lon="17.54746">
        <ele>49.8</ele>
        <time>2020-03-26T13:16:14Z</time>
        <extensions><gpxtpx:TrackPointExtension><gpxtpx:hr>143</gpxtpx:hr></gpxtpx:TrackPointExtension></extensions>
      </trkpt>
      <trkpt lat="59.202787" lon="17.547618">
        <ele>49.6</ele>
        <time>2020-03-26T13:16:15Z</time>
        <extensions><gpxtpx:TrackPointExtension><gpxtpx:hr>143</gpxtpx:hr></gpxtpx:TrackPointExtension></extensions>
      </trkpt>
      <trkpt lat="59.202821" lon="17.547785">
        <ele>49.4</ele>
        <time>2020-03-26T13:16:16Z</time>
        <extensions><gpxtpx:TrackPointExtension><gpxtpx:hr>143</gpxtpx:hr></gpxtpx:TrackPointExtension></extensions>
      </trkpt>
      <trkpt lat="59.20285" lon="17.547954">
        <ele>49.4</ele>
        <time>2020-03-26T13:16:17Z</time>
        <extensions><gpxtpx:TrackPointExtension><gpxtpx:hr>142</gpxtpx:hr></gpxtpx:TrackPointExtension></extensions>
      </trkpt>
      <trkpt lat="59.202879" lon="17.548126">
        <ele>49.4</ele>
        <time>2020-03-26T13:16:18Z</time>
        <extensions><gpxtpx:TrackPointExtension><gpxtpx:hr>142</gpxtpx:hr></gpxtpx:TrackPointExtension></extensions>
      </trkpt>
      <trkpt lat="59.202904" lon="17.548299">
        <ele>49.2</ele>
        <time>2020-03-26T13:16:19Z</time>
        <extensions><gpxtpx:TrackPointExtension><gpxtpx:hr>142</gpxtpx:hr></gpxtpx:TrackPointExtension></extensions>
      </trkpt>
      <trkpt lat="59.202917" lon="17.548429">
        <ele>49.2</ele>
        <time>2020-03-26T13:16:20Z</time>
        <extensions><gpxtpx:TrackPointExtension><gpxtpx:hr>141</gpxtpx:hr></gpxtpx:TrackPointExtension></extensions>
      </trkpt>
      <trkpt lat="59.20293" lon="17.54856">
        <ele>49.2</ele>
        <time>2020-03-26T13:16:21Z</time>
        <extensions><gpxtpx:TrackPointExtension><gpxtpx:hr>141</gpxtpx:hr></gpxtpx:TrackPointExtension></extensions>
      </trkpt>
      <trkpt lat="59.202956" lon="17.548822">
        <ele>48.8</ele>
        <time>2020-03-26T13:16:22Z</time>
        <extensions><gpxtpx:TrackPointExtension><gpxtpx:hr>140</gpxtpx:hr></gpxtpx:TrackPointExtension></extensions>
      </trkpt>
      <trkpt lat="59.202968" lon="17.548998">
        <ele>48.8</ele>
        <time>2020-03-26T13:16:23Z</time>
        <extensions><gpxtpx:TrackPointExtension><gpxtpx:hr>140</gpxtpx:hr></gpxtpx:TrackPointExtension></extensions>
      </trkpt>
      <trkpt lat="59.202979" lon="17.549174">
        <ele>48.4</ele>
        <time>2020-03-26T13:16:24Z</time>
        <extensions><gpxtpx:TrackPointExtension><gpxtpx:hr>139</gpxtpx:hr></gpxtpx:TrackPointExtension></extensions>
      </trkpt>
      <trkpt lat="59.202989" lon="17.549352">
        <ele>48.2</ele>
        <time>2020-03-26T13:16:25Z</time>
        <extensions><gpxtpx:TrackPointExtension><gpxtpx:hr>139</gpxtpx:hr></gpxtpx:TrackPointExtension></extensions>
      </trkpt>
      <trkpt lat="59.202995" lon="17.54953">
        <ele>47.8</ele>
        <time>2020-03-26T13:16:26Z</time>
        <extensions><gpxtpx:TrackPointExtension><gpxtpx:hr>138</gpxtpx:hr></gpxtpx:TrackPointExtension></extensions>
      </trkpt>
      <trkpt lat="59.202997" lon="17.549706">
        <ele>47.6</ele>
        <time>2020-03-26T13:16:27Z</time>
        <extensions><gpxtpx:TrackPointExtension><gpxtpx:hr>139</gpxtpx:hr></gpxtpx:TrackPointExtension></extensions>
      </trkpt>
      <trkpt lat="59.202997" lon="17.549883">
        <ele>47.2</ele>
        <time>2020-03-26T13:16:28Z</time>
        <extensions><gpxtpx:TrackPointExtension><gpxtpx:hr>139</gpxtpx:hr></gpxtpx:TrackPointExtension></extensions>
      </trkpt>
      <trkpt lat="59.202995" lon="17.550058">
        <ele>46.8</ele>
        <time>2020-03-26T13:16:29Z</time>
        <extensions><gpxtpx:TrackPointExtension><gpxtpx:hr>139</gpxtpx:hr></gpxtpx:TrackPointExtension></extensions>
      </trkpt>
      <trkpt lat="59.20299" lon="17.550231">
        <ele>46.6</ele>
        <time>2020-03-26T13:16:30Z</time>
        <extensions><gpxtpx:TrackPointExtension><gpxtpx:hr>140</gpxtpx:hr></gpxtpx:TrackPointExtension></extensions>
      </trkpt>
      <trkpt lat="59.202982" lon="17.550403">
        <ele>46.4</ele>
        <time>2020-03-26T13:16:31Z</time>
        <extensions><gpxtpx:TrackPointExtension><gpxtpx:hr>140</gpxtpx:hr></gpxtpx:TrackPointExtension></extensions>
      </trkpt>
      <trkpt lat="59.20297" lon="17.550572">
        <ele>46.2</ele>
        <time>2020-03-26T13:16:32Z</time>
        <extensions><gpxtpx:TrackPointExtension><gpxtpx:hr>140</gpxtpx:hr></gpxtpx:TrackPointExtension></extensions>
      </trkpt>
      <trkpt lat="59.202957" lon="17.550739">
        <ele>46</ele>
        <time>2020-03-26T13:16:33Z</time>
        <extensions><gpxtpx:TrackPointExtension><gpxtpx:hr>141</gpxtpx:hr></gpxtpx:TrackPointExtension></extensions>
      </trkpt>
      <trkpt lat="59.202941" lon="17.550905">
        <ele>46</ele>
        <time>2020-03-26T13:16:34Z</time>
        <extensions><gpxtpx:TrackPointExtension><gpxtpx:hr>140</gpxtpx:hr></gpxtpx:TrackPointExtension></extensions>
      </trkpt>
      <trkpt lat="59.202924" lon="17.55107">
        <ele>46</ele>
        <time>2020-03-26T13:16:35Z</time>
        <extensions><gpxtpx:TrackPointExtension><gpxtpx:hr>140</gpxtpx:hr></gpxtpx:TrackPointExtension></extensions>
      </trkpt>
      <trkpt lat="59.202905" lon="17.551232">
        <ele>45.8</ele>
        <time>2020-03-26T13:16:36Z</time>
        <extensions><gpxtpx:TrackPointExtension><gpxtpx:hr>140</gpxtpx:hr></gpxtpx:TrackPointExtension></extensions>
      </trkpt>
      <trkpt lat="59.202883" lon="17.551393">
        <ele>45.8</ele>
        <time>2020-03-26T13:16:37Z</time>
        <extensions><gpxtpx:TrackPointExtension><gpxtpx:hr>140</gpxtpx:hr></gpxtpx:TrackPointExtension></extensions>
      </trkpt>
      <trkpt lat="59.202859" lon="17.551551">
        <ele>45.8</ele>
        <time>2020-03-26T13:16:38Z</time>
        <extensions><gpxtpx:TrackPointExtension><gpxtpx:hr>141</gpxtpx:hr></gpxtpx:TrackPointExtension></extensions>
      </trkpt>
      <trkpt lat="59.202833" lon="17.551706">
        <ele>45.8</ele>
        <time>2020-03-26T13:16:39Z</time>
        <extensions><gpxtpx:TrackPointExtension><gpxtpx:hr>141</gpxtpx:hr></gpxtpx:TrackPointExtension></extensions>
      </trkpt>
      <trkpt lat="59.202805" lon="17.551856">
        <ele>45.8</ele>
        <time>2020-03-26T13:16:40Z</time>
        <extensions><gpxtpx:TrackPointExtension><gpxtpx:hr>141</gpxtpx:hr></gpxtpx:TrackPointExtension></extensions>
      </trkpt>
      <trkpt lat="59.202773" lon="17.552003">
        <ele>45.8</ele>
        <time>2020-03-26T13:16:41Z</time>
        <extensions><gpxtpx:TrackPointExtension><gpxtpx:hr>141</gpxtpx:hr></gpxtpx:TrackPointExtension></extensions>
      </trkpt>
      <trkpt lat="59.20274" lon="17.552146">
        <ele>46</ele>
        <time>2020-03-26T13:16:42Z</time>
        <extensions><gpxtpx:TrackPointExtension><gpxtpx:hr>141</gpxtpx:hr></gpxtpx:TrackPointExtension></extensions>
      </trkpt>
      <trkpt lat="59.202706" lon="17.552288">
        <ele>46</ele>
        <time>2020-03-26T13:16:43Z</time>
        <extensions><gpxtpx:TrackPointExtension><gpxtpx:hr>141</gpxtpx:hr></gpxtpx:TrackPointExtension></extensions>
      </trkpt>
      <trkpt lat="59.20267" lon="17.552425">
        <ele>46</ele>
        <time>2020-03-26T13:16:44Z</time>
        <extensions><gpxtpx:TrackPointExtension><gpxtpx:hr>141</gpxtpx:hr></gpxtpx:TrackPointExtension></extensions>
      </trkpt>
      <trkpt lat="59.202634" lon="17.55256">
        <ele>46</ele>
        <time>2020-03-26T13:16:45Z</time>
        <extensions><gpxtpx:TrackPointExtension><gpxtpx:hr>141</gpxtpx:hr></gpxtpx:TrackPointExtension></extensions>
      </trkpt>
      <trkpt lat="59.202596" lon="17.552696">
        <ele>46</ele>
        <time>2020-03-26T13:16:46Z</time>
        <extensions><gpxtpx:TrackPointExtension><gpxtpx:hr>141</gpxtpx:hr></gpxtpx:TrackPointExtension></extensions>
      </trkpt>
      <trkpt lat="59.20256" lon="17.552831">
        <ele>46</ele>
        <time>2020-03-26T13:16:47Z</time>
        <extensions><gpxtpx:TrackPointExtension><gpxtpx:hr>141</gpxtpx:hr></gpxtpx:TrackPointExtension></extensions>
      </trkpt>
      <trkpt lat="59.202524" lon="17.552965">
        <ele>46</ele>
        <time>2020-03-26T13:16:48Z</time>
        <extensions><gpxtpx:TrackPointExtension><gpxtpx:hr>141</gpxtpx:hr></gpxtpx:TrackPointExtension></extensions>
      </trkpt>
      <trkpt lat="59.202486" lon="17.553096">
        <ele>46</ele>
        <time>2020-03-26T13:16:49Z</time>
        <extensions><gpxtpx:TrackPointExtension><gpxtpx:hr>142</gpxtpx:hr></gpxtpx:TrackPointExtension></extensions>
      </trkpt>
      <trkpt lat="59.20245" lon="17.553224">
        <ele>46</ele>
        <time>2020-03-26T13:16:50Z</time>
        <extensions><gpxtpx:TrackPointExtension><gpxtpx:hr>142</gpxtpx:hr></gpxtpx:TrackPointExtension></extensions>
      </trkpt>
      <trkpt lat="59.202415" lon="17.553348">
        <ele>46</ele>
        <time>2020-03-26T13:16:51Z</time>
        <extensions><gpxtpx:TrackPointExtension><gpxtpx:hr>143</gpxtpx:hr></gpxtpx:TrackPointExtension></extensions>
      </trkpt>
      <trkpt lat="59.202381" lon="17.553466">
        <ele>46</ele>
        <time>2020-03-26T13:16:52Z</time>
        <extensions><gpxtpx:TrackPointExtension><gpxtpx:hr>143</gpxtpx:hr></gpxtpx:TrackPointExtension></extensions>
      </trkpt>
      <trkpt lat="59.202347" lon="17.553575">
        <ele>46</ele>
        <time>2020-03-26T13:16:53Z</time>
        <extensions><gpxtpx:TrackPointExtension><gpxtpx:hr>144</gpxtpx:hr></gpxtpx:TrackPointExtension></extensions>
      </trkpt>
      <trkpt lat="59.202316" lon="17.553681">
        <ele>46</ele>
        <time>2020-03-26T13:16:54Z</time>
        <extensions><gpxtpx:TrackPointExtension><gpxtpx:hr>144</gpxtpx:hr></gpxtpx:TrackPointExtension></extensions>
      </trkpt>
      <trkpt lat="59.202287" lon="17.553784">
        <ele>46</ele>
        <time>2020-03-26T13:16:55Z</time>
        <extensions><gpxtpx:TrackPointExtension><gpxtpx:hr>145</gpxtpx:hr></gpxtpx:TrackPointExtension></extensions>
      </trkpt>
      <trkpt lat="59.202261" lon="17.55388">
        <ele>46</ele>
        <time>2020-03-26T13:16:56Z</time>
        <extensions><gpxtpx:TrackPointExtension><gpxtpx:hr>145</gpxtpx:hr></gpxtpx:TrackPointExtension></extensions>
      </trkpt>
      <trkpt lat="59.202235" lon="17.553977">
        <ele>46.2</ele>
        <time>2020-03-26T13:16:57Z</time>
        <extensions><gpxtpx:TrackPointExtension><gpxtpx:hr>146</gpxtpx:hr></gpxtpx:TrackPointExtension></extensions>
      </trkpt>
      <trkpt lat="59.202208" lon="17.554064">
        <ele>46.2</ele>
        <time>2020-03-26T13:16:58Z</time>
        <extensions><gpxtpx:TrackPointExtension><gpxtpx:hr>147</gpxtpx:hr></gpxtpx:TrackPointExtension></extensions>
      </trkpt>
      <trkpt lat="59.202184" lon="17.554143">
        <ele>46.6</ele>
        <time>2020-03-26T13:16:59Z</time>
        <extensions><gpxtpx:TrackPointExtension><gpxtpx:hr>147</gpxtpx:hr></gpxtpx:TrackPointExtension></extensions>
      </trkpt>
      <trkpt lat="59.20216" lon="17.554227">
        <ele>47</ele>
        <time>2020-03-26T13:17:00Z</time>
        <extensions><gpxtpx:TrackPointExtension><gpxtpx:hr>147</gpxtpx:hr></gpxtpx:TrackPointExtension></extensions>
      </trkpt>
      <trkpt lat="59.202135" lon="17.554314">
        <ele>47.8</ele>
        <time>2020-03-26T13:17:01Z</time>
        <extensions><gpxtpx:TrackPointExtension><gpxtpx:hr>148</gpxtpx:hr></gpxtpx:TrackPointExtension></extensions>
      </trkpt>
      <trkpt lat="59.202112" lon="17.5544">
        <ele>48.4</ele>
        <time>2020-03-26T13:17:02Z</time>
        <extensions><gpxtpx:TrackPointExtension><gpxtpx:hr>148</gpxtpx:hr></gpxtpx:TrackPointExtension></extensions>
      </trkpt>
      <trkpt lat="59.20209" lon="17.55449">
        <ele>49</ele>
        <time>2020-03-26T13:17:03Z</time>
        <extensions><gpxtpx:TrackPointExtension><gpxtpx:hr>148</gpxtpx:hr></gpxtpx:TrackPointExtension></extensions>
      </trkpt>
      <trkpt lat="59.202071" lon="17.554586">
        <ele>49.6</ele>
        <time>2020-03-26T13:17:04Z</time>
        <extensions><gpxtpx:TrackPointExtension><gpxtpx:hr>148</gpxtpx:hr></gpxtpx:TrackPointExtension></extensions>
      </trkpt>
      <trkpt lat="59.202055" lon="17.554683">
        <ele>50</ele>
        <time>2020-03-26T13:17:05Z</time>
        <extensions><gpxtpx:TrackPointExtension><gpxtpx:hr>148</gpxtpx:hr></gpxtpx:TrackPointExtension></extensions>
      </trkpt>
      <trkpt lat="59.202041" lon="17.554767">
        <ele>50.4</ele>
        <time>2020-03-26T13:17:06Z</time>
        <extensions><gpxtpx:TrackPointExtension><gpxtpx:hr>149</gpxtpx:hr></gpxtpx:TrackPointExtension></extensions>
      </trkpt>
      <trkpt lat="59.202026" lon="17.554862">
        <ele>50.8</ele>
        <time>2020-03-26T13:17:07Z</time>
        <extensions><gpxtpx:TrackPointExtension><gpxtpx:hr>149</gpxtpx:hr></gpxtpx:TrackPointExtension></extensions>
      </trkpt>
      <trkpt lat="59.202011" lon="17.554944">
        <ele>51.2</ele>
        <time>2020-03-26T13:17:08Z</time>
        <extensions><gpxtpx:TrackPointExtension><gpxtpx:hr>149</gpxtpx:hr></gpxtpx:TrackPointExtension></extensions>
      </trkpt>
      <trkpt lat="59.201994" lon="17.555041">
        <ele>51.6</ele>
        <time>2020-03-26T13:17:09Z</time>
        <extensions><gpxtpx:TrackPointExtension><gpxtpx:hr>149</gpxtpx:hr></gpxtpx:TrackPointExtension></extensions>
      </trkpt>
      <trkpt lat="59.201987" lon="17.555125">
        <ele>51.8</ele>
        <time>2020-03-26T13:17:10Z</time>
        <extensions><gpxtpx:TrackPointExtension><gpxtpx:hr>150</gpxtpx:hr></gpxtpx:TrackPointExtension></extensions>
      </trkpt>
      <trkpt lat="59.201979" lon="17.555228">
        <ele>52</ele>
        <time>2020-03-26T13:17:11Z</time>
        <extensions><gpxtpx:TrackPointExtension><gpxtpx:hr>150</gpxtpx:hr></gpxtpx:TrackPointExtension></extensions>
      </trkpt>
      <trkpt lat="59.201968" lon="17.555336">
        <ele>52.2</ele>
        <time>2020-03-26T13:17:12Z</time>
        <extensions><gpxtpx:TrackPointExtension><gpxtpx:hr>150</gpxtpx:hr></gpxtpx:TrackPointExtension></extensions>
      </trkpt>
      <trkpt lat="59.201958" lon="17.555447">
        <ele>52.4</ele>
        <time>2020-03-26T13:17:13Z</time>
        <extensions><gpxtpx:TrackPointExtension><gpxtpx:hr>151</gpxtpx:hr></gpxtpx:TrackPointExtension></extensions>
      </trkpt>
      <trkpt lat="59.201947" lon="17.555561">
        <ele>52.4</ele>
        <time>2020-03-26T13:17:14Z</time>
        <extensions><gpxtpx:TrackPointExtension><gpxtpx:hr>151</gpxtpx:hr></gpxtpx:TrackPointExtension></extensions>
      </trkpt>
      <trkpt lat="59.201936" lon="17.555676">
        <ele>52.6</ele>
        <time>2020-03-26T13:17:15Z</time>
        <extensions><gpxtpx:TrackPointExtension><gpxtpx:hr>151</gpxtpx:hr></gpxtpx:TrackPointExtension></extensions>
      </trkpt>
      <trkpt lat="59.201928" lon="17.555791">
        <ele>52.6</ele>
        <time>2020-03-26T13:17:16Z</time>
        <extensions><gpxtpx:TrackPointExtension><gpxtpx:hr>151</gpxtpx:hr></gpxtpx:TrackPointExtension></extensions>
      </trkpt>
      <trkpt lat="59.201924" lon="17.555912">
        <ele>52.6</ele>
        <time>2020-03-26T13:17:17Z</time>
        <extensions><gpxtpx:TrackPointExtension><gpxtpx:hr>152</gpxtpx:hr></gpxtpx:TrackPointExtension></extensions>
      </trkpt>
      <trkpt lat="59.201923" lon="17.55603">
        <ele>52.8</ele>
        <time>2020-03-26T13:17:18Z</time>
        <extensions><gpxtpx:TrackPointExtension><gpxtpx:hr>152</gpxtpx:hr></gpxtpx:TrackPointExtension></extensions>
      </trkpt>
      <trkpt lat="59.201921" lon="17.556152">
        <ele>52.8</ele>
        <time>2020-03-26T13:17:19Z</time>
        <extensions><gpxtpx:TrackPointExtension><gpxtpx:hr>152</gpxtpx:hr></gpxtpx:TrackPointExtension></extensions>
      </trkpt>
      <trkpt lat="59.201916" lon="17.556278">
        <ele>52.8</ele>
        <time>2020-03-26T13:17:20Z</time>
        <extensions><gpxtpx:TrackPointExtension><gpxtpx:hr>152</gpxtpx:hr></gpxtpx:TrackPointExtension></extensions>
      </trkpt>
      <trkpt lat="59.201908" lon="17.556409">
        <ele>52.8</ele>
        <time>2020-03-26T13:17:21Z</time>
        <extensions><gpxtpx:TrackPointExtension><gpxtpx:hr>153</gpxtpx:hr></gpxtpx:TrackPointExtension></extensions>
      </trkpt>
      <trkpt lat="59.201903" lon="17.556537">
        <ele>52.8</ele>
        <time>2020-03-26T13:17:22Z</time>
        <extensions><gpxtpx:TrackPointExtension><gpxtpx:hr>153</gpxtpx:hr></gpxtpx:TrackPointExtension></extensions>
      </trkpt>
      <trkpt lat="59.201901" lon="17.556661">
        <ele>53</ele>
        <time>2020-03-26T13:17:23Z</time>
        <extensions><gpxtpx:TrackPointExtension><gpxtpx:hr>153</gpxtpx:hr></gpxtpx:TrackPointExtension></extensions>
      </trkpt>
      <trkpt lat="59.201902" lon="17.556807">
        <ele>53.2</ele>
        <time>2020-03-26T13:17:24Z</time>
        <extensions><gpxtpx:TrackPointExtension><gpxtpx:hr>153</gpxtpx:hr></gpxtpx:TrackPointExtension></extensions>
      </trkpt>
      <trkpt lat="59.201909" lon="17.556934">
        <ele>53.4</ele>
        <time>2020-03-26T13:17:25Z</time>
        <extensions><gpxtpx:TrackPointExtension><gpxtpx:hr>153</gpxtpx:hr></gpxtpx:TrackPointExtension></extensions>
      </trkpt>
      <trkpt lat="59.201919" lon="17.557088">
        <ele>53.6</ele>
        <time>2020-03-26T13:17:26Z</time>
        <extensions><gpxtpx:TrackPointExtension><gpxtpx:hr>153</gpxtpx:hr></gpxtpx:TrackPointExtension></extensions>
      </trkpt>
      <trkpt lat="59.201931" lon="17.557239">
        <ele>53.8</ele>
        <time>2020-03-26T13:17:27Z</time>
        <extensions><gpxtpx:TrackPointExtension><gpxtpx:hr>153</gpxtpx:hr></gpxtpx:TrackPointExtension></extensions>
      </trkpt>
      <trkpt lat="59.201943" lon="17.557373">
        <ele>53.8</ele>
        <time>2020-03-26T13:17:28Z</time>
        <extensions><gpxtpx:TrackPointExtension><gpxtpx:hr>153</gpxtpx:hr></gpxtpx:TrackPointExtension></extensions>
      </trkpt>
      <trkpt lat="59.201952" lon="17.557507">
        <ele>53.8</ele>
        <time>2020-03-26T13:17:29Z</time>
        <extensions><gpxtpx:TrackPointExtension><gpxtpx:hr>153</gpxtpx:hr></gpxtpx:TrackPointExtension></extensions>
      </trkpt>
      <trkpt lat="59.20196" lon="17.557639">
        <ele>53.8</ele>
        <time>2020-03-26T13:17:30Z</time>
        <extensions><gpxtpx:TrackPointExtension><gpxtpx:hr>153</gpxtpx:hr></gpxtpx:TrackPointExtension></extensions>
      </trkpt>
      <trkpt lat="59.201965" lon="17.557769">
        <ele>53.8</ele>
        <time>2020-03-26T13:17:31Z</time>
        <extensions><gpxtpx:TrackPointExtension><gpxtpx:hr>153</gpxtpx:hr></gpxtpx:TrackPointExtension></extensions>
      </trkpt>
      <trkpt lat="59.201973" lon="17.557896">
        <ele>53.8</ele>
        <time>2020-03-26T13:17:32Z</time>
        <extensions><gpxtpx:TrackPointExtension><gpxtpx:hr>152</gpxtpx:hr></gpxtpx:TrackPointExtension></extensions>
      </trkpt>
      <trkpt lat="59.201982" lon="17.558024">
        <ele>53.8</ele>
        <time>2020-03-26T13:17:33Z</time>
        <extensions><gpxtpx:TrackPointExtension><gpxtpx:hr>152</gpxtpx:hr></gpxtpx:TrackPointExtension></extensions>
      </trkpt>
      <trkpt lat="59.201992" lon="17.558156">
        <ele>53.8</ele>
        <time>2020-03-26T13:17:34Z</time>
        <extensions><gpxtpx:TrackPointExtension><gpxtpx:hr>152</gpxtpx:hr></gpxtpx:TrackPointExtension></extensions>
      </trkpt>
      <trkpt lat="59.202004" lon="17.558295">
        <ele>53.8</ele>
        <time>2020-03-26T13:17:35Z</time>
        <extensions><gpxtpx:TrackPointExtension><gpxtpx:hr>151</gpxtpx:hr></gpxtpx:TrackPointExtension></extensions>
      </trkpt>
      <trkpt lat="59.202015" lon="17.558428">
        <ele>53.8</ele>
        <time>2020-03-26T13:17:36Z</time>
        <extensions><gpxtpx:TrackPointExtension><gpxtpx:hr>151</gpxtpx:hr></gpxtpx:TrackPointExtension></extensions>
      </trkpt>
      <trkpt lat="59.202026" lon="17.558573">
        <ele>53.8</ele>
        <time>2020-03-26T13:17:37Z</time>
        <extensions><gpxtpx:TrackPointExtension><gpxtpx:hr>150</gpxtpx:hr></gpxtpx:TrackPointExtension></extensions>
      </trkpt>
      <trkpt lat="59.202038" lon="17.558714">
        <ele>53.6</ele>
        <time>2020-03-26T13:17:38Z</time>
        <extensions><gpxtpx:TrackPointExtension><gpxtpx:hr>150</gpxtpx:hr></gpxtpx:TrackPointExtension></extensions>
      </trkpt>
      <trkpt lat="59.202052" lon="17.558854">
        <ele>53.6</ele>
        <time>2020-03-26T13:17:39Z</time>
        <extensions><gpxtpx:TrackPointExtension><gpxtpx:hr>150</gpxtpx:hr></gpxtpx:TrackPointExtension></extensions>
      </trkpt>
      <trkpt lat="59.202065" lon="17.55901">
        <ele>53.6</ele>
        <time>2020-03-26T13:17:40Z</time>
        <extensions><gpxtpx:TrackPointExtension><gpxtpx:hr>149</gpxtpx:hr></gpxtpx:TrackPointExtension></extensions>
      </trkpt>
      <trkpt lat="59.202078" lon="17.559157">
        <ele>53.4</ele>
        <time>2020-03-26T13:17:41Z</time>
        <extensions><gpxtpx:TrackPointExtension><gpxtpx:hr>148</gpxtpx:hr></gpxtpx:TrackPointExtension></extensions>
      </trkpt>
      <trkpt lat="59.202088" lon="17.559312">
        <ele>53.4</ele>
        <time>2020-03-26T13:17:42Z</time>
        <extensions><gpxtpx:TrackPointExtension><gpxtpx:hr>148</gpxtpx:hr></gpxtpx:TrackPointExtension></extensions>
      </trkpt>
      <trkpt lat="59.202098" lon="17.559469">
        <ele>53.2</ele>
        <time>2020-03-26T13:17:43Z</time>
        <extensions><gpxtpx:TrackPointExtension><gpxtpx:hr>147</gpxtpx:hr></gpxtpx:TrackPointExtension></extensions>
      </trkpt>
      <trkpt lat="59.202108" lon="17.559622">
        <ele>53.2</ele>
        <time>2020-03-26T13:17:44Z</time>
        <extensions><gpxtpx:TrackPointExtension><gpxtpx:hr>146</gpxtpx:hr></gpxtpx:TrackPointExtension></extensions>
      </trkpt>
      <trkpt lat="59.202118" lon="17.559788">
        <ele>52.8</ele>
        <time>2020-03-26T13:17:45Z</time>
        <extensions><gpxtpx:TrackPointExtension><gpxtpx:hr>145</gpxtpx:hr></gpxtpx:TrackPointExtension></extensions>
      </trkpt>
      <trkpt lat="59.202125" lon="17.559963">
        <ele>52.6</ele>
        <time>2020-03-26T13:17:46Z</time>
        <extensions><gpxtpx:TrackPointExtension><gpxtpx:hr>144</gpxtpx:hr></gpxtpx:TrackPointExtension></extensions>
      </trkpt>
      <trkpt lat="59.202132" lon="17.560133">
        <ele>52.6</ele>
        <time>2020-03-26T13:17:47Z</time>
        <extensions><gpxtpx:TrackPointExtension><gpxtpx:hr>143</gpxtpx:hr></gpxtpx:TrackPointExtension></extensions>
      </trkpt>
      <trkpt lat="59.202139" lon="17.560297">
        <ele>52.4</ele>
        <time>2020-03-26T13:17:48Z</time>
        <extensions><gpxtpx:TrackPointExtension><gpxtpx:hr>143</gpxtpx:hr></gpxtpx:TrackPointExtension></extensions>
      </trkpt>
      <trkpt lat="59.202151" lon="17.560458">
        <ele>52.2</ele>
        <time>2020-03-26T13:17:49Z</time>
        <extensions><gpxtpx:TrackPointExtension><gpxtpx:hr>142</gpxtpx:hr></gpxtpx:TrackPointExtension></extensions>
      </trkpt>
      <trkpt lat="59.202162" lon="17.560623">
        <ele>52.2</ele>
        <time>2020-03-26T13:17:50Z</time>
        <extensions><gpxtpx:TrackPointExtension><gpxtpx:hr>141</gpxtpx:hr></gpxtpx:TrackPointExtension></extensions>
      </trkpt>
      <trkpt lat="59.202171" lon="17.560785">
        <ele>52</ele>
        <time>2020-03-26T13:17:51Z</time>
        <extensions><gpxtpx:TrackPointExtension><gpxtpx:hr>140</gpxtpx:hr></gpxtpx:TrackPointExtension></extensions>
      </trkpt>
      <trkpt lat="59.202178" lon="17.560946">
        <ele>51.8</ele>
        <time>2020-03-26T13:17:52Z</time>
        <extensions><gpxtpx:TrackPointExtension><gpxtpx:hr>140</gpxtpx:hr></gpxtpx:TrackPointExtension></extensions>
      </trkpt>
      <trkpt lat="59.202191" lon="17.56112">
        <ele>51.6</ele>
        <time>2020-03-26T13:17:53Z</time>
        <extensions><gpxtpx:TrackPointExtension><gpxtpx:hr>139</gpxtpx:hr></gpxtpx:TrackPointExtension></extensions>
      </trkpt>
      <trkpt lat="59.202203" lon="17.56129">
        <ele>51.4</ele>
        <time>2020-03-26T13:17:54Z</time>
        <extensions><gpxtpx:TrackPointExtension><gpxtpx:hr>139</gpxtpx:hr></gpxtpx:TrackPointExtension></extensions>
      </trkpt>
      <trkpt lat="59.202212" lon="17.561467">
        <ele>51.4</ele>
        <time>2020-03-26T13:17:55Z</time>
        <extensions><gpxtpx:TrackPointExtension><gpxtpx:hr>138</gpxtpx:hr></gpxtpx:TrackPointExtension></extensions>
      </trkpt>
      <trkpt lat="59.202225" lon="17.561654">
        <ele>51.2</ele>
        <time>2020-03-26T13:17:56Z</time>
        <extensions><gpxtpx:TrackPointExtension><gpxtpx:hr>137</gpxtpx:hr></gpxtpx:TrackPointExtension></extensions>
      </trkpt>
      <trkpt lat="59.20224" lon="17.561834">
        <ele>50.8</ele>
        <time>2020-03-26T13:17:57Z</time>
        <extensions><gpxtpx:TrackPointExtension><gpxtpx:hr>136</gpxtpx:hr></gpxtpx:TrackPointExtension></extensions>
      </trkpt>
      <trkpt lat="59.202256" lon="17.562009">
        <ele>50.8</ele>
        <time>2020-03-26T13:17:58Z</time>
        <extensions><gpxtpx:TrackPointExtension><gpxtpx:hr>135</gpxtpx:hr></gpxtpx:TrackPointExtension></extensions>
      </trkpt>
      <trkpt lat="59.202272" lon="17.562191">
        <ele>50.4</ele>
        <time>2020-03-26T13:17:59Z</time>
        <extensions><gpxtpx:TrackPointExtension><gpxtpx:hr>133</gpxtpx:hr></gpxtpx:TrackPointExtension></extensions>
      </trkpt>
      <trkpt lat="59.202286" lon="17.562376">
        <ele>50.2</ele>
        <time>2020-03-26T13:18:00Z</time>
        <extensions><gpxtpx:TrackPointExtension><gpxtpx:hr>131</gpxtpx:hr></gpxtpx:TrackPointExtension></extensions>
      </trkpt>
      <trkpt lat="59.202295" lon="17.562562">
        <ele>50</ele>
        <time>2020-03-26T13:18:01Z</time>
        <extensions><gpxtpx:TrackPointExtension><gpxtpx:hr>130</gpxtpx:hr></gpxtpx:TrackPointExtension></extensions>
      </trkpt>
      <trkpt lat="59.202304" lon="17.562745">
        <ele>49.6</ele>
        <time>2020-03-26T13:18:02Z</time>
        <extensions><gpxtpx:TrackPointExtension><gpxtpx:hr>128</gpxtpx:hr></gpxtpx:TrackPointExtension></extensions>
      </trkpt>
      <trkpt lat="59.202311" lon="17.562927">
        <ele>49.4</ele>
        <time>2020-03-26T13:18:03Z</time>
        <extensions><gpxtpx:TrackPointExtension><gpxtpx:hr>126</gpxtpx:hr></gpxtpx:TrackPointExtension></extensions>
      </trkpt>
      <trkpt lat="59.202318" lon="17.563108">
        <ele>49</ele>
        <time>2020-03-26T13:18:04Z</time>
        <extensions><gpxtpx:TrackPointExtension><gpxtpx:hr>125</gpxtpx:hr></gpxtpx:TrackPointExtension></extensions>
      </trkpt>
      <trkpt lat="59.202326" lon="17.563287">
        <ele>48.6</ele>
        <time>2020-03-26T13:18:05Z</time>
        <extensions><gpxtpx:TrackPointExtension><gpxtpx:hr>123</gpxtpx:hr></gpxtpx:TrackPointExtension></extensions>
      </trkpt>
      <trkpt lat="59.202337" lon="17.563461">
        <ele>48.2</ele>
        <time>2020-03-26T13:18:06Z</time>
        <extensions><gpxtpx:TrackPointExtension><gpxtpx:hr>122</gpxtpx:hr></gpxtpx:TrackPointExtension></extensions>
      </trkpt>
      <trkpt lat="59.202346" lon="17.563636">
        <ele>47.6</ele>
        <time>2020-03-26T13:18:07Z</time>
        <extensions><gpxtpx:TrackPointExtension><gpxtpx:hr>120</gpxtpx:hr></gpxtpx:TrackPointExtension></extensions>
      </trkpt>
      <trkpt lat="59.202351" lon="17.563809">
        <ele>47</ele>
        <time>2020-03-26T13:18:08Z</time>
        <extensions><gpxtpx:TrackPointExtension><gpxtpx:hr>119</gpxtpx:hr></gpxtpx:TrackPointExtension></extensions>
      </trkpt>
      <trkpt lat="59.202353" lon="17.563984">
        <ele>46</ele>
        <time>2020-03-26T13:18:09Z</time>
        <extensions><gpxtpx:TrackPointExtension><gpxtpx:hr>117</gpxtpx:hr></gpxtpx:TrackPointExtension></extensions>
      </trkpt>
      <trkpt lat="59.202352" lon="17.564159">
        <ele>45.6</ele>
        <time>2020-03-26T13:18:10Z</time>
        <extensions><gpxtpx:TrackPointExtension><gpxtpx:hr>115</gpxtpx:hr></gpxtpx:TrackPointExtension></extensions>
      </trkpt>
      <trkpt lat="59.202348" lon="17.564333">
        <ele>45.4</ele>
        <time>2020-03-26T13:18:11Z</time>
        <extensions><gpxtpx:TrackPointExtension><gpxtpx:hr>114</gpxtpx:hr></gpxtpx:TrackPointExtension></extensions>
      </trkpt>
      <trkpt lat="59.202341" lon="17.564504">
        <ele>45.2</ele>
        <time>2020-03-26T13:18:12Z</time>
        <extensions><gpxtpx:TrackPointExtension><gpxtpx:hr>115</gpxtpx:hr></gpxtpx:TrackPointExtension></extensions>
      </trkpt>
      <trkpt lat="59.202332" lon="17.564672">
        <ele>45</ele>
        <time>2020-03-26T13:18:13Z</time>
        <extensions><gpxtpx:TrackPointExtension><gpxtpx:hr>117</gpxtpx:hr></gpxtpx:TrackPointExtension></extensions>
      </trkpt>
      <trkpt lat="59.202323" lon="17.564844">
        <ele>44.8</ele>
        <time>2020-03-26T13:18:14Z</time>
        <extensions><gpxtpx:TrackPointExtension><gpxtpx:hr>119</gpxtpx:hr></gpxtpx:TrackPointExtension></extensions>
      </trkpt>
      <trkpt lat="59.202313" lon="17.565012">
        <ele>44.8</ele>
        <time>2020-03-26T13:18:15Z</time>
        <extensions><gpxtpx:TrackPointExtension><gpxtpx:hr>121</gpxtpx:hr></gpxtpx:TrackPointExtension></extensions>
      </trkpt>
      <trkpt lat="59.202303" lon="17.56518">
        <ele>44.6</ele>
        <time>2020-03-26T13:18:16Z</time>
        <extensions><gpxtpx:TrackPointExtension><gpxtpx:hr>123</gpxtpx:hr></gpxtpx:TrackPointExtension></extensions>
      </trkpt>
      <trkpt lat="59.20229" lon="17.565346">
        <ele>44.4</ele>
        <time>2020-03-26T13:18:17Z</time>
        <extensions><gpxtpx:TrackPointExtension><gpxtpx:hr>123</gpxtpx:hr></gpxtpx:TrackPointExtension></extensions>
      </trkpt>
      <trkpt lat="59.202274" lon="17.565511">
        <ele>44.4</ele>
        <time>2020-03-26T13:18:18Z</time>
        <extensions><gpxtpx:TrackPointExtension><gpxtpx:hr>123</gpxtpx:hr></gpxtpx:TrackPointExtension></extensions>
      </trkpt>
      <trkpt lat="59.202256" lon="17.565673">
        <ele>44.4</ele>
        <time>2020-03-26T13:18:19Z</time>
        <extensions><gpxtpx:TrackPointExtension><gpxtpx:hr>123</gpxtpx:hr></gpxtpx:TrackPointExtension></extensions>
      </trkpt>
      <trkpt lat="59.202237" lon="17.565833">
        <ele>44.2</ele>
        <time>2020-03-26T13:18:20Z</time>
        <extensions><gpxtpx:TrackPointExtension><gpxtpx:hr>122</gpxtpx:hr></gpxtpx:TrackPointExtension></extensions>
      </trkpt>
      <trkpt lat="59.202218" lon="17.565992">
        <ele>44.2</ele>
        <time>2020-03-26T13:18:21Z</time>
        <extensions><gpxtpx:TrackPointExtension><gpxtpx:hr>123</gpxtpx:hr></gpxtpx:TrackPointExtension></extensions>
      </trkpt>
      <trkpt lat="59.202198" lon="17.566148">
        <ele>44.2</ele>
        <time>2020-03-26T13:18:22Z</time>
        <extensions><gpxtpx:TrackPointExtension><gpxtpx:hr>124</gpxtpx:hr></gpxtpx:TrackPointExtension></extensions>
      </trkpt>
      <trkpt lat="59.202177" lon="17.566299">
        <ele>44</ele>
        <time>2020-03-26T13:18:23Z</time>
        <extensions><gpxtpx:TrackPointExtension><gpxtpx:hr>126</gpxtpx:hr></gpxtpx:TrackPointExtension></extensions>
      </trkpt>
      <trkpt lat="59.202152" lon="17.566446">
        <ele>44</ele>
        <time>2020-03-26T13:18:24Z</time>
        <extensions><gpxtpx:TrackPointExtension><gpxtpx:hr>127</gpxtpx:hr></gpxtpx:TrackPointExtension></extensions>
      </trkpt>
      <trkpt lat="59.202127" lon="17.566588">
        <ele>44</ele>
        <time>2020-03-26T13:18:25Z</time>
        <extensions><gpxtpx:TrackPointExtension><gpxtpx:hr>129</gpxtpx:hr></gpxtpx:TrackPointExtension></extensions>
      </trkpt>
      <trkpt lat="59.202102" lon="17.566725">
        <ele>44</ele>
        <time>2020-03-26T13:18:26Z</time>
        <extensions><gpxtpx:TrackPointExtension><gpxtpx:hr>130</gpxtpx:hr></gpxtpx:TrackPointExtension></extensions>
      </trkpt>
      <trkpt lat="59.202075" lon="17.566859">
        <ele>44</ele>
        <time>2020-03-26T13:18:27Z</time>
        <extensions><gpxtpx:TrackPointExtension><gpxtpx:hr>131</gpxtpx:hr></gpxtpx:TrackPointExtension></extensions>
      </trkpt>
      <trkpt lat="59.202049" lon="17.566995">
        <ele>44</ele>
        <time>2020-03-26T13:18:28Z</time>
        <extensions><gpxtpx:TrackPointExtension><gpxtpx:hr>132</gpxtpx:hr></gpxtpx:TrackPointExtension></extensions>
      </trkpt>
      <trkpt lat="59.202021" lon="17.567131">
        <ele>44</ele>
        <time>2020-03-26T13:18:29Z</time>
        <extensions><gpxtpx:TrackPointExtension><gpxtpx:hr>134</gpxtpx:hr></gpxtpx:TrackPointExtension></extensions>
      </trkpt>
      <trkpt lat="59.201993" lon="17.567268">
        <ele>44</ele>
        <time>2020-03-26T13:18:30Z</time>
        <extensions><gpxtpx:TrackPointExtension><gpxtpx:hr>134</gpxtpx:hr></gpxtpx:TrackPointExtension></extensions>
      </trkpt>
      <trkpt lat="59.201964" lon="17.567408">
        <ele>44.2</ele>
        <time>2020-03-26T13:18:31Z</time>
        <extensions><gpxtpx:TrackPointExtension><gpxtpx:hr>135</gpxtpx:hr></gpxtpx:TrackPointExtension></extensions>
      </trkpt>
      <trkpt lat="59.201935" lon="17.567548">
        <ele>44.4</ele>
        <time>2020-03-26T13:18:32Z</time>
        <extensions><gpxtpx:TrackPointExtension><gpxtpx:hr>137</gpxtpx:hr></gpxtpx:TrackPointExtension></extensions>
      </trkpt>
      <trkpt lat="59.201904" lon="17.567683">
        <ele>44.6</ele>
        <time>2020-03-26T13:18:33Z</time>
        <extensions><gpxtpx:TrackPointExtension><gpxtpx:hr>138</gpxtpx:hr></gpxtpx:TrackPointExtension></extensions>
      </trkpt>
      <trkpt lat="59.201872" lon="17.567815">
        <ele>44.6</ele>
        <time>2020-03-26T13:18:34Z</time>
        <extensions><gpxtpx:TrackPointExtension><gpxtpx:hr>140</gpxtpx:hr></gpxtpx:TrackPointExtension></extensions>
      </trkpt>
      <trkpt lat="59.201835" lon="17.567942">
        <ele>44.8</ele>
        <time>2020-03-26T13:18:35Z</time>
        <extensions><gpxtpx:TrackPointExtension><gpxtpx:hr>141</gpxtpx:hr></gpxtpx:TrackPointExtension></extensions>
      </trkpt>
      <trkpt lat="59.201797" lon="17.568065">
        <ele>45.2</ele>
        <time>2020-03-26T13:18:36Z</time>
        <extensions><gpxtpx:TrackPointExtension><gpxtpx:hr>142</gpxtpx:hr></gpxtpx:TrackPointExtension></extensions>
      </trkpt>
      <trkpt lat="59.201757" lon="17.568185">
        <ele>45.4</ele>
        <time>2020-03-26T13:18:37Z</time>
        <extensions><gpxtpx:TrackPointExtension><gpxtpx:hr>144</gpxtpx:hr></gpxtpx:TrackPointExtension></extensions>
      </trkpt>
      <trkpt lat="59.201716" lon="17.568303">
        <ele>45.6</ele>
        <time>2020-03-26T13:18:38Z</time>
        <extensions><gpxtpx:TrackPointExtension><gpxtpx:hr>145</gpxtpx:hr></gpxtpx:TrackPointExtension></extensions>
      </trkpt>
      <trkpt lat="59.201677" lon="17.568424">
        <ele>46</ele>
        <time>2020-03-26T13:18:39Z</time>
        <extensions><gpxtpx:TrackPointExtension><gpxtpx:hr>146</gpxtpx:hr></gpxtpx:TrackPointExtension></extensions>
      </trkpt>
      <trkpt lat="59.201638" lon="17.568542">
        <ele>46</ele>
        <time>2020-03-26T13:18:40Z</time>
        <extensions><gpxtpx:TrackPointExtension><gpxtpx:hr>146</gpxtpx:hr></gpxtpx:TrackPointExtension></extensions>
      </trkpt>
      <trkpt lat="59.201598" lon="17.56866">
        <ele>46</ele>
        <time>2020-03-26T13:18:41Z</time>
        <extensions><gpxtpx:TrackPointExtension><gpxtpx:hr>147</gpxtpx:hr></gpxtpx:TrackPointExtension></extensions>
      </trkpt>
      <trkpt lat="59.201557" lon="17.568776">
        <ele>46</ele>
        <time>2020-03-26T13:18:42Z</time>
        <extensions><gpxtpx:TrackPointExtension><gpxtpx:hr>147</gpxtpx:hr></gpxtpx:TrackPointExtension></extensions>
      </trkpt>
      <trkpt lat="59.201516" lon="17.56889">
        <ele>46</ele>
        <time>2020-03-26T13:18:43Z</time>
        <extensions><gpxtpx:TrackPointExtension><gpxtpx:hr>148</gpxtpx:hr></gpxtpx:TrackPointExtension></extensions>
      </trkpt>
      <trkpt lat="59.201475" lon="17.569002">
        <ele>46</ele>
        <time>2020-03-26T13:18:44Z</time>
        <extensions><gpxtpx:TrackPointExtension><gpxtpx:hr>148</gpxtpx:hr></gpxtpx:TrackPointExtension></extensions>
      </trkpt>
      <trkpt lat="59.201435" lon="17.569112">
        <ele>46</ele>
        <time>2020-03-26T13:18:45Z</time>
        <extensions><gpxtpx:TrackPointExtension><gpxtpx:hr>148</gpxtpx:hr></gpxtpx:TrackPointExtension></extensions>
      </trkpt>
      <trkpt lat="59.201396" lon="17.569221">
        <ele>46</ele>
        <time>2020-03-26T13:18:46Z</time>
        <extensions><gpxtpx:TrackPointExtension><gpxtpx:hr>148</gpxtpx:hr></gpxtpx:TrackPointExtension></extensions>
      </trkpt>
      <trkpt lat="59.201356" lon="17.569329">
        <ele>46.2</ele>
        <time>2020-03-26T13:18:47Z</time>
        <extensions><gpxtpx:TrackPointExtension><gpxtpx:hr>148</gpxtpx:hr></gpxtpx:TrackPointExtension></extensions>
      </trkpt>
      <trkpt lat="59.201316" lon="17.569439">
        <ele>46.2</ele>
        <time>2020-03-26T13:18:48Z</time>
        <extensions><gpxtpx:TrackPointExtension><gpxtpx:hr>148</gpxtpx:hr></gpxtpx:TrackPointExtension></extensions>
      </trkpt>
      <trkpt lat="59.201276" lon="17.56955">
        <ele>46.2</ele>
        <time>2020-03-26T13:18:49Z</time>
        <extensions><gpxtpx:TrackPointExtension><gpxtpx:hr>148</gpxtpx:hr></gpxtpx:TrackPointExtension></extensions>
      </trkpt>
      <trkpt lat="59.201237" lon="17.569664">
        <ele>46.2</ele>
        <time>2020-03-26T13:18:50Z</time>
        <extensions><gpxtpx:TrackPointExtension><gpxtpx:hr>148</gpxtpx:hr></gpxtpx:TrackPointExtension></extensions>
      </trkpt>
      <trkpt lat="59.201198" lon="17.569779">
        <ele>46.2</ele>
        <time>2020-03-26T13:18:51Z</time>
        <extensions><gpxtpx:TrackPointExtension><gpxtpx:hr>148</gpxtpx:hr></gpxtpx:TrackPointExtension></extensions>
      </trkpt>
      <trkpt lat="59.20116" lon="17.569901">
        <ele>46.2</ele>
        <time>2020-03-26T13:18:52Z</time>
        <extensions><gpxtpx:TrackPointExtension><gpxtpx:hr>148</gpxtpx:hr></gpxtpx:TrackPointExtension></extensions>
      </trkpt>
      <trkpt lat="59.201121" lon="17.570021">
        <ele>46.2</ele>
        <time>2020-03-26T13:18:53Z</time>
        <extensions><gpxtpx:TrackPointExtension><gpxtpx:hr>148</gpxtpx:hr></gpxtpx:TrackPointExtension></extensions>
      </trkpt>
      <trkpt lat="59.201081" lon="17.570139">
        <ele>46.2</ele>
        <time>2020-03-26T13:18:54Z</time>
        <extensions><gpxtpx:TrackPointExtension><gpxtpx:hr>148</gpxtpx:hr></gpxtpx:TrackPointExtension></extensions>
      </trkpt>
      <trkpt lat="59.201045" lon="17.570248">
        <ele>46.2</ele>
        <time>2020-03-26T13:18:55Z</time>
        <extensions><gpxtpx:TrackPointExtension><gpxtpx:hr>148</gpxtpx:hr></gpxtpx:TrackPointExtension></extensions>
      </trkpt>
      <trkpt lat="59.201006" lon="17.570367">
        <ele>46.2</ele>
        <time>2020-03-26T13:18:56Z</time>
        <extensions><gpxtpx:TrackPointExtension><gpxtpx:hr>148</gpxtpx:hr></gpxtpx:TrackPointExtension></extensions>
      </trkpt>
      <trkpt lat="59.200968" lon="17.570485">
        <ele>46.4</ele>
        <time>2020-03-26T13:18:57Z</time>
        <extensions><gpxtpx:TrackPointExtension><gpxtpx:hr>148</gpxtpx:hr></gpxtpx:TrackPointExtension></extensions>
      </trkpt>
      <trkpt lat="59.200928" lon="17.57061">
        <ele>46.4</ele>
        <time>2020-03-26T13:18:58Z</time>
        <extensions><gpxtpx:TrackPointExtension><gpxtpx:hr>148</gpxtpx:hr></gpxtpx:TrackPointExtension></extensions>
      </trkpt>
      <trkpt lat="59.200888" lon="17.57073">
        <ele>46.4</ele>
        <time>2020-03-26T13:18:59Z</time>
        <extensions><gpxtpx:TrackPointExtension><gpxtpx:hr>148</gpxtpx:hr></gpxtpx:TrackPointExtension></extensions>
      </trkpt>
      <trkpt lat="59.200849" lon="17.570855">
        <ele>46.4</ele>
        <time>2020-03-26T13:19:00Z</time>
        <extensions><gpxtpx:TrackPointExtension><gpxtpx:hr>148</gpxtpx:hr></gpxtpx:TrackPointExtension></extensions>
      </trkpt>
      <trkpt lat="59.20081" lon="17.570977">
        <ele>46.4</ele>
        <time>2020-03-26T13:19:01Z</time>
        <extensions><gpxtpx:TrackPointExtension><gpxtpx:hr>148</gpxtpx:hr></gpxtpx:TrackPointExtension></extensions>
      </trkpt>
      <trkpt lat="59.20077" lon="17.571096">
        <ele>46.4</ele>
        <time>2020-03-26T13:19:02Z</time>
        <extensions><gpxtpx:TrackPointExtension><gpxtpx:hr>149</gpxtpx:hr></gpxtpx:TrackPointExtension></extensions>
      </trkpt>
      <trkpt lat="59.200728" lon="17.571213">
        <ele>46.4</ele>
        <time>2020-03-26T13:19:03Z</time>
        <extensions><gpxtpx:TrackPointExtension><gpxtpx:hr>149</gpxtpx:hr></gpxtpx:TrackPointExtension></extensions>
      </trkpt>
      <trkpt lat="59.200686" lon="17.57133">
        <ele>46.4</ele>
        <time>2020-03-26T13:19:04Z</time>
        <extensions><gpxtpx:TrackPointExtension><gpxtpx:hr>149</gpxtpx:hr></gpxtpx:TrackPointExtension></extensions>
      </trkpt>
      <trkpt lat="59.200646" lon="17.571446">
        <ele>46.4</ele>
        <time>2020-03-26T13:19:05Z</time>
        <extensions><gpxtpx:TrackPointExtension><gpxtpx:hr>149</gpxtpx:hr></gpxtpx:TrackPointExtension></extensions>
      </trkpt>
      <trkpt lat="59.200604" lon="17.571567">
        <ele>46.4</ele>
        <time>2020-03-26T13:19:06Z</time>
        <extensions><gpxtpx:TrackPointExtension><gpxtpx:hr>149</gpxtpx:hr></gpxtpx:TrackPointExtension></extensions>
      </trkpt>
      <trkpt lat="59.200564" lon="17.571685">
        <ele>46.4</ele>
        <time>2020-03-26T13:19:07Z</time>
        <extensions><gpxtpx:TrackPointExtension><gpxtpx:hr>149</gpxtpx:hr></gpxtpx:TrackPointExtension></extensions>
      </trkpt>
      <trkpt lat="59.200522" lon="17.571804">
        <ele>46.6</ele>
        <time>2020-03-26T13:19:08Z</time>
        <extensions><gpxtpx:TrackPointExtension><gpxtpx:hr>149</gpxtpx:hr></gpxtpx:TrackPointExtension></extensions>
      </trkpt>
      <trkpt lat="59.200482" lon="17.571918">
        <ele>46.6</ele>
        <time>2020-03-26T13:19:09Z</time>
        <extensions><gpxtpx:TrackPointExtension><gpxtpx:hr>149</gpxtpx:hr></gpxtpx:TrackPointExtension></extensions>
      </trkpt>
      <trkpt lat="59.200443" lon="17.57203">
        <ele>46.6</ele>
        <time>2020-03-26T13:19:10Z</time>
        <extensions><gpxtpx:TrackPointExtension><gpxtpx:hr>149</gpxtpx:hr></gpxtpx:TrackPointExtension></extensions>
      </trkpt>
      <trkpt lat="59.200407" lon="17.572132">
        <ele>46.6</ele>
        <time>2020-03-26T13:19:11Z</time>
        <extensions><gpxtpx:TrackPointExtension><gpxtpx:hr>149</gpxtpx:hr></gpxtpx:TrackPointExtension></extensions>
      </trkpt>
      <trkpt lat="59.200373" lon="17.572244">
        <ele>46.6</ele>
        <time>2020-03-26T13:19:12Z</time>
        <extensions><gpxtpx:TrackPointExtension><gpxtpx:hr>149</gpxtpx:hr></gpxtpx:TrackPointExtension></extensions>
      </trkpt>
      <trkpt lat="59.200341" lon="17.572346">
        <ele>46.6</ele>
        <time>2020-03-26T13:19:13Z</time>
        <extensions><gpxtpx:TrackPointExtension><gpxtpx:hr>149</gpxtpx:hr></gpxtpx:TrackPointExtension></extensions>
      </trkpt>
      <trkpt lat="59.200309" lon="17.572458">
        <ele>46.6</ele>
        <time>2020-03-26T13:19:14Z</time>
        <extensions><gpxtpx:TrackPointExtension><gpxtpx:hr>149</gpxtpx:hr></gpxtpx:TrackPointExtension></extensions>
      </trkpt>
      <trkpt lat="59.200275" lon="17.572572">
        <ele>46.6</ele>
        <time>2020-03-26T13:19:15Z</time>
        <extensions><gpxtpx:TrackPointExtension><gpxtpx:hr>149</gpxtpx:hr></gpxtpx:TrackPointExtension></extensions>
      </trkpt>
      <trkpt lat="59.200242" lon="17.572689">
        <ele>46.6</ele>
        <time>2020-03-26T13:19:16Z</time>
        <extensions><gpxtpx:TrackPointExtension><gpxtpx:hr>149</gpxtpx:hr></gpxtpx:TrackPointExtension></extensions>
      </trkpt>
      <trkpt lat="59.200211" lon="17.572804">
        <ele>46.6</ele>
        <time>2020-03-26T13:19:17Z</time>
        <extensions><gpxtpx:TrackPointExtension><gpxtpx:hr>149</gpxtpx:hr></gpxtpx:TrackPointExtension></extensions>
      </trkpt>
      <trkpt lat="59.20018" lon="17.572925">
        <ele>46.6</ele>
        <time>2020-03-26T13:19:18Z</time>
        <extensions><gpxtpx:TrackPointExtension><gpxtpx:hr>149</gpxtpx:hr></gpxtpx:TrackPointExtension></extensions>
      </trkpt>
      <trkpt lat="59.20015" lon="17.573045">
        <ele>46.8</ele>
        <time>2020-03-26T13:19:19Z</time>
        <extensions><gpxtpx:TrackPointExtension><gpxtpx:hr>149</gpxtpx:hr></gpxtpx:TrackPointExtension></extensions>
      </trkpt>
      <trkpt lat="59.200121" lon="17.573161">
        <ele>47</ele>
        <time>2020-03-26T13:19:20Z</time>
        <extensions><gpxtpx:TrackPointExtension><gpxtpx:hr>149</gpxtpx:hr></gpxtpx:TrackPointExtension></extensions>
      </trkpt>
      <trkpt lat="59.200092" lon="17.573284">
        <ele>47.4</ele>
        <time>2020-03-26T13:19:21Z</time>
        <extensions><gpxtpx:TrackPointExtension><gpxtpx:hr>149</gpxtpx:hr></gpxtpx:TrackPointExtension></extensions>
      </trkpt>
      <trkpt lat="59.200065" lon="17.573408">
        <ele>47.6</ele>
        <time>2020-03-26T13:19:22Z</time>
        <extensions><gpxtpx:TrackPointExtension><gpxtpx:hr>149</gpxtpx:hr></gpxtpx:TrackPointExtension></extensions>
      </trkpt>
      <trkpt lat="59.200036" lon="17.573526">
        <ele>47.8</ele>
        <time>2020-03-26T13:19:23Z</time>
        <extensions><gpxtpx:TrackPointExtension><gpxtpx:hr>149</gpxtpx:hr></gpxtpx:TrackPointExtension></extensions>
      </trkpt>
      <trkpt lat="59.200008" lon="17.57364">
        <ele>48.2</ele>
        <time>2020-03-26T13:19:24Z</time>
        <extensions><gpxtpx:TrackPointExtension><gpxtpx:hr>149</gpxtpx:hr></gpxtpx:TrackPointExtension></extensions>
      </trkpt>
      <trkpt lat="59.199982" lon="17.573753">
        <ele>48.4</ele>
        <time>2020-03-26T13:19:25Z</time>
        <extensions><gpxtpx:TrackPointExtension><gpxtpx:hr>149</gpxtpx:hr></gpxtpx:TrackPointExtension></extensions>
      </trkpt>
      <trkpt lat="59.19996" lon="17.573862">
        <ele>48.6</ele>
        <time>2020-03-26T13:19:26Z</time>
        <extensions><gpxtpx:TrackPointExtension><gpxtpx:hr>150</gpxtpx:hr></gpxtpx:TrackPointExtension></extensions>
      </trkpt>
      <trkpt lat="59.199935" lon="17.573971">
        <ele>48.6</ele>
        <time>2020-03-26T13:19:27Z</time>
        <extensions><gpxtpx:TrackPointExtension><gpxtpx:hr>150</gpxtpx:hr></gpxtpx:TrackPointExtension></extensions>
      </trkpt>
      <trkpt lat="59.19991" lon="17.574072">
        <ele>48.8</ele>
        <time>2020-03-26T13:19:28Z</time>
        <extensions><gpxtpx:TrackPointExtension><gpxtpx:hr>149</gpxtpx:hr></gpxtpx:TrackPointExtension></extensions>
      </trkpt>
      <trkpt lat="59.199884" lon="17.574167">
        <ele>49</ele>
        <time>2020-03-26T13:19:29Z</time>
        <extensions><gpxtpx:TrackPointExtension><gpxtpx:hr>149</gpxtpx:hr></gpxtpx:TrackPointExtension></extensions>
      </trkpt>
      <trkpt lat="59.199861" lon="17.574264">
        <ele>49.2</ele>
        <time>2020-03-26T13:19:30Z</time>
        <extensions><gpxtpx:TrackPointExtension><gpxtpx:hr>149</gpxtpx:hr></gpxtpx:TrackPointExtension></extensions>
      </trkpt>
      <trkpt lat="59.199838" lon="17.574361">
        <ele>49.2</ele>
        <time>2020-03-26T13:19:31Z</time>
        <extensions><gpxtpx:TrackPointExtension><gpxtpx:hr>149</gpxtpx:hr></gpxtpx:TrackPointExtension></extensions>
      </trkpt>
      <trkpt lat="59.199817" lon="17.574457">
        <ele>49.4</ele>
        <time>2020-03-26T13:19:32Z</time>
        <extensions><gpxtpx:TrackPointExtension><gpxtpx:hr>150</gpxtpx:hr></gpxtpx:TrackPointExtension></extensions>
      </trkpt>
      <trkpt lat="59.199796" lon="17.574556">
        <ele>49.6</ele>
        <time>2020-03-26T13:19:33Z</time>
        <extensions><gpxtpx:TrackPointExtension><gpxtpx:hr>150</gpxtpx:hr></gpxtpx:TrackPointExtension></extensions>
      </trkpt>
      <trkpt lat="59.199774" lon="17.574657">
        <ele>49.8</ele>
        <time>2020-03-26T13:19:34Z</time>
        <extensions><gpxtpx:TrackPointExtension><gpxtpx:hr>150</gpxtpx:hr></gpxtpx:TrackPointExtension></extensions>
      </trkpt>
      <trkpt lat="59.199752" lon="17.574752">
        <ele>50</ele>
        <time>2020-03-26T13:19:35Z</time>
        <extensions><gpxtpx:TrackPointExtension><gpxtpx:hr>150</gpxtpx:hr></gpxtpx:TrackPointExtension></extensions>
      </trkpt>
      <trkpt lat="59.199728" lon="17.574846">
        <ele>50.2</ele>
        <time>2020-03-26T13:19:36Z</time>
        <extensions><gpxtpx:TrackPointExtension><gpxtpx:hr>150</gpxtpx:hr></gpxtpx:TrackPointExtension></extensions>
      </trkpt>
      <trkpt lat="59.199705" lon="17.574936">
        <ele>50.4</ele>
        <time>2020-03-26T13:19:37Z</time>
        <extensions><gpxtpx:TrackPointExtension><gpxtpx:hr>150</gpxtpx:hr></gpxtpx:TrackPointExtension></extensions>
      </trkpt>
      <trkpt lat="59.199681" lon="17.575028">
        <ele>50.8</ele>
        <time>2020-03-26T13:19:38Z</time>
        <extensions><gpxtpx:TrackPointExtension><gpxtpx:hr>150</gpxtpx:hr></gpxtpx:TrackPointExtension></extensions>
      </trkpt>
      <trkpt lat="59.199656" lon="17.575115">
        <ele>51.2</ele>
        <time>2020-03-26T13:19:39Z</time>
        <extensions><gpxtpx:TrackPointExtension><gpxtpx:hr>150</gpxtpx:hr></gpxtpx:TrackPointExtension></extensions>
      </trkpt>
      <trkpt lat="59.199634" lon="17.575193">
        <ele>51.4</ele>
        <time>2020-03-26T13:19:40Z</time>
        <extensions><gpxtpx:TrackPointExtension><gpxtpx:hr>150</gpxtpx:hr></gpxtpx:TrackPointExtension></extensions>
      </trkpt>
      <trkpt lat="59.199611" lon="17.575273">
        <ele>51.8</ele>
        <time>2020-03-26T13:19:41Z</time>
        <extensions><gpxtpx:TrackPointExtension><gpxtpx:hr>151</gpxtpx:hr></gpxtpx:TrackPointExtension></extensions>
      </trkpt>
      <trkpt lat="59.199591" lon="17.575365">
        <ele>52</ele>
        <time>2020-03-26T13:19:42Z</time>
        <extensions><gpxtpx:TrackPointExtension><gpxtpx:hr>151</gpxtpx:hr></gpxtpx:TrackPointExtension></extensions>
      </trkpt>
      <trkpt lat="59.19957" lon="17.575462">
        <ele>52.4</ele>
        <time>2020-03-26T13:19:43Z</time>
        <extensions><gpxtpx:TrackPointExtension><gpxtpx:hr>151</gpxtpx:hr></gpxtpx:TrackPointExtension></extensions>
      </trkpt>
      <trkpt lat="59.199549" lon="17.575566">
        <ele>52.8</ele>
        <time>2020-03-26T13:19:44Z</time>
        <extensions><gpxtpx:TrackPointExtension><gpxtpx:hr>152</gpxtpx:hr></gpxtpx:TrackPointExtension></extensions>
      </trkpt>
      <trkpt lat="59.199528" lon="17.575673">
        <ele>53</ele>
        <time>2020-03-26T13:19:45Z</time>
        <extensions><gpxtpx:TrackPointExtension><gpxtpx:hr>152</gpxtpx:hr></gpxtpx:TrackPointExtension></extensions>
      </trkpt>
      <trkpt lat="59.199503" lon="17.575774">
        <ele>53.4</ele>
        <time>2020-03-26T13:19:46Z</time>
        <extensions><gpxtpx:TrackPointExtension><gpxtpx:hr>152</gpxtpx:hr></gpxtpx:TrackPointExtension></extensions>
      </trkpt>
      <trkpt lat="59.199478" lon="17.57588">
        <ele>53.6</ele>
        <time>2020-03-26T13:19:47Z</time>
        <extensions><gpxtpx:TrackPointExtension><gpxtpx:hr>152</gpxtpx:hr></gpxtpx:TrackPointExtension></extensions>
      </trkpt>
      <trkpt lat="59.199455" lon="17.575985">
        <ele>53.8</ele>
        <time>2020-03-26T13:19:48Z</time>
        <extensions><gpxtpx:TrackPointExtension><gpxtpx:hr>152</gpxtpx:hr></gpxtpx:TrackPointExtension></extensions>
      </trkpt>
      <trkpt lat="59.199433" lon="17.576096">
        <ele>54</ele>
        <time>2020-03-26T13:19:49Z</time>
        <extensions><gpxtpx:TrackPointExtension><gpxtpx:hr>152</gpxtpx:hr></gpxtpx:TrackPointExtension></extensions>
      </trkpt>
      <trkpt lat="59.199412" lon="17.57621">
        <ele>54.2</ele>
        <time>2020-03-26T13:19:50Z</time>
        <extensions><gpxtpx:TrackPointExtension><gpxtpx:hr>152</gpxtpx:hr></gpxtpx:TrackPointExtension></extensions>
      </trkpt>
      <trkpt lat="59.19939" lon="17.576323">
        <ele>54.4</ele>
        <time>2020-03-26T13:19:51Z</time>
        <extensions><gpxtpx:TrackPointExtension><gpxtpx:hr>152</gpxtpx:hr></gpxtpx:TrackPointExtension></extensions>
      </trkpt>
      <trkpt lat="59.199366" lon="17.576435">
        <ele>54.6</ele>
        <time>2020-03-26T13:19:52Z</time>
        <extensions><gpxtpx:TrackPointExtension><gpxtpx:hr>153</gpxtpx:hr></gpxtpx:TrackPointExtension></extensions>
      </trkpt>
      <trkpt lat="59.199342" lon="17.576549">
        <ele>54.6</ele>
        <time>2020-03-26T13:19:53Z</time>
        <extensions><gpxtpx:TrackPointExtension><gpxtpx:hr>153</gpxtpx:hr></gpxtpx:TrackPointExtension></extensions>
      </trkpt>
      <trkpt lat="59.199319" lon="17.57667">
        <ele>54.6</ele>
        <time>2020-03-26T13:19:54Z</time>
        <extensions><gpxtpx:TrackPointExtension><gpxtpx:hr>153</gpxtpx:hr></gpxtpx:TrackPointExtension></extensions>
      </trkpt>
      <trkpt lat="59.199294" lon="17.576784">
        <ele>54.6</ele>
        <time>2020-03-26T13:19:55Z</time>
        <extensions><gpxtpx:TrackPointExtension><gpxtpx:hr>152</gpxtpx:hr></gpxtpx:TrackPointExtension></extensions>
      </trkpt>
      <trkpt lat="59.199269" lon="17.576897">
        <ele>54.6</ele>
        <time>2020-03-26T13:19:56Z</time>
        <extensions><gpxtpx:TrackPointExtension><gpxtpx:hr>152</gpxtpx:hr></gpxtpx:TrackPointExtension></extensions>
      </trkpt>
      <trkpt lat="59.199244" lon="17.57702">
        <ele>54.6</ele>
        <time>2020-03-26T13:19:57Z</time>
        <extensions><gpxtpx:TrackPointExtension><gpxtpx:hr>152</gpxtpx:hr></gpxtpx:TrackPointExtension></extensions>
      </trkpt>
      <trkpt lat="59.199219" lon="17.577147">
        <ele>54.6</ele>
        <time>2020-03-26T13:19:58Z</time>
        <extensions><gpxtpx:TrackPointExtension><gpxtpx:hr>151</gpxtpx:hr></gpxtpx:TrackPointExtension></extensions>
      </trkpt>
      <trkpt lat="59.199191" lon="17.577279">
        <ele>54.6</ele>
        <time>2020-03-26T13:19:59Z</time>
        <extensions><gpxtpx:TrackPointExtension><gpxtpx:hr>151</gpxtpx:hr></gpxtpx:TrackPointExtension></extensions>
      </trkpt>
      <trkpt lat="59.19916" lon="17.577416">
        <ele>54.6</ele>
        <time>2020-03-26T13:20:00Z</time>
        <extensions><gpxtpx:TrackPointExtension><gpxtpx:hr>150</gpxtpx:hr></gpxtpx:TrackPointExtension></extensions>
      </trkpt>
      <trkpt lat="59.199126" lon="17.577553">
        <ele>54.6</ele>
        <time>2020-03-26T13:20:01Z</time>
        <extensions><gpxtpx:TrackPointExtension><gpxtpx:hr>150</gpxtpx:hr></gpxtpx:TrackPointExtension></extensions>
      </trkpt>
      <trkpt lat="59.199092" lon="17.577693">
        <ele>54.4</ele>
        <time>2020-03-26T13:20:02Z</time>
        <extensions><gpxtpx:TrackPointExtension><gpxtpx:hr>150</gpxtpx:hr></gpxtpx:TrackPointExtension></extensions>
      </trkpt>
      <trkpt lat="59.19906" lon="17.577835">
        <ele>54.2</ele>
        <time>2020-03-26T13:20:03Z</time>
        <extensions><gpxtpx:TrackPointExtension><gpxtpx:hr>150</gpxtpx:hr></gpxtpx:TrackPointExtension></extensions>
      </trkpt>
      <trkpt lat="59.199027" lon="17.577983">
        <ele>54</ele>
        <time>2020-03-26T13:20:04Z</time>
        <extensions><gpxtpx:TrackPointExtension><gpxtpx:hr>149</gpxtpx:hr></gpxtpx:TrackPointExtension></extensions>
      </trkpt>
      <trkpt lat="59.198992" lon="17.578134">
        <ele>53.8</ele>
        <time>2020-03-26T13:20:05Z</time>
        <extensions><gpxtpx:TrackPointExtension><gpxtpx:hr>149</gpxtpx:hr></gpxtpx:TrackPointExtension></extensions>
      </trkpt>
      <trkpt lat="59.198955" lon="17.57829">
        <ele>53.6</ele>
        <time>2020-03-26T13:20:06Z</time>
        <extensions><gpxtpx:TrackPointExtension><gpxtpx:hr>148</gpxtpx:hr></gpxtpx:TrackPointExtension></extensions>
      </trkpt>
      <trkpt lat="59.198919" lon="17.578449">
        <ele>53.2</ele>
        <time>2020-03-26T13:20:07Z</time>
        <extensions><gpxtpx:TrackPointExtension><gpxtpx:hr>147</gpxtpx:hr></gpxtpx:TrackPointExtension></extensions>
      </trkpt>
      <trkpt lat="59.198884" lon="17.578604">
        <ele>52.8</ele>
        <time>2020-03-26T13:20:08Z</time>
        <extensions><gpxtpx:TrackPointExtension><gpxtpx:hr>146</gpxtpx:hr></gpxtpx:TrackPointExtension></extensions>
      </trkpt>
      <trkpt lat="59.19885" lon="17.578759">
        <ele>52.4</ele>
        <time>2020-03-26T13:20:09Z</time>
        <extensions><gpxtpx:TrackPointExtension><gpxtpx:hr>145</gpxtpx:hr></gpxtpx:TrackPointExtension></extensions>
      </trkpt>
      <trkpt lat="59.198817" lon="17.578911">
        <ele>52</ele>
        <time>2020-03-26T13:20:10Z</time>
        <extensions><gpxtpx:TrackPointExtension><gpxtpx:hr>143</gpxtpx:hr></gpxtpx:TrackPointExtension></extensions>
      </trkpt>
      <trkpt lat="59.198785" lon="17.579061">
        <ele>51.6</ele>
        <time>2020-03-26T13:20:11Z</time>
        <extensions><gpxtpx:TrackPointExtension><gpxtpx:hr>142</gpxtpx:hr></gpxtpx:TrackPointExtension></extensions>
      </trkpt>
      <trkpt lat="59.198753" lon="17.57921">
        <ele>51.2</ele>
        <time>2020-03-26T13:20:12Z</time>
        <extensions><gpxtpx:TrackPointExtension><gpxtpx:hr>141</gpxtpx:hr></gpxtpx:TrackPointExtension></extensions>
      </trkpt>
      <trkpt lat="59.198722" lon="17.579355">
        <ele>50.6</ele>
        <time>2020-03-26T13:20:13Z</time>
        <extensions><gpxtpx:TrackPointExtension><gpxtpx:hr>139</gpxtpx:hr></gpxtpx:TrackPointExtension></extensions>
      </trkpt>
      <trkpt lat="59.198694" lon="17.579491">
        <ele>50.2</ele>
        <time>2020-03-26T13:20:14Z</time>
        <extensions><gpxtpx:TrackPointExtension><gpxtpx:hr>137</gpxtpx:hr></gpxtpx:TrackPointExtension></extensions>
      </trkpt>
      <trkpt lat="59.198667" lon="17.579624">
        <ele>50</ele>
        <time>2020-03-26T13:20:15Z</time>
        <extensions><gpxtpx:TrackPointExtension><gpxtpx:hr>136</gpxtpx:hr></gpxtpx:TrackPointExtension></extensions>
      </trkpt>
      <trkpt lat="59.198637" lon="17.579752">
        <ele>49.6</ele>
        <time>2020-03-26T13:20:16Z</time>
        <extensions><gpxtpx:TrackPointExtension><gpxtpx:hr>134</gpxtpx:hr></gpxtpx:TrackPointExtension></extensions>
      </trkpt>
      <trkpt lat="59.198607" lon="17.579875">
        <ele>49.2</ele>
        <time>2020-03-26T13:20:17Z</time>
        <extensions><gpxtpx:TrackPointExtension><gpxtpx:hr>132</gpxtpx:hr></gpxtpx:TrackPointExtension></extensions>
      </trkpt>
      <trkpt lat="59.198577" lon="17.58">
        <ele>49.2</ele>
        <time>2020-03-26T13:20:18Z</time>
        <extensions><gpxtpx:TrackPointExtension><gpxtpx:hr>130</gpxtpx:hr></gpxtpx:TrackPointExtension></extensions>
      </trkpt>
      <trkpt lat="59.198548" lon="17.580122">
        <ele>49.2</ele>
        <time>2020-03-26T13:20:19Z</time>
        <extensions><gpxtpx:TrackPointExtension><gpxtpx:hr>128</gpxtpx:hr></gpxtpx:TrackPointExtension></extensions>
      </trkpt>
      <trkpt lat="59.19852" lon="17.580243">
        <ele>49</ele>
        <time>2020-03-26T13:20:20Z</time>
        <extensions><gpxtpx:TrackPointExtension><gpxtpx:hr>127</gpxtpx:hr></gpxtpx:TrackPointExtension></extensions>
      </trkpt>
      <trkpt lat="59.198493" lon="17.580365">
        <ele>49</ele>
        <time>2020-03-26T13:20:21Z</time>
        <extensions><gpxtpx:TrackPointExtension><gpxtpx:hr>126</gpxtpx:hr></gpxtpx:TrackPointExtension></extensions>
      </trkpt>
      <trkpt lat="59.198467" lon="17.580495">
        <ele>49</ele>
        <time>2020-03-26T13:20:22Z</time>
        <extensions><gpxtpx:TrackPointExtension><gpxtpx:hr>125</gpxtpx:hr></gpxtpx:TrackPointExtension></extensions>
      </trkpt>
      <trkpt lat="59.198442" lon="17.580623">
        <ele>49</ele>
        <time>2020-03-26T13:20:23Z</time>
        <extensions><gpxtpx:TrackPointExtension><gpxtpx:hr>125</gpxtpx:hr></gpxtpx:TrackPointExtension></extensions>
      </trkpt>
      <trkpt lat="59.198416" lon="17.580743">
        <ele>49</ele>
        <time>2020-03-26T13:20:24Z</time>
        <extensions><gpxtpx:TrackPointExtension><gpxtpx:hr>126</gpxtpx:hr></gpxtpx:TrackPointExtension></extensions>
      </trkpt>
      <trkpt lat="59.198391" lon="17.580859">
        <ele>49</ele>
        <time>2020-03-26T13:20:25Z</time>
        <extensions><gpxtpx:TrackPointExtension><gpxtpx:hr>126</gpxtpx:hr></gpxtpx:TrackPointExtension></extensions>
      </trkpt>
      <trkpt lat="59.198366" lon="17.580975">
        <ele>49</ele>
        <time>2020-03-26T13:20:26Z</time>
        <extensions><gpxtpx:TrackPointExtension><gpxtpx:hr>126</gpxtpx:hr></gpxtpx:TrackPointExtension></extensions>
      </trkpt>
      <trkpt lat="59.198342" lon="17.581088">
        <ele>49</ele>
        <time>2020-03-26T13:20:27Z</time>
        <extensions><gpxtpx:TrackPointExtension><gpxtpx:hr>126</gpxtpx:hr></gpxtpx:TrackPointExtension></extensions>
      </trkpt>
      <trkpt lat="59.198319" lon="17.581198">
        <ele>49</ele>
        <time>2020-03-26T13:20:28Z</time>
        <extensions><gpxtpx:TrackPointExtension><gpxtpx:hr>127</gpxtpx:hr></gpxtpx:TrackPointExtension></extensions>
      </trkpt>
      <trkpt lat="59.198298" lon="17.581306">
        <ele>49</ele>
        <time>2020-03-26T13:20:29Z</time>
        <extensions><gpxtpx:TrackPointExtension><gpxtpx:hr>127</gpxtpx:hr></gpxtpx:TrackPointExtension></extensions>
      </trkpt>
      <trkpt lat="59.198279" lon="17.581401">
        <ele>49.2</ele>
        <time>2020-03-26T13:20:30Z</time>
        <extensions><gpxtpx:TrackPointExtension><gpxtpx:hr>127</gpxtpx:hr></gpxtpx:TrackPointExtension></extensions>
      </trkpt>
      <trkpt lat="59.198255" lon="17.581495">
        <ele>49.2</ele>
        <time>2020-03-26T13:20:31Z</time>
        <extensions><gpxtpx:TrackPointExtension><gpxtpx:hr>127</gpxtpx:hr></gpxtpx:TrackPointExtension></extensions>
      </trkpt>
      <trkpt lat="59.198228" lon="17.58159">
        <ele>49.4</ele>
        <time>2020-03-26T13:20:32Z</time>
        <extensions><gpxtpx:TrackPointExtension><gpxtpx:hr>127</gpxtpx:hr></gpxtpx:TrackPointExtension></extensions>
      </trkpt>
      <trkpt lat="59.198194" lon="17.581675">
        <ele>49.4</ele>
        <time>2020-03-26T13:20:33Z</time>
        <extensions><gpxtpx:TrackPointExtension><gpxtpx:hr>126</gpxtpx:hr></gpxtpx:TrackPointExtension></extensions>
      </trkpt>
      <trkpt lat="59.198153" lon="17.581745">
        <ele>49.6</ele>
        <time>2020-03-26T13:20:34Z</time>
        <extensions><gpxtpx:TrackPointExtension><gpxtpx:hr>126</gpxtpx:hr></gpxtpx:TrackPointExtension></extensions>
      </trkpt>
      <trkpt lat="59.198102" lon="17.581777">
        <ele>49.6</ele>
        <time>2020-03-26T13:20:35Z</time>
        <extensions><gpxtpx:TrackPointExtension><gpxtpx:hr>126</gpxtpx:hr></gpxtpx:TrackPointExtension></extensions>
      </trkpt>
      <trkpt lat="59.198047" lon="17.581777">
        <ele>49.6</ele>
        <time>2020-03-26T13:20:36Z</time>
        <extensions><gpxtpx:TrackPointExtension><gpxtpx:hr>126</gpxtpx:hr></gpxtpx:TrackPointExtension></extensions>
      </trkpt>
      <trkpt lat="59.197994" lon="17.581759">
        <ele>49.6</ele>
        <time>2020-03-26T13:20:37Z</time>
        <extensions><gpxtpx:TrackPointExtension><gpxtpx:hr>127</gpxtpx:hr></gpxtpx:TrackPointExtension></extensions>
      </trkpt>
      <trkpt lat="59.197937" lon="17.58173">
        <ele>49.4</ele>
        <time>2020-03-26T13:20:38Z</time>
        <extensions><gpxtpx:TrackPointExtension><gpxtpx:hr>127</gpxtpx:hr></gpxtpx:TrackPointExtension></extensions>
      </trkpt>
      <trkpt lat="59.197875" lon="17.581696">
        <ele>49.4</ele>
        <time>2020-03-26T13:20:39Z</time>
        <extensions><gpxtpx:TrackPointExtension><gpxtpx:hr>127</gpxtpx:hr></gpxtpx:TrackPointExtension></extensions>
      </trkpt>
      <trkpt lat="59.197812" lon="17.581667">
        <ele>49.2</ele>
        <time>2020-03-26T13:20:40Z</time>
        <extensions><gpxtpx:TrackPointExtension><gpxtpx:hr>127</gpxtpx:hr></gpxtpx:TrackPointExtension></extensions>
      </trkpt>
      <trkpt lat="59.197747" lon="17.58164">
        <ele>49.2</ele>
        <time>2020-03-26T13:20:41Z</time>
        <extensions><gpxtpx:TrackPointExtension><gpxtpx:hr>127</gpxtpx:hr></gpxtpx:TrackPointExtension></extensions>
      </trkpt>
      <trkpt lat="59.197683" lon="17.581615">
        <ele>49.2</ele>
        <time>2020-03-26T13:20:42Z</time>
        <extensions><gpxtpx:TrackPointExtension><gpxtpx:hr>127</gpxtpx:hr></gpxtpx:TrackPointExtension></extensions>
      </trkpt>
      <trkpt lat="59.197614" lon="17.581597">
        <ele>49.2</ele>
        <time>2020-03-26T13:20:43Z</time>
        <extensions><gpxtpx:TrackPointExtension><gpxtpx:hr>127</gpxtpx:hr></gpxtpx:TrackPointExtension></extensions>
      </trkpt>
      <trkpt lat="59.197544" lon="17.581584">
        <ele>49</ele>
        <time>2020-03-26T13:20:44Z</time>
        <extensions><gpxtpx:TrackPointExtension><gpxtpx:hr>127</gpxtpx:hr></gpxtpx:TrackPointExtension></extensions>
      </trkpt>
      <trkpt lat="59.197476" lon="17.581575">
        <ele>48.6</ele>
        <time>2020-03-26T13:20:45Z</time>
        <extensions><gpxtpx:TrackPointExtension><gpxtpx:hr>126</gpxtpx:hr></gpxtpx:TrackPointExtension></extensions>
      </trkpt>
      <trkpt lat="59.197409" lon="17.581571">
        <ele>48</ele>
        <time>2020-03-26T13:20:46Z</time>
        <extensions><gpxtpx:TrackPointExtension><gpxtpx:hr>126</gpxtpx:hr></gpxtpx:TrackPointExtension></extensions>
      </trkpt>
      <trkpt lat="59.197343" lon="17.581569">
        <ele>47.4</ele>
        <time>2020-03-26T13:20:47Z</time>
        <extensions><gpxtpx:TrackPointExtension><gpxtpx:hr>125</gpxtpx:hr></gpxtpx:TrackPointExtension></extensions>
      </trkpt>
      <trkpt lat="59.197277" lon="17.581554">
        <ele>47</ele>
        <time>2020-03-26T13:20:48Z</time>
        <extensions><gpxtpx:TrackPointExtension><gpxtpx:hr>124</gpxtpx:hr></gpxtpx:TrackPointExtension></extensions>
      </trkpt>
      <trkpt lat="59.197213" lon="17.581515">
        <ele>46.8</ele>
        <time>2020-03-26T13:20:49Z</time>
        <extensions><gpxtpx:TrackPointExtension><gpxtpx:hr>122</gpxtpx:hr></gpxtpx:TrackPointExtension></extensions>
      </trkpt>
      <trkpt lat="59.197152" lon="17.581467">
        <ele>46.4</ele>
        <time>2020-03-26T13:20:50Z</time>
        <extensions><gpxtpx:TrackPointExtension><gpxtpx:hr>120</gpxtpx:hr></gpxtpx:TrackPointExtension></extensions>
      </trkpt>
      <trkpt lat="59.197089" lon="17.58144">
        <ele>46.2</ele>
        <time>2020-03-26T13:20:51Z</time>
        <extensions><gpxtpx:TrackPointExtension><gpxtpx:hr>118</gpxtpx:hr></gpxtpx:TrackPointExtension></extensions>
      </trkpt>
      <trkpt lat="59.197027" lon="17.581457">
        <ele>45.8</ele>
        <time>2020-03-26T13:20:52Z</time>
        <extensions><gpxtpx:TrackPointExtension><gpxtpx:hr>116</gpxtpx:hr></gpxtpx:TrackPointExtension></extensions>
      </trkpt>
      <trkpt lat="59.19697" lon="17.581522">
        <ele>45.6</ele>
        <time>2020-03-26T13:20:53Z</time>
        <extensions><gpxtpx:TrackPointExtension><gpxtpx:hr>115</gpxtpx:hr></gpxtpx:TrackPointExtension></extensions>
      </trkpt>
      <trkpt lat="59.196937" lon="17.581635">
        <ele>45.2</ele>
        <time>2020-03-26T13:20:54Z</time>
        <extensions><gpxtpx:TrackPointExtension><gpxtpx:hr>115</gpxtpx:hr></gpxtpx:TrackPointExtension></extensions>
      </trkpt>
      <trkpt lat="59.196921" lon="17.581764">
        <ele>45</ele>
        <time>2020-03-26T13:20:55Z</time>
        <extensions><gpxtpx:TrackPointExtension><gpxtpx:hr>116</gpxtpx:hr></gpxtpx:TrackPointExtension></extensions>
      </trkpt>
      <trkpt lat="59.196914" lon="17.581899">
        <ele>44.6</ele>
        <time>2020-03-26T13:20:56Z</time>
        <extensions><gpxtpx:TrackPointExtension><gpxtpx:hr>117</gpxtpx:hr></gpxtpx:TrackPointExtension></extensions>
      </trkpt>
      <trkpt lat="59.196912" lon="17.58204">
        <ele>44.4</ele>
        <time>2020-03-26T13:20:57Z</time>
        <extensions><gpxtpx:TrackPointExtension><gpxtpx:hr>118</gpxtpx:hr></gpxtpx:TrackPointExtension></extensions>
      </trkpt>
      <trkpt lat="59.196913" lon="17.582186">
        <ele>44.4</ele>
        <time>2020-03-26T13:20:58Z</time>
        <extensions><gpxtpx:TrackPointExtension><gpxtpx:hr>120</gpxtpx:hr></gpxtpx:TrackPointExtension></extensions>
      </trkpt>
      <trkpt lat="59.196913" lon="17.582327">
        <ele>44.4</ele>
        <time>2020-03-26T13:20:59Z</time>
        <extensions><gpxtpx:TrackPointExtension><gpxtpx:hr>123</gpxtpx:hr></gpxtpx:TrackPointExtension></extensions>
      </trkpt>
      <trkpt lat="59.196913" lon="17.582469">
        <ele>44.4</ele>
        <time>2020-03-26T13:21:00Z</time>
        <extensions><gpxtpx:TrackPointExtension><gpxtpx:hr>125</gpxtpx:hr></gpxtpx:TrackPointExtension></extensions>
      </trkpt>
      <trkpt lat="59.196913" lon="17.58261">
        <ele>44.2</ele>
        <time>2020-03-26T13:21:01Z</time>
        <extensions><gpxtpx:TrackPointExtension><gpxtpx:hr>126</gpxtpx:hr></gpxtpx:TrackPointExtension></extensions>
      </trkpt>
      <trkpt lat="59.196912" lon="17.582749">
        <ele>44.2</ele>
        <time>2020-03-26T13:21:02Z</time>
        <extensions><gpxtpx:TrackPointExtension><gpxtpx:hr>128</gpxtpx:hr></gpxtpx:TrackPointExtension></extensions>
      </trkpt>
      <trkpt lat="59.196912" lon="17.582886">
        <ele>44.2</ele>
        <time>2020-03-26T13:21:03Z</time>
        <extensions><gpxtpx:TrackPointExtension><gpxtpx:hr>129</gpxtpx:hr></gpxtpx:TrackPointExtension></extensions>
      </trkpt>
      <trkpt lat="59.196911" lon="17.583023">
        <ele>44.2</ele>
        <time>2020-03-26T13:21:04Z</time>
        <extensions><gpxtpx:TrackPointExtension><gpxtpx:hr>130</gpxtpx:hr></gpxtpx:TrackPointExtension></extensions>
      </trkpt>
      <trkpt lat="59.196911" lon="17.58316">
        <ele>44.2</ele>
        <time>2020-03-26T13:21:05Z</time>
        <extensions><gpxtpx:TrackPointExtension><gpxtpx:hr>131</gpxtpx:hr></gpxtpx:TrackPointExtension></extensions>
      </trkpt>
      <trkpt lat="59.19691" lon="17.583295">
        <ele>44.4</ele>
        <time>2020-03-26T13:21:06Z</time>
        <extensions><gpxtpx:TrackPointExtension><gpxtpx:hr>132</gpxtpx:hr></gpxtpx:TrackPointExtension></extensions>
      </trkpt>
      <trkpt lat="59.19691" lon="17.58343">
        <ele>44.6</ele>
        <time>2020-03-26T13:21:07Z</time>
        <extensions><gpxtpx:TrackPointExtension><gpxtpx:hr>133</gpxtpx:hr></gpxtpx:TrackPointExtension></extensions>
      </trkpt>
      <trkpt lat="59.19691" lon="17.583565">
        <ele>44.8</ele>
        <time>2020-03-26T13:21:08Z</time>
        <extensions><gpxtpx:TrackPointExtension><gpxtpx:hr>134</gpxtpx:hr></gpxtpx:TrackPointExtension></extensions>
      </trkpt>
      <trkpt lat="59.19691" lon="17.5837">
        <ele>45</ele>
        <time>2020-03-26T13:21:09Z</time>
        <extensions><gpxtpx:TrackPointExtension><gpxtpx:hr>135</gpxtpx:hr></gpxtpx:TrackPointExtension></extensions>
      </trkpt>
      <trkpt lat="59.19691" lon="17.583835">
        <ele>45</ele>
        <time>2020-03-26T13:21:10Z</time>
        <extensions><gpxtpx:TrackPointExtension><gpxtpx:hr>136</gpxtpx:hr></gpxtpx:TrackPointExtension></extensions>
      </trkpt>
      <trkpt lat="59.19691" lon="17.583971">
        <ele>45.2</ele>
        <time>2020-03-26T13:21:11Z</time>
        <extensions><gpxtpx:TrackPointExtension><gpxtpx:hr>137</gpxtpx:hr></gpxtpx:TrackPointExtension></extensions>
      </trkpt>
      <trkpt lat="59.196908" lon="17.584107">
        <ele>45.6</ele>
        <time>2020-03-26T13:21:12Z</time>
        <extensions><gpxtpx:TrackPointExtension><gpxtpx:hr>138</gpxtpx:hr></gpxtpx:TrackPointExtension></extensions>
      </trkpt>
      <trkpt lat="59.196907" lon="17.584243">
        <ele>45.8</ele>
        <time>2020-03-26T13:21:13Z</time>
        <extensions><gpxtpx:TrackPointExtension><gpxtpx:hr>139</gpxtpx:hr></gpxtpx:TrackPointExtension></extensions>
      </trkpt>
      <trkpt lat="59.196907" lon="17.58438">
        <ele>46</ele>
        <time>2020-03-26T13:21:14Z</time>
        <extensions><gpxtpx:TrackPointExtension><gpxtpx:hr>140</gpxtpx:hr></gpxtpx:TrackPointExtension></extensions>
      </trkpt>
      <trkpt lat="59.196907" lon="17.584518">
        <ele>46.4</ele>
        <time>2020-03-26T13:21:15Z</time>
        <extensions><gpxtpx:TrackPointExtension><gpxtpx:hr>140</gpxtpx:hr></gpxtpx:TrackPointExtension></extensions>
      </trkpt>
      <trkpt lat="59.196907" lon="17.584656">
        <ele>46.6</ele>
        <time>2020-03-26T13:21:16Z</time>
        <extensions><gpxtpx:TrackPointExtension><gpxtpx:hr>141</gpxtpx:hr></gpxtpx:TrackPointExtension></extensions>
      </trkpt>
      <trkpt lat="59.196907" lon="17.584796">
        <ele>47</ele>
        <time>2020-03-26T13:21:17Z</time>
        <extensions><gpxtpx:TrackPointExtension><gpxtpx:hr>141</gpxtpx:hr></gpxtpx:TrackPointExtension></extensions>
      </trkpt>
      <trkpt lat="59.196907" lon="17.584934">
        <ele>47.2</ele>
        <time>2020-03-26T13:21:18Z</time>
        <extensions><gpxtpx:TrackPointExtension><gpxtpx:hr>142</gpxtpx:hr></gpxtpx:TrackPointExtension></extensions>
      </trkpt>
      <trkpt lat="59.196905" lon="17.585073">
        <ele>47.4</ele>
        <time>2020-03-26T13:21:19Z</time>
        <extensions><gpxtpx:TrackPointExtension><gpxtpx:hr>142</gpxtpx:hr></gpxtpx:TrackPointExtension></extensions>
      </trkpt>
      <trkpt lat="59.196904" lon="17.585211">
        <ele>47.4</ele>
        <time>2020-03-26T13:21:20Z</time>
        <extensions><gpxtpx:TrackPointExtension><gpxtpx:hr>142</gpxtpx:hr></gpxtpx:TrackPointExtension></extensions>
      </trkpt>
      <trkpt lat="59.196905" lon="17.58535">
        <ele>47.6</ele>
        <time>2020-03-26T13:21:21Z</time>
        <extensions><gpxtpx:TrackPointExtension><gpxtpx:hr>143</gpxtpx:hr></gpxtpx:TrackPointExtension></extensions>
      </trkpt>
      <trkpt lat="59.196905" lon="17.585488">
        <ele>47.6</ele>
        <time>2020-03-26T13:21:22Z</time>
        <extensions><gpxtpx:TrackPointExtension><gpxtpx:hr>143</gpxtpx:hr></gpxtpx:TrackPointExtension></extensions>
      </trkpt>
      <trkpt lat="59.196905" lon="17.585628">
        <ele>47.8</ele>
        <time>2020-03-26T13:21:23Z</time>
        <extensions><gpxtpx:TrackPointExtension><gpxtpx:hr>144</gpxtpx:hr></gpxtpx:TrackPointExtension></extensions>
      </trkpt>
      <trkpt lat="59.196907" lon="17.585768">
        <ele>48</ele>
        <time>2020-03-26T13:21:24Z</time>
        <extensions><gpxtpx:TrackPointExtension><gpxtpx:hr>144</gpxtpx:hr></gpxtpx:TrackPointExtension></extensions>
      </trkpt>
      <trkpt lat="59.196909" lon="17.585908">
        <ele>48.2</ele>
        <time>2020-03-26T13:21:25Z</time>
        <extensions><gpxtpx:TrackPointExtension><gpxtpx:hr>144</gpxtpx:hr></gpxtpx:TrackPointExtension></extensions>
      </trkpt>
      <trkpt lat="59.19691" lon="17.586048">
        <ele>48.4</ele>
        <time>2020-03-26T13:21:26Z</time>
        <extensions><gpxtpx:TrackPointExtension><gpxtpx:hr>145</gpxtpx:hr></gpxtpx:TrackPointExtension></extensions>
      </trkpt>
      <trkpt lat="59.196912" lon="17.58619">
        <ele>48.4</ele>
        <time>2020-03-26T13:21:27Z</time>
        <extensions><gpxtpx:TrackPointExtension><gpxtpx:hr>145</gpxtpx:hr></gpxtpx:TrackPointExtension></extensions>
      </trkpt>
      <trkpt lat="59.196913" lon="17.586332">
        <ele>48.6</ele>
        <time>2020-03-26T13:21:28Z</time>
        <extensions><gpxtpx:TrackPointExtension><gpxtpx:hr>145</gpxtpx:hr></gpxtpx:TrackPointExtension></extensions>
      </trkpt>
      <trkpt lat="59.196915" lon="17.586475">
        <ele>48.6</ele>
        <time>2020-03-26T13:21:29Z</time>
        <extensions><gpxtpx:TrackPointExtension><gpxtpx:hr>146</gpxtpx:hr></gpxtpx:TrackPointExtension></extensions>
      </trkpt>
      <trkpt lat="59.196918" lon="17.586617">
        <ele>48.8</ele>
        <time>2020-03-26T13:21:30Z</time>
        <extensions><gpxtpx:TrackPointExtension><gpxtpx:hr>146</gpxtpx:hr></gpxtpx:TrackPointExtension></extensions>
      </trkpt>
      <trkpt lat="59.196923" lon="17.58676">
        <ele>48.8</ele>
        <time>2020-03-26T13:21:31Z</time>
        <extensions><gpxtpx:TrackPointExtension><gpxtpx:hr>146</gpxtpx:hr></gpxtpx:TrackPointExtension></extensions>
      </trkpt>
      <trkpt lat="59.19693" lon="17.586904">
        <ele>49</ele>
        <time>2020-03-26T13:21:32Z</time>
        <extensions><gpxtpx:TrackPointExtension><gpxtpx:hr>146</gpxtpx:hr></gpxtpx:TrackPointExtension></extensions>
      </trkpt>
      <trkpt lat="59.196938" lon="17.58705">
        <ele>49</ele>
        <time>2020-03-26T13:21:33Z</time>
        <extensions><gpxtpx:TrackPointExtension><gpxtpx:hr>147</gpxtpx:hr></gpxtpx:TrackPointExtension></extensions>
      </trkpt>
      <trkpt lat="59.196947" lon="17.587196">
        <ele>49</ele>
        <time>2020-03-26T13:21:34Z</time>
        <extensions><gpxtpx:TrackPointExtension><gpxtpx:hr>147</gpxtpx:hr></gpxtpx:TrackPointExtension></extensions>
      </trkpt>
      <trkpt lat="59.196958" lon="17.587341">
        <ele>49</ele>
        <time>2020-03-26T13:21:35Z</time>
        <extensions><gpxtpx:TrackPointExtension><gpxtpx:hr>147</gpxtpx:hr></gpxtpx:TrackPointExtension></extensions>
      </trkpt>
      <trkpt lat="59.196972" lon="17.587486">
        <ele>49</ele>
        <time>2020-03-26T13:21:36Z</time>
        <extensions><gpxtpx:TrackPointExtension><gpxtpx:hr>147</gpxtpx:hr></gpxtpx:TrackPointExtension></extensions>
      </trkpt>
      <trkpt lat="59.196985" lon="17.587635">
        <ele>49</ele>
        <time>2020-03-26T13:21:37Z</time>
        <extensions><gpxtpx:TrackPointExtension><gpxtpx:hr>147</gpxtpx:hr></gpxtpx:TrackPointExtension></extensions>
      </trkpt>
      <trkpt lat="59.196997" lon="17.587785">
        <ele>49</ele>
        <time>2020-03-26T13:21:38Z</time>
        <extensions><gpxtpx:TrackPointExtension><gpxtpx:hr>147</gpxtpx:hr></gpxtpx:TrackPointExtension></extensions>
      </trkpt>
      <trkpt lat="59.197012" lon="17.587938">
        <ele>49</ele>
        <time>2020-03-26T13:21:39Z</time>
        <extensions><gpxtpx:TrackPointExtension><gpxtpx:hr>147</gpxtpx:hr></gpxtpx:TrackPointExtension></extensions>
      </trkpt>
      <trkpt lat="59.197029" lon="17.588091">
        <ele>49</ele>
        <time>2020-03-26T13:21:40Z</time>
        <extensions><gpxtpx:TrackPointExtension><gpxtpx:hr>147</gpxtpx:hr></gpxtpx:TrackPointExtension></extensions>
      </trkpt>
      <trkpt lat="59.197045" lon="17.588246">
        <ele>49</ele>
        <time>2020-03-26T13:21:41Z</time>
        <extensions><gpxtpx:TrackPointExtension><gpxtpx:hr>147</gpxtpx:hr></gpxtpx:TrackPointExtension></extensions>
      </trkpt>
      <trkpt lat="59.197064" lon="17.588403">
        <ele>49</ele>
        <time>2020-03-26T13:21:42Z</time>
        <extensions><gpxtpx:TrackPointExtension><gpxtpx:hr>147</gpxtpx:hr></gpxtpx:TrackPointExtension></extensions>
      </trkpt>
      <trkpt lat="59.197085" lon="17.588559">
        <ele>49</ele>
        <time>2020-03-26T13:21:43Z</time>
        <extensions><gpxtpx:TrackPointExtension><gpxtpx:hr>148</gpxtpx:hr></gpxtpx:TrackPointExtension></extensions>
      </trkpt>
      <trkpt lat="59.197108" lon="17.588716">
        <ele>49</ele>
        <time>2020-03-26T13:21:44Z</time>
        <extensions><gpxtpx:TrackPointExtension><gpxtpx:hr>148</gpxtpx:hr></gpxtpx:TrackPointExtension></extensions>
      </trkpt>
      <trkpt lat="59.197135" lon="17.588873">
        <ele>48.8</ele>
        <time>2020-03-26T13:21:45Z</time>
        <extensions><gpxtpx:TrackPointExtension><gpxtpx:hr>148</gpxtpx:hr></gpxtpx:TrackPointExtension></extensions>
      </trkpt>
      <trkpt lat="59.197166" lon="17.589029">
        <ele>48.6</ele>
        <time>2020-03-26T13:21:46Z</time>
        <extensions><gpxtpx:TrackPointExtension><gpxtpx:hr>148</gpxtpx:hr></gpxtpx:TrackPointExtension></extensions>
      </trkpt>
      <trkpt lat="59.197197" lon="17.589187">
        <ele>48.4</ele>
        <time>2020-03-26T13:21:47Z</time>
        <extensions><gpxtpx:TrackPointExtension><gpxtpx:hr>148</gpxtpx:hr></gpxtpx:TrackPointExtension></extensions>
      </trkpt>
      <trkpt lat="59.197227" lon="17.589346">
        <ele>48.2</ele>
        <time>2020-03-26T13:21:48Z</time>
        <extensions><gpxtpx:TrackPointExtension><gpxtpx:hr>148</gpxtpx:hr></gpxtpx:TrackPointExtension></extensions>
      </trkpt>
      <trkpt lat="59.197256" lon="17.589508">
        <ele>48</ele>
        <time>2020-03-26T13:21:49Z</time>
        <extensions><gpxtpx:TrackPointExtension><gpxtpx:hr>148</gpxtpx:hr></gpxtpx:TrackPointExtension></extensions>
      </trkpt>
      <trkpt lat="59.197286" lon="17.589669">
        <ele>48</ele>
        <time>2020-03-26T13:21:50Z</time>
        <extensions><gpxtpx:TrackPointExtension><gpxtpx:hr>148</gpxtpx:hr></gpxtpx:TrackPointExtension></extensions>
      </trkpt>
      <trkpt lat="59.197318" lon="17.58983">
        <ele>48</ele>
        <time>2020-03-26T13:21:51Z</time>
        <extensions><gpxtpx:TrackPointExtension><gpxtpx:hr>148</gpxtpx:hr></gpxtpx:TrackPointExtension></extensions>
      </trkpt>
      <trkpt lat="59.19735" lon="17.589993">
        <ele>47.8</ele>
        <time>2020-03-26T13:21:52Z</time>
        <extensions><gpxtpx:TrackPointExtension><gpxtpx:hr>148</gpxtpx:hr></gpxtpx:TrackPointExtension></extensions>
      </trkpt>
      <trkpt lat="59.197383" lon="17.590156">
        <ele>47.6</ele>
        <time>2020-03-26T13:21:53Z</time>
        <extensions><gpxtpx:TrackPointExtension><gpxtpx:hr>148</gpxtpx:hr></gpxtpx:TrackPointExtension></extensions>
      </trkpt>
      <trkpt lat="59.197415" lon="17.59032">
        <ele>47.6</ele>
        <time>2020-03-26T13:21:54Z</time>
        <extensions><gpxtpx:TrackPointExtension><gpxtpx:hr>148</gpxtpx:hr></gpxtpx:TrackPointExtension></extensions>
      </trkpt>
      <trkpt lat="59.197448" lon="17.590483">
        <ele>47.6</ele>
        <time>2020-03-26T13:21:55Z</time>
        <extensions><gpxtpx:TrackPointExtension><gpxtpx:hr>148</gpxtpx:hr></gpxtpx:TrackPointExtension></extensions>
      </trkpt>
      <trkpt lat="59.197482" lon="17.590646">
        <ele>47.4</ele>
        <time>2020-03-26T13:21:56Z</time>
        <extensions><gpxtpx:TrackPointExtension><gpxtpx:hr>148</gpxtpx:hr></gpxtpx:TrackPointExtension></extensions>
      </trkpt>
      <trkpt lat="59.197516" lon="17.59081">
        <ele>47.2</ele>
        <time>2020-03-26T13:21:57Z</time>
        <extensions><gpxtpx:TrackPointExtension><gpxtpx:hr>148</gpxtpx:hr></gpxtpx:TrackPointExtension></extensions>
      </trkpt>
      <trkpt lat="59.19755" lon="17.590976">
        <ele>46.8</ele>
        <time>2020-03-26T13:21:58Z</time>
        <extensions><gpxtpx:TrackPointExtension><gpxtpx:hr>149</gpxtpx:hr></gpxtpx:TrackPointExtension></extensions>
      </trkpt>
      <trkpt lat="59.197583" lon="17.591144">
        <ele>46.6</ele>
        <time>2020-03-26T13:21:59Z</time>
        <extensions><gpxtpx:TrackPointExtension><gpxtpx:hr>148</gpxtpx:hr></gpxtpx:TrackPointExtension></extensions>
      </trkpt>
      <trkpt lat="59.197616" lon="17.591315">
        <ele>46.6</ele>
        <time>2020-03-26T13:22:00Z</time>
        <extensions><gpxtpx:TrackPointExtension><gpxtpx:hr>148</gpxtpx:hr></gpxtpx:TrackPointExtension></extensions>
      </trkpt>
      <trkpt lat="59.197649" lon="17.591488">
        <ele>46.6</ele>
        <time>2020-03-26T13:22:01Z</time>
        <extensions><gpxtpx:TrackPointExtension><gpxtpx:hr>148</gpxtpx:hr></gpxtpx:TrackPointExtension></extensions>
      </trkpt>
      <trkpt lat="59.197685" lon="17.591663">
        <ele>46.6</ele>
        <time>2020-03-26T13:22:02Z</time>
        <extensions><gpxtpx:TrackPointExtension><gpxtpx:hr>148</gpxtpx:hr></gpxtpx:TrackPointExtension></extensions>
      </trkpt>
      <trkpt lat="59.197721" lon="17.591839">
        <ele>46.6</ele>
        <time>2020-03-26T13:22:03Z</time>
        <extensions><gpxtpx:TrackPointExtension><gpxtpx:hr>148</gpxtpx:hr></gpxtpx:TrackPointExtension></extensions>
      </trkpt>
      <trkpt lat="59.197758" lon="17.592014">
        <ele>46.4</ele>
        <time>2020-03-26T13:22:04Z</time>
        <extensions><gpxtpx:TrackPointExtension><gpxtpx:hr>147</gpxtpx:hr></gpxtpx:TrackPointExtension></extensions>
      </trkpt>
      <trkpt lat="59.197795" lon="17.592185">
        <ele>46.4</ele>
        <time>2020-03-26T13:22:05Z</time>
        <extensions><gpxtpx:TrackPointExtension><gpxtpx:hr>147</gpxtpx:hr></gpxtpx:TrackPointExtension></extensions>
      </trkpt>
      <trkpt lat="59.197833" lon="17.592352">
        <ele>46.4</ele>
        <time>2020-03-26T13:22:06Z</time>
        <extensions><gpxtpx:TrackPointExtension><gpxtpx:hr>147</gpxtpx:hr></gpxtpx:TrackPointExtension></extensions>
      </trkpt>
      <trkpt lat="59.197872" lon="17.592515">
        <ele>46.4</ele>
        <time>2020-03-26T13:22:07Z</time>
        <extensions><gpxtpx:TrackPointExtension><gpxtpx:hr>146</gpxtpx:hr></gpxtpx:TrackPointExtension></extensions>
      </trkpt>
      <trkpt lat="59.197912" lon="17.592677">
        <ele>46.2</ele>
        <time>2020-03-26T13:22:08Z</time>
        <extensions><gpxtpx:TrackPointExtension><gpxtpx:hr>146</gpxtpx:hr></gpxtpx:TrackPointExtension></extensions>
      </trkpt>
      <trkpt lat="59.197956" lon="17.59284">
        <ele>46.2</ele>
        <time>2020-03-26T13:22:09Z</time>
        <extensions><gpxtpx:TrackPointExtension><gpxtpx:hr>145</gpxtpx:hr></gpxtpx:TrackPointExtension></extensions>
      </trkpt>
      <trkpt lat="59.198" lon="17.593006">
        <ele>46.2</ele>
        <time>2020-03-26T13:22:10Z</time>
        <extensions><gpxtpx:TrackPointExtension><gpxtpx:hr>145</gpxtpx:hr></gpxtpx:TrackPointExtension></extensions>
      </trkpt>
      <trkpt lat="59.198046" lon="17.593174">
        <ele>46.2</ele>
        <time>2020-03-26T13:22:11Z</time>
        <extensions><gpxtpx:TrackPointExtension><gpxtpx:hr>144</gpxtpx:hr></gpxtpx:TrackPointExtension></extensions>
      </trkpt>
      <trkpt lat="59.198093" lon="17.593343">
        <ele>46</ele>
        <time>2020-03-26T13:22:12Z</time>
        <extensions><gpxtpx:TrackPointExtension><gpxtpx:hr>144</gpxtpx:hr></gpxtpx:TrackPointExtension></extensions>
      </trkpt>
      <trkpt lat="59.198141" lon="17.593513">
        <ele>45.8</ele>
        <time>2020-03-26T13:22:13Z</time>
        <extensions><gpxtpx:TrackPointExtension><gpxtpx:hr>144</gpxtpx:hr></gpxtpx:TrackPointExtension></extensions>
      </trkpt>
      <trkpt lat="59.198188" lon="17.593684">
        <ele>45.8</ele>
        <time>2020-03-26T13:22:14Z</time>
        <extensions><gpxtpx:TrackPointExtension><gpxtpx:hr>144</gpxtpx:hr></gpxtpx:TrackPointExtension></extensions>
      </trkpt>
      <trkpt lat="59.198234" lon="17.593853">
        <ele>45.6</ele>
        <time>2020-03-26T13:22:15Z</time>
        <extensions><gpxtpx:TrackPointExtension><gpxtpx:hr>145</gpxtpx:hr></gpxtpx:TrackPointExtension></extensions>
      </trkpt>
      <trkpt lat="59.198282" lon="17.594021">
        <ele>45.4</ele>
        <time>2020-03-26T13:22:16Z</time>
        <extensions><gpxtpx:TrackPointExtension><gpxtpx:hr>145</gpxtpx:hr></gpxtpx:TrackPointExtension></extensions>
      </trkpt>
      <trkpt lat="59.19833" lon="17.594187">
        <ele>45.4</ele>
        <time>2020-03-26T13:22:17Z</time>
        <extensions><gpxtpx:TrackPointExtension><gpxtpx:hr>145</gpxtpx:hr></gpxtpx:TrackPointExtension></extensions>
      </trkpt>
      <trkpt lat="59.198378" lon="17.594352">
        <ele>45.2</ele>
        <time>2020-03-26T13:22:18Z</time>
        <extensions><gpxtpx:TrackPointExtension><gpxtpx:hr>145</gpxtpx:hr></gpxtpx:TrackPointExtension></extensions>
      </trkpt>
      <trkpt lat="59.198425" lon="17.594517">
        <ele>45</ele>
        <time>2020-03-26T13:22:19Z</time>
        <extensions><gpxtpx:TrackPointExtension><gpxtpx:hr>145</gpxtpx:hr></gpxtpx:TrackPointExtension></extensions>
      </trkpt>
      <trkpt lat="59.198472" lon="17.594682">
        <ele>45</ele>
        <time>2020-03-26T13:22:20Z</time>
        <extensions><gpxtpx:TrackPointExtension><gpxtpx:hr>145</gpxtpx:hr></gpxtpx:TrackPointExtension></extensions>
      </trkpt>
      <trkpt lat="59.198519" lon="17.594846">
        <ele>44.8</ele>
        <time>2020-03-26T13:22:21Z</time>
        <extensions><gpxtpx:TrackPointExtension><gpxtpx:hr>145</gpxtpx:hr></gpxtpx:TrackPointExtension></extensions>
      </trkpt>
      <trkpt lat="59.198567" lon="17.59501">
        <ele>44.4</ele>
        <time>2020-03-26T13:22:22Z</time>
        <extensions><gpxtpx:TrackPointExtension><gpxtpx:hr>145</gpxtpx:hr></gpxtpx:TrackPointExtension></extensions>
      </trkpt>
      <trkpt lat="59.198617" lon="17.595171">
        <ele>44</ele>
        <time>2020-03-26T13:22:23Z</time>
        <extensions><gpxtpx:TrackPointExtension><gpxtpx:hr>145</gpxtpx:hr></gpxtpx:TrackPointExtension></extensions>
      </trkpt>
      <trkpt lat="59.198669" lon="17.59533">
        <ele>43.8</ele>
        <time>2020-03-26T13:22:24Z</time>
        <extensions><gpxtpx:TrackPointExtension><gpxtpx:hr>145</gpxtpx:hr></gpxtpx:TrackPointExtension></extensions>
      </trkpt>
      <trkpt lat="59.198724" lon="17.595487">
        <ele>43.6</ele>
        <time>2020-03-26T13:22:25Z</time>
        <extensions><gpxtpx:TrackPointExtension><gpxtpx:hr>145</gpxtpx:hr></gpxtpx:TrackPointExtension></extensions>
      </trkpt>
      <trkpt lat="59.19878" lon="17.595644">
        <ele>43.6</ele>
        <time>2020-03-26T13:22:26Z</time>
        <extensions><gpxtpx:TrackPointExtension><gpxtpx:hr>145</gpxtpx:hr></gpxtpx:TrackPointExtension></extensions>
      </trkpt>
      <trkpt lat="59.198838" lon="17.595798">
        <ele>43.4</ele>
        <time>2020-03-26T13:22:27Z</time>
        <extensions><gpxtpx:TrackPointExtension><gpxtpx:hr>146</gpxtpx:hr></gpxtpx:TrackPointExtension></extensions>
      </trkpt>
      <trkpt lat="59.1989" lon="17.595949">
        <ele>43.4</ele>
        <time>2020-03-26T13:22:28Z</time>
        <extensions><gpxtpx:TrackPointExtension><gpxtpx:hr>146</gpxtpx:hr></gpxtpx:TrackPointExtension></extensions>
      </trkpt>
      <trkpt lat="59.198963" lon="17.596097">
        <ele>43.4</ele>
        <time>2020-03-26T13:22:29Z</time>
        <extensions><gpxtpx:TrackPointExtension><gpxtpx:hr>146</gpxtpx:hr></gpxtpx:TrackPointExtension></extensions>
      </trkpt>
      <trkpt lat="59.199029" lon="17.596238">
        <ele>43.4</ele>
        <time>2020-03-26T13:22:30Z</time>
        <extensions><gpxtpx:TrackPointExtension><gpxtpx:hr>146</gpxtpx:hr></gpxtpx:TrackPointExtension></extensions>
      </trkpt>
      <trkpt lat="59.199098" lon="17.596374">
        <ele>43.4</ele>
        <time>2020-03-26T13:22:31Z</time>
        <extensions><gpxtpx:TrackPointExtension><gpxtpx:hr>146</gpxtpx:hr></gpxtpx:TrackPointExtension></extensions>
      </trkpt>
      <trkpt lat="59.19917" lon="17.596506">
        <ele>43.2</ele>
        <time>2020-03-26T13:22:32Z</time>
        <extensions><gpxtpx:TrackPointExtension><gpxtpx:hr>146</gpxtpx:hr></gpxtpx:TrackPointExtension></extensions>
      </trkpt>
      <trkpt lat="59.199241" lon="17.596637">
        <ele>43.2</ele>
        <time>2020-03-26T13:22:33Z</time>
        <extensions><gpxtpx:TrackPointExtension><gpxtpx:hr>146</gpxtpx:hr></gpxtpx:TrackPointExtension></extensions>
      </trkpt>
      <trkpt lat="59.199313" lon="17.596766">
        <ele>43.2</ele>
        <time>2020-03-26T13:22:34Z</time>
        <extensions><gpxtpx:TrackPointExtension><gpxtpx:hr>146</gpxtpx:hr></gpxtpx:TrackPointExtension></extensions>
      </trkpt>
      <trkpt lat="59.199385" lon="17.596894">
        <ele>43</ele>
        <time>2020-03-26T13:22:35Z</time>
        <extensions><gpxtpx:TrackPointExtension><gpxtpx:hr>146</gpxtpx:hr></gpxtpx:TrackPointExtension></extensions>
      </trkpt>
      <trkpt lat="59.199454" lon="17.597028">
        <ele>42.6</ele>
        <time>2020-03-26T13:22:36Z</time>
        <extensions><gpxtpx:TrackPointExtension><gpxtpx:hr>146</gpxtpx:hr></gpxtpx:TrackPointExtension></extensions>
      </trkpt>
      <trkpt lat="59.199516" lon="17.597168">
        <ele>42.2</ele>
        <time>2020-03-26T13:22:37Z</time>
        <extensions><gpxtpx:TrackPointExtension><gpxtpx:hr>146</gpxtpx:hr></gpxtpx:TrackPointExtension></extensions>
      </trkpt>
      <trkpt lat="59.199575" lon="17.597309">
        <ele>42.2</ele>
        <time>2020-03-26T13:22:38Z</time>
        <extensions><gpxtpx:TrackPointExtension><gpxtpx:hr>146</gpxtpx:hr></gpxtpx:TrackPointExtension></extensions>
      </trkpt>
      <trkpt lat="59.199641" lon="17.597433">
        <ele>42</ele>
        <time>2020-03-26T13:22:39Z</time>
        <extensions><gpxtpx:TrackPointExtension><gpxtpx:hr>146</gpxtpx:hr></gpxtpx:TrackPointExtension></extensions>
      </trkpt>
      <trkpt lat="59.19972" lon="17.597522">
        <ele>41.8</ele>
        <time>2020-03-26T13:22:40Z</time>
        <extensions><gpxtpx:TrackPointExtension><gpxtpx:hr>145</gpxtpx:hr></gpxtpx:TrackPointExtension></extensions>
      </trkpt>
      <trkpt lat="59.199805" lon="17.597602">
        <ele>41.8</ele>
        <time>2020-03-26T13:22:41Z</time>
        <extensions><gpxtpx:TrackPointExtension><gpxtpx:hr>145</gpxtpx:hr></gpxtpx:TrackPointExtension></extensions>
      </trkpt>
      <trkpt lat="59.199889" lon="17.597693">
        <ele>41.6</ele>
        <time>2020-03-26T13:22:42Z</time>
        <extensions><gpxtpx:TrackPointExtension><gpxtpx:hr>145</gpxtpx:hr></gpxtpx:TrackPointExtension></extensions>
      </trkpt>
      <trkpt lat="59.19997" lon="17.597795">
        <ele>41.6</ele>
        <time>2020-03-26T13:22:43Z</time>
        <extensions><gpxtpx:TrackPointExtension><gpxtpx:hr>144</gpxtpx:hr></gpxtpx:TrackPointExtension></extensions>
      </trkpt>
      <trkpt lat="59.200049" lon="17.597904">
        <ele>41.4</ele>
        <time>2020-03-26T13:22:44Z</time>
        <extensions><gpxtpx:TrackPointExtension><gpxtpx:hr>145</gpxtpx:hr></gpxtpx:TrackPointExtension></extensions>
      </trkpt>
      <trkpt lat="59.200126" lon="17.598016">
        <ele>41.4</ele>
        <time>2020-03-26T13:22:45Z</time>
        <extensions><gpxtpx:TrackPointExtension><gpxtpx:hr>145</gpxtpx:hr></gpxtpx:TrackPointExtension></extensions>
      </trkpt>
      <trkpt lat="59.200203" lon="17.598128">
        <ele>41.4</ele>
        <time>2020-03-26T13:22:46Z</time>
        <extensions><gpxtpx:TrackPointExtension><gpxtpx:hr>145</gpxtpx:hr></gpxtpx:TrackPointExtension></extensions>
      </trkpt>
      <trkpt lat="59.20028" lon="17.59824">
        <ele>41.2</ele>
        <time>2020-03-26T13:22:47Z</time>
        <extensions><gpxtpx:TrackPointExtension><gpxtpx:hr>145</gpxtpx:hr></gpxtpx:TrackPointExtension></extensions>
      </trkpt>
      <trkpt lat="59.200356" lon="17.598352">
        <ele>41.2</ele>
        <time>2020-03-26T13:22:48Z</time>
        <extensions><gpxtpx:TrackPointExtension><gpxtpx:hr>146</gpxtpx:hr></gpxtpx:TrackPointExtension></extensions>
      </trkpt>
      <trkpt lat="59.200433" lon="17.598465">
        <ele>41</ele>
        <time>2020-03-26T13:22:49Z</time>
        <extensions><gpxtpx:TrackPointExtension><gpxtpx:hr>146</gpxtpx:hr></gpxtpx:TrackPointExtension></extensions>
      </trkpt>
      <trkpt lat="59.200509" lon="17.598579">
        <ele>41</ele>
        <time>2020-03-26T13:22:50Z</time>
        <extensions><gpxtpx:TrackPointExtension><gpxtpx:hr>146</gpxtpx:hr></gpxtpx:TrackPointExtension></extensions>
      </trkpt>
      <trkpt lat="59.200586" lon="17.598692">
        <ele>40.8</ele>
        <time>2020-03-26T13:22:51Z</time>
        <extensions><gpxtpx:TrackPointExtension><gpxtpx:hr>146</gpxtpx:hr></gpxtpx:TrackPointExtension></extensions>
      </trkpt>
      <trkpt lat="59.200663" lon="17.598805">
        <ele>40.6</ele>
        <time>2020-03-26T13:22:52Z</time>
        <extensions><gpxtpx:TrackPointExtension><gpxtpx:hr>145</gpxtpx:hr></gpxtpx:TrackPointExtension></extensions>
      </trkpt>
      <trkpt lat="59.20074" lon="17.598918">
        <ele>40.2</ele>
        <time>2020-03-26T13:22:53Z</time>
        <extensions><gpxtpx:TrackPointExtension><gpxtpx:hr>145</gpxtpx:hr></gpxtpx:TrackPointExtension></extensions>
      </trkpt>
      <trkpt lat="59.200818" lon="17.599036">
        <ele>40.2</ele>
        <time>2020-03-26T13:22:54Z</time>
        <extensions><gpxtpx:TrackPointExtension><gpxtpx:hr>145</gpxtpx:hr></gpxtpx:TrackPointExtension></extensions>
      </trkpt>
      <trkpt lat="59.200896" lon="17.599157">
        <ele>40.2</ele>
        <time>2020-03-26T13:22:55Z</time>
        <extensions><gpxtpx:TrackPointExtension><gpxtpx:hr>145</gpxtpx:hr></gpxtpx:TrackPointExtension></extensions>
      </trkpt>
      <trkpt lat="59.200974" lon="17.59928">
        <ele>40</ele>
        <time>2020-03-26T13:22:56Z</time>
        <extensions><gpxtpx:TrackPointExtension><gpxtpx:hr>145</gpxtpx:hr></gpxtpx:TrackPointExtension></extensions>
      </trkpt>
      <trkpt lat="59.201053" lon="17.599403">
        <ele>40</ele>
        <time>2020-03-26T13:22:57Z</time>
        <extensions><gpxtpx:TrackPointExtension><gpxtpx:hr>145</gpxtpx:hr></gpxtpx:TrackPointExtension></extensions>
      </trkpt>
      <trkpt lat="59.201132" lon="17.599528">
        <ele>40</ele>
        <time>2020-03-26T13:22:58Z</time>
        <extensions><gpxtpx:TrackPointExtension><gpxtpx:hr>145</gpxtpx:hr></gpxtpx:TrackPointExtension></extensions>
      </trkpt>
      <trkpt lat="59.201212" lon="17.599653">
        <ele>40</ele>
        <time>2020-03-26T13:22:59Z</time>
        <extensions><gpxtpx:TrackPointExtension><gpxtpx:hr>145</gpxtpx:hr></gpxtpx:TrackPointExtension></extensions>
      </trkpt>
      <trkpt lat="59.201292" lon="17.59978">
        <ele>40</ele>
        <time>2020-03-26T13:23:00Z</time>
        <extensions><gpxtpx:TrackPointExtension><gpxtpx:hr>145</gpxtpx:hr></gpxtpx:TrackPointExtension></extensions>
      </trkpt>
      <trkpt lat="59.201373" lon="17.599908">
        <ele>40</ele>
        <time>2020-03-26T13:23:01Z</time>
        <extensions><gpxtpx:TrackPointExtension><gpxtpx:hr>145</gpxtpx:hr></gpxtpx:TrackPointExtension></extensions>
      </trkpt>
      <trkpt lat="59.201455" lon="17.600036">
        <ele>39.8</ele>
        <time>2020-03-26T13:23:02Z</time>
        <extensions><gpxtpx:TrackPointExtension><gpxtpx:hr>145</gpxtpx:hr></gpxtpx:TrackPointExtension></extensions>
      </trkpt>
      <trkpt lat="59.201517" lon="17.600132">
        <ele>39.8</ele>
        <time>2020-03-26T13:23:03Z</time>
        <extensions><gpxtpx:TrackPointExtension><gpxtpx:hr>145</gpxtpx:hr></gpxtpx:TrackPointExtension></extensions>
      </trkpt>
      <trkpt lat="59.201578" lon="17.600229">
        <ele>39.6</ele>
        <time>2020-03-26T13:23:04Z</time>
        <extensions><gpxtpx:TrackPointExtension><gpxtpx:hr>145</gpxtpx:hr></gpxtpx:TrackPointExtension></extensions>
      </trkpt>
      <trkpt lat="59.2017" lon="17.600422">
        <ele>39.6</ele>
        <time>2020-03-26T13:23:05Z</time>
        <extensions><gpxtpx:TrackPointExtension><gpxtpx:hr>145</gpxtpx:hr></gpxtpx:TrackPointExtension></extensions>
      </trkpt>
      <trkpt lat="59.201775" lon="17.600556">
        <ele>39.4</ele>
        <time>2020-03-26T13:23:06Z</time>
        <extensions><gpxtpx:TrackPointExtension><gpxtpx:hr>145</gpxtpx:hr></gpxtpx:TrackPointExtension></extensions>
      </trkpt>
      <trkpt lat="59.201848" lon="17.600691">
        <ele>39.4</ele>
        <time>2020-03-26T13:23:07Z</time>
        <extensions><gpxtpx:TrackPointExtension><gpxtpx:hr>144</gpxtpx:hr></gpxtpx:TrackPointExtension></extensions>
      </trkpt>
      <trkpt lat="59.201922" lon="17.600829">
        <ele>39.2</ele>
        <time>2020-03-26T13:23:08Z</time>
        <extensions><gpxtpx:TrackPointExtension><gpxtpx:hr>144</gpxtpx:hr></gpxtpx:TrackPointExtension></extensions>
      </trkpt>
      <trkpt lat="59.201993" lon="17.600973">
        <ele>39</ele>
        <time>2020-03-26T13:23:09Z</time>
        <extensions><gpxtpx:TrackPointExtension><gpxtpx:hr>144</gpxtpx:hr></gpxtpx:TrackPointExtension></extensions>
      </trkpt>
      <trkpt lat="59.202062" lon="17.601121">
        <ele>38.6</ele>
        <time>2020-03-26T13:23:10Z</time>
        <extensions><gpxtpx:TrackPointExtension><gpxtpx:hr>144</gpxtpx:hr></gpxtpx:TrackPointExtension></extensions>
      </trkpt>
      <trkpt lat="59.202131" lon="17.601271">
        <ele>38</ele>
        <time>2020-03-26T13:23:11Z</time>
        <extensions><gpxtpx:TrackPointExtension><gpxtpx:hr>143</gpxtpx:hr></gpxtpx:TrackPointExtension></extensions>
      </trkpt>
      <trkpt lat="59.202196" lon="17.601426">
        <ele>37.4</ele>
        <time>2020-03-26T13:23:12Z</time>
        <extensions><gpxtpx:TrackPointExtension><gpxtpx:hr>143</gpxtpx:hr></gpxtpx:TrackPointExtension></extensions>
      </trkpt>
      <trkpt lat="59.202261" lon="17.601583">
        <ele>36.8</ele>
        <time>2020-03-26T13:23:13Z</time>
        <extensions><gpxtpx:TrackPointExtension><gpxtpx:hr>143</gpxtpx:hr></gpxtpx:TrackPointExtension></extensions>
      </trkpt>
      <trkpt lat="59.202323" lon="17.601742">
        <ele>36.4</ele>
        <time>2020-03-26T13:23:14Z</time>
        <extensions><gpxtpx:TrackPointExtension><gpxtpx:hr>142</gpxtpx:hr></gpxtpx:TrackPointExtension></extensions>
      </trkpt>
      <trkpt lat="59.202382" lon="17.601905">
        <ele>36</ele>
        <time>2020-03-26T13:23:15Z</time>
        <extensions><gpxtpx:TrackPointExtension><gpxtpx:hr>142</gpxtpx:hr></gpxtpx:TrackPointExtension></extensions>
      </trkpt>
      <trkpt lat="59.202436" lon="17.602072">
        <ele>35.8</ele>
        <time>2020-03-26T13:23:16Z</time>
        <extensions><gpxtpx:TrackPointExtension><gpxtpx:hr>141</gpxtpx:hr></gpxtpx:TrackPointExtension></extensions>
      </trkpt>
      <trkpt lat="59.202486" lon="17.602241">
        <ele>35.4</ele>
        <time>2020-03-26T13:23:17Z</time>
        <extensions><gpxtpx:TrackPointExtension><gpxtpx:hr>140</gpxtpx:hr></gpxtpx:TrackPointExtension></extensions>
      </trkpt>
      <trkpt lat="59.202534" lon="17.602414">
        <ele>35.2</ele>
        <time>2020-03-26T13:23:18Z</time>
        <extensions><gpxtpx:TrackPointExtension><gpxtpx:hr>139</gpxtpx:hr></gpxtpx:TrackPointExtension></extensions>
      </trkpt>
      <trkpt lat="59.202578" lon="17.60259">
        <ele>35.2</ele>
        <time>2020-03-26T13:23:19Z</time>
        <extensions><gpxtpx:TrackPointExtension><gpxtpx:hr>138</gpxtpx:hr></gpxtpx:TrackPointExtension></extensions>
      </trkpt>
      <trkpt lat="59.202617" lon="17.60277">
        <ele>35</ele>
        <time>2020-03-26T13:23:20Z</time>
        <extensions><gpxtpx:TrackPointExtension><gpxtpx:hr>138</gpxtpx:hr></gpxtpx:TrackPointExtension></extensions>
      </trkpt>
      <trkpt lat="59.202649" lon="17.602952">
        <ele>34.6</ele>
        <time>2020-03-26T13:23:21Z</time>
        <extensions><gpxtpx:TrackPointExtension><gpxtpx:hr>138</gpxtpx:hr></gpxtpx:TrackPointExtension></extensions>
      </trkpt>
      <trkpt lat="59.202678" lon="17.603135">
        <ele>34.4</ele>
        <time>2020-03-26T13:23:22Z</time>
        <extensions><gpxtpx:TrackPointExtension><gpxtpx:hr>138</gpxtpx:hr></gpxtpx:TrackPointExtension></extensions>
      </trkpt>
      <trkpt lat="59.202704" lon="17.603317">
        <ele>34.2</ele>
        <time>2020-03-26T13:23:23Z</time>
        <extensions><gpxtpx:TrackPointExtension><gpxtpx:hr>138</gpxtpx:hr></gpxtpx:TrackPointExtension></extensions>
      </trkpt>
      <trkpt lat="59.202728" lon="17.603497">
        <ele>34</ele>
        <time>2020-03-26T13:23:24Z</time>
        <extensions><gpxtpx:TrackPointExtension><gpxtpx:hr>138</gpxtpx:hr></gpxtpx:TrackPointExtension></extensions>
      </trkpt>
      <trkpt lat="59.20275" lon="17.603675">
        <ele>33.8</ele>
        <time>2020-03-26T13:23:25Z</time>
        <extensions><gpxtpx:TrackPointExtension><gpxtpx:hr>138</gpxtpx:hr></gpxtpx:TrackPointExtension></extensions>
      </trkpt>
      <trkpt lat="59.202768" lon="17.603853">
        <ele>33.8</ele>
        <time>2020-03-26T13:23:26Z</time>
        <extensions><gpxtpx:TrackPointExtension><gpxtpx:hr>138</gpxtpx:hr></gpxtpx:TrackPointExtension></extensions>
      </trkpt>
      <trkpt lat="59.202779" lon="17.604032">
        <ele>33.8</ele>
        <time>2020-03-26T13:23:27Z</time>
        <extensions><gpxtpx:TrackPointExtension><gpxtpx:hr>137</gpxtpx:hr></gpxtpx:TrackPointExtension></extensions>
      </trkpt>
      <trkpt lat="59.202789" lon="17.604208">
        <ele>33.8</ele>
        <time>2020-03-26T13:23:28Z</time>
        <extensions><gpxtpx:TrackPointExtension><gpxtpx:hr>136</gpxtpx:hr></gpxtpx:TrackPointExtension></extensions>
      </trkpt>
      <trkpt lat="59.202799" lon="17.604383">
        <ele>33.8</ele>
        <time>2020-03-26T13:23:29Z</time>
        <extensions><gpxtpx:TrackPointExtension><gpxtpx:hr>135</gpxtpx:hr></gpxtpx:TrackPointExtension></extensions>
      </trkpt>
      <trkpt lat="59.20281" lon="17.604555">
        <ele>33.8</ele>
        <time>2020-03-26T13:23:30Z</time>
        <extensions><gpxtpx:TrackPointExtension><gpxtpx:hr>135</gpxtpx:hr></gpxtpx:TrackPointExtension></extensions>
      </trkpt>
      <trkpt lat="59.20282" lon="17.604727">
        <ele>33.8</ele>
        <time>2020-03-26T13:23:31Z</time>
        <extensions><gpxtpx:TrackPointExtension><gpxtpx:hr>135</gpxtpx:hr></gpxtpx:TrackPointExtension></extensions>
      </trkpt>
      <trkpt lat="59.202829" lon="17.604897">
        <ele>33.8</ele>
        <time>2020-03-26T13:23:32Z</time>
        <extensions><gpxtpx:TrackPointExtension><gpxtpx:hr>135</gpxtpx:hr></gpxtpx:TrackPointExtension></extensions>
      </trkpt>
      <trkpt lat="59.202837" lon="17.605067">
        <ele>33.8</ele>
        <time>2020-03-26T13:23:33Z</time>
        <extensions><gpxtpx:TrackPointExtension><gpxtpx:hr>135</gpxtpx:hr></gpxtpx:TrackPointExtension></extensions>
      </trkpt>
      <trkpt lat="59.202845" lon="17.605238">
        <ele>34</ele>
        <time>2020-03-26T13:23:34Z</time>
        <extensions><gpxtpx:TrackPointExtension><gpxtpx:hr>135</gpxtpx:hr></gpxtpx:TrackPointExtension></extensions>
      </trkpt>
      <trkpt lat="59.202852" lon="17.605409">
        <ele>34.2</ele>
        <time>2020-03-26T13:23:35Z</time>
        <extensions><gpxtpx:TrackPointExtension><gpxtpx:hr>136</gpxtpx:hr></gpxtpx:TrackPointExtension></extensions>
      </trkpt>
      <trkpt lat="59.20286" lon="17.60558">
        <ele>34.4</ele>
        <time>2020-03-26T13:23:36Z</time>
        <extensions><gpxtpx:TrackPointExtension><gpxtpx:hr>137</gpxtpx:hr></gpxtpx:TrackPointExtension></extensions>
      </trkpt>
      <trkpt lat="59.202868" lon="17.60575">
        <ele>34.6</ele>
        <time>2020-03-26T13:23:37Z</time>
        <extensions><gpxtpx:TrackPointExtension><gpxtpx:hr>137</gpxtpx:hr></gpxtpx:TrackPointExtension></extensions>
      </trkpt>
      <trkpt lat="59.202873" lon="17.605878">
        <ele>34.6</ele>
        <time>2020-03-26T13:23:38Z</time>
        <extensions><gpxtpx:TrackPointExtension><gpxtpx:hr>138</gpxtpx:hr></gpxtpx:TrackPointExtension></extensions>
      </trkpt>
      <trkpt lat="59.202878" lon="17.606007">
        <ele>34.8</ele>
        <time>2020-03-26T13:23:39Z</time>
        <extensions><gpxtpx:TrackPointExtension><gpxtpx:hr>138</gpxtpx:hr></gpxtpx:TrackPointExtension></extensions>
      </trkpt>
      <trkpt lat="59.202887" lon="17.606264">
        <ele>34.8</ele>
        <time>2020-03-26T13:23:40Z</time>
        <extensions><gpxtpx:TrackPointExtension><gpxtpx:hr>138</gpxtpx:hr></gpxtpx:TrackPointExtension></extensions>
      </trkpt>
      <trkpt lat="59.202889" lon="17.606435">
        <ele>34.8</ele>
        <time>2020-03-26T13:23:41Z</time>
        <extensions><gpxtpx:TrackPointExtension><gpxtpx:hr>139</gpxtpx:hr></gpxtpx:TrackPointExtension></extensions>
      </trkpt>
      <trkpt lat="59.202889" lon="17.606603">
        <ele>35</ele>
        <time>2020-03-26T13:23:42Z</time>
        <extensions><gpxtpx:TrackPointExtension><gpxtpx:hr>140</gpxtpx:hr></gpxtpx:TrackPointExtension></extensions>
      </trkpt>
      <trkpt lat="59.20289" lon="17.606767">
        <ele>35</ele>
        <time>2020-03-26T13:23:43Z</time>
        <extensions><gpxtpx:TrackPointExtension><gpxtpx:hr>141</gpxtpx:hr></gpxtpx:TrackPointExtension></extensions>
      </trkpt>
      <trkpt lat="59.202888" lon="17.60693">
        <ele>35.2</ele>
        <time>2020-03-26T13:23:44Z</time>
        <extensions><gpxtpx:TrackPointExtension><gpxtpx:hr>142</gpxtpx:hr></gpxtpx:TrackPointExtension></extensions>
      </trkpt>
      <trkpt lat="59.202885" lon="17.607091">
        <ele>35.2</ele>
        <time>2020-03-26T13:23:45Z</time>
        <extensions><gpxtpx:TrackPointExtension><gpxtpx:hr>142</gpxtpx:hr></gpxtpx:TrackPointExtension></extensions>
      </trkpt>
      <trkpt lat="59.202882" lon="17.607253">
        <ele>35.4</ele>
        <time>2020-03-26T13:23:46Z</time>
        <extensions><gpxtpx:TrackPointExtension><gpxtpx:hr>142</gpxtpx:hr></gpxtpx:TrackPointExtension></extensions>
      </trkpt>
      <trkpt lat="59.20288" lon="17.607416">
        <ele>35.4</ele>
        <time>2020-03-26T13:23:47Z</time>
        <extensions><gpxtpx:TrackPointExtension><gpxtpx:hr>142</gpxtpx:hr></gpxtpx:TrackPointExtension></extensions>
      </trkpt>
      <trkpt lat="59.202874" lon="17.607581">
        <ele>35.6</ele>
        <time>2020-03-26T13:23:48Z</time>
        <extensions><gpxtpx:TrackPointExtension><gpxtpx:hr>141</gpxtpx:hr></gpxtpx:TrackPointExtension></extensions>
      </trkpt>
      <trkpt lat="59.202866" lon="17.607746">
        <ele>35.6</ele>
        <time>2020-03-26T13:23:49Z</time>
        <extensions><gpxtpx:TrackPointExtension><gpxtpx:hr>141</gpxtpx:hr></gpxtpx:TrackPointExtension></extensions>
      </trkpt>
      <trkpt lat="59.202856" lon="17.607912">
        <ele>35.6</ele>
        <time>2020-03-26T13:23:50Z</time>
        <extensions><gpxtpx:TrackPointExtension><gpxtpx:hr>141</gpxtpx:hr></gpxtpx:TrackPointExtension></extensions>
      </trkpt>
      <trkpt lat="59.202844" lon="17.608079">
        <ele>35.6</ele>
        <time>2020-03-26T13:23:51Z</time>
        <extensions><gpxtpx:TrackPointExtension><gpxtpx:hr>140</gpxtpx:hr></gpxtpx:TrackPointExtension></extensions>
      </trkpt>
      <trkpt lat="59.202831" lon="17.608246">
        <ele>35.6</ele>
        <time>2020-03-26T13:23:52Z</time>
        <extensions><gpxtpx:TrackPointExtension><gpxtpx:hr>140</gpxtpx:hr></gpxtpx:TrackPointExtension></extensions>
      </trkpt>
      <trkpt lat="59.202815" lon="17.608413">
        <ele>35.6</ele>
        <time>2020-03-26T13:23:53Z</time>
        <extensions><gpxtpx:TrackPointExtension><gpxtpx:hr>140</gpxtpx:hr></gpxtpx:TrackPointExtension></extensions>
      </trkpt>
      <trkpt lat="59.202799" lon="17.608582">
        <ele>35.6</ele>
        <time>2020-03-26T13:23:54Z</time>
        <extensions><gpxtpx:TrackPointExtension><gpxtpx:hr>139</gpxtpx:hr></gpxtpx:TrackPointExtension></extensions>
      </trkpt>
      <trkpt lat="59.202783" lon="17.60875">
        <ele>35.6</ele>
        <time>2020-03-26T13:23:55Z</time>
        <extensions><gpxtpx:TrackPointExtension><gpxtpx:hr>139</gpxtpx:hr></gpxtpx:TrackPointExtension></extensions>
      </trkpt>
      <trkpt lat="59.202766" lon="17.60892">
        <ele>35.6</ele>
        <time>2020-03-26T13:23:56Z</time>
        <extensions><gpxtpx:TrackPointExtension><gpxtpx:hr>138</gpxtpx:hr></gpxtpx:TrackPointExtension></extensions>
      </trkpt>
      <trkpt lat="59.20275" lon="17.609091">
        <ele>35.4</ele>
        <time>2020-03-26T13:23:57Z</time>
        <extensions><gpxtpx:TrackPointExtension><gpxtpx:hr>137</gpxtpx:hr></gpxtpx:TrackPointExtension></extensions>
      </trkpt>
      <trkpt lat="59.202733" lon="17.609261">
        <ele>35.4</ele>
        <time>2020-03-26T13:23:58Z</time>
        <extensions><gpxtpx:TrackPointExtension><gpxtpx:hr>137</gpxtpx:hr></gpxtpx:TrackPointExtension></extensions>
      </trkpt>
      <trkpt lat="59.202715" lon="17.609432">
        <ele>35.2</ele>
        <time>2020-03-26T13:23:59Z</time>
        <extensions><gpxtpx:TrackPointExtension><gpxtpx:hr>136</gpxtpx:hr></gpxtpx:TrackPointExtension></extensions>
      </trkpt>
      <trkpt lat="59.202697" lon="17.609604">
        <ele>34.6</ele>
        <time>2020-03-26T13:24:00Z</time>
        <extensions><gpxtpx:TrackPointExtension><gpxtpx:hr>135</gpxtpx:hr></gpxtpx:TrackPointExtension></extensions>
      </trkpt>
      <trkpt lat="59.20268" lon="17.609777">
        <ele>34.4</ele>
        <time>2020-03-26T13:24:01Z</time>
        <extensions><gpxtpx:TrackPointExtension><gpxtpx:hr>134</gpxtpx:hr></gpxtpx:TrackPointExtension></extensions>
      </trkpt>
      <trkpt lat="59.202663" lon="17.609952">
        <ele>34.2</ele>
        <time>2020-03-26T13:24:02Z</time>
        <extensions><gpxtpx:TrackPointExtension><gpxtpx:hr>133</gpxtpx:hr></gpxtpx:TrackPointExtension></extensions>
      </trkpt>
      <trkpt lat="59.202647" lon="17.610126">
        <ele>33.8</ele>
        <time>2020-03-26T13:24:03Z</time>
        <extensions><gpxtpx:TrackPointExtension><gpxtpx:hr>132</gpxtpx:hr></gpxtpx:TrackPointExtension></extensions>
      </trkpt>
      <trkpt lat="59.202629" lon="17.610303">
        <ele>33.4</ele>
        <time>2020-03-26T13:24:04Z</time>
        <extensions><gpxtpx:TrackPointExtension><gpxtpx:hr>131</gpxtpx:hr></gpxtpx:TrackPointExtension></extensions>
      </trkpt>
      <trkpt lat="59.202612" lon="17.610481">
        <ele>33.2</ele>
        <time>2020-03-26T13:24:05Z</time>
        <extensions><gpxtpx:TrackPointExtension><gpxtpx:hr>131</gpxtpx:hr></gpxtpx:TrackPointExtension></extensions>
      </trkpt>
      <trkpt lat="59.202595" lon="17.610661">
        <ele>33</ele>
        <time>2020-03-26T13:24:06Z</time>
        <extensions><gpxtpx:TrackPointExtension><gpxtpx:hr>131</gpxtpx:hr></gpxtpx:TrackPointExtension></extensions>
      </trkpt>
      <trkpt lat="59.202577" lon="17.610841">
        <ele>32.8</ele>
        <time>2020-03-26T13:24:07Z</time>
        <extensions><gpxtpx:TrackPointExtension><gpxtpx:hr>131</gpxtpx:hr></gpxtpx:TrackPointExtension></extensions>
      </trkpt>
      <trkpt lat="59.202559" lon="17.611022">
        <ele>32.6</ele>
        <time>2020-03-26T13:24:08Z</time>
        <extensions><gpxtpx:TrackPointExtension><gpxtpx:hr>131</gpxtpx:hr></gpxtpx:TrackPointExtension></extensions>
      </trkpt>
      <trkpt lat="59.20254" lon="17.611205">
        <ele>32.4</ele>
        <time>2020-03-26T13:24:09Z</time>
        <extensions><gpxtpx:TrackPointExtension><gpxtpx:hr>131</gpxtpx:hr></gpxtpx:TrackPointExtension></extensions>
      </trkpt>
      <trkpt lat="59.20252" lon="17.611389">
        <ele>32.2</ele>
        <time>2020-03-26T13:24:10Z</time>
        <extensions><gpxtpx:TrackPointExtension><gpxtpx:hr>131</gpxtpx:hr></gpxtpx:TrackPointExtension></extensions>
      </trkpt>
      <trkpt lat="59.2025" lon="17.611575">
        <ele>32</ele>
        <time>2020-03-26T13:24:11Z</time>
        <extensions><gpxtpx:TrackPointExtension><gpxtpx:hr>131</gpxtpx:hr></gpxtpx:TrackPointExtension></extensions>
      </trkpt>
      <trkpt lat="59.20248" lon="17.61176">
        <ele>31.8</ele>
        <time>2020-03-26T13:24:12Z</time>
        <extensions><gpxtpx:TrackPointExtension><gpxtpx:hr>130</gpxtpx:hr></gpxtpx:TrackPointExtension></extensions>
      </trkpt>
      <trkpt lat="59.202459" lon="17.611946">
        <ele>31.6</ele>
        <time>2020-03-26T13:24:13Z</time>
        <extensions><gpxtpx:TrackPointExtension><gpxtpx:hr>130</gpxtpx:hr></gpxtpx:TrackPointExtension></extensions>
      </trkpt>
      <trkpt lat="59.202438" lon="17.612133">
        <ele>31.6</ele>
        <time>2020-03-26T13:24:14Z</time>
        <extensions><gpxtpx:TrackPointExtension><gpxtpx:hr>130</gpxtpx:hr></gpxtpx:TrackPointExtension></extensions>
      </trkpt>
      <trkpt lat="59.202416" lon="17.612319">
        <ele>31.6</ele>
        <time>2020-03-26T13:24:15Z</time>
        <extensions><gpxtpx:TrackPointExtension><gpxtpx:hr>130</gpxtpx:hr></gpxtpx:TrackPointExtension></extensions>
      </trkpt>
      <trkpt lat="59.20239" lon="17.612501">
        <ele>31.4</ele>
        <time>2020-03-26T13:24:16Z</time>
        <extensions><gpxtpx:TrackPointExtension><gpxtpx:hr>130</gpxtpx:hr></gpxtpx:TrackPointExtension></extensions>
      </trkpt>
      <trkpt lat="59.202361" lon="17.612679">
        <ele>31.2</ele>
        <time>2020-03-26T13:24:17Z</time>
        <extensions><gpxtpx:TrackPointExtension><gpxtpx:hr>131</gpxtpx:hr></gpxtpx:TrackPointExtension></extensions>
      </trkpt>
      <trkpt lat="59.20233" lon="17.612856">
        <ele>31.2</ele>
        <time>2020-03-26T13:24:18Z</time>
        <extensions><gpxtpx:TrackPointExtension><gpxtpx:hr>131</gpxtpx:hr></gpxtpx:TrackPointExtension></extensions>
      </trkpt>
      <trkpt lat="59.202297" lon="17.613032">
        <ele>31.2</ele>
        <time>2020-03-26T13:24:19Z</time>
        <extensions><gpxtpx:TrackPointExtension><gpxtpx:hr>132</gpxtpx:hr></gpxtpx:TrackPointExtension></extensions>
      </trkpt>
      <trkpt lat="59.202262" lon="17.613208">
        <ele>31</ele>
        <time>2020-03-26T13:24:20Z</time>
        <extensions><gpxtpx:TrackPointExtension><gpxtpx:hr>132</gpxtpx:hr></gpxtpx:TrackPointExtension></extensions>
      </trkpt>
      <trkpt lat="59.202226" lon="17.613384">
        <ele>31</ele>
        <time>2020-03-26T13:24:21Z</time>
        <extensions><gpxtpx:TrackPointExtension><gpxtpx:hr>133</gpxtpx:hr></gpxtpx:TrackPointExtension></extensions>
      </trkpt>
      <trkpt lat="59.202188" lon="17.613559">
        <ele>30.8</ele>
        <time>2020-03-26T13:24:22Z</time>
        <extensions><gpxtpx:TrackPointExtension><gpxtpx:hr>134</gpxtpx:hr></gpxtpx:TrackPointExtension></extensions>
      </trkpt>
      <trkpt lat="59.20215" lon="17.613734">
        <ele>30.8</ele>
        <time>2020-03-26T13:24:23Z</time>
        <extensions><gpxtpx:TrackPointExtension><gpxtpx:hr>135</gpxtpx:hr></gpxtpx:TrackPointExtension></extensions>
      </trkpt>
      <trkpt lat="59.202111" lon="17.613908">
        <ele>30.8</ele>
        <time>2020-03-26T13:24:24Z</time>
        <extensions><gpxtpx:TrackPointExtension><gpxtpx:hr>135</gpxtpx:hr></gpxtpx:TrackPointExtension></extensions>
      </trkpt>
      <trkpt lat="59.202071" lon="17.614083">
        <ele>30.8</ele>
        <time>2020-03-26T13:24:25Z</time>
        <extensions><gpxtpx:TrackPointExtension><gpxtpx:hr>136</gpxtpx:hr></gpxtpx:TrackPointExtension></extensions>
      </trkpt>
      <trkpt lat="59.20203" lon="17.614257">
        <ele>30.8</ele>
        <time>2020-03-26T13:24:26Z</time>
        <extensions><gpxtpx:TrackPointExtension><gpxtpx:hr>136</gpxtpx:hr></gpxtpx:TrackPointExtension></extensions>
      </trkpt>
      <trkpt lat="59.201989" lon="17.61443">
        <ele>30.6</ele>
        <time>2020-03-26T13:24:27Z</time>
        <extensions><gpxtpx:TrackPointExtension><gpxtpx:hr>137</gpxtpx:hr></gpxtpx:TrackPointExtension></extensions>
      </trkpt>
      <trkpt lat="59.201949" lon="17.614599">
        <ele>30.6</ele>
        <time>2020-03-26T13:24:28Z</time>
        <extensions><gpxtpx:TrackPointExtension><gpxtpx:hr>137</gpxtpx:hr></gpxtpx:TrackPointExtension></extensions>
      </trkpt>
      <trkpt lat="59.201909" lon="17.614765">
        <ele>30.6</ele>
        <time>2020-03-26T13:24:29Z</time>
        <extensions><gpxtpx:TrackPointExtension><gpxtpx:hr>137</gpxtpx:hr></gpxtpx:TrackPointExtension></extensions>
      </trkpt>
      <trkpt lat="59.201869" lon="17.614927">
        <ele>30.6</ele>
        <time>2020-03-26T13:24:30Z</time>
        <extensions><gpxtpx:TrackPointExtension><gpxtpx:hr>137</gpxtpx:hr></gpxtpx:TrackPointExtension></extensions>
      </trkpt>
      <trkpt lat="59.201828" lon="17.615084">
        <ele>30.6</ele>
        <time>2020-03-26T13:24:31Z</time>
        <extensions><gpxtpx:TrackPointExtension><gpxtpx:hr>138</gpxtpx:hr></gpxtpx:TrackPointExtension></extensions>
      </trkpt>
      <trkpt lat="59.201788" lon="17.615239">
        <ele>30.4</ele>
        <time>2020-03-26T13:24:32Z</time>
        <extensions><gpxtpx:TrackPointExtension><gpxtpx:hr>138</gpxtpx:hr></gpxtpx:TrackPointExtension></extensions>
      </trkpt>
      <trkpt lat="59.201746" lon="17.615389">
        <ele>30.4</ele>
        <time>2020-03-26T13:24:33Z</time>
        <extensions><gpxtpx:TrackPointExtension><gpxtpx:hr>137</gpxtpx:hr></gpxtpx:TrackPointExtension></extensions>
      </trkpt>
      <trkpt lat="59.201703" lon="17.615531">
        <ele>30.2</ele>
        <time>2020-03-26T13:24:34Z</time>
        <extensions><gpxtpx:TrackPointExtension><gpxtpx:hr>137</gpxtpx:hr></gpxtpx:TrackPointExtension></extensions>
      </trkpt>
      <trkpt lat="59.201657" lon="17.615667">
        <ele>30</ele>
        <time>2020-03-26T13:24:35Z</time>
        <extensions><gpxtpx:TrackPointExtension><gpxtpx:hr>137</gpxtpx:hr></gpxtpx:TrackPointExtension></extensions>
      </trkpt>
      <trkpt lat="59.20161" lon="17.615798">
        <ele>29.8</ele>
        <time>2020-03-26T13:24:36Z</time>
        <extensions><gpxtpx:TrackPointExtension><gpxtpx:hr>136</gpxtpx:hr></gpxtpx:TrackPointExtension></extensions>
      </trkpt>
      <trkpt lat="59.201561" lon="17.615927">
        <ele>29.8</ele>
        <time>2020-03-26T13:24:37Z</time>
        <extensions><gpxtpx:TrackPointExtension><gpxtpx:hr>135</gpxtpx:hr></gpxtpx:TrackPointExtension></extensions>
      </trkpt>
      <trkpt lat="59.201511" lon="17.616051">
        <ele>29.8</ele>
        <time>2020-03-26T13:24:38Z</time>
        <extensions><gpxtpx:TrackPointExtension><gpxtpx:hr>134</gpxtpx:hr></gpxtpx:TrackPointExtension></extensions>
      </trkpt>
      <trkpt lat="59.201458" lon="17.61617">
        <ele>29.8</ele>
        <time>2020-03-26T13:24:39Z</time>
        <extensions><gpxtpx:TrackPointExtension><gpxtpx:hr>134</gpxtpx:hr></gpxtpx:TrackPointExtension></extensions>
      </trkpt>
      <trkpt lat="59.201404" lon="17.616282">
        <ele>29.6</ele>
        <time>2020-03-26T13:24:40Z</time>
        <extensions><gpxtpx:TrackPointExtension><gpxtpx:hr>134</gpxtpx:hr></gpxtpx:TrackPointExtension></extensions>
      </trkpt>
      <trkpt lat="59.201348" lon="17.616388">
        <ele>29.6</ele>
        <time>2020-03-26T13:24:41Z</time>
        <extensions><gpxtpx:TrackPointExtension><gpxtpx:hr>134</gpxtpx:hr></gpxtpx:TrackPointExtension></extensions>
      </trkpt>
      <trkpt lat="59.20129" lon="17.616486">
        <ele>29.6</ele>
        <time>2020-03-26T13:24:42Z</time>
        <extensions><gpxtpx:TrackPointExtension><gpxtpx:hr>134</gpxtpx:hr></gpxtpx:TrackPointExtension></extensions>
      </trkpt>
      <trkpt lat="59.201231" lon="17.61658">
        <ele>29.6</ele>
        <time>2020-03-26T13:24:43Z</time>
        <extensions><gpxtpx:TrackPointExtension><gpxtpx:hr>135</gpxtpx:hr></gpxtpx:TrackPointExtension></extensions>
      </trkpt>
      <trkpt lat="59.201171" lon="17.616678">
        <ele>29.6</ele>
        <time>2020-03-26T13:24:44Z</time>
        <extensions><gpxtpx:TrackPointExtension><gpxtpx:hr>135</gpxtpx:hr></gpxtpx:TrackPointExtension></extensions>
      </trkpt>
      <trkpt lat="59.20111" lon="17.616768">
        <ele>29.6</ele>
        <time>2020-03-26T13:24:45Z</time>
        <extensions><gpxtpx:TrackPointExtension><gpxtpx:hr>135</gpxtpx:hr></gpxtpx:TrackPointExtension></extensions>
      </trkpt>
      <trkpt lat="59.201046" lon="17.61685">
        <ele>29.6</ele>
        <time>2020-03-26T13:24:46Z</time>
        <extensions><gpxtpx:TrackPointExtension><gpxtpx:hr>136</gpxtpx:hr></gpxtpx:TrackPointExtension></extensions>
      </trkpt>
      <trkpt lat="59.200981" lon="17.616928">
        <ele>29.6</ele>
        <time>2020-03-26T13:24:47Z</time>
        <extensions><gpxtpx:TrackPointExtension><gpxtpx:hr>136</gpxtpx:hr></gpxtpx:TrackPointExtension></extensions>
      </trkpt>
      <trkpt lat="59.200917" lon="17.617005">
        <ele>29.6</ele>
        <time>2020-03-26T13:24:48Z</time>
        <extensions><gpxtpx:TrackPointExtension><gpxtpx:hr>136</gpxtpx:hr></gpxtpx:TrackPointExtension></extensions>
      </trkpt>
      <trkpt lat="59.200853" lon="17.617079">
        <ele>29.6</ele>
        <time>2020-03-26T13:24:49Z</time>
        <extensions><gpxtpx:TrackPointExtension><gpxtpx:hr>136</gpxtpx:hr></gpxtpx:TrackPointExtension></extensions>
      </trkpt>
      <trkpt lat="59.200792" lon="17.617155">
        <ele>29.8</ele>
        <time>2020-03-26T13:24:50Z</time>
        <extensions><gpxtpx:TrackPointExtension><gpxtpx:hr>136</gpxtpx:hr></gpxtpx:TrackPointExtension></extensions>
      </trkpt>
      <trkpt lat="59.200734" lon="17.617228">
        <ele>29.8</ele>
        <time>2020-03-26T13:24:51Z</time>
        <extensions><gpxtpx:TrackPointExtension><gpxtpx:hr>136</gpxtpx:hr></gpxtpx:TrackPointExtension></extensions>
      </trkpt>
      <trkpt lat="59.200677" lon="17.617294">
        <ele>30</ele>
        <time>2020-03-26T13:24:52Z</time>
        <extensions><gpxtpx:TrackPointExtension><gpxtpx:hr>136</gpxtpx:hr></gpxtpx:TrackPointExtension></extensions>
      </trkpt>
      <trkpt lat="59.200622" lon="17.617349">
        <ele>30</ele>
        <time>2020-03-26T13:24:53Z</time>
        <extensions><gpxtpx:TrackPointExtension><gpxtpx:hr>135</gpxtpx:hr></gpxtpx:TrackPointExtension></extensions>
      </trkpt>
      <trkpt lat="59.200567" lon="17.617402">
        <ele>30</ele>
        <time>2020-03-26T13:24:54Z</time>
        <extensions><gpxtpx:TrackPointExtension><gpxtpx:hr>135</gpxtpx:hr></gpxtpx:TrackPointExtension></extensions>
      </trkpt>
      <trkpt lat="59.200513" lon="17.617457">
        <ele>30.2</ele>
        <time>2020-03-26T13:24:55Z</time>
        <extensions><gpxtpx:TrackPointExtension><gpxtpx:hr>135</gpxtpx:hr></gpxtpx:TrackPointExtension></extensions>
      </trkpt>
      <trkpt lat="59.200459" lon="17.617513">
        <ele>30.2</ele>
        <time>2020-03-26T13:24:56Z</time>
        <extensions><gpxtpx:TrackPointExtension><gpxtpx:hr>135</gpxtpx:hr></gpxtpx:TrackPointExtension></extensions>
      </trkpt>
      <trkpt lat="59.200408" lon="17.61757">
        <ele>30.4</ele>
        <time>2020-03-26T13:24:57Z</time>
        <extensions><gpxtpx:TrackPointExtension><gpxtpx:hr>135</gpxtpx:hr></gpxtpx:TrackPointExtension></extensions>
      </trkpt>
      <trkpt lat="59.200358" lon="17.617621">
        <ele>30.6</ele>
        <time>2020-03-26T13:24:58Z</time>
        <extensions><gpxtpx:TrackPointExtension><gpxtpx:hr>135</gpxtpx:hr></gpxtpx:TrackPointExtension></extensions>
      </trkpt>
      <trkpt lat="59.200312" lon="17.61767">
        <ele>30.6</ele>
        <time>2020-03-26T13:24:59Z</time>
        <extensions><gpxtpx:TrackPointExtension><gpxtpx:hr>135</gpxtpx:hr></gpxtpx:TrackPointExtension></extensions>
      </trkpt>
      <trkpt lat="59.200268" lon="17.617717">
        <ele>30.6</ele>
        <time>2020-03-26T13:25:00Z</time>
        <extensions><gpxtpx:TrackPointExtension><gpxtpx:hr>135</gpxtpx:hr></gpxtpx:TrackPointExtension></extensions>
      </trkpt>
      <trkpt lat="59.200223" lon="17.617769">
        <ele>30.8</ele>
        <time>2020-03-26T13:25:01Z</time>
        <extensions><gpxtpx:TrackPointExtension><gpxtpx:hr>134</gpxtpx:hr></gpxtpx:TrackPointExtension></extensions>
      </trkpt>
      <trkpt lat="59.200177" lon="17.617826">
        <ele>31</ele>
        <time>2020-03-26T13:25:02Z</time>
        <extensions><gpxtpx:TrackPointExtension><gpxtpx:hr>134</gpxtpx:hr></gpxtpx:TrackPointExtension></extensions>
      </trkpt>
      <trkpt lat="59.200126" lon="17.61788">
        <ele>31.2</ele>
        <time>2020-03-26T13:25:03Z</time>
        <extensions><gpxtpx:TrackPointExtension><gpxtpx:hr>135</gpxtpx:hr></gpxtpx:TrackPointExtension></extensions>
      </trkpt>
      <trkpt lat="59.200067" lon="17.617931">
        <ele>31.4</ele>
        <time>2020-03-26T13:25:04Z</time>
        <extensions><gpxtpx:TrackPointExtension><gpxtpx:hr>135</gpxtpx:hr></gpxtpx:TrackPointExtension></extensions>
      </trkpt>
      <trkpt lat="59.200005" lon="17.617988">
        <ele>31.4</ele>
        <time>2020-03-26T13:25:05Z</time>
        <extensions><gpxtpx:TrackPointExtension><gpxtpx:hr>135</gpxtpx:hr></gpxtpx:TrackPointExtension></extensions>
      </trkpt>
      <trkpt lat="59.199942" lon="17.618049">
        <ele>31.4</ele>
        <time>2020-03-26T13:25:06Z</time>
        <extensions><gpxtpx:TrackPointExtension><gpxtpx:hr>136</gpxtpx:hr></gpxtpx:TrackPointExtension></extensions>
      </trkpt>
      <trkpt lat="59.199874" lon="17.618116">
        <ele>31.4</ele>
        <time>2020-03-26T13:25:07Z</time>
        <extensions><gpxtpx:TrackPointExtension><gpxtpx:hr>136</gpxtpx:hr></gpxtpx:TrackPointExtension></extensions>
      </trkpt>
      <trkpt lat="59.199806" lon="17.618185">
        <ele>31.4</ele>
        <time>2020-03-26T13:25:08Z</time>
        <extensions><gpxtpx:TrackPointExtension><gpxtpx:hr>136</gpxtpx:hr></gpxtpx:TrackPointExtension></extensions>
      </trkpt>
      <trkpt lat="59.199739" lon="17.61825">
        <ele>31.4</ele>
        <time>2020-03-26T13:25:09Z</time>
        <extensions><gpxtpx:TrackPointExtension><gpxtpx:hr>136</gpxtpx:hr></gpxtpx:TrackPointExtension></extensions>
      </trkpt>
      <trkpt lat="59.199673" lon="17.618319">
        <ele>31.4</ele>
        <time>2020-03-26T13:25:10Z</time>
        <extensions><gpxtpx:TrackPointExtension><gpxtpx:hr>136</gpxtpx:hr></gpxtpx:TrackPointExtension></extensions>
      </trkpt>
      <trkpt lat="59.199611" lon="17.618379">
        <ele>31.4</ele>
        <time>2020-03-26T13:25:11Z</time>
        <extensions><gpxtpx:TrackPointExtension><gpxtpx:hr>137</gpxtpx:hr></gpxtpx:TrackPointExtension></extensions>
      </trkpt>
      <trkpt lat="59.199551" lon="17.618434">
        <ele>31.4</ele>
        <time>2020-03-26T13:25:12Z</time>
        <extensions><gpxtpx:TrackPointExtension><gpxtpx:hr>137</gpxtpx:hr></gpxtpx:TrackPointExtension></extensions>
      </trkpt>
      <trkpt lat="59.199491" lon="17.618486">
        <ele>31.4</ele>
        <time>2020-03-26T13:25:13Z</time>
        <extensions><gpxtpx:TrackPointExtension><gpxtpx:hr>137</gpxtpx:hr></gpxtpx:TrackPointExtension></extensions>
      </trkpt>
      <trkpt lat="59.199434" lon="17.618536">
        <ele>31.2</ele>
        <time>2020-03-26T13:25:14Z</time>
        <extensions><gpxtpx:TrackPointExtension><gpxtpx:hr>137</gpxtpx:hr></gpxtpx:TrackPointExtension></extensions>
      </trkpt>
      <trkpt lat="59.199377" lon="17.618595">
        <ele>31</ele>
        <time>2020-03-26T13:25:15Z</time>
        <extensions><gpxtpx:TrackPointExtension><gpxtpx:hr>137</gpxtpx:hr></gpxtpx:TrackPointExtension></extensions>
      </trkpt>
      <trkpt lat="59.199321" lon="17.618648">
        <ele>30.8</ele>
        <time>2020-03-26T13:25:16Z</time>
        <extensions><gpxtpx:TrackPointExtension><gpxtpx:hr>136</gpxtpx:hr></gpxtpx:TrackPointExtension></extensions>
      </trkpt>
      <trkpt lat="59.199265" lon="17.6187">
        <ele>30.8</ele>
        <time>2020-03-26T13:25:17Z</time>
        <extensions><gpxtpx:TrackPointExtension><gpxtpx:hr>136</gpxtpx:hr></gpxtpx:TrackPointExtension></extensions>
      </trkpt>
      <trkpt lat="59.199209" lon="17.618752">
        <ele>30.8</ele>
        <time>2020-03-26T13:25:18Z</time>
        <extensions><gpxtpx:TrackPointExtension><gpxtpx:hr>135</gpxtpx:hr></gpxtpx:TrackPointExtension></extensions>
      </trkpt>
      <trkpt lat="59.199151" lon="17.618803">
        <ele>30.8</ele>
        <time>2020-03-26T13:25:19Z</time>
        <extensions><gpxtpx:TrackPointExtension><gpxtpx:hr>135</gpxtpx:hr></gpxtpx:TrackPointExtension></extensions>
      </trkpt>
      <trkpt lat="59.199092" lon="17.61885">
        <ele>30.6</ele>
        <time>2020-03-26T13:25:20Z</time>
        <extensions><gpxtpx:TrackPointExtension><gpxtpx:hr>134</gpxtpx:hr></gpxtpx:TrackPointExtension></extensions>
      </trkpt>
      <trkpt lat="59.199034" lon="17.618894">
        <ele>30.6</ele>
        <time>2020-03-26T13:25:21Z</time>
        <extensions><gpxtpx:TrackPointExtension><gpxtpx:hr>134</gpxtpx:hr></gpxtpx:TrackPointExtension></extensions>
      </trkpt>
      <trkpt lat="59.198975" lon="17.618943">
        <ele>30.6</ele>
        <time>2020-03-26T13:25:22Z</time>
        <extensions><gpxtpx:TrackPointExtension><gpxtpx:hr>135</gpxtpx:hr></gpxtpx:TrackPointExtension></extensions>
      </trkpt>
      <trkpt lat="59.198919" lon="17.618999">
        <ele>30.6</ele>
        <time>2020-03-26T13:25:23Z</time>
        <extensions><gpxtpx:TrackPointExtension><gpxtpx:hr>135</gpxtpx:hr></gpxtpx:TrackPointExtension></extensions>
      </trkpt>
      <trkpt lat="59.198864" lon="17.619044">
        <ele>30.6</ele>
        <time>2020-03-26T13:25:24Z</time>
        <extensions><gpxtpx:TrackPointExtension><gpxtpx:hr>136</gpxtpx:hr></gpxtpx:TrackPointExtension></extensions>
      </trkpt>
      <trkpt lat="59.19881" lon="17.619084">
        <ele>30.6</ele>
        <time>2020-03-26T13:25:25Z</time>
        <extensions><gpxtpx:TrackPointExtension><gpxtpx:hr>137</gpxtpx:hr></gpxtpx:TrackPointExtension></extensions>
      </trkpt>
      <trkpt lat="59.198754" lon="17.619126">
        <ele>30.6</ele>
        <time>2020-03-26T13:25:26Z</time>
        <extensions><gpxtpx:TrackPointExtension><gpxtpx:hr>137</gpxtpx:hr></gpxtpx:TrackPointExtension></extensions>
      </trkpt>
      <trkpt lat="59.198702" lon="17.619187">
        <ele>30.6</ele>
        <time>2020-03-26T13:25:27Z</time>
        <extensions><gpxtpx:TrackPointExtension><gpxtpx:hr>137</gpxtpx:hr></gpxtpx:TrackPointExtension></extensions>
      </trkpt>
      <trkpt lat="59.198652" lon="17.619255">
        <ele>30.6</ele>
        <time>2020-03-26T13:25:28Z</time>
        <extensions><gpxtpx:TrackPointExtension><gpxtpx:hr>138</gpxtpx:hr></gpxtpx:TrackPointExtension></extensions>
      </trkpt>
      <trkpt lat="59.198601" lon="17.619318">
        <ele>30.6</ele>
        <time>2020-03-26T13:25:29Z</time>
        <extensions><gpxtpx:TrackPointExtension><gpxtpx:hr>138</gpxtpx:hr></gpxtpx:TrackPointExtension></extensions>
      </trkpt>
      <trkpt lat="59.198547" lon="17.619367">
        <ele>30.6</ele>
        <time>2020-03-26T13:25:30Z</time>
        <extensions><gpxtpx:TrackPointExtension><gpxtpx:hr>138</gpxtpx:hr></gpxtpx:TrackPointExtension></extensions>
      </trkpt>
      <trkpt lat="59.198496" lon="17.619403">
        <ele>30.8</ele>
        <time>2020-03-26T13:25:31Z</time>
        <extensions><gpxtpx:TrackPointExtension><gpxtpx:hr>138</gpxtpx:hr></gpxtpx:TrackPointExtension></extensions>
      </trkpt>
      <trkpt lat="59.198448" lon="17.619446">
        <ele>30.8</ele>
        <time>2020-03-26T13:25:32Z</time>
        <extensions><gpxtpx:TrackPointExtension><gpxtpx:hr>138</gpxtpx:hr></gpxtpx:TrackPointExtension></extensions>
      </trkpt>
      <trkpt lat="59.198402" lon="17.619486">
        <ele>30.8</ele>
        <time>2020-03-26T13:25:33Z</time>
        <extensions><gpxtpx:TrackPointExtension><gpxtpx:hr>139</gpxtpx:hr></gpxtpx:TrackPointExtension></extensions>
      </trkpt>
      <trkpt lat="59.198358" lon="17.619528">
        <ele>31</ele>
        <time>2020-03-26T13:25:34Z</time>
        <extensions><gpxtpx:TrackPointExtension><gpxtpx:hr>139</gpxtpx:hr></gpxtpx:TrackPointExtension></extensions>
      </trkpt>
      <trkpt lat="59.198318" lon="17.619564">
        <ele>31</ele>
        <time>2020-03-26T13:25:35Z</time>
        <extensions><gpxtpx:TrackPointExtension><gpxtpx:hr>139</gpxtpx:hr></gpxtpx:TrackPointExtension></extensions>
      </trkpt>
      <trkpt lat="59.19828" lon="17.619596">
        <ele>31.2</ele>
        <time>2020-03-26T13:25:36Z</time>
        <extensions><gpxtpx:TrackPointExtension><gpxtpx:hr>139</gpxtpx:hr></gpxtpx:TrackPointExtension></extensions>
      </trkpt>
      <trkpt lat="59.198242" lon="17.619628">
        <ele>31.4</ele>
        <time>2020-03-26T13:25:37Z</time>
        <extensions><gpxtpx:TrackPointExtension><gpxtpx:hr>139</gpxtpx:hr></gpxtpx:TrackPointExtension></extensions>
      </trkpt>
      <trkpt lat="59.198207" lon="17.619655">
        <ele>31.6</ele>
        <time>2020-03-26T13:25:38Z</time>
        <extensions><gpxtpx:TrackPointExtension><gpxtpx:hr>139</gpxtpx:hr></gpxtpx:TrackPointExtension></extensions>
      </trkpt>
      <trkpt lat="59.19817" lon="17.619681">
        <ele>31.8</ele>
        <time>2020-03-26T13:25:39Z</time>
        <extensions><gpxtpx:TrackPointExtension><gpxtpx:hr>139</gpxtpx:hr></gpxtpx:TrackPointExtension></extensions>
      </trkpt>
      <trkpt lat="59.198134" lon="17.619709">
        <ele>31.8</ele>
        <time>2020-03-26T13:25:40Z</time>
        <extensions><gpxtpx:TrackPointExtension><gpxtpx:hr>139</gpxtpx:hr></gpxtpx:TrackPointExtension></extensions>
      </trkpt>
      <trkpt lat="59.198098" lon="17.619738">
        <ele>31.8</ele>
        <time>2020-03-26T13:25:41Z</time>
        <extensions><gpxtpx:TrackPointExtension><gpxtpx:hr>139</gpxtpx:hr></gpxtpx:TrackPointExtension></extensions>
      </trkpt>
      <trkpt lat="59.198066" lon="17.619758">
        <ele>31.8</ele>
        <time>2020-03-26T13:25:42Z</time>
        <extensions><gpxtpx:TrackPointExtension><gpxtpx:hr>139</gpxtpx:hr></gpxtpx:TrackPointExtension></extensions>
      </trkpt>
      <trkpt lat="59.198039" lon="17.619775">
        <ele>32</ele>
        <time>2020-03-26T13:25:43Z</time>
        <extensions><gpxtpx:TrackPointExtension><gpxtpx:hr>139</gpxtpx:hr></gpxtpx:TrackPointExtension></extensions>
      </trkpt>
      <trkpt lat="59.198018" lon="17.619789">
        <ele>32</ele>
        <time>2020-03-26T13:25:44Z</time>
        <extensions><gpxtpx:TrackPointExtension><gpxtpx:hr>139</gpxtpx:hr></gpxtpx:TrackPointExtension></extensions>
      </trkpt>
      <trkpt lat="59.198" lon="17.619801">
        <ele>32</ele>
        <time>2020-03-26T13:25:45Z</time>
        <extensions><gpxtpx:TrackPointExtension><gpxtpx:hr>139</gpxtpx:hr></gpxtpx:TrackPointExtension></extensions>
      </trkpt>
      <trkpt lat="59.197979" lon="17.619811">
        <ele>32</ele>
        <time>2020-03-26T13:25:46Z</time>
        <extensions><gpxtpx:TrackPointExtension><gpxtpx:hr>139</gpxtpx:hr></gpxtpx:TrackPointExtension></extensions>
      </trkpt>
      <trkpt lat="59.197955" lon="17.619827">
        <ele>32.2</ele>
        <time>2020-03-26T13:25:47Z</time>
        <extensions><gpxtpx:TrackPointExtension><gpxtpx:hr>138</gpxtpx:hr></gpxtpx:TrackPointExtension></extensions>
      </trkpt>
      <trkpt lat="59.197934" lon="17.619857">
        <ele>32.4</ele>
        <time>2020-03-26T13:25:48Z</time>
        <extensions><gpxtpx:TrackPointExtension><gpxtpx:hr>138</gpxtpx:hr></gpxtpx:TrackPointExtension></extensions>
      </trkpt>
      <trkpt lat="59.197918" lon="17.619922">
        <ele>32.4</ele>
        <time>2020-03-26T13:25:49Z</time>
        <extensions><gpxtpx:TrackPointExtension><gpxtpx:hr>138</gpxtpx:hr></gpxtpx:TrackPointExtension></extensions>
      </trkpt>
      <trkpt lat="59.197917" lon="17.619983">
        <ele>32.6</ele>
        <time>2020-03-26T13:25:50Z</time>
        <extensions><gpxtpx:TrackPointExtension><gpxtpx:hr>137</gpxtpx:hr></gpxtpx:TrackPointExtension></extensions>
      </trkpt>
      <trkpt lat="59.197928" lon="17.62007">
        <ele>32.6</ele>
        <time>2020-03-26T13:25:51Z</time>
        <extensions><gpxtpx:TrackPointExtension><gpxtpx:hr>136</gpxtpx:hr></gpxtpx:TrackPointExtension></extensions>
      </trkpt>
      <trkpt lat="59.197947" lon="17.620172">
        <ele>32.6</ele>
        <time>2020-03-26T13:25:52Z</time>
        <extensions><gpxtpx:TrackPointExtension><gpxtpx:hr>135</gpxtpx:hr></gpxtpx:TrackPointExtension></extensions>
      </trkpt>
      <trkpt lat="59.197967" lon="17.620283">
        <ele>32.6</ele>
        <time>2020-03-26T13:25:53Z</time>
        <extensions><gpxtpx:TrackPointExtension><gpxtpx:hr>134</gpxtpx:hr></gpxtpx:TrackPointExtension></extensions>
      </trkpt>
      <trkpt lat="59.197988" lon="17.620398">
        <ele>32.6</ele>
        <time>2020-03-26T13:25:54Z</time>
        <extensions><gpxtpx:TrackPointExtension><gpxtpx:hr>133</gpxtpx:hr></gpxtpx:TrackPointExtension></extensions>
      </trkpt>
      <trkpt lat="59.198011" lon="17.620518">
        <ele>32.6</ele>
        <time>2020-03-26T13:25:55Z</time>
        <extensions><gpxtpx:TrackPointExtension><gpxtpx:hr>133</gpxtpx:hr></gpxtpx:TrackPointExtension></extensions>
      </trkpt>
      <trkpt lat="59.198033" lon="17.620639">
        <ele>32.6</ele>
        <time>2020-03-26T13:25:56Z</time>
        <extensions><gpxtpx:TrackPointExtension><gpxtpx:hr>133</gpxtpx:hr></gpxtpx:TrackPointExtension></extensions>
      </trkpt>
      <trkpt lat="59.198053" lon="17.620766">
        <ele>32.6</ele>
        <time>2020-03-26T13:25:57Z</time>
        <extensions><gpxtpx:TrackPointExtension><gpxtpx:hr>133</gpxtpx:hr></gpxtpx:TrackPointExtension></extensions>
      </trkpt>
      <trkpt lat="59.198074" lon="17.620896">
        <ele>32.6</ele>
        <time>2020-03-26T13:25:58Z</time>
        <extensions><gpxtpx:TrackPointExtension><gpxtpx:hr>133</gpxtpx:hr></gpxtpx:TrackPointExtension></extensions>
      </trkpt>
      <trkpt lat="59.198097" lon="17.621026">
        <ele>32.4</ele>
        <time>2020-03-26T13:25:59Z</time>
        <extensions><gpxtpx:TrackPointExtension><gpxtpx:hr>134</gpxtpx:hr></gpxtpx:TrackPointExtension></extensions>
      </trkpt>
      <trkpt lat="59.198122" lon="17.621164">
        <ele>32.2</ele>
        <time>2020-03-26T13:26:00Z</time>
        <extensions><gpxtpx:TrackPointExtension><gpxtpx:hr>133</gpxtpx:hr></gpxtpx:TrackPointExtension></extensions>
      </trkpt>
      <trkpt lat="59.198149" lon="17.621302">
        <ele>32.2</ele>
        <time>2020-03-26T13:26:01Z</time>
        <extensions><gpxtpx:TrackPointExtension><gpxtpx:hr>133</gpxtpx:hr></gpxtpx:TrackPointExtension></extensions>
      </trkpt>
      <trkpt lat="59.198175" lon="17.621443">
        <ele>32</ele>
        <time>2020-03-26T13:26:02Z</time>
        <extensions><gpxtpx:TrackPointExtension><gpxtpx:hr>132</gpxtpx:hr></gpxtpx:TrackPointExtension></extensions>
      </trkpt>
      <trkpt lat="59.198204" lon="17.621593">
        <ele>31.8</ele>
        <time>2020-03-26T13:26:03Z</time>
        <extensions><gpxtpx:TrackPointExtension><gpxtpx:hr>131</gpxtpx:hr></gpxtpx:TrackPointExtension></extensions>
      </trkpt>
      <trkpt lat="59.19823" lon="17.621756">
        <ele>31.6</ele>
        <time>2020-03-26T13:26:04Z</time>
        <extensions><gpxtpx:TrackPointExtension><gpxtpx:hr>130</gpxtpx:hr></gpxtpx:TrackPointExtension></extensions>
      </trkpt>
      <trkpt lat="59.198258" lon="17.621914">
        <ele>31.2</ele>
        <time>2020-03-26T13:26:05Z</time>
        <extensions><gpxtpx:TrackPointExtension><gpxtpx:hr>129</gpxtpx:hr></gpxtpx:TrackPointExtension></extensions>
      </trkpt>
      <trkpt lat="59.198287" lon="17.622081">
        <ele>30.2</ele>
        <time>2020-03-26T13:26:06Z</time>
        <extensions><gpxtpx:TrackPointExtension><gpxtpx:hr>128</gpxtpx:hr></gpxtpx:TrackPointExtension></extensions>
      </trkpt>
      <trkpt lat="59.198324" lon="17.622244">
        <ele>29.6</ele>
        <time>2020-03-26T13:26:07Z</time>
        <extensions><gpxtpx:TrackPointExtension><gpxtpx:hr>128</gpxtpx:hr></gpxtpx:TrackPointExtension></extensions>
      </trkpt>
      <trkpt lat="59.198367" lon="17.622401">
        <ele>29.2</ele>
        <time>2020-03-26T13:26:08Z</time>
        <extensions><gpxtpx:TrackPointExtension><gpxtpx:hr>128</gpxtpx:hr></gpxtpx:TrackPointExtension></extensions>
      </trkpt>
      <trkpt lat="59.198409" lon="17.622562">
        <ele>28.8</ele>
        <time>2020-03-26T13:26:09Z</time>
        <extensions><gpxtpx:TrackPointExtension><gpxtpx:hr>128</gpxtpx:hr></gpxtpx:TrackPointExtension></extensions>
      </trkpt>
      <trkpt lat="59.198455" lon="17.622721">
        <ele>28.6</ele>
        <time>2020-03-26T13:26:10Z</time>
        <extensions><gpxtpx:TrackPointExtension><gpxtpx:hr>127</gpxtpx:hr></gpxtpx:TrackPointExtension></extensions>
      </trkpt>
      <trkpt lat="59.1985" lon="17.622884">
        <ele>28.4</ele>
        <time>2020-03-26T13:26:11Z</time>
        <extensions><gpxtpx:TrackPointExtension><gpxtpx:hr>126</gpxtpx:hr></gpxtpx:TrackPointExtension></extensions>
      </trkpt>
      <trkpt lat="59.198547" lon="17.623046">
        <ele>28</ele>
        <time>2020-03-26T13:26:12Z</time>
        <extensions><gpxtpx:TrackPointExtension><gpxtpx:hr>125</gpxtpx:hr></gpxtpx:TrackPointExtension></extensions>
      </trkpt>
      <trkpt lat="59.198592" lon="17.623205">
        <ele>27.6</ele>
        <time>2020-03-26T13:26:13Z</time>
        <extensions><gpxtpx:TrackPointExtension><gpxtpx:hr>123</gpxtpx:hr></gpxtpx:TrackPointExtension></extensions>
      </trkpt>
      <trkpt lat="59.198636" lon="17.623363">
        <ele>27.4</ele>
        <time>2020-03-26T13:26:14Z</time>
        <extensions><gpxtpx:TrackPointExtension><gpxtpx:hr>118</gpxtpx:hr></gpxtpx:TrackPointExtension></extensions>
      </trkpt>
      <trkpt lat="59.198681" lon="17.62352">
        <ele>27.2</ele>
        <time>2020-03-26T13:26:15Z</time>
        <extensions><gpxtpx:TrackPointExtension><gpxtpx:hr>115</gpxtpx:hr></gpxtpx:TrackPointExtension></extensions>
      </trkpt>
      <trkpt lat="59.198727" lon="17.623677">
        <ele>27</ele>
        <time>2020-03-26T13:26:16Z</time>
        <extensions><gpxtpx:TrackPointExtension><gpxtpx:hr>111</gpxtpx:hr></gpxtpx:TrackPointExtension></extensions>
      </trkpt>
      <trkpt lat="59.198773" lon="17.623837">
        <ele>26.6</ele>
        <time>2020-03-26T13:26:17Z</time>
        <extensions><gpxtpx:TrackPointExtension><gpxtpx:hr>108</gpxtpx:hr></gpxtpx:TrackPointExtension></extensions>
      </trkpt>
      <trkpt lat="59.19882" lon="17.624">
        <ele>26.2</ele>
        <time>2020-03-26T13:26:18Z</time>
        <extensions><gpxtpx:TrackPointExtension><gpxtpx:hr>108</gpxtpx:hr></gpxtpx:TrackPointExtension></extensions>
      </trkpt>
      <trkpt lat="59.198865" lon="17.624157">
        <ele>25.8</ele>
        <time>2020-03-26T13:26:19Z</time>
        <extensions><gpxtpx:TrackPointExtension><gpxtpx:hr>109</gpxtpx:hr></gpxtpx:TrackPointExtension></extensions>
      </trkpt>
      <trkpt lat="59.198909" lon="17.62431">
        <ele>25.4</ele>
        <time>2020-03-26T13:26:20Z</time>
        <extensions><gpxtpx:TrackPointExtension><gpxtpx:hr>112</gpxtpx:hr></gpxtpx:TrackPointExtension></extensions>
      </trkpt>
      <trkpt lat="59.198951" lon="17.624461">
        <ele>25.2</ele>
        <time>2020-03-26T13:26:21Z</time>
        <extensions><gpxtpx:TrackPointExtension><gpxtpx:hr>114</gpxtpx:hr></gpxtpx:TrackPointExtension></extensions>
      </trkpt>
      <trkpt lat="59.198992" lon="17.624609">
        <ele>25</ele>
        <time>2020-03-26T13:26:22Z</time>
        <extensions><gpxtpx:TrackPointExtension><gpxtpx:hr>115</gpxtpx:hr></gpxtpx:TrackPointExtension></extensions>
      </trkpt>
      <trkpt lat="59.199033" lon="17.624755">
        <ele>24.8</ele>
        <time>2020-03-26T13:26:23Z</time>
        <extensions><gpxtpx:TrackPointExtension><gpxtpx:hr>115</gpxtpx:hr></gpxtpx:TrackPointExtension></extensions>
      </trkpt>
      <trkpt lat="59.199073" lon="17.624895">
        <ele>24.6</ele>
        <time>2020-03-26T13:26:24Z</time>
        <extensions><gpxtpx:TrackPointExtension><gpxtpx:hr>114</gpxtpx:hr></gpxtpx:TrackPointExtension></extensions>
      </trkpt>
      <trkpt lat="59.199114" lon="17.625032">
        <ele>24.6</ele>
        <time>2020-03-26T13:26:25Z</time>
        <extensions><gpxtpx:TrackPointExtension><gpxtpx:hr>112</gpxtpx:hr></gpxtpx:TrackPointExtension></extensions>
      </trkpt>
      <trkpt lat="59.199153" lon="17.625164">
        <ele>24.4</ele>
        <time>2020-03-26T13:26:26Z</time>
        <extensions><gpxtpx:TrackPointExtension><gpxtpx:hr>109</gpxtpx:hr></gpxtpx:TrackPointExtension></extensions>
      </trkpt>
      <trkpt lat="59.199192" lon="17.625295">
        <ele>24.2</ele>
        <time>2020-03-26T13:26:27Z</time>
        <extensions><gpxtpx:TrackPointExtension><gpxtpx:hr>107</gpxtpx:hr></gpxtpx:TrackPointExtension></extensions>
      </trkpt>
      <trkpt lat="59.199228" lon="17.625419">
        <ele>24.2</ele>
        <time>2020-03-26T13:26:28Z</time>
        <extensions><gpxtpx:TrackPointExtension><gpxtpx:hr>105</gpxtpx:hr></gpxtpx:TrackPointExtension></extensions>
      </trkpt>
      <trkpt lat="59.199263" lon="17.62554">
        <ele>24</ele>
        <time>2020-03-26T13:26:29Z</time>
        <extensions><gpxtpx:TrackPointExtension><gpxtpx:hr>104</gpxtpx:hr></gpxtpx:TrackPointExtension></extensions>
      </trkpt>
      <trkpt lat="59.199298" lon="17.625659">
        <ele>24</ele>
        <time>2020-03-26T13:26:30Z</time>
        <extensions><gpxtpx:TrackPointExtension><gpxtpx:hr>103</gpxtpx:hr></gpxtpx:TrackPointExtension></extensions>
      </trkpt>
      <trkpt lat="59.199333" lon="17.625775">
        <ele>24</ele>
        <time>2020-03-26T13:26:31Z</time>
        <extensions><gpxtpx:TrackPointExtension><gpxtpx:hr>103</gpxtpx:hr></gpxtpx:TrackPointExtension></extensions>
      </trkpt>
      <trkpt lat="59.199365" lon="17.625887">
        <ele>24</ele>
        <time>2020-03-26T13:26:32Z</time>
        <extensions><gpxtpx:TrackPointExtension><gpxtpx:hr>104</gpxtpx:hr></gpxtpx:TrackPointExtension></extensions>
      </trkpt>
      <trkpt lat="59.199397" lon="17.625996">
        <ele>23.8</ele>
        <time>2020-03-26T13:26:33Z</time>
        <extensions><gpxtpx:TrackPointExtension><gpxtpx:hr>104</gpxtpx:hr></gpxtpx:TrackPointExtension></extensions>
      </trkpt>
      <trkpt lat="59.19943" lon="17.626095">
        <ele>23.8</ele>
        <time>2020-03-26T13:26:34Z</time>
        <extensions><gpxtpx:TrackPointExtension><gpxtpx:hr>104</gpxtpx:hr></gpxtpx:TrackPointExtension></extensions>
      </trkpt>
      <trkpt lat="59.199476" lon="17.62617">
        <ele>24</ele>
        <time>2020-03-26T13:26:35Z</time>
        <extensions><gpxtpx:TrackPointExtension><gpxtpx:hr>104</gpxtpx:hr></gpxtpx:TrackPointExtension></extensions>
      </trkpt>
      <trkpt lat="59.199533" lon="17.626223">
        <ele>24.2</ele>
        <time>2020-03-26T13:26:36Z</time>
        <extensions><gpxtpx:TrackPointExtension><gpxtpx:hr>105</gpxtpx:hr></gpxtpx:TrackPointExtension></extensions>
      </trkpt>
      <trkpt lat="59.199582" lon="17.626288">
        <ele>24.2</ele>
        <time>2020-03-26T13:26:37Z</time>
        <extensions><gpxtpx:TrackPointExtension><gpxtpx:hr>106</gpxtpx:hr></gpxtpx:TrackPointExtension></extensions>
      </trkpt>
      <trkpt lat="59.199609" lon="17.626384">
        <ele>24</ele>
        <time>2020-03-26T13:26:38Z</time>
        <extensions><gpxtpx:TrackPointExtension><gpxtpx:hr>107</gpxtpx:hr></gpxtpx:TrackPointExtension></extensions>
      </trkpt>
      <trkpt lat="59.199621" lon="17.62649">
        <ele>24.2</ele>
        <time>2020-03-26T13:26:39Z</time>
        <extensions><gpxtpx:TrackPointExtension><gpxtpx:hr>110</gpxtpx:hr></gpxtpx:TrackPointExtension></extensions>
      </trkpt>
      <trkpt lat="59.199635" lon="17.626597">
        <ele>24.2</ele>
        <time>2020-03-26T13:26:40Z</time>
        <extensions><gpxtpx:TrackPointExtension><gpxtpx:hr>112</gpxtpx:hr></gpxtpx:TrackPointExtension></extensions>
      </trkpt>
      <trkpt lat="59.199653" lon="17.626706">
        <ele>24.2</ele>
        <time>2020-03-26T13:26:41Z</time>
        <extensions><gpxtpx:TrackPointExtension><gpxtpx:hr>114</gpxtpx:hr></gpxtpx:TrackPointExtension></extensions>
      </trkpt>
      <trkpt lat="59.199674" lon="17.626815">
        <ele>24.4</ele>
        <time>2020-03-26T13:26:42Z</time>
        <extensions><gpxtpx:TrackPointExtension><gpxtpx:hr>116</gpxtpx:hr></gpxtpx:TrackPointExtension></extensions>
      </trkpt>
      <trkpt lat="59.199697" lon="17.62693">
        <ele>24.4</ele>
        <time>2020-03-26T13:26:43Z</time>
        <extensions><gpxtpx:TrackPointExtension><gpxtpx:hr>118</gpxtpx:hr></gpxtpx:TrackPointExtension></extensions>
      </trkpt>
      <trkpt lat="59.199719" lon="17.627043">
        <ele>24.6</ele>
        <time>2020-03-26T13:26:44Z</time>
        <extensions><gpxtpx:TrackPointExtension><gpxtpx:hr>119</gpxtpx:hr></gpxtpx:TrackPointExtension></extensions>
      </trkpt>
      <trkpt lat="59.199742" lon="17.627161">
        <ele>24.6</ele>
        <time>2020-03-26T13:26:45Z</time>
        <extensions><gpxtpx:TrackPointExtension><gpxtpx:hr>120</gpxtpx:hr></gpxtpx:TrackPointExtension></extensions>
      </trkpt>
      <trkpt lat="59.199765" lon="17.627275">
        <ele>24.6</ele>
        <time>2020-03-26T13:26:46Z</time>
        <extensions><gpxtpx:TrackPointExtension><gpxtpx:hr>121</gpxtpx:hr></gpxtpx:TrackPointExtension></extensions>
      </trkpt>
      <trkpt lat="59.199791" lon="17.627391">
        <ele>24.8</ele>
        <time>2020-03-26T13:26:47Z</time>
        <extensions><gpxtpx:TrackPointExtension><gpxtpx:hr>122</gpxtpx:hr></gpxtpx:TrackPointExtension></extensions>
      </trkpt>
      <trkpt lat="59.199817" lon="17.627499">
        <ele>25</ele>
        <time>2020-03-26T13:26:48Z</time>
        <extensions><gpxtpx:TrackPointExtension><gpxtpx:hr>124</gpxtpx:hr></gpxtpx:TrackPointExtension></extensions>
      </trkpt>
      <trkpt lat="59.199841" lon="17.627605">
        <ele>25.2</ele>
        <time>2020-03-26T13:26:49Z</time>
        <extensions><gpxtpx:TrackPointExtension><gpxtpx:hr>125</gpxtpx:hr></gpxtpx:TrackPointExtension></extensions>
      </trkpt>
      <trkpt lat="59.199866" lon="17.627712">
        <ele>25.2</ele>
        <time>2020-03-26T13:26:50Z</time>
        <extensions><gpxtpx:TrackPointExtension><gpxtpx:hr>125</gpxtpx:hr></gpxtpx:TrackPointExtension></extensions>
      </trkpt>
      <trkpt lat="59.199892" lon="17.62782">
        <ele>25.4</ele>
        <time>2020-03-26T13:26:51Z</time>
        <extensions><gpxtpx:TrackPointExtension><gpxtpx:hr>127</gpxtpx:hr></gpxtpx:TrackPointExtension></extensions>
      </trkpt>
      <trkpt lat="59.199917" lon="17.627926">
        <ele>25.4</ele>
        <time>2020-03-26T13:26:52Z</time>
        <extensions><gpxtpx:TrackPointExtension><gpxtpx:hr>128</gpxtpx:hr></gpxtpx:TrackPointExtension></extensions>
      </trkpt>
      <trkpt lat="59.199941" lon="17.628034">
        <ele>25.4</ele>
        <time>2020-03-26T13:26:53Z</time>
        <extensions><gpxtpx:TrackPointExtension><gpxtpx:hr>129</gpxtpx:hr></gpxtpx:TrackPointExtension></extensions>
      </trkpt>
      <trkpt lat="59.199966" lon="17.628145">
        <ele>25.4</ele>
        <time>2020-03-26T13:26:54Z</time>
        <extensions><gpxtpx:TrackPointExtension><gpxtpx:hr>129</gpxtpx:hr></gpxtpx:TrackPointExtension></extensions>
      </trkpt>
      <trkpt lat="59.199991" lon="17.628252">
        <ele>25.6</ele>
        <time>2020-03-26T13:26:55Z</time>
        <extensions><gpxtpx:TrackPointExtension><gpxtpx:hr>130</gpxtpx:hr></gpxtpx:TrackPointExtension></extensions>
      </trkpt>
      <trkpt lat="59.200016" lon="17.628358">
        <ele>25.8</ele>
        <time>2020-03-26T13:26:56Z</time>
        <extensions><gpxtpx:TrackPointExtension><gpxtpx:hr>131</gpxtpx:hr></gpxtpx:TrackPointExtension></extensions>
      </trkpt>
      <trkpt lat="59.200044" lon="17.628463">
        <ele>26.2</ele>
        <time>2020-03-26T13:26:57Z</time>
        <extensions><gpxtpx:TrackPointExtension><gpxtpx:hr>132</gpxtpx:hr></gpxtpx:TrackPointExtension></extensions>
      </trkpt>
      <trkpt lat="59.200072" lon="17.628571">
        <ele>26.4</ele>
        <time>2020-03-26T13:26:58Z</time>
        <extensions><gpxtpx:TrackPointExtension><gpxtpx:hr>132</gpxtpx:hr></gpxtpx:TrackPointExtension></extensions>
      </trkpt>
      <trkpt lat="59.200099" lon="17.628679">
        <ele>26.6</ele>
        <time>2020-03-26T13:26:59Z</time>
        <extensions><gpxtpx:TrackPointExtension><gpxtpx:hr>133</gpxtpx:hr></gpxtpx:TrackPointExtension></extensions>
      </trkpt>
      <trkpt lat="59.200125" lon="17.628782">
        <ele>27</ele>
        <time>2020-03-26T13:27:00Z</time>
        <extensions><gpxtpx:TrackPointExtension><gpxtpx:hr>132</gpxtpx:hr></gpxtpx:TrackPointExtension></extensions>
      </trkpt>
      <trkpt lat="59.200153" lon="17.628881">
        <ele>27</ele>
        <time>2020-03-26T13:27:01Z</time>
        <extensions><gpxtpx:TrackPointExtension><gpxtpx:hr>133</gpxtpx:hr></gpxtpx:TrackPointExtension></extensions>
      </trkpt>
      <trkpt lat="59.200181" lon="17.62898">
        <ele>27</ele>
        <time>2020-03-26T13:27:02Z</time>
        <extensions><gpxtpx:TrackPointExtension><gpxtpx:hr>133</gpxtpx:hr></gpxtpx:TrackPointExtension></extensions>
      </trkpt>
      <trkpt lat="59.200206" lon="17.629078">
        <ele>27.2</ele>
        <time>2020-03-26T13:27:03Z</time>
        <extensions><gpxtpx:TrackPointExtension><gpxtpx:hr>134</gpxtpx:hr></gpxtpx:TrackPointExtension></extensions>
      </trkpt>
      <trkpt lat="59.200232" lon="17.629173">
        <ele>27.2</ele>
        <time>2020-03-26T13:27:04Z</time>
        <extensions><gpxtpx:TrackPointExtension><gpxtpx:hr>136</gpxtpx:hr></gpxtpx:TrackPointExtension></extensions>
      </trkpt>
      <trkpt lat="59.200258" lon="17.629263">
        <ele>27.6</ele>
        <time>2020-03-26T13:27:05Z</time>
        <extensions><gpxtpx:TrackPointExtension><gpxtpx:hr>136</gpxtpx:hr></gpxtpx:TrackPointExtension></extensions>
      </trkpt>
      <trkpt lat="59.200289" lon="17.629347">
        <ele>27.8</ele>
        <time>2020-03-26T13:27:06Z</time>
        <extensions><gpxtpx:TrackPointExtension><gpxtpx:hr>137</gpxtpx:hr></gpxtpx:TrackPointExtension></extensions>
      </trkpt>
      <trkpt lat="59.200324" lon="17.629423">
        <ele>28</ele>
        <time>2020-03-26T13:27:07Z</time>
        <extensions><gpxtpx:TrackPointExtension><gpxtpx:hr>138</gpxtpx:hr></gpxtpx:TrackPointExtension></extensions>
      </trkpt>
      <trkpt lat="59.200361" lon="17.629499">
        <ele>28.2</ele>
        <time>2020-03-26T13:27:08Z</time>
        <extensions><gpxtpx:TrackPointExtension><gpxtpx:hr>139</gpxtpx:hr></gpxtpx:TrackPointExtension></extensions>
      </trkpt>
      <trkpt lat="59.200397" lon="17.629583">
        <ele>28.2</ele>
        <time>2020-03-26T13:27:09Z</time>
        <extensions><gpxtpx:TrackPointExtension><gpxtpx:hr>139</gpxtpx:hr></gpxtpx:TrackPointExtension></extensions>
      </trkpt>
      <trkpt lat="59.200428" lon="17.629673">
        <ele>28.2</ele>
        <time>2020-03-26T13:27:10Z</time>
        <extensions><gpxtpx:TrackPointExtension><gpxtpx:hr>139</gpxtpx:hr></gpxtpx:TrackPointExtension></extensions>
      </trkpt>
      <trkpt lat="59.200459" lon="17.629767">
        <ele>28.4</ele>
        <time>2020-03-26T13:27:11Z</time>
        <extensions><gpxtpx:TrackPointExtension><gpxtpx:hr>140</gpxtpx:hr></gpxtpx:TrackPointExtension></extensions>
      </trkpt>
      <trkpt lat="59.200488" lon="17.629862">
        <ele>28.4</ele>
        <time>2020-03-26T13:27:12Z</time>
        <extensions><gpxtpx:TrackPointExtension><gpxtpx:hr>140</gpxtpx:hr></gpxtpx:TrackPointExtension></extensions>
      </trkpt>
      <trkpt lat="59.200519" lon="17.629959">
        <ele>28.4</ele>
        <time>2020-03-26T13:27:13Z</time>
        <extensions><gpxtpx:TrackPointExtension><gpxtpx:hr>140</gpxtpx:hr></gpxtpx:TrackPointExtension></extensions>
      </trkpt>
      <trkpt lat="59.200554" lon="17.630045">
        <ele>28.4</ele>
        <time>2020-03-26T13:27:14Z</time>
        <extensions><gpxtpx:TrackPointExtension><gpxtpx:hr>140</gpxtpx:hr></gpxtpx:TrackPointExtension></extensions>
      </trkpt>
      <trkpt lat="59.200596" lon="17.630115">
        <ele>28.4</ele>
        <time>2020-03-26T13:27:15Z</time>
        <extensions><gpxtpx:TrackPointExtension><gpxtpx:hr>139</gpxtpx:hr></gpxtpx:TrackPointExtension></extensions>
      </trkpt>
      <trkpt lat="59.20064" lon="17.630173">
        <ele>28.4</ele>
        <time>2020-03-26T13:27:16Z</time>
        <extensions><gpxtpx:TrackPointExtension><gpxtpx:hr>139</gpxtpx:hr></gpxtpx:TrackPointExtension></extensions>
      </trkpt>
      <trkpt lat="59.200685" lon="17.63022">
        <ele>28.4</ele>
        <time>2020-03-26T13:27:17Z</time>
        <extensions><gpxtpx:TrackPointExtension><gpxtpx:hr>139</gpxtpx:hr></gpxtpx:TrackPointExtension></extensions>
      </trkpt>
      <trkpt lat="59.200731" lon="17.630261">
        <ele>28.4</ele>
        <time>2020-03-26T13:27:18Z</time>
        <extensions><gpxtpx:TrackPointExtension><gpxtpx:hr>138</gpxtpx:hr></gpxtpx:TrackPointExtension></extensions>
      </trkpt>
      <trkpt lat="59.200778" lon="17.630291">
        <ele>28.4</ele>
        <time>2020-03-26T13:27:19Z</time>
        <extensions><gpxtpx:TrackPointExtension><gpxtpx:hr>137</gpxtpx:hr></gpxtpx:TrackPointExtension></extensions>
      </trkpt>
      <trkpt lat="59.200823" lon="17.630305">
        <ele>28.4</ele>
        <time>2020-03-26T13:27:20Z</time>
        <extensions><gpxtpx:TrackPointExtension><gpxtpx:hr>137</gpxtpx:hr></gpxtpx:TrackPointExtension></extensions>
      </trkpt>
      <trkpt lat="59.200868" lon="17.630311">
        <ele>28.4</ele>
        <time>2020-03-26T13:27:21Z</time>
        <extensions><gpxtpx:TrackPointExtension><gpxtpx:hr>137</gpxtpx:hr></gpxtpx:TrackPointExtension></extensions>
      </trkpt>
      <trkpt lat="59.20091" lon="17.63031">
        <ele>28.6</ele>
        <time>2020-03-26T13:27:22Z</time>
        <extensions><gpxtpx:TrackPointExtension><gpxtpx:hr>137</gpxtpx:hr></gpxtpx:TrackPointExtension></extensions>
      </trkpt>
      <trkpt lat="59.200947" lon="17.630302">
        <ele>28.6</ele>
        <time>2020-03-26T13:27:23Z</time>
        <extensions><gpxtpx:TrackPointExtension><gpxtpx:hr>137</gpxtpx:hr></gpxtpx:TrackPointExtension></extensions>
      </trkpt>
      <trkpt lat="59.200982" lon="17.630293">
        <ele>28.6</ele>
        <time>2020-03-26T13:27:24Z</time>
        <extensions><gpxtpx:TrackPointExtension><gpxtpx:hr>137</gpxtpx:hr></gpxtpx:TrackPointExtension></extensions>
      </trkpt>
      <trkpt lat="59.201018" lon="17.630288">
        <ele>28.6</ele>
        <time>2020-03-26T13:27:25Z</time>
        <extensions><gpxtpx:TrackPointExtension><gpxtpx:hr>136</gpxtpx:hr></gpxtpx:TrackPointExtension></extensions>
      </trkpt>
      <trkpt lat="59.201053" lon="17.630285">
        <ele>28.6</ele>
        <time>2020-03-26T13:27:26Z</time>
        <extensions><gpxtpx:TrackPointExtension><gpxtpx:hr>136</gpxtpx:hr></gpxtpx:TrackPointExtension></extensions>
      </trkpt>
      <trkpt lat="59.201089" lon="17.630283">
        <ele>28.6</ele>
        <time>2020-03-26T13:27:27Z</time>
        <extensions><gpxtpx:TrackPointExtension><gpxtpx:hr>136</gpxtpx:hr></gpxtpx:TrackPointExtension></extensions>
      </trkpt>
      <trkpt lat="59.201123" lon="17.630281">
        <ele>29.2</ele>
        <time>2020-03-26T13:27:28Z</time>
        <extensions><gpxtpx:TrackPointExtension><gpxtpx:hr>136</gpxtpx:hr></gpxtpx:TrackPointExtension></extensions>
      </trkpt>
      <trkpt lat="59.201158" lon="17.630278">
        <ele>29.4</ele>
        <time>2020-03-26T13:27:29Z</time>
        <extensions><gpxtpx:TrackPointExtension><gpxtpx:hr>136</gpxtpx:hr></gpxtpx:TrackPointExtension></extensions>
      </trkpt>
      <trkpt lat="59.20119" lon="17.63028">
        <ele>30</ele>
        <time>2020-03-26T13:27:30Z</time>
        <extensions><gpxtpx:TrackPointExtension><gpxtpx:hr>137</gpxtpx:hr></gpxtpx:TrackPointExtension></extensions>
      </trkpt>
      <trkpt lat="59.201222" lon="17.630283">
        <ele>30.2</ele>
        <time>2020-03-26T13:27:31Z</time>
        <extensions><gpxtpx:TrackPointExtension><gpxtpx:hr>137</gpxtpx:hr></gpxtpx:TrackPointExtension></extensions>
      </trkpt>
      <trkpt lat="59.201254" lon="17.630281">
        <ele>30.6</ele>
        <time>2020-03-26T13:27:32Z</time>
        <extensions><gpxtpx:TrackPointExtension><gpxtpx:hr>137</gpxtpx:hr></gpxtpx:TrackPointExtension></extensions>
      </trkpt>
      <trkpt lat="59.201284" lon="17.63028">
        <ele>30.8</ele>
        <time>2020-03-26T13:27:33Z</time>
        <extensions><gpxtpx:TrackPointExtension><gpxtpx:hr>138</gpxtpx:hr></gpxtpx:TrackPointExtension></extensions>
      </trkpt>
      <trkpt lat="59.201318" lon="17.630281">
        <ele>31.4</ele>
        <time>2020-03-26T13:27:34Z</time>
        <extensions><gpxtpx:TrackPointExtension><gpxtpx:hr>138</gpxtpx:hr></gpxtpx:TrackPointExtension></extensions>
      </trkpt>
      <trkpt lat="59.20135" lon="17.630285">
        <ele>31.8</ele>
        <time>2020-03-26T13:27:35Z</time>
        <extensions><gpxtpx:TrackPointExtension><gpxtpx:hr>139</gpxtpx:hr></gpxtpx:TrackPointExtension></extensions>
      </trkpt>
      <trkpt lat="59.201387" lon="17.630291">
        <ele>32.2</ele>
        <time>2020-03-26T13:27:36Z</time>
        <extensions><gpxtpx:TrackPointExtension><gpxtpx:hr>139</gpxtpx:hr></gpxtpx:TrackPointExtension></extensions>
      </trkpt>
      <trkpt lat="59.201421" lon="17.630306">
        <ele>32.6</ele>
        <time>2020-03-26T13:27:37Z</time>
        <extensions><gpxtpx:TrackPointExtension><gpxtpx:hr>140</gpxtpx:hr></gpxtpx:TrackPointExtension></extensions>
      </trkpt>
      <trkpt lat="59.201463" lon="17.630318">
        <ele>32.8</ele>
        <time>2020-03-26T13:27:38Z</time>
        <extensions><gpxtpx:TrackPointExtension><gpxtpx:hr>140</gpxtpx:hr></gpxtpx:TrackPointExtension></extensions>
      </trkpt>
      <trkpt lat="59.201496" lon="17.630338">
        <ele>33.2</ele>
        <time>2020-03-26T13:27:39Z</time>
        <extensions><gpxtpx:TrackPointExtension><gpxtpx:hr>141</gpxtpx:hr></gpxtpx:TrackPointExtension></extensions>
      </trkpt>
      <trkpt lat="59.201531" lon="17.630363">
        <ele>33.4</ele>
        <time>2020-03-26T13:27:40Z</time>
        <extensions><gpxtpx:TrackPointExtension><gpxtpx:hr>141</gpxtpx:hr></gpxtpx:TrackPointExtension></extensions>
      </trkpt>
      <trkpt lat="59.201564" lon="17.630394">
        <ele>33.8</ele>
        <time>2020-03-26T13:27:41Z</time>
        <extensions><gpxtpx:TrackPointExtension><gpxtpx:hr>142</gpxtpx:hr></gpxtpx:TrackPointExtension></extensions>
      </trkpt>
      <trkpt lat="59.201596" lon="17.630429">
        <ele>34</ele>
        <time>2020-03-26T13:27:42Z</time>
        <extensions><gpxtpx:TrackPointExtension><gpxtpx:hr>142</gpxtpx:hr></gpxtpx:TrackPointExtension></extensions>
      </trkpt>
      <trkpt lat="59.201631" lon="17.630464">
        <ele>34.4</ele>
        <time>2020-03-26T13:27:43Z</time>
        <extensions><gpxtpx:TrackPointExtension><gpxtpx:hr>143</gpxtpx:hr></gpxtpx:TrackPointExtension></extensions>
      </trkpt>
      <trkpt lat="59.201661" lon="17.630503">
        <ele>34.6</ele>
        <time>2020-03-26T13:27:44Z</time>
        <extensions><gpxtpx:TrackPointExtension><gpxtpx:hr>144</gpxtpx:hr></gpxtpx:TrackPointExtension></extensions>
      </trkpt>
      <trkpt lat="59.20169" lon="17.630545">
        <ele>35</ele>
        <time>2020-03-26T13:27:45Z</time>
        <extensions><gpxtpx:TrackPointExtension><gpxtpx:hr>144</gpxtpx:hr></gpxtpx:TrackPointExtension></extensions>
      </trkpt>
      <trkpt lat="59.201717" lon="17.630592">
        <ele>35.2</ele>
        <time>2020-03-26T13:27:46Z</time>
        <extensions><gpxtpx:TrackPointExtension><gpxtpx:hr>145</gpxtpx:hr></gpxtpx:TrackPointExtension></extensions>
      </trkpt>
      <trkpt lat="59.20174" lon="17.630646">
        <ele>35.4</ele>
        <time>2020-03-26T13:27:47Z</time>
        <extensions><gpxtpx:TrackPointExtension><gpxtpx:hr>145</gpxtpx:hr></gpxtpx:TrackPointExtension></extensions>
      </trkpt>
      <trkpt lat="59.20176" lon="17.630706">
        <ele>35.8</ele>
        <time>2020-03-26T13:27:48Z</time>
        <extensions><gpxtpx:TrackPointExtension><gpxtpx:hr>146</gpxtpx:hr></gpxtpx:TrackPointExtension></extensions>
      </trkpt>
      <trkpt lat="59.201778" lon="17.630769">
        <ele>36</ele>
        <time>2020-03-26T13:27:49Z</time>
        <extensions><gpxtpx:TrackPointExtension><gpxtpx:hr>147</gpxtpx:hr></gpxtpx:TrackPointExtension></extensions>
      </trkpt>
      <trkpt lat="59.201796" lon="17.630831">
        <ele>36.4</ele>
        <time>2020-03-26T13:27:50Z</time>
        <extensions><gpxtpx:TrackPointExtension><gpxtpx:hr>147</gpxtpx:hr></gpxtpx:TrackPointExtension></extensions>
      </trkpt>
      <trkpt lat="59.201818" lon="17.630895">
        <ele>36.6</ele>
        <time>2020-03-26T13:27:51Z</time>
        <extensions><gpxtpx:TrackPointExtension><gpxtpx:hr>148</gpxtpx:hr></gpxtpx:TrackPointExtension></extensions>
      </trkpt>
      <trkpt lat="59.201837" lon="17.630958">
        <ele>37</ele>
        <time>2020-03-26T13:27:52Z</time>
        <extensions><gpxtpx:TrackPointExtension><gpxtpx:hr>148</gpxtpx:hr></gpxtpx:TrackPointExtension></extensions>
      </trkpt>
      <trkpt lat="59.201857" lon="17.631021">
        <ele>37</ele>
        <time>2020-03-26T13:27:53Z</time>
        <extensions><gpxtpx:TrackPointExtension><gpxtpx:hr>149</gpxtpx:hr></gpxtpx:TrackPointExtension></extensions>
      </trkpt>
      <trkpt lat="59.201876" lon="17.631084">
        <ele>37.2</ele>
        <time>2020-03-26T13:27:54Z</time>
        <extensions><gpxtpx:TrackPointExtension><gpxtpx:hr>149</gpxtpx:hr></gpxtpx:TrackPointExtension></extensions>
      </trkpt>
      <trkpt lat="59.201895" lon="17.631147">
        <ele>38</ele>
        <time>2020-03-26T13:27:55Z</time>
        <extensions><gpxtpx:TrackPointExtension><gpxtpx:hr>150</gpxtpx:hr></gpxtpx:TrackPointExtension></extensions>
      </trkpt>
      <trkpt lat="59.201912" lon="17.631211">
        <ele>38.4</ele>
        <time>2020-03-26T13:27:56Z</time>
        <extensions><gpxtpx:TrackPointExtension><gpxtpx:hr>150</gpxtpx:hr></gpxtpx:TrackPointExtension></extensions>
      </trkpt>
      <trkpt lat="59.201928" lon="17.631274">
        <ele>38.4</ele>
        <time>2020-03-26T13:27:57Z</time>
        <extensions><gpxtpx:TrackPointExtension><gpxtpx:hr>151</gpxtpx:hr></gpxtpx:TrackPointExtension></extensions>
      </trkpt>
      <trkpt lat="59.201944" lon="17.631338">
        <ele>39</ele>
        <time>2020-03-26T13:27:58Z</time>
        <extensions><gpxtpx:TrackPointExtension><gpxtpx:hr>151</gpxtpx:hr></gpxtpx:TrackPointExtension></extensions>
      </trkpt>
      <trkpt lat="59.201964" lon="17.631404">
        <ele>39</ele>
        <time>2020-03-26T13:27:59Z</time>
        <extensions><gpxtpx:TrackPointExtension><gpxtpx:hr>152</gpxtpx:hr></gpxtpx:TrackPointExtension></extensions>
      </trkpt>
      <trkpt lat="59.201981" lon="17.63147">
        <ele>39.6</ele>
        <time>2020-03-26T13:28:00Z</time>
        <extensions><gpxtpx:TrackPointExtension><gpxtpx:hr>152</gpxtpx:hr></gpxtpx:TrackPointExtension></extensions>
      </trkpt>
      <trkpt lat="59.202002" lon="17.631534">
        <ele>39.8</ele>
        <time>2020-03-26T13:28:01Z</time>
        <extensions><gpxtpx:TrackPointExtension><gpxtpx:hr>152</gpxtpx:hr></gpxtpx:TrackPointExtension></extensions>
      </trkpt>
      <trkpt lat="59.202024" lon="17.631597">
        <ele>40.2</ele>
        <time>2020-03-26T13:28:02Z</time>
        <extensions><gpxtpx:TrackPointExtension><gpxtpx:hr>153</gpxtpx:hr></gpxtpx:TrackPointExtension></extensions>
      </trkpt>
      <trkpt lat="59.202044" lon="17.631662">
        <ele>40.4</ele>
        <time>2020-03-26T13:28:03Z</time>
        <extensions><gpxtpx:TrackPointExtension><gpxtpx:hr>153</gpxtpx:hr></gpxtpx:TrackPointExtension></extensions>
      </trkpt>
      <trkpt lat="59.202066" lon="17.631728">
        <ele>41</ele>
        <time>2020-03-26T13:28:04Z</time>
        <extensions><gpxtpx:TrackPointExtension><gpxtpx:hr>153</gpxtpx:hr></gpxtpx:TrackPointExtension></extensions>
      </trkpt>
      <trkpt lat="59.202086" lon="17.631797">
        <ele>41</ele>
        <time>2020-03-26T13:28:05Z</time>
        <extensions><gpxtpx:TrackPointExtension><gpxtpx:hr>153</gpxtpx:hr></gpxtpx:TrackPointExtension></extensions>
      </trkpt>
      <trkpt lat="59.202107" lon="17.631863">
        <ele>41.2</ele>
        <time>2020-03-26T13:28:06Z</time>
        <extensions><gpxtpx:TrackPointExtension><gpxtpx:hr>153</gpxtpx:hr></gpxtpx:TrackPointExtension></extensions>
      </trkpt>
      <trkpt lat="59.202124" lon="17.631924">
        <ele>41.2</ele>
        <time>2020-03-26T13:28:07Z</time>
        <extensions><gpxtpx:TrackPointExtension><gpxtpx:hr>153</gpxtpx:hr></gpxtpx:TrackPointExtension></extensions>
      </trkpt>
      <trkpt lat="59.202138" lon="17.631978">
        <ele>41.6</ele>
        <time>2020-03-26T13:28:08Z</time>
        <extensions><gpxtpx:TrackPointExtension><gpxtpx:hr>153</gpxtpx:hr></gpxtpx:TrackPointExtension></extensions>
      </trkpt>
      <trkpt lat="59.202152" lon="17.632032">
        <ele>41.6</ele>
        <time>2020-03-26T13:28:09Z</time>
        <extensions><gpxtpx:TrackPointExtension><gpxtpx:hr>153</gpxtpx:hr></gpxtpx:TrackPointExtension></extensions>
      </trkpt>
      <trkpt lat="59.202167" lon="17.632093">
        <ele>41.8</ele>
        <time>2020-03-26T13:28:10Z</time>
        <extensions><gpxtpx:TrackPointExtension><gpxtpx:hr>153</gpxtpx:hr></gpxtpx:TrackPointExtension></extensions>
      </trkpt>
      <trkpt lat="59.202184" lon="17.632165">
        <ele>42.2</ele>
        <time>2020-03-26T13:28:11Z</time>
        <extensions><gpxtpx:TrackPointExtension><gpxtpx:hr>153</gpxtpx:hr></gpxtpx:TrackPointExtension></extensions>
      </trkpt>
      <trkpt lat="59.202207" lon="17.632244">
        <ele>42.2</ele>
        <time>2020-03-26T13:28:12Z</time>
        <extensions><gpxtpx:TrackPointExtension><gpxtpx:hr>153</gpxtpx:hr></gpxtpx:TrackPointExtension></extensions>
      </trkpt>
      <trkpt lat="59.202231" lon="17.632321">
        <ele>42.2</ele>
        <time>2020-03-26T13:28:13Z</time>
        <extensions><gpxtpx:TrackPointExtension><gpxtpx:hr>153</gpxtpx:hr></gpxtpx:TrackPointExtension></extensions>
      </trkpt>
      <trkpt lat="59.202256" lon="17.632399">
        <ele>42.2</ele>
        <time>2020-03-26T13:28:14Z</time>
        <extensions><gpxtpx:TrackPointExtension><gpxtpx:hr>153</gpxtpx:hr></gpxtpx:TrackPointExtension></extensions>
      </trkpt>
      <trkpt lat="59.202279" lon="17.632477">
        <ele>42.4</ele>
        <time>2020-03-26T13:28:15Z</time>
        <extensions><gpxtpx:TrackPointExtension><gpxtpx:hr>153</gpxtpx:hr></gpxtpx:TrackPointExtension></extensions>
      </trkpt>
      <trkpt lat="59.202302" lon="17.632554">
        <ele>42.4</ele>
        <time>2020-03-26T13:28:16Z</time>
        <extensions><gpxtpx:TrackPointExtension><gpxtpx:hr>153</gpxtpx:hr></gpxtpx:TrackPointExtension></extensions>
      </trkpt>
      <trkpt lat="59.202324" lon="17.63263">
        <ele>42.4</ele>
        <time>2020-03-26T13:28:17Z</time>
        <extensions><gpxtpx:TrackPointExtension><gpxtpx:hr>153</gpxtpx:hr></gpxtpx:TrackPointExtension></extensions>
      </trkpt>
      <trkpt lat="59.202345" lon="17.632706">
        <ele>42.4</ele>
        <time>2020-03-26T13:28:18Z</time>
        <extensions><gpxtpx:TrackPointExtension><gpxtpx:hr>153</gpxtpx:hr></gpxtpx:TrackPointExtension></extensions>
      </trkpt>
      <trkpt lat="59.202365" lon="17.632784">
        <ele>42.4</ele>
        <time>2020-03-26T13:28:19Z</time>
        <extensions><gpxtpx:TrackPointExtension><gpxtpx:hr>152</gpxtpx:hr></gpxtpx:TrackPointExtension></extensions>
      </trkpt>
      <trkpt lat="59.202381" lon="17.632864">
        <ele>42.8</ele>
        <time>2020-03-26T13:28:20Z</time>
        <extensions><gpxtpx:TrackPointExtension><gpxtpx:hr>152</gpxtpx:hr></gpxtpx:TrackPointExtension></extensions>
      </trkpt>
      <trkpt lat="59.202396" lon="17.632944">
        <ele>42.8</ele>
        <time>2020-03-26T13:28:21Z</time>
        <extensions><gpxtpx:TrackPointExtension><gpxtpx:hr>151</gpxtpx:hr></gpxtpx:TrackPointExtension></extensions>
      </trkpt>
      <trkpt lat="59.202408" lon="17.633026">
        <ele>42.8</ele>
        <time>2020-03-26T13:28:22Z</time>
        <extensions><gpxtpx:TrackPointExtension><gpxtpx:hr>151</gpxtpx:hr></gpxtpx:TrackPointExtension></extensions>
      </trkpt>
      <trkpt lat="59.20242" lon="17.633109">
        <ele>42.8</ele>
        <time>2020-03-26T13:28:23Z</time>
        <extensions><gpxtpx:TrackPointExtension><gpxtpx:hr>150</gpxtpx:hr></gpxtpx:TrackPointExtension></extensions>
      </trkpt>
      <trkpt lat="59.202432" lon="17.633193">
        <ele>42.8</ele>
        <time>2020-03-26T13:28:24Z</time>
        <extensions><gpxtpx:TrackPointExtension><gpxtpx:hr>149</gpxtpx:hr></gpxtpx:TrackPointExtension></extensions>
      </trkpt>
      <trkpt lat="59.202444" lon="17.633277">
        <ele>42.8</ele>
        <time>2020-03-26T13:28:25Z</time>
        <extensions><gpxtpx:TrackPointExtension><gpxtpx:hr>149</gpxtpx:hr></gpxtpx:TrackPointExtension></extensions>
      </trkpt>
      <trkpt lat="59.202458" lon="17.63336">
        <ele>43</ele>
        <time>2020-03-26T13:28:26Z</time>
        <extensions><gpxtpx:TrackPointExtension><gpxtpx:hr>148</gpxtpx:hr></gpxtpx:TrackPointExtension></extensions>
      </trkpt>
      <trkpt lat="59.202472" lon="17.633443">
        <ele>43</ele>
        <time>2020-03-26T13:28:27Z</time>
        <extensions><gpxtpx:TrackPointExtension><gpxtpx:hr>148</gpxtpx:hr></gpxtpx:TrackPointExtension></extensions>
      </trkpt>
      <trkpt lat="59.202484" lon="17.633527">
        <ele>43.2</ele>
        <time>2020-03-26T13:28:28Z</time>
        <extensions><gpxtpx:TrackPointExtension><gpxtpx:hr>148</gpxtpx:hr></gpxtpx:TrackPointExtension></extensions>
      </trkpt>
      <trkpt lat="59.202496" lon="17.633616">
        <ele>43.6</ele>
        <time>2020-03-26T13:28:29Z</time>
        <extensions><gpxtpx:TrackPointExtension><gpxtpx:hr>147</gpxtpx:hr></gpxtpx:TrackPointExtension></extensions>
      </trkpt>
      <trkpt lat="59.202509" lon="17.633707">
        <ele>43.8</ele>
        <time>2020-03-26T13:28:30Z</time>
        <extensions><gpxtpx:TrackPointExtension><gpxtpx:hr>147</gpxtpx:hr></gpxtpx:TrackPointExtension></extensions>
      </trkpt>
      <trkpt lat="59.202521" lon="17.633798">
        <ele>44</ele>
        <time>2020-03-26T13:28:31Z</time>
        <extensions><gpxtpx:TrackPointExtension><gpxtpx:hr>146</gpxtpx:hr></gpxtpx:TrackPointExtension></extensions>
      </trkpt>
      <trkpt lat="59.202531" lon="17.633889">
        <ele>44.2</ele>
        <time>2020-03-26T13:28:32Z</time>
        <extensions><gpxtpx:TrackPointExtension><gpxtpx:hr>146</gpxtpx:hr></gpxtpx:TrackPointExtension></extensions>
      </trkpt>
      <trkpt lat="59.202542" lon="17.633981">
        <ele>44.2</ele>
        <time>2020-03-26T13:28:33Z</time>
        <extensions><gpxtpx:TrackPointExtension><gpxtpx:hr>146</gpxtpx:hr></gpxtpx:TrackPointExtension></extensions>
      </trkpt>
      <trkpt lat="59.202554" lon="17.634071">
        <ele>44.6</ele>
        <time>2020-03-26T13:28:34Z</time>
        <extensions><gpxtpx:TrackPointExtension><gpxtpx:hr>146</gpxtpx:hr></gpxtpx:TrackPointExtension></extensions>
      </trkpt>
      <trkpt lat="59.202566" lon="17.63416">
        <ele>44.8</ele>
        <time>2020-03-26T13:28:35Z</time>
        <extensions><gpxtpx:TrackPointExtension><gpxtpx:hr>146</gpxtpx:hr></gpxtpx:TrackPointExtension></extensions>
      </trkpt>
      <trkpt lat="59.202578" lon="17.634248">
        <ele>45.2</ele>
        <time>2020-03-26T13:28:36Z</time>
        <extensions><gpxtpx:TrackPointExtension><gpxtpx:hr>147</gpxtpx:hr></gpxtpx:TrackPointExtension></extensions>
      </trkpt>
      <trkpt lat="59.202589" lon="17.634337">
        <ele>45.4</ele>
        <time>2020-03-26T13:28:37Z</time>
        <extensions><gpxtpx:TrackPointExtension><gpxtpx:hr>146</gpxtpx:hr></gpxtpx:TrackPointExtension></extensions>
      </trkpt>
      <trkpt lat="59.2026" lon="17.634427">
        <ele>45.6</ele>
        <time>2020-03-26T13:28:38Z</time>
        <extensions><gpxtpx:TrackPointExtension><gpxtpx:hr>146</gpxtpx:hr></gpxtpx:TrackPointExtension></extensions>
      </trkpt>
      <trkpt lat="59.202612" lon="17.634517">
        <ele>45.8</ele>
        <time>2020-03-26T13:28:39Z</time>
        <extensions><gpxtpx:TrackPointExtension><gpxtpx:hr>146</gpxtpx:hr></gpxtpx:TrackPointExtension></extensions>
      </trkpt>
      <trkpt lat="59.202628" lon="17.634618">
        <ele>46</ele>
        <time>2020-03-26T13:28:40Z</time>
        <extensions><gpxtpx:TrackPointExtension><gpxtpx:hr>146</gpxtpx:hr></gpxtpx:TrackPointExtension></extensions>
      </trkpt>
      <trkpt lat="59.20264" lon="17.634714">
        <ele>46.2</ele>
        <time>2020-03-26T13:28:41Z</time>
        <extensions><gpxtpx:TrackPointExtension><gpxtpx:hr>146</gpxtpx:hr></gpxtpx:TrackPointExtension></extensions>
      </trkpt>
      <trkpt lat="59.202651" lon="17.634808">
        <ele>46.2</ele>
        <time>2020-03-26T13:28:42Z</time>
        <extensions><gpxtpx:TrackPointExtension><gpxtpx:hr>145</gpxtpx:hr></gpxtpx:TrackPointExtension></extensions>
      </trkpt>
      <trkpt lat="59.20266" lon="17.634902">
        <ele>46.2</ele>
        <time>2020-03-26T13:28:43Z</time>
        <extensions><gpxtpx:TrackPointExtension><gpxtpx:hr>145</gpxtpx:hr></gpxtpx:TrackPointExtension></extensions>
      </trkpt>
      <trkpt lat="59.20267" lon="17.634995">
        <ele>46.2</ele>
        <time>2020-03-26T13:28:44Z</time>
        <extensions><gpxtpx:TrackPointExtension><gpxtpx:hr>145</gpxtpx:hr></gpxtpx:TrackPointExtension></extensions>
      </trkpt>
      <trkpt lat="59.202681" lon="17.635089">
        <ele>46.4</ele>
        <time>2020-03-26T13:28:45Z</time>
        <extensions><gpxtpx:TrackPointExtension><gpxtpx:hr>145</gpxtpx:hr></gpxtpx:TrackPointExtension></extensions>
      </trkpt>
      <trkpt lat="59.20269" lon="17.635183">
        <ele>46.6</ele>
        <time>2020-03-26T13:28:46Z</time>
        <extensions><gpxtpx:TrackPointExtension><gpxtpx:hr>145</gpxtpx:hr></gpxtpx:TrackPointExtension></extensions>
      </trkpt>
      <trkpt lat="59.202698" lon="17.635276">
        <ele>46.6</ele>
        <time>2020-03-26T13:28:47Z</time>
        <extensions><gpxtpx:TrackPointExtension><gpxtpx:hr>145</gpxtpx:hr></gpxtpx:TrackPointExtension></extensions>
      </trkpt>
      <trkpt lat="59.202706" lon="17.63537">
        <ele>46.8</ele>
        <time>2020-03-26T13:28:48Z</time>
        <extensions><gpxtpx:TrackPointExtension><gpxtpx:hr>145</gpxtpx:hr></gpxtpx:TrackPointExtension></extensions>
      </trkpt>
      <trkpt lat="59.202715" lon="17.635465">
        <ele>47</ele>
        <time>2020-03-26T13:28:49Z</time>
        <extensions><gpxtpx:TrackPointExtension><gpxtpx:hr>145</gpxtpx:hr></gpxtpx:TrackPointExtension></extensions>
      </trkpt>
      <trkpt lat="59.202724" lon="17.635562">
        <ele>47</ele>
        <time>2020-03-26T13:28:50Z</time>
        <extensions><gpxtpx:TrackPointExtension><gpxtpx:hr>145</gpxtpx:hr></gpxtpx:TrackPointExtension></extensions>
      </trkpt>
      <trkpt lat="59.202734" lon="17.635659">
        <ele>47</ele>
        <time>2020-03-26T13:28:51Z</time>
        <extensions><gpxtpx:TrackPointExtension><gpxtpx:hr>145</gpxtpx:hr></gpxtpx:TrackPointExtension></extensions>
      </trkpt>
      <trkpt lat="59.202743" lon="17.635755">
        <ele>47.2</ele>
        <time>2020-03-26T13:28:52Z</time>
        <extensions><gpxtpx:TrackPointExtension><gpxtpx:hr>145</gpxtpx:hr></gpxtpx:TrackPointExtension></extensions>
      </trkpt>
      <trkpt lat="59.20275" lon="17.635848">
        <ele>47.4</ele>
        <time>2020-03-26T13:28:53Z</time>
        <extensions><gpxtpx:TrackPointExtension><gpxtpx:hr>146</gpxtpx:hr></gpxtpx:TrackPointExtension></extensions>
      </trkpt>
      <trkpt lat="59.202757" lon="17.635944">
        <ele>47.6</ele>
        <time>2020-03-26T13:28:54Z</time>
        <extensions><gpxtpx:TrackPointExtension><gpxtpx:hr>146</gpxtpx:hr></gpxtpx:TrackPointExtension></extensions>
      </trkpt>
      <trkpt lat="59.202761" lon="17.63604">
        <ele>48</ele>
        <time>2020-03-26T13:28:55Z</time>
        <extensions><gpxtpx:TrackPointExtension><gpxtpx:hr>146</gpxtpx:hr></gpxtpx:TrackPointExtension></extensions>
      </trkpt>
      <trkpt lat="59.202769" lon="17.636138">
        <ele>48.2</ele>
        <time>2020-03-26T13:28:56Z</time>
        <extensions><gpxtpx:TrackPointExtension><gpxtpx:hr>146</gpxtpx:hr></gpxtpx:TrackPointExtension></extensions>
      </trkpt>
      <trkpt lat="59.202779" lon="17.636231">
        <ele>48.6</ele>
        <time>2020-03-26T13:28:57Z</time>
        <extensions><gpxtpx:TrackPointExtension><gpxtpx:hr>146</gpxtpx:hr></gpxtpx:TrackPointExtension></extensions>
      </trkpt>
      <trkpt lat="59.202794" lon="17.636327">
        <ele>48.8</ele>
        <time>2020-03-26T13:28:58Z</time>
        <extensions><gpxtpx:TrackPointExtension><gpxtpx:hr>146</gpxtpx:hr></gpxtpx:TrackPointExtension></extensions>
      </trkpt>
      <trkpt lat="59.202817" lon="17.636433">
        <ele>49</ele>
        <time>2020-03-26T13:28:59Z</time>
        <extensions><gpxtpx:TrackPointExtension><gpxtpx:hr>146</gpxtpx:hr></gpxtpx:TrackPointExtension></extensions>
      </trkpt>
      <trkpt lat="59.202836" lon="17.636526">
        <ele>49.2</ele>
        <time>2020-03-26T13:29:00Z</time>
        <extensions><gpxtpx:TrackPointExtension><gpxtpx:hr>146</gpxtpx:hr></gpxtpx:TrackPointExtension></extensions>
      </trkpt>
      <trkpt lat="59.202855" lon="17.636617">
        <ele>49.4</ele>
        <time>2020-03-26T13:29:01Z</time>
        <extensions><gpxtpx:TrackPointExtension><gpxtpx:hr>146</gpxtpx:hr></gpxtpx:TrackPointExtension></extensions>
      </trkpt>
      <trkpt lat="59.202873" lon="17.63671">
        <ele>49.6</ele>
        <time>2020-03-26T13:29:02Z</time>
        <extensions><gpxtpx:TrackPointExtension><gpxtpx:hr>146</gpxtpx:hr></gpxtpx:TrackPointExtension></extensions>
      </trkpt>
      <trkpt lat="59.202889" lon="17.636802">
        <ele>49.6</ele>
        <time>2020-03-26T13:29:03Z</time>
        <extensions><gpxtpx:TrackPointExtension><gpxtpx:hr>146</gpxtpx:hr></gpxtpx:TrackPointExtension></extensions>
      </trkpt>
      <trkpt lat="59.202906" lon="17.636893">
        <ele>49.8</ele>
        <time>2020-03-26T13:29:04Z</time>
        <extensions><gpxtpx:TrackPointExtension><gpxtpx:hr>146</gpxtpx:hr></gpxtpx:TrackPointExtension></extensions>
      </trkpt>
      <trkpt lat="59.202923" lon="17.636985">
        <ele>49.8</ele>
        <time>2020-03-26T13:29:05Z</time>
        <extensions><gpxtpx:TrackPointExtension><gpxtpx:hr>146</gpxtpx:hr></gpxtpx:TrackPointExtension></extensions>
      </trkpt>
      <trkpt lat="59.202939" lon="17.637076">
        <ele>50</ele>
        <time>2020-03-26T13:29:06Z</time>
        <extensions><gpxtpx:TrackPointExtension><gpxtpx:hr>146</gpxtpx:hr></gpxtpx:TrackPointExtension></extensions>
      </trkpt>
      <trkpt lat="59.202954" lon="17.637169">
        <ele>50</ele>
        <time>2020-03-26T13:29:07Z</time>
        <extensions><gpxtpx:TrackPointExtension><gpxtpx:hr>146</gpxtpx:hr></gpxtpx:TrackPointExtension></extensions>
      </trkpt>
      <trkpt lat="59.202968" lon="17.637262">
        <ele>50</ele>
        <time>2020-03-26T13:29:08Z</time>
        <extensions><gpxtpx:TrackPointExtension><gpxtpx:hr>146</gpxtpx:hr></gpxtpx:TrackPointExtension></extensions>
      </trkpt>
      <trkpt lat="59.202982" lon="17.637355">
        <ele>50.2</ele>
        <time>2020-03-26T13:29:09Z</time>
        <extensions><gpxtpx:TrackPointExtension><gpxtpx:hr>146</gpxtpx:hr></gpxtpx:TrackPointExtension></extensions>
      </trkpt>
      <trkpt lat="59.202995" lon="17.637446">
        <ele>50.4</ele>
        <time>2020-03-26T13:29:10Z</time>
        <extensions><gpxtpx:TrackPointExtension><gpxtpx:hr>146</gpxtpx:hr></gpxtpx:TrackPointExtension></extensions>
      </trkpt>
      <trkpt lat="59.203006" lon="17.637538">
        <ele>50.4</ele>
        <time>2020-03-26T13:29:11Z</time>
        <extensions><gpxtpx:TrackPointExtension><gpxtpx:hr>146</gpxtpx:hr></gpxtpx:TrackPointExtension></extensions>
      </trkpt>
      <trkpt lat="59.203018" lon="17.637628">
        <ele>50.6</ele>
        <time>2020-03-26T13:29:12Z</time>
        <extensions><gpxtpx:TrackPointExtension><gpxtpx:hr>146</gpxtpx:hr></gpxtpx:TrackPointExtension></extensions>
      </trkpt>
      <trkpt lat="59.203028" lon="17.637721">
        <ele>50.6</ele>
        <time>2020-03-26T13:29:13Z</time>
        <extensions><gpxtpx:TrackPointExtension><gpxtpx:hr>146</gpxtpx:hr></gpxtpx:TrackPointExtension></extensions>
      </trkpt>
      <trkpt lat="59.203038" lon="17.637819">
        <ele>50.8</ele>
        <time>2020-03-26T13:29:14Z</time>
        <extensions><gpxtpx:TrackPointExtension><gpxtpx:hr>146</gpxtpx:hr></gpxtpx:TrackPointExtension></extensions>
      </trkpt>
      <trkpt lat="59.203042" lon="17.637917">
        <ele>51</ele>
        <time>2020-03-26T13:29:15Z</time>
        <extensions><gpxtpx:TrackPointExtension><gpxtpx:hr>146</gpxtpx:hr></gpxtpx:TrackPointExtension></extensions>
      </trkpt>
      <trkpt lat="59.203045" lon="17.638012">
        <ele>51.2</ele>
        <time>2020-03-26T13:29:16Z</time>
        <extensions><gpxtpx:TrackPointExtension><gpxtpx:hr>147</gpxtpx:hr></gpxtpx:TrackPointExtension></extensions>
      </trkpt>
      <trkpt lat="59.203051" lon="17.638106">
        <ele>51.4</ele>
        <time>2020-03-26T13:29:17Z</time>
        <extensions><gpxtpx:TrackPointExtension><gpxtpx:hr>147</gpxtpx:hr></gpxtpx:TrackPointExtension></extensions>
      </trkpt>
      <trkpt lat="59.203054" lon="17.638202">
        <ele>51.8</ele>
        <time>2020-03-26T13:29:18Z</time>
        <extensions><gpxtpx:TrackPointExtension><gpxtpx:hr>147</gpxtpx:hr></gpxtpx:TrackPointExtension></extensions>
      </trkpt>
      <trkpt lat="59.203053" lon="17.638297">
        <ele>52</ele>
        <time>2020-03-26T13:29:19Z</time>
        <extensions><gpxtpx:TrackPointExtension><gpxtpx:hr>147</gpxtpx:hr></gpxtpx:TrackPointExtension></extensions>
      </trkpt>
      <trkpt lat="59.203044" lon="17.638393">
        <ele>52.6</ele>
        <time>2020-03-26T13:29:20Z</time>
        <extensions><gpxtpx:TrackPointExtension><gpxtpx:hr>148</gpxtpx:hr></gpxtpx:TrackPointExtension></extensions>
      </trkpt>
      <trkpt lat="59.20303" lon="17.638489">
        <ele>53</ele>
        <time>2020-03-26T13:29:21Z</time>
        <extensions><gpxtpx:TrackPointExtension><gpxtpx:hr>148</gpxtpx:hr></gpxtpx:TrackPointExtension></extensions>
      </trkpt>
      <trkpt lat="59.203006" lon="17.63858">
        <ele>53.2</ele>
        <time>2020-03-26T13:29:22Z</time>
        <extensions><gpxtpx:TrackPointExtension><gpxtpx:hr>148</gpxtpx:hr></gpxtpx:TrackPointExtension></extensions>
      </trkpt>
      <trkpt lat="59.202977" lon="17.638663">
        <ele>53.4</ele>
        <time>2020-03-26T13:29:23Z</time>
        <extensions><gpxtpx:TrackPointExtension><gpxtpx:hr>148</gpxtpx:hr></gpxtpx:TrackPointExtension></extensions>
      </trkpt>
      <trkpt lat="59.202946" lon="17.638745">
        <ele>53.8</ele>
        <time>2020-03-26T13:29:24Z</time>
        <extensions><gpxtpx:TrackPointExtension><gpxtpx:hr>148</gpxtpx:hr></gpxtpx:TrackPointExtension></extensions>
      </trkpt>
      <trkpt lat="59.202913" lon="17.638825">
        <ele>54</ele>
        <time>2020-03-26T13:29:25Z</time>
        <extensions><gpxtpx:TrackPointExtension><gpxtpx:hr>149</gpxtpx:hr></gpxtpx:TrackPointExtension></extensions>
      </trkpt>
      <trkpt lat="59.202879" lon="17.638898">
        <ele>54.4</ele>
        <time>2020-03-26T13:29:26Z</time>
        <extensions><gpxtpx:TrackPointExtension><gpxtpx:hr>149</gpxtpx:hr></gpxtpx:TrackPointExtension></extensions>
      </trkpt>
      <trkpt lat="59.202847" lon="17.638973">
        <ele>54.6</ele>
        <time>2020-03-26T13:29:27Z</time>
        <extensions><gpxtpx:TrackPointExtension><gpxtpx:hr>149</gpxtpx:hr></gpxtpx:TrackPointExtension></extensions>
      </trkpt>
      <trkpt lat="59.202812" lon="17.639044">
        <ele>54.8</ele>
        <time>2020-03-26T13:29:28Z</time>
        <extensions><gpxtpx:TrackPointExtension><gpxtpx:hr>149</gpxtpx:hr></gpxtpx:TrackPointExtension></extensions>
      </trkpt>
      <trkpt lat="59.202773" lon="17.63912">
        <ele>54.8</ele>
        <time>2020-03-26T13:29:29Z</time>
        <extensions><gpxtpx:TrackPointExtension><gpxtpx:hr>149</gpxtpx:hr></gpxtpx:TrackPointExtension></extensions>
      </trkpt>
      <trkpt lat="59.202735" lon="17.639195">
        <ele>54.8</ele>
        <time>2020-03-26T13:29:30Z</time>
        <extensions><gpxtpx:TrackPointExtension><gpxtpx:hr>149</gpxtpx:hr></gpxtpx:TrackPointExtension></extensions>
      </trkpt>
      <trkpt lat="59.202701" lon="17.63927">
        <ele>55</ele>
        <time>2020-03-26T13:29:31Z</time>
        <extensions><gpxtpx:TrackPointExtension><gpxtpx:hr>149</gpxtpx:hr></gpxtpx:TrackPointExtension></extensions>
      </trkpt>
      <trkpt lat="59.202669" lon="17.639349">
        <ele>55</ele>
        <time>2020-03-26T13:29:32Z</time>
        <extensions><gpxtpx:TrackPointExtension><gpxtpx:hr>149</gpxtpx:hr></gpxtpx:TrackPointExtension></extensions>
      </trkpt>
      <trkpt lat="59.202636" lon="17.639431">
        <ele>55</ele>
        <time>2020-03-26T13:29:33Z</time>
        <extensions><gpxtpx:TrackPointExtension><gpxtpx:hr>149</gpxtpx:hr></gpxtpx:TrackPointExtension></extensions>
      </trkpt>
      <trkpt lat="59.202609" lon="17.639519">
        <ele>55</ele>
        <time>2020-03-26T13:29:34Z</time>
        <extensions><gpxtpx:TrackPointExtension><gpxtpx:hr>149</gpxtpx:hr></gpxtpx:TrackPointExtension></extensions>
      </trkpt>
      <trkpt lat="59.20258" lon="17.639608">
        <ele>55</ele>
        <time>2020-03-26T13:29:35Z</time>
        <extensions><gpxtpx:TrackPointExtension><gpxtpx:hr>149</gpxtpx:hr></gpxtpx:TrackPointExtension></extensions>
      </trkpt>
      <trkpt lat="59.202551" lon="17.639696">
        <ele>55</ele>
        <time>2020-03-26T13:29:36Z</time>
        <extensions><gpxtpx:TrackPointExtension><gpxtpx:hr>149</gpxtpx:hr></gpxtpx:TrackPointExtension></extensions>
      </trkpt>
      <trkpt lat="59.202521" lon="17.639786">
        <ele>55</ele>
        <time>2020-03-26T13:29:37Z</time>
        <extensions><gpxtpx:TrackPointExtension><gpxtpx:hr>150</gpxtpx:hr></gpxtpx:TrackPointExtension></extensions>
      </trkpt>
      <trkpt lat="59.20249" lon="17.639879">
        <ele>55</ele>
        <time>2020-03-26T13:29:38Z</time>
        <extensions><gpxtpx:TrackPointExtension><gpxtpx:hr>149</gpxtpx:hr></gpxtpx:TrackPointExtension></extensions>
      </trkpt>
      <trkpt lat="59.202464" lon="17.639959">
        <ele>55</ele>
        <time>2020-03-26T13:29:39Z</time>
        <extensions><gpxtpx:TrackPointExtension><gpxtpx:hr>149</gpxtpx:hr></gpxtpx:TrackPointExtension></extensions>
      </trkpt>
      <trkpt lat="59.202441" lon="17.640048">
        <ele>55</ele>
        <time>2020-03-26T13:29:40Z</time>
        <extensions><gpxtpx:TrackPointExtension><gpxtpx:hr>149</gpxtpx:hr></gpxtpx:TrackPointExtension></extensions>
      </trkpt>
      <trkpt lat="59.202422" lon="17.640141">
        <ele>55</ele>
        <time>2020-03-26T13:29:41Z</time>
        <extensions><gpxtpx:TrackPointExtension><gpxtpx:hr>148</gpxtpx:hr></gpxtpx:TrackPointExtension></extensions>
      </trkpt>
      <trkpt lat="59.202405" lon="17.640231">
        <ele>55</ele>
        <time>2020-03-26T13:29:42Z</time>
        <extensions><gpxtpx:TrackPointExtension><gpxtpx:hr>149</gpxtpx:hr></gpxtpx:TrackPointExtension></extensions>
      </trkpt>
      <trkpt lat="59.202391" lon="17.640322">
        <ele>55</ele>
        <time>2020-03-26T13:29:43Z</time>
        <extensions><gpxtpx:TrackPointExtension><gpxtpx:hr>149</gpxtpx:hr></gpxtpx:TrackPointExtension></extensions>
      </trkpt>
      <trkpt lat="59.202383" lon="17.640418">
        <ele>55</ele>
        <time>2020-03-26T13:29:44Z</time>
        <extensions><gpxtpx:TrackPointExtension><gpxtpx:hr>149</gpxtpx:hr></gpxtpx:TrackPointExtension></extensions>
      </trkpt>
      <trkpt lat="59.20238" lon="17.640512">
        <ele>55</ele>
        <time>2020-03-26T13:29:45Z</time>
        <extensions><gpxtpx:TrackPointExtension><gpxtpx:hr>149</gpxtpx:hr></gpxtpx:TrackPointExtension></extensions>
      </trkpt>
      <trkpt lat="59.202377" lon="17.640601">
        <ele>55</ele>
        <time>2020-03-26T13:29:46Z</time>
        <extensions><gpxtpx:TrackPointExtension><gpxtpx:hr>149</gpxtpx:hr></gpxtpx:TrackPointExtension></extensions>
      </trkpt>
      <trkpt lat="59.202374" lon="17.640689">
        <ele>55.2</ele>
        <time>2020-03-26T13:29:47Z</time>
        <extensions><gpxtpx:TrackPointExtension><gpxtpx:hr>149</gpxtpx:hr></gpxtpx:TrackPointExtension></extensions>
      </trkpt>
      <trkpt lat="59.202373" lon="17.640774">
        <ele>55.4</ele>
        <time>2020-03-26T13:29:48Z</time>
        <extensions><gpxtpx:TrackPointExtension><gpxtpx:hr>149</gpxtpx:hr></gpxtpx:TrackPointExtension></extensions>
      </trkpt>
      <trkpt lat="59.202372" lon="17.640859">
        <ele>55.6</ele>
        <time>2020-03-26T13:29:49Z</time>
        <extensions><gpxtpx:TrackPointExtension><gpxtpx:hr>149</gpxtpx:hr></gpxtpx:TrackPointExtension></extensions>
      </trkpt>
      <trkpt lat="59.202372" lon="17.640945">
        <ele>55.8</ele>
        <time>2020-03-26T13:29:50Z</time>
        <extensions><gpxtpx:TrackPointExtension><gpxtpx:hr>149</gpxtpx:hr></gpxtpx:TrackPointExtension></extensions>
      </trkpt>
      <trkpt lat="59.202376" lon="17.641031">
        <ele>56</ele>
        <time>2020-03-26T13:29:51Z</time>
        <extensions><gpxtpx:TrackPointExtension><gpxtpx:hr>149</gpxtpx:hr></gpxtpx:TrackPointExtension></extensions>
      </trkpt>
      <trkpt lat="59.20238" lon="17.641116">
        <ele>56.4</ele>
        <time>2020-03-26T13:29:52Z</time>
        <extensions><gpxtpx:TrackPointExtension><gpxtpx:hr>149</gpxtpx:hr></gpxtpx:TrackPointExtension></extensions>
      </trkpt>
      <trkpt lat="59.202383" lon="17.641207">
        <ele>56.6</ele>
        <time>2020-03-26T13:29:53Z</time>
        <extensions><gpxtpx:TrackPointExtension><gpxtpx:hr>150</gpxtpx:hr></gpxtpx:TrackPointExtension></extensions>
      </trkpt>
      <trkpt lat="59.202386" lon="17.641301">
        <ele>56.8</ele>
        <time>2020-03-26T13:29:54Z</time>
        <extensions><gpxtpx:TrackPointExtension><gpxtpx:hr>150</gpxtpx:hr></gpxtpx:TrackPointExtension></extensions>
      </trkpt>
      <trkpt lat="59.20239" lon="17.641396">
        <ele>57.2</ele>
        <time>2020-03-26T13:29:55Z</time>
        <extensions><gpxtpx:TrackPointExtension><gpxtpx:hr>151</gpxtpx:hr></gpxtpx:TrackPointExtension></extensions>
      </trkpt>
      <trkpt lat="59.202395" lon="17.641499">
        <ele>57.6</ele>
        <time>2020-03-26T13:29:56Z</time>
        <extensions><gpxtpx:TrackPointExtension><gpxtpx:hr>151</gpxtpx:hr></gpxtpx:TrackPointExtension></extensions>
      </trkpt>
      <trkpt lat="59.202402" lon="17.641605">
        <ele>57.8</ele>
        <time>2020-03-26T13:29:57Z</time>
        <extensions><gpxtpx:TrackPointExtension><gpxtpx:hr>152</gpxtpx:hr></gpxtpx:TrackPointExtension></extensions>
      </trkpt>
      <trkpt lat="59.20241" lon="17.641714">
        <ele>58.2</ele>
        <time>2020-03-26T13:29:58Z</time>
        <extensions><gpxtpx:TrackPointExtension><gpxtpx:hr>152</gpxtpx:hr></gpxtpx:TrackPointExtension></extensions>
      </trkpt>
      <trkpt lat="59.202417" lon="17.641813">
        <ele>58.4</ele>
        <time>2020-03-26T13:29:59Z</time>
        <extensions><gpxtpx:TrackPointExtension><gpxtpx:hr>152</gpxtpx:hr></gpxtpx:TrackPointExtension></extensions>
      </trkpt>
      <trkpt lat="59.202421" lon="17.641919">
        <ele>58.6</ele>
        <time>2020-03-26T13:30:00Z</time>
        <extensions><gpxtpx:TrackPointExtension><gpxtpx:hr>152</gpxtpx:hr></gpxtpx:TrackPointExtension></extensions>
      </trkpt>
      <trkpt lat="59.202425" lon="17.64203">
        <ele>58.6</ele>
        <time>2020-03-26T13:30:01Z</time>
        <extensions><gpxtpx:TrackPointExtension><gpxtpx:hr>153</gpxtpx:hr></gpxtpx:TrackPointExtension></extensions>
      </trkpt>
      <trkpt lat="59.20243" lon="17.642141">
        <ele>58.8</ele>
        <time>2020-03-26T13:30:02Z</time>
        <extensions><gpxtpx:TrackPointExtension><gpxtpx:hr>153</gpxtpx:hr></gpxtpx:TrackPointExtension></extensions>
      </trkpt>
      <trkpt lat="59.202436" lon="17.642254">
        <ele>58.8</ele>
        <time>2020-03-26T13:30:03Z</time>
        <extensions><gpxtpx:TrackPointExtension><gpxtpx:hr>153</gpxtpx:hr></gpxtpx:TrackPointExtension></extensions>
      </trkpt>
      <trkpt lat="59.202441" lon="17.642371">
        <ele>58.8</ele>
        <time>2020-03-26T13:30:04Z</time>
        <extensions><gpxtpx:TrackPointExtension><gpxtpx:hr>153</gpxtpx:hr></gpxtpx:TrackPointExtension></extensions>
      </trkpt>
      <trkpt lat="59.202447" lon="17.642495">
        <ele>58.8</ele>
        <time>2020-03-26T13:30:05Z</time>
        <extensions><gpxtpx:TrackPointExtension><gpxtpx:hr>153</gpxtpx:hr></gpxtpx:TrackPointExtension></extensions>
      </trkpt>
      <trkpt lat="59.202466" lon="17.642631">
        <ele>58.8</ele>
        <time>2020-03-26T13:30:06Z</time>
        <extensions><gpxtpx:TrackPointExtension><gpxtpx:hr>153</gpxtpx:hr></gpxtpx:TrackPointExtension></extensions>
      </trkpt>
      <trkpt lat="59.202488" lon="17.642763">
        <ele>58.8</ele>
        <time>2020-03-26T13:30:07Z</time>
        <extensions><gpxtpx:TrackPointExtension><gpxtpx:hr>153</gpxtpx:hr></gpxtpx:TrackPointExtension></extensions>
      </trkpt>
      <trkpt lat="59.202522" lon="17.642898">
        <ele>58.8</ele>
        <time>2020-03-26T13:30:08Z</time>
        <extensions><gpxtpx:TrackPointExtension><gpxtpx:hr>153</gpxtpx:hr></gpxtpx:TrackPointExtension></extensions>
      </trkpt>
      <trkpt lat="59.202576" lon="17.643017">
        <ele>58.8</ele>
        <time>2020-03-26T13:30:09Z</time>
        <extensions><gpxtpx:TrackPointExtension><gpxtpx:hr>153</gpxtpx:hr></gpxtpx:TrackPointExtension></extensions>
      </trkpt>
      <trkpt lat="59.202644" lon="17.643103">
        <ele>58.6</ele>
        <time>2020-03-26T13:30:10Z</time>
        <extensions><gpxtpx:TrackPointExtension><gpxtpx:hr>153</gpxtpx:hr></gpxtpx:TrackPointExtension></extensions>
      </trkpt>
      <trkpt lat="59.20272" lon="17.643169">
        <ele>58.2</ele>
        <time>2020-03-26T13:30:11Z</time>
        <extensions><gpxtpx:TrackPointExtension><gpxtpx:hr>153</gpxtpx:hr></gpxtpx:TrackPointExtension></extensions>
      </trkpt>
      <trkpt lat="59.202797" lon="17.643232">
        <ele>58</ele>
        <time>2020-03-26T13:30:12Z</time>
        <extensions><gpxtpx:TrackPointExtension><gpxtpx:hr>152</gpxtpx:hr></gpxtpx:TrackPointExtension></extensions>
      </trkpt>
      <trkpt lat="59.202875" lon="17.643292">
        <ele>57.8</ele>
        <time>2020-03-26T13:30:13Z</time>
        <extensions><gpxtpx:TrackPointExtension><gpxtpx:hr>151</gpxtpx:hr></gpxtpx:TrackPointExtension></extensions>
      </trkpt>
      <trkpt lat="59.202952" lon="17.643343">
        <ele>57.6</ele>
        <time>2020-03-26T13:30:14Z</time>
        <extensions><gpxtpx:TrackPointExtension><gpxtpx:hr>150</gpxtpx:hr></gpxtpx:TrackPointExtension></extensions>
      </trkpt>
      <trkpt lat="59.20303" lon="17.643391">
        <ele>57.4</ele>
        <time>2020-03-26T13:30:15Z</time>
        <extensions><gpxtpx:TrackPointExtension><gpxtpx:hr>148</gpxtpx:hr></gpxtpx:TrackPointExtension></extensions>
      </trkpt>
      <trkpt lat="59.203106" lon="17.643437">
        <ele>57</ele>
        <time>2020-03-26T13:30:16Z</time>
        <extensions><gpxtpx:TrackPointExtension><gpxtpx:hr>147</gpxtpx:hr></gpxtpx:TrackPointExtension></extensions>
      </trkpt>
      <trkpt lat="59.203181" lon="17.643475">
        <ele>56.2</ele>
        <time>2020-03-26T13:30:17Z</time>
        <extensions><gpxtpx:TrackPointExtension><gpxtpx:hr>146</gpxtpx:hr></gpxtpx:TrackPointExtension></extensions>
      </trkpt>
      <trkpt lat="59.203259" lon="17.64351">
        <ele>55.6</ele>
        <time>2020-03-26T13:30:18Z</time>
        <extensions><gpxtpx:TrackPointExtension><gpxtpx:hr>143</gpxtpx:hr></gpxtpx:TrackPointExtension></extensions>
      </trkpt>
      <trkpt lat="59.203338" lon="17.643543">
        <ele>55.4</ele>
        <time>2020-03-26T13:30:19Z</time>
        <extensions><gpxtpx:TrackPointExtension><gpxtpx:hr>142</gpxtpx:hr></gpxtpx:TrackPointExtension></extensions>
      </trkpt>
      <trkpt lat="59.203415" lon="17.64359">
        <ele>55.2</ele>
        <time>2020-03-26T13:30:20Z</time>
        <extensions><gpxtpx:TrackPointExtension><gpxtpx:hr>140</gpxtpx:hr></gpxtpx:TrackPointExtension></extensions>
      </trkpt>
      <trkpt lat="59.203493" lon="17.643654">
        <ele>55</ele>
        <time>2020-03-26T13:30:21Z</time>
        <extensions><gpxtpx:TrackPointExtension><gpxtpx:hr>138</gpxtpx:hr></gpxtpx:TrackPointExtension></extensions>
      </trkpt>
      <trkpt lat="59.203572" lon="17.643714">
        <ele>54.6</ele>
        <time>2020-03-26T13:30:22Z</time>
        <extensions><gpxtpx:TrackPointExtension><gpxtpx:hr>136</gpxtpx:hr></gpxtpx:TrackPointExtension></extensions>
      </trkpt>
      <trkpt lat="59.203655" lon="17.643763">
        <ele>54.4</ele>
        <time>2020-03-26T13:30:23Z</time>
        <extensions><gpxtpx:TrackPointExtension><gpxtpx:hr>134</gpxtpx:hr></gpxtpx:TrackPointExtension></extensions>
      </trkpt>
      <trkpt lat="59.20374" lon="17.643802">
        <ele>54.2</ele>
        <time>2020-03-26T13:30:24Z</time>
        <extensions><gpxtpx:TrackPointExtension><gpxtpx:hr>132</gpxtpx:hr></gpxtpx:TrackPointExtension></extensions>
      </trkpt>
      <trkpt lat="59.203825" lon="17.643834">
        <ele>54</ele>
        <time>2020-03-26T13:30:25Z</time>
        <extensions><gpxtpx:TrackPointExtension><gpxtpx:hr>130</gpxtpx:hr></gpxtpx:TrackPointExtension></extensions>
      </trkpt>
      <trkpt lat="59.203912" lon="17.643863">
        <ele>54</ele>
        <time>2020-03-26T13:30:26Z</time>
        <extensions><gpxtpx:TrackPointExtension><gpxtpx:hr>127</gpxtpx:hr></gpxtpx:TrackPointExtension></extensions>
      </trkpt>
      <trkpt lat="59.203999" lon="17.643889">
        <ele>53.6</ele>
        <time>2020-03-26T13:30:27Z</time>
        <extensions><gpxtpx:TrackPointExtension><gpxtpx:hr>127</gpxtpx:hr></gpxtpx:TrackPointExtension></extensions>
      </trkpt>
      <trkpt lat="59.204085" lon="17.643912">
        <ele>53.4</ele>
        <time>2020-03-26T13:30:28Z</time>
        <extensions><gpxtpx:TrackPointExtension><gpxtpx:hr>127</gpxtpx:hr></gpxtpx:TrackPointExtension></extensions>
      </trkpt>
      <trkpt lat="59.204165" lon="17.643939">
        <ele>53.4</ele>
        <time>2020-03-26T13:30:29Z</time>
        <extensions><gpxtpx:TrackPointExtension><gpxtpx:hr>124</gpxtpx:hr></gpxtpx:TrackPointExtension></extensions>
      </trkpt>
      <trkpt lat="59.204238" lon="17.643987">
        <ele>52.8</ele>
        <time>2020-03-26T13:30:30Z</time>
        <extensions><gpxtpx:TrackPointExtension><gpxtpx:hr>117</gpxtpx:hr></gpxtpx:TrackPointExtension></extensions>
      </trkpt>
      <trkpt lat="59.204292" lon="17.644069">
        <ele>52.4</ele>
        <time>2020-03-26T13:30:31Z</time>
        <extensions><gpxtpx:TrackPointExtension><gpxtpx:hr>114</gpxtpx:hr></gpxtpx:TrackPointExtension></extensions>
      </trkpt>
      <trkpt lat="59.204317" lon="17.644172">
        <ele>52</ele>
        <time>2020-03-26T13:30:32Z</time>
        <extensions><gpxtpx:TrackPointExtension><gpxtpx:hr>109</gpxtpx:hr></gpxtpx:TrackPointExtension></extensions>
      </trkpt>
      <trkpt lat="59.204311" lon="17.644272">
        <ele>51.6</ele>
        <time>2020-03-26T13:30:33Z</time>
        <extensions><gpxtpx:TrackPointExtension><gpxtpx:hr>104</gpxtpx:hr></gpxtpx:TrackPointExtension></extensions>
      </trkpt>
      <trkpt lat="59.204283" lon="17.644344">
        <ele>51.6</ele>
        <time>2020-03-26T13:30:34Z</time>
        <extensions><gpxtpx:TrackPointExtension><gpxtpx:hr>102</gpxtpx:hr></gpxtpx:TrackPointExtension></extensions>
      </trkpt>
      <trkpt lat="59.204245" lon="17.644384">
        <ele>51.4</ele>
        <time>2020-03-26T13:30:35Z</time>
        <extensions><gpxtpx:TrackPointExtension><gpxtpx:hr>102</gpxtpx:hr></gpxtpx:TrackPointExtension></extensions>
      </trkpt>
      <trkpt lat="59.204221" lon="17.644399">
        <ele>51</ele>
        <time>2020-03-26T13:30:36Z</time>
        <extensions><gpxtpx:TrackPointExtension><gpxtpx:hr>103</gpxtpx:hr></gpxtpx:TrackPointExtension></extensions>
      </trkpt>
      <trkpt lat="59.204207" lon="17.644403">
        <ele>51.2</ele>
        <time>2020-03-26T13:30:37Z</time>
        <extensions><gpxtpx:TrackPointExtension><gpxtpx:hr>103</gpxtpx:hr></gpxtpx:TrackPointExtension></extensions>
      </trkpt>
      <trkpt lat="59.204202" lon="17.644404">
        <ele>51</ele>
        <time>2020-03-26T13:30:38Z</time>
        <extensions><gpxtpx:TrackPointExtension><gpxtpx:hr>103</gpxtpx:hr></gpxtpx:TrackPointExtension></extensions>
      </trkpt>
      <trkpt lat="59.204201" lon="17.644406">
        <ele>51</ele>
        <time>2020-03-26T13:30:39Z</time>
        <extensions><gpxtpx:TrackPointExtension><gpxtpx:hr>102</gpxtpx:hr></gpxtpx:TrackPointExtension></extensions>
      </trkpt>
      <trkpt lat="59.204152" lon="17.644431">
        <ele>51.2</ele>
        <time>2020-03-26T13:30:51Z</time>
        <extensions><gpxtpx:TrackPointExtension><gpxtpx:hr>102</gpxtpx:hr></gpxtpx:TrackPointExtension></extensions>
      </trkpt>
      <trkpt lat="59.204124" lon="17.644431">
        <ele>51.2</ele>
        <time>2020-03-26T13:30:52Z</time>
        <extensions><gpxtpx:TrackPointExtension><gpxtpx:hr>104</gpxtpx:hr></gpxtpx:TrackPointExtension></extensions>
      </trkpt>
      <trkpt lat="59.20409" lon="17.644431">
        <ele>51.2</ele>
        <time>2020-03-26T13:30:53Z</time>
        <extensions><gpxtpx:TrackPointExtension><gpxtpx:hr>106</gpxtpx:hr></gpxtpx:TrackPointExtension></extensions>
      </trkpt>
      <trkpt lat="59.204052" lon="17.644444">
        <ele>51.2</ele>
        <time>2020-03-26T13:30:54Z</time>
        <extensions><gpxtpx:TrackPointExtension><gpxtpx:hr>109</gpxtpx:hr></gpxtpx:TrackPointExtension></extensions>
      </trkpt>
      <trkpt lat="59.204012" lon="17.644468">
        <ele>51.2</ele>
        <time>2020-03-26T13:30:55Z</time>
        <extensions><gpxtpx:TrackPointExtension><gpxtpx:hr>114</gpxtpx:hr></gpxtpx:TrackPointExtension></extensions>
      </trkpt>
      <trkpt lat="59.203972" lon="17.644508">
        <ele>51.2</ele>
        <time>2020-03-26T13:30:56Z</time>
        <extensions><gpxtpx:TrackPointExtension><gpxtpx:hr>117</gpxtpx:hr></gpxtpx:TrackPointExtension></extensions>
      </trkpt>
      <trkpt lat="59.203939" lon="17.644577">
        <ele>51.2</ele>
        <time>2020-03-26T13:30:57Z</time>
        <extensions><gpxtpx:TrackPointExtension><gpxtpx:hr>120</gpxtpx:hr></gpxtpx:TrackPointExtension></extensions>
      </trkpt>
      <trkpt lat="59.203922" lon="17.644673">
        <ele>51.2</ele>
        <time>2020-03-26T13:30:58Z</time>
        <extensions><gpxtpx:TrackPointExtension><gpxtpx:hr>122</gpxtpx:hr></gpxtpx:TrackPointExtension></extensions>
      </trkpt>
      <trkpt lat="59.203932" lon="17.644777">
        <ele>51.2</ele>
        <time>2020-03-26T13:30:59Z</time>
        <extensions><gpxtpx:TrackPointExtension><gpxtpx:hr>123</gpxtpx:hr></gpxtpx:TrackPointExtension></extensions>
      </trkpt>
      <trkpt lat="59.203963" lon="17.644866">
        <ele>51</ele>
        <time>2020-03-26T13:31:00Z</time>
        <extensions><gpxtpx:TrackPointExtension><gpxtpx:hr>125</gpxtpx:hr></gpxtpx:TrackPointExtension></extensions>
      </trkpt>
      <trkpt lat="59.204005" lon="17.644938">
        <ele>51</ele>
        <time>2020-03-26T13:31:01Z</time>
        <extensions><gpxtpx:TrackPointExtension><gpxtpx:hr>125</gpxtpx:hr></gpxtpx:TrackPointExtension></extensions>
      </trkpt>
      <trkpt lat="59.204052" lon="17.644995">
        <ele>50.8</ele>
        <time>2020-03-26T13:31:02Z</time>
        <extensions><gpxtpx:TrackPointExtension><gpxtpx:hr>126</gpxtpx:hr></gpxtpx:TrackPointExtension></extensions>
      </trkpt>
      <trkpt lat="59.204103" lon="17.645057">
        <ele>50.6</ele>
        <time>2020-03-26T13:31:03Z</time>
        <extensions><gpxtpx:TrackPointExtension><gpxtpx:hr>127</gpxtpx:hr></gpxtpx:TrackPointExtension></extensions>
      </trkpt>
      <trkpt lat="59.204154" lon="17.645125">
        <ele>50.6</ele>
        <time>2020-03-26T13:31:04Z</time>
        <extensions><gpxtpx:TrackPointExtension><gpxtpx:hr>128</gpxtpx:hr></gpxtpx:TrackPointExtension></extensions>
      </trkpt>
      <trkpt lat="59.204204" lon="17.645204">
        <ele>50.6</ele>
        <time>2020-03-26T13:31:05Z</time>
        <extensions><gpxtpx:TrackPointExtension><gpxtpx:hr>129</gpxtpx:hr></gpxtpx:TrackPointExtension></extensions>
      </trkpt>
      <trkpt lat="59.204252" lon="17.645291">
        <ele>50.4</ele>
        <time>2020-03-26T13:31:06Z</time>
        <extensions><gpxtpx:TrackPointExtension><gpxtpx:hr>129</gpxtpx:hr></gpxtpx:TrackPointExtension></extensions>
      </trkpt>
      <trkpt lat="59.204302" lon="17.645379">
        <ele>50.4</ele>
        <time>2020-03-26T13:31:07Z</time>
        <extensions><gpxtpx:TrackPointExtension><gpxtpx:hr>131</gpxtpx:hr></gpxtpx:TrackPointExtension></extensions>
      </trkpt>
      <trkpt lat="59.204346" lon="17.645469">
        <ele>50.2</ele>
        <time>2020-03-26T13:31:08Z</time>
        <extensions><gpxtpx:TrackPointExtension><gpxtpx:hr>132</gpxtpx:hr></gpxtpx:TrackPointExtension></extensions>
      </trkpt>
      <trkpt lat="59.20439" lon="17.645559">
        <ele>50.2</ele>
        <time>2020-03-26T13:31:09Z</time>
        <extensions><gpxtpx:TrackPointExtension><gpxtpx:hr>133</gpxtpx:hr></gpxtpx:TrackPointExtension></extensions>
      </trkpt>
      <trkpt lat="59.204435" lon="17.645647">
        <ele>50.2</ele>
        <time>2020-03-26T13:31:10Z</time>
        <extensions><gpxtpx:TrackPointExtension><gpxtpx:hr>134</gpxtpx:hr></gpxtpx:TrackPointExtension></extensions>
      </trkpt>
      <trkpt lat="59.204483" lon="17.645732">
        <ele>50.2</ele>
        <time>2020-03-26T13:31:11Z</time>
        <extensions><gpxtpx:TrackPointExtension><gpxtpx:hr>135</gpxtpx:hr></gpxtpx:TrackPointExtension></extensions>
      </trkpt>
      <trkpt lat="59.204533" lon="17.645812">
        <ele>50.2</ele>
        <time>2020-03-26T13:31:12Z</time>
        <extensions><gpxtpx:TrackPointExtension><gpxtpx:hr>136</gpxtpx:hr></gpxtpx:TrackPointExtension></extensions>
      </trkpt>
      <trkpt lat="59.204584" lon="17.645887">
        <ele>50.2</ele>
        <time>2020-03-26T13:31:13Z</time>
        <extensions><gpxtpx:TrackPointExtension><gpxtpx:hr>137</gpxtpx:hr></gpxtpx:TrackPointExtension></extensions>
      </trkpt>
      <trkpt lat="59.204638" lon="17.645959">
        <ele>50.2</ele>
        <time>2020-03-26T13:31:14Z</time>
        <extensions><gpxtpx:TrackPointExtension><gpxtpx:hr>138</gpxtpx:hr></gpxtpx:TrackPointExtension></extensions>
      </trkpt>
      <trkpt lat="59.204693" lon="17.646025">
        <ele>50.2</ele>
        <time>2020-03-26T13:31:15Z</time>
        <extensions><gpxtpx:TrackPointExtension><gpxtpx:hr>138</gpxtpx:hr></gpxtpx:TrackPointExtension></extensions>
      </trkpt>
      <trkpt lat="59.20475" lon="17.646084">
        <ele>50.2</ele>
        <time>2020-03-26T13:31:16Z</time>
        <extensions><gpxtpx:TrackPointExtension><gpxtpx:hr>138</gpxtpx:hr></gpxtpx:TrackPointExtension></extensions>
      </trkpt>
      <trkpt lat="59.204809" lon="17.646137">
        <ele>50.4</ele>
        <time>2020-03-26T13:31:17Z</time>
        <extensions><gpxtpx:TrackPointExtension><gpxtpx:hr>139</gpxtpx:hr></gpxtpx:TrackPointExtension></extensions>
      </trkpt>
      <trkpt lat="59.204869" lon="17.646185">
        <ele>50.4</ele>
        <time>2020-03-26T13:31:18Z</time>
        <extensions><gpxtpx:TrackPointExtension><gpxtpx:hr>139</gpxtpx:hr></gpxtpx:TrackPointExtension></extensions>
      </trkpt>
      <trkpt lat="59.204931" lon="17.646228">
        <ele>50.4</ele>
        <time>2020-03-26T13:31:19Z</time>
        <extensions><gpxtpx:TrackPointExtension><gpxtpx:hr>139</gpxtpx:hr></gpxtpx:TrackPointExtension></extensions>
      </trkpt>
      <trkpt lat="59.204994" lon="17.646264">
        <ele>50.6</ele>
        <time>2020-03-26T13:31:20Z</time>
        <extensions><gpxtpx:TrackPointExtension><gpxtpx:hr>140</gpxtpx:hr></gpxtpx:TrackPointExtension></extensions>
      </trkpt>
      <trkpt lat="59.205059" lon="17.646298">
        <ele>50.6</ele>
        <time>2020-03-26T13:31:21Z</time>
        <extensions><gpxtpx:TrackPointExtension><gpxtpx:hr>140</gpxtpx:hr></gpxtpx:TrackPointExtension></extensions>
      </trkpt>
      <trkpt lat="59.205125" lon="17.646331">
        <ele>50.8</ele>
        <time>2020-03-26T13:31:22Z</time>
        <extensions><gpxtpx:TrackPointExtension><gpxtpx:hr>140</gpxtpx:hr></gpxtpx:TrackPointExtension></extensions>
      </trkpt>
      <trkpt lat="59.20519" lon="17.646369">
        <ele>50.8</ele>
        <time>2020-03-26T13:31:23Z</time>
        <extensions><gpxtpx:TrackPointExtension><gpxtpx:hr>140</gpxtpx:hr></gpxtpx:TrackPointExtension></extensions>
      </trkpt>
      <trkpt lat="59.205256" lon="17.646411">
        <ele>50.8</ele>
        <time>2020-03-26T13:31:24Z</time>
        <extensions><gpxtpx:TrackPointExtension><gpxtpx:hr>141</gpxtpx:hr></gpxtpx:TrackPointExtension></extensions>
      </trkpt>
      <trkpt lat="59.205323" lon="17.646453">
        <ele>50.8</ele>
        <time>2020-03-26T13:31:25Z</time>
        <extensions><gpxtpx:TrackPointExtension><gpxtpx:hr>141</gpxtpx:hr></gpxtpx:TrackPointExtension></extensions>
      </trkpt>
      <trkpt lat="59.20539" lon="17.646495">
        <ele>50.8</ele>
        <time>2020-03-26T13:31:26Z</time>
        <extensions><gpxtpx:TrackPointExtension><gpxtpx:hr>141</gpxtpx:hr></gpxtpx:TrackPointExtension></extensions>
      </trkpt>
      <trkpt lat="59.205458" lon="17.646535">
        <ele>50.8</ele>
        <time>2020-03-26T13:31:27Z</time>
        <extensions><gpxtpx:TrackPointExtension><gpxtpx:hr>142</gpxtpx:hr></gpxtpx:TrackPointExtension></extensions>
      </trkpt>
      <trkpt lat="59.205527" lon="17.646575">
        <ele>51</ele>
        <time>2020-03-26T13:31:28Z</time>
        <extensions><gpxtpx:TrackPointExtension><gpxtpx:hr>142</gpxtpx:hr></gpxtpx:TrackPointExtension></extensions>
      </trkpt>
      <trkpt lat="59.205595" lon="17.646613">
        <ele>51</ele>
        <time>2020-03-26T13:31:29Z</time>
        <extensions><gpxtpx:TrackPointExtension><gpxtpx:hr>141</gpxtpx:hr></gpxtpx:TrackPointExtension></extensions>
      </trkpt>
      <trkpt lat="59.205664" lon="17.64665">
        <ele>51</ele>
        <time>2020-03-26T13:31:30Z</time>
        <extensions><gpxtpx:TrackPointExtension><gpxtpx:hr>141</gpxtpx:hr></gpxtpx:TrackPointExtension></extensions>
      </trkpt>
      <trkpt lat="59.205732" lon="17.646688">
        <ele>51.2</ele>
        <time>2020-03-26T13:31:31Z</time>
        <extensions><gpxtpx:TrackPointExtension><gpxtpx:hr>141</gpxtpx:hr></gpxtpx:TrackPointExtension></extensions>
      </trkpt>
      <trkpt lat="59.205799" lon="17.646727">
        <ele>51.2</ele>
        <time>2020-03-26T13:31:32Z</time>
        <extensions><gpxtpx:TrackPointExtension><gpxtpx:hr>141</gpxtpx:hr></gpxtpx:TrackPointExtension></extensions>
      </trkpt>
      <trkpt lat="59.205866" lon="17.646764">
        <ele>51.2</ele>
        <time>2020-03-26T13:31:33Z</time>
        <extensions><gpxtpx:TrackPointExtension><gpxtpx:hr>141</gpxtpx:hr></gpxtpx:TrackPointExtension></extensions>
      </trkpt>
      <trkpt lat="59.205933" lon="17.6468">
        <ele>51.2</ele>
        <time>2020-03-26T13:31:34Z</time>
        <extensions><gpxtpx:TrackPointExtension><gpxtpx:hr>142</gpxtpx:hr></gpxtpx:TrackPointExtension></extensions>
      </trkpt>
      <trkpt lat="59.205999" lon="17.646837">
        <ele>51.2</ele>
        <time>2020-03-26T13:31:35Z</time>
        <extensions><gpxtpx:TrackPointExtension><gpxtpx:hr>142</gpxtpx:hr></gpxtpx:TrackPointExtension></extensions>
      </trkpt>
      <trkpt lat="59.206066" lon="17.646874">
        <ele>51.2</ele>
        <time>2020-03-26T13:31:36Z</time>
        <extensions><gpxtpx:TrackPointExtension><gpxtpx:hr>143</gpxtpx:hr></gpxtpx:TrackPointExtension></extensions>
      </trkpt>
      <trkpt lat="59.206131" lon="17.64691">
        <ele>51.2</ele>
        <time>2020-03-26T13:31:37Z</time>
        <extensions><gpxtpx:TrackPointExtension><gpxtpx:hr>143</gpxtpx:hr></gpxtpx:TrackPointExtension></extensions>
      </trkpt>
      <trkpt lat="59.206197" lon="17.64695">
        <ele>51.2</ele>
        <time>2020-03-26T13:31:38Z</time>
        <extensions><gpxtpx:TrackPointExtension><gpxtpx:hr>143</gpxtpx:hr></gpxtpx:TrackPointExtension></extensions>
      </trkpt>
      <trkpt lat="59.206261" lon="17.646996">
        <ele>51.2</ele>
        <time>2020-03-26T13:31:39Z</time>
        <extensions><gpxtpx:TrackPointExtension><gpxtpx:hr>144</gpxtpx:hr></gpxtpx:TrackPointExtension></extensions>
      </trkpt>
      <trkpt lat="59.206325" lon="17.647047">
        <ele>51.2</ele>
        <time>2020-03-26T13:31:40Z</time>
        <extensions><gpxtpx:TrackPointExtension><gpxtpx:hr>144</gpxtpx:hr></gpxtpx:TrackPointExtension></extensions>
      </trkpt>
      <trkpt lat="59.206389" lon="17.647098">
        <ele>51.2</ele>
        <time>2020-03-26T13:31:41Z</time>
        <extensions><gpxtpx:TrackPointExtension><gpxtpx:hr>144</gpxtpx:hr></gpxtpx:TrackPointExtension></extensions>
      </trkpt>
      <trkpt lat="59.206452" lon="17.647149">
        <ele>51.4</ele>
        <time>2020-03-26T13:31:42Z</time>
        <extensions><gpxtpx:TrackPointExtension><gpxtpx:hr>144</gpxtpx:hr></gpxtpx:TrackPointExtension></extensions>
      </trkpt>
      <trkpt lat="59.206513" lon="17.647208">
        <ele>51.4</ele>
        <time>2020-03-26T13:31:43Z</time>
        <extensions><gpxtpx:TrackPointExtension><gpxtpx:hr>144</gpxtpx:hr></gpxtpx:TrackPointExtension></extensions>
      </trkpt>
      <trkpt lat="59.206568" lon="17.647284">
        <ele>51.6</ele>
        <time>2020-03-26T13:31:44Z</time>
        <extensions><gpxtpx:TrackPointExtension><gpxtpx:hr>144</gpxtpx:hr></gpxtpx:TrackPointExtension></extensions>
      </trkpt>
      <trkpt lat="59.206615" lon="17.64738">
        <ele>51.6</ele>
        <time>2020-03-26T13:31:45Z</time>
        <extensions><gpxtpx:TrackPointExtension><gpxtpx:hr>144</gpxtpx:hr></gpxtpx:TrackPointExtension></extensions>
      </trkpt>
      <trkpt lat="59.206656" lon="17.647485">
        <ele>51.8</ele>
        <time>2020-03-26T13:31:46Z</time>
        <extensions><gpxtpx:TrackPointExtension><gpxtpx:hr>144</gpxtpx:hr></gpxtpx:TrackPointExtension></extensions>
      </trkpt>
      <trkpt lat="59.206703" lon="17.647578">
        <ele>52</ele>
        <time>2020-03-26T13:31:47Z</time>
        <extensions><gpxtpx:TrackPointExtension><gpxtpx:hr>144</gpxtpx:hr></gpxtpx:TrackPointExtension></extensions>
      </trkpt>
      <trkpt lat="59.206761" lon="17.647645">
        <ele>52</ele>
        <time>2020-03-26T13:31:48Z</time>
        <extensions><gpxtpx:TrackPointExtension><gpxtpx:hr>144</gpxtpx:hr></gpxtpx:TrackPointExtension></extensions>
      </trkpt>
      <trkpt lat="59.206823" lon="17.647696">
        <ele>52.2</ele>
        <time>2020-03-26T13:31:49Z</time>
        <extensions><gpxtpx:TrackPointExtension><gpxtpx:hr>145</gpxtpx:hr></gpxtpx:TrackPointExtension></extensions>
      </trkpt>
      <trkpt lat="59.206882" lon="17.647755">
        <ele>52.2</ele>
        <time>2020-03-26T13:31:50Z</time>
        <extensions><gpxtpx:TrackPointExtension><gpxtpx:hr>145</gpxtpx:hr></gpxtpx:TrackPointExtension></extensions>
      </trkpt>
      <trkpt lat="59.206937" lon="17.647828">
        <ele>52.6</ele>
        <time>2020-03-26T13:31:51Z</time>
        <extensions><gpxtpx:TrackPointExtension><gpxtpx:hr>145</gpxtpx:hr></gpxtpx:TrackPointExtension></extensions>
      </trkpt>
      <trkpt lat="59.206986" lon="17.647912">
        <ele>52.6</ele>
        <time>2020-03-26T13:31:52Z</time>
        <extensions><gpxtpx:TrackPointExtension><gpxtpx:hr>145</gpxtpx:hr></gpxtpx:TrackPointExtension></extensions>
      </trkpt>
      <trkpt lat="59.20703" lon="17.648005">
        <ele>52.6</ele>
        <time>2020-03-26T13:31:53Z</time>
        <extensions><gpxtpx:TrackPointExtension><gpxtpx:hr>145</gpxtpx:hr></gpxtpx:TrackPointExtension></extensions>
      </trkpt>
      <trkpt lat="59.207071" lon="17.648103">
        <ele>52.8</ele>
        <time>2020-03-26T13:31:54Z</time>
        <extensions><gpxtpx:TrackPointExtension><gpxtpx:hr>145</gpxtpx:hr></gpxtpx:TrackPointExtension></extensions>
      </trkpt>
      <trkpt lat="59.20711" lon="17.648207">
        <ele>52.8</ele>
        <time>2020-03-26T13:31:55Z</time>
        <extensions><gpxtpx:TrackPointExtension><gpxtpx:hr>145</gpxtpx:hr></gpxtpx:TrackPointExtension></extensions>
      </trkpt>
      <trkpt lat="59.207147" lon="17.648316">
        <ele>52.8</ele>
        <time>2020-03-26T13:31:56Z</time>
        <extensions><gpxtpx:TrackPointExtension><gpxtpx:hr>145</gpxtpx:hr></gpxtpx:TrackPointExtension></extensions>
      </trkpt>
      <trkpt lat="59.207182" lon="17.648426">
        <ele>53</ele>
        <time>2020-03-26T13:31:57Z</time>
        <extensions><gpxtpx:TrackPointExtension><gpxtpx:hr>146</gpxtpx:hr></gpxtpx:TrackPointExtension></extensions>
      </trkpt>
      <trkpt lat="59.207217" lon="17.648538">
        <ele>53.4</ele>
        <time>2020-03-26T13:31:58Z</time>
        <extensions><gpxtpx:TrackPointExtension><gpxtpx:hr>146</gpxtpx:hr></gpxtpx:TrackPointExtension></extensions>
      </trkpt>
      <trkpt lat="59.20725" lon="17.648651">
        <ele>53.6</ele>
        <time>2020-03-26T13:31:59Z</time>
        <extensions><gpxtpx:TrackPointExtension><gpxtpx:hr>146</gpxtpx:hr></gpxtpx:TrackPointExtension></extensions>
      </trkpt>
      <trkpt lat="59.207281" lon="17.648766">
        <ele>53.8</ele>
        <time>2020-03-26T13:32:00Z</time>
        <extensions><gpxtpx:TrackPointExtension><gpxtpx:hr>146</gpxtpx:hr></gpxtpx:TrackPointExtension></extensions>
      </trkpt>
      <trkpt lat="59.207308" lon="17.648883">
        <ele>53.8</ele>
        <time>2020-03-26T13:32:01Z</time>
        <extensions><gpxtpx:TrackPointExtension><gpxtpx:hr>147</gpxtpx:hr></gpxtpx:TrackPointExtension></extensions>
      </trkpt>
      <trkpt lat="59.207335" lon="17.648998">
        <ele>54</ele>
        <time>2020-03-26T13:32:02Z</time>
        <extensions><gpxtpx:TrackPointExtension><gpxtpx:hr>147</gpxtpx:hr></gpxtpx:TrackPointExtension></extensions>
      </trkpt>
      <trkpt lat="59.207365" lon="17.649112">
        <ele>54</ele>
        <time>2020-03-26T13:32:03Z</time>
        <extensions><gpxtpx:TrackPointExtension><gpxtpx:hr>147</gpxtpx:hr></gpxtpx:TrackPointExtension></extensions>
      </trkpt>
      <trkpt lat="59.207394" lon="17.649224">
        <ele>54.2</ele>
        <time>2020-03-26T13:32:04Z</time>
        <extensions><gpxtpx:TrackPointExtension><gpxtpx:hr>147</gpxtpx:hr></gpxtpx:TrackPointExtension></extensions>
      </trkpt>
      <trkpt lat="59.207424" lon="17.649337">
        <ele>54.2</ele>
        <time>2020-03-26T13:32:05Z</time>
        <extensions><gpxtpx:TrackPointExtension><gpxtpx:hr>147</gpxtpx:hr></gpxtpx:TrackPointExtension></extensions>
      </trkpt>
      <trkpt lat="59.207454" lon="17.649447">
        <ele>54.4</ele>
        <time>2020-03-26T13:32:06Z</time>
        <extensions><gpxtpx:TrackPointExtension><gpxtpx:hr>147</gpxtpx:hr></gpxtpx:TrackPointExtension></extensions>
      </trkpt>
      <trkpt lat="59.207486" lon="17.649556">
        <ele>54.4</ele>
        <time>2020-03-26T13:32:07Z</time>
        <extensions><gpxtpx:TrackPointExtension><gpxtpx:hr>147</gpxtpx:hr></gpxtpx:TrackPointExtension></extensions>
      </trkpt>
      <trkpt lat="59.20752" lon="17.649662">
        <ele>54.4</ele>
        <time>2020-03-26T13:32:08Z</time>
        <extensions><gpxtpx:TrackPointExtension><gpxtpx:hr>147</gpxtpx:hr></gpxtpx:TrackPointExtension></extensions>
      </trkpt>
      <trkpt lat="59.207557" lon="17.649766">
        <ele>54.6</ele>
        <time>2020-03-26T13:32:09Z</time>
        <extensions><gpxtpx:TrackPointExtension><gpxtpx:hr>147</gpxtpx:hr></gpxtpx:TrackPointExtension></extensions>
      </trkpt>
      <trkpt lat="59.207598" lon="17.649867">
        <ele>54.6</ele>
        <time>2020-03-26T13:32:10Z</time>
        <extensions><gpxtpx:TrackPointExtension><gpxtpx:hr>147</gpxtpx:hr></gpxtpx:TrackPointExtension></extensions>
      </trkpt>
      <trkpt lat="59.207644" lon="17.649963">
        <ele>54.8</ele>
        <time>2020-03-26T13:32:11Z</time>
        <extensions><gpxtpx:TrackPointExtension><gpxtpx:hr>147</gpxtpx:hr></gpxtpx:TrackPointExtension></extensions>
      </trkpt>
      <trkpt lat="59.207694" lon="17.650053">
        <ele>55</ele>
        <time>2020-03-26T13:32:12Z</time>
        <extensions><gpxtpx:TrackPointExtension><gpxtpx:hr>147</gpxtpx:hr></gpxtpx:TrackPointExtension></extensions>
      </trkpt>
      <trkpt lat="59.207747" lon="17.650137">
        <ele>55.2</ele>
        <time>2020-03-26T13:32:13Z</time>
        <extensions><gpxtpx:TrackPointExtension><gpxtpx:hr>147</gpxtpx:hr></gpxtpx:TrackPointExtension></extensions>
      </trkpt>
      <trkpt lat="59.207803" lon="17.650218">
        <ele>55.2</ele>
        <time>2020-03-26T13:32:14Z</time>
        <extensions><gpxtpx:TrackPointExtension><gpxtpx:hr>147</gpxtpx:hr></gpxtpx:TrackPointExtension></extensions>
      </trkpt>
      <trkpt lat="59.207858" lon="17.650298">
        <ele>55.4</ele>
        <time>2020-03-26T13:32:15Z</time>
        <extensions><gpxtpx:TrackPointExtension><gpxtpx:hr>148</gpxtpx:hr></gpxtpx:TrackPointExtension></extensions>
      </trkpt>
      <trkpt lat="59.207914" lon="17.650378">
        <ele>55.4</ele>
        <time>2020-03-26T13:32:16Z</time>
        <extensions><gpxtpx:TrackPointExtension><gpxtpx:hr>148</gpxtpx:hr></gpxtpx:TrackPointExtension></extensions>
      </trkpt>
      <trkpt lat="59.207972" lon="17.650459">
        <ele>55.4</ele>
        <time>2020-03-26T13:32:17Z</time>
        <extensions><gpxtpx:TrackPointExtension><gpxtpx:hr>148</gpxtpx:hr></gpxtpx:TrackPointExtension></extensions>
      </trkpt>
      <trkpt lat="59.208032" lon="17.650543">
        <ele>55.4</ele>
        <time>2020-03-26T13:32:18Z</time>
        <extensions><gpxtpx:TrackPointExtension><gpxtpx:hr>148</gpxtpx:hr></gpxtpx:TrackPointExtension></extensions>
      </trkpt>
      <trkpt lat="59.208093" lon="17.650628">
        <ele>55.4</ele>
        <time>2020-03-26T13:32:19Z</time>
        <extensions><gpxtpx:TrackPointExtension><gpxtpx:hr>148</gpxtpx:hr></gpxtpx:TrackPointExtension></extensions>
      </trkpt>
      <trkpt lat="59.208155" lon="17.650714">
        <ele>55.4</ele>
        <time>2020-03-26T13:32:20Z</time>
        <extensions><gpxtpx:TrackPointExtension><gpxtpx:hr>148</gpxtpx:hr></gpxtpx:TrackPointExtension></extensions>
      </trkpt>
      <trkpt lat="59.20822" lon="17.650798">
        <ele>55.4</ele>
        <time>2020-03-26T13:32:21Z</time>
        <extensions><gpxtpx:TrackPointExtension><gpxtpx:hr>148</gpxtpx:hr></gpxtpx:TrackPointExtension></extensions>
      </trkpt>
      <trkpt lat="59.208285" lon="17.650881">
        <ele>55.4</ele>
        <time>2020-03-26T13:32:22Z</time>
        <extensions><gpxtpx:TrackPointExtension><gpxtpx:hr>148</gpxtpx:hr></gpxtpx:TrackPointExtension></extensions>
      </trkpt>
      <trkpt lat="59.20835" lon="17.650966">
        <ele>55.4</ele>
        <time>2020-03-26T13:32:23Z</time>
        <extensions><gpxtpx:TrackPointExtension><gpxtpx:hr>147</gpxtpx:hr></gpxtpx:TrackPointExtension></extensions>
      </trkpt>
      <trkpt lat="59.208414" lon="17.65105">
        <ele>55.4</ele>
        <time>2020-03-26T13:32:24Z</time>
        <extensions><gpxtpx:TrackPointExtension><gpxtpx:hr>147</gpxtpx:hr></gpxtpx:TrackPointExtension></extensions>
      </trkpt>
      <trkpt lat="59.208479" lon="17.651129">
        <ele>55.4</ele>
        <time>2020-03-26T13:32:25Z</time>
        <extensions><gpxtpx:TrackPointExtension><gpxtpx:hr>146</gpxtpx:hr></gpxtpx:TrackPointExtension></extensions>
      </trkpt>
      <trkpt lat="59.208551" lon="17.651201">
        <ele>55.4</ele>
        <time>2020-03-26T13:32:26Z</time>
        <extensions><gpxtpx:TrackPointExtension><gpxtpx:hr>146</gpxtpx:hr></gpxtpx:TrackPointExtension></extensions>
      </trkpt>
      <trkpt lat="59.208625" lon="17.651275">
        <ele>55.2</ele>
        <time>2020-03-26T13:32:27Z</time>
        <extensions><gpxtpx:TrackPointExtension><gpxtpx:hr>145</gpxtpx:hr></gpxtpx:TrackPointExtension></extensions>
      </trkpt>
      <trkpt lat="59.2087" lon="17.651349">
        <ele>55</ele>
        <time>2020-03-26T13:32:28Z</time>
        <extensions><gpxtpx:TrackPointExtension><gpxtpx:hr>145</gpxtpx:hr></gpxtpx:TrackPointExtension></extensions>
      </trkpt>
      <trkpt lat="59.208775" lon="17.65142">
        <ele>54.8</ele>
        <time>2020-03-26T13:32:29Z</time>
        <extensions><gpxtpx:TrackPointExtension><gpxtpx:hr>144</gpxtpx:hr></gpxtpx:TrackPointExtension></extensions>
      </trkpt>
      <trkpt lat="59.20885" lon="17.651494">
        <ele>54.6</ele>
        <time>2020-03-26T13:32:30Z</time>
        <extensions><gpxtpx:TrackPointExtension><gpxtpx:hr>144</gpxtpx:hr></gpxtpx:TrackPointExtension></extensions>
      </trkpt>
      <trkpt lat="59.208928" lon="17.651562">
        <ele>54.6</ele>
        <time>2020-03-26T13:32:31Z</time>
        <extensions><gpxtpx:TrackPointExtension><gpxtpx:hr>144</gpxtpx:hr></gpxtpx:TrackPointExtension></extensions>
      </trkpt>
      <trkpt lat="59.209014" lon="17.65163">
        <ele>54.4</ele>
        <time>2020-03-26T13:32:32Z</time>
        <extensions><gpxtpx:TrackPointExtension><gpxtpx:hr>143</gpxtpx:hr></gpxtpx:TrackPointExtension></extensions>
      </trkpt>
      <trkpt lat="59.209102" lon="17.651692">
        <ele>54.2</ele>
        <time>2020-03-26T13:32:33Z</time>
        <extensions><gpxtpx:TrackPointExtension><gpxtpx:hr>142</gpxtpx:hr></gpxtpx:TrackPointExtension></extensions>
      </trkpt>
      <trkpt lat="59.209192" lon="17.651749">
        <ele>54.2</ele>
        <time>2020-03-26T13:32:34Z</time>
        <extensions><gpxtpx:TrackPointExtension><gpxtpx:hr>141</gpxtpx:hr></gpxtpx:TrackPointExtension></extensions>
      </trkpt>
      <trkpt lat="59.209286" lon="17.651805">
        <ele>54.2</ele>
        <time>2020-03-26T13:32:35Z</time>
        <extensions><gpxtpx:TrackPointExtension><gpxtpx:hr>140</gpxtpx:hr></gpxtpx:TrackPointExtension></extensions>
      </trkpt>
      <trkpt lat="59.209382" lon="17.651863">
        <ele>54</ele>
        <time>2020-03-26T13:32:36Z</time>
        <extensions><gpxtpx:TrackPointExtension><gpxtpx:hr>140</gpxtpx:hr></gpxtpx:TrackPointExtension></extensions>
      </trkpt>
      <trkpt lat="59.209487" lon="17.651912">
        <ele>54</ele>
        <time>2020-03-26T13:32:37Z</time>
        <extensions><gpxtpx:TrackPointExtension><gpxtpx:hr>140</gpxtpx:hr></gpxtpx:TrackPointExtension></extensions>
      </trkpt>
      <trkpt lat="59.20959" lon="17.651949">
        <ele>54</ele>
        <time>2020-03-26T13:32:38Z</time>
        <extensions><gpxtpx:TrackPointExtension><gpxtpx:hr>139</gpxtpx:hr></gpxtpx:TrackPointExtension></extensions>
      </trkpt>
      <trkpt lat="59.209695" lon="17.651986">
        <ele>53.8</ele>
        <time>2020-03-26T13:32:39Z</time>
        <extensions><gpxtpx:TrackPointExtension><gpxtpx:hr>139</gpxtpx:hr></gpxtpx:TrackPointExtension></extensions>
      </trkpt>
      <trkpt lat="59.2098" lon="17.652025">
        <ele>53.8</ele>
        <time>2020-03-26T13:32:40Z</time>
        <extensions><gpxtpx:TrackPointExtension><gpxtpx:hr>139</gpxtpx:hr></gpxtpx:TrackPointExtension></extensions>
      </trkpt>
      <trkpt lat="59.209904" lon="17.652065">
        <ele>53.6</ele>
        <time>2020-03-26T13:32:41Z</time>
        <extensions><gpxtpx:TrackPointExtension><gpxtpx:hr>139</gpxtpx:hr></gpxtpx:TrackPointExtension></extensions>
      </trkpt>
      <trkpt lat="59.210006" lon="17.652105">
        <ele>53.2</ele>
        <time>2020-03-26T13:32:42Z</time>
        <extensions><gpxtpx:TrackPointExtension><gpxtpx:hr>139</gpxtpx:hr></gpxtpx:TrackPointExtension></extensions>
      </trkpt>
      <trkpt lat="59.210106" lon="17.652146">
        <ele>53</ele>
        <time>2020-03-26T13:32:43Z</time>
        <extensions><gpxtpx:TrackPointExtension><gpxtpx:hr>139</gpxtpx:hr></gpxtpx:TrackPointExtension></extensions>
      </trkpt>
      <trkpt lat="59.210207" lon="17.65218">
        <ele>52.6</ele>
        <time>2020-03-26T13:32:44Z</time>
        <extensions><gpxtpx:TrackPointExtension><gpxtpx:hr>138</gpxtpx:hr></gpxtpx:TrackPointExtension></extensions>
      </trkpt>
      <trkpt lat="59.210306" lon="17.652216">
        <ele>52.2</ele>
        <time>2020-03-26T13:32:45Z</time>
        <extensions><gpxtpx:TrackPointExtension><gpxtpx:hr>138</gpxtpx:hr></gpxtpx:TrackPointExtension></extensions>
      </trkpt>
      <trkpt lat="59.210403" lon="17.652254">
        <ele>51.8</ele>
        <time>2020-03-26T13:32:46Z</time>
        <extensions><gpxtpx:TrackPointExtension><gpxtpx:hr>138</gpxtpx:hr></gpxtpx:TrackPointExtension></extensions>
      </trkpt>
      <trkpt lat="59.210501" lon="17.652295">
        <ele>51.4</ele>
        <time>2020-03-26T13:32:47Z</time>
        <extensions><gpxtpx:TrackPointExtension><gpxtpx:hr>138</gpxtpx:hr></gpxtpx:TrackPointExtension></extensions>
      </trkpt>
      <trkpt lat="59.210599" lon="17.652335">
        <ele>51.4</ele>
        <time>2020-03-26T13:32:48Z</time>
        <extensions><gpxtpx:TrackPointExtension><gpxtpx:hr>138</gpxtpx:hr></gpxtpx:TrackPointExtension></extensions>
      </trkpt>
      <trkpt lat="59.21069" lon="17.652376">
        <ele>51.2</ele>
        <time>2020-03-26T13:32:49Z</time>
        <extensions><gpxtpx:TrackPointExtension><gpxtpx:hr>139</gpxtpx:hr></gpxtpx:TrackPointExtension></extensions>
      </trkpt>
      <trkpt lat="59.210781" lon="17.65242">
        <ele>51.4</ele>
        <time>2020-03-26T13:32:50Z</time>
        <extensions><gpxtpx:TrackPointExtension><gpxtpx:hr>139</gpxtpx:hr></gpxtpx:TrackPointExtension></extensions>
      </trkpt>
      <trkpt lat="59.210873" lon="17.652469">
        <ele>51.4</ele>
        <time>2020-03-26T13:32:51Z</time>
        <extensions><gpxtpx:TrackPointExtension><gpxtpx:hr>139</gpxtpx:hr></gpxtpx:TrackPointExtension></extensions>
      </trkpt>
      <trkpt lat="59.210964" lon="17.652525">
        <ele>51.4</ele>
        <time>2020-03-26T13:32:52Z</time>
        <extensions><gpxtpx:TrackPointExtension><gpxtpx:hr>139</gpxtpx:hr></gpxtpx:TrackPointExtension></extensions>
      </trkpt>
      <trkpt lat="59.211053" lon="17.652588">
        <ele>51.4</ele>
        <time>2020-03-26T13:32:53Z</time>
        <extensions><gpxtpx:TrackPointExtension><gpxtpx:hr>140</gpxtpx:hr></gpxtpx:TrackPointExtension></extensions>
      </trkpt>
      <trkpt lat="59.21114" lon="17.652653">
        <ele>51.4</ele>
        <time>2020-03-26T13:32:54Z</time>
        <extensions><gpxtpx:TrackPointExtension><gpxtpx:hr>139</gpxtpx:hr></gpxtpx:TrackPointExtension></extensions>
      </trkpt>
      <trkpt lat="59.211228" lon="17.652723">
        <ele>51.4</ele>
        <time>2020-03-26T13:32:55Z</time>
        <extensions><gpxtpx:TrackPointExtension><gpxtpx:hr>139</gpxtpx:hr></gpxtpx:TrackPointExtension></extensions>
      </trkpt>
      <trkpt lat="59.211314" lon="17.652798">
        <ele>51.4</ele>
        <time>2020-03-26T13:32:56Z</time>
        <extensions><gpxtpx:TrackPointExtension><gpxtpx:hr>139</gpxtpx:hr></gpxtpx:TrackPointExtension></extensions>
      </trkpt>
      <trkpt lat="59.2114" lon="17.65288">
        <ele>51.2</ele>
        <time>2020-03-26T13:32:57Z</time>
        <extensions><gpxtpx:TrackPointExtension><gpxtpx:hr>138</gpxtpx:hr></gpxtpx:TrackPointExtension></extensions>
      </trkpt>
      <trkpt lat="59.211481" lon="17.652967">
        <ele>51.2</ele>
        <time>2020-03-26T13:32:58Z</time>
        <extensions><gpxtpx:TrackPointExtension><gpxtpx:hr>138</gpxtpx:hr></gpxtpx:TrackPointExtension></extensions>
      </trkpt>
      <trkpt lat="59.21156" lon="17.653054">
        <ele>51.2</ele>
        <time>2020-03-26T13:32:59Z</time>
        <extensions><gpxtpx:TrackPointExtension><gpxtpx:hr>137</gpxtpx:hr></gpxtpx:TrackPointExtension></extensions>
      </trkpt>
      <trkpt lat="59.211636" lon="17.653138">
        <ele>51.2</ele>
        <time>2020-03-26T13:33:00Z</time>
        <extensions><gpxtpx:TrackPointExtension><gpxtpx:hr>137</gpxtpx:hr></gpxtpx:TrackPointExtension></extensions>
      </trkpt>
      <trkpt lat="59.211712" lon="17.653217">
        <ele>51.2</ele>
        <time>2020-03-26T13:33:01Z</time>
        <extensions><gpxtpx:TrackPointExtension><gpxtpx:hr>137</gpxtpx:hr></gpxtpx:TrackPointExtension></extensions>
      </trkpt>
      <trkpt lat="59.211784" lon="17.653291">
        <ele>51.2</ele>
        <time>2020-03-26T13:33:02Z</time>
        <extensions><gpxtpx:TrackPointExtension><gpxtpx:hr>137</gpxtpx:hr></gpxtpx:TrackPointExtension></extensions>
      </trkpt>
      <trkpt lat="59.211856" lon="17.653362">
        <ele>51.2</ele>
        <time>2020-03-26T13:33:03Z</time>
        <extensions><gpxtpx:TrackPointExtension><gpxtpx:hr>137</gpxtpx:hr></gpxtpx:TrackPointExtension></extensions>
      </trkpt>
      <trkpt lat="59.21193" lon="17.653427">
        <ele>51.2</ele>
        <time>2020-03-26T13:33:04Z</time>
        <extensions><gpxtpx:TrackPointExtension><gpxtpx:hr>136</gpxtpx:hr></gpxtpx:TrackPointExtension></extensions>
      </trkpt>
      <trkpt lat="59.212007" lon="17.653486">
        <ele>51.2</ele>
        <time>2020-03-26T13:33:05Z</time>
        <extensions><gpxtpx:TrackPointExtension><gpxtpx:hr>136</gpxtpx:hr></gpxtpx:TrackPointExtension></extensions>
      </trkpt>
      <trkpt lat="59.21208" lon="17.653544">
        <ele>51.4</ele>
        <time>2020-03-26T13:33:06Z</time>
        <extensions><gpxtpx:TrackPointExtension><gpxtpx:hr>136</gpxtpx:hr></gpxtpx:TrackPointExtension></extensions>
      </trkpt>
      <trkpt lat="59.212155" lon="17.653599">
        <ele>51.4</ele>
        <time>2020-03-26T13:33:07Z</time>
        <extensions><gpxtpx:TrackPointExtension><gpxtpx:hr>136</gpxtpx:hr></gpxtpx:TrackPointExtension></extensions>
      </trkpt>
      <trkpt lat="59.212233" lon="17.653653">
        <ele>51.4</ele>
        <time>2020-03-26T13:33:08Z</time>
        <extensions><gpxtpx:TrackPointExtension><gpxtpx:hr>135</gpxtpx:hr></gpxtpx:TrackPointExtension></extensions>
      </trkpt>
      <trkpt lat="59.212309" lon="17.65371">
        <ele>51.4</ele>
        <time>2020-03-26T13:33:09Z</time>
        <extensions><gpxtpx:TrackPointExtension><gpxtpx:hr>135</gpxtpx:hr></gpxtpx:TrackPointExtension></extensions>
      </trkpt>
      <trkpt lat="59.212387" lon="17.653766">
        <ele>51.6</ele>
        <time>2020-03-26T13:33:10Z</time>
        <extensions><gpxtpx:TrackPointExtension><gpxtpx:hr>135</gpxtpx:hr></gpxtpx:TrackPointExtension></extensions>
      </trkpt>
      <trkpt lat="59.212466" lon="17.653823">
        <ele>51.6</ele>
        <time>2020-03-26T13:33:11Z</time>
        <extensions><gpxtpx:TrackPointExtension><gpxtpx:hr>135</gpxtpx:hr></gpxtpx:TrackPointExtension></extensions>
      </trkpt>
      <trkpt lat="59.212544" lon="17.653879">
        <ele>51.6</ele>
        <time>2020-03-26T13:33:12Z</time>
        <extensions><gpxtpx:TrackPointExtension><gpxtpx:hr>135</gpxtpx:hr></gpxtpx:TrackPointExtension></extensions>
      </trkpt>
      <trkpt lat="59.212622" lon="17.653932">
        <ele>51.6</ele>
        <time>2020-03-26T13:33:13Z</time>
        <extensions><gpxtpx:TrackPointExtension><gpxtpx:hr>135</gpxtpx:hr></gpxtpx:TrackPointExtension></extensions>
      </trkpt>
      <trkpt lat="59.212698" lon="17.65399">
        <ele>51.6</ele>
        <time>2020-03-26T13:33:14Z</time>
        <extensions><gpxtpx:TrackPointExtension><gpxtpx:hr>135</gpxtpx:hr></gpxtpx:TrackPointExtension></extensions>
      </trkpt>
      <trkpt lat="59.212769" lon="17.654062">
        <ele>51.6</ele>
        <time>2020-03-26T13:33:15Z</time>
        <extensions><gpxtpx:TrackPointExtension><gpxtpx:hr>135</gpxtpx:hr></gpxtpx:TrackPointExtension></extensions>
      </trkpt>
      <trkpt lat="59.21283" lon="17.654156">
        <ele>51.8</ele>
        <time>2020-03-26T13:33:16Z</time>
        <extensions><gpxtpx:TrackPointExtension><gpxtpx:hr>135</gpxtpx:hr></gpxtpx:TrackPointExtension></extensions>
      </trkpt>
      <trkpt lat="59.212881" lon="17.654268">
        <ele>51.8</ele>
        <time>2020-03-26T13:33:17Z</time>
        <extensions><gpxtpx:TrackPointExtension><gpxtpx:hr>136</gpxtpx:hr></gpxtpx:TrackPointExtension></extensions>
      </trkpt>
      <trkpt lat="59.212934" lon="17.654378">
        <ele>51.8</ele>
        <time>2020-03-26T13:33:18Z</time>
        <extensions><gpxtpx:TrackPointExtension><gpxtpx:hr>136</gpxtpx:hr></gpxtpx:TrackPointExtension></extensions>
      </trkpt>
      <trkpt lat="59.212997" lon="17.654464">
        <ele>51.8</ele>
        <time>2020-03-26T13:33:19Z</time>
        <extensions><gpxtpx:TrackPointExtension><gpxtpx:hr>137</gpxtpx:hr></gpxtpx:TrackPointExtension></extensions>
      </trkpt>
      <trkpt lat="59.21307" lon="17.654505">
        <ele>52</ele>
        <time>2020-03-26T13:33:20Z</time>
        <extensions><gpxtpx:TrackPointExtension><gpxtpx:hr>137</gpxtpx:hr></gpxtpx:TrackPointExtension></extensions>
      </trkpt>
      <trkpt lat="59.213148" lon="17.654518">
        <ele>52</ele>
        <time>2020-03-26T13:33:21Z</time>
        <extensions><gpxtpx:TrackPointExtension><gpxtpx:hr>138</gpxtpx:hr></gpxtpx:TrackPointExtension></extensions>
      </trkpt>
      <trkpt lat="59.21323" lon="17.654523">
        <ele>52</ele>
        <time>2020-03-26T13:33:22Z</time>
        <extensions><gpxtpx:TrackPointExtension><gpxtpx:hr>138</gpxtpx:hr></gpxtpx:TrackPointExtension></extensions>
      </trkpt>
      <trkpt lat="59.213313" lon="17.654523">
        <ele>52</ele>
        <time>2020-03-26T13:33:23Z</time>
        <extensions><gpxtpx:TrackPointExtension><gpxtpx:hr>138</gpxtpx:hr></gpxtpx:TrackPointExtension></extensions>
      </trkpt>
      <trkpt lat="59.213396" lon="17.654526">
        <ele>52</ele>
        <time>2020-03-26T13:33:24Z</time>
        <extensions><gpxtpx:TrackPointExtension><gpxtpx:hr>138</gpxtpx:hr></gpxtpx:TrackPointExtension></extensions>
      </trkpt>
      <trkpt lat="59.21348" lon="17.654535">
        <ele>52</ele>
        <time>2020-03-26T13:33:25Z</time>
        <extensions><gpxtpx:TrackPointExtension><gpxtpx:hr>138</gpxtpx:hr></gpxtpx:TrackPointExtension></extensions>
      </trkpt>
      <trkpt lat="59.213564" lon="17.654553">
        <ele>52</ele>
        <time>2020-03-26T13:33:26Z</time>
        <extensions><gpxtpx:TrackPointExtension><gpxtpx:hr>138</gpxtpx:hr></gpxtpx:TrackPointExtension></extensions>
      </trkpt>
      <trkpt lat="59.213648" lon="17.654582">
        <ele>52</ele>
        <time>2020-03-26T13:33:27Z</time>
        <extensions><gpxtpx:TrackPointExtension><gpxtpx:hr>138</gpxtpx:hr></gpxtpx:TrackPointExtension></extensions>
      </trkpt>
      <trkpt lat="59.21373" lon="17.654623">
        <ele>52</ele>
        <time>2020-03-26T13:33:28Z</time>
        <extensions><gpxtpx:TrackPointExtension><gpxtpx:hr>139</gpxtpx:hr></gpxtpx:TrackPointExtension></extensions>
      </trkpt>
      <trkpt lat="59.213809" lon="17.654673">
        <ele>52.2</ele>
        <time>2020-03-26T13:33:29Z</time>
        <extensions><gpxtpx:TrackPointExtension><gpxtpx:hr>139</gpxtpx:hr></gpxtpx:TrackPointExtension></extensions>
      </trkpt>
      <trkpt lat="59.21389" lon="17.654724">
        <ele>52.2</ele>
        <time>2020-03-26T13:33:30Z</time>
        <extensions><gpxtpx:TrackPointExtension><gpxtpx:hr>139</gpxtpx:hr></gpxtpx:TrackPointExtension></extensions>
      </trkpt>
      <trkpt lat="59.213971" lon="17.654775">
        <ele>52.2</ele>
        <time>2020-03-26T13:33:31Z</time>
        <extensions><gpxtpx:TrackPointExtension><gpxtpx:hr>139</gpxtpx:hr></gpxtpx:TrackPointExtension></extensions>
      </trkpt>
      <trkpt lat="59.214053" lon="17.654827">
        <ele>52.2</ele>
        <time>2020-03-26T13:33:32Z</time>
        <extensions><gpxtpx:TrackPointExtension><gpxtpx:hr>139</gpxtpx:hr></gpxtpx:TrackPointExtension></extensions>
      </trkpt>
      <trkpt lat="59.214136" lon="17.65488">
        <ele>52.2</ele>
        <time>2020-03-26T13:33:33Z</time>
        <extensions><gpxtpx:TrackPointExtension><gpxtpx:hr>139</gpxtpx:hr></gpxtpx:TrackPointExtension></extensions>
      </trkpt>
      <trkpt lat="59.214219" lon="17.654934">
        <ele>52.2</ele>
        <time>2020-03-26T13:33:34Z</time>
        <extensions><gpxtpx:TrackPointExtension><gpxtpx:hr>139</gpxtpx:hr></gpxtpx:TrackPointExtension></extensions>
      </trkpt>
      <trkpt lat="59.214302" lon="17.654989">
        <ele>52.2</ele>
        <time>2020-03-26T13:33:35Z</time>
        <extensions><gpxtpx:TrackPointExtension><gpxtpx:hr>139</gpxtpx:hr></gpxtpx:TrackPointExtension></extensions>
      </trkpt>
      <trkpt lat="59.214385" lon="17.655047">
        <ele>52.2</ele>
        <time>2020-03-26T13:33:36Z</time>
        <extensions><gpxtpx:TrackPointExtension><gpxtpx:hr>139</gpxtpx:hr></gpxtpx:TrackPointExtension></extensions>
      </trkpt>
      <trkpt lat="59.214464" lon="17.655109">
        <ele>52.2</ele>
        <time>2020-03-26T13:33:37Z</time>
        <extensions><gpxtpx:TrackPointExtension><gpxtpx:hr>139</gpxtpx:hr></gpxtpx:TrackPointExtension></extensions>
      </trkpt>
      <trkpt lat="59.214544" lon="17.655177">
        <ele>52.2</ele>
        <time>2020-03-26T13:33:38Z</time>
        <extensions><gpxtpx:TrackPointExtension><gpxtpx:hr>139</gpxtpx:hr></gpxtpx:TrackPointExtension></extensions>
      </trkpt>
      <trkpt lat="59.214623" lon="17.655251">
        <ele>52.2</ele>
        <time>2020-03-26T13:33:39Z</time>
        <extensions><gpxtpx:TrackPointExtension><gpxtpx:hr>140</gpxtpx:hr></gpxtpx:TrackPointExtension></extensions>
      </trkpt>
      <trkpt lat="59.2147" lon="17.655329">
        <ele>52.2</ele>
        <time>2020-03-26T13:33:40Z</time>
        <extensions><gpxtpx:TrackPointExtension><gpxtpx:hr>140</gpxtpx:hr></gpxtpx:TrackPointExtension></extensions>
      </trkpt>
      <trkpt lat="59.214773" lon="17.655413">
        <ele>52.2</ele>
        <time>2020-03-26T13:33:41Z</time>
        <extensions><gpxtpx:TrackPointExtension><gpxtpx:hr>139</gpxtpx:hr></gpxtpx:TrackPointExtension></extensions>
      </trkpt>
      <trkpt lat="59.214839" lon="17.655499">
        <ele>52.2</ele>
        <time>2020-03-26T13:33:42Z</time>
        <extensions><gpxtpx:TrackPointExtension><gpxtpx:hr>139</gpxtpx:hr></gpxtpx:TrackPointExtension></extensions>
      </trkpt>
      <trkpt lat="59.214904" lon="17.655594">
        <ele>52.2</ele>
        <time>2020-03-26T13:33:43Z</time>
        <extensions><gpxtpx:TrackPointExtension><gpxtpx:hr>139</gpxtpx:hr></gpxtpx:TrackPointExtension></extensions>
      </trkpt>
      <trkpt lat="59.214965" lon="17.655697">
        <ele>52</ele>
        <time>2020-03-26T13:33:44Z</time>
        <extensions><gpxtpx:TrackPointExtension><gpxtpx:hr>139</gpxtpx:hr></gpxtpx:TrackPointExtension></extensions>
      </trkpt>
      <trkpt lat="59.215021" lon="17.655806">
        <ele>52</ele>
        <time>2020-03-26T13:33:45Z</time>
        <extensions><gpxtpx:TrackPointExtension><gpxtpx:hr>139</gpxtpx:hr></gpxtpx:TrackPointExtension></extensions>
      </trkpt>
      <trkpt lat="59.215069" lon="17.655922">
        <ele>52.2</ele>
        <time>2020-03-26T13:33:46Z</time>
        <extensions><gpxtpx:TrackPointExtension><gpxtpx:hr>139</gpxtpx:hr></gpxtpx:TrackPointExtension></extensions>
      </trkpt>
      <trkpt lat="59.21512" lon="17.656039">
        <ele>52.2</ele>
        <time>2020-03-26T13:33:47Z</time>
        <extensions><gpxtpx:TrackPointExtension><gpxtpx:hr>139</gpxtpx:hr></gpxtpx:TrackPointExtension></extensions>
      </trkpt>
      <trkpt lat="59.215164" lon="17.656161">
        <ele>52.2</ele>
        <time>2020-03-26T13:33:48Z</time>
        <extensions><gpxtpx:TrackPointExtension><gpxtpx:hr>139</gpxtpx:hr></gpxtpx:TrackPointExtension></extensions>
      </trkpt>
      <trkpt lat="59.215213" lon="17.656285">
        <ele>52</ele>
        <time>2020-03-26T13:33:49Z</time>
        <extensions><gpxtpx:TrackPointExtension><gpxtpx:hr>139</gpxtpx:hr></gpxtpx:TrackPointExtension></extensions>
      </trkpt>
      <trkpt lat="59.215254" lon="17.656414">
        <ele>52</ele>
        <time>2020-03-26T13:33:50Z</time>
        <extensions><gpxtpx:TrackPointExtension><gpxtpx:hr>139</gpxtpx:hr></gpxtpx:TrackPointExtension></extensions>
      </trkpt>
      <trkpt lat="59.215294" lon="17.656544">
        <ele>52</ele>
        <time>2020-03-26T13:33:51Z</time>
        <extensions><gpxtpx:TrackPointExtension><gpxtpx:hr>139</gpxtpx:hr></gpxtpx:TrackPointExtension></extensions>
      </trkpt>
      <trkpt lat="59.215332" lon="17.656675">
        <ele>52</ele>
        <time>2020-03-26T13:33:52Z</time>
        <extensions><gpxtpx:TrackPointExtension><gpxtpx:hr>139</gpxtpx:hr></gpxtpx:TrackPointExtension></extensions>
      </trkpt>
      <trkpt lat="59.21537" lon="17.656806">
        <ele>52</ele>
        <time>2020-03-26T13:33:53Z</time>
        <extensions><gpxtpx:TrackPointExtension><gpxtpx:hr>139</gpxtpx:hr></gpxtpx:TrackPointExtension></extensions>
      </trkpt>
      <trkpt lat="59.215408" lon="17.656937">
        <ele>52</ele>
        <time>2020-03-26T13:33:54Z</time>
        <extensions><gpxtpx:TrackPointExtension><gpxtpx:hr>139</gpxtpx:hr></gpxtpx:TrackPointExtension></extensions>
      </trkpt>
      <trkpt lat="59.215446" lon="17.657067">
        <ele>52.2</ele>
        <time>2020-03-26T13:33:55Z</time>
        <extensions><gpxtpx:TrackPointExtension><gpxtpx:hr>139</gpxtpx:hr></gpxtpx:TrackPointExtension></extensions>
      </trkpt>
      <trkpt lat="59.215484" lon="17.657196">
        <ele>52.2</ele>
        <time>2020-03-26T13:33:56Z</time>
        <extensions><gpxtpx:TrackPointExtension><gpxtpx:hr>139</gpxtpx:hr></gpxtpx:TrackPointExtension></extensions>
      </trkpt>
      <trkpt lat="59.215523" lon="17.657324">
        <ele>52.2</ele>
        <time>2020-03-26T13:33:57Z</time>
        <extensions><gpxtpx:TrackPointExtension><gpxtpx:hr>139</gpxtpx:hr></gpxtpx:TrackPointExtension></extensions>
      </trkpt>
      <trkpt lat="59.21556" lon="17.657452">
        <ele>52.2</ele>
        <time>2020-03-26T13:33:58Z</time>
        <extensions><gpxtpx:TrackPointExtension><gpxtpx:hr>139</gpxtpx:hr></gpxtpx:TrackPointExtension></extensions>
      </trkpt>
      <trkpt lat="59.215597" lon="17.657581">
        <ele>52.2</ele>
        <time>2020-03-26T13:33:59Z</time>
        <extensions><gpxtpx:TrackPointExtension><gpxtpx:hr>139</gpxtpx:hr></gpxtpx:TrackPointExtension></extensions>
      </trkpt>
      <trkpt lat="59.215634" lon="17.65771">
        <ele>52.4</ele>
        <time>2020-03-26T13:34:00Z</time>
        <extensions><gpxtpx:TrackPointExtension><gpxtpx:hr>140</gpxtpx:hr></gpxtpx:TrackPointExtension></extensions>
      </trkpt>
      <trkpt lat="59.21567" lon="17.657841">
        <ele>52.4</ele>
        <time>2020-03-26T13:34:01Z</time>
        <extensions><gpxtpx:TrackPointExtension><gpxtpx:hr>140</gpxtpx:hr></gpxtpx:TrackPointExtension></extensions>
      </trkpt>
      <trkpt lat="59.215705" lon="17.657973">
        <ele>52.6</ele>
        <time>2020-03-26T13:34:02Z</time>
        <extensions><gpxtpx:TrackPointExtension><gpxtpx:hr>139</gpxtpx:hr></gpxtpx:TrackPointExtension></extensions>
      </trkpt>
      <trkpt lat="59.215738" lon="17.658105">
        <ele>52.6</ele>
        <time>2020-03-26T13:34:03Z</time>
        <extensions><gpxtpx:TrackPointExtension><gpxtpx:hr>139</gpxtpx:hr></gpxtpx:TrackPointExtension></extensions>
      </trkpt>
      <trkpt lat="59.215768" lon="17.658237">
        <ele>52.8</ele>
        <time>2020-03-26T13:34:04Z</time>
        <extensions><gpxtpx:TrackPointExtension><gpxtpx:hr>139</gpxtpx:hr></gpxtpx:TrackPointExtension></extensions>
      </trkpt>
      <trkpt lat="59.215797" lon="17.65837">
        <ele>52.8</ele>
        <time>2020-03-26T13:34:05Z</time>
        <extensions><gpxtpx:TrackPointExtension><gpxtpx:hr>139</gpxtpx:hr></gpxtpx:TrackPointExtension></extensions>
      </trkpt>
      <trkpt lat="59.21582" lon="17.658504">
        <ele>53</ele>
        <time>2020-03-26T13:34:06Z</time>
        <extensions><gpxtpx:TrackPointExtension><gpxtpx:hr>139</gpxtpx:hr></gpxtpx:TrackPointExtension></extensions>
      </trkpt>
      <trkpt lat="59.215837" lon="17.658637">
        <ele>53</ele>
        <time>2020-03-26T13:34:07Z</time>
        <extensions><gpxtpx:TrackPointExtension><gpxtpx:hr>139</gpxtpx:hr></gpxtpx:TrackPointExtension></extensions>
      </trkpt>
      <trkpt lat="59.215853" lon="17.658767">
        <ele>53</ele>
        <time>2020-03-26T13:34:08Z</time>
        <extensions><gpxtpx:TrackPointExtension><gpxtpx:hr>139</gpxtpx:hr></gpxtpx:TrackPointExtension></extensions>
      </trkpt>
      <trkpt lat="59.215866" lon="17.658893">
        <ele>53</ele>
        <time>2020-03-26T13:34:09Z</time>
        <extensions><gpxtpx:TrackPointExtension><gpxtpx:hr>140</gpxtpx:hr></gpxtpx:TrackPointExtension></extensions>
      </trkpt>
      <trkpt lat="59.215878" lon="17.659018">
        <ele>53.2</ele>
        <time>2020-03-26T13:34:10Z</time>
        <extensions><gpxtpx:TrackPointExtension><gpxtpx:hr>140</gpxtpx:hr></gpxtpx:TrackPointExtension></extensions>
      </trkpt>
      <trkpt lat="59.215887" lon="17.65914">
        <ele>53.2</ele>
        <time>2020-03-26T13:34:11Z</time>
        <extensions><gpxtpx:TrackPointExtension><gpxtpx:hr>140</gpxtpx:hr></gpxtpx:TrackPointExtension></extensions>
      </trkpt>
      <trkpt lat="59.215894" lon="17.659259">
        <ele>53.2</ele>
        <time>2020-03-26T13:34:12Z</time>
        <extensions><gpxtpx:TrackPointExtension><gpxtpx:hr>141</gpxtpx:hr></gpxtpx:TrackPointExtension></extensions>
      </trkpt>
      <trkpt lat="59.215899" lon="17.659377">
        <ele>53.2</ele>
        <time>2020-03-26T13:34:13Z</time>
        <extensions><gpxtpx:TrackPointExtension><gpxtpx:hr>141</gpxtpx:hr></gpxtpx:TrackPointExtension></extensions>
      </trkpt>
      <trkpt lat="59.215901" lon="17.659495">
        <ele>53.4</ele>
        <time>2020-03-26T13:34:14Z</time>
        <extensions><gpxtpx:TrackPointExtension><gpxtpx:hr>141</gpxtpx:hr></gpxtpx:TrackPointExtension></extensions>
      </trkpt>
      <trkpt lat="59.2159" lon="17.659611">
        <ele>53.4</ele>
        <time>2020-03-26T13:34:15Z</time>
        <extensions><gpxtpx:TrackPointExtension><gpxtpx:hr>141</gpxtpx:hr></gpxtpx:TrackPointExtension></extensions>
      </trkpt>
      <trkpt lat="59.215898" lon="17.65973">
        <ele>53.4</ele>
        <time>2020-03-26T13:34:16Z</time>
        <extensions><gpxtpx:TrackPointExtension><gpxtpx:hr>141</gpxtpx:hr></gpxtpx:TrackPointExtension></extensions>
      </trkpt>
      <trkpt lat="59.215895" lon="17.65985">
        <ele>53.6</ele>
        <time>2020-03-26T13:34:17Z</time>
        <extensions><gpxtpx:TrackPointExtension><gpxtpx:hr>141</gpxtpx:hr></gpxtpx:TrackPointExtension></extensions>
      </trkpt>
      <trkpt lat="59.215891" lon="17.659971">
        <ele>53.8</ele>
        <time>2020-03-26T13:34:18Z</time>
        <extensions><gpxtpx:TrackPointExtension><gpxtpx:hr>141</gpxtpx:hr></gpxtpx:TrackPointExtension></extensions>
      </trkpt>
      <trkpt lat="59.215885" lon="17.660091">
        <ele>53.8</ele>
        <time>2020-03-26T13:34:19Z</time>
        <extensions><gpxtpx:TrackPointExtension><gpxtpx:hr>141</gpxtpx:hr></gpxtpx:TrackPointExtension></extensions>
      </trkpt>
      <trkpt lat="59.215878" lon="17.660212">
        <ele>53.8</ele>
        <time>2020-03-26T13:34:20Z</time>
        <extensions><gpxtpx:TrackPointExtension><gpxtpx:hr>141</gpxtpx:hr></gpxtpx:TrackPointExtension></extensions>
      </trkpt>
      <trkpt lat="59.215871" lon="17.660338">
        <ele>54</ele>
        <time>2020-03-26T13:34:21Z</time>
        <extensions><gpxtpx:TrackPointExtension><gpxtpx:hr>141</gpxtpx:hr></gpxtpx:TrackPointExtension></extensions>
      </trkpt>
      <trkpt lat="59.215863" lon="17.660468">
        <ele>54</ele>
        <time>2020-03-26T13:34:22Z</time>
        <extensions><gpxtpx:TrackPointExtension><gpxtpx:hr>140</gpxtpx:hr></gpxtpx:TrackPointExtension></extensions>
      </trkpt>
      <trkpt lat="59.215854" lon="17.660603">
        <ele>54</ele>
        <time>2020-03-26T13:34:23Z</time>
        <extensions><gpxtpx:TrackPointExtension><gpxtpx:hr>140</gpxtpx:hr></gpxtpx:TrackPointExtension></extensions>
      </trkpt>
      <trkpt lat="59.215844" lon="17.660739">
        <ele>54</ele>
        <time>2020-03-26T13:34:24Z</time>
        <extensions><gpxtpx:TrackPointExtension><gpxtpx:hr>140</gpxtpx:hr></gpxtpx:TrackPointExtension></extensions>
      </trkpt>
      <trkpt lat="59.215833" lon="17.660878">
        <ele>54</ele>
        <time>2020-03-26T13:34:25Z</time>
        <extensions><gpxtpx:TrackPointExtension><gpxtpx:hr>139</gpxtpx:hr></gpxtpx:TrackPointExtension></extensions>
      </trkpt>
      <trkpt lat="59.21582" lon="17.661018">
        <ele>54</ele>
        <time>2020-03-26T13:34:26Z</time>
        <extensions><gpxtpx:TrackPointExtension><gpxtpx:hr>139</gpxtpx:hr></gpxtpx:TrackPointExtension></extensions>
      </trkpt>
      <trkpt lat="59.215807" lon="17.66116">
        <ele>54</ele>
        <time>2020-03-26T13:34:27Z</time>
        <extensions><gpxtpx:TrackPointExtension><gpxtpx:hr>139</gpxtpx:hr></gpxtpx:TrackPointExtension></extensions>
      </trkpt>
      <trkpt lat="59.215795" lon="17.661306">
        <ele>53.8</ele>
        <time>2020-03-26T13:34:28Z</time>
        <extensions><gpxtpx:TrackPointExtension><gpxtpx:hr>139</gpxtpx:hr></gpxtpx:TrackPointExtension></extensions>
      </trkpt>
      <trkpt lat="59.215783" lon="17.661452">
        <ele>53.8</ele>
        <time>2020-03-26T13:34:29Z</time>
        <extensions><gpxtpx:TrackPointExtension><gpxtpx:hr>139</gpxtpx:hr></gpxtpx:TrackPointExtension></extensions>
      </trkpt>
      <trkpt lat="59.21577" lon="17.661604">
        <ele>53.8</ele>
        <time>2020-03-26T13:34:30Z</time>
        <extensions><gpxtpx:TrackPointExtension><gpxtpx:hr>138</gpxtpx:hr></gpxtpx:TrackPointExtension></extensions>
      </trkpt>
      <trkpt lat="59.215757" lon="17.661748">
        <ele>53.4</ele>
        <time>2020-03-26T13:34:31Z</time>
        <extensions><gpxtpx:TrackPointExtension><gpxtpx:hr>138</gpxtpx:hr></gpxtpx:TrackPointExtension></extensions>
      </trkpt>
      <trkpt lat="59.215748" lon="17.661888">
        <ele>52.8</ele>
        <time>2020-03-26T13:34:32Z</time>
        <extensions><gpxtpx:TrackPointExtension><gpxtpx:hr>137</gpxtpx:hr></gpxtpx:TrackPointExtension></extensions>
      </trkpt>
      <trkpt lat="59.215739" lon="17.662027">
        <ele>52.6</ele>
        <time>2020-03-26T13:34:33Z</time>
        <extensions><gpxtpx:TrackPointExtension><gpxtpx:hr>137</gpxtpx:hr></gpxtpx:TrackPointExtension></extensions>
      </trkpt>
      <trkpt lat="59.21573" lon="17.662164">
        <ele>52.6</ele>
        <time>2020-03-26T13:34:34Z</time>
        <extensions><gpxtpx:TrackPointExtension><gpxtpx:hr>136</gpxtpx:hr></gpxtpx:TrackPointExtension></extensions>
      </trkpt>
      <trkpt lat="59.215722" lon="17.6623">
        <ele>52.4</ele>
        <time>2020-03-26T13:34:35Z</time>
        <extensions><gpxtpx:TrackPointExtension><gpxtpx:hr>135</gpxtpx:hr></gpxtpx:TrackPointExtension></extensions>
      </trkpt>
      <trkpt lat="59.215717" lon="17.662436">
        <ele>52.4</ele>
        <time>2020-03-26T13:34:36Z</time>
        <extensions><gpxtpx:TrackPointExtension><gpxtpx:hr>135</gpxtpx:hr></gpxtpx:TrackPointExtension></extensions>
      </trkpt>
      <trkpt lat="59.215716" lon="17.662578">
        <ele>52</ele>
        <time>2020-03-26T13:34:37Z</time>
        <extensions><gpxtpx:TrackPointExtension><gpxtpx:hr>135</gpxtpx:hr></gpxtpx:TrackPointExtension></extensions>
      </trkpt>
      <trkpt lat="59.215715" lon="17.662725">
        <ele>52</ele>
        <time>2020-03-26T13:34:38Z</time>
        <extensions><gpxtpx:TrackPointExtension><gpxtpx:hr>134</gpxtpx:hr></gpxtpx:TrackPointExtension></extensions>
      </trkpt>
      <trkpt lat="59.215719" lon="17.662878">
        <ele>51.8</ele>
        <time>2020-03-26T13:34:39Z</time>
        <extensions><gpxtpx:TrackPointExtension><gpxtpx:hr>134</gpxtpx:hr></gpxtpx:TrackPointExtension></extensions>
      </trkpt>
      <trkpt lat="59.215725" lon="17.663034">
        <ele>51.4</ele>
        <time>2020-03-26T13:34:40Z</time>
        <extensions><gpxtpx:TrackPointExtension><gpxtpx:hr>133</gpxtpx:hr></gpxtpx:TrackPointExtension></extensions>
      </trkpt>
      <trkpt lat="59.21573" lon="17.663192">
        <ele>51.4</ele>
        <time>2020-03-26T13:34:41Z</time>
        <extensions><gpxtpx:TrackPointExtension><gpxtpx:hr>133</gpxtpx:hr></gpxtpx:TrackPointExtension></extensions>
      </trkpt>
      <trkpt lat="59.21574" lon="17.663351">
        <ele>51.2</ele>
        <time>2020-03-26T13:34:42Z</time>
        <extensions><gpxtpx:TrackPointExtension><gpxtpx:hr>132</gpxtpx:hr></gpxtpx:TrackPointExtension></extensions>
      </trkpt>
      <trkpt lat="59.215757" lon="17.663515">
        <ele>51.2</ele>
        <time>2020-03-26T13:34:43Z</time>
        <extensions><gpxtpx:TrackPointExtension><gpxtpx:hr>131</gpxtpx:hr></gpxtpx:TrackPointExtension></extensions>
      </trkpt>
      <trkpt lat="59.215778" lon="17.663677">
        <ele>51.2</ele>
        <time>2020-03-26T13:34:44Z</time>
        <extensions><gpxtpx:TrackPointExtension><gpxtpx:hr>131</gpxtpx:hr></gpxtpx:TrackPointExtension></extensions>
      </trkpt>
      <trkpt lat="59.215802" lon="17.663842">
        <ele>51.2</ele>
        <time>2020-03-26T13:34:45Z</time>
        <extensions><gpxtpx:TrackPointExtension><gpxtpx:hr>130</gpxtpx:hr></gpxtpx:TrackPointExtension></extensions>
      </trkpt>
      <trkpt lat="59.215832" lon="17.664005">
        <ele>50.8</ele>
        <time>2020-03-26T13:34:46Z</time>
        <extensions><gpxtpx:TrackPointExtension><gpxtpx:hr>129</gpxtpx:hr></gpxtpx:TrackPointExtension></extensions>
      </trkpt>
      <trkpt lat="59.215863" lon="17.664162">
        <ele>50.8</ele>
        <time>2020-03-26T13:34:47Z</time>
        <extensions><gpxtpx:TrackPointExtension><gpxtpx:hr>129</gpxtpx:hr></gpxtpx:TrackPointExtension></extensions>
      </trkpt>
      <trkpt lat="59.215896" lon="17.664318">
        <ele>50.8</ele>
        <time>2020-03-26T13:34:48Z</time>
        <extensions><gpxtpx:TrackPointExtension><gpxtpx:hr>128</gpxtpx:hr></gpxtpx:TrackPointExtension></extensions>
      </trkpt>
      <trkpt lat="59.215934" lon="17.664472">
        <ele>50.4</ele>
        <time>2020-03-26T13:34:49Z</time>
        <extensions><gpxtpx:TrackPointExtension><gpxtpx:hr>127</gpxtpx:hr></gpxtpx:TrackPointExtension></extensions>
      </trkpt>
      <trkpt lat="59.215976" lon="17.664617">
        <ele>50.2</ele>
        <time>2020-03-26T13:34:50Z</time>
        <extensions><gpxtpx:TrackPointExtension><gpxtpx:hr>126</gpxtpx:hr></gpxtpx:TrackPointExtension></extensions>
      </trkpt>
      <trkpt lat="59.21602" lon="17.664756">
        <ele>49.8</ele>
        <time>2020-03-26T13:34:51Z</time>
        <extensions><gpxtpx:TrackPointExtension><gpxtpx:hr>125</gpxtpx:hr></gpxtpx:TrackPointExtension></extensions>
      </trkpt>
      <trkpt lat="59.216075" lon="17.664908">
        <ele>49.4</ele>
        <time>2020-03-26T13:34:52Z</time>
        <extensions><gpxtpx:TrackPointExtension><gpxtpx:hr>123</gpxtpx:hr></gpxtpx:TrackPointExtension></extensions>
      </trkpt>
      <trkpt lat="59.216125" lon="17.665038">
        <ele>48.6</ele>
        <time>2020-03-26T13:34:53Z</time>
        <extensions><gpxtpx:TrackPointExtension><gpxtpx:hr>121</gpxtpx:hr></gpxtpx:TrackPointExtension></extensions>
      </trkpt>
      <trkpt lat="59.216178" lon="17.665159">
        <ele>48.2</ele>
        <time>2020-03-26T13:34:54Z</time>
        <extensions><gpxtpx:TrackPointExtension><gpxtpx:hr>120</gpxtpx:hr></gpxtpx:TrackPointExtension></extensions>
      </trkpt>
      <trkpt lat="59.216231" lon="17.665245">
        <ele>47.4</ele>
        <time>2020-03-26T13:34:55Z</time>
        <extensions><gpxtpx:TrackPointExtension><gpxtpx:hr>118</gpxtpx:hr></gpxtpx:TrackPointExtension></extensions>
      </trkpt>
      <trkpt lat="59.216287" lon="17.665336">
        <ele>46.8</ele>
        <time>2020-03-26T13:34:56Z</time>
        <extensions><gpxtpx:TrackPointExtension><gpxtpx:hr>118</gpxtpx:hr></gpxtpx:TrackPointExtension></extensions>
      </trkpt>
      <trkpt lat="59.216345" lon="17.665425">
        <ele>46.2</ele>
        <time>2020-03-26T13:34:57Z</time>
        <extensions><gpxtpx:TrackPointExtension><gpxtpx:hr>118</gpxtpx:hr></gpxtpx:TrackPointExtension></extensions>
      </trkpt>
      <trkpt lat="59.216405" lon="17.665516">
        <ele>46</ele>
        <time>2020-03-26T13:34:58Z</time>
        <extensions><gpxtpx:TrackPointExtension><gpxtpx:hr>118</gpxtpx:hr></gpxtpx:TrackPointExtension></extensions>
      </trkpt>
      <trkpt lat="59.216467" lon="17.665602">
        <ele>45.8</ele>
        <time>2020-03-26T13:34:59Z</time>
        <extensions><gpxtpx:TrackPointExtension><gpxtpx:hr>118</gpxtpx:hr></gpxtpx:TrackPointExtension></extensions>
      </trkpt>
      <trkpt lat="59.216529" lon="17.665682">
        <ele>45.8</ele>
        <time>2020-03-26T13:35:00Z</time>
        <extensions><gpxtpx:TrackPointExtension><gpxtpx:hr>118</gpxtpx:hr></gpxtpx:TrackPointExtension></extensions>
      </trkpt>
      <trkpt lat="59.21659" lon="17.665754">
        <ele>45.6</ele>
        <time>2020-03-26T13:35:01Z</time>
        <extensions><gpxtpx:TrackPointExtension><gpxtpx:hr>118</gpxtpx:hr></gpxtpx:TrackPointExtension></extensions>
      </trkpt>
      <trkpt lat="59.216653" lon="17.66582">
        <ele>45.6</ele>
        <time>2020-03-26T13:35:02Z</time>
        <extensions><gpxtpx:TrackPointExtension><gpxtpx:hr>119</gpxtpx:hr></gpxtpx:TrackPointExtension></extensions>
      </trkpt>
      <trkpt lat="59.216717" lon="17.66588">
        <ele>45.6</ele>
        <time>2020-03-26T13:35:03Z</time>
        <extensions><gpxtpx:TrackPointExtension><gpxtpx:hr>119</gpxtpx:hr></gpxtpx:TrackPointExtension></extensions>
      </trkpt>
      <trkpt lat="59.216781" lon="17.665936">
        <ele>45.6</ele>
        <time>2020-03-26T13:35:04Z</time>
        <extensions><gpxtpx:TrackPointExtension><gpxtpx:hr>119</gpxtpx:hr></gpxtpx:TrackPointExtension></extensions>
      </trkpt>
      <trkpt lat="59.216844" lon="17.665991">
        <ele>45.6</ele>
        <time>2020-03-26T13:35:05Z</time>
        <extensions><gpxtpx:TrackPointExtension><gpxtpx:hr>120</gpxtpx:hr></gpxtpx:TrackPointExtension></extensions>
      </trkpt>
      <trkpt lat="59.216907" lon="17.666044">
        <ele>45.6</ele>
        <time>2020-03-26T13:35:06Z</time>
        <extensions><gpxtpx:TrackPointExtension><gpxtpx:hr>120</gpxtpx:hr></gpxtpx:TrackPointExtension></extensions>
      </trkpt>
      <trkpt lat="59.216971" lon="17.666092">
        <ele>45.8</ele>
        <time>2020-03-26T13:35:07Z</time>
        <extensions><gpxtpx:TrackPointExtension><gpxtpx:hr>120</gpxtpx:hr></gpxtpx:TrackPointExtension></extensions>
      </trkpt>
      <trkpt lat="59.217035" lon="17.666138">
        <ele>45.8</ele>
        <time>2020-03-26T13:35:08Z</time>
        <extensions><gpxtpx:TrackPointExtension><gpxtpx:hr>121</gpxtpx:hr></gpxtpx:TrackPointExtension></extensions>
      </trkpt>
      <trkpt lat="59.217099" lon="17.666183">
        <ele>46</ele>
        <time>2020-03-26T13:35:09Z</time>
        <extensions><gpxtpx:TrackPointExtension><gpxtpx:hr>121</gpxtpx:hr></gpxtpx:TrackPointExtension></extensions>
      </trkpt>
      <trkpt lat="59.217162" lon="17.666226">
        <ele>46.2</ele>
        <time>2020-03-26T13:35:10Z</time>
        <extensions><gpxtpx:TrackPointExtension><gpxtpx:hr>122</gpxtpx:hr></gpxtpx:TrackPointExtension></extensions>
      </trkpt>
      <trkpt lat="59.217224" lon="17.666267">
        <ele>46.8</ele>
        <time>2020-03-26T13:35:11Z</time>
        <extensions><gpxtpx:TrackPointExtension><gpxtpx:hr>123</gpxtpx:hr></gpxtpx:TrackPointExtension></extensions>
      </trkpt>
      <trkpt lat="59.217284" lon="17.666306">
        <ele>46.8</ele>
        <time>2020-03-26T13:35:12Z</time>
        <extensions><gpxtpx:TrackPointExtension><gpxtpx:hr>123</gpxtpx:hr></gpxtpx:TrackPointExtension></extensions>
      </trkpt>
      <trkpt lat="59.217343" lon="17.666345">
        <ele>47</ele>
        <time>2020-03-26T13:35:13Z</time>
        <extensions><gpxtpx:TrackPointExtension><gpxtpx:hr>124</gpxtpx:hr></gpxtpx:TrackPointExtension></extensions>
      </trkpt>
      <trkpt lat="59.217399" lon="17.666383">
        <ele>47.4</ele>
        <time>2020-03-26T13:35:14Z</time>
        <extensions><gpxtpx:TrackPointExtension><gpxtpx:hr>124</gpxtpx:hr></gpxtpx:TrackPointExtension></extensions>
      </trkpt>
      <trkpt lat="59.217455" lon="17.66642">
        <ele>47.6</ele>
        <time>2020-03-26T13:35:15Z</time>
        <extensions><gpxtpx:TrackPointExtension><gpxtpx:hr>125</gpxtpx:hr></gpxtpx:TrackPointExtension></extensions>
      </trkpt>
      <trkpt lat="59.217509" lon="17.666457">
        <ele>47.8</ele>
        <time>2020-03-26T13:35:16Z</time>
        <extensions><gpxtpx:TrackPointExtension><gpxtpx:hr>126</gpxtpx:hr></gpxtpx:TrackPointExtension></extensions>
      </trkpt>
      <trkpt lat="59.217561" lon="17.666492">
        <ele>47.8</ele>
        <time>2020-03-26T13:35:17Z</time>
        <extensions><gpxtpx:TrackPointExtension><gpxtpx:hr>127</gpxtpx:hr></gpxtpx:TrackPointExtension></extensions>
      </trkpt>
      <trkpt lat="59.217614" lon="17.666525">
        <ele>47.8</ele>
        <time>2020-03-26T13:35:18Z</time>
        <extensions><gpxtpx:TrackPointExtension><gpxtpx:hr>128</gpxtpx:hr></gpxtpx:TrackPointExtension></extensions>
      </trkpt>
      <trkpt lat="59.217666" lon="17.666555">
        <ele>48</ele>
        <time>2020-03-26T13:35:19Z</time>
        <extensions><gpxtpx:TrackPointExtension><gpxtpx:hr>130</gpxtpx:hr></gpxtpx:TrackPointExtension></extensions>
      </trkpt>
      <trkpt lat="59.217717" lon="17.666585">
        <ele>48.2</ele>
        <time>2020-03-26T13:35:20Z</time>
        <extensions><gpxtpx:TrackPointExtension><gpxtpx:hr>131</gpxtpx:hr></gpxtpx:TrackPointExtension></extensions>
      </trkpt>
      <trkpt lat="59.217768" lon="17.666613">
        <ele>48.6</ele>
        <time>2020-03-26T13:35:21Z</time>
        <extensions><gpxtpx:TrackPointExtension><gpxtpx:hr>132</gpxtpx:hr></gpxtpx:TrackPointExtension></extensions>
      </trkpt>
      <trkpt lat="59.217817" lon="17.666641">
        <ele>48.6</ele>
        <time>2020-03-26T13:35:22Z</time>
        <extensions><gpxtpx:TrackPointExtension><gpxtpx:hr>134</gpxtpx:hr></gpxtpx:TrackPointExtension></extensions>
      </trkpt>
      <trkpt lat="59.217865" lon="17.666671">
        <ele>48.8</ele>
        <time>2020-03-26T13:35:23Z</time>
        <extensions><gpxtpx:TrackPointExtension><gpxtpx:hr>135</gpxtpx:hr></gpxtpx:TrackPointExtension></extensions>
      </trkpt>
      <trkpt lat="59.217916" lon="17.666697">
        <ele>49.4</ele>
        <time>2020-03-26T13:35:24Z</time>
        <extensions><gpxtpx:TrackPointExtension><gpxtpx:hr>135</gpxtpx:hr></gpxtpx:TrackPointExtension></extensions>
      </trkpt>
      <trkpt lat="59.217963" lon="17.666724">
        <ele>49.8</ele>
        <time>2020-03-26T13:35:25Z</time>
        <extensions><gpxtpx:TrackPointExtension><gpxtpx:hr>136</gpxtpx:hr></gpxtpx:TrackPointExtension></extensions>
      </trkpt>
      <trkpt lat="59.218016" lon="17.666748">
        <ele>50.2</ele>
        <time>2020-03-26T13:35:26Z</time>
        <extensions><gpxtpx:TrackPointExtension><gpxtpx:hr>136</gpxtpx:hr></gpxtpx:TrackPointExtension></extensions>
      </trkpt>
      <trkpt lat="59.218065" lon="17.666773">
        <ele>50.4</ele>
        <time>2020-03-26T13:35:27Z</time>
        <extensions><gpxtpx:TrackPointExtension><gpxtpx:hr>136</gpxtpx:hr></gpxtpx:TrackPointExtension></extensions>
      </trkpt>
      <trkpt lat="59.21812" lon="17.666796">
        <ele>50.8</ele>
        <time>2020-03-26T13:35:28Z</time>
        <extensions><gpxtpx:TrackPointExtension><gpxtpx:hr>136</gpxtpx:hr></gpxtpx:TrackPointExtension></extensions>
      </trkpt>
      <trkpt lat="59.218172" lon="17.666819">
        <ele>51.2</ele>
        <time>2020-03-26T13:35:29Z</time>
        <extensions><gpxtpx:TrackPointExtension><gpxtpx:hr>136</gpxtpx:hr></gpxtpx:TrackPointExtension></extensions>
      </trkpt>
      <trkpt lat="59.218222" lon="17.666843">
        <ele>51.4</ele>
        <time>2020-03-26T13:35:30Z</time>
        <extensions><gpxtpx:TrackPointExtension><gpxtpx:hr>136</gpxtpx:hr></gpxtpx:TrackPointExtension></extensions>
      </trkpt>
      <trkpt lat="59.218273" lon="17.666866">
        <ele>51.6</ele>
        <time>2020-03-26T13:35:31Z</time>
        <extensions><gpxtpx:TrackPointExtension><gpxtpx:hr>136</gpxtpx:hr></gpxtpx:TrackPointExtension></extensions>
      </trkpt>
      <trkpt lat="59.218323" lon="17.66689">
        <ele>51.8</ele>
        <time>2020-03-26T13:35:32Z</time>
        <extensions><gpxtpx:TrackPointExtension><gpxtpx:hr>137</gpxtpx:hr></gpxtpx:TrackPointExtension></extensions>
      </trkpt>
      <trkpt lat="59.218371" lon="17.666916">
        <ele>52.2</ele>
        <time>2020-03-26T13:35:33Z</time>
        <extensions><gpxtpx:TrackPointExtension><gpxtpx:hr>137</gpxtpx:hr></gpxtpx:TrackPointExtension></extensions>
      </trkpt>
      <trkpt lat="59.218417" lon="17.666944">
        <ele>52.6</ele>
        <time>2020-03-26T13:35:34Z</time>
        <extensions><gpxtpx:TrackPointExtension><gpxtpx:hr>138</gpxtpx:hr></gpxtpx:TrackPointExtension></extensions>
      </trkpt>
      <trkpt lat="59.218465" lon="17.666974">
        <ele>52.6</ele>
        <time>2020-03-26T13:35:35Z</time>
        <extensions><gpxtpx:TrackPointExtension><gpxtpx:hr>138</gpxtpx:hr></gpxtpx:TrackPointExtension></extensions>
      </trkpt>
      <trkpt lat="59.218512" lon="17.667003">
        <ele>52.8</ele>
        <time>2020-03-26T13:35:36Z</time>
        <extensions><gpxtpx:TrackPointExtension><gpxtpx:hr>139</gpxtpx:hr></gpxtpx:TrackPointExtension></extensions>
      </trkpt>
      <trkpt lat="59.21856" lon="17.667032">
        <ele>53</ele>
        <time>2020-03-26T13:35:37Z</time>
        <extensions><gpxtpx:TrackPointExtension><gpxtpx:hr>139</gpxtpx:hr></gpxtpx:TrackPointExtension></extensions>
      </trkpt>
      <trkpt lat="59.21861" lon="17.667059">
        <ele>53</ele>
        <time>2020-03-26T13:35:38Z</time>
        <extensions><gpxtpx:TrackPointExtension><gpxtpx:hr>140</gpxtpx:hr></gpxtpx:TrackPointExtension></extensions>
      </trkpt>
      <trkpt lat="59.218659" lon="17.667087">
        <ele>53.2</ele>
        <time>2020-03-26T13:35:39Z</time>
        <extensions><gpxtpx:TrackPointExtension><gpxtpx:hr>140</gpxtpx:hr></gpxtpx:TrackPointExtension></extensions>
      </trkpt>
      <trkpt lat="59.218712" lon="17.667115">
        <ele>53.4</ele>
        <time>2020-03-26T13:35:40Z</time>
        <extensions><gpxtpx:TrackPointExtension><gpxtpx:hr>141</gpxtpx:hr></gpxtpx:TrackPointExtension></extensions>
      </trkpt>
      <trkpt lat="59.218768" lon="17.667143">
        <ele>53.4</ele>
        <time>2020-03-26T13:35:41Z</time>
        <extensions><gpxtpx:TrackPointExtension><gpxtpx:hr>141</gpxtpx:hr></gpxtpx:TrackPointExtension></extensions>
      </trkpt>
      <trkpt lat="59.218822" lon="17.667177">
        <ele>53.6</ele>
        <time>2020-03-26T13:35:42Z</time>
        <extensions><gpxtpx:TrackPointExtension><gpxtpx:hr>142</gpxtpx:hr></gpxtpx:TrackPointExtension></extensions>
      </trkpt>
      <trkpt lat="59.218878" lon="17.667214">
        <ele>54</ele>
        <time>2020-03-26T13:35:43Z</time>
        <extensions><gpxtpx:TrackPointExtension><gpxtpx:hr>142</gpxtpx:hr></gpxtpx:TrackPointExtension></extensions>
      </trkpt>
      <trkpt lat="59.218933" lon="17.667256">
        <ele>54.2</ele>
        <time>2020-03-26T13:35:44Z</time>
        <extensions><gpxtpx:TrackPointExtension><gpxtpx:hr>143</gpxtpx:hr></gpxtpx:TrackPointExtension></extensions>
      </trkpt>
      <trkpt lat="59.218989" lon="17.667303">
        <ele>54.4</ele>
        <time>2020-03-26T13:35:45Z</time>
        <extensions><gpxtpx:TrackPointExtension><gpxtpx:hr>143</gpxtpx:hr></gpxtpx:TrackPointExtension></extensions>
      </trkpt>
      <trkpt lat="59.219044" lon="17.667354">
        <ele>54.6</ele>
        <time>2020-03-26T13:35:46Z</time>
        <extensions><gpxtpx:TrackPointExtension><gpxtpx:hr>144</gpxtpx:hr></gpxtpx:TrackPointExtension></extensions>
      </trkpt>
      <trkpt lat="59.219098" lon="17.667408">
        <ele>54.8</ele>
        <time>2020-03-26T13:35:47Z</time>
        <extensions><gpxtpx:TrackPointExtension><gpxtpx:hr>145</gpxtpx:hr></gpxtpx:TrackPointExtension></extensions>
      </trkpt>
      <trkpt lat="59.219152" lon="17.667467">
        <ele>54.8</ele>
        <time>2020-03-26T13:35:48Z</time>
        <extensions><gpxtpx:TrackPointExtension><gpxtpx:hr>145</gpxtpx:hr></gpxtpx:TrackPointExtension></extensions>
      </trkpt>
      <trkpt lat="59.219207" lon="17.667528">
        <ele>55</ele>
        <time>2020-03-26T13:35:49Z</time>
        <extensions><gpxtpx:TrackPointExtension><gpxtpx:hr>145</gpxtpx:hr></gpxtpx:TrackPointExtension></extensions>
      </trkpt>
      <trkpt lat="59.219262" lon="17.667595">
        <ele>55</ele>
        <time>2020-03-26T13:35:50Z</time>
        <extensions><gpxtpx:TrackPointExtension><gpxtpx:hr>146</gpxtpx:hr></gpxtpx:TrackPointExtension></extensions>
      </trkpt>
      <trkpt lat="59.219317" lon="17.667666">
        <ele>55</ele>
        <time>2020-03-26T13:35:51Z</time>
        <extensions><gpxtpx:TrackPointExtension><gpxtpx:hr>146</gpxtpx:hr></gpxtpx:TrackPointExtension></extensions>
      </trkpt>
      <trkpt lat="59.219371" lon="17.667744">
        <ele>55</ele>
        <time>2020-03-26T13:35:52Z</time>
        <extensions><gpxtpx:TrackPointExtension><gpxtpx:hr>147</gpxtpx:hr></gpxtpx:TrackPointExtension></extensions>
      </trkpt>
      <trkpt lat="59.219427" lon="17.667823">
        <ele>55.2</ele>
        <time>2020-03-26T13:35:53Z</time>
        <extensions><gpxtpx:TrackPointExtension><gpxtpx:hr>147</gpxtpx:hr></gpxtpx:TrackPointExtension></extensions>
      </trkpt>
      <trkpt lat="59.219479" lon="17.667903">
        <ele>55.2</ele>
        <time>2020-03-26T13:35:54Z</time>
        <extensions><gpxtpx:TrackPointExtension><gpxtpx:hr>147</gpxtpx:hr></gpxtpx:TrackPointExtension></extensions>
      </trkpt>
      <trkpt lat="59.219527" lon="17.667989">
        <ele>55.2</ele>
        <time>2020-03-26T13:35:55Z</time>
        <extensions><gpxtpx:TrackPointExtension><gpxtpx:hr>147</gpxtpx:hr></gpxtpx:TrackPointExtension></extensions>
      </trkpt>
      <trkpt lat="59.21958" lon="17.668078">
        <ele>55.2</ele>
        <time>2020-03-26T13:35:56Z</time>
        <extensions><gpxtpx:TrackPointExtension><gpxtpx:hr>147</gpxtpx:hr></gpxtpx:TrackPointExtension></extensions>
      </trkpt>
      <trkpt lat="59.21963" lon="17.668172">
        <ele>55.2</ele>
        <time>2020-03-26T13:35:57Z</time>
        <extensions><gpxtpx:TrackPointExtension><gpxtpx:hr>147</gpxtpx:hr></gpxtpx:TrackPointExtension></extensions>
      </trkpt>
      <trkpt lat="59.219677" lon="17.668269">
        <ele>55.2</ele>
        <time>2020-03-26T13:35:58Z</time>
        <extensions><gpxtpx:TrackPointExtension><gpxtpx:hr>147</gpxtpx:hr></gpxtpx:TrackPointExtension></extensions>
      </trkpt>
      <trkpt lat="59.219724" lon="17.668371">
        <ele>55</ele>
        <time>2020-03-26T13:35:59Z</time>
        <extensions><gpxtpx:TrackPointExtension><gpxtpx:hr>147</gpxtpx:hr></gpxtpx:TrackPointExtension></extensions>
      </trkpt>
      <trkpt lat="59.219772" lon="17.668487">
        <ele>55</ele>
        <time>2020-03-26T13:36:00Z</time>
        <extensions><gpxtpx:TrackPointExtension><gpxtpx:hr>148</gpxtpx:hr></gpxtpx:TrackPointExtension></extensions>
      </trkpt>
      <trkpt lat="59.219821" lon="17.668612">
        <ele>55</ele>
        <time>2020-03-26T13:36:01Z</time>
        <extensions><gpxtpx:TrackPointExtension><gpxtpx:hr>147</gpxtpx:hr></gpxtpx:TrackPointExtension></extensions>
      </trkpt>
      <trkpt lat="59.219872" lon="17.668741">
        <ele>55</ele>
        <time>2020-03-26T13:36:02Z</time>
        <extensions><gpxtpx:TrackPointExtension><gpxtpx:hr>147</gpxtpx:hr></gpxtpx:TrackPointExtension></extensions>
      </trkpt>
      <trkpt lat="59.219919" lon="17.668873">
        <ele>55</ele>
        <time>2020-03-26T13:36:03Z</time>
        <extensions><gpxtpx:TrackPointExtension><gpxtpx:hr>147</gpxtpx:hr></gpxtpx:TrackPointExtension></extensions>
      </trkpt>
      <trkpt lat="59.219965" lon="17.669007">
        <ele>55</ele>
        <time>2020-03-26T13:36:04Z</time>
        <extensions><gpxtpx:TrackPointExtension><gpxtpx:hr>146</gpxtpx:hr></gpxtpx:TrackPointExtension></extensions>
      </trkpt>
      <trkpt lat="59.220016" lon="17.669146">
        <ele>54.8</ele>
        <time>2020-03-26T13:36:05Z</time>
        <extensions><gpxtpx:TrackPointExtension><gpxtpx:hr>146</gpxtpx:hr></gpxtpx:TrackPointExtension></extensions>
      </trkpt>
      <trkpt lat="59.220064" lon="17.669282">
        <ele>54.4</ele>
        <time>2020-03-26T13:36:06Z</time>
        <extensions><gpxtpx:TrackPointExtension><gpxtpx:hr>145</gpxtpx:hr></gpxtpx:TrackPointExtension></extensions>
      </trkpt>
      <trkpt lat="59.220109" lon="17.669418">
        <ele>54</ele>
        <time>2020-03-26T13:36:07Z</time>
        <extensions><gpxtpx:TrackPointExtension><gpxtpx:hr>145</gpxtpx:hr></gpxtpx:TrackPointExtension></extensions>
      </trkpt>
      <trkpt lat="59.220149" lon="17.669558">
        <ele>53.4</ele>
        <time>2020-03-26T13:36:08Z</time>
        <extensions><gpxtpx:TrackPointExtension><gpxtpx:hr>144</gpxtpx:hr></gpxtpx:TrackPointExtension></extensions>
      </trkpt>
      <trkpt lat="59.220186" lon="17.669702">
        <ele>52.8</ele>
        <time>2020-03-26T13:36:09Z</time>
        <extensions><gpxtpx:TrackPointExtension><gpxtpx:hr>143</gpxtpx:hr></gpxtpx:TrackPointExtension></extensions>
      </trkpt>
      <trkpt lat="59.220227" lon="17.669849">
        <ele>52.2</ele>
        <time>2020-03-26T13:36:10Z</time>
        <extensions><gpxtpx:TrackPointExtension><gpxtpx:hr>143</gpxtpx:hr></gpxtpx:TrackPointExtension></extensions>
      </trkpt>
      <trkpt lat="59.220272" lon="17.669998">
        <ele>51.8</ele>
        <time>2020-03-26T13:36:11Z</time>
        <extensions><gpxtpx:TrackPointExtension><gpxtpx:hr>142</gpxtpx:hr></gpxtpx:TrackPointExtension></extensions>
      </trkpt>
      <trkpt lat="59.22032" lon="17.670145">
        <ele>51.6</ele>
        <time>2020-03-26T13:36:12Z</time>
        <extensions><gpxtpx:TrackPointExtension><gpxtpx:hr>141</gpxtpx:hr></gpxtpx:TrackPointExtension></extensions>
      </trkpt>
      <trkpt lat="59.220367" lon="17.670291">
        <ele>51.2</ele>
        <time>2020-03-26T13:36:13Z</time>
        <extensions><gpxtpx:TrackPointExtension><gpxtpx:hr>140</gpxtpx:hr></gpxtpx:TrackPointExtension></extensions>
      </trkpt>
      <trkpt lat="59.220411" lon="17.670437">
        <ele>51</ele>
        <time>2020-03-26T13:36:14Z</time>
        <extensions><gpxtpx:TrackPointExtension><gpxtpx:hr>140</gpxtpx:hr></gpxtpx:TrackPointExtension></extensions>
      </trkpt>
      <trkpt lat="59.220459" lon="17.670589">
        <ele>50.6</ele>
        <time>2020-03-26T13:36:15Z</time>
        <extensions><gpxtpx:TrackPointExtension><gpxtpx:hr>139</gpxtpx:hr></gpxtpx:TrackPointExtension></extensions>
      </trkpt>
      <trkpt lat="59.220504" lon="17.670745">
        <ele>50.2</ele>
        <time>2020-03-26T13:36:16Z</time>
        <extensions><gpxtpx:TrackPointExtension><gpxtpx:hr>138</gpxtpx:hr></gpxtpx:TrackPointExtension></extensions>
      </trkpt>
      <trkpt lat="59.220551" lon="17.670903">
        <ele>50</ele>
        <time>2020-03-26T13:36:17Z</time>
        <extensions><gpxtpx:TrackPointExtension><gpxtpx:hr>138</gpxtpx:hr></gpxtpx:TrackPointExtension></extensions>
      </trkpt>
      <trkpt lat="59.220598" lon="17.671061">
        <ele>49.8</ele>
        <time>2020-03-26T13:36:18Z</time>
        <extensions><gpxtpx:TrackPointExtension><gpxtpx:hr>137</gpxtpx:hr></gpxtpx:TrackPointExtension></extensions>
      </trkpt>
      <trkpt lat="59.220645" lon="17.671218">
        <ele>49.6</ele>
        <time>2020-03-26T13:36:19Z</time>
        <extensions><gpxtpx:TrackPointExtension><gpxtpx:hr>135</gpxtpx:hr></gpxtpx:TrackPointExtension></extensions>
      </trkpt>
      <trkpt lat="59.220698" lon="17.671376">
        <ele>49.2</ele>
        <time>2020-03-26T13:36:20Z</time>
        <extensions><gpxtpx:TrackPointExtension><gpxtpx:hr>134</gpxtpx:hr></gpxtpx:TrackPointExtension></extensions>
      </trkpt>
      <trkpt lat="59.220746" lon="17.671531">
        <ele>48.8</ele>
        <time>2020-03-26T13:36:21Z</time>
        <extensions><gpxtpx:TrackPointExtension><gpxtpx:hr>133</gpxtpx:hr></gpxtpx:TrackPointExtension></extensions>
      </trkpt>
      <trkpt lat="59.220793" lon="17.671681">
        <ele>48.4</ele>
        <time>2020-03-26T13:36:22Z</time>
        <extensions><gpxtpx:TrackPointExtension><gpxtpx:hr>132</gpxtpx:hr></gpxtpx:TrackPointExtension></extensions>
      </trkpt>
      <trkpt lat="59.22084" lon="17.671827">
        <ele>48.4</ele>
        <time>2020-03-26T13:36:23Z</time>
        <extensions><gpxtpx:TrackPointExtension><gpxtpx:hr>130</gpxtpx:hr></gpxtpx:TrackPointExtension></extensions>
      </trkpt>
      <trkpt lat="59.220888" lon="17.671973">
        <ele>48.2</ele>
        <time>2020-03-26T13:36:24Z</time>
        <extensions><gpxtpx:TrackPointExtension><gpxtpx:hr>129</gpxtpx:hr></gpxtpx:TrackPointExtension></extensions>
      </trkpt>
      <trkpt lat="59.220933" lon="17.672117">
        <ele>48.2</ele>
        <time>2020-03-26T13:36:25Z</time>
        <extensions><gpxtpx:TrackPointExtension><gpxtpx:hr>128</gpxtpx:hr></gpxtpx:TrackPointExtension></extensions>
      </trkpt>
      <trkpt lat="59.220976" lon="17.67226">
        <ele>47.8</ele>
        <time>2020-03-26T13:36:26Z</time>
        <extensions><gpxtpx:TrackPointExtension><gpxtpx:hr>126</gpxtpx:hr></gpxtpx:TrackPointExtension></extensions>
      </trkpt>
      <trkpt lat="59.221019" lon="17.6724">
        <ele>47.4</ele>
        <time>2020-03-26T13:36:27Z</time>
        <extensions><gpxtpx:TrackPointExtension><gpxtpx:hr>125</gpxtpx:hr></gpxtpx:TrackPointExtension></extensions>
      </trkpt>
      <trkpt lat="59.221062" lon="17.672537">
        <ele>47.2</ele>
        <time>2020-03-26T13:36:28Z</time>
        <extensions><gpxtpx:TrackPointExtension><gpxtpx:hr>125</gpxtpx:hr></gpxtpx:TrackPointExtension></extensions>
      </trkpt>
      <trkpt lat="59.221105" lon="17.672674">
        <ele>47</ele>
        <time>2020-03-26T13:36:29Z</time>
        <extensions><gpxtpx:TrackPointExtension><gpxtpx:hr>126</gpxtpx:hr></gpxtpx:TrackPointExtension></extensions>
      </trkpt>
      <trkpt lat="59.221147" lon="17.67281">
        <ele>46.8</ele>
        <time>2020-03-26T13:36:30Z</time>
        <extensions><gpxtpx:TrackPointExtension><gpxtpx:hr>127</gpxtpx:hr></gpxtpx:TrackPointExtension></extensions>
      </trkpt>
      <trkpt lat="59.221189" lon="17.672946">
        <ele>46.4</ele>
        <time>2020-03-26T13:36:31Z</time>
        <extensions><gpxtpx:TrackPointExtension><gpxtpx:hr>128</gpxtpx:hr></gpxtpx:TrackPointExtension></extensions>
      </trkpt>
      <trkpt lat="59.221231" lon="17.673082">
        <ele>46.4</ele>
        <time>2020-03-26T13:36:32Z</time>
        <extensions><gpxtpx:TrackPointExtension><gpxtpx:hr>129</gpxtpx:hr></gpxtpx:TrackPointExtension></extensions>
      </trkpt>
      <trkpt lat="59.221272" lon="17.673218">
        <ele>46.2</ele>
        <time>2020-03-26T13:36:33Z</time>
        <extensions><gpxtpx:TrackPointExtension><gpxtpx:hr>129</gpxtpx:hr></gpxtpx:TrackPointExtension></extensions>
      </trkpt>
      <trkpt lat="59.221313" lon="17.673355">
        <ele>46</ele>
        <time>2020-03-26T13:36:34Z</time>
        <extensions><gpxtpx:TrackPointExtension><gpxtpx:hr>129</gpxtpx:hr></gpxtpx:TrackPointExtension></extensions>
      </trkpt>
      <trkpt lat="59.221354" lon="17.673493">
        <ele>45.8</ele>
        <time>2020-03-26T13:36:35Z</time>
        <extensions><gpxtpx:TrackPointExtension><gpxtpx:hr>129</gpxtpx:hr></gpxtpx:TrackPointExtension></extensions>
      </trkpt>
      <trkpt lat="59.221396" lon="17.673631">
        <ele>45.8</ele>
        <time>2020-03-26T13:36:36Z</time>
        <extensions><gpxtpx:TrackPointExtension><gpxtpx:hr>129</gpxtpx:hr></gpxtpx:TrackPointExtension></extensions>
      </trkpt>
      <trkpt lat="59.221439" lon="17.673769">
        <ele>45.8</ele>
        <time>2020-03-26T13:36:37Z</time>
        <extensions><gpxtpx:TrackPointExtension><gpxtpx:hr>129</gpxtpx:hr></gpxtpx:TrackPointExtension></extensions>
      </trkpt>
      <trkpt lat="59.221482" lon="17.67391">
        <ele>45.6</ele>
        <time>2020-03-26T13:36:38Z</time>
        <extensions><gpxtpx:TrackPointExtension><gpxtpx:hr>129</gpxtpx:hr></gpxtpx:TrackPointExtension></extensions>
      </trkpt>
      <trkpt lat="59.221525" lon="17.674054">
        <ele>45.6</ele>
        <time>2020-03-26T13:36:39Z</time>
        <extensions><gpxtpx:TrackPointExtension><gpxtpx:hr>130</gpxtpx:hr></gpxtpx:TrackPointExtension></extensions>
      </trkpt>
      <trkpt lat="59.221567" lon="17.6742">
        <ele>45.6</ele>
        <time>2020-03-26T13:36:40Z</time>
        <extensions><gpxtpx:TrackPointExtension><gpxtpx:hr>130</gpxtpx:hr></gpxtpx:TrackPointExtension></extensions>
      </trkpt>
      <trkpt lat="59.22161" lon="17.674347">
        <ele>45.6</ele>
        <time>2020-03-26T13:36:41Z</time>
        <extensions><gpxtpx:TrackPointExtension><gpxtpx:hr>131</gpxtpx:hr></gpxtpx:TrackPointExtension></extensions>
      </trkpt>
      <trkpt lat="59.221654" lon="17.674495">
        <ele>45.6</ele>
        <time>2020-03-26T13:36:42Z</time>
        <extensions><gpxtpx:TrackPointExtension><gpxtpx:hr>131</gpxtpx:hr></gpxtpx:TrackPointExtension></extensions>
      </trkpt>
      <trkpt lat="59.221697" lon="17.674645">
        <ele>45.4</ele>
        <time>2020-03-26T13:36:43Z</time>
        <extensions><gpxtpx:TrackPointExtension><gpxtpx:hr>132</gpxtpx:hr></gpxtpx:TrackPointExtension></extensions>
      </trkpt>
      <trkpt lat="59.221741" lon="17.674796">
        <ele>45.4</ele>
        <time>2020-03-26T13:36:44Z</time>
        <extensions><gpxtpx:TrackPointExtension><gpxtpx:hr>132</gpxtpx:hr></gpxtpx:TrackPointExtension></extensions>
      </trkpt>
      <trkpt lat="59.221786" lon="17.674948">
        <ele>45.4</ele>
        <time>2020-03-26T13:36:45Z</time>
        <extensions><gpxtpx:TrackPointExtension><gpxtpx:hr>133</gpxtpx:hr></gpxtpx:TrackPointExtension></extensions>
      </trkpt>
      <trkpt lat="59.221831" lon="17.6751">
        <ele>45.4</ele>
        <time>2020-03-26T13:36:46Z</time>
        <extensions><gpxtpx:TrackPointExtension><gpxtpx:hr>133</gpxtpx:hr></gpxtpx:TrackPointExtension></extensions>
      </trkpt>
      <trkpt lat="59.221875" lon="17.675252">
        <ele>45.4</ele>
        <time>2020-03-26T13:36:47Z</time>
        <extensions><gpxtpx:TrackPointExtension><gpxtpx:hr>134</gpxtpx:hr></gpxtpx:TrackPointExtension></extensions>
      </trkpt>
      <trkpt lat="59.221921" lon="17.675405">
        <ele>45.4</ele>
        <time>2020-03-26T13:36:48Z</time>
        <extensions><gpxtpx:TrackPointExtension><gpxtpx:hr>135</gpxtpx:hr></gpxtpx:TrackPointExtension></extensions>
      </trkpt>
      <trkpt lat="59.221966" lon="17.675556">
        <ele>45.2</ele>
        <time>2020-03-26T13:36:49Z</time>
        <extensions><gpxtpx:TrackPointExtension><gpxtpx:hr>135</gpxtpx:hr></gpxtpx:TrackPointExtension></extensions>
      </trkpt>
      <trkpt lat="59.222011" lon="17.675704">
        <ele>45</ele>
        <time>2020-03-26T13:36:50Z</time>
        <extensions><gpxtpx:TrackPointExtension><gpxtpx:hr>136</gpxtpx:hr></gpxtpx:TrackPointExtension></extensions>
      </trkpt>
      <trkpt lat="59.222057" lon="17.675851">
        <ele>44.8</ele>
        <time>2020-03-26T13:36:51Z</time>
        <extensions><gpxtpx:TrackPointExtension><gpxtpx:hr>136</gpxtpx:hr></gpxtpx:TrackPointExtension></extensions>
      </trkpt>
      <trkpt lat="59.222105" lon="17.675996">
        <ele>44.6</ele>
        <time>2020-03-26T13:36:52Z</time>
        <extensions><gpxtpx:TrackPointExtension><gpxtpx:hr>136</gpxtpx:hr></gpxtpx:TrackPointExtension></extensions>
      </trkpt>
      <trkpt lat="59.222155" lon="17.676136">
        <ele>44.6</ele>
        <time>2020-03-26T13:36:53Z</time>
        <extensions><gpxtpx:TrackPointExtension><gpxtpx:hr>136</gpxtpx:hr></gpxtpx:TrackPointExtension></extensions>
      </trkpt>
      <trkpt lat="59.222205" lon="17.676273">
        <ele>44.6</ele>
        <time>2020-03-26T13:36:54Z</time>
        <extensions><gpxtpx:TrackPointExtension><gpxtpx:hr>136</gpxtpx:hr></gpxtpx:TrackPointExtension></extensions>
      </trkpt>
      <trkpt lat="59.222259" lon="17.676402">
        <ele>44.8</ele>
        <time>2020-03-26T13:36:55Z</time>
        <extensions><gpxtpx:TrackPointExtension><gpxtpx:hr>136</gpxtpx:hr></gpxtpx:TrackPointExtension></extensions>
      </trkpt>
      <trkpt lat="59.222315" lon="17.676527">
        <ele>44.4</ele>
        <time>2020-03-26T13:36:56Z</time>
        <extensions><gpxtpx:TrackPointExtension><gpxtpx:hr>135</gpxtpx:hr></gpxtpx:TrackPointExtension></extensions>
      </trkpt>
      <trkpt lat="59.222375" lon="17.676644">
        <ele>44.4</ele>
        <time>2020-03-26T13:36:57Z</time>
        <extensions><gpxtpx:TrackPointExtension><gpxtpx:hr>135</gpxtpx:hr></gpxtpx:TrackPointExtension></extensions>
      </trkpt>
      <trkpt lat="59.22244" lon="17.676751">
        <ele>44</ele>
        <time>2020-03-26T13:36:58Z</time>
        <extensions><gpxtpx:TrackPointExtension><gpxtpx:hr>134</gpxtpx:hr></gpxtpx:TrackPointExtension></extensions>
      </trkpt>
      <trkpt lat="59.222508" lon="17.676855">
        <ele>43.6</ele>
        <time>2020-03-26T13:36:59Z</time>
        <extensions><gpxtpx:TrackPointExtension><gpxtpx:hr>134</gpxtpx:hr></gpxtpx:TrackPointExtension></extensions>
      </trkpt>
      <trkpt lat="59.222576" lon="17.676957">
        <ele>43.6</ele>
        <time>2020-03-26T13:37:00Z</time>
        <extensions><gpxtpx:TrackPointExtension><gpxtpx:hr>134</gpxtpx:hr></gpxtpx:TrackPointExtension></extensions>
      </trkpt>
      <trkpt lat="59.222644" lon="17.677054">
        <ele>43.6</ele>
        <time>2020-03-26T13:37:01Z</time>
        <extensions><gpxtpx:TrackPointExtension><gpxtpx:hr>134</gpxtpx:hr></gpxtpx:TrackPointExtension></extensions>
      </trkpt>
      <trkpt lat="59.222712" lon="17.677148">
        <ele>43</ele>
        <time>2020-03-26T13:37:02Z</time>
        <extensions><gpxtpx:TrackPointExtension><gpxtpx:hr>134</gpxtpx:hr></gpxtpx:TrackPointExtension></extensions>
      </trkpt>
      <trkpt lat="59.222777" lon="17.677246">
        <ele>42.8</ele>
        <time>2020-03-26T13:37:03Z</time>
        <extensions><gpxtpx:TrackPointExtension><gpxtpx:hr>134</gpxtpx:hr></gpxtpx:TrackPointExtension></extensions>
      </trkpt>
      <trkpt lat="59.222842" lon="17.677348">
        <ele>42.4</ele>
        <time>2020-03-26T13:37:04Z</time>
        <extensions><gpxtpx:TrackPointExtension><gpxtpx:hr>133</gpxtpx:hr></gpxtpx:TrackPointExtension></extensions>
      </trkpt>
      <trkpt lat="59.222907" lon="17.677449">
        <ele>42.2</ele>
        <time>2020-03-26T13:37:05Z</time>
        <extensions><gpxtpx:TrackPointExtension><gpxtpx:hr>133</gpxtpx:hr></gpxtpx:TrackPointExtension></extensions>
      </trkpt>
      <trkpt lat="59.222972" lon="17.677549">
        <ele>42.2</ele>
        <time>2020-03-26T13:37:06Z</time>
        <extensions><gpxtpx:TrackPointExtension><gpxtpx:hr>132</gpxtpx:hr></gpxtpx:TrackPointExtension></extensions>
      </trkpt>
      <trkpt lat="59.223038" lon="17.677645">
        <ele>41.6</ele>
        <time>2020-03-26T13:37:07Z</time>
        <extensions><gpxtpx:TrackPointExtension><gpxtpx:hr>132</gpxtpx:hr></gpxtpx:TrackPointExtension></extensions>
      </trkpt>
      <trkpt lat="59.223105" lon="17.677741">
        <ele>41.6</ele>
        <time>2020-03-26T13:37:08Z</time>
        <extensions><gpxtpx:TrackPointExtension><gpxtpx:hr>132</gpxtpx:hr></gpxtpx:TrackPointExtension></extensions>
      </trkpt>
      <trkpt lat="59.22317" lon="17.677838">
        <ele>41.6</ele>
        <time>2020-03-26T13:37:09Z</time>
        <extensions><gpxtpx:TrackPointExtension><gpxtpx:hr>133</gpxtpx:hr></gpxtpx:TrackPointExtension></extensions>
      </trkpt>
      <trkpt lat="59.223235" lon="17.677936">
        <ele>41.2</ele>
        <time>2020-03-26T13:37:10Z</time>
        <extensions><gpxtpx:TrackPointExtension><gpxtpx:hr>133</gpxtpx:hr></gpxtpx:TrackPointExtension></extensions>
      </trkpt>
      <trkpt lat="59.223301" lon="17.678035">
        <ele>41.2</ele>
        <time>2020-03-26T13:37:11Z</time>
        <extensions><gpxtpx:TrackPointExtension><gpxtpx:hr>134</gpxtpx:hr></gpxtpx:TrackPointExtension></extensions>
      </trkpt>
      <trkpt lat="59.223367" lon="17.678133">
        <ele>41</ele>
        <time>2020-03-26T13:37:12Z</time>
        <extensions><gpxtpx:TrackPointExtension><gpxtpx:hr>134</gpxtpx:hr></gpxtpx:TrackPointExtension></extensions>
      </trkpt>
      <trkpt lat="59.223433" lon="17.678231">
        <ele>41</ele>
        <time>2020-03-26T13:37:13Z</time>
        <extensions><gpxtpx:TrackPointExtension><gpxtpx:hr>134</gpxtpx:hr></gpxtpx:TrackPointExtension></extensions>
      </trkpt>
      <trkpt lat="59.223497" lon="17.678332">
        <ele>41</ele>
        <time>2020-03-26T13:37:14Z</time>
        <extensions><gpxtpx:TrackPointExtension><gpxtpx:hr>133</gpxtpx:hr></gpxtpx:TrackPointExtension></extensions>
      </trkpt>
      <trkpt lat="59.22356" lon="17.678435">
        <ele>40.6</ele>
        <time>2020-03-26T13:37:15Z</time>
        <extensions><gpxtpx:TrackPointExtension><gpxtpx:hr>133</gpxtpx:hr></gpxtpx:TrackPointExtension></extensions>
      </trkpt>
      <trkpt lat="59.223623" lon="17.678533">
        <ele>40.6</ele>
        <time>2020-03-26T13:37:16Z</time>
        <extensions><gpxtpx:TrackPointExtension><gpxtpx:hr>133</gpxtpx:hr></gpxtpx:TrackPointExtension></extensions>
      </trkpt>
      <trkpt lat="59.223686" lon="17.678634">
        <ele>40.6</ele>
        <time>2020-03-26T13:37:17Z</time>
        <extensions><gpxtpx:TrackPointExtension><gpxtpx:hr>133</gpxtpx:hr></gpxtpx:TrackPointExtension></extensions>
      </trkpt>
      <trkpt lat="59.223747" lon="17.678735">
        <ele>40.4</ele>
        <time>2020-03-26T13:37:18Z</time>
        <extensions><gpxtpx:TrackPointExtension><gpxtpx:hr>134</gpxtpx:hr></gpxtpx:TrackPointExtension></extensions>
      </trkpt>
      <trkpt lat="59.223808" lon="17.678838">
        <ele>40.4</ele>
        <time>2020-03-26T13:37:19Z</time>
        <extensions><gpxtpx:TrackPointExtension><gpxtpx:hr>135</gpxtpx:hr></gpxtpx:TrackPointExtension></extensions>
      </trkpt>
      <trkpt lat="59.223868" lon="17.67894">
        <ele>40.4</ele>
        <time>2020-03-26T13:37:20Z</time>
        <extensions><gpxtpx:TrackPointExtension><gpxtpx:hr>135</gpxtpx:hr></gpxtpx:TrackPointExtension></extensions>
      </trkpt>
      <trkpt lat="59.223932" lon="17.679039">
        <ele>40.4</ele>
        <time>2020-03-26T13:37:21Z</time>
        <extensions><gpxtpx:TrackPointExtension><gpxtpx:hr>136</gpxtpx:hr></gpxtpx:TrackPointExtension></extensions>
      </trkpt>
      <trkpt lat="59.223993" lon="17.679136">
        <ele>40.4</ele>
        <time>2020-03-26T13:37:22Z</time>
        <extensions><gpxtpx:TrackPointExtension><gpxtpx:hr>137</gpxtpx:hr></gpxtpx:TrackPointExtension></extensions>
      </trkpt>
      <trkpt lat="59.224054" lon="17.679234">
        <ele>40.2</ele>
        <time>2020-03-26T13:37:23Z</time>
        <extensions><gpxtpx:TrackPointExtension><gpxtpx:hr>138</gpxtpx:hr></gpxtpx:TrackPointExtension></extensions>
      </trkpt>
      <trkpt lat="59.224125" lon="17.679333">
        <ele>40.2</ele>
        <time>2020-03-26T13:37:24Z</time>
        <extensions><gpxtpx:TrackPointExtension><gpxtpx:hr>138</gpxtpx:hr></gpxtpx:TrackPointExtension></extensions>
      </trkpt>
      <trkpt lat="59.224191" lon="17.679426">
        <ele>40.4</ele>
        <time>2020-03-26T13:37:25Z</time>
        <extensions><gpxtpx:TrackPointExtension><gpxtpx:hr>138</gpxtpx:hr></gpxtpx:TrackPointExtension></extensions>
      </trkpt>
      <trkpt lat="59.224255" lon="17.679519">
        <ele>40.4</ele>
        <time>2020-03-26T13:37:26Z</time>
        <extensions><gpxtpx:TrackPointExtension><gpxtpx:hr>139</gpxtpx:hr></gpxtpx:TrackPointExtension></extensions>
      </trkpt>
      <trkpt lat="59.224318" lon="17.679614">
        <ele>40.4</ele>
        <time>2020-03-26T13:37:27Z</time>
        <extensions><gpxtpx:TrackPointExtension><gpxtpx:hr>139</gpxtpx:hr></gpxtpx:TrackPointExtension></extensions>
      </trkpt>
      <trkpt lat="59.22438" lon="17.679708">
        <ele>40.4</ele>
        <time>2020-03-26T13:37:28Z</time>
        <extensions><gpxtpx:TrackPointExtension><gpxtpx:hr>139</gpxtpx:hr></gpxtpx:TrackPointExtension></extensions>
      </trkpt>
      <trkpt lat="59.224442" lon="17.679798">
        <ele>40.4</ele>
        <time>2020-03-26T13:37:29Z</time>
        <extensions><gpxtpx:TrackPointExtension><gpxtpx:hr>139</gpxtpx:hr></gpxtpx:TrackPointExtension></extensions>
      </trkpt>
      <trkpt lat="59.224502" lon="17.679886">
        <ele>40.4</ele>
        <time>2020-03-26T13:37:30Z</time>
        <extensions><gpxtpx:TrackPointExtension><gpxtpx:hr>139</gpxtpx:hr></gpxtpx:TrackPointExtension></extensions>
      </trkpt>
      <trkpt lat="59.224564" lon="17.679973">
        <ele>40.4</ele>
        <time>2020-03-26T13:37:31Z</time>
        <extensions><gpxtpx:TrackPointExtension><gpxtpx:hr>140</gpxtpx:hr></gpxtpx:TrackPointExtension></extensions>
      </trkpt>
      <trkpt lat="59.224624" lon="17.68006">
        <ele>40.4</ele>
        <time>2020-03-26T13:37:32Z</time>
        <extensions><gpxtpx:TrackPointExtension><gpxtpx:hr>140</gpxtpx:hr></gpxtpx:TrackPointExtension></extensions>
      </trkpt>
      <trkpt lat="59.224683" lon="17.680145">
        <ele>40.4</ele>
        <time>2020-03-26T13:37:33Z</time>
        <extensions><gpxtpx:TrackPointExtension><gpxtpx:hr>140</gpxtpx:hr></gpxtpx:TrackPointExtension></extensions>
      </trkpt>
      <trkpt lat="59.22474" lon="17.68023">
        <ele>40.6</ele>
        <time>2020-03-26T13:37:34Z</time>
        <extensions><gpxtpx:TrackPointExtension><gpxtpx:hr>140</gpxtpx:hr></gpxtpx:TrackPointExtension></extensions>
      </trkpt>
      <trkpt lat="59.224795" lon="17.680315">
        <ele>41</ele>
        <time>2020-03-26T13:37:35Z</time>
        <extensions><gpxtpx:TrackPointExtension><gpxtpx:hr>141</gpxtpx:hr></gpxtpx:TrackPointExtension></extensions>
      </trkpt>
      <trkpt lat="59.22485" lon="17.680399">
        <ele>41</ele>
        <time>2020-03-26T13:37:36Z</time>
        <extensions><gpxtpx:TrackPointExtension><gpxtpx:hr>141</gpxtpx:hr></gpxtpx:TrackPointExtension></extensions>
      </trkpt>
      <trkpt lat="59.224901" lon="17.680483">
        <ele>41</ele>
        <time>2020-03-26T13:37:37Z</time>
        <extensions><gpxtpx:TrackPointExtension><gpxtpx:hr>141</gpxtpx:hr></gpxtpx:TrackPointExtension></extensions>
      </trkpt>
      <trkpt lat="59.224952" lon="17.680568">
        <ele>41</ele>
        <time>2020-03-26T13:37:38Z</time>
        <extensions><gpxtpx:TrackPointExtension><gpxtpx:hr>141</gpxtpx:hr></gpxtpx:TrackPointExtension></extensions>
      </trkpt>
      <trkpt lat="59.225001" lon="17.680657">
        <ele>41</ele>
        <time>2020-03-26T13:37:39Z</time>
        <extensions><gpxtpx:TrackPointExtension><gpxtpx:hr>142</gpxtpx:hr></gpxtpx:TrackPointExtension></extensions>
      </trkpt>
      <trkpt lat="59.225051" lon="17.680745">
        <ele>41</ele>
        <time>2020-03-26T13:37:40Z</time>
        <extensions><gpxtpx:TrackPointExtension><gpxtpx:hr>142</gpxtpx:hr></gpxtpx:TrackPointExtension></extensions>
      </trkpt>
      <trkpt lat="59.225101" lon="17.680826">
        <ele>41.2</ele>
        <time>2020-03-26T13:37:41Z</time>
        <extensions><gpxtpx:TrackPointExtension><gpxtpx:hr>142</gpxtpx:hr></gpxtpx:TrackPointExtension></extensions>
      </trkpt>
      <trkpt lat="59.225149" lon="17.680906">
        <ele>41.2</ele>
        <time>2020-03-26T13:37:42Z</time>
        <extensions><gpxtpx:TrackPointExtension><gpxtpx:hr>142</gpxtpx:hr></gpxtpx:TrackPointExtension></extensions>
      </trkpt>
      <trkpt lat="59.225201" lon="17.680987">
        <ele>41.6</ele>
        <time>2020-03-26T13:37:43Z</time>
        <extensions><gpxtpx:TrackPointExtension><gpxtpx:hr>143</gpxtpx:hr></gpxtpx:TrackPointExtension></extensions>
      </trkpt>
      <trkpt lat="59.225253" lon="17.681071">
        <ele>41.6</ele>
        <time>2020-03-26T13:37:44Z</time>
        <extensions><gpxtpx:TrackPointExtension><gpxtpx:hr>143</gpxtpx:hr></gpxtpx:TrackPointExtension></extensions>
      </trkpt>
      <trkpt lat="59.225307" lon="17.681158">
        <ele>41.8</ele>
        <time>2020-03-26T13:37:45Z</time>
        <extensions><gpxtpx:TrackPointExtension><gpxtpx:hr>143</gpxtpx:hr></gpxtpx:TrackPointExtension></extensions>
      </trkpt>
      <trkpt lat="59.225359" lon="17.681245">
        <ele>42.2</ele>
        <time>2020-03-26T13:37:46Z</time>
        <extensions><gpxtpx:TrackPointExtension><gpxtpx:hr>143</gpxtpx:hr></gpxtpx:TrackPointExtension></extensions>
      </trkpt>
      <trkpt lat="59.225414" lon="17.681332">
        <ele>42.2</ele>
        <time>2020-03-26T13:37:47Z</time>
        <extensions><gpxtpx:TrackPointExtension><gpxtpx:hr>144</gpxtpx:hr></gpxtpx:TrackPointExtension></extensions>
      </trkpt>
      <trkpt lat="59.225475" lon="17.681418">
        <ele>42.4</ele>
        <time>2020-03-26T13:37:48Z</time>
        <extensions><gpxtpx:TrackPointExtension><gpxtpx:hr>144</gpxtpx:hr></gpxtpx:TrackPointExtension></extensions>
      </trkpt>
      <trkpt lat="59.225529" lon="17.681502">
        <ele>42.8</ele>
        <time>2020-03-26T13:37:49Z</time>
        <extensions><gpxtpx:TrackPointExtension><gpxtpx:hr>144</gpxtpx:hr></gpxtpx:TrackPointExtension></extensions>
      </trkpt>
      <trkpt lat="59.225587" lon="17.681586">
        <ele>42.8</ele>
        <time>2020-03-26T13:37:50Z</time>
        <extensions><gpxtpx:TrackPointExtension><gpxtpx:hr>145</gpxtpx:hr></gpxtpx:TrackPointExtension></extensions>
      </trkpt>
      <trkpt lat="59.225642" lon="17.681672">
        <ele>42.8</ele>
        <time>2020-03-26T13:37:51Z</time>
        <extensions><gpxtpx:TrackPointExtension><gpxtpx:hr>145</gpxtpx:hr></gpxtpx:TrackPointExtension></extensions>
      </trkpt>
      <trkpt lat="59.2257" lon="17.681757">
        <ele>43</ele>
        <time>2020-03-26T13:37:52Z</time>
        <extensions><gpxtpx:TrackPointExtension><gpxtpx:hr>145</gpxtpx:hr></gpxtpx:TrackPointExtension></extensions>
      </trkpt>
      <trkpt lat="59.225757" lon="17.681841">
        <ele>43</ele>
        <time>2020-03-26T13:37:53Z</time>
        <extensions><gpxtpx:TrackPointExtension><gpxtpx:hr>145</gpxtpx:hr></gpxtpx:TrackPointExtension></extensions>
      </trkpt>
      <trkpt lat="59.225815" lon="17.681926">
        <ele>43</ele>
        <time>2020-03-26T13:37:54Z</time>
        <extensions><gpxtpx:TrackPointExtension><gpxtpx:hr>145</gpxtpx:hr></gpxtpx:TrackPointExtension></extensions>
      </trkpt>
      <trkpt lat="59.225872" lon="17.68201">
        <ele>43</ele>
        <time>2020-03-26T13:37:55Z</time>
        <extensions><gpxtpx:TrackPointExtension><gpxtpx:hr>145</gpxtpx:hr></gpxtpx:TrackPointExtension></extensions>
      </trkpt>
      <trkpt lat="59.225927" lon="17.682101">
        <ele>43.2</ele>
        <time>2020-03-26T13:37:56Z</time>
        <extensions><gpxtpx:TrackPointExtension><gpxtpx:hr>146</gpxtpx:hr></gpxtpx:TrackPointExtension></extensions>
      </trkpt>
      <trkpt lat="59.225982" lon="17.682192">
        <ele>43.2</ele>
        <time>2020-03-26T13:37:57Z</time>
        <extensions><gpxtpx:TrackPointExtension><gpxtpx:hr>146</gpxtpx:hr></gpxtpx:TrackPointExtension></extensions>
      </trkpt>
      <trkpt lat="59.226039" lon="17.682282">
        <ele>43.6</ele>
        <time>2020-03-26T13:37:58Z</time>
        <extensions><gpxtpx:TrackPointExtension><gpxtpx:hr>146</gpxtpx:hr></gpxtpx:TrackPointExtension></extensions>
      </trkpt>
      <trkpt lat="59.226094" lon="17.68237">
        <ele>43.6</ele>
        <time>2020-03-26T13:37:59Z</time>
        <extensions><gpxtpx:TrackPointExtension><gpxtpx:hr>146</gpxtpx:hr></gpxtpx:TrackPointExtension></extensions>
      </trkpt>
      <trkpt lat="59.226147" lon="17.682459">
        <ele>43.8</ele>
        <time>2020-03-26T13:38:00Z</time>
        <extensions><gpxtpx:TrackPointExtension><gpxtpx:hr>146</gpxtpx:hr></gpxtpx:TrackPointExtension></extensions>
      </trkpt>
      <trkpt lat="59.2262" lon="17.682547">
        <ele>44</ele>
        <time>2020-03-26T13:38:01Z</time>
        <extensions><gpxtpx:TrackPointExtension><gpxtpx:hr>146</gpxtpx:hr></gpxtpx:TrackPointExtension></extensions>
      </trkpt>
      <trkpt lat="59.226251" lon="17.682636">
        <ele>44</ele>
        <time>2020-03-26T13:38:02Z</time>
        <extensions><gpxtpx:TrackPointExtension><gpxtpx:hr>146</gpxtpx:hr></gpxtpx:TrackPointExtension></extensions>
      </trkpt>
      <trkpt lat="59.2263" lon="17.682724">
        <ele>44.2</ele>
        <time>2020-03-26T13:38:03Z</time>
        <extensions><gpxtpx:TrackPointExtension><gpxtpx:hr>146</gpxtpx:hr></gpxtpx:TrackPointExtension></extensions>
      </trkpt>
      <trkpt lat="59.226348" lon="17.682811">
        <ele>44.4</ele>
        <time>2020-03-26T13:38:04Z</time>
        <extensions><gpxtpx:TrackPointExtension><gpxtpx:hr>146</gpxtpx:hr></gpxtpx:TrackPointExtension></extensions>
      </trkpt>
      <trkpt lat="59.226393" lon="17.682899">
        <ele>44.4</ele>
        <time>2020-03-26T13:38:05Z</time>
        <extensions><gpxtpx:TrackPointExtension><gpxtpx:hr>146</gpxtpx:hr></gpxtpx:TrackPointExtension></extensions>
      </trkpt>
      <trkpt lat="59.226437" lon="17.682989">
        <ele>44.8</ele>
        <time>2020-03-26T13:38:06Z</time>
        <extensions><gpxtpx:TrackPointExtension><gpxtpx:hr>146</gpxtpx:hr></gpxtpx:TrackPointExtension></extensions>
      </trkpt>
      <trkpt lat="59.226484" lon="17.683075">
        <ele>44.8</ele>
        <time>2020-03-26T13:38:07Z</time>
        <extensions><gpxtpx:TrackPointExtension><gpxtpx:hr>146</gpxtpx:hr></gpxtpx:TrackPointExtension></extensions>
      </trkpt>
      <trkpt lat="59.226527" lon="17.683159">
        <ele>44.8</ele>
        <time>2020-03-26T13:38:08Z</time>
        <extensions><gpxtpx:TrackPointExtension><gpxtpx:hr>146</gpxtpx:hr></gpxtpx:TrackPointExtension></extensions>
      </trkpt>
      <trkpt lat="59.226566" lon="17.683243">
        <ele>44.8</ele>
        <time>2020-03-26T13:38:09Z</time>
        <extensions><gpxtpx:TrackPointExtension><gpxtpx:hr>146</gpxtpx:hr></gpxtpx:TrackPointExtension></extensions>
      </trkpt>
      <trkpt lat="59.226604" lon="17.683329">
        <ele>44.8</ele>
        <time>2020-03-26T13:38:10Z</time>
        <extensions><gpxtpx:TrackPointExtension><gpxtpx:hr>147</gpxtpx:hr></gpxtpx:TrackPointExtension></extensions>
      </trkpt>
      <trkpt lat="59.226644" lon="17.683419">
        <ele>44.8</ele>
        <time>2020-03-26T13:38:11Z</time>
        <extensions><gpxtpx:TrackPointExtension><gpxtpx:hr>147</gpxtpx:hr></gpxtpx:TrackPointExtension></extensions>
      </trkpt>
      <trkpt lat="59.226683" lon="17.683508">
        <ele>45</ele>
        <time>2020-03-26T13:38:12Z</time>
        <extensions><gpxtpx:TrackPointExtension><gpxtpx:hr>148</gpxtpx:hr></gpxtpx:TrackPointExtension></extensions>
      </trkpt>
      <trkpt lat="59.226722" lon="17.683594">
        <ele>45</ele>
        <time>2020-03-26T13:38:13Z</time>
        <extensions><gpxtpx:TrackPointExtension><gpxtpx:hr>148</gpxtpx:hr></gpxtpx:TrackPointExtension></extensions>
      </trkpt>
      <trkpt lat="59.226763" lon="17.68368">
        <ele>45.4</ele>
        <time>2020-03-26T13:38:14Z</time>
        <extensions><gpxtpx:TrackPointExtension><gpxtpx:hr>148</gpxtpx:hr></gpxtpx:TrackPointExtension></extensions>
      </trkpt>
      <trkpt lat="59.226803" lon="17.683765">
        <ele>45.4</ele>
        <time>2020-03-26T13:38:15Z</time>
        <extensions><gpxtpx:TrackPointExtension><gpxtpx:hr>148</gpxtpx:hr></gpxtpx:TrackPointExtension></extensions>
      </trkpt>
      <trkpt lat="59.226845" lon="17.683852">
        <ele>45.4</ele>
        <time>2020-03-26T13:38:16Z</time>
        <extensions><gpxtpx:TrackPointExtension><gpxtpx:hr>148</gpxtpx:hr></gpxtpx:TrackPointExtension></extensions>
      </trkpt>
      <trkpt lat="59.226887" lon="17.683937">
        <ele>45.4</ele>
        <time>2020-03-26T13:38:17Z</time>
        <extensions><gpxtpx:TrackPointExtension><gpxtpx:hr>149</gpxtpx:hr></gpxtpx:TrackPointExtension></extensions>
      </trkpt>
      <trkpt lat="59.226927" lon="17.684016">
        <ele>45.6</ele>
        <time>2020-03-26T13:38:18Z</time>
        <extensions><gpxtpx:TrackPointExtension><gpxtpx:hr>149</gpxtpx:hr></gpxtpx:TrackPointExtension></extensions>
      </trkpt>
      <trkpt lat="59.226971" lon="17.684096">
        <ele>46</ele>
        <time>2020-03-26T13:38:19Z</time>
        <extensions><gpxtpx:TrackPointExtension><gpxtpx:hr>149</gpxtpx:hr></gpxtpx:TrackPointExtension></extensions>
      </trkpt>
      <trkpt lat="59.227007" lon="17.684173">
        <ele>46.2</ele>
        <time>2020-03-26T13:38:20Z</time>
        <extensions><gpxtpx:TrackPointExtension><gpxtpx:hr>149</gpxtpx:hr></gpxtpx:TrackPointExtension></extensions>
      </trkpt>
      <trkpt lat="59.227041" lon="17.68425">
        <ele>46.4</ele>
        <time>2020-03-26T13:38:21Z</time>
        <extensions><gpxtpx:TrackPointExtension><gpxtpx:hr>149</gpxtpx:hr></gpxtpx:TrackPointExtension></extensions>
      </trkpt>
      <trkpt lat="59.227075" lon="17.684327">
        <ele>46.8</ele>
        <time>2020-03-26T13:38:22Z</time>
        <extensions><gpxtpx:TrackPointExtension><gpxtpx:hr>149</gpxtpx:hr></gpxtpx:TrackPointExtension></extensions>
      </trkpt>
      <trkpt lat="59.22711" lon="17.684401">
        <ele>46.8</ele>
        <time>2020-03-26T13:38:23Z</time>
        <extensions><gpxtpx:TrackPointExtension><gpxtpx:hr>149</gpxtpx:hr></gpxtpx:TrackPointExtension></extensions>
      </trkpt>
      <trkpt lat="59.227144" lon="17.684478">
        <ele>46.8</ele>
        <time>2020-03-26T13:38:24Z</time>
        <extensions><gpxtpx:TrackPointExtension><gpxtpx:hr>149</gpxtpx:hr></gpxtpx:TrackPointExtension></extensions>
      </trkpt>
      <trkpt lat="59.227179" lon="17.684551">
        <ele>47</ele>
        <time>2020-03-26T13:38:25Z</time>
        <extensions><gpxtpx:TrackPointExtension><gpxtpx:hr>149</gpxtpx:hr></gpxtpx:TrackPointExtension></extensions>
      </trkpt>
      <trkpt lat="59.227212" lon="17.684622">
        <ele>47.4</ele>
        <time>2020-03-26T13:38:26Z</time>
        <extensions><gpxtpx:TrackPointExtension><gpxtpx:hr>149</gpxtpx:hr></gpxtpx:TrackPointExtension></extensions>
      </trkpt>
      <trkpt lat="59.227246" lon="17.684695">
        <ele>47.6</ele>
        <time>2020-03-26T13:38:27Z</time>
        <extensions><gpxtpx:TrackPointExtension><gpxtpx:hr>149</gpxtpx:hr></gpxtpx:TrackPointExtension></extensions>
      </trkpt>
      <trkpt lat="59.227282" lon="17.68477">
        <ele>48</ele>
        <time>2020-03-26T13:38:28Z</time>
        <extensions><gpxtpx:TrackPointExtension><gpxtpx:hr>149</gpxtpx:hr></gpxtpx:TrackPointExtension></extensions>
      </trkpt>
      <trkpt lat="59.227317" lon="17.684844">
        <ele>48.2</ele>
        <time>2020-03-26T13:38:29Z</time>
        <extensions><gpxtpx:TrackPointExtension><gpxtpx:hr>150</gpxtpx:hr></gpxtpx:TrackPointExtension></extensions>
      </trkpt>
      <trkpt lat="59.22735" lon="17.684921">
        <ele>48.6</ele>
        <time>2020-03-26T13:38:30Z</time>
        <extensions><gpxtpx:TrackPointExtension><gpxtpx:hr>150</gpxtpx:hr></gpxtpx:TrackPointExtension></extensions>
      </trkpt>
      <trkpt lat="59.227384" lon="17.685">
        <ele>48.8</ele>
        <time>2020-03-26T13:38:31Z</time>
        <extensions><gpxtpx:TrackPointExtension><gpxtpx:hr>150</gpxtpx:hr></gpxtpx:TrackPointExtension></extensions>
      </trkpt>
      <trkpt lat="59.227418" lon="17.68508">
        <ele>49.2</ele>
        <time>2020-03-26T13:38:32Z</time>
        <extensions><gpxtpx:TrackPointExtension><gpxtpx:hr>150</gpxtpx:hr></gpxtpx:TrackPointExtension></extensions>
      </trkpt>
      <trkpt lat="59.227452" lon="17.685161">
        <ele>49.8</ele>
        <time>2020-03-26T13:38:33Z</time>
        <extensions><gpxtpx:TrackPointExtension><gpxtpx:hr>150</gpxtpx:hr></gpxtpx:TrackPointExtension></extensions>
      </trkpt>
      <trkpt lat="59.227486" lon="17.685241">
        <ele>50</ele>
        <time>2020-03-26T13:38:34Z</time>
        <extensions><gpxtpx:TrackPointExtension><gpxtpx:hr>150</gpxtpx:hr></gpxtpx:TrackPointExtension></extensions>
      </trkpt>
      <trkpt lat="59.227521" lon="17.685323">
        <ele>50.4</ele>
        <time>2020-03-26T13:38:35Z</time>
        <extensions><gpxtpx:TrackPointExtension><gpxtpx:hr>151</gpxtpx:hr></gpxtpx:TrackPointExtension></extensions>
      </trkpt>
      <trkpt lat="59.227556" lon="17.685402">
        <ele>50.8</ele>
        <time>2020-03-26T13:38:36Z</time>
        <extensions><gpxtpx:TrackPointExtension><gpxtpx:hr>151</gpxtpx:hr></gpxtpx:TrackPointExtension></extensions>
      </trkpt>
      <trkpt lat="59.22759" lon="17.685479">
        <ele>51.2</ele>
        <time>2020-03-26T13:38:37Z</time>
        <extensions><gpxtpx:TrackPointExtension><gpxtpx:hr>151</gpxtpx:hr></gpxtpx:TrackPointExtension></extensions>
      </trkpt>
      <trkpt lat="59.227624" lon="17.685554">
        <ele>51.2</ele>
        <time>2020-03-26T13:38:38Z</time>
        <extensions><gpxtpx:TrackPointExtension><gpxtpx:hr>151</gpxtpx:hr></gpxtpx:TrackPointExtension></extensions>
      </trkpt>
      <trkpt lat="59.227662" lon="17.685632">
        <ele>51.6</ele>
        <time>2020-03-26T13:38:39Z</time>
        <extensions><gpxtpx:TrackPointExtension><gpxtpx:hr>151</gpxtpx:hr></gpxtpx:TrackPointExtension></extensions>
      </trkpt>
      <trkpt lat="59.227699" lon="17.685711">
        <ele>52</ele>
        <time>2020-03-26T13:38:40Z</time>
        <extensions><gpxtpx:TrackPointExtension><gpxtpx:hr>152</gpxtpx:hr></gpxtpx:TrackPointExtension></extensions>
      </trkpt>
      <trkpt lat="59.227736" lon="17.685794">
        <ele>52.6</ele>
        <time>2020-03-26T13:38:41Z</time>
        <extensions><gpxtpx:TrackPointExtension><gpxtpx:hr>152</gpxtpx:hr></gpxtpx:TrackPointExtension></extensions>
      </trkpt>
      <trkpt lat="59.227772" lon="17.685876">
        <ele>52.6</ele>
        <time>2020-03-26T13:38:42Z</time>
        <extensions><gpxtpx:TrackPointExtension><gpxtpx:hr>152</gpxtpx:hr></gpxtpx:TrackPointExtension></extensions>
      </trkpt>
      <trkpt lat="59.227808" lon="17.685956">
        <ele>53</ele>
        <time>2020-03-26T13:38:43Z</time>
        <extensions><gpxtpx:TrackPointExtension><gpxtpx:hr>152</gpxtpx:hr></gpxtpx:TrackPointExtension></extensions>
      </trkpt>
      <trkpt lat="59.227844" lon="17.686034">
        <ele>53.2</ele>
        <time>2020-03-26T13:38:44Z</time>
        <extensions><gpxtpx:TrackPointExtension><gpxtpx:hr>152</gpxtpx:hr></gpxtpx:TrackPointExtension></extensions>
      </trkpt>
      <trkpt lat="59.22788" lon="17.686111">
        <ele>53.6</ele>
        <time>2020-03-26T13:38:45Z</time>
        <extensions><gpxtpx:TrackPointExtension><gpxtpx:hr>153</gpxtpx:hr></gpxtpx:TrackPointExtension></extensions>
      </trkpt>
      <trkpt lat="59.227915" lon="17.68619">
        <ele>54</ele>
        <time>2020-03-26T13:38:46Z</time>
        <extensions><gpxtpx:TrackPointExtension><gpxtpx:hr>153</gpxtpx:hr></gpxtpx:TrackPointExtension></extensions>
      </trkpt>
      <trkpt lat="59.227949" lon="17.68627">
        <ele>54.2</ele>
        <time>2020-03-26T13:38:47Z</time>
        <extensions><gpxtpx:TrackPointExtension><gpxtpx:hr>154</gpxtpx:hr></gpxtpx:TrackPointExtension></extensions>
      </trkpt>
      <trkpt lat="59.227983" lon="17.686349">
        <ele>54.6</ele>
        <time>2020-03-26T13:38:48Z</time>
        <extensions><gpxtpx:TrackPointExtension><gpxtpx:hr>154</gpxtpx:hr></gpxtpx:TrackPointExtension></extensions>
      </trkpt>
      <trkpt lat="59.228018" lon="17.686426">
        <ele>54.6</ele>
        <time>2020-03-26T13:38:49Z</time>
        <extensions><gpxtpx:TrackPointExtension><gpxtpx:hr>154</gpxtpx:hr></gpxtpx:TrackPointExtension></extensions>
      </trkpt>
      <trkpt lat="59.228053" lon="17.686504">
        <ele>54.8</ele>
        <time>2020-03-26T13:38:50Z</time>
        <extensions><gpxtpx:TrackPointExtension><gpxtpx:hr>155</gpxtpx:hr></gpxtpx:TrackPointExtension></extensions>
      </trkpt>
      <trkpt lat="59.228088" lon="17.686581">
        <ele>54.8</ele>
        <time>2020-03-26T13:38:51Z</time>
        <extensions><gpxtpx:TrackPointExtension><gpxtpx:hr>155</gpxtpx:hr></gpxtpx:TrackPointExtension></extensions>
      </trkpt>
      <trkpt lat="59.228122" lon="17.686659">
        <ele>54.8</ele>
        <time>2020-03-26T13:38:52Z</time>
        <extensions><gpxtpx:TrackPointExtension><gpxtpx:hr>155</gpxtpx:hr></gpxtpx:TrackPointExtension></extensions>
      </trkpt>
      <trkpt lat="59.228156" lon="17.686737">
        <ele>55</ele>
        <time>2020-03-26T13:38:53Z</time>
        <extensions><gpxtpx:TrackPointExtension><gpxtpx:hr>155</gpxtpx:hr></gpxtpx:TrackPointExtension></extensions>
      </trkpt>
      <trkpt lat="59.22819" lon="17.686814">
        <ele>55</ele>
        <time>2020-03-26T13:38:54Z</time>
        <extensions><gpxtpx:TrackPointExtension><gpxtpx:hr>155</gpxtpx:hr></gpxtpx:TrackPointExtension></extensions>
      </trkpt>
      <trkpt lat="59.228226" lon="17.686891">
        <ele>55.4</ele>
        <time>2020-03-26T13:38:55Z</time>
        <extensions><gpxtpx:TrackPointExtension><gpxtpx:hr>155</gpxtpx:hr></gpxtpx:TrackPointExtension></extensions>
      </trkpt>
      <trkpt lat="59.22826" lon="17.686967">
        <ele>55.4</ele>
        <time>2020-03-26T13:38:56Z</time>
        <extensions><gpxtpx:TrackPointExtension><gpxtpx:hr>154</gpxtpx:hr></gpxtpx:TrackPointExtension></extensions>
      </trkpt>
      <trkpt lat="59.228293" lon="17.687044">
        <ele>55.6</ele>
        <time>2020-03-26T13:38:57Z</time>
        <extensions><gpxtpx:TrackPointExtension><gpxtpx:hr>154</gpxtpx:hr></gpxtpx:TrackPointExtension></extensions>
      </trkpt>
      <trkpt lat="59.228326" lon="17.687121">
        <ele>55.8</ele>
        <time>2020-03-26T13:38:58Z</time>
        <extensions><gpxtpx:TrackPointExtension><gpxtpx:hr>154</gpxtpx:hr></gpxtpx:TrackPointExtension></extensions>
      </trkpt>
      <trkpt lat="59.228359" lon="17.687197">
        <ele>56</ele>
        <time>2020-03-26T13:38:59Z</time>
        <extensions><gpxtpx:TrackPointExtension><gpxtpx:hr>153</gpxtpx:hr></gpxtpx:TrackPointExtension></extensions>
      </trkpt>
      <trkpt lat="59.228393" lon="17.687273">
        <ele>56.2</ele>
        <time>2020-03-26T13:39:00Z</time>
        <extensions><gpxtpx:TrackPointExtension><gpxtpx:hr>153</gpxtpx:hr></gpxtpx:TrackPointExtension></extensions>
      </trkpt>
      <trkpt lat="59.228426" lon="17.687348">
        <ele>56.4</ele>
        <time>2020-03-26T13:39:01Z</time>
        <extensions><gpxtpx:TrackPointExtension><gpxtpx:hr>153</gpxtpx:hr></gpxtpx:TrackPointExtension></extensions>
      </trkpt>
      <trkpt lat="59.228461" lon="17.687423">
        <ele>56.6</ele>
        <time>2020-03-26T13:39:02Z</time>
        <extensions><gpxtpx:TrackPointExtension><gpxtpx:hr>153</gpxtpx:hr></gpxtpx:TrackPointExtension></extensions>
      </trkpt>
      <trkpt lat="59.228496" lon="17.687496">
        <ele>56.8</ele>
        <time>2020-03-26T13:39:03Z</time>
        <extensions><gpxtpx:TrackPointExtension><gpxtpx:hr>152</gpxtpx:hr></gpxtpx:TrackPointExtension></extensions>
      </trkpt>
      <trkpt lat="59.22853" lon="17.687572">
        <ele>57</ele>
        <time>2020-03-26T13:39:04Z</time>
        <extensions><gpxtpx:TrackPointExtension><gpxtpx:hr>152</gpxtpx:hr></gpxtpx:TrackPointExtension></extensions>
      </trkpt>
      <trkpt lat="59.228564" lon="17.687647">
        <ele>57.2</ele>
        <time>2020-03-26T13:39:05Z</time>
        <extensions><gpxtpx:TrackPointExtension><gpxtpx:hr>152</gpxtpx:hr></gpxtpx:TrackPointExtension></extensions>
      </trkpt>
      <trkpt lat="59.228598" lon="17.687722">
        <ele>57.2</ele>
        <time>2020-03-26T13:39:06Z</time>
        <extensions><gpxtpx:TrackPointExtension><gpxtpx:hr>152</gpxtpx:hr></gpxtpx:TrackPointExtension></extensions>
      </trkpt>
      <trkpt lat="59.228631" lon="17.687798">
        <ele>57.4</ele>
        <time>2020-03-26T13:39:07Z</time>
        <extensions><gpxtpx:TrackPointExtension><gpxtpx:hr>152</gpxtpx:hr></gpxtpx:TrackPointExtension></extensions>
      </trkpt>
      <trkpt lat="59.228665" lon="17.687874">
        <ele>57.4</ele>
        <time>2020-03-26T13:39:08Z</time>
        <extensions><gpxtpx:TrackPointExtension><gpxtpx:hr>151</gpxtpx:hr></gpxtpx:TrackPointExtension></extensions>
      </trkpt>
      <trkpt lat="59.2287" lon="17.687953">
        <ele>57.6</ele>
        <time>2020-03-26T13:39:09Z</time>
        <extensions><gpxtpx:TrackPointExtension><gpxtpx:hr>151</gpxtpx:hr></gpxtpx:TrackPointExtension></extensions>
      </trkpt>
      <trkpt lat="59.228734" lon="17.688032">
        <ele>57.8</ele>
        <time>2020-03-26T13:39:10Z</time>
        <extensions><gpxtpx:TrackPointExtension><gpxtpx:hr>151</gpxtpx:hr></gpxtpx:TrackPointExtension></extensions>
      </trkpt>
      <trkpt lat="59.228771" lon="17.688115">
        <ele>58</ele>
        <time>2020-03-26T13:39:11Z</time>
        <extensions><gpxtpx:TrackPointExtension><gpxtpx:hr>152</gpxtpx:hr></gpxtpx:TrackPointExtension></extensions>
      </trkpt>
      <trkpt lat="59.228812" lon="17.6882">
        <ele>58</ele>
        <time>2020-03-26T13:39:12Z</time>
        <extensions><gpxtpx:TrackPointExtension><gpxtpx:hr>151</gpxtpx:hr></gpxtpx:TrackPointExtension></extensions>
      </trkpt>
      <trkpt lat="59.228854" lon="17.688291">
        <ele>58.2</ele>
        <time>2020-03-26T13:39:13Z</time>
        <extensions><gpxtpx:TrackPointExtension><gpxtpx:hr>151</gpxtpx:hr></gpxtpx:TrackPointExtension></extensions>
      </trkpt>
      <trkpt lat="59.228896" lon="17.688387">
        <ele>58.4</ele>
        <time>2020-03-26T13:39:14Z</time>
        <extensions><gpxtpx:TrackPointExtension><gpxtpx:hr>151</gpxtpx:hr></gpxtpx:TrackPointExtension></extensions>
      </trkpt>
      <trkpt lat="59.22894" lon="17.688485">
        <ele>58.6</ele>
        <time>2020-03-26T13:39:15Z</time>
        <extensions><gpxtpx:TrackPointExtension><gpxtpx:hr>150</gpxtpx:hr></gpxtpx:TrackPointExtension></extensions>
      </trkpt>
      <trkpt lat="59.228986" lon="17.688588">
        <ele>58.8</ele>
        <time>2020-03-26T13:39:16Z</time>
        <extensions><gpxtpx:TrackPointExtension><gpxtpx:hr>150</gpxtpx:hr></gpxtpx:TrackPointExtension></extensions>
      </trkpt>
      <trkpt lat="59.229033" lon="17.688699">
        <ele>58.8</ele>
        <time>2020-03-26T13:39:17Z</time>
        <extensions><gpxtpx:TrackPointExtension><gpxtpx:hr>149</gpxtpx:hr></gpxtpx:TrackPointExtension></extensions>
      </trkpt>
      <trkpt lat="59.229082" lon="17.688817">
        <ele>58.8</ele>
        <time>2020-03-26T13:39:18Z</time>
        <extensions><gpxtpx:TrackPointExtension><gpxtpx:hr>149</gpxtpx:hr></gpxtpx:TrackPointExtension></extensions>
      </trkpt>
      <trkpt lat="59.229133" lon="17.688942">
        <ele>58.8</ele>
        <time>2020-03-26T13:39:19Z</time>
        <extensions><gpxtpx:TrackPointExtension><gpxtpx:hr>148</gpxtpx:hr></gpxtpx:TrackPointExtension></extensions>
      </trkpt>
      <trkpt lat="59.229186" lon="17.689073">
        <ele>58.8</ele>
        <time>2020-03-26T13:39:20Z</time>
        <extensions><gpxtpx:TrackPointExtension><gpxtpx:hr>148</gpxtpx:hr></gpxtpx:TrackPointExtension></extensions>
      </trkpt>
      <trkpt lat="59.229244" lon="17.689203">
        <ele>58.8</ele>
        <time>2020-03-26T13:39:21Z</time>
        <extensions><gpxtpx:TrackPointExtension><gpxtpx:hr>148</gpxtpx:hr></gpxtpx:TrackPointExtension></extensions>
      </trkpt>
      <trkpt lat="59.229304" lon="17.689337">
        <ele>58.8</ele>
        <time>2020-03-26T13:39:22Z</time>
        <extensions><gpxtpx:TrackPointExtension><gpxtpx:hr>148</gpxtpx:hr></gpxtpx:TrackPointExtension></extensions>
      </trkpt>
      <trkpt lat="59.229362" lon="17.689474">
        <ele>58.8</ele>
        <time>2020-03-26T13:39:23Z</time>
        <extensions><gpxtpx:TrackPointExtension><gpxtpx:hr>148</gpxtpx:hr></gpxtpx:TrackPointExtension></extensions>
      </trkpt>
      <trkpt lat="59.229423" lon="17.689611">
        <ele>58.8</ele>
        <time>2020-03-26T13:39:24Z</time>
        <extensions><gpxtpx:TrackPointExtension><gpxtpx:hr>147</gpxtpx:hr></gpxtpx:TrackPointExtension></extensions>
      </trkpt>
      <trkpt lat="59.229472" lon="17.689716">
        <ele>58.6</ele>
        <time>2020-03-26T13:39:25Z</time>
        <extensions><gpxtpx:TrackPointExtension><gpxtpx:hr>147</gpxtpx:hr></gpxtpx:TrackPointExtension></extensions>
      </trkpt>
      <trkpt lat="59.22952" lon="17.689821">
        <ele>58</ele>
        <time>2020-03-26T13:39:26Z</time>
        <extensions><gpxtpx:TrackPointExtension><gpxtpx:hr>146</gpxtpx:hr></gpxtpx:TrackPointExtension></extensions>
      </trkpt>
      <trkpt lat="59.229616" lon="17.690031">
        <ele>57.6</ele>
        <time>2020-03-26T13:39:27Z</time>
        <extensions><gpxtpx:TrackPointExtension><gpxtpx:hr>146</gpxtpx:hr></gpxtpx:TrackPointExtension></extensions>
      </trkpt>
      <trkpt lat="59.229677" lon="17.690173">
        <ele>57.2</ele>
        <time>2020-03-26T13:39:28Z</time>
        <extensions><gpxtpx:TrackPointExtension><gpxtpx:hr>144</gpxtpx:hr></gpxtpx:TrackPointExtension></extensions>
      </trkpt>
      <trkpt lat="59.229734" lon="17.690318">
        <ele>56.6</ele>
        <time>2020-03-26T13:39:29Z</time>
        <extensions><gpxtpx:TrackPointExtension><gpxtpx:hr>143</gpxtpx:hr></gpxtpx:TrackPointExtension></extensions>
      </trkpt>
      <trkpt lat="59.229791" lon="17.690466">
        <ele>56.2</ele>
        <time>2020-03-26T13:39:30Z</time>
        <extensions><gpxtpx:TrackPointExtension><gpxtpx:hr>142</gpxtpx:hr></gpxtpx:TrackPointExtension></extensions>
      </trkpt>
      <trkpt lat="59.229847" lon="17.690616">
        <ele>55.4</ele>
        <time>2020-03-26T13:39:31Z</time>
        <extensions><gpxtpx:TrackPointExtension><gpxtpx:hr>140</gpxtpx:hr></gpxtpx:TrackPointExtension></extensions>
      </trkpt>
      <trkpt lat="59.229903" lon="17.69077">
        <ele>54.6</ele>
        <time>2020-03-26T13:39:32Z</time>
        <extensions><gpxtpx:TrackPointExtension><gpxtpx:hr>137</gpxtpx:hr></gpxtpx:TrackPointExtension></extensions>
      </trkpt>
      <trkpt lat="59.229955" lon="17.690928">
        <ele>54</ele>
        <time>2020-03-26T13:39:33Z</time>
        <extensions><gpxtpx:TrackPointExtension><gpxtpx:hr>136</gpxtpx:hr></gpxtpx:TrackPointExtension></extensions>
      </trkpt>
      <trkpt lat="59.230006" lon="17.691088">
        <ele>53.4</ele>
        <time>2020-03-26T13:39:34Z</time>
        <extensions><gpxtpx:TrackPointExtension><gpxtpx:hr>136</gpxtpx:hr></gpxtpx:TrackPointExtension></extensions>
      </trkpt>
      <trkpt lat="59.230054" lon="17.691249">
        <ele>52.8</ele>
        <time>2020-03-26T13:39:35Z</time>
        <extensions><gpxtpx:TrackPointExtension><gpxtpx:hr>136</gpxtpx:hr></gpxtpx:TrackPointExtension></extensions>
      </trkpt>
      <trkpt lat="59.230101" lon="17.691409">
        <ele>52.4</ele>
        <time>2020-03-26T13:39:36Z</time>
        <extensions><gpxtpx:TrackPointExtension><gpxtpx:hr>136</gpxtpx:hr></gpxtpx:TrackPointExtension></extensions>
      </trkpt>
      <trkpt lat="59.230144" lon="17.691572">
        <ele>52.2</ele>
        <time>2020-03-26T13:39:37Z</time>
        <extensions><gpxtpx:TrackPointExtension><gpxtpx:hr>137</gpxtpx:hr></gpxtpx:TrackPointExtension></extensions>
      </trkpt>
      <trkpt lat="59.230185" lon="17.691735">
        <ele>52</ele>
        <time>2020-03-26T13:39:38Z</time>
        <extensions><gpxtpx:TrackPointExtension><gpxtpx:hr>137</gpxtpx:hr></gpxtpx:TrackPointExtension></extensions>
      </trkpt>
      <trkpt lat="59.230222" lon="17.6919">
        <ele>51.6</ele>
        <time>2020-03-26T13:39:39Z</time>
        <extensions><gpxtpx:TrackPointExtension><gpxtpx:hr>137</gpxtpx:hr></gpxtpx:TrackPointExtension></extensions>
      </trkpt>
      <trkpt lat="59.230258" lon="17.692066">
        <ele>51.2</ele>
        <time>2020-03-26T13:39:40Z</time>
        <extensions><gpxtpx:TrackPointExtension><gpxtpx:hr>137</gpxtpx:hr></gpxtpx:TrackPointExtension></extensions>
      </trkpt>
      <trkpt lat="59.23029" lon="17.692234">
        <ele>51</ele>
        <time>2020-03-26T13:39:41Z</time>
        <extensions><gpxtpx:TrackPointExtension><gpxtpx:hr>136</gpxtpx:hr></gpxtpx:TrackPointExtension></extensions>
      </trkpt>
      <trkpt lat="59.230321" lon="17.692404">
        <ele>50.6</ele>
        <time>2020-03-26T13:39:42Z</time>
        <extensions><gpxtpx:TrackPointExtension><gpxtpx:hr>136</gpxtpx:hr></gpxtpx:TrackPointExtension></extensions>
      </trkpt>
      <trkpt lat="59.230349" lon="17.692574">
        <ele>50.4</ele>
        <time>2020-03-26T13:39:43Z</time>
        <extensions><gpxtpx:TrackPointExtension><gpxtpx:hr>136</gpxtpx:hr></gpxtpx:TrackPointExtension></extensions>
      </trkpt>
      <trkpt lat="59.230378" lon="17.692744">
        <ele>50.4</ele>
        <time>2020-03-26T13:39:44Z</time>
        <extensions><gpxtpx:TrackPointExtension><gpxtpx:hr>135</gpxtpx:hr></gpxtpx:TrackPointExtension></extensions>
      </trkpt>
      <trkpt lat="59.230407" lon="17.692914">
        <ele>50.2</ele>
        <time>2020-03-26T13:39:45Z</time>
        <extensions><gpxtpx:TrackPointExtension><gpxtpx:hr>135</gpxtpx:hr></gpxtpx:TrackPointExtension></extensions>
      </trkpt>
      <trkpt lat="59.230433" lon="17.693084">
        <ele>50.2</ele>
        <time>2020-03-26T13:39:46Z</time>
        <extensions><gpxtpx:TrackPointExtension><gpxtpx:hr>135</gpxtpx:hr></gpxtpx:TrackPointExtension></extensions>
      </trkpt>
      <trkpt lat="59.230455" lon="17.693255">
        <ele>49.8</ele>
        <time>2020-03-26T13:39:47Z</time>
        <extensions><gpxtpx:TrackPointExtension><gpxtpx:hr>135</gpxtpx:hr></gpxtpx:TrackPointExtension></extensions>
      </trkpt>
      <trkpt lat="59.230478" lon="17.693428">
        <ele>49.6</ele>
        <time>2020-03-26T13:39:48Z</time>
        <extensions><gpxtpx:TrackPointExtension><gpxtpx:hr>135</gpxtpx:hr></gpxtpx:TrackPointExtension></extensions>
      </trkpt>
      <trkpt lat="59.230501" lon="17.693601">
        <ele>49.6</ele>
        <time>2020-03-26T13:39:49Z</time>
        <extensions><gpxtpx:TrackPointExtension><gpxtpx:hr>135</gpxtpx:hr></gpxtpx:TrackPointExtension></extensions>
      </trkpt>
      <trkpt lat="59.230524" lon="17.693776">
        <ele>49.6</ele>
        <time>2020-03-26T13:39:50Z</time>
        <extensions><gpxtpx:TrackPointExtension><gpxtpx:hr>135</gpxtpx:hr></gpxtpx:TrackPointExtension></extensions>
      </trkpt>
      <trkpt lat="59.230547" lon="17.693951">
        <ele>49.6</ele>
        <time>2020-03-26T13:39:51Z</time>
        <extensions><gpxtpx:TrackPointExtension><gpxtpx:hr>135</gpxtpx:hr></gpxtpx:TrackPointExtension></extensions>
      </trkpt>
      <trkpt lat="59.23057" lon="17.694127">
        <ele>49.4</ele>
        <time>2020-03-26T13:39:52Z</time>
        <extensions><gpxtpx:TrackPointExtension><gpxtpx:hr>135</gpxtpx:hr></gpxtpx:TrackPointExtension></extensions>
      </trkpt>
      <trkpt lat="59.230593" lon="17.694305">
        <ele>49.2</ele>
        <time>2020-03-26T13:39:53Z</time>
        <extensions><gpxtpx:TrackPointExtension><gpxtpx:hr>135</gpxtpx:hr></gpxtpx:TrackPointExtension></extensions>
      </trkpt>
      <trkpt lat="59.230617" lon="17.694484">
        <ele>49</ele>
        <time>2020-03-26T13:39:54Z</time>
        <extensions><gpxtpx:TrackPointExtension><gpxtpx:hr>134</gpxtpx:hr></gpxtpx:TrackPointExtension></extensions>
      </trkpt>
      <trkpt lat="59.230639" lon="17.694665">
        <ele>48.6</ele>
        <time>2020-03-26T13:39:55Z</time>
        <extensions><gpxtpx:TrackPointExtension><gpxtpx:hr>133</gpxtpx:hr></gpxtpx:TrackPointExtension></extensions>
      </trkpt>
      <trkpt lat="59.230661" lon="17.694851">
        <ele>48.4</ele>
        <time>2020-03-26T13:39:56Z</time>
        <extensions><gpxtpx:TrackPointExtension><gpxtpx:hr>132</gpxtpx:hr></gpxtpx:TrackPointExtension></extensions>
      </trkpt>
      <trkpt lat="59.230682" lon="17.695036">
        <ele>48.2</ele>
        <time>2020-03-26T13:39:57Z</time>
        <extensions><gpxtpx:TrackPointExtension><gpxtpx:hr>130</gpxtpx:hr></gpxtpx:TrackPointExtension></extensions>
      </trkpt>
      <trkpt lat="59.230704" lon="17.695222">
        <ele>48</ele>
        <time>2020-03-26T13:39:58Z</time>
        <extensions><gpxtpx:TrackPointExtension><gpxtpx:hr>128</gpxtpx:hr></gpxtpx:TrackPointExtension></extensions>
      </trkpt>
      <trkpt lat="59.230727" lon="17.695412">
        <ele>47.6</ele>
        <time>2020-03-26T13:39:59Z</time>
        <extensions><gpxtpx:TrackPointExtension><gpxtpx:hr>126</gpxtpx:hr></gpxtpx:TrackPointExtension></extensions>
      </trkpt>
      <trkpt lat="59.230749" lon="17.695603">
        <ele>47.2</ele>
        <time>2020-03-26T13:40:00Z</time>
        <extensions><gpxtpx:TrackPointExtension><gpxtpx:hr>125</gpxtpx:hr></gpxtpx:TrackPointExtension></extensions>
      </trkpt>
      <trkpt lat="59.23077" lon="17.695795">
        <ele>46.8</ele>
        <time>2020-03-26T13:40:01Z</time>
        <extensions><gpxtpx:TrackPointExtension><gpxtpx:hr>124</gpxtpx:hr></gpxtpx:TrackPointExtension></extensions>
      </trkpt>
      <trkpt lat="59.230791" lon="17.69599">
        <ele>46.4</ele>
        <time>2020-03-26T13:40:02Z</time>
        <extensions><gpxtpx:TrackPointExtension><gpxtpx:hr>123</gpxtpx:hr></gpxtpx:TrackPointExtension></extensions>
      </trkpt>
      <trkpt lat="59.230811" lon="17.696186">
        <ele>46</ele>
        <time>2020-03-26T13:40:03Z</time>
        <extensions><gpxtpx:TrackPointExtension><gpxtpx:hr>123</gpxtpx:hr></gpxtpx:TrackPointExtension></extensions>
      </trkpt>
      <trkpt lat="59.230829" lon="17.696384">
        <ele>45.6</ele>
        <time>2020-03-26T13:40:04Z</time>
        <extensions><gpxtpx:TrackPointExtension><gpxtpx:hr>122</gpxtpx:hr></gpxtpx:TrackPointExtension></extensions>
      </trkpt>
      <trkpt lat="59.230848" lon="17.696583">
        <ele>45.2</ele>
        <time>2020-03-26T13:40:05Z</time>
        <extensions><gpxtpx:TrackPointExtension><gpxtpx:hr>120</gpxtpx:hr></gpxtpx:TrackPointExtension></extensions>
      </trkpt>
      <trkpt lat="59.230867" lon="17.696781">
        <ele>44.6</ele>
        <time>2020-03-26T13:40:06Z</time>
        <extensions><gpxtpx:TrackPointExtension><gpxtpx:hr>119</gpxtpx:hr></gpxtpx:TrackPointExtension></extensions>
      </trkpt>
      <trkpt lat="59.230885" lon="17.69698">
        <ele>44</ele>
        <time>2020-03-26T13:40:07Z</time>
        <extensions><gpxtpx:TrackPointExtension><gpxtpx:hr>117</gpxtpx:hr></gpxtpx:TrackPointExtension></extensions>
      </trkpt>
      <trkpt lat="59.230908" lon="17.69718">
        <ele>43.2</ele>
        <time>2020-03-26T13:40:08Z</time>
        <extensions><gpxtpx:TrackPointExtension><gpxtpx:hr>115</gpxtpx:hr></gpxtpx:TrackPointExtension></extensions>
      </trkpt>
      <trkpt lat="59.230927" lon="17.69738">
        <ele>42.6</ele>
        <time>2020-03-26T13:40:09Z</time>
        <extensions><gpxtpx:TrackPointExtension><gpxtpx:hr>113</gpxtpx:hr></gpxtpx:TrackPointExtension></extensions>
      </trkpt>
      <trkpt lat="59.23095" lon="17.697579">
        <ele>42</ele>
        <time>2020-03-26T13:40:10Z</time>
        <extensions><gpxtpx:TrackPointExtension><gpxtpx:hr>112</gpxtpx:hr></gpxtpx:TrackPointExtension></extensions>
      </trkpt>
      <trkpt lat="59.230973" lon="17.697778">
        <ele>41.2</ele>
        <time>2020-03-26T13:40:11Z</time>
        <extensions><gpxtpx:TrackPointExtension><gpxtpx:hr>111</gpxtpx:hr></gpxtpx:TrackPointExtension></extensions>
      </trkpt>
      <trkpt lat="59.230994" lon="17.697979">
        <ele>40.4</ele>
        <time>2020-03-26T13:40:12Z</time>
        <extensions><gpxtpx:TrackPointExtension><gpxtpx:hr>110</gpxtpx:hr></gpxtpx:TrackPointExtension></extensions>
      </trkpt>
      <trkpt lat="59.231014" lon="17.69818">
        <ele>40</ele>
        <time>2020-03-26T13:40:13Z</time>
        <extensions><gpxtpx:TrackPointExtension><gpxtpx:hr>110</gpxtpx:hr></gpxtpx:TrackPointExtension></extensions>
      </trkpt>
      <trkpt lat="59.231034" lon="17.698383">
        <ele>39.4</ele>
        <time>2020-03-26T13:40:14Z</time>
        <extensions><gpxtpx:TrackPointExtension><gpxtpx:hr>110</gpxtpx:hr></gpxtpx:TrackPointExtension></extensions>
      </trkpt>
      <trkpt lat="59.231057" lon="17.698586">
        <ele>38.8</ele>
        <time>2020-03-26T13:40:15Z</time>
        <extensions><gpxtpx:TrackPointExtension><gpxtpx:hr>110</gpxtpx:hr></gpxtpx:TrackPointExtension></extensions>
      </trkpt>
      <trkpt lat="59.23108" lon="17.698788">
        <ele>37.4</ele>
        <time>2020-03-26T13:40:16Z</time>
        <extensions><gpxtpx:TrackPointExtension><gpxtpx:hr>110</gpxtpx:hr></gpxtpx:TrackPointExtension></extensions>
      </trkpt>
      <trkpt lat="59.231102" lon="17.698993">
        <ele>36.8</ele>
        <time>2020-03-26T13:40:17Z</time>
        <extensions><gpxtpx:TrackPointExtension><gpxtpx:hr>110</gpxtpx:hr></gpxtpx:TrackPointExtension></extensions>
      </trkpt>
      <trkpt lat="59.231123" lon="17.699197">
        <ele>36.2</ele>
        <time>2020-03-26T13:40:18Z</time>
        <extensions><gpxtpx:TrackPointExtension><gpxtpx:hr>108</gpxtpx:hr></gpxtpx:TrackPointExtension></extensions>
      </trkpt>
      <trkpt lat="59.231146" lon="17.699402">
        <ele>35.8</ele>
        <time>2020-03-26T13:40:19Z</time>
        <extensions><gpxtpx:TrackPointExtension><gpxtpx:hr>106</gpxtpx:hr></gpxtpx:TrackPointExtension></extensions>
      </trkpt>
      <trkpt lat="59.23117" lon="17.699608">
        <ele>35.2</ele>
        <time>2020-03-26T13:40:20Z</time>
        <extensions><gpxtpx:TrackPointExtension><gpxtpx:hr>105</gpxtpx:hr></gpxtpx:TrackPointExtension></extensions>
      </trkpt>
      <trkpt lat="59.231192" lon="17.699813">
        <ele>34.6</ele>
        <time>2020-03-26T13:40:21Z</time>
        <extensions><gpxtpx:TrackPointExtension><gpxtpx:hr>102</gpxtpx:hr></gpxtpx:TrackPointExtension></extensions>
      </trkpt>
      <trkpt lat="59.231214" lon="17.700018">
        <ele>34</ele>
        <time>2020-03-26T13:40:22Z</time>
        <extensions><gpxtpx:TrackPointExtension><gpxtpx:hr>101</gpxtpx:hr></gpxtpx:TrackPointExtension></extensions>
      </trkpt>
      <trkpt lat="59.231238" lon="17.700221">
        <ele>33.6</ele>
        <time>2020-03-26T13:40:23Z</time>
        <extensions><gpxtpx:TrackPointExtension><gpxtpx:hr>99</gpxtpx:hr></gpxtpx:TrackPointExtension></extensions>
      </trkpt>
      <trkpt lat="59.231261" lon="17.700422">
        <ele>33</ele>
        <time>2020-03-26T13:40:24Z</time>
        <extensions><gpxtpx:TrackPointExtension><gpxtpx:hr>98</gpxtpx:hr></gpxtpx:TrackPointExtension></extensions>
      </trkpt>
      <trkpt lat="59.231284" lon="17.700622">
        <ele>32</ele>
        <time>2020-03-26T13:40:25Z</time>
        <extensions><gpxtpx:TrackPointExtension><gpxtpx:hr>97</gpxtpx:hr></gpxtpx:TrackPointExtension></extensions>
      </trkpt>
      <trkpt lat="59.231308" lon="17.700819">
        <ele>31.2</ele>
        <time>2020-03-26T13:40:26Z</time>
        <extensions><gpxtpx:TrackPointExtension><gpxtpx:hr>96</gpxtpx:hr></gpxtpx:TrackPointExtension></extensions>
      </trkpt>
      <trkpt lat="59.231336" lon="17.701007">
        <ele>30.6</ele>
        <time>2020-03-26T13:40:27Z</time>
        <extensions><gpxtpx:TrackPointExtension><gpxtpx:hr>94</gpxtpx:hr></gpxtpx:TrackPointExtension></extensions>
      </trkpt>
      <trkpt lat="59.231369" lon="17.70119">
        <ele>30</ele>
        <time>2020-03-26T13:40:28Z</time>
        <extensions><gpxtpx:TrackPointExtension><gpxtpx:hr>93</gpxtpx:hr></gpxtpx:TrackPointExtension></extensions>
      </trkpt>
      <trkpt lat="59.231405" lon="17.701367">
        <ele>29.4</ele>
        <time>2020-03-26T13:40:29Z</time>
        <extensions><gpxtpx:TrackPointExtension><gpxtpx:hr>92</gpxtpx:hr></gpxtpx:TrackPointExtension></extensions>
      </trkpt>
      <trkpt lat="59.231445" lon="17.701539">
        <ele>28.8</ele>
        <time>2020-03-26T13:40:30Z</time>
        <extensions><gpxtpx:TrackPointExtension><gpxtpx:hr>92</gpxtpx:hr></gpxtpx:TrackPointExtension></extensions>
      </trkpt>
      <trkpt lat="59.231488" lon="17.701708">
        <ele>28.4</ele>
        <time>2020-03-26T13:40:31Z</time>
        <extensions><gpxtpx:TrackPointExtension><gpxtpx:hr>93</gpxtpx:hr></gpxtpx:TrackPointExtension></extensions>
      </trkpt>
      <trkpt lat="59.231532" lon="17.701867">
        <ele>28</ele>
        <time>2020-03-26T13:40:32Z</time>
        <extensions><gpxtpx:TrackPointExtension><gpxtpx:hr>95</gpxtpx:hr></gpxtpx:TrackPointExtension></extensions>
      </trkpt>
      <trkpt lat="59.231574" lon="17.702022">
        <ele>27.4</ele>
        <time>2020-03-26T13:40:33Z</time>
        <extensions><gpxtpx:TrackPointExtension><gpxtpx:hr>96</gpxtpx:hr></gpxtpx:TrackPointExtension></extensions>
      </trkpt>
      <trkpt lat="59.231613" lon="17.702172">
        <ele>26.8</ele>
        <time>2020-03-26T13:40:34Z</time>
        <extensions><gpxtpx:TrackPointExtension><gpxtpx:hr>98</gpxtpx:hr></gpxtpx:TrackPointExtension></extensions>
      </trkpt>
      <trkpt lat="59.231653" lon="17.702311">
        <ele>26.6</ele>
        <time>2020-03-26T13:40:35Z</time>
        <extensions><gpxtpx:TrackPointExtension><gpxtpx:hr>103</gpxtpx:hr></gpxtpx:TrackPointExtension></extensions>
      </trkpt>
      <trkpt lat="59.231692" lon="17.702443">
        <ele>26.4</ele>
        <time>2020-03-26T13:40:36Z</time>
        <extensions><gpxtpx:TrackPointExtension><gpxtpx:hr>108</gpxtpx:hr></gpxtpx:TrackPointExtension></extensions>
      </trkpt>
      <trkpt lat="59.23173" lon="17.70257">
        <ele>26.4</ele>
        <time>2020-03-26T13:40:37Z</time>
        <extensions><gpxtpx:TrackPointExtension><gpxtpx:hr>113</gpxtpx:hr></gpxtpx:TrackPointExtension></extensions>
      </trkpt>
      <trkpt lat="59.231768" lon="17.702697">
        <ele>26.2</ele>
        <time>2020-03-26T13:40:38Z</time>
        <extensions><gpxtpx:TrackPointExtension><gpxtpx:hr>117</gpxtpx:hr></gpxtpx:TrackPointExtension></extensions>
      </trkpt>
      <trkpt lat="59.231804" lon="17.702819">
        <ele>26.2</ele>
        <time>2020-03-26T13:40:39Z</time>
        <extensions><gpxtpx:TrackPointExtension><gpxtpx:hr>120</gpxtpx:hr></gpxtpx:TrackPointExtension></extensions>
      </trkpt>
      <trkpt lat="59.231839" lon="17.702938">
        <ele>26.2</ele>
        <time>2020-03-26T13:40:40Z</time>
        <extensions><gpxtpx:TrackPointExtension><gpxtpx:hr>121</gpxtpx:hr></gpxtpx:TrackPointExtension></extensions>
      </trkpt>
      <trkpt lat="59.231874" lon="17.703055">
        <ele>26.2</ele>
        <time>2020-03-26T13:40:41Z</time>
        <extensions><gpxtpx:TrackPointExtension><gpxtpx:hr>121</gpxtpx:hr></gpxtpx:TrackPointExtension></extensions>
      </trkpt>
      <trkpt lat="59.231908" lon="17.703168">
        <ele>26.2</ele>
        <time>2020-03-26T13:40:42Z</time>
        <extensions><gpxtpx:TrackPointExtension><gpxtpx:hr>122</gpxtpx:hr></gpxtpx:TrackPointExtension></extensions>
      </trkpt>
      <trkpt lat="59.231942" lon="17.703278">
        <ele>26.2</ele>
        <time>2020-03-26T13:40:43Z</time>
        <extensions><gpxtpx:TrackPointExtension><gpxtpx:hr>122</gpxtpx:hr></gpxtpx:TrackPointExtension></extensions>
      </trkpt>
      <trkpt lat="59.231975" lon="17.703386">
        <ele>26.4</ele>
        <time>2020-03-26T13:40:44Z</time>
        <extensions><gpxtpx:TrackPointExtension><gpxtpx:hr>124</gpxtpx:hr></gpxtpx:TrackPointExtension></extensions>
      </trkpt>
      <trkpt lat="59.232009" lon="17.703494">
        <ele>27</ele>
        <time>2020-03-26T13:40:45Z</time>
        <extensions><gpxtpx:TrackPointExtension><gpxtpx:hr>126</gpxtpx:hr></gpxtpx:TrackPointExtension></extensions>
      </trkpt>
      <trkpt lat="59.232042" lon="17.703605">
        <ele>27.4</ele>
        <time>2020-03-26T13:40:46Z</time>
        <extensions><gpxtpx:TrackPointExtension><gpxtpx:hr>127</gpxtpx:hr></gpxtpx:TrackPointExtension></extensions>
      </trkpt>
      <trkpt lat="59.232073" lon="17.703716">
        <ele>27.6</ele>
        <time>2020-03-26T13:40:47Z</time>
        <extensions><gpxtpx:TrackPointExtension><gpxtpx:hr>128</gpxtpx:hr></gpxtpx:TrackPointExtension></extensions>
      </trkpt>
      <trkpt lat="59.232103" lon="17.703827">
        <ele>27.8</ele>
        <time>2020-03-26T13:40:48Z</time>
        <extensions><gpxtpx:TrackPointExtension><gpxtpx:hr>129</gpxtpx:hr></gpxtpx:TrackPointExtension></extensions>
      </trkpt>
      <trkpt lat="59.232133" lon="17.703935">
        <ele>28</ele>
        <time>2020-03-26T13:40:49Z</time>
        <extensions><gpxtpx:TrackPointExtension><gpxtpx:hr>131</gpxtpx:hr></gpxtpx:TrackPointExtension></extensions>
      </trkpt>
      <trkpt lat="59.232163" lon="17.704042">
        <ele>28.2</ele>
        <time>2020-03-26T13:40:50Z</time>
        <extensions><gpxtpx:TrackPointExtension><gpxtpx:hr>131</gpxtpx:hr></gpxtpx:TrackPointExtension></extensions>
      </trkpt>
      <trkpt lat="59.232193" lon="17.704148">
        <ele>28.6</ele>
        <time>2020-03-26T13:40:51Z</time>
        <extensions><gpxtpx:TrackPointExtension><gpxtpx:hr>132</gpxtpx:hr></gpxtpx:TrackPointExtension></extensions>
      </trkpt>
      <trkpt lat="59.232223" lon="17.704255">
        <ele>28.8</ele>
        <time>2020-03-26T13:40:52Z</time>
        <extensions><gpxtpx:TrackPointExtension><gpxtpx:hr>133</gpxtpx:hr></gpxtpx:TrackPointExtension></extensions>
      </trkpt>
      <trkpt lat="59.232252" lon="17.704361">
        <ele>29.2</ele>
        <time>2020-03-26T13:40:53Z</time>
        <extensions><gpxtpx:TrackPointExtension><gpxtpx:hr>134</gpxtpx:hr></gpxtpx:TrackPointExtension></extensions>
      </trkpt>
      <trkpt lat="59.232278" lon="17.704466">
        <ele>29.4</ele>
        <time>2020-03-26T13:40:54Z</time>
        <extensions><gpxtpx:TrackPointExtension><gpxtpx:hr>135</gpxtpx:hr></gpxtpx:TrackPointExtension></extensions>
      </trkpt>
      <trkpt lat="59.232302" lon="17.704569">
        <ele>29.6</ele>
        <time>2020-03-26T13:40:55Z</time>
        <extensions><gpxtpx:TrackPointExtension><gpxtpx:hr>135</gpxtpx:hr></gpxtpx:TrackPointExtension></extensions>
      </trkpt>
      <trkpt lat="59.232326" lon="17.704672">
        <ele>29.8</ele>
        <time>2020-03-26T13:40:56Z</time>
        <extensions><gpxtpx:TrackPointExtension><gpxtpx:hr>136</gpxtpx:hr></gpxtpx:TrackPointExtension></extensions>
      </trkpt>
      <trkpt lat="59.232347" lon="17.704777">
        <ele>30</ele>
        <time>2020-03-26T13:40:57Z</time>
        <extensions><gpxtpx:TrackPointExtension><gpxtpx:hr>137</gpxtpx:hr></gpxtpx:TrackPointExtension></extensions>
      </trkpt>
      <trkpt lat="59.232366" lon="17.70488">
        <ele>30.4</ele>
        <time>2020-03-26T13:40:58Z</time>
        <extensions><gpxtpx:TrackPointExtension><gpxtpx:hr>138</gpxtpx:hr></gpxtpx:TrackPointExtension></extensions>
      </trkpt>
      <trkpt lat="59.232384" lon="17.704982">
        <ele>30.6</ele>
        <time>2020-03-26T13:40:59Z</time>
        <extensions><gpxtpx:TrackPointExtension><gpxtpx:hr>139</gpxtpx:hr></gpxtpx:TrackPointExtension></extensions>
      </trkpt>
      <trkpt lat="59.232399" lon="17.705082">
        <ele>30.8</ele>
        <time>2020-03-26T13:41:00Z</time>
        <extensions><gpxtpx:TrackPointExtension><gpxtpx:hr>140</gpxtpx:hr></gpxtpx:TrackPointExtension></extensions>
      </trkpt>
      <trkpt lat="59.232412" lon="17.705182">
        <ele>31.2</ele>
        <time>2020-03-26T13:41:01Z</time>
        <extensions><gpxtpx:TrackPointExtension><gpxtpx:hr>141</gpxtpx:hr></gpxtpx:TrackPointExtension></extensions>
      </trkpt>
      <trkpt lat="59.232423" lon="17.705283">
        <ele>31.4</ele>
        <time>2020-03-26T13:41:02Z</time>
        <extensions><gpxtpx:TrackPointExtension><gpxtpx:hr>142</gpxtpx:hr></gpxtpx:TrackPointExtension></extensions>
      </trkpt>
      <trkpt lat="59.232431" lon="17.705385">
        <ele>31.6</ele>
        <time>2020-03-26T13:41:03Z</time>
        <extensions><gpxtpx:TrackPointExtension><gpxtpx:hr>142</gpxtpx:hr></gpxtpx:TrackPointExtension></extensions>
      </trkpt>
      <trkpt lat="59.232438" lon="17.705486">
        <ele>31.6</ele>
        <time>2020-03-26T13:41:04Z</time>
        <extensions><gpxtpx:TrackPointExtension><gpxtpx:hr>143</gpxtpx:hr></gpxtpx:TrackPointExtension></extensions>
      </trkpt>
      <trkpt lat="59.232444" lon="17.705588">
        <ele>31.8</ele>
        <time>2020-03-26T13:41:05Z</time>
        <extensions><gpxtpx:TrackPointExtension><gpxtpx:hr>144</gpxtpx:hr></gpxtpx:TrackPointExtension></extensions>
      </trkpt>
      <trkpt lat="59.232447" lon="17.705689">
        <ele>31.8</ele>
        <time>2020-03-26T13:41:06Z</time>
        <extensions><gpxtpx:TrackPointExtension><gpxtpx:hr>145</gpxtpx:hr></gpxtpx:TrackPointExtension></extensions>
      </trkpt>
      <trkpt lat="59.232449" lon="17.705791">
        <ele>31.8</ele>
        <time>2020-03-26T13:41:07Z</time>
        <extensions><gpxtpx:TrackPointExtension><gpxtpx:hr>145</gpxtpx:hr></gpxtpx:TrackPointExtension></extensions>
      </trkpt>
      <trkpt lat="59.232451" lon="17.705893">
        <ele>32</ele>
        <time>2020-03-26T13:41:08Z</time>
        <extensions><gpxtpx:TrackPointExtension><gpxtpx:hr>145</gpxtpx:hr></gpxtpx:TrackPointExtension></extensions>
      </trkpt>
      <trkpt lat="59.232451" lon="17.705996">
        <ele>32</ele>
        <time>2020-03-26T13:41:09Z</time>
        <extensions><gpxtpx:TrackPointExtension><gpxtpx:hr>146</gpxtpx:hr></gpxtpx:TrackPointExtension></extensions>
      </trkpt>
      <trkpt lat="59.232451" lon="17.706099">
        <ele>32.4</ele>
        <time>2020-03-26T13:41:10Z</time>
        <extensions><gpxtpx:TrackPointExtension><gpxtpx:hr>146</gpxtpx:hr></gpxtpx:TrackPointExtension></extensions>
      </trkpt>
      <trkpt lat="59.232449" lon="17.706202">
        <ele>32.6</ele>
        <time>2020-03-26T13:41:11Z</time>
        <extensions><gpxtpx:TrackPointExtension><gpxtpx:hr>146</gpxtpx:hr></gpxtpx:TrackPointExtension></extensions>
      </trkpt>
      <trkpt lat="59.232446" lon="17.706305">
        <ele>32.8</ele>
        <time>2020-03-26T13:41:12Z</time>
        <extensions><gpxtpx:TrackPointExtension><gpxtpx:hr>147</gpxtpx:hr></gpxtpx:TrackPointExtension></extensions>
      </trkpt>
      <trkpt lat="59.232443" lon="17.70641">
        <ele>33</ele>
        <time>2020-03-26T13:41:13Z</time>
        <extensions><gpxtpx:TrackPointExtension><gpxtpx:hr>147</gpxtpx:hr></gpxtpx:TrackPointExtension></extensions>
      </trkpt>
      <trkpt lat="59.232437" lon="17.706516">
        <ele>33.4</ele>
        <time>2020-03-26T13:41:14Z</time>
        <extensions><gpxtpx:TrackPointExtension><gpxtpx:hr>148</gpxtpx:hr></gpxtpx:TrackPointExtension></extensions>
      </trkpt>
      <trkpt lat="59.232431" lon="17.706623">
        <ele>34</ele>
        <time>2020-03-26T13:41:15Z</time>
        <extensions><gpxtpx:TrackPointExtension><gpxtpx:hr>148</gpxtpx:hr></gpxtpx:TrackPointExtension></extensions>
      </trkpt>
      <trkpt lat="59.232423" lon="17.706732">
        <ele>34.2</ele>
        <time>2020-03-26T13:41:16Z</time>
        <extensions><gpxtpx:TrackPointExtension><gpxtpx:hr>149</gpxtpx:hr></gpxtpx:TrackPointExtension></extensions>
      </trkpt>
      <trkpt lat="59.232413" lon="17.706844">
        <ele>34.6</ele>
        <time>2020-03-26T13:41:17Z</time>
        <extensions><gpxtpx:TrackPointExtension><gpxtpx:hr>149</gpxtpx:hr></gpxtpx:TrackPointExtension></extensions>
      </trkpt>
      <trkpt lat="59.232403" lon="17.706958">
        <ele>34.8</ele>
        <time>2020-03-26T13:41:18Z</time>
        <extensions><gpxtpx:TrackPointExtension><gpxtpx:hr>149</gpxtpx:hr></gpxtpx:TrackPointExtension></extensions>
      </trkpt>
      <trkpt lat="59.232392" lon="17.707073">
        <ele>35</ele>
        <time>2020-03-26T13:41:19Z</time>
        <extensions><gpxtpx:TrackPointExtension><gpxtpx:hr>149</gpxtpx:hr></gpxtpx:TrackPointExtension></extensions>
      </trkpt>
      <trkpt lat="59.232379" lon="17.707188">
        <ele>35</ele>
        <time>2020-03-26T13:41:20Z</time>
        <extensions><gpxtpx:TrackPointExtension><gpxtpx:hr>149</gpxtpx:hr></gpxtpx:TrackPointExtension></extensions>
      </trkpt>
      <trkpt lat="59.232364" lon="17.707304">
        <ele>35</ele>
        <time>2020-03-26T13:41:21Z</time>
        <extensions><gpxtpx:TrackPointExtension><gpxtpx:hr>149</gpxtpx:hr></gpxtpx:TrackPointExtension></extensions>
      </trkpt>
      <trkpt lat="59.232347" lon="17.70742">
        <ele>35</ele>
        <time>2020-03-26T13:41:22Z</time>
        <extensions><gpxtpx:TrackPointExtension><gpxtpx:hr>149</gpxtpx:hr></gpxtpx:TrackPointExtension></extensions>
      </trkpt>
      <trkpt lat="59.232329" lon="17.707538">
        <ele>35</ele>
        <time>2020-03-26T13:41:23Z</time>
        <extensions><gpxtpx:TrackPointExtension><gpxtpx:hr>149</gpxtpx:hr></gpxtpx:TrackPointExtension></extensions>
      </trkpt>
      <trkpt lat="59.232308" lon="17.707657">
        <ele>35</ele>
        <time>2020-03-26T13:41:24Z</time>
        <extensions><gpxtpx:TrackPointExtension><gpxtpx:hr>148</gpxtpx:hr></gpxtpx:TrackPointExtension></extensions>
      </trkpt>
      <trkpt lat="59.232284" lon="17.707778">
        <ele>35</ele>
        <time>2020-03-26T13:41:25Z</time>
        <extensions><gpxtpx:TrackPointExtension><gpxtpx:hr>148</gpxtpx:hr></gpxtpx:TrackPointExtension></extensions>
      </trkpt>
      <trkpt lat="59.232258" lon="17.707898">
        <ele>35</ele>
        <time>2020-03-26T13:41:26Z</time>
        <extensions><gpxtpx:TrackPointExtension><gpxtpx:hr>148</gpxtpx:hr></gpxtpx:TrackPointExtension></extensions>
      </trkpt>
      <trkpt lat="59.23223" lon="17.708018">
        <ele>35</ele>
        <time>2020-03-26T13:41:27Z</time>
        <extensions><gpxtpx:TrackPointExtension><gpxtpx:hr>148</gpxtpx:hr></gpxtpx:TrackPointExtension></extensions>
      </trkpt>
      <trkpt lat="59.2322" lon="17.708136">
        <ele>35</ele>
        <time>2020-03-26T13:41:28Z</time>
        <extensions><gpxtpx:TrackPointExtension><gpxtpx:hr>148</gpxtpx:hr></gpxtpx:TrackPointExtension></extensions>
      </trkpt>
      <trkpt lat="59.232167" lon="17.708256">
        <ele>35</ele>
        <time>2020-03-26T13:41:29Z</time>
        <extensions><gpxtpx:TrackPointExtension><gpxtpx:hr>148</gpxtpx:hr></gpxtpx:TrackPointExtension></extensions>
      </trkpt>
      <trkpt lat="59.232134" lon="17.708375">
        <ele>35</ele>
        <time>2020-03-26T13:41:30Z</time>
        <extensions><gpxtpx:TrackPointExtension><gpxtpx:hr>148</gpxtpx:hr></gpxtpx:TrackPointExtension></extensions>
      </trkpt>
      <trkpt lat="59.2321" lon="17.708492">
        <ele>35</ele>
        <time>2020-03-26T13:41:31Z</time>
        <extensions><gpxtpx:TrackPointExtension><gpxtpx:hr>148</gpxtpx:hr></gpxtpx:TrackPointExtension></extensions>
      </trkpt>
      <trkpt lat="59.232066" lon="17.708608">
        <ele>35</ele>
        <time>2020-03-26T13:41:32Z</time>
        <extensions><gpxtpx:TrackPointExtension><gpxtpx:hr>149</gpxtpx:hr></gpxtpx:TrackPointExtension></extensions>
      </trkpt>
      <trkpt lat="59.232031" lon="17.708723">
        <ele>35</ele>
        <time>2020-03-26T13:41:33Z</time>
        <extensions><gpxtpx:TrackPointExtension><gpxtpx:hr>149</gpxtpx:hr></gpxtpx:TrackPointExtension></extensions>
      </trkpt>
      <trkpt lat="59.231996" lon="17.708838">
        <ele>34.6</ele>
        <time>2020-03-26T13:41:34Z</time>
        <extensions><gpxtpx:TrackPointExtension><gpxtpx:hr>148</gpxtpx:hr></gpxtpx:TrackPointExtension></extensions>
      </trkpt>
      <trkpt lat="59.231962" lon="17.708953">
        <ele>34.6</ele>
        <time>2020-03-26T13:41:35Z</time>
        <extensions><gpxtpx:TrackPointExtension><gpxtpx:hr>148</gpxtpx:hr></gpxtpx:TrackPointExtension></extensions>
      </trkpt>
      <trkpt lat="59.231928" lon="17.709068">
        <ele>34.6</ele>
        <time>2020-03-26T13:41:36Z</time>
        <extensions><gpxtpx:TrackPointExtension><gpxtpx:hr>148</gpxtpx:hr></gpxtpx:TrackPointExtension></extensions>
      </trkpt>
      <trkpt lat="59.231893" lon="17.709184">
        <ele>34.6</ele>
        <time>2020-03-26T13:41:37Z</time>
        <extensions><gpxtpx:TrackPointExtension><gpxtpx:hr>148</gpxtpx:hr></gpxtpx:TrackPointExtension></extensions>
      </trkpt>
      <trkpt lat="59.231857" lon="17.709301">
        <ele>34.6</ele>
        <time>2020-03-26T13:41:38Z</time>
        <extensions><gpxtpx:TrackPointExtension><gpxtpx:hr>147</gpxtpx:hr></gpxtpx:TrackPointExtension></extensions>
      </trkpt>
      <trkpt lat="59.231821" lon="17.709417">
        <ele>34.6</ele>
        <time>2020-03-26T13:41:39Z</time>
        <extensions><gpxtpx:TrackPointExtension><gpxtpx:hr>147</gpxtpx:hr></gpxtpx:TrackPointExtension></extensions>
      </trkpt>
      <trkpt lat="59.231784" lon="17.70953">
        <ele>34.6</ele>
        <time>2020-03-26T13:41:40Z</time>
        <extensions><gpxtpx:TrackPointExtension><gpxtpx:hr>147</gpxtpx:hr></gpxtpx:TrackPointExtension></extensions>
      </trkpt>
      <trkpt lat="59.231748" lon="17.709642">
        <ele>34.6</ele>
        <time>2020-03-26T13:41:41Z</time>
        <extensions><gpxtpx:TrackPointExtension><gpxtpx:hr>146</gpxtpx:hr></gpxtpx:TrackPointExtension></extensions>
      </trkpt>
      <trkpt lat="59.231712" lon="17.709751">
        <ele>34.6</ele>
        <time>2020-03-26T13:41:42Z</time>
        <extensions><gpxtpx:TrackPointExtension><gpxtpx:hr>146</gpxtpx:hr></gpxtpx:TrackPointExtension></extensions>
      </trkpt>
      <trkpt lat="59.231676" lon="17.709856">
        <ele>34.6</ele>
        <time>2020-03-26T13:41:43Z</time>
        <extensions><gpxtpx:TrackPointExtension><gpxtpx:hr>146</gpxtpx:hr></gpxtpx:TrackPointExtension></extensions>
      </trkpt>
      <trkpt lat="59.23164" lon="17.70996">
        <ele>34.6</ele>
        <time>2020-03-26T13:41:44Z</time>
        <extensions><gpxtpx:TrackPointExtension><gpxtpx:hr>145</gpxtpx:hr></gpxtpx:TrackPointExtension></extensions>
      </trkpt>
      <trkpt lat="59.231604" lon="17.710069">
        <ele>35</ele>
        <time>2020-03-26T13:41:45Z</time>
        <extensions><gpxtpx:TrackPointExtension><gpxtpx:hr>145</gpxtpx:hr></gpxtpx:TrackPointExtension></extensions>
      </trkpt>
      <trkpt lat="59.231567" lon="17.710179">
        <ele>35</ele>
        <time>2020-03-26T13:41:46Z</time>
        <extensions><gpxtpx:TrackPointExtension><gpxtpx:hr>145</gpxtpx:hr></gpxtpx:TrackPointExtension></extensions>
      </trkpt>
      <trkpt lat="59.231528" lon="17.71029">
        <ele>35.2</ele>
        <time>2020-03-26T13:41:47Z</time>
        <extensions><gpxtpx:TrackPointExtension><gpxtpx:hr>144</gpxtpx:hr></gpxtpx:TrackPointExtension></extensions>
      </trkpt>
      <trkpt lat="59.23149" lon="17.710405">
        <ele>35.4</ele>
        <time>2020-03-26T13:41:48Z</time>
        <extensions><gpxtpx:TrackPointExtension><gpxtpx:hr>144</gpxtpx:hr></gpxtpx:TrackPointExtension></extensions>
      </trkpt>
      <trkpt lat="59.231452" lon="17.710517">
        <ele>35.8</ele>
        <time>2020-03-26T13:41:49Z</time>
        <extensions><gpxtpx:TrackPointExtension><gpxtpx:hr>144</gpxtpx:hr></gpxtpx:TrackPointExtension></extensions>
      </trkpt>
      <trkpt lat="59.231415" lon="17.710628">
        <ele>35.8</ele>
        <time>2020-03-26T13:41:50Z</time>
        <extensions><gpxtpx:TrackPointExtension><gpxtpx:hr>144</gpxtpx:hr></gpxtpx:TrackPointExtension></extensions>
      </trkpt>
      <trkpt lat="59.231379" lon="17.710742">
        <ele>35.8</ele>
        <time>2020-03-26T13:41:51Z</time>
        <extensions><gpxtpx:TrackPointExtension><gpxtpx:hr>145</gpxtpx:hr></gpxtpx:TrackPointExtension></extensions>
      </trkpt>
      <trkpt lat="59.231342" lon="17.710857">
        <ele>35.8</ele>
        <time>2020-03-26T13:41:52Z</time>
        <extensions><gpxtpx:TrackPointExtension><gpxtpx:hr>145</gpxtpx:hr></gpxtpx:TrackPointExtension></extensions>
      </trkpt>
      <trkpt lat="59.231304" lon="17.710973">
        <ele>36</ele>
        <time>2020-03-26T13:41:53Z</time>
        <extensions><gpxtpx:TrackPointExtension><gpxtpx:hr>145</gpxtpx:hr></gpxtpx:TrackPointExtension></extensions>
      </trkpt>
      <trkpt lat="59.231266" lon="17.71109">
        <ele>36</ele>
        <time>2020-03-26T13:41:54Z</time>
        <extensions><gpxtpx:TrackPointExtension><gpxtpx:hr>146</gpxtpx:hr></gpxtpx:TrackPointExtension></extensions>
      </trkpt>
      <trkpt lat="59.231229" lon="17.71121">
        <ele>36</ele>
        <time>2020-03-26T13:41:55Z</time>
        <extensions><gpxtpx:TrackPointExtension><gpxtpx:hr>146</gpxtpx:hr></gpxtpx:TrackPointExtension></extensions>
      </trkpt>
      <trkpt lat="59.231193" lon="17.711333">
        <ele>36.4</ele>
        <time>2020-03-26T13:41:56Z</time>
        <extensions><gpxtpx:TrackPointExtension><gpxtpx:hr>147</gpxtpx:hr></gpxtpx:TrackPointExtension></extensions>
      </trkpt>
      <trkpt lat="59.231157" lon="17.711455">
        <ele>36.4</ele>
        <time>2020-03-26T13:41:57Z</time>
        <extensions><gpxtpx:TrackPointExtension><gpxtpx:hr>147</gpxtpx:hr></gpxtpx:TrackPointExtension></extensions>
      </trkpt>
      <trkpt lat="59.231122" lon="17.711575">
        <ele>36.6</ele>
        <time>2020-03-26T13:41:58Z</time>
        <extensions><gpxtpx:TrackPointExtension><gpxtpx:hr>147</gpxtpx:hr></gpxtpx:TrackPointExtension></extensions>
      </trkpt>
      <trkpt lat="59.231088" lon="17.711695">
        <ele>36.6</ele>
        <time>2020-03-26T13:41:59Z</time>
        <extensions><gpxtpx:TrackPointExtension><gpxtpx:hr>148</gpxtpx:hr></gpxtpx:TrackPointExtension></extensions>
      </trkpt>
      <trkpt lat="59.231054" lon="17.711822">
        <ele>36.6</ele>
        <time>2020-03-26T13:42:00Z</time>
        <extensions><gpxtpx:TrackPointExtension><gpxtpx:hr>148</gpxtpx:hr></gpxtpx:TrackPointExtension></extensions>
      </trkpt>
      <trkpt lat="59.231022" lon="17.711946">
        <ele>36.8</ele>
        <time>2020-03-26T13:42:01Z</time>
        <extensions><gpxtpx:TrackPointExtension><gpxtpx:hr>148</gpxtpx:hr></gpxtpx:TrackPointExtension></extensions>
      </trkpt>
      <trkpt lat="59.230991" lon="17.712068">
        <ele>36.8</ele>
        <time>2020-03-26T13:42:02Z</time>
        <extensions><gpxtpx:TrackPointExtension><gpxtpx:hr>148</gpxtpx:hr></gpxtpx:TrackPointExtension></extensions>
      </trkpt>
      <trkpt lat="59.23096" lon="17.712192">
        <ele>36.8</ele>
        <time>2020-03-26T13:42:03Z</time>
        <extensions><gpxtpx:TrackPointExtension><gpxtpx:hr>148</gpxtpx:hr></gpxtpx:TrackPointExtension></extensions>
      </trkpt>
      <trkpt lat="59.23093" lon="17.712312">
        <ele>36.8</ele>
        <time>2020-03-26T13:42:04Z</time>
        <extensions><gpxtpx:TrackPointExtension><gpxtpx:hr>148</gpxtpx:hr></gpxtpx:TrackPointExtension></extensions>
      </trkpt>
      <trkpt lat="59.230899" lon="17.712432">
        <ele>37</ele>
        <time>2020-03-26T13:42:05Z</time>
        <extensions><gpxtpx:TrackPointExtension><gpxtpx:hr>148</gpxtpx:hr></gpxtpx:TrackPointExtension></extensions>
      </trkpt>
      <trkpt lat="59.230869" lon="17.712552">
        <ele>37.2</ele>
        <time>2020-03-26T13:42:06Z</time>
        <extensions><gpxtpx:TrackPointExtension><gpxtpx:hr>148</gpxtpx:hr></gpxtpx:TrackPointExtension></extensions>
      </trkpt>
      <trkpt lat="59.230839" lon="17.712674">
        <ele>37.4</ele>
        <time>2020-03-26T13:42:07Z</time>
        <extensions><gpxtpx:TrackPointExtension><gpxtpx:hr>147</gpxtpx:hr></gpxtpx:TrackPointExtension></extensions>
      </trkpt>
      <trkpt lat="59.230808" lon="17.712796">
        <ele>37.4</ele>
        <time>2020-03-26T13:42:08Z</time>
        <extensions><gpxtpx:TrackPointExtension><gpxtpx:hr>147</gpxtpx:hr></gpxtpx:TrackPointExtension></extensions>
      </trkpt>
      <trkpt lat="59.230779" lon="17.712917">
        <ele>37.6</ele>
        <time>2020-03-26T13:42:09Z</time>
        <extensions><gpxtpx:TrackPointExtension><gpxtpx:hr>147</gpxtpx:hr></gpxtpx:TrackPointExtension></extensions>
      </trkpt>
      <trkpt lat="59.230751" lon="17.713039">
        <ele>37.8</ele>
        <time>2020-03-26T13:42:10Z</time>
        <extensions><gpxtpx:TrackPointExtension><gpxtpx:hr>147</gpxtpx:hr></gpxtpx:TrackPointExtension></extensions>
      </trkpt>
      <trkpt lat="59.230723" lon="17.713161">
        <ele>37.8</ele>
        <time>2020-03-26T13:42:11Z</time>
        <extensions><gpxtpx:TrackPointExtension><gpxtpx:hr>147</gpxtpx:hr></gpxtpx:TrackPointExtension></extensions>
      </trkpt>
      <trkpt lat="59.230695" lon="17.713286">
        <ele>37.8</ele>
        <time>2020-03-26T13:42:12Z</time>
        <extensions><gpxtpx:TrackPointExtension><gpxtpx:hr>147</gpxtpx:hr></gpxtpx:TrackPointExtension></extensions>
      </trkpt>
      <trkpt lat="59.230667" lon="17.71341">
        <ele>37.8</ele>
        <time>2020-03-26T13:42:13Z</time>
        <extensions><gpxtpx:TrackPointExtension><gpxtpx:hr>147</gpxtpx:hr></gpxtpx:TrackPointExtension></extensions>
      </trkpt>
      <trkpt lat="59.23064" lon="17.713535">
        <ele>37.8</ele>
        <time>2020-03-26T13:42:14Z</time>
        <extensions><gpxtpx:TrackPointExtension><gpxtpx:hr>147</gpxtpx:hr></gpxtpx:TrackPointExtension></extensions>
      </trkpt>
      <trkpt lat="59.230614" lon="17.71366">
        <ele>38</ele>
        <time>2020-03-26T13:42:15Z</time>
        <extensions><gpxtpx:TrackPointExtension><gpxtpx:hr>147</gpxtpx:hr></gpxtpx:TrackPointExtension></extensions>
      </trkpt>
      <trkpt lat="59.230589" lon="17.713786">
        <ele>38</ele>
        <time>2020-03-26T13:42:16Z</time>
        <extensions><gpxtpx:TrackPointExtension><gpxtpx:hr>147</gpxtpx:hr></gpxtpx:TrackPointExtension></extensions>
      </trkpt>
      <trkpt lat="59.230565" lon="17.71391">
        <ele>38</ele>
        <time>2020-03-26T13:42:17Z</time>
        <extensions><gpxtpx:TrackPointExtension><gpxtpx:hr>147</gpxtpx:hr></gpxtpx:TrackPointExtension></extensions>
      </trkpt>
      <trkpt lat="59.230541" lon="17.714034">
        <ele>38</ele>
        <time>2020-03-26T13:42:18Z</time>
        <extensions><gpxtpx:TrackPointExtension><gpxtpx:hr>147</gpxtpx:hr></gpxtpx:TrackPointExtension></extensions>
      </trkpt>
      <trkpt lat="59.23052" lon="17.714159">
        <ele>38</ele>
        <time>2020-03-26T13:42:19Z</time>
        <extensions><gpxtpx:TrackPointExtension><gpxtpx:hr>147</gpxtpx:hr></gpxtpx:TrackPointExtension></extensions>
      </trkpt>
      <trkpt lat="59.230502" lon="17.714289">
        <ele>38</ele>
        <time>2020-03-26T13:42:20Z</time>
        <extensions><gpxtpx:TrackPointExtension><gpxtpx:hr>148</gpxtpx:hr></gpxtpx:TrackPointExtension></extensions>
      </trkpt>
      <trkpt lat="59.23048" lon="17.714421">
        <ele>38</ele>
        <time>2020-03-26T13:42:21Z</time>
        <extensions><gpxtpx:TrackPointExtension><gpxtpx:hr>147</gpxtpx:hr></gpxtpx:TrackPointExtension></extensions>
      </trkpt>
      <trkpt lat="59.230455" lon="17.714553">
        <ele>38.2</ele>
        <time>2020-03-26T13:42:22Z</time>
        <extensions><gpxtpx:TrackPointExtension><gpxtpx:hr>147</gpxtpx:hr></gpxtpx:TrackPointExtension></extensions>
      </trkpt>
      <trkpt lat="59.23043" lon="17.714687">
        <ele>38.2</ele>
        <time>2020-03-26T13:42:23Z</time>
        <extensions><gpxtpx:TrackPointExtension><gpxtpx:hr>148</gpxtpx:hr></gpxtpx:TrackPointExtension></extensions>
      </trkpt>
      <trkpt lat="59.230406" lon="17.714823">
        <ele>38.2</ele>
        <time>2020-03-26T13:42:24Z</time>
        <extensions><gpxtpx:TrackPointExtension><gpxtpx:hr>148</gpxtpx:hr></gpxtpx:TrackPointExtension></extensions>
      </trkpt>
      <trkpt lat="59.230385" lon="17.714958">
        <ele>38.2</ele>
        <time>2020-03-26T13:42:25Z</time>
        <extensions><gpxtpx:TrackPointExtension><gpxtpx:hr>148</gpxtpx:hr></gpxtpx:TrackPointExtension></extensions>
      </trkpt>
      <trkpt lat="59.230368" lon="17.715094">
        <ele>38.2</ele>
        <time>2020-03-26T13:42:26Z</time>
        <extensions><gpxtpx:TrackPointExtension><gpxtpx:hr>148</gpxtpx:hr></gpxtpx:TrackPointExtension></extensions>
      </trkpt>
      <trkpt lat="59.230351" lon="17.715229">
        <ele>38.2</ele>
        <time>2020-03-26T13:42:27Z</time>
        <extensions><gpxtpx:TrackPointExtension><gpxtpx:hr>148</gpxtpx:hr></gpxtpx:TrackPointExtension></extensions>
      </trkpt>
      <trkpt lat="59.230332" lon="17.715364">
        <ele>38.2</ele>
        <time>2020-03-26T13:42:28Z</time>
        <extensions><gpxtpx:TrackPointExtension><gpxtpx:hr>148</gpxtpx:hr></gpxtpx:TrackPointExtension></extensions>
      </trkpt>
      <trkpt lat="59.230314" lon="17.715501">
        <ele>38.2</ele>
        <time>2020-03-26T13:42:29Z</time>
        <extensions><gpxtpx:TrackPointExtension><gpxtpx:hr>149</gpxtpx:hr></gpxtpx:TrackPointExtension></extensions>
      </trkpt>
      <trkpt lat="59.230297" lon="17.715641">
        <ele>38.2</ele>
        <time>2020-03-26T13:42:30Z</time>
        <extensions><gpxtpx:TrackPointExtension><gpxtpx:hr>149</gpxtpx:hr></gpxtpx:TrackPointExtension></extensions>
      </trkpt>
      <trkpt lat="59.23028" lon="17.715775">
        <ele>38.2</ele>
        <time>2020-03-26T13:42:31Z</time>
        <extensions><gpxtpx:TrackPointExtension><gpxtpx:hr>149</gpxtpx:hr></gpxtpx:TrackPointExtension></extensions>
      </trkpt>
      <trkpt lat="59.230264" lon="17.715909">
        <ele>38.2</ele>
        <time>2020-03-26T13:42:32Z</time>
        <extensions><gpxtpx:TrackPointExtension><gpxtpx:hr>150</gpxtpx:hr></gpxtpx:TrackPointExtension></extensions>
      </trkpt>
      <trkpt lat="59.23025" lon="17.716047">
        <ele>38.2</ele>
        <time>2020-03-26T13:42:33Z</time>
        <extensions><gpxtpx:TrackPointExtension><gpxtpx:hr>150</gpxtpx:hr></gpxtpx:TrackPointExtension></extensions>
      </trkpt>
      <trkpt lat="59.230234" lon="17.716186">
        <ele>38.2</ele>
        <time>2020-03-26T13:42:34Z</time>
        <extensions><gpxtpx:TrackPointExtension><gpxtpx:hr>150</gpxtpx:hr></gpxtpx:TrackPointExtension></extensions>
      </trkpt>
      <trkpt lat="59.230217" lon="17.716335">
        <ele>38.2</ele>
        <time>2020-03-26T13:42:35Z</time>
        <extensions><gpxtpx:TrackPointExtension><gpxtpx:hr>150</gpxtpx:hr></gpxtpx:TrackPointExtension></extensions>
      </trkpt>
      <trkpt lat="59.230198" lon="17.716474">
        <ele>38.2</ele>
        <time>2020-03-26T13:42:36Z</time>
        <extensions><gpxtpx:TrackPointExtension><gpxtpx:hr>150</gpxtpx:hr></gpxtpx:TrackPointExtension></extensions>
      </trkpt>
      <trkpt lat="59.230179" lon="17.716615">
        <ele>38.2</ele>
        <time>2020-03-26T13:42:37Z</time>
        <extensions><gpxtpx:TrackPointExtension><gpxtpx:hr>150</gpxtpx:hr></gpxtpx:TrackPointExtension></extensions>
      </trkpt>
      <trkpt lat="59.230161" lon="17.716753">
        <ele>38.4</ele>
        <time>2020-03-26T13:42:38Z</time>
        <extensions><gpxtpx:TrackPointExtension><gpxtpx:hr>151</gpxtpx:hr></gpxtpx:TrackPointExtension></extensions>
      </trkpt>
      <trkpt lat="59.230144" lon="17.716894">
        <ele>38.4</ele>
        <time>2020-03-26T13:42:39Z</time>
        <extensions><gpxtpx:TrackPointExtension><gpxtpx:hr>151</gpxtpx:hr></gpxtpx:TrackPointExtension></extensions>
      </trkpt>
      <trkpt lat="59.230127" lon="17.717033">
        <ele>38.4</ele>
        <time>2020-03-26T13:42:40Z</time>
        <extensions><gpxtpx:TrackPointExtension><gpxtpx:hr>150</gpxtpx:hr></gpxtpx:TrackPointExtension></extensions>
      </trkpt>
      <trkpt lat="59.230111" lon="17.717171">
        <ele>38.4</ele>
        <time>2020-03-26T13:42:41Z</time>
        <extensions><gpxtpx:TrackPointExtension><gpxtpx:hr>150</gpxtpx:hr></gpxtpx:TrackPointExtension></extensions>
      </trkpt>
      <trkpt lat="59.2301" lon="17.717271">
        <ele>38.4</ele>
        <time>2020-03-26T13:42:42Z</time>
        <extensions><gpxtpx:TrackPointExtension><gpxtpx:hr>150</gpxtpx:hr></gpxtpx:TrackPointExtension></extensions>
      </trkpt>
      <trkpt lat="59.230089" lon="17.71737">
        <ele>38.6</ele>
        <time>2020-03-26T13:42:43Z</time>
        <extensions><gpxtpx:TrackPointExtension><gpxtpx:hr>149</gpxtpx:hr></gpxtpx:TrackPointExtension></extensions>
      </trkpt>
      <trkpt lat="59.230067" lon="17.717568">
        <ele>38.6</ele>
        <time>2020-03-26T13:42:44Z</time>
        <extensions><gpxtpx:TrackPointExtension><gpxtpx:hr>149</gpxtpx:hr></gpxtpx:TrackPointExtension></extensions>
      </trkpt>
      <trkpt lat="59.230051" lon="17.717694">
        <ele>38.6</ele>
        <time>2020-03-26T13:42:45Z</time>
        <extensions><gpxtpx:TrackPointExtension><gpxtpx:hr>149</gpxtpx:hr></gpxtpx:TrackPointExtension></extensions>
      </trkpt>
      <trkpt lat="59.230034" lon="17.717819">
        <ele>38.6</ele>
        <time>2020-03-26T13:42:46Z</time>
        <extensions><gpxtpx:TrackPointExtension><gpxtpx:hr>149</gpxtpx:hr></gpxtpx:TrackPointExtension></extensions>
      </trkpt>
      <trkpt lat="59.230017" lon="17.717941">
        <ele>38.6</ele>
        <time>2020-03-26T13:42:47Z</time>
        <extensions><gpxtpx:TrackPointExtension><gpxtpx:hr>149</gpxtpx:hr></gpxtpx:TrackPointExtension></extensions>
      </trkpt>
      <trkpt lat="59.230001" lon="17.718064">
        <ele>38.6</ele>
        <time>2020-03-26T13:42:48Z</time>
        <extensions><gpxtpx:TrackPointExtension><gpxtpx:hr>149</gpxtpx:hr></gpxtpx:TrackPointExtension></extensions>
      </trkpt>
      <trkpt lat="59.229985" lon="17.718186">
        <ele>38.8</ele>
        <time>2020-03-26T13:42:49Z</time>
        <extensions><gpxtpx:TrackPointExtension><gpxtpx:hr>149</gpxtpx:hr></gpxtpx:TrackPointExtension></extensions>
      </trkpt>
      <trkpt lat="59.229968" lon="17.718307">
        <ele>38.8</ele>
        <time>2020-03-26T13:42:50Z</time>
        <extensions><gpxtpx:TrackPointExtension><gpxtpx:hr>149</gpxtpx:hr></gpxtpx:TrackPointExtension></extensions>
      </trkpt>
      <trkpt lat="59.22995" lon="17.718428">
        <ele>38.8</ele>
        <time>2020-03-26T13:42:51Z</time>
        <extensions><gpxtpx:TrackPointExtension><gpxtpx:hr>149</gpxtpx:hr></gpxtpx:TrackPointExtension></extensions>
      </trkpt>
      <trkpt lat="59.229932" lon="17.718547">
        <ele>38.8</ele>
        <time>2020-03-26T13:42:52Z</time>
        <extensions><gpxtpx:TrackPointExtension><gpxtpx:hr>149</gpxtpx:hr></gpxtpx:TrackPointExtension></extensions>
      </trkpt>
      <trkpt lat="59.229913" lon="17.718666">
        <ele>38.8</ele>
        <time>2020-03-26T13:42:53Z</time>
        <extensions><gpxtpx:TrackPointExtension><gpxtpx:hr>149</gpxtpx:hr></gpxtpx:TrackPointExtension></extensions>
      </trkpt>
      <trkpt lat="59.229892" lon="17.718783">
        <ele>39</ele>
        <time>2020-03-26T13:42:54Z</time>
        <extensions><gpxtpx:TrackPointExtension><gpxtpx:hr>149</gpxtpx:hr></gpxtpx:TrackPointExtension></extensions>
      </trkpt>
      <trkpt lat="59.229871" lon="17.7189">
        <ele>39.2</ele>
        <time>2020-03-26T13:42:55Z</time>
        <extensions><gpxtpx:TrackPointExtension><gpxtpx:hr>149</gpxtpx:hr></gpxtpx:TrackPointExtension></extensions>
      </trkpt>
      <trkpt lat="59.229848" lon="17.719015">
        <ele>39.4</ele>
        <time>2020-03-26T13:42:56Z</time>
        <extensions><gpxtpx:TrackPointExtension><gpxtpx:hr>149</gpxtpx:hr></gpxtpx:TrackPointExtension></extensions>
      </trkpt>
      <trkpt lat="59.229824" lon="17.719131">
        <ele>39.4</ele>
        <time>2020-03-26T13:42:57Z</time>
        <extensions><gpxtpx:TrackPointExtension><gpxtpx:hr>149</gpxtpx:hr></gpxtpx:TrackPointExtension></extensions>
      </trkpt>
      <trkpt lat="59.229799" lon="17.719247">
        <ele>39.6</ele>
        <time>2020-03-26T13:42:58Z</time>
        <extensions><gpxtpx:TrackPointExtension><gpxtpx:hr>150</gpxtpx:hr></gpxtpx:TrackPointExtension></extensions>
      </trkpt>
      <trkpt lat="59.229771" lon="17.719364">
        <ele>39.6</ele>
        <time>2020-03-26T13:42:59Z</time>
        <extensions><gpxtpx:TrackPointExtension><gpxtpx:hr>150</gpxtpx:hr></gpxtpx:TrackPointExtension></extensions>
      </trkpt>
      <trkpt lat="59.229741" lon="17.71948">
        <ele>39.8</ele>
        <time>2020-03-26T13:43:00Z</time>
        <extensions><gpxtpx:TrackPointExtension><gpxtpx:hr>150</gpxtpx:hr></gpxtpx:TrackPointExtension></extensions>
      </trkpt>
      <trkpt lat="59.229708" lon="17.719594">
        <ele>39.8</ele>
        <time>2020-03-26T13:43:01Z</time>
        <extensions><gpxtpx:TrackPointExtension><gpxtpx:hr>150</gpxtpx:hr></gpxtpx:TrackPointExtension></extensions>
      </trkpt>
      <trkpt lat="59.229674" lon="17.719708">
        <ele>39.8</ele>
        <time>2020-03-26T13:43:02Z</time>
        <extensions><gpxtpx:TrackPointExtension><gpxtpx:hr>150</gpxtpx:hr></gpxtpx:TrackPointExtension></extensions>
      </trkpt>
      <trkpt lat="59.22964" lon="17.71982">
        <ele>39.8</ele>
        <time>2020-03-26T13:43:03Z</time>
        <extensions><gpxtpx:TrackPointExtension><gpxtpx:hr>149</gpxtpx:hr></gpxtpx:TrackPointExtension></extensions>
      </trkpt>
      <trkpt lat="59.229604" lon="17.71993">
        <ele>40</ele>
        <time>2020-03-26T13:43:04Z</time>
        <extensions><gpxtpx:TrackPointExtension><gpxtpx:hr>149</gpxtpx:hr></gpxtpx:TrackPointExtension></extensions>
      </trkpt>
      <trkpt lat="59.229567" lon="17.720039">
        <ele>40</ele>
        <time>2020-03-26T13:43:05Z</time>
        <extensions><gpxtpx:TrackPointExtension><gpxtpx:hr>149</gpxtpx:hr></gpxtpx:TrackPointExtension></extensions>
      </trkpt>
      <trkpt lat="59.229528" lon="17.720147">
        <ele>40</ele>
        <time>2020-03-26T13:43:06Z</time>
        <extensions><gpxtpx:TrackPointExtension><gpxtpx:hr>149</gpxtpx:hr></gpxtpx:TrackPointExtension></extensions>
      </trkpt>
      <trkpt lat="59.229488" lon="17.720253">
        <ele>40</ele>
        <time>2020-03-26T13:43:07Z</time>
        <extensions><gpxtpx:TrackPointExtension><gpxtpx:hr>149</gpxtpx:hr></gpxtpx:TrackPointExtension></extensions>
      </trkpt>
      <trkpt lat="59.229448" lon="17.720357">
        <ele>40</ele>
        <time>2020-03-26T13:43:08Z</time>
        <extensions><gpxtpx:TrackPointExtension><gpxtpx:hr>149</gpxtpx:hr></gpxtpx:TrackPointExtension></extensions>
      </trkpt>
      <trkpt lat="59.229409" lon="17.720461">
        <ele>40</ele>
        <time>2020-03-26T13:43:09Z</time>
        <extensions><gpxtpx:TrackPointExtension><gpxtpx:hr>149</gpxtpx:hr></gpxtpx:TrackPointExtension></extensions>
      </trkpt>
      <trkpt lat="59.229369" lon="17.720563">
        <ele>40</ele>
        <time>2020-03-26T13:43:10Z</time>
        <extensions><gpxtpx:TrackPointExtension><gpxtpx:hr>149</gpxtpx:hr></gpxtpx:TrackPointExtension></extensions>
      </trkpt>
      <trkpt lat="59.229331" lon="17.720665">
        <ele>40</ele>
        <time>2020-03-26T13:43:11Z</time>
        <extensions><gpxtpx:TrackPointExtension><gpxtpx:hr>149</gpxtpx:hr></gpxtpx:TrackPointExtension></extensions>
      </trkpt>
      <trkpt lat="59.229292" lon="17.720767">
        <ele>40</ele>
        <time>2020-03-26T13:43:12Z</time>
        <extensions><gpxtpx:TrackPointExtension><gpxtpx:hr>149</gpxtpx:hr></gpxtpx:TrackPointExtension></extensions>
      </trkpt>
      <trkpt lat="59.229253" lon="17.720868">
        <ele>40</ele>
        <time>2020-03-26T13:43:13Z</time>
        <extensions><gpxtpx:TrackPointExtension><gpxtpx:hr>149</gpxtpx:hr></gpxtpx:TrackPointExtension></extensions>
      </trkpt>
      <trkpt lat="59.229214" lon="17.720969">
        <ele>40</ele>
        <time>2020-03-26T13:43:14Z</time>
        <extensions><gpxtpx:TrackPointExtension><gpxtpx:hr>148</gpxtpx:hr></gpxtpx:TrackPointExtension></extensions>
      </trkpt>
      <trkpt lat="59.229173" lon="17.721071">
        <ele>40</ele>
        <time>2020-03-26T13:43:15Z</time>
        <extensions><gpxtpx:TrackPointExtension><gpxtpx:hr>148</gpxtpx:hr></gpxtpx:TrackPointExtension></extensions>
      </trkpt>
      <trkpt lat="59.229132" lon="17.721177">
        <ele>40</ele>
        <time>2020-03-26T13:43:16Z</time>
        <extensions><gpxtpx:TrackPointExtension><gpxtpx:hr>147</gpxtpx:hr></gpxtpx:TrackPointExtension></extensions>
      </trkpt>
      <trkpt lat="59.22909" lon="17.721285">
        <ele>40</ele>
        <time>2020-03-26T13:43:17Z</time>
        <extensions><gpxtpx:TrackPointExtension><gpxtpx:hr>146</gpxtpx:hr></gpxtpx:TrackPointExtension></extensions>
      </trkpt>
      <trkpt lat="59.229046" lon="17.721394">
        <ele>40</ele>
        <time>2020-03-26T13:43:18Z</time>
        <extensions><gpxtpx:TrackPointExtension><gpxtpx:hr>146</gpxtpx:hr></gpxtpx:TrackPointExtension></extensions>
      </trkpt>
      <trkpt lat="59.229001" lon="17.721504">
        <ele>40</ele>
        <time>2020-03-26T13:43:19Z</time>
        <extensions><gpxtpx:TrackPointExtension><gpxtpx:hr>145</gpxtpx:hr></gpxtpx:TrackPointExtension></extensions>
      </trkpt>
      <trkpt lat="59.228956" lon="17.721616">
        <ele>40</ele>
        <time>2020-03-26T13:43:20Z</time>
        <extensions><gpxtpx:TrackPointExtension><gpxtpx:hr>145</gpxtpx:hr></gpxtpx:TrackPointExtension></extensions>
      </trkpt>
      <trkpt lat="59.228911" lon="17.72173">
        <ele>40</ele>
        <time>2020-03-26T13:43:21Z</time>
        <extensions><gpxtpx:TrackPointExtension><gpxtpx:hr>144</gpxtpx:hr></gpxtpx:TrackPointExtension></extensions>
      </trkpt>
      <trkpt lat="59.228865" lon="17.721844">
        <ele>40</ele>
        <time>2020-03-26T13:43:22Z</time>
        <extensions><gpxtpx:TrackPointExtension><gpxtpx:hr>144</gpxtpx:hr></gpxtpx:TrackPointExtension></extensions>
      </trkpt>
      <trkpt lat="59.228818" lon="17.721957">
        <ele>40</ele>
        <time>2020-03-26T13:43:23Z</time>
        <extensions><gpxtpx:TrackPointExtension><gpxtpx:hr>143</gpxtpx:hr></gpxtpx:TrackPointExtension></extensions>
      </trkpt>
      <trkpt lat="59.228771" lon="17.722072">
        <ele>39.8</ele>
        <time>2020-03-26T13:43:24Z</time>
        <extensions><gpxtpx:TrackPointExtension><gpxtpx:hr>142</gpxtpx:hr></gpxtpx:TrackPointExtension></extensions>
      </trkpt>
      <trkpt lat="59.228724" lon="17.722188">
        <ele>39.8</ele>
        <time>2020-03-26T13:43:25Z</time>
        <extensions><gpxtpx:TrackPointExtension><gpxtpx:hr>142</gpxtpx:hr></gpxtpx:TrackPointExtension></extensions>
      </trkpt>
      <trkpt lat="59.228678" lon="17.722303">
        <ele>39.6</ele>
        <time>2020-03-26T13:43:26Z</time>
        <extensions><gpxtpx:TrackPointExtension><gpxtpx:hr>141</gpxtpx:hr></gpxtpx:TrackPointExtension></extensions>
      </trkpt>
      <trkpt lat="59.228632" lon="17.722416">
        <ele>39.6</ele>
        <time>2020-03-26T13:43:27Z</time>
        <extensions><gpxtpx:TrackPointExtension><gpxtpx:hr>140</gpxtpx:hr></gpxtpx:TrackPointExtension></extensions>
      </trkpt>
      <trkpt lat="59.228587" lon="17.722527">
        <ele>39.6</ele>
        <time>2020-03-26T13:43:28Z</time>
        <extensions><gpxtpx:TrackPointExtension><gpxtpx:hr>140</gpxtpx:hr></gpxtpx:TrackPointExtension></extensions>
      </trkpt>
      <trkpt lat="59.228542" lon="17.722639">
        <ele>39.4</ele>
        <time>2020-03-26T13:43:29Z</time>
        <extensions><gpxtpx:TrackPointExtension><gpxtpx:hr>139</gpxtpx:hr></gpxtpx:TrackPointExtension></extensions>
      </trkpt>
      <trkpt lat="59.228498" lon="17.722752">
        <ele>39.2</ele>
        <time>2020-03-26T13:43:30Z</time>
        <extensions><gpxtpx:TrackPointExtension><gpxtpx:hr>138</gpxtpx:hr></gpxtpx:TrackPointExtension></extensions>
      </trkpt>
      <trkpt lat="59.228453" lon="17.722868">
        <ele>38.8</ele>
        <time>2020-03-26T13:43:31Z</time>
        <extensions><gpxtpx:TrackPointExtension><gpxtpx:hr>137</gpxtpx:hr></gpxtpx:TrackPointExtension></extensions>
      </trkpt>
      <trkpt lat="59.228408" lon="17.722986">
        <ele>38.6</ele>
        <time>2020-03-26T13:43:32Z</time>
        <extensions><gpxtpx:TrackPointExtension><gpxtpx:hr>136</gpxtpx:hr></gpxtpx:TrackPointExtension></extensions>
      </trkpt>
      <trkpt lat="59.228364" lon="17.723108">
        <ele>38.4</ele>
        <time>2020-03-26T13:43:33Z</time>
        <extensions><gpxtpx:TrackPointExtension><gpxtpx:hr>136</gpxtpx:hr></gpxtpx:TrackPointExtension></extensions>
      </trkpt>
      <trkpt lat="59.228321" lon="17.723236">
        <ele>38.4</ele>
        <time>2020-03-26T13:43:34Z</time>
        <extensions><gpxtpx:TrackPointExtension><gpxtpx:hr>136</gpxtpx:hr></gpxtpx:TrackPointExtension></extensions>
      </trkpt>
      <trkpt lat="59.228282" lon="17.723369">
        <ele>38.2</ele>
        <time>2020-03-26T13:43:35Z</time>
        <extensions><gpxtpx:TrackPointExtension><gpxtpx:hr>136</gpxtpx:hr></gpxtpx:TrackPointExtension></extensions>
      </trkpt>
      <trkpt lat="59.228246" lon="17.723506">
        <ele>38.2</ele>
        <time>2020-03-26T13:43:36Z</time>
        <extensions><gpxtpx:TrackPointExtension><gpxtpx:hr>138</gpxtpx:hr></gpxtpx:TrackPointExtension></extensions>
      </trkpt>
      <trkpt lat="59.22821" lon="17.723645">
        <ele>38.2</ele>
        <time>2020-03-26T13:43:37Z</time>
        <extensions><gpxtpx:TrackPointExtension><gpxtpx:hr>138</gpxtpx:hr></gpxtpx:TrackPointExtension></extensions>
      </trkpt>
      <trkpt lat="59.228174" lon="17.723787">
        <ele>38.2</ele>
        <time>2020-03-26T13:43:38Z</time>
        <extensions><gpxtpx:TrackPointExtension><gpxtpx:hr>138</gpxtpx:hr></gpxtpx:TrackPointExtension></extensions>
      </trkpt>
      <trkpt lat="59.228139" lon="17.723929">
        <ele>38</ele>
        <time>2020-03-26T13:43:39Z</time>
        <extensions><gpxtpx:TrackPointExtension><gpxtpx:hr>138</gpxtpx:hr></gpxtpx:TrackPointExtension></extensions>
      </trkpt>
      <trkpt lat="59.228105" lon="17.724074">
        <ele>38</ele>
        <time>2020-03-26T13:43:40Z</time>
        <extensions><gpxtpx:TrackPointExtension><gpxtpx:hr>138</gpxtpx:hr></gpxtpx:TrackPointExtension></extensions>
      </trkpt>
      <trkpt lat="59.22807" lon="17.724221">
        <ele>37.8</ele>
        <time>2020-03-26T13:43:41Z</time>
        <extensions><gpxtpx:TrackPointExtension><gpxtpx:hr>137</gpxtpx:hr></gpxtpx:TrackPointExtension></extensions>
      </trkpt>
      <trkpt lat="59.228034" lon="17.724375">
        <ele>37.6</ele>
        <time>2020-03-26T13:43:42Z</time>
        <extensions><gpxtpx:TrackPointExtension><gpxtpx:hr>136</gpxtpx:hr></gpxtpx:TrackPointExtension></extensions>
      </trkpt>
      <trkpt lat="59.228" lon="17.724533">
        <ele>37.4</ele>
        <time>2020-03-26T13:43:43Z</time>
        <extensions><gpxtpx:TrackPointExtension><gpxtpx:hr>135</gpxtpx:hr></gpxtpx:TrackPointExtension></extensions>
      </trkpt>
      <trkpt lat="59.227966" lon="17.724694">
        <ele>37.4</ele>
        <time>2020-03-26T13:43:44Z</time>
        <extensions><gpxtpx:TrackPointExtension><gpxtpx:hr>134</gpxtpx:hr></gpxtpx:TrackPointExtension></extensions>
      </trkpt>
      <trkpt lat="59.227932" lon="17.724856">
        <ele>37.2</ele>
        <time>2020-03-26T13:43:45Z</time>
        <extensions><gpxtpx:TrackPointExtension><gpxtpx:hr>134</gpxtpx:hr></gpxtpx:TrackPointExtension></extensions>
      </trkpt>
      <trkpt lat="59.227898" lon="17.72502">
        <ele>37</ele>
        <time>2020-03-26T13:43:46Z</time>
        <extensions><gpxtpx:TrackPointExtension><gpxtpx:hr>134</gpxtpx:hr></gpxtpx:TrackPointExtension></extensions>
      </trkpt>
      <trkpt lat="59.227865" lon="17.725189">
        <ele>36.8</ele>
        <time>2020-03-26T13:43:47Z</time>
        <extensions><gpxtpx:TrackPointExtension><gpxtpx:hr>133</gpxtpx:hr></gpxtpx:TrackPointExtension></extensions>
      </trkpt>
      <trkpt lat="59.227832" lon="17.725357">
        <ele>36.6</ele>
        <time>2020-03-26T13:43:48Z</time>
        <extensions><gpxtpx:TrackPointExtension><gpxtpx:hr>133</gpxtpx:hr></gpxtpx:TrackPointExtension></extensions>
      </trkpt>
      <trkpt lat="59.227797" lon="17.725524">
        <ele>36.4</ele>
        <time>2020-03-26T13:43:49Z</time>
        <extensions><gpxtpx:TrackPointExtension><gpxtpx:hr>132</gpxtpx:hr></gpxtpx:TrackPointExtension></extensions>
      </trkpt>
      <trkpt lat="59.227763" lon="17.725692">
        <ele>36.2</ele>
        <time>2020-03-26T13:43:50Z</time>
        <extensions><gpxtpx:TrackPointExtension><gpxtpx:hr>131</gpxtpx:hr></gpxtpx:TrackPointExtension></extensions>
      </trkpt>
      <trkpt lat="59.227729" lon="17.725862">
        <ele>35.8</ele>
        <time>2020-03-26T13:43:51Z</time>
        <extensions><gpxtpx:TrackPointExtension><gpxtpx:hr>129</gpxtpx:hr></gpxtpx:TrackPointExtension></extensions>
      </trkpt>
      <trkpt lat="59.227696" lon="17.726033">
        <ele>35.4</ele>
        <time>2020-03-26T13:43:52Z</time>
        <extensions><gpxtpx:TrackPointExtension><gpxtpx:hr>128</gpxtpx:hr></gpxtpx:TrackPointExtension></extensions>
      </trkpt>
      <trkpt lat="59.227662" lon="17.726204">
        <ele>35</ele>
        <time>2020-03-26T13:43:53Z</time>
        <extensions><gpxtpx:TrackPointExtension><gpxtpx:hr>127</gpxtpx:hr></gpxtpx:TrackPointExtension></extensions>
      </trkpt>
      <trkpt lat="59.227628" lon="17.726376">
        <ele>34.6</ele>
        <time>2020-03-26T13:43:54Z</time>
        <extensions><gpxtpx:TrackPointExtension><gpxtpx:hr>126</gpxtpx:hr></gpxtpx:TrackPointExtension></extensions>
      </trkpt>
      <trkpt lat="59.227593" lon="17.726548">
        <ele>34.2</ele>
        <time>2020-03-26T13:43:55Z</time>
        <extensions><gpxtpx:TrackPointExtension><gpxtpx:hr>124</gpxtpx:hr></gpxtpx:TrackPointExtension></extensions>
      </trkpt>
      <trkpt lat="59.227557" lon="17.726719">
        <ele>33.8</ele>
        <time>2020-03-26T13:43:56Z</time>
        <extensions><gpxtpx:TrackPointExtension><gpxtpx:hr>124</gpxtpx:hr></gpxtpx:TrackPointExtension></extensions>
      </trkpt>
      <trkpt lat="59.227521" lon="17.726888">
        <ele>33.4</ele>
        <time>2020-03-26T13:43:57Z</time>
        <extensions><gpxtpx:TrackPointExtension><gpxtpx:hr>122</gpxtpx:hr></gpxtpx:TrackPointExtension></extensions>
      </trkpt>
      <trkpt lat="59.227484" lon="17.727055">
        <ele>33</ele>
        <time>2020-03-26T13:43:58Z</time>
        <extensions><gpxtpx:TrackPointExtension><gpxtpx:hr>119</gpxtpx:hr></gpxtpx:TrackPointExtension></extensions>
      </trkpt>
      <trkpt lat="59.227448" lon="17.72722">
        <ele>32.8</ele>
        <time>2020-03-26T13:43:59Z</time>
        <extensions><gpxtpx:TrackPointExtension><gpxtpx:hr>116</gpxtpx:hr></gpxtpx:TrackPointExtension></extensions>
      </trkpt>
      <trkpt lat="59.227412" lon="17.727382">
        <ele>32.6</ele>
        <time>2020-03-26T13:44:00Z</time>
        <extensions><gpxtpx:TrackPointExtension><gpxtpx:hr>113</gpxtpx:hr></gpxtpx:TrackPointExtension></extensions>
      </trkpt>
      <trkpt lat="59.227376" lon="17.727542">
        <ele>32.2</ele>
        <time>2020-03-26T13:44:01Z</time>
        <extensions><gpxtpx:TrackPointExtension><gpxtpx:hr>112</gpxtpx:hr></gpxtpx:TrackPointExtension></extensions>
      </trkpt>
      <trkpt lat="59.227338" lon="17.727701">
        <ele>31.8</ele>
        <time>2020-03-26T13:44:02Z</time>
        <extensions><gpxtpx:TrackPointExtension><gpxtpx:hr>110</gpxtpx:hr></gpxtpx:TrackPointExtension></extensions>
      </trkpt>
      <trkpt lat="59.227302" lon="17.727857">
        <ele>31.4</ele>
        <time>2020-03-26T13:44:03Z</time>
        <extensions><gpxtpx:TrackPointExtension><gpxtpx:hr>109</gpxtpx:hr></gpxtpx:TrackPointExtension></extensions>
      </trkpt>
      <trkpt lat="59.227266" lon="17.728013">
        <ele>31</ele>
        <time>2020-03-26T13:44:04Z</time>
        <extensions><gpxtpx:TrackPointExtension><gpxtpx:hr>109</gpxtpx:hr></gpxtpx:TrackPointExtension></extensions>
      </trkpt>
      <trkpt lat="59.227229" lon="17.728167">
        <ele>30.2</ele>
        <time>2020-03-26T13:44:05Z</time>
        <extensions><gpxtpx:TrackPointExtension><gpxtpx:hr>110</gpxtpx:hr></gpxtpx:TrackPointExtension></extensions>
      </trkpt>
      <trkpt lat="59.227193" lon="17.728321">
        <ele>29.6</ele>
        <time>2020-03-26T13:44:06Z</time>
        <extensions><gpxtpx:TrackPointExtension><gpxtpx:hr>112</gpxtpx:hr></gpxtpx:TrackPointExtension></extensions>
      </trkpt>
      <trkpt lat="59.227157" lon="17.728473">
        <ele>29.2</ele>
        <time>2020-03-26T13:44:07Z</time>
        <extensions><gpxtpx:TrackPointExtension><gpxtpx:hr>114</gpxtpx:hr></gpxtpx:TrackPointExtension></extensions>
      </trkpt>
      <trkpt lat="59.227121" lon="17.728624">
        <ele>28.8</ele>
        <time>2020-03-26T13:44:08Z</time>
        <extensions><gpxtpx:TrackPointExtension><gpxtpx:hr>116</gpxtpx:hr></gpxtpx:TrackPointExtension></extensions>
      </trkpt>
      <trkpt lat="59.227087" lon="17.728776">
        <ele>28.2</ele>
        <time>2020-03-26T13:44:09Z</time>
        <extensions><gpxtpx:TrackPointExtension><gpxtpx:hr>118</gpxtpx:hr></gpxtpx:TrackPointExtension></extensions>
      </trkpt>
      <trkpt lat="59.227053" lon="17.728928">
        <ele>28</ele>
        <time>2020-03-26T13:44:10Z</time>
        <extensions><gpxtpx:TrackPointExtension><gpxtpx:hr>119</gpxtpx:hr></gpxtpx:TrackPointExtension></extensions>
      </trkpt>
      <trkpt lat="59.227017" lon="17.729078">
        <ele>28</ele>
        <time>2020-03-26T13:44:11Z</time>
        <extensions><gpxtpx:TrackPointExtension><gpxtpx:hr>119</gpxtpx:hr></gpxtpx:TrackPointExtension></extensions>
      </trkpt>
      <trkpt lat="59.226982" lon="17.729224">
        <ele>27.8</ele>
        <time>2020-03-26T13:44:12Z</time>
        <extensions><gpxtpx:TrackPointExtension><gpxtpx:hr>119</gpxtpx:hr></gpxtpx:TrackPointExtension></extensions>
      </trkpt>
      <trkpt lat="59.226947" lon="17.729369">
        <ele>27.8</ele>
        <time>2020-03-26T13:44:13Z</time>
        <extensions><gpxtpx:TrackPointExtension><gpxtpx:hr>120</gpxtpx:hr></gpxtpx:TrackPointExtension></extensions>
      </trkpt>
      <trkpt lat="59.226913" lon="17.729512">
        <ele>27.6</ele>
        <time>2020-03-26T13:44:14Z</time>
        <extensions><gpxtpx:TrackPointExtension><gpxtpx:hr>121</gpxtpx:hr></gpxtpx:TrackPointExtension></extensions>
      </trkpt>
      <trkpt lat="59.226878" lon="17.729654">
        <ele>27.4</ele>
        <time>2020-03-26T13:44:15Z</time>
        <extensions><gpxtpx:TrackPointExtension><gpxtpx:hr>122</gpxtpx:hr></gpxtpx:TrackPointExtension></extensions>
      </trkpt>
      <trkpt lat="59.226844" lon="17.729795">
        <ele>27.4</ele>
        <time>2020-03-26T13:44:16Z</time>
        <extensions><gpxtpx:TrackPointExtension><gpxtpx:hr>123</gpxtpx:hr></gpxtpx:TrackPointExtension></extensions>
      </trkpt>
      <trkpt lat="59.226809" lon="17.729935">
        <ele>27.4</ele>
        <time>2020-03-26T13:44:17Z</time>
        <extensions><gpxtpx:TrackPointExtension><gpxtpx:hr>124</gpxtpx:hr></gpxtpx:TrackPointExtension></extensions>
      </trkpt>
      <trkpt lat="59.226775" lon="17.730076">
        <ele>27.4</ele>
        <time>2020-03-26T13:44:18Z</time>
        <extensions><gpxtpx:TrackPointExtension><gpxtpx:hr>125</gpxtpx:hr></gpxtpx:TrackPointExtension></extensions>
      </trkpt>
      <trkpt lat="59.226739" lon="17.730217">
        <ele>27.2</ele>
        <time>2020-03-26T13:44:19Z</time>
        <extensions><gpxtpx:TrackPointExtension><gpxtpx:hr>125</gpxtpx:hr></gpxtpx:TrackPointExtension></extensions>
      </trkpt>
      <trkpt lat="59.226704" lon="17.730358">
        <ele>27</ele>
        <time>2020-03-26T13:44:20Z</time>
        <extensions><gpxtpx:TrackPointExtension><gpxtpx:hr>125</gpxtpx:hr></gpxtpx:TrackPointExtension></extensions>
      </trkpt>
      <trkpt lat="59.226668" lon="17.730499">
        <ele>27</ele>
        <time>2020-03-26T13:44:21Z</time>
        <extensions><gpxtpx:TrackPointExtension><gpxtpx:hr>126</gpxtpx:hr></gpxtpx:TrackPointExtension></extensions>
      </trkpt>
      <trkpt lat="59.22663" lon="17.730637">
        <ele>27</ele>
        <time>2020-03-26T13:44:22Z</time>
        <extensions><gpxtpx:TrackPointExtension><gpxtpx:hr>126</gpxtpx:hr></gpxtpx:TrackPointExtension></extensions>
      </trkpt>
      <trkpt lat="59.226591" lon="17.730772">
        <ele>27</ele>
        <time>2020-03-26T13:44:23Z</time>
        <extensions><gpxtpx:TrackPointExtension><gpxtpx:hr>127</gpxtpx:hr></gpxtpx:TrackPointExtension></extensions>
      </trkpt>
      <trkpt lat="59.226551" lon="17.730906">
        <ele>26.8</ele>
        <time>2020-03-26T13:44:24Z</time>
        <extensions><gpxtpx:TrackPointExtension><gpxtpx:hr>128</gpxtpx:hr></gpxtpx:TrackPointExtension></extensions>
      </trkpt>
      <trkpt lat="59.22651" lon="17.731037">
        <ele>26.8</ele>
        <time>2020-03-26T13:44:25Z</time>
        <extensions><gpxtpx:TrackPointExtension><gpxtpx:hr>130</gpxtpx:hr></gpxtpx:TrackPointExtension></extensions>
      </trkpt>
      <trkpt lat="59.226468" lon="17.731165">
        <ele>26.6</ele>
        <time>2020-03-26T13:44:26Z</time>
        <extensions><gpxtpx:TrackPointExtension><gpxtpx:hr>131</gpxtpx:hr></gpxtpx:TrackPointExtension></extensions>
      </trkpt>
      <trkpt lat="59.226427" lon="17.73129">
        <ele>26.6</ele>
        <time>2020-03-26T13:44:27Z</time>
        <extensions><gpxtpx:TrackPointExtension><gpxtpx:hr>132</gpxtpx:hr></gpxtpx:TrackPointExtension></extensions>
      </trkpt>
      <trkpt lat="59.226387" lon="17.731416">
        <ele>26.6</ele>
        <time>2020-03-26T13:44:28Z</time>
        <extensions><gpxtpx:TrackPointExtension><gpxtpx:hr>132</gpxtpx:hr></gpxtpx:TrackPointExtension></extensions>
      </trkpt>
      <trkpt lat="59.226348" lon="17.731541">
        <ele>26.6</ele>
        <time>2020-03-26T13:44:29Z</time>
        <extensions><gpxtpx:TrackPointExtension><gpxtpx:hr>133</gpxtpx:hr></gpxtpx:TrackPointExtension></extensions>
      </trkpt>
      <trkpt lat="59.226309" lon="17.731665">
        <ele>26.6</ele>
        <time>2020-03-26T13:44:30Z</time>
        <extensions><gpxtpx:TrackPointExtension><gpxtpx:hr>134</gpxtpx:hr></gpxtpx:TrackPointExtension></extensions>
      </trkpt>
      <trkpt lat="59.226269" lon="17.731787">
        <ele>26.6</ele>
        <time>2020-03-26T13:44:31Z</time>
        <extensions><gpxtpx:TrackPointExtension><gpxtpx:hr>134</gpxtpx:hr></gpxtpx:TrackPointExtension></extensions>
      </trkpt>
      <trkpt lat="59.226227" lon="17.731907">
        <ele>26.6</ele>
        <time>2020-03-26T13:44:32Z</time>
        <extensions><gpxtpx:TrackPointExtension><gpxtpx:hr>135</gpxtpx:hr></gpxtpx:TrackPointExtension></extensions>
      </trkpt>
      <trkpt lat="59.226185" lon="17.732027">
        <ele>26.6</ele>
        <time>2020-03-26T13:44:33Z</time>
        <extensions><gpxtpx:TrackPointExtension><gpxtpx:hr>136</gpxtpx:hr></gpxtpx:TrackPointExtension></extensions>
      </trkpt>
      <trkpt lat="59.226144" lon="17.732148">
        <ele>26.6</ele>
        <time>2020-03-26T13:44:34Z</time>
        <extensions><gpxtpx:TrackPointExtension><gpxtpx:hr>137</gpxtpx:hr></gpxtpx:TrackPointExtension></extensions>
      </trkpt>
      <trkpt lat="59.226104" lon="17.73227">
        <ele>26.6</ele>
        <time>2020-03-26T13:44:35Z</time>
        <extensions><gpxtpx:TrackPointExtension><gpxtpx:hr>138</gpxtpx:hr></gpxtpx:TrackPointExtension></extensions>
      </trkpt>
      <trkpt lat="59.226064" lon="17.73239">
        <ele>26.6</ele>
        <time>2020-03-26T13:44:36Z</time>
        <extensions><gpxtpx:TrackPointExtension><gpxtpx:hr>139</gpxtpx:hr></gpxtpx:TrackPointExtension></extensions>
      </trkpt>
      <trkpt lat="59.226023" lon="17.73251">
        <ele>26.6</ele>
        <time>2020-03-26T13:44:37Z</time>
        <extensions><gpxtpx:TrackPointExtension><gpxtpx:hr>139</gpxtpx:hr></gpxtpx:TrackPointExtension></extensions>
      </trkpt>
      <trkpt lat="59.225983" lon="17.73263">
        <ele>26.6</ele>
        <time>2020-03-26T13:44:38Z</time>
        <extensions><gpxtpx:TrackPointExtension><gpxtpx:hr>139</gpxtpx:hr></gpxtpx:TrackPointExtension></extensions>
      </trkpt>
      <trkpt lat="59.225943" lon="17.732751">
        <ele>26.8</ele>
        <time>2020-03-26T13:44:39Z</time>
        <extensions><gpxtpx:TrackPointExtension><gpxtpx:hr>140</gpxtpx:hr></gpxtpx:TrackPointExtension></extensions>
      </trkpt>
      <trkpt lat="59.225902" lon="17.732871">
        <ele>26.8</ele>
        <time>2020-03-26T13:44:40Z</time>
        <extensions><gpxtpx:TrackPointExtension><gpxtpx:hr>140</gpxtpx:hr></gpxtpx:TrackPointExtension></extensions>
      </trkpt>
      <trkpt lat="59.22586" lon="17.732987">
        <ele>26.8</ele>
        <time>2020-03-26T13:44:41Z</time>
        <extensions><gpxtpx:TrackPointExtension><gpxtpx:hr>140</gpxtpx:hr></gpxtpx:TrackPointExtension></extensions>
      </trkpt>
      <trkpt lat="59.225819" lon="17.733104">
        <ele>27</ele>
        <time>2020-03-26T13:44:42Z</time>
        <extensions><gpxtpx:TrackPointExtension><gpxtpx:hr>140</gpxtpx:hr></gpxtpx:TrackPointExtension></extensions>
      </trkpt>
      <trkpt lat="59.225779" lon="17.733223">
        <ele>27</ele>
        <time>2020-03-26T13:44:43Z</time>
        <extensions><gpxtpx:TrackPointExtension><gpxtpx:hr>141</gpxtpx:hr></gpxtpx:TrackPointExtension></extensions>
      </trkpt>
      <trkpt lat="59.225739" lon="17.733345">
        <ele>27</ele>
        <time>2020-03-26T13:44:44Z</time>
        <extensions><gpxtpx:TrackPointExtension><gpxtpx:hr>141</gpxtpx:hr></gpxtpx:TrackPointExtension></extensions>
      </trkpt>
      <trkpt lat="59.2257" lon="17.733467">
        <ele>26.8</ele>
        <time>2020-03-26T13:44:45Z</time>
        <extensions><gpxtpx:TrackPointExtension><gpxtpx:hr>141</gpxtpx:hr></gpxtpx:TrackPointExtension></extensions>
      </trkpt>
      <trkpt lat="59.225662" lon="17.73359">
        <ele>26.8</ele>
        <time>2020-03-26T13:44:46Z</time>
        <extensions><gpxtpx:TrackPointExtension><gpxtpx:hr>141</gpxtpx:hr></gpxtpx:TrackPointExtension></extensions>
      </trkpt>
      <trkpt lat="59.225623" lon="17.733709">
        <ele>26.8</ele>
        <time>2020-03-26T13:44:47Z</time>
        <extensions><gpxtpx:TrackPointExtension><gpxtpx:hr>142</gpxtpx:hr></gpxtpx:TrackPointExtension></extensions>
      </trkpt>
      <trkpt lat="59.225585" lon="17.733827">
        <ele>27</ele>
        <time>2020-03-26T13:44:48Z</time>
        <extensions><gpxtpx:TrackPointExtension><gpxtpx:hr>142</gpxtpx:hr></gpxtpx:TrackPointExtension></extensions>
      </trkpt>
      <trkpt lat="59.225546" lon="17.733943">
        <ele>27</ele>
        <time>2020-03-26T13:44:49Z</time>
        <extensions><gpxtpx:TrackPointExtension><gpxtpx:hr>142</gpxtpx:hr></gpxtpx:TrackPointExtension></extensions>
      </trkpt>
      <trkpt lat="59.225507" lon="17.73406">
        <ele>27</ele>
        <time>2020-03-26T13:44:50Z</time>
        <extensions><gpxtpx:TrackPointExtension><gpxtpx:hr>142</gpxtpx:hr></gpxtpx:TrackPointExtension></extensions>
      </trkpt>
      <trkpt lat="59.225468" lon="17.734178">
        <ele>27.2</ele>
        <time>2020-03-26T13:44:51Z</time>
        <extensions><gpxtpx:TrackPointExtension><gpxtpx:hr>142</gpxtpx:hr></gpxtpx:TrackPointExtension></extensions>
      </trkpt>
      <trkpt lat="59.225429" lon="17.734295">
        <ele>27.2</ele>
        <time>2020-03-26T13:44:52Z</time>
        <extensions><gpxtpx:TrackPointExtension><gpxtpx:hr>142</gpxtpx:hr></gpxtpx:TrackPointExtension></extensions>
      </trkpt>
      <trkpt lat="59.22539" lon="17.734411">
        <ele>27.2</ele>
        <time>2020-03-26T13:44:53Z</time>
        <extensions><gpxtpx:TrackPointExtension><gpxtpx:hr>142</gpxtpx:hr></gpxtpx:TrackPointExtension></extensions>
      </trkpt>
      <trkpt lat="59.225352" lon="17.734525">
        <ele>27.2</ele>
        <time>2020-03-26T13:44:54Z</time>
        <extensions><gpxtpx:TrackPointExtension><gpxtpx:hr>142</gpxtpx:hr></gpxtpx:TrackPointExtension></extensions>
      </trkpt>
      <trkpt lat="59.225312" lon="17.734635">
        <ele>27.2</ele>
        <time>2020-03-26T13:44:55Z</time>
        <extensions><gpxtpx:TrackPointExtension><gpxtpx:hr>142</gpxtpx:hr></gpxtpx:TrackPointExtension></extensions>
      </trkpt>
      <trkpt lat="59.225273" lon="17.734744">
        <ele>27.2</ele>
        <time>2020-03-26T13:44:56Z</time>
        <extensions><gpxtpx:TrackPointExtension><gpxtpx:hr>142</gpxtpx:hr></gpxtpx:TrackPointExtension></extensions>
      </trkpt>
      <trkpt lat="59.225236" lon="17.734852">
        <ele>27.2</ele>
        <time>2020-03-26T13:44:57Z</time>
        <extensions><gpxtpx:TrackPointExtension><gpxtpx:hr>143</gpxtpx:hr></gpxtpx:TrackPointExtension></extensions>
      </trkpt>
      <trkpt lat="59.225199" lon="17.734958">
        <ele>27.2</ele>
        <time>2020-03-26T13:44:58Z</time>
        <extensions><gpxtpx:TrackPointExtension><gpxtpx:hr>143</gpxtpx:hr></gpxtpx:TrackPointExtension></extensions>
      </trkpt>
      <trkpt lat="59.225162" lon="17.735063">
        <ele>27.2</ele>
        <time>2020-03-26T13:44:59Z</time>
        <extensions><gpxtpx:TrackPointExtension><gpxtpx:hr>143</gpxtpx:hr></gpxtpx:TrackPointExtension></extensions>
      </trkpt>
      <trkpt lat="59.225124" lon="17.735164">
        <ele>27.2</ele>
        <time>2020-03-26T13:45:00Z</time>
        <extensions><gpxtpx:TrackPointExtension><gpxtpx:hr>143</gpxtpx:hr></gpxtpx:TrackPointExtension></extensions>
      </trkpt>
      <trkpt lat="59.225084" lon="17.735263">
        <ele>27.4</ele>
        <time>2020-03-26T13:45:01Z</time>
        <extensions><gpxtpx:TrackPointExtension><gpxtpx:hr>143</gpxtpx:hr></gpxtpx:TrackPointExtension></extensions>
      </trkpt>
      <trkpt lat="59.225045" lon="17.735362">
        <ele>27.4</ele>
        <time>2020-03-26T13:45:02Z</time>
        <extensions><gpxtpx:TrackPointExtension><gpxtpx:hr>144</gpxtpx:hr></gpxtpx:TrackPointExtension></extensions>
      </trkpt>
      <trkpt lat="59.225006" lon="17.735463">
        <ele>27.4</ele>
        <time>2020-03-26T13:45:03Z</time>
        <extensions><gpxtpx:TrackPointExtension><gpxtpx:hr>144</gpxtpx:hr></gpxtpx:TrackPointExtension></extensions>
      </trkpt>
      <trkpt lat="59.224967" lon="17.735563">
        <ele>27.4</ele>
        <time>2020-03-26T13:45:04Z</time>
        <extensions><gpxtpx:TrackPointExtension><gpxtpx:hr>144</gpxtpx:hr></gpxtpx:TrackPointExtension></extensions>
      </trkpt>
      <trkpt lat="59.224927" lon="17.735662">
        <ele>27.4</ele>
        <time>2020-03-26T13:45:05Z</time>
        <extensions><gpxtpx:TrackPointExtension><gpxtpx:hr>144</gpxtpx:hr></gpxtpx:TrackPointExtension></extensions>
      </trkpt>
      <trkpt lat="59.224886" lon="17.735759">
        <ele>27.4</ele>
        <time>2020-03-26T13:45:06Z</time>
        <extensions><gpxtpx:TrackPointExtension><gpxtpx:hr>144</gpxtpx:hr></gpxtpx:TrackPointExtension></extensions>
      </trkpt>
      <trkpt lat="59.224843" lon="17.735853">
        <ele>27.6</ele>
        <time>2020-03-26T13:45:07Z</time>
        <extensions><gpxtpx:TrackPointExtension><gpxtpx:hr>144</gpxtpx:hr></gpxtpx:TrackPointExtension></extensions>
      </trkpt>
      <trkpt lat="59.224801" lon="17.735948">
        <ele>27.6</ele>
        <time>2020-03-26T13:45:08Z</time>
        <extensions><gpxtpx:TrackPointExtension><gpxtpx:hr>145</gpxtpx:hr></gpxtpx:TrackPointExtension></extensions>
      </trkpt>
      <trkpt lat="59.224759" lon="17.736042">
        <ele>27.6</ele>
        <time>2020-03-26T13:45:09Z</time>
        <extensions><gpxtpx:TrackPointExtension><gpxtpx:hr>144</gpxtpx:hr></gpxtpx:TrackPointExtension></extensions>
      </trkpt>
      <trkpt lat="59.224717" lon="17.736136">
        <ele>27.6</ele>
        <time>2020-03-26T13:45:10Z</time>
        <extensions><gpxtpx:TrackPointExtension><gpxtpx:hr>144</gpxtpx:hr></gpxtpx:TrackPointExtension></extensions>
      </trkpt>
      <trkpt lat="59.224677" lon="17.73623">
        <ele>27.6</ele>
        <time>2020-03-26T13:45:11Z</time>
        <extensions><gpxtpx:TrackPointExtension><gpxtpx:hr>144</gpxtpx:hr></gpxtpx:TrackPointExtension></extensions>
      </trkpt>
      <trkpt lat="59.224637" lon="17.736323">
        <ele>27.6</ele>
        <time>2020-03-26T13:45:12Z</time>
        <extensions><gpxtpx:TrackPointExtension><gpxtpx:hr>143</gpxtpx:hr></gpxtpx:TrackPointExtension></extensions>
      </trkpt>
      <trkpt lat="59.224597" lon="17.736417">
        <ele>27.6</ele>
        <time>2020-03-26T13:45:13Z</time>
        <extensions><gpxtpx:TrackPointExtension><gpxtpx:hr>143</gpxtpx:hr></gpxtpx:TrackPointExtension></extensions>
      </trkpt>
      <trkpt lat="59.224557" lon="17.736509">
        <ele>27.8</ele>
        <time>2020-03-26T13:45:14Z</time>
        <extensions><gpxtpx:TrackPointExtension><gpxtpx:hr>143</gpxtpx:hr></gpxtpx:TrackPointExtension></extensions>
      </trkpt>
      <trkpt lat="59.224517" lon="17.736602">
        <ele>27.8</ele>
        <time>2020-03-26T13:45:15Z</time>
        <extensions><gpxtpx:TrackPointExtension><gpxtpx:hr>143</gpxtpx:hr></gpxtpx:TrackPointExtension></extensions>
      </trkpt>
      <trkpt lat="59.224476" lon="17.736695">
        <ele>27.8</ele>
        <time>2020-03-26T13:45:16Z</time>
        <extensions><gpxtpx:TrackPointExtension><gpxtpx:hr>143</gpxtpx:hr></gpxtpx:TrackPointExtension></extensions>
      </trkpt>
      <trkpt lat="59.224436" lon="17.73679">
        <ele>28</ele>
        <time>2020-03-26T13:45:17Z</time>
        <extensions><gpxtpx:TrackPointExtension><gpxtpx:hr>143</gpxtpx:hr></gpxtpx:TrackPointExtension></extensions>
      </trkpt>
      <trkpt lat="59.224395" lon="17.736886">
        <ele>28</ele>
        <time>2020-03-26T13:45:18Z</time>
        <extensions><gpxtpx:TrackPointExtension><gpxtpx:hr>143</gpxtpx:hr></gpxtpx:TrackPointExtension></extensions>
      </trkpt>
      <trkpt lat="59.224354" lon="17.736981">
        <ele>28</ele>
        <time>2020-03-26T13:45:19Z</time>
        <extensions><gpxtpx:TrackPointExtension><gpxtpx:hr>143</gpxtpx:hr></gpxtpx:TrackPointExtension></extensions>
      </trkpt>
      <trkpt lat="59.224311" lon="17.737076">
        <ele>28</ele>
        <time>2020-03-26T13:45:20Z</time>
        <extensions><gpxtpx:TrackPointExtension><gpxtpx:hr>142</gpxtpx:hr></gpxtpx:TrackPointExtension></extensions>
      </trkpt>
      <trkpt lat="59.224269" lon="17.737172">
        <ele>28</ele>
        <time>2020-03-26T13:45:21Z</time>
        <extensions><gpxtpx:TrackPointExtension><gpxtpx:hr>142</gpxtpx:hr></gpxtpx:TrackPointExtension></extensions>
      </trkpt>
      <trkpt lat="59.224228" lon="17.737272">
        <ele>28.2</ele>
        <time>2020-03-26T13:45:22Z</time>
        <extensions><gpxtpx:TrackPointExtension><gpxtpx:hr>142</gpxtpx:hr></gpxtpx:TrackPointExtension></extensions>
      </trkpt>
      <trkpt lat="59.224188" lon="17.737374">
        <ele>28.2</ele>
        <time>2020-03-26T13:45:23Z</time>
        <extensions><gpxtpx:TrackPointExtension><gpxtpx:hr>142</gpxtpx:hr></gpxtpx:TrackPointExtension></extensions>
      </trkpt>
      <trkpt lat="59.224147" lon="17.737472">
        <ele>28.2</ele>
        <time>2020-03-26T13:45:24Z</time>
        <extensions><gpxtpx:TrackPointExtension><gpxtpx:hr>142</gpxtpx:hr></gpxtpx:TrackPointExtension></extensions>
      </trkpt>
      <trkpt lat="59.224108" lon="17.737571">
        <ele>28.4</ele>
        <time>2020-03-26T13:45:25Z</time>
        <extensions><gpxtpx:TrackPointExtension><gpxtpx:hr>142</gpxtpx:hr></gpxtpx:TrackPointExtension></extensions>
      </trkpt>
      <trkpt lat="59.224069" lon="17.737672">
        <ele>28.4</ele>
        <time>2020-03-26T13:45:26Z</time>
        <extensions><gpxtpx:TrackPointExtension><gpxtpx:hr>142</gpxtpx:hr></gpxtpx:TrackPointExtension></extensions>
      </trkpt>
      <trkpt lat="59.22403" lon="17.737772">
        <ele>28.6</ele>
        <time>2020-03-26T13:45:27Z</time>
        <extensions><gpxtpx:TrackPointExtension><gpxtpx:hr>142</gpxtpx:hr></gpxtpx:TrackPointExtension></extensions>
      </trkpt>
      <trkpt lat="59.22399" lon="17.73787">
        <ele>28.8</ele>
        <time>2020-03-26T13:45:28Z</time>
        <extensions><gpxtpx:TrackPointExtension><gpxtpx:hr>142</gpxtpx:hr></gpxtpx:TrackPointExtension></extensions>
      </trkpt>
      <trkpt lat="59.223951" lon="17.737964">
        <ele>28.8</ele>
        <time>2020-03-26T13:45:29Z</time>
        <extensions><gpxtpx:TrackPointExtension><gpxtpx:hr>142</gpxtpx:hr></gpxtpx:TrackPointExtension></extensions>
      </trkpt>
      <trkpt lat="59.223912" lon="17.738058">
        <ele>29</ele>
        <time>2020-03-26T13:45:30Z</time>
        <extensions><gpxtpx:TrackPointExtension><gpxtpx:hr>142</gpxtpx:hr></gpxtpx:TrackPointExtension></extensions>
      </trkpt>
      <trkpt lat="59.223871" lon="17.738149">
        <ele>29.2</ele>
        <time>2020-03-26T13:45:31Z</time>
        <extensions><gpxtpx:TrackPointExtension><gpxtpx:hr>142</gpxtpx:hr></gpxtpx:TrackPointExtension></extensions>
      </trkpt>
      <trkpt lat="59.223831" lon="17.738241">
        <ele>29.2</ele>
        <time>2020-03-26T13:45:32Z</time>
        <extensions><gpxtpx:TrackPointExtension><gpxtpx:hr>142</gpxtpx:hr></gpxtpx:TrackPointExtension></extensions>
      </trkpt>
      <trkpt lat="59.223792" lon="17.738334">
        <ele>29.2</ele>
        <time>2020-03-26T13:45:33Z</time>
        <extensions><gpxtpx:TrackPointExtension><gpxtpx:hr>142</gpxtpx:hr></gpxtpx:TrackPointExtension></extensions>
      </trkpt>
      <trkpt lat="59.223754" lon="17.738427">
        <ele>29.2</ele>
        <time>2020-03-26T13:45:34Z</time>
        <extensions><gpxtpx:TrackPointExtension><gpxtpx:hr>142</gpxtpx:hr></gpxtpx:TrackPointExtension></extensions>
      </trkpt>
      <trkpt lat="59.223716" lon="17.738518">
        <ele>29.2</ele>
        <time>2020-03-26T13:45:35Z</time>
        <extensions><gpxtpx:TrackPointExtension><gpxtpx:hr>142</gpxtpx:hr></gpxtpx:TrackPointExtension></extensions>
      </trkpt>
      <trkpt lat="59.223678" lon="17.73861">
        <ele>29.4</ele>
        <time>2020-03-26T13:45:36Z</time>
        <extensions><gpxtpx:TrackPointExtension><gpxtpx:hr>143</gpxtpx:hr></gpxtpx:TrackPointExtension></extensions>
      </trkpt>
      <trkpt lat="59.22364" lon="17.738702">
        <ele>29.4</ele>
        <time>2020-03-26T13:45:37Z</time>
        <extensions><gpxtpx:TrackPointExtension><gpxtpx:hr>143</gpxtpx:hr></gpxtpx:TrackPointExtension></extensions>
      </trkpt>
      <trkpt lat="59.223604" lon="17.738793">
        <ele>29.4</ele>
        <time>2020-03-26T13:45:38Z</time>
        <extensions><gpxtpx:TrackPointExtension><gpxtpx:hr>144</gpxtpx:hr></gpxtpx:TrackPointExtension></extensions>
      </trkpt>
      <trkpt lat="59.223569" lon="17.738882">
        <ele>29.6</ele>
        <time>2020-03-26T13:45:39Z</time>
        <extensions><gpxtpx:TrackPointExtension><gpxtpx:hr>144</gpxtpx:hr></gpxtpx:TrackPointExtension></extensions>
      </trkpt>
      <trkpt lat="59.223533" lon="17.738968">
        <ele>29.6</ele>
        <time>2020-03-26T13:45:40Z</time>
        <extensions><gpxtpx:TrackPointExtension><gpxtpx:hr>144</gpxtpx:hr></gpxtpx:TrackPointExtension></extensions>
      </trkpt>
      <trkpt lat="59.223497" lon="17.739054">
        <ele>29.6</ele>
        <time>2020-03-26T13:45:41Z</time>
        <extensions><gpxtpx:TrackPointExtension><gpxtpx:hr>145</gpxtpx:hr></gpxtpx:TrackPointExtension></extensions>
      </trkpt>
      <trkpt lat="59.223462" lon="17.73914">
        <ele>29.6</ele>
        <time>2020-03-26T13:45:42Z</time>
        <extensions><gpxtpx:TrackPointExtension><gpxtpx:hr>145</gpxtpx:hr></gpxtpx:TrackPointExtension></extensions>
      </trkpt>
      <trkpt lat="59.223426" lon="17.739228">
        <ele>29.8</ele>
        <time>2020-03-26T13:45:43Z</time>
        <extensions><gpxtpx:TrackPointExtension><gpxtpx:hr>145</gpxtpx:hr></gpxtpx:TrackPointExtension></extensions>
      </trkpt>
      <trkpt lat="59.223391" lon="17.739318">
        <ele>29.8</ele>
        <time>2020-03-26T13:45:44Z</time>
        <extensions><gpxtpx:TrackPointExtension><gpxtpx:hr>145</gpxtpx:hr></gpxtpx:TrackPointExtension></extensions>
      </trkpt>
      <trkpt lat="59.223355" lon="17.739406">
        <ele>30</ele>
        <time>2020-03-26T13:45:45Z</time>
        <extensions><gpxtpx:TrackPointExtension><gpxtpx:hr>146</gpxtpx:hr></gpxtpx:TrackPointExtension></extensions>
      </trkpt>
      <trkpt lat="59.223319" lon="17.739494">
        <ele>30</ele>
        <time>2020-03-26T13:45:46Z</time>
        <extensions><gpxtpx:TrackPointExtension><gpxtpx:hr>146</gpxtpx:hr></gpxtpx:TrackPointExtension></extensions>
      </trkpt>
      <trkpt lat="59.223283" lon="17.739583">
        <ele>30</ele>
        <time>2020-03-26T13:45:47Z</time>
        <extensions><gpxtpx:TrackPointExtension><gpxtpx:hr>146</gpxtpx:hr></gpxtpx:TrackPointExtension></extensions>
      </trkpt>
      <trkpt lat="59.223247" lon="17.739673">
        <ele>30.2</ele>
        <time>2020-03-26T13:45:48Z</time>
        <extensions><gpxtpx:TrackPointExtension><gpxtpx:hr>147</gpxtpx:hr></gpxtpx:TrackPointExtension></extensions>
      </trkpt>
      <trkpt lat="59.223211" lon="17.739763">
        <ele>30.6</ele>
        <time>2020-03-26T13:45:49Z</time>
        <extensions><gpxtpx:TrackPointExtension><gpxtpx:hr>148</gpxtpx:hr></gpxtpx:TrackPointExtension></extensions>
      </trkpt>
      <trkpt lat="59.223177" lon="17.739849">
        <ele>30.8</ele>
        <time>2020-03-26T13:45:50Z</time>
        <extensions><gpxtpx:TrackPointExtension><gpxtpx:hr>148</gpxtpx:hr></gpxtpx:TrackPointExtension></extensions>
      </trkpt>
      <trkpt lat="59.223145" lon="17.73993">
        <ele>31.4</ele>
        <time>2020-03-26T13:45:51Z</time>
        <extensions><gpxtpx:TrackPointExtension><gpxtpx:hr>149</gpxtpx:hr></gpxtpx:TrackPointExtension></extensions>
      </trkpt>
      <trkpt lat="59.223113" lon="17.740008">
        <ele>31.6</ele>
        <time>2020-03-26T13:45:52Z</time>
        <extensions><gpxtpx:TrackPointExtension><gpxtpx:hr>149</gpxtpx:hr></gpxtpx:TrackPointExtension></extensions>
      </trkpt>
      <trkpt lat="59.223081" lon="17.740083">
        <ele>31.8</ele>
        <time>2020-03-26T13:45:53Z</time>
        <extensions><gpxtpx:TrackPointExtension><gpxtpx:hr>150</gpxtpx:hr></gpxtpx:TrackPointExtension></extensions>
      </trkpt>
      <trkpt lat="59.223051" lon="17.74016">
        <ele>31.8</ele>
        <time>2020-03-26T13:45:54Z</time>
        <extensions><gpxtpx:TrackPointExtension><gpxtpx:hr>150</gpxtpx:hr></gpxtpx:TrackPointExtension></extensions>
      </trkpt>
      <trkpt lat="59.223022" lon="17.740236">
        <ele>32</ele>
        <time>2020-03-26T13:45:55Z</time>
        <extensions><gpxtpx:TrackPointExtension><gpxtpx:hr>151</gpxtpx:hr></gpxtpx:TrackPointExtension></extensions>
      </trkpt>
      <trkpt lat="59.222991" lon="17.74031">
        <ele>32</ele>
        <time>2020-03-26T13:45:56Z</time>
        <extensions><gpxtpx:TrackPointExtension><gpxtpx:hr>151</gpxtpx:hr></gpxtpx:TrackPointExtension></extensions>
      </trkpt>
      <trkpt lat="59.222961" lon="17.740384">
        <ele>32</ele>
        <time>2020-03-26T13:45:57Z</time>
        <extensions><gpxtpx:TrackPointExtension><gpxtpx:hr>151</gpxtpx:hr></gpxtpx:TrackPointExtension></extensions>
      </trkpt>
      <trkpt lat="59.22293" lon="17.740458">
        <ele>32.2</ele>
        <time>2020-03-26T13:45:58Z</time>
        <extensions><gpxtpx:TrackPointExtension><gpxtpx:hr>151</gpxtpx:hr></gpxtpx:TrackPointExtension></extensions>
      </trkpt>
      <trkpt lat="59.2229" lon="17.740533">
        <ele>32.4</ele>
        <time>2020-03-26T13:45:59Z</time>
        <extensions><gpxtpx:TrackPointExtension><gpxtpx:hr>151</gpxtpx:hr></gpxtpx:TrackPointExtension></extensions>
      </trkpt>
      <trkpt lat="59.222871" lon="17.740606">
        <ele>32.4</ele>
        <time>2020-03-26T13:46:00Z</time>
        <extensions><gpxtpx:TrackPointExtension><gpxtpx:hr>151</gpxtpx:hr></gpxtpx:TrackPointExtension></extensions>
      </trkpt>
      <trkpt lat="59.222842" lon="17.740681">
        <ele>32.6</ele>
        <time>2020-03-26T13:46:01Z</time>
        <extensions><gpxtpx:TrackPointExtension><gpxtpx:hr>151</gpxtpx:hr></gpxtpx:TrackPointExtension></extensions>
      </trkpt>
      <trkpt lat="59.222813" lon="17.740755">
        <ele>32.6</ele>
        <time>2020-03-26T13:46:02Z</time>
        <extensions><gpxtpx:TrackPointExtension><gpxtpx:hr>152</gpxtpx:hr></gpxtpx:TrackPointExtension></extensions>
      </trkpt>
      <trkpt lat="59.222783" lon="17.740831">
        <ele>32.8</ele>
        <time>2020-03-26T13:46:03Z</time>
        <extensions><gpxtpx:TrackPointExtension><gpxtpx:hr>151</gpxtpx:hr></gpxtpx:TrackPointExtension></extensions>
      </trkpt>
      <trkpt lat="59.222753" lon="17.740908">
        <ele>32.8</ele>
        <time>2020-03-26T13:46:04Z</time>
        <extensions><gpxtpx:TrackPointExtension><gpxtpx:hr>151</gpxtpx:hr></gpxtpx:TrackPointExtension></extensions>
      </trkpt>
      <trkpt lat="59.222724" lon="17.740987">
        <ele>33</ele>
        <time>2020-03-26T13:46:05Z</time>
        <extensions><gpxtpx:TrackPointExtension><gpxtpx:hr>151</gpxtpx:hr></gpxtpx:TrackPointExtension></extensions>
      </trkpt>
      <trkpt lat="59.222695" lon="17.741066">
        <ele>33</ele>
        <time>2020-03-26T13:46:06Z</time>
        <extensions><gpxtpx:TrackPointExtension><gpxtpx:hr>151</gpxtpx:hr></gpxtpx:TrackPointExtension></extensions>
      </trkpt>
      <trkpt lat="59.222666" lon="17.741145">
        <ele>33.2</ele>
        <time>2020-03-26T13:46:07Z</time>
        <extensions><gpxtpx:TrackPointExtension><gpxtpx:hr>151</gpxtpx:hr></gpxtpx:TrackPointExtension></extensions>
      </trkpt>
      <trkpt lat="59.222639" lon="17.741224">
        <ele>33.4</ele>
        <time>2020-03-26T13:46:08Z</time>
        <extensions><gpxtpx:TrackPointExtension><gpxtpx:hr>150</gpxtpx:hr></gpxtpx:TrackPointExtension></extensions>
      </trkpt>
      <trkpt lat="59.222611" lon="17.741304">
        <ele>33.4</ele>
        <time>2020-03-26T13:46:09Z</time>
        <extensions><gpxtpx:TrackPointExtension><gpxtpx:hr>150</gpxtpx:hr></gpxtpx:TrackPointExtension></extensions>
      </trkpt>
      <trkpt lat="59.222583" lon="17.741386">
        <ele>33.6</ele>
        <time>2020-03-26T13:46:10Z</time>
        <extensions><gpxtpx:TrackPointExtension><gpxtpx:hr>150</gpxtpx:hr></gpxtpx:TrackPointExtension></extensions>
      </trkpt>
      <trkpt lat="59.222564" lon="17.741449">
        <ele>33.8</ele>
        <time>2020-03-26T13:46:11Z</time>
        <extensions><gpxtpx:TrackPointExtension><gpxtpx:hr>150</gpxtpx:hr></gpxtpx:TrackPointExtension></extensions>
      </trkpt>
      <trkpt lat="59.222544" lon="17.741511">
        <ele>34</ele>
        <time>2020-03-26T13:46:12Z</time>
        <extensions><gpxtpx:TrackPointExtension><gpxtpx:hr>149</gpxtpx:hr></gpxtpx:TrackPointExtension></extensions>
      </trkpt>
      <trkpt lat="59.222505" lon="17.741636">
        <ele>34.2</ele>
        <time>2020-03-26T13:46:13Z</time>
        <extensions><gpxtpx:TrackPointExtension><gpxtpx:hr>149</gpxtpx:hr></gpxtpx:TrackPointExtension></extensions>
      </trkpt>
      <trkpt lat="59.222479" lon="17.741721">
        <ele>34.2</ele>
        <time>2020-03-26T13:46:14Z</time>
        <extensions><gpxtpx:TrackPointExtension><gpxtpx:hr>148</gpxtpx:hr></gpxtpx:TrackPointExtension></extensions>
      </trkpt>
      <trkpt lat="59.222455" lon="17.741807">
        <ele>34.4</ele>
        <time>2020-03-26T13:46:15Z</time>
        <extensions><gpxtpx:TrackPointExtension><gpxtpx:hr>148</gpxtpx:hr></gpxtpx:TrackPointExtension></extensions>
      </trkpt>
      <trkpt lat="59.222433" lon="17.741895">
        <ele>34.4</ele>
        <time>2020-03-26T13:46:16Z</time>
        <extensions><gpxtpx:TrackPointExtension><gpxtpx:hr>148</gpxtpx:hr></gpxtpx:TrackPointExtension></extensions>
      </trkpt>
      <trkpt lat="59.222411" lon="17.741985">
        <ele>34.6</ele>
        <time>2020-03-26T13:46:17Z</time>
        <extensions><gpxtpx:TrackPointExtension><gpxtpx:hr>148</gpxtpx:hr></gpxtpx:TrackPointExtension></extensions>
      </trkpt>
      <trkpt lat="59.222385" lon="17.742069">
        <ele>34.8</ele>
        <time>2020-03-26T13:46:18Z</time>
        <extensions><gpxtpx:TrackPointExtension><gpxtpx:hr>148</gpxtpx:hr></gpxtpx:TrackPointExtension></extensions>
      </trkpt>
      <trkpt lat="59.222358" lon="17.742155">
        <ele>35</ele>
        <time>2020-03-26T13:46:19Z</time>
        <extensions><gpxtpx:TrackPointExtension><gpxtpx:hr>148</gpxtpx:hr></gpxtpx:TrackPointExtension></extensions>
      </trkpt>
      <trkpt lat="59.222336" lon="17.742246">
        <ele>35.2</ele>
        <time>2020-03-26T13:46:20Z</time>
        <extensions><gpxtpx:TrackPointExtension><gpxtpx:hr>148</gpxtpx:hr></gpxtpx:TrackPointExtension></extensions>
      </trkpt>
      <trkpt lat="59.22231" lon="17.742331">
        <ele>35.6</ele>
        <time>2020-03-26T13:46:21Z</time>
        <extensions><gpxtpx:TrackPointExtension><gpxtpx:hr>148</gpxtpx:hr></gpxtpx:TrackPointExtension></extensions>
      </trkpt>
      <trkpt lat="59.222281" lon="17.742415">
        <ele>36</ele>
        <time>2020-03-26T13:46:22Z</time>
        <extensions><gpxtpx:TrackPointExtension><gpxtpx:hr>148</gpxtpx:hr></gpxtpx:TrackPointExtension></extensions>
      </trkpt>
      <trkpt lat="59.222258" lon="17.742504">
        <ele>36.2</ele>
        <time>2020-03-26T13:46:23Z</time>
        <extensions><gpxtpx:TrackPointExtension><gpxtpx:hr>148</gpxtpx:hr></gpxtpx:TrackPointExtension></extensions>
      </trkpt>
      <trkpt lat="59.222235" lon="17.742591">
        <ele>36.4</ele>
        <time>2020-03-26T13:46:24Z</time>
        <extensions><gpxtpx:TrackPointExtension><gpxtpx:hr>148</gpxtpx:hr></gpxtpx:TrackPointExtension></extensions>
      </trkpt>
      <trkpt lat="59.222208" lon="17.742674">
        <ele>36.6</ele>
        <time>2020-03-26T13:46:25Z</time>
        <extensions><gpxtpx:TrackPointExtension><gpxtpx:hr>148</gpxtpx:hr></gpxtpx:TrackPointExtension></extensions>
      </trkpt>
      <trkpt lat="59.222184" lon="17.742759">
        <ele>36.6</ele>
        <time>2020-03-26T13:46:26Z</time>
        <extensions><gpxtpx:TrackPointExtension><gpxtpx:hr>148</gpxtpx:hr></gpxtpx:TrackPointExtension></extensions>
      </trkpt>
      <trkpt lat="59.222159" lon="17.742844">
        <ele>36.8</ele>
        <time>2020-03-26T13:46:27Z</time>
        <extensions><gpxtpx:TrackPointExtension><gpxtpx:hr>148</gpxtpx:hr></gpxtpx:TrackPointExtension></extensions>
      </trkpt>
      <trkpt lat="59.222135" lon="17.742931">
        <ele>36.8</ele>
        <time>2020-03-26T13:46:28Z</time>
        <extensions><gpxtpx:TrackPointExtension><gpxtpx:hr>148</gpxtpx:hr></gpxtpx:TrackPointExtension></extensions>
      </trkpt>
      <trkpt lat="59.22211" lon="17.743018">
        <ele>36.8</ele>
        <time>2020-03-26T13:46:29Z</time>
        <extensions><gpxtpx:TrackPointExtension><gpxtpx:hr>148</gpxtpx:hr></gpxtpx:TrackPointExtension></extensions>
      </trkpt>
      <trkpt lat="59.222086" lon="17.743105">
        <ele>36.8</ele>
        <time>2020-03-26T13:46:30Z</time>
        <extensions><gpxtpx:TrackPointExtension><gpxtpx:hr>148</gpxtpx:hr></gpxtpx:TrackPointExtension></extensions>
      </trkpt>
      <trkpt lat="59.222061" lon="17.743193">
        <ele>36.8</ele>
        <time>2020-03-26T13:46:31Z</time>
        <extensions><gpxtpx:TrackPointExtension><gpxtpx:hr>148</gpxtpx:hr></gpxtpx:TrackPointExtension></extensions>
      </trkpt>
      <trkpt lat="59.222037" lon="17.743279">
        <ele>36.8</ele>
        <time>2020-03-26T13:46:32Z</time>
        <extensions><gpxtpx:TrackPointExtension><gpxtpx:hr>148</gpxtpx:hr></gpxtpx:TrackPointExtension></extensions>
      </trkpt>
      <trkpt lat="59.222013" lon="17.743364">
        <ele>36.8</ele>
        <time>2020-03-26T13:46:33Z</time>
        <extensions><gpxtpx:TrackPointExtension><gpxtpx:hr>148</gpxtpx:hr></gpxtpx:TrackPointExtension></extensions>
      </trkpt>
      <trkpt lat="59.221988" lon="17.743451">
        <ele>37</ele>
        <time>2020-03-26T13:46:34Z</time>
        <extensions><gpxtpx:TrackPointExtension><gpxtpx:hr>147</gpxtpx:hr></gpxtpx:TrackPointExtension></extensions>
      </trkpt>
      <trkpt lat="59.221964" lon="17.743541">
        <ele>37</ele>
        <time>2020-03-26T13:46:35Z</time>
        <extensions><gpxtpx:TrackPointExtension><gpxtpx:hr>147</gpxtpx:hr></gpxtpx:TrackPointExtension></extensions>
      </trkpt>
      <trkpt lat="59.221939" lon="17.743632">
        <ele>37.2</ele>
        <time>2020-03-26T13:46:36Z</time>
        <extensions><gpxtpx:TrackPointExtension><gpxtpx:hr>147</gpxtpx:hr></gpxtpx:TrackPointExtension></extensions>
      </trkpt>
      <trkpt lat="59.221914" lon="17.743725">
        <ele>37.2</ele>
        <time>2020-03-26T13:46:37Z</time>
        <extensions><gpxtpx:TrackPointExtension><gpxtpx:hr>146</gpxtpx:hr></gpxtpx:TrackPointExtension></extensions>
      </trkpt>
      <trkpt lat="59.221889" lon="17.74382">
        <ele>37.2</ele>
        <time>2020-03-26T13:46:38Z</time>
        <extensions><gpxtpx:TrackPointExtension><gpxtpx:hr>146</gpxtpx:hr></gpxtpx:TrackPointExtension></extensions>
      </trkpt>
      <trkpt lat="59.221865" lon="17.743917">
        <ele>37.4</ele>
        <time>2020-03-26T13:46:39Z</time>
        <extensions><gpxtpx:TrackPointExtension><gpxtpx:hr>146</gpxtpx:hr></gpxtpx:TrackPointExtension></extensions>
      </trkpt>
      <trkpt lat="59.221839" lon="17.744014">
        <ele>37.6</ele>
        <time>2020-03-26T13:46:40Z</time>
        <extensions><gpxtpx:TrackPointExtension><gpxtpx:hr>146</gpxtpx:hr></gpxtpx:TrackPointExtension></extensions>
      </trkpt>
      <trkpt lat="59.221814" lon="17.744111">
        <ele>37.6</ele>
        <time>2020-03-26T13:46:41Z</time>
        <extensions><gpxtpx:TrackPointExtension><gpxtpx:hr>146</gpxtpx:hr></gpxtpx:TrackPointExtension></extensions>
      </trkpt>
      <trkpt lat="59.221788" lon="17.744207">
        <ele>37.6</ele>
        <time>2020-03-26T13:46:42Z</time>
        <extensions><gpxtpx:TrackPointExtension><gpxtpx:hr>146</gpxtpx:hr></gpxtpx:TrackPointExtension></extensions>
      </trkpt>
      <trkpt lat="59.221762" lon="17.744307">
        <ele>37.6</ele>
        <time>2020-03-26T13:46:43Z</time>
        <extensions><gpxtpx:TrackPointExtension><gpxtpx:hr>146</gpxtpx:hr></gpxtpx:TrackPointExtension></extensions>
      </trkpt>
      <trkpt lat="59.221731" lon="17.744413">
        <ele>37.6</ele>
        <time>2020-03-26T13:46:44Z</time>
        <extensions><gpxtpx:TrackPointExtension><gpxtpx:hr>146</gpxtpx:hr></gpxtpx:TrackPointExtension></extensions>
      </trkpt>
      <trkpt lat="59.221704" lon="17.744517">
        <ele>37.8</ele>
        <time>2020-03-26T13:46:45Z</time>
        <extensions><gpxtpx:TrackPointExtension><gpxtpx:hr>146</gpxtpx:hr></gpxtpx:TrackPointExtension></extensions>
      </trkpt>
      <trkpt lat="59.221678" lon="17.744624">
        <ele>37.8</ele>
        <time>2020-03-26T13:46:46Z</time>
        <extensions><gpxtpx:TrackPointExtension><gpxtpx:hr>145</gpxtpx:hr></gpxtpx:TrackPointExtension></extensions>
      </trkpt>
      <trkpt lat="59.221653" lon="17.744736">
        <ele>37.8</ele>
        <time>2020-03-26T13:46:47Z</time>
        <extensions><gpxtpx:TrackPointExtension><gpxtpx:hr>145</gpxtpx:hr></gpxtpx:TrackPointExtension></extensions>
      </trkpt>
      <trkpt lat="59.221631" lon="17.74485">
        <ele>37.8</ele>
        <time>2020-03-26T13:46:48Z</time>
        <extensions><gpxtpx:TrackPointExtension><gpxtpx:hr>145</gpxtpx:hr></gpxtpx:TrackPointExtension></extensions>
      </trkpt>
      <trkpt lat="59.221609" lon="17.74497">
        <ele>37.8</ele>
        <time>2020-03-26T13:46:49Z</time>
        <extensions><gpxtpx:TrackPointExtension><gpxtpx:hr>145</gpxtpx:hr></gpxtpx:TrackPointExtension></extensions>
      </trkpt>
      <trkpt lat="59.221588" lon="17.745094">
        <ele>37.8</ele>
        <time>2020-03-26T13:46:50Z</time>
        <extensions><gpxtpx:TrackPointExtension><gpxtpx:hr>144</gpxtpx:hr></gpxtpx:TrackPointExtension></extensions>
      </trkpt>
      <trkpt lat="59.221567" lon="17.745222">
        <ele>38</ele>
        <time>2020-03-26T13:46:51Z</time>
        <extensions><gpxtpx:TrackPointExtension><gpxtpx:hr>144</gpxtpx:hr></gpxtpx:TrackPointExtension></extensions>
      </trkpt>
      <trkpt lat="59.221545" lon="17.745352">
        <ele>38</ele>
        <time>2020-03-26T13:46:52Z</time>
        <extensions><gpxtpx:TrackPointExtension><gpxtpx:hr>144</gpxtpx:hr></gpxtpx:TrackPointExtension></extensions>
      </trkpt>
      <trkpt lat="59.221523" lon="17.745481">
        <ele>38</ele>
        <time>2020-03-26T13:46:53Z</time>
        <extensions><gpxtpx:TrackPointExtension><gpxtpx:hr>143</gpxtpx:hr></gpxtpx:TrackPointExtension></extensions>
      </trkpt>
      <trkpt lat="59.221503" lon="17.745611">
        <ele>38</ele>
        <time>2020-03-26T13:46:54Z</time>
        <extensions><gpxtpx:TrackPointExtension><gpxtpx:hr>143</gpxtpx:hr></gpxtpx:TrackPointExtension></extensions>
      </trkpt>
      <trkpt lat="59.221485" lon="17.745741">
        <ele>38</ele>
        <time>2020-03-26T13:46:55Z</time>
        <extensions><gpxtpx:TrackPointExtension><gpxtpx:hr>143</gpxtpx:hr></gpxtpx:TrackPointExtension></extensions>
      </trkpt>
      <trkpt lat="59.221469" lon="17.745872">
        <ele>38</ele>
        <time>2020-03-26T13:46:56Z</time>
        <extensions><gpxtpx:TrackPointExtension><gpxtpx:hr>142</gpxtpx:hr></gpxtpx:TrackPointExtension></extensions>
      </trkpt>
      <trkpt lat="59.221451" lon="17.746005">
        <ele>38</ele>
        <time>2020-03-26T13:46:57Z</time>
        <extensions><gpxtpx:TrackPointExtension><gpxtpx:hr>142</gpxtpx:hr></gpxtpx:TrackPointExtension></extensions>
      </trkpt>
      <trkpt lat="59.221433" lon="17.74614">
        <ele>38</ele>
        <time>2020-03-26T13:46:58Z</time>
        <extensions><gpxtpx:TrackPointExtension><gpxtpx:hr>142</gpxtpx:hr></gpxtpx:TrackPointExtension></extensions>
      </trkpt>
      <trkpt lat="59.221415" lon="17.746278">
        <ele>38</ele>
        <time>2020-03-26T13:46:59Z</time>
        <extensions><gpxtpx:TrackPointExtension><gpxtpx:hr>142</gpxtpx:hr></gpxtpx:TrackPointExtension></extensions>
      </trkpt>
      <trkpt lat="59.221397" lon="17.746415">
        <ele>38</ele>
        <time>2020-03-26T13:47:00Z</time>
        <extensions><gpxtpx:TrackPointExtension><gpxtpx:hr>142</gpxtpx:hr></gpxtpx:TrackPointExtension></extensions>
      </trkpt>
      <trkpt lat="59.221379" lon="17.746551">
        <ele>38</ele>
        <time>2020-03-26T13:47:01Z</time>
        <extensions><gpxtpx:TrackPointExtension><gpxtpx:hr>142</gpxtpx:hr></gpxtpx:TrackPointExtension></extensions>
      </trkpt>
      <trkpt lat="59.221361" lon="17.746685">
        <ele>37.8</ele>
        <time>2020-03-26T13:47:02Z</time>
        <extensions><gpxtpx:TrackPointExtension><gpxtpx:hr>143</gpxtpx:hr></gpxtpx:TrackPointExtension></extensions>
      </trkpt>
      <trkpt lat="59.221344" lon="17.746816">
        <ele>37.8</ele>
        <time>2020-03-26T13:47:03Z</time>
        <extensions><gpxtpx:TrackPointExtension><gpxtpx:hr>143</gpxtpx:hr></gpxtpx:TrackPointExtension></extensions>
      </trkpt>
      <trkpt lat="59.221327" lon="17.746947">
        <ele>37.4</ele>
        <time>2020-03-26T13:47:04Z</time>
        <extensions><gpxtpx:TrackPointExtension><gpxtpx:hr>143</gpxtpx:hr></gpxtpx:TrackPointExtension></extensions>
      </trkpt>
      <trkpt lat="59.221309" lon="17.747077">
        <ele>37.2</ele>
        <time>2020-03-26T13:47:05Z</time>
        <extensions><gpxtpx:TrackPointExtension><gpxtpx:hr>143</gpxtpx:hr></gpxtpx:TrackPointExtension></extensions>
      </trkpt>
      <trkpt lat="59.221291" lon="17.747204">
        <ele>37.2</ele>
        <time>2020-03-26T13:47:06Z</time>
        <extensions><gpxtpx:TrackPointExtension><gpxtpx:hr>143</gpxtpx:hr></gpxtpx:TrackPointExtension></extensions>
      </trkpt>
      <trkpt lat="59.221274" lon="17.747331">
        <ele>37.2</ele>
        <time>2020-03-26T13:47:07Z</time>
        <extensions><gpxtpx:TrackPointExtension><gpxtpx:hr>143</gpxtpx:hr></gpxtpx:TrackPointExtension></extensions>
      </trkpt>
      <trkpt lat="59.221256" lon="17.747458">
        <ele>37</ele>
        <time>2020-03-26T13:47:08Z</time>
        <extensions><gpxtpx:TrackPointExtension><gpxtpx:hr>143</gpxtpx:hr></gpxtpx:TrackPointExtension></extensions>
      </trkpt>
      <trkpt lat="59.221237" lon="17.747584">
        <ele>37</ele>
        <time>2020-03-26T13:47:09Z</time>
        <extensions><gpxtpx:TrackPointExtension><gpxtpx:hr>142</gpxtpx:hr></gpxtpx:TrackPointExtension></extensions>
      </trkpt>
      <trkpt lat="59.221218" lon="17.747711">
        <ele>37</ele>
        <time>2020-03-26T13:47:10Z</time>
        <extensions><gpxtpx:TrackPointExtension><gpxtpx:hr>142</gpxtpx:hr></gpxtpx:TrackPointExtension></extensions>
      </trkpt>
      <trkpt lat="59.2212" lon="17.747837">
        <ele>37</ele>
        <time>2020-03-26T13:47:11Z</time>
        <extensions><gpxtpx:TrackPointExtension><gpxtpx:hr>142</gpxtpx:hr></gpxtpx:TrackPointExtension></extensions>
      </trkpt>
      <trkpt lat="59.22118" lon="17.747962">
        <ele>36.8</ele>
        <time>2020-03-26T13:47:12Z</time>
        <extensions><gpxtpx:TrackPointExtension><gpxtpx:hr>142</gpxtpx:hr></gpxtpx:TrackPointExtension></extensions>
      </trkpt>
      <trkpt lat="59.221162" lon="17.748087">
        <ele>36.8</ele>
        <time>2020-03-26T13:47:13Z</time>
        <extensions><gpxtpx:TrackPointExtension><gpxtpx:hr>142</gpxtpx:hr></gpxtpx:TrackPointExtension></extensions>
      </trkpt>
      <trkpt lat="59.221145" lon="17.748211">
        <ele>36.8</ele>
        <time>2020-03-26T13:47:14Z</time>
        <extensions><gpxtpx:TrackPointExtension><gpxtpx:hr>142</gpxtpx:hr></gpxtpx:TrackPointExtension></extensions>
      </trkpt>
      <trkpt lat="59.221127" lon="17.748333">
        <ele>36.8</ele>
        <time>2020-03-26T13:47:15Z</time>
        <extensions><gpxtpx:TrackPointExtension><gpxtpx:hr>142</gpxtpx:hr></gpxtpx:TrackPointExtension></extensions>
      </trkpt>
      <trkpt lat="59.221109" lon="17.748456">
        <ele>36.8</ele>
        <time>2020-03-26T13:47:16Z</time>
        <extensions><gpxtpx:TrackPointExtension><gpxtpx:hr>142</gpxtpx:hr></gpxtpx:TrackPointExtension></extensions>
      </trkpt>
      <trkpt lat="59.221091" lon="17.748578">
        <ele>36.6</ele>
        <time>2020-03-26T13:47:17Z</time>
        <extensions><gpxtpx:TrackPointExtension><gpxtpx:hr>142</gpxtpx:hr></gpxtpx:TrackPointExtension></extensions>
      </trkpt>
      <trkpt lat="59.221073" lon="17.748702">
        <ele>36.6</ele>
        <time>2020-03-26T13:47:18Z</time>
        <extensions><gpxtpx:TrackPointExtension><gpxtpx:hr>142</gpxtpx:hr></gpxtpx:TrackPointExtension></extensions>
      </trkpt>
      <trkpt lat="59.221055" lon="17.748828">
        <ele>36.6</ele>
        <time>2020-03-26T13:47:19Z</time>
        <extensions><gpxtpx:TrackPointExtension><gpxtpx:hr>142</gpxtpx:hr></gpxtpx:TrackPointExtension></extensions>
      </trkpt>
      <trkpt lat="59.221036" lon="17.748954">
        <ele>36.6</ele>
        <time>2020-03-26T13:47:20Z</time>
        <extensions><gpxtpx:TrackPointExtension><gpxtpx:hr>142</gpxtpx:hr></gpxtpx:TrackPointExtension></extensions>
      </trkpt>
      <trkpt lat="59.221017" lon="17.749082">
        <ele>36.6</ele>
        <time>2020-03-26T13:47:21Z</time>
        <extensions><gpxtpx:TrackPointExtension><gpxtpx:hr>141</gpxtpx:hr></gpxtpx:TrackPointExtension></extensions>
      </trkpt>
      <trkpt lat="59.220998" lon="17.749213">
        <ele>36.6</ele>
        <time>2020-03-26T13:47:22Z</time>
        <extensions><gpxtpx:TrackPointExtension><gpxtpx:hr>141</gpxtpx:hr></gpxtpx:TrackPointExtension></extensions>
      </trkpt>
      <trkpt lat="59.22098" lon="17.749346">
        <ele>36.8</ele>
        <time>2020-03-26T13:47:23Z</time>
        <extensions><gpxtpx:TrackPointExtension><gpxtpx:hr>141</gpxtpx:hr></gpxtpx:TrackPointExtension></extensions>
      </trkpt>
      <trkpt lat="59.220962" lon="17.74948">
        <ele>36.6</ele>
        <time>2020-03-26T13:47:24Z</time>
        <extensions><gpxtpx:TrackPointExtension><gpxtpx:hr>141</gpxtpx:hr></gpxtpx:TrackPointExtension></extensions>
      </trkpt>
      <trkpt lat="59.220944" lon="17.749615">
        <ele>36.6</ele>
        <time>2020-03-26T13:47:25Z</time>
        <extensions><gpxtpx:TrackPointExtension><gpxtpx:hr>140</gpxtpx:hr></gpxtpx:TrackPointExtension></extensions>
      </trkpt>
      <trkpt lat="59.220925" lon="17.74975">
        <ele>36.6</ele>
        <time>2020-03-26T13:47:26Z</time>
        <extensions><gpxtpx:TrackPointExtension><gpxtpx:hr>140</gpxtpx:hr></gpxtpx:TrackPointExtension></extensions>
      </trkpt>
      <trkpt lat="59.220903" lon="17.749885">
        <ele>36.6</ele>
        <time>2020-03-26T13:47:27Z</time>
        <extensions><gpxtpx:TrackPointExtension><gpxtpx:hr>140</gpxtpx:hr></gpxtpx:TrackPointExtension></extensions>
      </trkpt>
      <trkpt lat="59.220881" lon="17.75002">
        <ele>36.6</ele>
        <time>2020-03-26T13:47:28Z</time>
        <extensions><gpxtpx:TrackPointExtension><gpxtpx:hr>139</gpxtpx:hr></gpxtpx:TrackPointExtension></extensions>
      </trkpt>
      <trkpt lat="59.220858" lon="17.750157">
        <ele>36.6</ele>
        <time>2020-03-26T13:47:29Z</time>
        <extensions><gpxtpx:TrackPointExtension><gpxtpx:hr>139</gpxtpx:hr></gpxtpx:TrackPointExtension></extensions>
      </trkpt>
      <trkpt lat="59.220837" lon="17.750295">
        <ele>36.6</ele>
        <time>2020-03-26T13:47:30Z</time>
        <extensions><gpxtpx:TrackPointExtension><gpxtpx:hr>139</gpxtpx:hr></gpxtpx:TrackPointExtension></extensions>
      </trkpt>
      <trkpt lat="59.220816" lon="17.750436">
        <ele>36.6</ele>
        <time>2020-03-26T13:47:31Z</time>
        <extensions><gpxtpx:TrackPointExtension><gpxtpx:hr>138</gpxtpx:hr></gpxtpx:TrackPointExtension></extensions>
      </trkpt>
      <trkpt lat="59.220796" lon="17.750577">
        <ele>36.6</ele>
        <time>2020-03-26T13:47:32Z</time>
        <extensions><gpxtpx:TrackPointExtension><gpxtpx:hr>138</gpxtpx:hr></gpxtpx:TrackPointExtension></extensions>
      </trkpt>
      <trkpt lat="59.220776" lon="17.750719">
        <ele>36.4</ele>
        <time>2020-03-26T13:47:33Z</time>
        <extensions><gpxtpx:TrackPointExtension><gpxtpx:hr>137</gpxtpx:hr></gpxtpx:TrackPointExtension></extensions>
      </trkpt>
      <trkpt lat="59.220755" lon="17.750859">
        <ele>36</ele>
        <time>2020-03-26T13:47:34Z</time>
        <extensions><gpxtpx:TrackPointExtension><gpxtpx:hr>137</gpxtpx:hr></gpxtpx:TrackPointExtension></extensions>
      </trkpt>
      <trkpt lat="59.220734" lon="17.751001">
        <ele>35.8</ele>
        <time>2020-03-26T13:47:35Z</time>
        <extensions><gpxtpx:TrackPointExtension><gpxtpx:hr>136</gpxtpx:hr></gpxtpx:TrackPointExtension></extensions>
      </trkpt>
      <trkpt lat="59.220712" lon="17.751142">
        <ele>35.6</ele>
        <time>2020-03-26T13:47:36Z</time>
        <extensions><gpxtpx:TrackPointExtension><gpxtpx:hr>136</gpxtpx:hr></gpxtpx:TrackPointExtension></extensions>
      </trkpt>
      <trkpt lat="59.22069" lon="17.751282">
        <ele>35.4</ele>
        <time>2020-03-26T13:47:37Z</time>
        <extensions><gpxtpx:TrackPointExtension><gpxtpx:hr>136</gpxtpx:hr></gpxtpx:TrackPointExtension></extensions>
      </trkpt>
      <trkpt lat="59.22067" lon="17.751419">
        <ele>35.4</ele>
        <time>2020-03-26T13:47:38Z</time>
        <extensions><gpxtpx:TrackPointExtension><gpxtpx:hr>136</gpxtpx:hr></gpxtpx:TrackPointExtension></extensions>
      </trkpt>
      <trkpt lat="59.220651" lon="17.751555">
        <ele>35.4</ele>
        <time>2020-03-26T13:47:39Z</time>
        <extensions><gpxtpx:TrackPointExtension><gpxtpx:hr>136</gpxtpx:hr></gpxtpx:TrackPointExtension></extensions>
      </trkpt>
      <trkpt lat="59.220631" lon="17.75169">
        <ele>35.4</ele>
        <time>2020-03-26T13:47:40Z</time>
        <extensions><gpxtpx:TrackPointExtension><gpxtpx:hr>136</gpxtpx:hr></gpxtpx:TrackPointExtension></extensions>
      </trkpt>
      <trkpt lat="59.220609" lon="17.751824">
        <ele>35.2</ele>
        <time>2020-03-26T13:47:41Z</time>
        <extensions><gpxtpx:TrackPointExtension><gpxtpx:hr>135</gpxtpx:hr></gpxtpx:TrackPointExtension></extensions>
      </trkpt>
      <trkpt lat="59.220585" lon="17.751957">
        <ele>35.2</ele>
        <time>2020-03-26T13:47:42Z</time>
        <extensions><gpxtpx:TrackPointExtension><gpxtpx:hr>135</gpxtpx:hr></gpxtpx:TrackPointExtension></extensions>
      </trkpt>
      <trkpt lat="59.220562" lon="17.752092">
        <ele>35</ele>
        <time>2020-03-26T13:47:43Z</time>
        <extensions><gpxtpx:TrackPointExtension><gpxtpx:hr>135</gpxtpx:hr></gpxtpx:TrackPointExtension></extensions>
      </trkpt>
      <trkpt lat="59.220538" lon="17.752228">
        <ele>35</ele>
        <time>2020-03-26T13:47:44Z</time>
        <extensions><gpxtpx:TrackPointExtension><gpxtpx:hr>135</gpxtpx:hr></gpxtpx:TrackPointExtension></extensions>
      </trkpt>
      <trkpt lat="59.220512" lon="17.752363">
        <ele>34.8</ele>
        <time>2020-03-26T13:47:45Z</time>
        <extensions><gpxtpx:TrackPointExtension><gpxtpx:hr>135</gpxtpx:hr></gpxtpx:TrackPointExtension></extensions>
      </trkpt>
      <trkpt lat="59.220485" lon="17.752494">
        <ele>34.8</ele>
        <time>2020-03-26T13:47:46Z</time>
        <extensions><gpxtpx:TrackPointExtension><gpxtpx:hr>135</gpxtpx:hr></gpxtpx:TrackPointExtension></extensions>
      </trkpt>
      <trkpt lat="59.220456" lon="17.752621">
        <ele>34.6</ele>
        <time>2020-03-26T13:47:47Z</time>
        <extensions><gpxtpx:TrackPointExtension><gpxtpx:hr>135</gpxtpx:hr></gpxtpx:TrackPointExtension></extensions>
      </trkpt>
      <trkpt lat="59.220425" lon="17.752743">
        <ele>34.6</ele>
        <time>2020-03-26T13:47:48Z</time>
        <extensions><gpxtpx:TrackPointExtension><gpxtpx:hr>135</gpxtpx:hr></gpxtpx:TrackPointExtension></extensions>
      </trkpt>
      <trkpt lat="59.220394" lon="17.752861">
        <ele>34.4</ele>
        <time>2020-03-26T13:47:49Z</time>
        <extensions><gpxtpx:TrackPointExtension><gpxtpx:hr>135</gpxtpx:hr></gpxtpx:TrackPointExtension></extensions>
      </trkpt>
      <trkpt lat="59.220363" lon="17.752974">
        <ele>34.4</ele>
        <time>2020-03-26T13:47:50Z</time>
        <extensions><gpxtpx:TrackPointExtension><gpxtpx:hr>135</gpxtpx:hr></gpxtpx:TrackPointExtension></extensions>
      </trkpt>
      <trkpt lat="59.220331" lon="17.753084">
        <ele>34.2</ele>
        <time>2020-03-26T13:47:51Z</time>
        <extensions><gpxtpx:TrackPointExtension><gpxtpx:hr>135</gpxtpx:hr></gpxtpx:TrackPointExtension></extensions>
      </trkpt>
      <trkpt lat="59.220299" lon="17.753192">
        <ele>34</ele>
        <time>2020-03-26T13:47:52Z</time>
        <extensions><gpxtpx:TrackPointExtension><gpxtpx:hr>135</gpxtpx:hr></gpxtpx:TrackPointExtension></extensions>
      </trkpt>
      <trkpt lat="59.220267" lon="17.753297">
        <ele>34</ele>
        <time>2020-03-26T13:47:53Z</time>
        <extensions><gpxtpx:TrackPointExtension><gpxtpx:hr>135</gpxtpx:hr></gpxtpx:TrackPointExtension></extensions>
      </trkpt>
      <trkpt lat="59.220235" lon="17.753403">
        <ele>34</ele>
        <time>2020-03-26T13:47:54Z</time>
        <extensions><gpxtpx:TrackPointExtension><gpxtpx:hr>134</gpxtpx:hr></gpxtpx:TrackPointExtension></extensions>
      </trkpt>
      <trkpt lat="59.220203" lon="17.75351">
        <ele>34</ele>
        <time>2020-03-26T13:47:55Z</time>
        <extensions><gpxtpx:TrackPointExtension><gpxtpx:hr>134</gpxtpx:hr></gpxtpx:TrackPointExtension></extensions>
      </trkpt>
      <trkpt lat="59.22017" lon="17.753616">
        <ele>34</ele>
        <time>2020-03-26T13:47:56Z</time>
        <extensions><gpxtpx:TrackPointExtension><gpxtpx:hr>134</gpxtpx:hr></gpxtpx:TrackPointExtension></extensions>
      </trkpt>
      <trkpt lat="59.220136" lon="17.753724">
        <ele>34.2</ele>
        <time>2020-03-26T13:47:57Z</time>
        <extensions><gpxtpx:TrackPointExtension><gpxtpx:hr>134</gpxtpx:hr></gpxtpx:TrackPointExtension></extensions>
      </trkpt>
      <trkpt lat="59.220102" lon="17.753831">
        <ele>34.2</ele>
        <time>2020-03-26T13:47:58Z</time>
        <extensions><gpxtpx:TrackPointExtension><gpxtpx:hr>135</gpxtpx:hr></gpxtpx:TrackPointExtension></extensions>
      </trkpt>
      <trkpt lat="59.22007" lon="17.75394">
        <ele>34.2</ele>
        <time>2020-03-26T13:47:59Z</time>
        <extensions><gpxtpx:TrackPointExtension><gpxtpx:hr>135</gpxtpx:hr></gpxtpx:TrackPointExtension></extensions>
      </trkpt>
      <trkpt lat="59.220038" lon="17.754051">
        <ele>34.2</ele>
        <time>2020-03-26T13:48:00Z</time>
        <extensions><gpxtpx:TrackPointExtension><gpxtpx:hr>136</gpxtpx:hr></gpxtpx:TrackPointExtension></extensions>
      </trkpt>
      <trkpt lat="59.220005" lon="17.754162">
        <ele>34.2</ele>
        <time>2020-03-26T13:48:01Z</time>
        <extensions><gpxtpx:TrackPointExtension><gpxtpx:hr>136</gpxtpx:hr></gpxtpx:TrackPointExtension></extensions>
      </trkpt>
      <trkpt lat="59.219972" lon="17.754272">
        <ele>34.2</ele>
        <time>2020-03-26T13:48:02Z</time>
        <extensions><gpxtpx:TrackPointExtension><gpxtpx:hr>136</gpxtpx:hr></gpxtpx:TrackPointExtension></extensions>
      </trkpt>
      <trkpt lat="59.219938" lon="17.754382">
        <ele>34.4</ele>
        <time>2020-03-26T13:48:03Z</time>
        <extensions><gpxtpx:TrackPointExtension><gpxtpx:hr>136</gpxtpx:hr></gpxtpx:TrackPointExtension></extensions>
      </trkpt>
      <trkpt lat="59.219902" lon="17.75449">
        <ele>34.4</ele>
        <time>2020-03-26T13:48:04Z</time>
        <extensions><gpxtpx:TrackPointExtension><gpxtpx:hr>137</gpxtpx:hr></gpxtpx:TrackPointExtension></extensions>
      </trkpt>
      <trkpt lat="59.219866" lon="17.754598">
        <ele>34.4</ele>
        <time>2020-03-26T13:48:05Z</time>
        <extensions><gpxtpx:TrackPointExtension><gpxtpx:hr>137</gpxtpx:hr></gpxtpx:TrackPointExtension></extensions>
      </trkpt>
      <trkpt lat="59.219831" lon="17.754709">
        <ele>34.4</ele>
        <time>2020-03-26T13:48:06Z</time>
        <extensions><gpxtpx:TrackPointExtension><gpxtpx:hr>138</gpxtpx:hr></gpxtpx:TrackPointExtension></extensions>
      </trkpt>
      <trkpt lat="59.219796" lon="17.754819">
        <ele>34.6</ele>
        <time>2020-03-26T13:48:07Z</time>
        <extensions><gpxtpx:TrackPointExtension><gpxtpx:hr>139</gpxtpx:hr></gpxtpx:TrackPointExtension></extensions>
      </trkpt>
      <trkpt lat="59.219761" lon="17.754932">
        <ele>34.6</ele>
        <time>2020-03-26T13:48:08Z</time>
        <extensions><gpxtpx:TrackPointExtension><gpxtpx:hr>139</gpxtpx:hr></gpxtpx:TrackPointExtension></extensions>
      </trkpt>
      <trkpt lat="59.219724" lon="17.755046">
        <ele>34.6</ele>
        <time>2020-03-26T13:48:09Z</time>
        <extensions><gpxtpx:TrackPointExtension><gpxtpx:hr>139</gpxtpx:hr></gpxtpx:TrackPointExtension></extensions>
      </trkpt>
      <trkpt lat="59.219687" lon="17.755163">
        <ele>34.6</ele>
        <time>2020-03-26T13:48:10Z</time>
        <extensions><gpxtpx:TrackPointExtension><gpxtpx:hr>139</gpxtpx:hr></gpxtpx:TrackPointExtension></extensions>
      </trkpt>
      <trkpt lat="59.21965" lon="17.755281">
        <ele>34.6</ele>
        <time>2020-03-26T13:48:11Z</time>
        <extensions><gpxtpx:TrackPointExtension><gpxtpx:hr>139</gpxtpx:hr></gpxtpx:TrackPointExtension></extensions>
      </trkpt>
      <trkpt lat="59.219613" lon="17.755398">
        <ele>34.8</ele>
        <time>2020-03-26T13:48:12Z</time>
        <extensions><gpxtpx:TrackPointExtension><gpxtpx:hr>139</gpxtpx:hr></gpxtpx:TrackPointExtension></extensions>
      </trkpt>
      <trkpt lat="59.219575" lon="17.755517">
        <ele>34.8</ele>
        <time>2020-03-26T13:48:13Z</time>
        <extensions><gpxtpx:TrackPointExtension><gpxtpx:hr>139</gpxtpx:hr></gpxtpx:TrackPointExtension></extensions>
      </trkpt>
      <trkpt lat="59.219537" lon="17.755635">
        <ele>35</ele>
        <time>2020-03-26T13:48:14Z</time>
        <extensions><gpxtpx:TrackPointExtension><gpxtpx:hr>139</gpxtpx:hr></gpxtpx:TrackPointExtension></extensions>
      </trkpt>
      <trkpt lat="59.2195" lon="17.755755">
        <ele>35</ele>
        <time>2020-03-26T13:48:15Z</time>
        <extensions><gpxtpx:TrackPointExtension><gpxtpx:hr>139</gpxtpx:hr></gpxtpx:TrackPointExtension></extensions>
      </trkpt>
      <trkpt lat="59.219463" lon="17.755876">
        <ele>35</ele>
        <time>2020-03-26T13:48:16Z</time>
        <extensions><gpxtpx:TrackPointExtension><gpxtpx:hr>140</gpxtpx:hr></gpxtpx:TrackPointExtension></extensions>
      </trkpt>
      <trkpt lat="59.219424" lon="17.755999">
        <ele>35</ele>
        <time>2020-03-26T13:48:17Z</time>
        <extensions><gpxtpx:TrackPointExtension><gpxtpx:hr>140</gpxtpx:hr></gpxtpx:TrackPointExtension></extensions>
      </trkpt>
      <trkpt lat="59.219386" lon="17.756122">
        <ele>35</ele>
        <time>2020-03-26T13:48:18Z</time>
        <extensions><gpxtpx:TrackPointExtension><gpxtpx:hr>141</gpxtpx:hr></gpxtpx:TrackPointExtension></extensions>
      </trkpt>
      <trkpt lat="59.219346" lon="17.756246">
        <ele>35</ele>
        <time>2020-03-26T13:48:19Z</time>
        <extensions><gpxtpx:TrackPointExtension><gpxtpx:hr>141</gpxtpx:hr></gpxtpx:TrackPointExtension></extensions>
      </trkpt>
      <trkpt lat="59.219307" lon="17.756369">
        <ele>35</ele>
        <time>2020-03-26T13:48:20Z</time>
        <extensions><gpxtpx:TrackPointExtension><gpxtpx:hr>142</gpxtpx:hr></gpxtpx:TrackPointExtension></extensions>
      </trkpt>
      <trkpt lat="59.219269" lon="17.756492">
        <ele>35</ele>
        <time>2020-03-26T13:48:21Z</time>
        <extensions><gpxtpx:TrackPointExtension><gpxtpx:hr>142</gpxtpx:hr></gpxtpx:TrackPointExtension></extensions>
      </trkpt>
      <trkpt lat="59.21923" lon="17.756612">
        <ele>35.2</ele>
        <time>2020-03-26T13:48:22Z</time>
        <extensions><gpxtpx:TrackPointExtension><gpxtpx:hr>143</gpxtpx:hr></gpxtpx:TrackPointExtension></extensions>
      </trkpt>
      <trkpt lat="59.219191" lon="17.756732">
        <ele>35.2</ele>
        <time>2020-03-26T13:48:23Z</time>
        <extensions><gpxtpx:TrackPointExtension><gpxtpx:hr>143</gpxtpx:hr></gpxtpx:TrackPointExtension></extensions>
      </trkpt>
      <trkpt lat="59.219152" lon="17.756852">
        <ele>35.2</ele>
        <time>2020-03-26T13:48:24Z</time>
        <extensions><gpxtpx:TrackPointExtension><gpxtpx:hr>143</gpxtpx:hr></gpxtpx:TrackPointExtension></extensions>
      </trkpt>
      <trkpt lat="59.219114" lon="17.756972">
        <ele>35.2</ele>
        <time>2020-03-26T13:48:25Z</time>
        <extensions><gpxtpx:TrackPointExtension><gpxtpx:hr>144</gpxtpx:hr></gpxtpx:TrackPointExtension></extensions>
      </trkpt>
      <trkpt lat="59.219075" lon="17.757091">
        <ele>35.2</ele>
        <time>2020-03-26T13:48:26Z</time>
        <extensions><gpxtpx:TrackPointExtension><gpxtpx:hr>144</gpxtpx:hr></gpxtpx:TrackPointExtension></extensions>
      </trkpt>
      <trkpt lat="59.219037" lon="17.757208">
        <ele>35.2</ele>
        <time>2020-03-26T13:48:27Z</time>
        <extensions><gpxtpx:TrackPointExtension><gpxtpx:hr>145</gpxtpx:hr></gpxtpx:TrackPointExtension></extensions>
      </trkpt>
      <trkpt lat="59.218999" lon="17.757323">
        <ele>35.2</ele>
        <time>2020-03-26T13:48:28Z</time>
        <extensions><gpxtpx:TrackPointExtension><gpxtpx:hr>145</gpxtpx:hr></gpxtpx:TrackPointExtension></extensions>
      </trkpt>
      <trkpt lat="59.218962" lon="17.757438">
        <ele>35.2</ele>
        <time>2020-03-26T13:48:29Z</time>
        <extensions><gpxtpx:TrackPointExtension><gpxtpx:hr>146</gpxtpx:hr></gpxtpx:TrackPointExtension></extensions>
      </trkpt>
      <trkpt lat="59.218925" lon="17.757552">
        <ele>35.2</ele>
        <time>2020-03-26T13:48:30Z</time>
        <extensions><gpxtpx:TrackPointExtension><gpxtpx:hr>146</gpxtpx:hr></gpxtpx:TrackPointExtension></extensions>
      </trkpt>
      <trkpt lat="59.218888" lon="17.757665">
        <ele>35.2</ele>
        <time>2020-03-26T13:48:31Z</time>
        <extensions><gpxtpx:TrackPointExtension><gpxtpx:hr>147</gpxtpx:hr></gpxtpx:TrackPointExtension></extensions>
      </trkpt>
      <trkpt lat="59.218851" lon="17.757776">
        <ele>35.4</ele>
        <time>2020-03-26T13:48:32Z</time>
        <extensions><gpxtpx:TrackPointExtension><gpxtpx:hr>147</gpxtpx:hr></gpxtpx:TrackPointExtension></extensions>
      </trkpt>
      <trkpt lat="59.218815" lon="17.757886">
        <ele>35.4</ele>
        <time>2020-03-26T13:48:33Z</time>
        <extensions><gpxtpx:TrackPointExtension><gpxtpx:hr>148</gpxtpx:hr></gpxtpx:TrackPointExtension></extensions>
      </trkpt>
      <trkpt lat="59.218779" lon="17.757995">
        <ele>35.4</ele>
        <time>2020-03-26T13:48:34Z</time>
        <extensions><gpxtpx:TrackPointExtension><gpxtpx:hr>148</gpxtpx:hr></gpxtpx:TrackPointExtension></extensions>
      </trkpt>
      <trkpt lat="59.218744" lon="17.758103">
        <ele>35.4</ele>
        <time>2020-03-26T13:48:35Z</time>
        <extensions><gpxtpx:TrackPointExtension><gpxtpx:hr>149</gpxtpx:hr></gpxtpx:TrackPointExtension></extensions>
      </trkpt>
      <trkpt lat="59.218709" lon="17.75821">
        <ele>35.6</ele>
        <time>2020-03-26T13:48:36Z</time>
        <extensions><gpxtpx:TrackPointExtension><gpxtpx:hr>149</gpxtpx:hr></gpxtpx:TrackPointExtension></extensions>
      </trkpt>
      <trkpt lat="59.218674" lon="17.758317">
        <ele>35.8</ele>
        <time>2020-03-26T13:48:37Z</time>
        <extensions><gpxtpx:TrackPointExtension><gpxtpx:hr>149</gpxtpx:hr></gpxtpx:TrackPointExtension></extensions>
      </trkpt>
      <trkpt lat="59.218639" lon="17.758426">
        <ele>36.2</ele>
        <time>2020-03-26T13:48:38Z</time>
        <extensions><gpxtpx:TrackPointExtension><gpxtpx:hr>150</gpxtpx:hr></gpxtpx:TrackPointExtension></extensions>
      </trkpt>
      <trkpt lat="59.218605" lon="17.758537">
        <ele>36.4</ele>
        <time>2020-03-26T13:48:39Z</time>
        <extensions><gpxtpx:TrackPointExtension><gpxtpx:hr>150</gpxtpx:hr></gpxtpx:TrackPointExtension></extensions>
      </trkpt>
      <trkpt lat="59.21857" lon="17.758649">
        <ele>36.6</ele>
        <time>2020-03-26T13:48:40Z</time>
        <extensions><gpxtpx:TrackPointExtension><gpxtpx:hr>150</gpxtpx:hr></gpxtpx:TrackPointExtension></extensions>
      </trkpt>
      <trkpt lat="59.218534" lon="17.758758">
        <ele>36.6</ele>
        <time>2020-03-26T13:48:41Z</time>
        <extensions><gpxtpx:TrackPointExtension><gpxtpx:hr>150</gpxtpx:hr></gpxtpx:TrackPointExtension></extensions>
      </trkpt>
      <trkpt lat="59.218496" lon="17.758865">
        <ele>36.8</ele>
        <time>2020-03-26T13:48:42Z</time>
        <extensions><gpxtpx:TrackPointExtension><gpxtpx:hr>150</gpxtpx:hr></gpxtpx:TrackPointExtension></extensions>
      </trkpt>
      <trkpt lat="59.218458" lon="17.758974">
        <ele>36.8</ele>
        <time>2020-03-26T13:48:43Z</time>
        <extensions><gpxtpx:TrackPointExtension><gpxtpx:hr>151</gpxtpx:hr></gpxtpx:TrackPointExtension></extensions>
      </trkpt>
      <trkpt lat="59.218422" lon="17.759084">
        <ele>37</ele>
        <time>2020-03-26T13:48:44Z</time>
        <extensions><gpxtpx:TrackPointExtension><gpxtpx:hr>151</gpxtpx:hr></gpxtpx:TrackPointExtension></extensions>
      </trkpt>
      <trkpt lat="59.218385" lon="17.759193">
        <ele>37</ele>
        <time>2020-03-26T13:48:45Z</time>
        <extensions><gpxtpx:TrackPointExtension><gpxtpx:hr>151</gpxtpx:hr></gpxtpx:TrackPointExtension></extensions>
      </trkpt>
      <trkpt lat="59.218347" lon="17.759302">
        <ele>37</ele>
        <time>2020-03-26T13:48:46Z</time>
        <extensions><gpxtpx:TrackPointExtension><gpxtpx:hr>152</gpxtpx:hr></gpxtpx:TrackPointExtension></extensions>
      </trkpt>
      <trkpt lat="59.218309" lon="17.759412">
        <ele>37</ele>
        <time>2020-03-26T13:48:47Z</time>
        <extensions><gpxtpx:TrackPointExtension><gpxtpx:hr>152</gpxtpx:hr></gpxtpx:TrackPointExtension></extensions>
      </trkpt>
      <trkpt lat="59.218271" lon="17.759524">
        <ele>37.2</ele>
        <time>2020-03-26T13:48:48Z</time>
        <extensions><gpxtpx:TrackPointExtension><gpxtpx:hr>152</gpxtpx:hr></gpxtpx:TrackPointExtension></extensions>
      </trkpt>
      <trkpt lat="59.218235" lon="17.759639">
        <ele>37.2</ele>
        <time>2020-03-26T13:48:49Z</time>
        <extensions><gpxtpx:TrackPointExtension><gpxtpx:hr>152</gpxtpx:hr></gpxtpx:TrackPointExtension></extensions>
      </trkpt>
      <trkpt lat="59.218198" lon="17.759754">
        <ele>37.2</ele>
        <time>2020-03-26T13:48:50Z</time>
        <extensions><gpxtpx:TrackPointExtension><gpxtpx:hr>152</gpxtpx:hr></gpxtpx:TrackPointExtension></extensions>
      </trkpt>
      <trkpt lat="59.218161" lon="17.759868">
        <ele>37.2</ele>
        <time>2020-03-26T13:48:51Z</time>
        <extensions><gpxtpx:TrackPointExtension><gpxtpx:hr>152</gpxtpx:hr></gpxtpx:TrackPointExtension></extensions>
      </trkpt>
      <trkpt lat="59.218123" lon="17.759983">
        <ele>37.2</ele>
        <time>2020-03-26T13:48:52Z</time>
        <extensions><gpxtpx:TrackPointExtension><gpxtpx:hr>152</gpxtpx:hr></gpxtpx:TrackPointExtension></extensions>
      </trkpt>
      <trkpt lat="59.218083" lon="17.760099">
        <ele>37.2</ele>
        <time>2020-03-26T13:48:53Z</time>
        <extensions><gpxtpx:TrackPointExtension><gpxtpx:hr>151</gpxtpx:hr></gpxtpx:TrackPointExtension></extensions>
      </trkpt>
      <trkpt lat="59.218044" lon="17.760217">
        <ele>37.2</ele>
        <time>2020-03-26T13:48:54Z</time>
        <extensions><gpxtpx:TrackPointExtension><gpxtpx:hr>151</gpxtpx:hr></gpxtpx:TrackPointExtension></extensions>
      </trkpt>
      <trkpt lat="59.218006" lon="17.760336">
        <ele>37</ele>
        <time>2020-03-26T13:48:55Z</time>
        <extensions><gpxtpx:TrackPointExtension><gpxtpx:hr>151</gpxtpx:hr></gpxtpx:TrackPointExtension></extensions>
      </trkpt>
      <trkpt lat="59.217968" lon="17.760454">
        <ele>37</ele>
        <time>2020-03-26T13:48:56Z</time>
        <extensions><gpxtpx:TrackPointExtension><gpxtpx:hr>151</gpxtpx:hr></gpxtpx:TrackPointExtension></extensions>
      </trkpt>
      <trkpt lat="59.217929" lon="17.76057">
        <ele>37</ele>
        <time>2020-03-26T13:48:57Z</time>
        <extensions><gpxtpx:TrackPointExtension><gpxtpx:hr>151</gpxtpx:hr></gpxtpx:TrackPointExtension></extensions>
      </trkpt>
      <trkpt lat="59.217889" lon="17.760687">
        <ele>36.8</ele>
        <time>2020-03-26T13:48:58Z</time>
        <extensions><gpxtpx:TrackPointExtension><gpxtpx:hr>151</gpxtpx:hr></gpxtpx:TrackPointExtension></extensions>
      </trkpt>
      <trkpt lat="59.21785" lon="17.760805">
        <ele>36.8</ele>
        <time>2020-03-26T13:48:59Z</time>
        <extensions><gpxtpx:TrackPointExtension><gpxtpx:hr>151</gpxtpx:hr></gpxtpx:TrackPointExtension></extensions>
      </trkpt>
      <trkpt lat="59.217809" lon="17.760919">
        <ele>36.6</ele>
        <time>2020-03-26T13:49:00Z</time>
        <extensions><gpxtpx:TrackPointExtension><gpxtpx:hr>151</gpxtpx:hr></gpxtpx:TrackPointExtension></extensions>
      </trkpt>
      <trkpt lat="59.217768" lon="17.76103">
        <ele>36.6</ele>
        <time>2020-03-26T13:49:01Z</time>
        <extensions><gpxtpx:TrackPointExtension><gpxtpx:hr>151</gpxtpx:hr></gpxtpx:TrackPointExtension></extensions>
      </trkpt>
      <trkpt lat="59.217731" lon="17.761143">
        <ele>36.6</ele>
        <time>2020-03-26T13:49:02Z</time>
        <extensions><gpxtpx:TrackPointExtension><gpxtpx:hr>151</gpxtpx:hr></gpxtpx:TrackPointExtension></extensions>
      </trkpt>
      <trkpt lat="59.217695" lon="17.761257">
        <ele>36.4</ele>
        <time>2020-03-26T13:49:03Z</time>
        <extensions><gpxtpx:TrackPointExtension><gpxtpx:hr>150</gpxtpx:hr></gpxtpx:TrackPointExtension></extensions>
      </trkpt>
      <trkpt lat="59.217659" lon="17.76137">
        <ele>36.4</ele>
        <time>2020-03-26T13:49:04Z</time>
        <extensions><gpxtpx:TrackPointExtension><gpxtpx:hr>150</gpxtpx:hr></gpxtpx:TrackPointExtension></extensions>
      </trkpt>
      <trkpt lat="59.217622" lon="17.761481">
        <ele>36.4</ele>
        <time>2020-03-26T13:49:05Z</time>
        <extensions><gpxtpx:TrackPointExtension><gpxtpx:hr>149</gpxtpx:hr></gpxtpx:TrackPointExtension></extensions>
      </trkpt>
      <trkpt lat="59.217583" lon="17.761589">
        <ele>36.2</ele>
        <time>2020-03-26T13:49:06Z</time>
        <extensions><gpxtpx:TrackPointExtension><gpxtpx:hr>148</gpxtpx:hr></gpxtpx:TrackPointExtension></extensions>
      </trkpt>
      <trkpt lat="59.217545" lon="17.761696">
        <ele>36.2</ele>
        <time>2020-03-26T13:49:07Z</time>
        <extensions><gpxtpx:TrackPointExtension><gpxtpx:hr>148</gpxtpx:hr></gpxtpx:TrackPointExtension></extensions>
      </trkpt>
      <trkpt lat="59.217508" lon="17.761803">
        <ele>36.2</ele>
        <time>2020-03-26T13:49:08Z</time>
        <extensions><gpxtpx:TrackPointExtension><gpxtpx:hr>147</gpxtpx:hr></gpxtpx:TrackPointExtension></extensions>
      </trkpt>
      <trkpt lat="59.217474" lon="17.761914">
        <ele>36.2</ele>
        <time>2020-03-26T13:49:09Z</time>
        <extensions><gpxtpx:TrackPointExtension><gpxtpx:hr>146</gpxtpx:hr></gpxtpx:TrackPointExtension></extensions>
      </trkpt>
      <trkpt lat="59.217444" lon="17.762028">
        <ele>36</ele>
        <time>2020-03-26T13:49:10Z</time>
        <extensions><gpxtpx:TrackPointExtension><gpxtpx:hr>146</gpxtpx:hr></gpxtpx:TrackPointExtension></extensions>
      </trkpt>
      <trkpt lat="59.217416" lon="17.762145">
        <ele>36</ele>
        <time>2020-03-26T13:49:11Z</time>
        <extensions><gpxtpx:TrackPointExtension><gpxtpx:hr>145</gpxtpx:hr></gpxtpx:TrackPointExtension></extensions>
      </trkpt>
      <trkpt lat="59.217388" lon="17.762263">
        <ele>35.8</ele>
        <time>2020-03-26T13:49:12Z</time>
        <extensions><gpxtpx:TrackPointExtension><gpxtpx:hr>145</gpxtpx:hr></gpxtpx:TrackPointExtension></extensions>
      </trkpt>
      <trkpt lat="59.217361" lon="17.76238">
        <ele>35.6</ele>
        <time>2020-03-26T13:49:13Z</time>
        <extensions><gpxtpx:TrackPointExtension><gpxtpx:hr>145</gpxtpx:hr></gpxtpx:TrackPointExtension></extensions>
      </trkpt>
      <trkpt lat="59.217336" lon="17.762498">
        <ele>35.4</ele>
        <time>2020-03-26T13:49:14Z</time>
        <extensions><gpxtpx:TrackPointExtension><gpxtpx:hr>145</gpxtpx:hr></gpxtpx:TrackPointExtension></extensions>
      </trkpt>
      <trkpt lat="59.217312" lon="17.762618">
        <ele>35.4</ele>
        <time>2020-03-26T13:49:15Z</time>
        <extensions><gpxtpx:TrackPointExtension><gpxtpx:hr>145</gpxtpx:hr></gpxtpx:TrackPointExtension></extensions>
      </trkpt>
      <trkpt lat="59.217289" lon="17.762739">
        <ele>35.2</ele>
        <time>2020-03-26T13:49:16Z</time>
        <extensions><gpxtpx:TrackPointExtension><gpxtpx:hr>145</gpxtpx:hr></gpxtpx:TrackPointExtension></extensions>
      </trkpt>
      <trkpt lat="59.217267" lon="17.76286">
        <ele>35.2</ele>
        <time>2020-03-26T13:49:17Z</time>
        <extensions><gpxtpx:TrackPointExtension><gpxtpx:hr>145</gpxtpx:hr></gpxtpx:TrackPointExtension></extensions>
      </trkpt>
      <trkpt lat="59.217243" lon="17.762982">
        <ele>35</ele>
        <time>2020-03-26T13:49:18Z</time>
        <extensions><gpxtpx:TrackPointExtension><gpxtpx:hr>144</gpxtpx:hr></gpxtpx:TrackPointExtension></extensions>
      </trkpt>
      <trkpt lat="59.217221" lon="17.763105">
        <ele>35</ele>
        <time>2020-03-26T13:49:19Z</time>
        <extensions><gpxtpx:TrackPointExtension><gpxtpx:hr>144</gpxtpx:hr></gpxtpx:TrackPointExtension></extensions>
      </trkpt>
      <trkpt lat="59.217203" lon="17.763232">
        <ele>35</ele>
        <time>2020-03-26T13:49:20Z</time>
        <extensions><gpxtpx:TrackPointExtension><gpxtpx:hr>143</gpxtpx:hr></gpxtpx:TrackPointExtension></extensions>
      </trkpt>
      <trkpt lat="59.217185" lon="17.76336">
        <ele>35</ele>
        <time>2020-03-26T13:49:21Z</time>
        <extensions><gpxtpx:TrackPointExtension><gpxtpx:hr>143</gpxtpx:hr></gpxtpx:TrackPointExtension></extensions>
      </trkpt>
      <trkpt lat="59.217167" lon="17.763488">
        <ele>35</ele>
        <time>2020-03-26T13:49:22Z</time>
        <extensions><gpxtpx:TrackPointExtension><gpxtpx:hr>142</gpxtpx:hr></gpxtpx:TrackPointExtension></extensions>
      </trkpt>
      <trkpt lat="59.217148" lon="17.763618">
        <ele>34.8</ele>
        <time>2020-03-26T13:49:23Z</time>
        <extensions><gpxtpx:TrackPointExtension><gpxtpx:hr>142</gpxtpx:hr></gpxtpx:TrackPointExtension></extensions>
      </trkpt>
      <trkpt lat="59.217129" lon="17.76375">
        <ele>34.8</ele>
        <time>2020-03-26T13:49:24Z</time>
        <extensions><gpxtpx:TrackPointExtension><gpxtpx:hr>141</gpxtpx:hr></gpxtpx:TrackPointExtension></extensions>
      </trkpt>
      <trkpt lat="59.217109" lon="17.763882">
        <ele>34.8</ele>
        <time>2020-03-26T13:49:25Z</time>
        <extensions><gpxtpx:TrackPointExtension><gpxtpx:hr>141</gpxtpx:hr></gpxtpx:TrackPointExtension></extensions>
      </trkpt>
      <trkpt lat="59.21709" lon="17.764014">
        <ele>34.8</ele>
        <time>2020-03-26T13:49:26Z</time>
        <extensions><gpxtpx:TrackPointExtension><gpxtpx:hr>140</gpxtpx:hr></gpxtpx:TrackPointExtension></extensions>
      </trkpt>
      <trkpt lat="59.217072" lon="17.764148">
        <ele>34.6</ele>
        <time>2020-03-26T13:49:27Z</time>
        <extensions><gpxtpx:TrackPointExtension><gpxtpx:hr>140</gpxtpx:hr></gpxtpx:TrackPointExtension></extensions>
      </trkpt>
      <trkpt lat="59.217055" lon="17.764285">
        <ele>34.6</ele>
        <time>2020-03-26T13:49:28Z</time>
        <extensions><gpxtpx:TrackPointExtension><gpxtpx:hr>140</gpxtpx:hr></gpxtpx:TrackPointExtension></extensions>
      </trkpt>
      <trkpt lat="59.217039" lon="17.764423">
        <ele>34.6</ele>
        <time>2020-03-26T13:49:29Z</time>
        <extensions><gpxtpx:TrackPointExtension><gpxtpx:hr>140</gpxtpx:hr></gpxtpx:TrackPointExtension></extensions>
      </trkpt>
      <trkpt lat="59.217024" lon="17.764562">
        <ele>34.6</ele>
        <time>2020-03-26T13:49:30Z</time>
        <extensions><gpxtpx:TrackPointExtension><gpxtpx:hr>139</gpxtpx:hr></gpxtpx:TrackPointExtension></extensions>
      </trkpt>
      <trkpt lat="59.217009" lon="17.764702">
        <ele>34.4</ele>
        <time>2020-03-26T13:49:31Z</time>
        <extensions><gpxtpx:TrackPointExtension><gpxtpx:hr>139</gpxtpx:hr></gpxtpx:TrackPointExtension></extensions>
      </trkpt>
      <trkpt lat="59.216993" lon="17.76484">
        <ele>34.2</ele>
        <time>2020-03-26T13:49:32Z</time>
        <extensions><gpxtpx:TrackPointExtension><gpxtpx:hr>138</gpxtpx:hr></gpxtpx:TrackPointExtension></extensions>
      </trkpt>
      <trkpt lat="59.216976" lon="17.764978">
        <ele>34.2</ele>
        <time>2020-03-26T13:49:33Z</time>
        <extensions><gpxtpx:TrackPointExtension><gpxtpx:hr>137</gpxtpx:hr></gpxtpx:TrackPointExtension></extensions>
      </trkpt>
      <trkpt lat="59.216958" lon="17.765116">
        <ele>34</ele>
        <time>2020-03-26T13:49:34Z</time>
        <extensions><gpxtpx:TrackPointExtension><gpxtpx:hr>136</gpxtpx:hr></gpxtpx:TrackPointExtension></extensions>
      </trkpt>
      <trkpt lat="59.216943" lon="17.765256">
        <ele>34</ele>
        <time>2020-03-26T13:49:35Z</time>
        <extensions><gpxtpx:TrackPointExtension><gpxtpx:hr>136</gpxtpx:hr></gpxtpx:TrackPointExtension></extensions>
      </trkpt>
      <trkpt lat="59.216927" lon="17.765398">
        <ele>33.8</ele>
        <time>2020-03-26T13:49:36Z</time>
        <extensions><gpxtpx:TrackPointExtension><gpxtpx:hr>135</gpxtpx:hr></gpxtpx:TrackPointExtension></extensions>
      </trkpt>
      <trkpt lat="59.21691" lon="17.765541">
        <ele>33.8</ele>
        <time>2020-03-26T13:49:37Z</time>
        <extensions><gpxtpx:TrackPointExtension><gpxtpx:hr>135</gpxtpx:hr></gpxtpx:TrackPointExtension></extensions>
      </trkpt>
      <trkpt lat="59.216893" lon="17.765686">
        <ele>33.6</ele>
        <time>2020-03-26T13:49:38Z</time>
        <extensions><gpxtpx:TrackPointExtension><gpxtpx:hr>134</gpxtpx:hr></gpxtpx:TrackPointExtension></extensions>
      </trkpt>
      <trkpt lat="59.216875" lon="17.765834">
        <ele>33.6</ele>
        <time>2020-03-26T13:49:39Z</time>
        <extensions><gpxtpx:TrackPointExtension><gpxtpx:hr>133</gpxtpx:hr></gpxtpx:TrackPointExtension></extensions>
      </trkpt>
      <trkpt lat="59.216858" lon="17.765983">
        <ele>33.4</ele>
        <time>2020-03-26T13:49:40Z</time>
        <extensions><gpxtpx:TrackPointExtension><gpxtpx:hr>131</gpxtpx:hr></gpxtpx:TrackPointExtension></extensions>
      </trkpt>
      <trkpt lat="59.216841" lon="17.766133">
        <ele>33.2</ele>
        <time>2020-03-26T13:49:41Z</time>
        <extensions><gpxtpx:TrackPointExtension><gpxtpx:hr>130</gpxtpx:hr></gpxtpx:TrackPointExtension></extensions>
      </trkpt>
      <trkpt lat="59.216822" lon="17.766279">
        <ele>33.2</ele>
        <time>2020-03-26T13:49:42Z</time>
        <extensions><gpxtpx:TrackPointExtension><gpxtpx:hr>128</gpxtpx:hr></gpxtpx:TrackPointExtension></extensions>
      </trkpt>
      <trkpt lat="59.216802" lon="17.766423">
        <ele>33</ele>
        <time>2020-03-26T13:49:43Z</time>
        <extensions><gpxtpx:TrackPointExtension><gpxtpx:hr>127</gpxtpx:hr></gpxtpx:TrackPointExtension></extensions>
      </trkpt>
      <trkpt lat="59.21678" lon="17.766567">
        <ele>32.8</ele>
        <time>2020-03-26T13:49:44Z</time>
        <extensions><gpxtpx:TrackPointExtension><gpxtpx:hr>125</gpxtpx:hr></gpxtpx:TrackPointExtension></extensions>
      </trkpt>
      <trkpt lat="59.216757" lon="17.766708">
        <ele>32.6</ele>
        <time>2020-03-26T13:49:45Z</time>
        <extensions><gpxtpx:TrackPointExtension><gpxtpx:hr>123</gpxtpx:hr></gpxtpx:TrackPointExtension></extensions>
      </trkpt>
      <trkpt lat="59.216733" lon="17.766851">
        <ele>32</ele>
        <time>2020-03-26T13:49:46Z</time>
        <extensions><gpxtpx:TrackPointExtension><gpxtpx:hr>122</gpxtpx:hr></gpxtpx:TrackPointExtension></extensions>
      </trkpt>
      <trkpt lat="59.216708" lon="17.766994">
        <ele>31.6</ele>
        <time>2020-03-26T13:49:47Z</time>
        <extensions><gpxtpx:TrackPointExtension><gpxtpx:hr>121</gpxtpx:hr></gpxtpx:TrackPointExtension></extensions>
      </trkpt>
      <trkpt lat="59.21668" lon="17.767135">
        <ele>30.8</ele>
        <time>2020-03-26T13:49:48Z</time>
        <extensions><gpxtpx:TrackPointExtension><gpxtpx:hr>120</gpxtpx:hr></gpxtpx:TrackPointExtension></extensions>
      </trkpt>
      <trkpt lat="59.216651" lon="17.767276">
        <ele>30.4</ele>
        <time>2020-03-26T13:49:49Z</time>
        <extensions><gpxtpx:TrackPointExtension><gpxtpx:hr>121</gpxtpx:hr></gpxtpx:TrackPointExtension></extensions>
      </trkpt>
      <trkpt lat="59.216621" lon="17.767416">
        <ele>29.8</ele>
        <time>2020-03-26T13:49:50Z</time>
        <extensions><gpxtpx:TrackPointExtension><gpxtpx:hr>121</gpxtpx:hr></gpxtpx:TrackPointExtension></extensions>
      </trkpt>
      <trkpt lat="59.21659" lon="17.767553">
        <ele>29.2</ele>
        <time>2020-03-26T13:49:51Z</time>
        <extensions><gpxtpx:TrackPointExtension><gpxtpx:hr>122</gpxtpx:hr></gpxtpx:TrackPointExtension></extensions>
      </trkpt>
      <trkpt lat="59.216557" lon="17.767689">
        <ele>28.8</ele>
        <time>2020-03-26T13:49:52Z</time>
        <extensions><gpxtpx:TrackPointExtension><gpxtpx:hr>122</gpxtpx:hr></gpxtpx:TrackPointExtension></extensions>
      </trkpt>
      <trkpt lat="59.216524" lon="17.767824">
        <ele>28.4</ele>
        <time>2020-03-26T13:49:53Z</time>
        <extensions><gpxtpx:TrackPointExtension><gpxtpx:hr>122</gpxtpx:hr></gpxtpx:TrackPointExtension></extensions>
      </trkpt>
      <trkpt lat="59.216491" lon="17.76796">
        <ele>28</ele>
        <time>2020-03-26T13:49:54Z</time>
        <extensions><gpxtpx:TrackPointExtension><gpxtpx:hr>122</gpxtpx:hr></gpxtpx:TrackPointExtension></extensions>
      </trkpt>
      <trkpt lat="59.216457" lon="17.768095">
        <ele>27.8</ele>
        <time>2020-03-26T13:49:55Z</time>
        <extensions><gpxtpx:TrackPointExtension><gpxtpx:hr>122</gpxtpx:hr></gpxtpx:TrackPointExtension></extensions>
      </trkpt>
      <trkpt lat="59.216422" lon="17.768227">
        <ele>27.6</ele>
        <time>2020-03-26T13:49:56Z</time>
        <extensions><gpxtpx:TrackPointExtension><gpxtpx:hr>122</gpxtpx:hr></gpxtpx:TrackPointExtension></extensions>
      </trkpt>
      <trkpt lat="59.216387" lon="17.768358">
        <ele>27.4</ele>
        <time>2020-03-26T13:49:57Z</time>
        <extensions><gpxtpx:TrackPointExtension><gpxtpx:hr>122</gpxtpx:hr></gpxtpx:TrackPointExtension></extensions>
      </trkpt>
      <trkpt lat="59.216351" lon="17.768487">
        <ele>27.4</ele>
        <time>2020-03-26T13:49:58Z</time>
        <extensions><gpxtpx:TrackPointExtension><gpxtpx:hr>122</gpxtpx:hr></gpxtpx:TrackPointExtension></extensions>
      </trkpt>
      <trkpt lat="59.216316" lon="17.768615">
        <ele>27.2</ele>
        <time>2020-03-26T13:49:59Z</time>
        <extensions><gpxtpx:TrackPointExtension><gpxtpx:hr>123</gpxtpx:hr></gpxtpx:TrackPointExtension></extensions>
      </trkpt>
      <trkpt lat="59.216281" lon="17.768742">
        <ele>27.2</ele>
        <time>2020-03-26T13:50:00Z</time>
        <extensions><gpxtpx:TrackPointExtension><gpxtpx:hr>124</gpxtpx:hr></gpxtpx:TrackPointExtension></extensions>
      </trkpt>
      <trkpt lat="59.216246" lon="17.768867">
        <ele>27.2</ele>
        <time>2020-03-26T13:50:01Z</time>
        <extensions><gpxtpx:TrackPointExtension><gpxtpx:hr>124</gpxtpx:hr></gpxtpx:TrackPointExtension></extensions>
      </trkpt>
      <trkpt lat="59.216212" lon="17.768989">
        <ele>27</ele>
        <time>2020-03-26T13:50:02Z</time>
        <extensions><gpxtpx:TrackPointExtension><gpxtpx:hr>125</gpxtpx:hr></gpxtpx:TrackPointExtension></extensions>
      </trkpt>
      <trkpt lat="59.216176" lon="17.769107">
        <ele>27</ele>
        <time>2020-03-26T13:50:03Z</time>
        <extensions><gpxtpx:TrackPointExtension><gpxtpx:hr>126</gpxtpx:hr></gpxtpx:TrackPointExtension></extensions>
      </trkpt>
      <trkpt lat="59.216139" lon="17.769222">
        <ele>27</ele>
        <time>2020-03-26T13:50:04Z</time>
        <extensions><gpxtpx:TrackPointExtension><gpxtpx:hr>127</gpxtpx:hr></gpxtpx:TrackPointExtension></extensions>
      </trkpt>
      <trkpt lat="59.216102" lon="17.769336">
        <ele>26.8</ele>
        <time>2020-03-26T13:50:05Z</time>
        <extensions><gpxtpx:TrackPointExtension><gpxtpx:hr>128</gpxtpx:hr></gpxtpx:TrackPointExtension></extensions>
      </trkpt>
      <trkpt lat="59.216066" lon="17.769446">
        <ele>26.8</ele>
        <time>2020-03-26T13:50:06Z</time>
        <extensions><gpxtpx:TrackPointExtension><gpxtpx:hr>129</gpxtpx:hr></gpxtpx:TrackPointExtension></extensions>
      </trkpt>
      <trkpt lat="59.216027" lon="17.76955">
        <ele>26.8</ele>
        <time>2020-03-26T13:50:07Z</time>
        <extensions><gpxtpx:TrackPointExtension><gpxtpx:hr>129</gpxtpx:hr></gpxtpx:TrackPointExtension></extensions>
      </trkpt>
      <trkpt lat="59.215988" lon="17.769651">
        <ele>26.8</ele>
        <time>2020-03-26T13:50:08Z</time>
        <extensions><gpxtpx:TrackPointExtension><gpxtpx:hr>131</gpxtpx:hr></gpxtpx:TrackPointExtension></extensions>
      </trkpt>
      <trkpt lat="59.21595" lon="17.769748">
        <ele>26.8</ele>
        <time>2020-03-26T13:50:09Z</time>
        <extensions><gpxtpx:TrackPointExtension><gpxtpx:hr>131</gpxtpx:hr></gpxtpx:TrackPointExtension></extensions>
      </trkpt>
      <trkpt lat="59.21591" lon="17.769842">
        <ele>26.8</ele>
        <time>2020-03-26T13:50:10Z</time>
        <extensions><gpxtpx:TrackPointExtension><gpxtpx:hr>132</gpxtpx:hr></gpxtpx:TrackPointExtension></extensions>
      </trkpt>
      <trkpt lat="59.21587" lon="17.769936">
        <ele>26.8</ele>
        <time>2020-03-26T13:50:11Z</time>
        <extensions><gpxtpx:TrackPointExtension><gpxtpx:hr>133</gpxtpx:hr></gpxtpx:TrackPointExtension></extensions>
      </trkpt>
      <trkpt lat="59.215832" lon="17.770029">
        <ele>26.8</ele>
        <time>2020-03-26T13:50:12Z</time>
        <extensions><gpxtpx:TrackPointExtension><gpxtpx:hr>134</gpxtpx:hr></gpxtpx:TrackPointExtension></extensions>
      </trkpt>
      <trkpt lat="59.215794" lon="17.770122">
        <ele>26.8</ele>
        <time>2020-03-26T13:50:13Z</time>
        <extensions><gpxtpx:TrackPointExtension><gpxtpx:hr>134</gpxtpx:hr></gpxtpx:TrackPointExtension></extensions>
      </trkpt>
      <trkpt lat="59.215758" lon="17.770213">
        <ele>26.8</ele>
        <time>2020-03-26T13:50:14Z</time>
        <extensions><gpxtpx:TrackPointExtension><gpxtpx:hr>135</gpxtpx:hr></gpxtpx:TrackPointExtension></extensions>
      </trkpt>
      <trkpt lat="59.215722" lon="17.770307">
        <ele>26.8</ele>
        <time>2020-03-26T13:50:15Z</time>
        <extensions><gpxtpx:TrackPointExtension><gpxtpx:hr>135</gpxtpx:hr></gpxtpx:TrackPointExtension></extensions>
      </trkpt>
      <trkpt lat="59.215687" lon="17.770402">
        <ele>26.8</ele>
        <time>2020-03-26T13:50:16Z</time>
        <extensions><gpxtpx:TrackPointExtension><gpxtpx:hr>135</gpxtpx:hr></gpxtpx:TrackPointExtension></extensions>
      </trkpt>
      <trkpt lat="59.215652" lon="17.770499">
        <ele>26.8</ele>
        <time>2020-03-26T13:50:17Z</time>
        <extensions><gpxtpx:TrackPointExtension><gpxtpx:hr>135</gpxtpx:hr></gpxtpx:TrackPointExtension></extensions>
      </trkpt>
      <trkpt lat="59.215615" lon="17.770596">
        <ele>26.8</ele>
        <time>2020-03-26T13:50:18Z</time>
        <extensions><gpxtpx:TrackPointExtension><gpxtpx:hr>135</gpxtpx:hr></gpxtpx:TrackPointExtension></extensions>
      </trkpt>
      <trkpt lat="59.215578" lon="17.770693">
        <ele>26.8</ele>
        <time>2020-03-26T13:50:19Z</time>
        <extensions><gpxtpx:TrackPointExtension><gpxtpx:hr>135</gpxtpx:hr></gpxtpx:TrackPointExtension></extensions>
      </trkpt>
      <trkpt lat="59.215542" lon="17.770793">
        <ele>27</ele>
        <time>2020-03-26T13:50:20Z</time>
        <extensions><gpxtpx:TrackPointExtension><gpxtpx:hr>136</gpxtpx:hr></gpxtpx:TrackPointExtension></extensions>
      </trkpt>
      <trkpt lat="59.215506" lon="17.770896">
        <ele>27.2</ele>
        <time>2020-03-26T13:50:21Z</time>
        <extensions><gpxtpx:TrackPointExtension><gpxtpx:hr>136</gpxtpx:hr></gpxtpx:TrackPointExtension></extensions>
      </trkpt>
      <trkpt lat="59.215469" lon="17.771002">
        <ele>27.2</ele>
        <time>2020-03-26T13:50:22Z</time>
        <extensions><gpxtpx:TrackPointExtension><gpxtpx:hr>135</gpxtpx:hr></gpxtpx:TrackPointExtension></extensions>
      </trkpt>
      <trkpt lat="59.215432" lon="17.77111">
        <ele>27.2</ele>
        <time>2020-03-26T13:50:23Z</time>
        <extensions><gpxtpx:TrackPointExtension><gpxtpx:hr>135</gpxtpx:hr></gpxtpx:TrackPointExtension></extensions>
      </trkpt>
      <trkpt lat="59.215393" lon="17.771223">
        <ele>27.2</ele>
        <time>2020-03-26T13:50:24Z</time>
        <extensions><gpxtpx:TrackPointExtension><gpxtpx:hr>135</gpxtpx:hr></gpxtpx:TrackPointExtension></extensions>
      </trkpt>
      <trkpt lat="59.215357" lon="17.771339">
        <ele>27.2</ele>
        <time>2020-03-26T13:50:25Z</time>
        <extensions><gpxtpx:TrackPointExtension><gpxtpx:hr>135</gpxtpx:hr></gpxtpx:TrackPointExtension></extensions>
      </trkpt>
      <trkpt lat="59.215321" lon="17.771457">
        <ele>27.2</ele>
        <time>2020-03-26T13:50:26Z</time>
        <extensions><gpxtpx:TrackPointExtension><gpxtpx:hr>135</gpxtpx:hr></gpxtpx:TrackPointExtension></extensions>
      </trkpt>
      <trkpt lat="59.215286" lon="17.771577">
        <ele>27.2</ele>
        <time>2020-03-26T13:50:27Z</time>
        <extensions><gpxtpx:TrackPointExtension><gpxtpx:hr>135</gpxtpx:hr></gpxtpx:TrackPointExtension></extensions>
      </trkpt>
      <trkpt lat="59.215252" lon="17.771695">
        <ele>27.2</ele>
        <time>2020-03-26T13:50:28Z</time>
        <extensions><gpxtpx:TrackPointExtension><gpxtpx:hr>134</gpxtpx:hr></gpxtpx:TrackPointExtension></extensions>
      </trkpt>
      <trkpt lat="59.21522" lon="17.771813">
        <ele>27.2</ele>
        <time>2020-03-26T13:50:29Z</time>
        <extensions><gpxtpx:TrackPointExtension><gpxtpx:hr>134</gpxtpx:hr></gpxtpx:TrackPointExtension></extensions>
      </trkpt>
      <trkpt lat="59.215189" lon="17.771932">
        <ele>27.2</ele>
        <time>2020-03-26T13:50:30Z</time>
        <extensions><gpxtpx:TrackPointExtension><gpxtpx:hr>134</gpxtpx:hr></gpxtpx:TrackPointExtension></extensions>
      </trkpt>
      <trkpt lat="59.215159" lon="17.772054">
        <ele>27.2</ele>
        <time>2020-03-26T13:50:31Z</time>
        <extensions><gpxtpx:TrackPointExtension><gpxtpx:hr>133</gpxtpx:hr></gpxtpx:TrackPointExtension></extensions>
      </trkpt>
      <trkpt lat="59.215132" lon="17.772181">
        <ele>27.2</ele>
        <time>2020-03-26T13:50:32Z</time>
        <extensions><gpxtpx:TrackPointExtension><gpxtpx:hr>133</gpxtpx:hr></gpxtpx:TrackPointExtension></extensions>
      </trkpt>
      <trkpt lat="59.215107" lon="17.772311">
        <ele>27</ele>
        <time>2020-03-26T13:50:33Z</time>
        <extensions><gpxtpx:TrackPointExtension><gpxtpx:hr>132</gpxtpx:hr></gpxtpx:TrackPointExtension></extensions>
      </trkpt>
      <trkpt lat="59.215084" lon="17.772445">
        <ele>26.6</ele>
        <time>2020-03-26T13:50:34Z</time>
        <extensions><gpxtpx:TrackPointExtension><gpxtpx:hr>132</gpxtpx:hr></gpxtpx:TrackPointExtension></extensions>
      </trkpt>
      <trkpt lat="59.215062" lon="17.772581">
        <ele>26.2</ele>
        <time>2020-03-26T13:50:35Z</time>
        <extensions><gpxtpx:TrackPointExtension><gpxtpx:hr>132</gpxtpx:hr></gpxtpx:TrackPointExtension></extensions>
      </trkpt>
      <trkpt lat="59.215044" lon="17.772722">
        <ele>25.4</ele>
        <time>2020-03-26T13:50:36Z</time>
        <extensions><gpxtpx:TrackPointExtension><gpxtpx:hr>132</gpxtpx:hr></gpxtpx:TrackPointExtension></extensions>
      </trkpt>
      <trkpt lat="59.215028" lon="17.772866">
        <ele>25</ele>
        <time>2020-03-26T13:50:37Z</time>
        <extensions><gpxtpx:TrackPointExtension><gpxtpx:hr>132</gpxtpx:hr></gpxtpx:TrackPointExtension></extensions>
      </trkpt>
      <trkpt lat="59.215014" lon="17.773012">
        <ele>25</ele>
        <time>2020-03-26T13:50:38Z</time>
        <extensions><gpxtpx:TrackPointExtension><gpxtpx:hr>131</gpxtpx:hr></gpxtpx:TrackPointExtension></extensions>
      </trkpt>
      <trkpt lat="59.215003" lon="17.77316">
        <ele>24.8</ele>
        <time>2020-03-26T13:50:39Z</time>
        <extensions><gpxtpx:TrackPointExtension><gpxtpx:hr>130</gpxtpx:hr></gpxtpx:TrackPointExtension></extensions>
      </trkpt>
      <trkpt lat="59.214996" lon="17.773309">
        <ele>24.8</ele>
        <time>2020-03-26T13:50:40Z</time>
        <extensions><gpxtpx:TrackPointExtension><gpxtpx:hr>130</gpxtpx:hr></gpxtpx:TrackPointExtension></extensions>
      </trkpt>
      <trkpt lat="59.214993" lon="17.773457">
        <ele>24.6</ele>
        <time>2020-03-26T13:50:41Z</time>
        <extensions><gpxtpx:TrackPointExtension><gpxtpx:hr>129</gpxtpx:hr></gpxtpx:TrackPointExtension></extensions>
      </trkpt>
      <trkpt lat="59.214994" lon="17.773603">
        <ele>24.4</ele>
        <time>2020-03-26T13:50:42Z</time>
        <extensions><gpxtpx:TrackPointExtension><gpxtpx:hr>128</gpxtpx:hr></gpxtpx:TrackPointExtension></extensions>
      </trkpt>
      <trkpt lat="59.214999" lon="17.773747">
        <ele>24.2</ele>
        <time>2020-03-26T13:50:43Z</time>
        <extensions><gpxtpx:TrackPointExtension><gpxtpx:hr>128</gpxtpx:hr></gpxtpx:TrackPointExtension></extensions>
      </trkpt>
      <trkpt lat="59.215006" lon="17.773891">
        <ele>24.2</ele>
        <time>2020-03-26T13:50:44Z</time>
        <extensions><gpxtpx:TrackPointExtension><gpxtpx:hr>128</gpxtpx:hr></gpxtpx:TrackPointExtension></extensions>
      </trkpt>
      <trkpt lat="59.215013" lon="17.774034">
        <ele>24</ele>
        <time>2020-03-26T13:50:45Z</time>
        <extensions><gpxtpx:TrackPointExtension><gpxtpx:hr>128</gpxtpx:hr></gpxtpx:TrackPointExtension></extensions>
      </trkpt>
      <trkpt lat="59.215024" lon="17.774175">
        <ele>24</ele>
        <time>2020-03-26T13:50:46Z</time>
        <extensions><gpxtpx:TrackPointExtension><gpxtpx:hr>129</gpxtpx:hr></gpxtpx:TrackPointExtension></extensions>
      </trkpt>
      <trkpt lat="59.215039" lon="17.774314">
        <ele>24</ele>
        <time>2020-03-26T13:50:47Z</time>
        <extensions><gpxtpx:TrackPointExtension><gpxtpx:hr>129</gpxtpx:hr></gpxtpx:TrackPointExtension></extensions>
      </trkpt>
      <trkpt lat="59.215056" lon="17.774453">
        <ele>24</ele>
        <time>2020-03-26T13:50:48Z</time>
        <extensions><gpxtpx:TrackPointExtension><gpxtpx:hr>129</gpxtpx:hr></gpxtpx:TrackPointExtension></extensions>
      </trkpt>
      <trkpt lat="59.215073" lon="17.774593">
        <ele>24</ele>
        <time>2020-03-26T13:50:49Z</time>
        <extensions><gpxtpx:TrackPointExtension><gpxtpx:hr>129</gpxtpx:hr></gpxtpx:TrackPointExtension></extensions>
      </trkpt>
      <trkpt lat="59.215092" lon="17.774732">
        <ele>24</ele>
        <time>2020-03-26T13:50:50Z</time>
        <extensions><gpxtpx:TrackPointExtension><gpxtpx:hr>129</gpxtpx:hr></gpxtpx:TrackPointExtension></extensions>
      </trkpt>
      <trkpt lat="59.215113" lon="17.77487">
        <ele>24</ele>
        <time>2020-03-26T13:50:51Z</time>
        <extensions><gpxtpx:TrackPointExtension><gpxtpx:hr>129</gpxtpx:hr></gpxtpx:TrackPointExtension></extensions>
      </trkpt>
      <trkpt lat="59.215138" lon="17.775007">
        <ele>24</ele>
        <time>2020-03-26T13:50:52Z</time>
        <extensions><gpxtpx:TrackPointExtension><gpxtpx:hr>129</gpxtpx:hr></gpxtpx:TrackPointExtension></extensions>
      </trkpt>
      <trkpt lat="59.215166" lon="17.775141">
        <ele>24</ele>
        <time>2020-03-26T13:50:53Z</time>
        <extensions><gpxtpx:TrackPointExtension><gpxtpx:hr>130</gpxtpx:hr></gpxtpx:TrackPointExtension></extensions>
      </trkpt>
      <trkpt lat="59.215196" lon="17.775275">
        <ele>24</ele>
        <time>2020-03-26T13:50:54Z</time>
        <extensions><gpxtpx:TrackPointExtension><gpxtpx:hr>130</gpxtpx:hr></gpxtpx:TrackPointExtension></extensions>
      </trkpt>
      <trkpt lat="59.215229" lon="17.775407">
        <ele>24</ele>
        <time>2020-03-26T13:50:55Z</time>
        <extensions><gpxtpx:TrackPointExtension><gpxtpx:hr>129</gpxtpx:hr></gpxtpx:TrackPointExtension></extensions>
      </trkpt>
      <trkpt lat="59.215265" lon="17.775536">
        <ele>24</ele>
        <time>2020-03-26T13:50:56Z</time>
        <extensions><gpxtpx:TrackPointExtension><gpxtpx:hr>129</gpxtpx:hr></gpxtpx:TrackPointExtension></extensions>
      </trkpt>
      <trkpt lat="59.215304" lon="17.775661">
        <ele>24</ele>
        <time>2020-03-26T13:50:57Z</time>
        <extensions><gpxtpx:TrackPointExtension><gpxtpx:hr>129</gpxtpx:hr></gpxtpx:TrackPointExtension></extensions>
      </trkpt>
      <trkpt lat="59.215344" lon="17.775782">
        <ele>24</ele>
        <time>2020-03-26T13:50:58Z</time>
        <extensions><gpxtpx:TrackPointExtension><gpxtpx:hr>129</gpxtpx:hr></gpxtpx:TrackPointExtension></extensions>
      </trkpt>
      <trkpt lat="59.215388" lon="17.775899">
        <ele>24</ele>
        <time>2020-03-26T13:50:59Z</time>
        <extensions><gpxtpx:TrackPointExtension><gpxtpx:hr>128</gpxtpx:hr></gpxtpx:TrackPointExtension></extensions>
      </trkpt>
      <trkpt lat="59.215434" lon="17.776011">
        <ele>24</ele>
        <time>2020-03-26T13:51:00Z</time>
        <extensions><gpxtpx:TrackPointExtension><gpxtpx:hr>128</gpxtpx:hr></gpxtpx:TrackPointExtension></extensions>
      </trkpt>
      <trkpt lat="59.215481" lon="17.776123">
        <ele>24</ele>
        <time>2020-03-26T13:51:01Z</time>
        <extensions><gpxtpx:TrackPointExtension><gpxtpx:hr>128</gpxtpx:hr></gpxtpx:TrackPointExtension></extensions>
      </trkpt>
      <trkpt lat="59.215518" lon="17.776206">
        <ele>24</ele>
        <time>2020-03-26T13:51:02Z</time>
        <extensions><gpxtpx:TrackPointExtension><gpxtpx:hr>128</gpxtpx:hr></gpxtpx:TrackPointExtension></extensions>
      </trkpt>
      <trkpt lat="59.215554" lon="17.77629">
        <ele>24</ele>
        <time>2020-03-26T13:51:03Z</time>
        <extensions><gpxtpx:TrackPointExtension><gpxtpx:hr>129</gpxtpx:hr></gpxtpx:TrackPointExtension></extensions>
      </trkpt>
      <trkpt lat="59.215626" lon="17.776457">
        <ele>24</ele>
        <time>2020-03-26T13:51:04Z</time>
        <extensions><gpxtpx:TrackPointExtension><gpxtpx:hr>129</gpxtpx:hr></gpxtpx:TrackPointExtension></extensions>
      </trkpt>
      <trkpt lat="59.215673" lon="17.776566">
        <ele>24.2</ele>
        <time>2020-03-26T13:51:05Z</time>
        <extensions><gpxtpx:TrackPointExtension><gpxtpx:hr>129</gpxtpx:hr></gpxtpx:TrackPointExtension></extensions>
      </trkpt>
      <trkpt lat="59.215722" lon="17.776674">
        <ele>24.2</ele>
        <time>2020-03-26T13:51:06Z</time>
        <extensions><gpxtpx:TrackPointExtension><gpxtpx:hr>129</gpxtpx:hr></gpxtpx:TrackPointExtension></extensions>
      </trkpt>
      <trkpt lat="59.21577" lon="17.77678">
        <ele>24.2</ele>
        <time>2020-03-26T13:51:07Z</time>
        <extensions><gpxtpx:TrackPointExtension><gpxtpx:hr>130</gpxtpx:hr></gpxtpx:TrackPointExtension></extensions>
      </trkpt>
      <trkpt lat="59.21582" lon="17.776884">
        <ele>24.2</ele>
        <time>2020-03-26T13:51:08Z</time>
        <extensions><gpxtpx:TrackPointExtension><gpxtpx:hr>130</gpxtpx:hr></gpxtpx:TrackPointExtension></extensions>
      </trkpt>
      <trkpt lat="59.215869" lon="17.776988">
        <ele>24.2</ele>
        <time>2020-03-26T13:51:09Z</time>
        <extensions><gpxtpx:TrackPointExtension><gpxtpx:hr>130</gpxtpx:hr></gpxtpx:TrackPointExtension></extensions>
      </trkpt>
      <trkpt lat="59.215919" lon="17.77709">
        <ele>24.2</ele>
        <time>2020-03-26T13:51:10Z</time>
        <extensions><gpxtpx:TrackPointExtension><gpxtpx:hr>130</gpxtpx:hr></gpxtpx:TrackPointExtension></extensions>
      </trkpt>
      <trkpt lat="59.21597" lon="17.777192">
        <ele>24.2</ele>
        <time>2020-03-26T13:51:11Z</time>
        <extensions><gpxtpx:TrackPointExtension><gpxtpx:hr>130</gpxtpx:hr></gpxtpx:TrackPointExtension></extensions>
      </trkpt>
      <trkpt lat="59.216021" lon="17.777293">
        <ele>24.2</ele>
        <time>2020-03-26T13:51:12Z</time>
        <extensions><gpxtpx:TrackPointExtension><gpxtpx:hr>130</gpxtpx:hr></gpxtpx:TrackPointExtension></extensions>
      </trkpt>
      <trkpt lat="59.216074" lon="17.777392">
        <ele>24.2</ele>
        <time>2020-03-26T13:51:13Z</time>
        <extensions><gpxtpx:TrackPointExtension><gpxtpx:hr>129</gpxtpx:hr></gpxtpx:TrackPointExtension></extensions>
      </trkpt>
      <trkpt lat="59.216128" lon="17.77749">
        <ele>24.2</ele>
        <time>2020-03-26T13:51:14Z</time>
        <extensions><gpxtpx:TrackPointExtension><gpxtpx:hr>129</gpxtpx:hr></gpxtpx:TrackPointExtension></extensions>
      </trkpt>
      <trkpt lat="59.216182" lon="17.777587">
        <ele>24.2</ele>
        <time>2020-03-26T13:51:15Z</time>
        <extensions><gpxtpx:TrackPointExtension><gpxtpx:hr>129</gpxtpx:hr></gpxtpx:TrackPointExtension></extensions>
      </trkpt>
      <trkpt lat="59.216238" lon="17.777682">
        <ele>24.2</ele>
        <time>2020-03-26T13:51:16Z</time>
        <extensions><gpxtpx:TrackPointExtension><gpxtpx:hr>129</gpxtpx:hr></gpxtpx:TrackPointExtension></extensions>
      </trkpt>
      <trkpt lat="59.216295" lon="17.777777">
        <ele>24.2</ele>
        <time>2020-03-26T13:51:17Z</time>
        <extensions><gpxtpx:TrackPointExtension><gpxtpx:hr>129</gpxtpx:hr></gpxtpx:TrackPointExtension></extensions>
      </trkpt>
      <trkpt lat="59.216354" lon="17.777868">
        <ele>24.4</ele>
        <time>2020-03-26T13:51:18Z</time>
        <extensions><gpxtpx:TrackPointExtension><gpxtpx:hr>129</gpxtpx:hr></gpxtpx:TrackPointExtension></extensions>
      </trkpt>
      <trkpt lat="59.216415" lon="17.777954">
        <ele>24.4</ele>
        <time>2020-03-26T13:51:19Z</time>
        <extensions><gpxtpx:TrackPointExtension><gpxtpx:hr>129</gpxtpx:hr></gpxtpx:TrackPointExtension></extensions>
      </trkpt>
      <trkpt lat="59.216474" lon="17.778039">
        <ele>24.4</ele>
        <time>2020-03-26T13:51:20Z</time>
        <extensions><gpxtpx:TrackPointExtension><gpxtpx:hr>129</gpxtpx:hr></gpxtpx:TrackPointExtension></extensions>
      </trkpt>
      <trkpt lat="59.216533" lon="17.778122">
        <ele>24.4</ele>
        <time>2020-03-26T13:51:21Z</time>
        <extensions><gpxtpx:TrackPointExtension><gpxtpx:hr>129</gpxtpx:hr></gpxtpx:TrackPointExtension></extensions>
      </trkpt>
      <trkpt lat="59.216594" lon="17.778201">
        <ele>24.4</ele>
        <time>2020-03-26T13:51:22Z</time>
        <extensions><gpxtpx:TrackPointExtension><gpxtpx:hr>129</gpxtpx:hr></gpxtpx:TrackPointExtension></extensions>
      </trkpt>
      <trkpt lat="59.216656" lon="17.778279">
        <ele>24.4</ele>
        <time>2020-03-26T13:51:23Z</time>
        <extensions><gpxtpx:TrackPointExtension><gpxtpx:hr>129</gpxtpx:hr></gpxtpx:TrackPointExtension></extensions>
      </trkpt>
      <trkpt lat="59.216711" lon="17.77837">
        <ele>24.4</ele>
        <time>2020-03-26T13:51:24Z</time>
        <extensions><gpxtpx:TrackPointExtension><gpxtpx:hr>128</gpxtpx:hr></gpxtpx:TrackPointExtension></extensions>
      </trkpt>
      <trkpt lat="59.216752" lon="17.778483">
        <ele>24.2</ele>
        <time>2020-03-26T13:51:25Z</time>
        <extensions><gpxtpx:TrackPointExtension><gpxtpx:hr>127</gpxtpx:hr></gpxtpx:TrackPointExtension></extensions>
      </trkpt>
      <trkpt lat="59.216764" lon="17.778618">
        <ele>24.2</ele>
        <time>2020-03-26T13:51:26Z</time>
        <extensions><gpxtpx:TrackPointExtension><gpxtpx:hr>127</gpxtpx:hr></gpxtpx:TrackPointExtension></extensions>
      </trkpt>
      <trkpt lat="59.216751" lon="17.778756">
        <ele>24.2</ele>
        <time>2020-03-26T13:51:27Z</time>
        <extensions><gpxtpx:TrackPointExtension><gpxtpx:hr>127</gpxtpx:hr></gpxtpx:TrackPointExtension></extensions>
      </trkpt>
      <trkpt lat="59.216713" lon="17.778872">
        <ele>24.2</ele>
        <time>2020-03-26T13:51:28Z</time>
        <extensions><gpxtpx:TrackPointExtension><gpxtpx:hr>127</gpxtpx:hr></gpxtpx:TrackPointExtension></extensions>
      </trkpt>
      <trkpt lat="59.216654" lon="17.778962">
        <ele>24</ele>
        <time>2020-03-26T13:51:29Z</time>
        <extensions><gpxtpx:TrackPointExtension><gpxtpx:hr>126</gpxtpx:hr></gpxtpx:TrackPointExtension></extensions>
      </trkpt>
      <trkpt lat="59.216587" lon="17.779035">
        <ele>24</ele>
        <time>2020-03-26T13:51:30Z</time>
        <extensions><gpxtpx:TrackPointExtension><gpxtpx:hr>126</gpxtpx:hr></gpxtpx:TrackPointExtension></extensions>
      </trkpt>
      <trkpt lat="59.216516" lon="17.779103">
        <ele>23.8</ele>
        <time>2020-03-26T13:51:31Z</time>
        <extensions><gpxtpx:TrackPointExtension><gpxtpx:hr>126</gpxtpx:hr></gpxtpx:TrackPointExtension></extensions>
      </trkpt>
      <trkpt lat="59.216442" lon="17.779169">
        <ele>23.6</ele>
        <time>2020-03-26T13:51:32Z</time>
        <extensions><gpxtpx:TrackPointExtension><gpxtpx:hr>126</gpxtpx:hr></gpxtpx:TrackPointExtension></extensions>
      </trkpt>
      <trkpt lat="59.216369" lon="17.779247">
        <ele>23.6</ele>
        <time>2020-03-26T13:51:33Z</time>
        <extensions><gpxtpx:TrackPointExtension><gpxtpx:hr>126</gpxtpx:hr></gpxtpx:TrackPointExtension></extensions>
      </trkpt>
      <trkpt lat="59.216296" lon="17.779323">
        <ele>23.4</ele>
        <time>2020-03-26T13:51:34Z</time>
        <extensions><gpxtpx:TrackPointExtension><gpxtpx:hr>126</gpxtpx:hr></gpxtpx:TrackPointExtension></extensions>
      </trkpt>
      <trkpt lat="59.216219" lon="17.779377">
        <ele>23</ele>
        <time>2020-03-26T13:51:35Z</time>
        <extensions><gpxtpx:TrackPointExtension><gpxtpx:hr>127</gpxtpx:hr></gpxtpx:TrackPointExtension></extensions>
      </trkpt>
      <trkpt lat="59.216145" lon="17.779411">
        <ele>22.4</ele>
        <time>2020-03-26T13:51:36Z</time>
        <extensions><gpxtpx:TrackPointExtension><gpxtpx:hr>128</gpxtpx:hr></gpxtpx:TrackPointExtension></extensions>
      </trkpt>
      <trkpt lat="59.216081" lon="17.779422">
        <ele>22.2</ele>
        <time>2020-03-26T13:51:37Z</time>
        <extensions><gpxtpx:TrackPointExtension><gpxtpx:hr>129</gpxtpx:hr></gpxtpx:TrackPointExtension></extensions>
      </trkpt>
      <trkpt lat="59.216025" lon="17.779437">
        <ele>21.8</ele>
        <time>2020-03-26T13:51:38Z</time>
        <extensions><gpxtpx:TrackPointExtension><gpxtpx:hr>129</gpxtpx:hr></gpxtpx:TrackPointExtension></extensions>
      </trkpt>
      <trkpt lat="59.215965" lon="17.779442">
        <ele>21.8</ele>
        <time>2020-03-26T13:51:39Z</time>
        <extensions><gpxtpx:TrackPointExtension><gpxtpx:hr>129</gpxtpx:hr></gpxtpx:TrackPointExtension></extensions>
      </trkpt>
      <trkpt lat="59.215908" lon="17.779438">
        <ele>21.8</ele>
        <time>2020-03-26T13:51:40Z</time>
        <extensions><gpxtpx:TrackPointExtension><gpxtpx:hr>129</gpxtpx:hr></gpxtpx:TrackPointExtension></extensions>
      </trkpt>
      <trkpt lat="59.215855" lon="17.779427">
        <ele>21.8</ele>
        <time>2020-03-26T13:51:41Z</time>
        <extensions><gpxtpx:TrackPointExtension><gpxtpx:hr>129</gpxtpx:hr></gpxtpx:TrackPointExtension></extensions>
      </trkpt>
      <trkpt lat="59.215803" lon="17.779417">
        <ele>21.6</ele>
        <time>2020-03-26T13:51:42Z</time>
        <extensions><gpxtpx:TrackPointExtension><gpxtpx:hr>128</gpxtpx:hr></gpxtpx:TrackPointExtension></extensions>
      </trkpt>
      <trkpt lat="59.21575" lon="17.779408">
        <ele>21.6</ele>
        <time>2020-03-26T13:51:43Z</time>
        <extensions><gpxtpx:TrackPointExtension><gpxtpx:hr>128</gpxtpx:hr></gpxtpx:TrackPointExtension></extensions>
      </trkpt>
      <trkpt lat="59.215701" lon="17.779401">
        <ele>21.6</ele>
        <time>2020-03-26T13:51:44Z</time>
        <extensions><gpxtpx:TrackPointExtension><gpxtpx:hr>128</gpxtpx:hr></gpxtpx:TrackPointExtension></extensions>
      </trkpt>
      <trkpt lat="59.215649" lon="17.779391">
        <ele>21.6</ele>
        <time>2020-03-26T13:51:45Z</time>
        <extensions><gpxtpx:TrackPointExtension><gpxtpx:hr>128</gpxtpx:hr></gpxtpx:TrackPointExtension></extensions>
      </trkpt>
      <trkpt lat="59.215602" lon="17.779381">
        <ele>21.6</ele>
        <time>2020-03-26T13:51:46Z</time>
        <extensions><gpxtpx:TrackPointExtension><gpxtpx:hr>128</gpxtpx:hr></gpxtpx:TrackPointExtension></extensions>
      </trkpt>
      <trkpt lat="59.215557" lon="17.779375">
        <ele>21.6</ele>
        <time>2020-03-26T13:51:47Z</time>
        <extensions><gpxtpx:TrackPointExtension><gpxtpx:hr>129</gpxtpx:hr></gpxtpx:TrackPointExtension></extensions>
      </trkpt>
      <trkpt lat="59.215513" lon="17.779372">
        <ele>21.6</ele>
        <time>2020-03-26T13:51:48Z</time>
        <extensions><gpxtpx:TrackPointExtension><gpxtpx:hr>129</gpxtpx:hr></gpxtpx:TrackPointExtension></extensions>
      </trkpt>
      <trkpt lat="59.21547" lon="17.779368">
        <ele>22</ele>
        <time>2020-03-26T13:51:49Z</time>
        <extensions><gpxtpx:TrackPointExtension><gpxtpx:hr>130</gpxtpx:hr></gpxtpx:TrackPointExtension></extensions>
      </trkpt>
      <trkpt lat="59.215426" lon="17.779367">
        <ele>22.4</ele>
        <time>2020-03-26T13:51:50Z</time>
        <extensions><gpxtpx:TrackPointExtension><gpxtpx:hr>130</gpxtpx:hr></gpxtpx:TrackPointExtension></extensions>
      </trkpt>
      <trkpt lat="59.215381" lon="17.779369">
        <ele>22.6</ele>
        <time>2020-03-26T13:51:51Z</time>
        <extensions><gpxtpx:TrackPointExtension><gpxtpx:hr>131</gpxtpx:hr></gpxtpx:TrackPointExtension></extensions>
      </trkpt>
      <trkpt lat="59.215332" lon="17.779367">
        <ele>23</ele>
        <time>2020-03-26T13:51:52Z</time>
        <extensions><gpxtpx:TrackPointExtension><gpxtpx:hr>131</gpxtpx:hr></gpxtpx:TrackPointExtension></extensions>
      </trkpt>
      <trkpt lat="59.215285" lon="17.779361">
        <ele>23.2</ele>
        <time>2020-03-26T13:51:53Z</time>
        <extensions><gpxtpx:TrackPointExtension><gpxtpx:hr>133</gpxtpx:hr></gpxtpx:TrackPointExtension></extensions>
      </trkpt>
      <trkpt lat="59.215238" lon="17.779355">
        <ele>23.2</ele>
        <time>2020-03-26T13:51:54Z</time>
        <extensions><gpxtpx:TrackPointExtension><gpxtpx:hr>133</gpxtpx:hr></gpxtpx:TrackPointExtension></extensions>
      </trkpt>
      <trkpt lat="59.21519" lon="17.779347">
        <ele>23.4</ele>
        <time>2020-03-26T13:51:55Z</time>
        <extensions><gpxtpx:TrackPointExtension><gpxtpx:hr>134</gpxtpx:hr></gpxtpx:TrackPointExtension></extensions>
      </trkpt>
      <trkpt lat="59.215142" lon="17.779344">
        <ele>23.6</ele>
        <time>2020-03-26T13:51:56Z</time>
        <extensions><gpxtpx:TrackPointExtension><gpxtpx:hr>135</gpxtpx:hr></gpxtpx:TrackPointExtension></extensions>
      </trkpt>
      <trkpt lat="59.215091" lon="17.77934">
        <ele>23.8</ele>
        <time>2020-03-26T13:51:57Z</time>
        <extensions><gpxtpx:TrackPointExtension><gpxtpx:hr>136</gpxtpx:hr></gpxtpx:TrackPointExtension></extensions>
      </trkpt>
      <trkpt lat="59.215038" lon="17.779332">
        <ele>24.2</ele>
        <time>2020-03-26T13:51:58Z</time>
        <extensions><gpxtpx:TrackPointExtension><gpxtpx:hr>136</gpxtpx:hr></gpxtpx:TrackPointExtension></extensions>
      </trkpt>
      <trkpt lat="59.214985" lon="17.779326">
        <ele>24.4</ele>
        <time>2020-03-26T13:51:59Z</time>
        <extensions><gpxtpx:TrackPointExtension><gpxtpx:hr>137</gpxtpx:hr></gpxtpx:TrackPointExtension></extensions>
      </trkpt>
      <trkpt lat="59.214932" lon="17.779322">
        <ele>24.6</ele>
        <time>2020-03-26T13:52:00Z</time>
        <extensions><gpxtpx:TrackPointExtension><gpxtpx:hr>138</gpxtpx:hr></gpxtpx:TrackPointExtension></extensions>
      </trkpt>
      <trkpt lat="59.21488" lon="17.779316">
        <ele>24.6</ele>
        <time>2020-03-26T13:52:01Z</time>
        <extensions><gpxtpx:TrackPointExtension><gpxtpx:hr>138</gpxtpx:hr></gpxtpx:TrackPointExtension></extensions>
      </trkpt>
      <trkpt lat="59.214828" lon="17.779311">
        <ele>24.8</ele>
        <time>2020-03-26T13:52:02Z</time>
        <extensions><gpxtpx:TrackPointExtension><gpxtpx:hr>138</gpxtpx:hr></gpxtpx:TrackPointExtension></extensions>
      </trkpt>
      <trkpt lat="59.214775" lon="17.779307">
        <ele>25</ele>
        <time>2020-03-26T13:52:03Z</time>
        <extensions><gpxtpx:TrackPointExtension><gpxtpx:hr>139</gpxtpx:hr></gpxtpx:TrackPointExtension></extensions>
      </trkpt>
      <trkpt lat="59.214722" lon="17.779302">
        <ele>25.2</ele>
        <time>2020-03-26T13:52:04Z</time>
        <extensions><gpxtpx:TrackPointExtension><gpxtpx:hr>139</gpxtpx:hr></gpxtpx:TrackPointExtension></extensions>
      </trkpt>
      <trkpt lat="59.214668" lon="17.779301">
        <ele>25.4</ele>
        <time>2020-03-26T13:52:05Z</time>
        <extensions><gpxtpx:TrackPointExtension><gpxtpx:hr>139</gpxtpx:hr></gpxtpx:TrackPointExtension></extensions>
      </trkpt>
      <trkpt lat="59.214612" lon="17.779301">
        <ele>25.6</ele>
        <time>2020-03-26T13:52:06Z</time>
        <extensions><gpxtpx:TrackPointExtension><gpxtpx:hr>139</gpxtpx:hr></gpxtpx:TrackPointExtension></extensions>
      </trkpt>
      <trkpt lat="59.214557" lon="17.779299">
        <ele>25.6</ele>
        <time>2020-03-26T13:52:07Z</time>
        <extensions><gpxtpx:TrackPointExtension><gpxtpx:hr>139</gpxtpx:hr></gpxtpx:TrackPointExtension></extensions>
      </trkpt>
      <trkpt lat="59.214504" lon="17.7793">
        <ele>25.8</ele>
        <time>2020-03-26T13:52:08Z</time>
        <extensions><gpxtpx:TrackPointExtension><gpxtpx:hr>139</gpxtpx:hr></gpxtpx:TrackPointExtension></extensions>
      </trkpt>
      <trkpt lat="59.214451" lon="17.779303">
        <ele>25.8</ele>
        <time>2020-03-26T13:52:09Z</time>
        <extensions><gpxtpx:TrackPointExtension><gpxtpx:hr>139</gpxtpx:hr></gpxtpx:TrackPointExtension></extensions>
      </trkpt>
      <trkpt lat="59.214399" lon="17.779305">
        <ele>25.8</ele>
        <time>2020-03-26T13:52:10Z</time>
        <extensions><gpxtpx:TrackPointExtension><gpxtpx:hr>139</gpxtpx:hr></gpxtpx:TrackPointExtension></extensions>
      </trkpt>
      <trkpt lat="59.214347" lon="17.779306">
        <ele>25.8</ele>
        <time>2020-03-26T13:52:11Z</time>
        <extensions><gpxtpx:TrackPointExtension><gpxtpx:hr>140</gpxtpx:hr></gpxtpx:TrackPointExtension></extensions>
      </trkpt>
      <trkpt lat="59.214295" lon="17.779305">
        <ele>25.8</ele>
        <time>2020-03-26T13:52:12Z</time>
        <extensions><gpxtpx:TrackPointExtension><gpxtpx:hr>140</gpxtpx:hr></gpxtpx:TrackPointExtension></extensions>
      </trkpt>
      <trkpt lat="59.214244" lon="17.779302">
        <ele>25.8</ele>
        <time>2020-03-26T13:52:13Z</time>
        <extensions><gpxtpx:TrackPointExtension><gpxtpx:hr>140</gpxtpx:hr></gpxtpx:TrackPointExtension></extensions>
      </trkpt>
      <trkpt lat="59.214192" lon="17.779297">
        <ele>26</ele>
        <time>2020-03-26T13:52:14Z</time>
        <extensions><gpxtpx:TrackPointExtension><gpxtpx:hr>140</gpxtpx:hr></gpxtpx:TrackPointExtension></extensions>
      </trkpt>
      <trkpt lat="59.214142" lon="17.779291">
        <ele>26.2</ele>
        <time>2020-03-26T13:52:15Z</time>
        <extensions><gpxtpx:TrackPointExtension><gpxtpx:hr>140</gpxtpx:hr></gpxtpx:TrackPointExtension></extensions>
      </trkpt>
      <trkpt lat="59.214091" lon="17.779284">
        <ele>26.2</ele>
        <time>2020-03-26T13:52:16Z</time>
        <extensions><gpxtpx:TrackPointExtension><gpxtpx:hr>141</gpxtpx:hr></gpxtpx:TrackPointExtension></extensions>
      </trkpt>
      <trkpt lat="59.214041" lon="17.779278">
        <ele>26.4</ele>
        <time>2020-03-26T13:52:17Z</time>
        <extensions><gpxtpx:TrackPointExtension><gpxtpx:hr>141</gpxtpx:hr></gpxtpx:TrackPointExtension></extensions>
      </trkpt>
      <trkpt lat="59.213991" lon="17.779269">
        <ele>26.6</ele>
        <time>2020-03-26T13:52:18Z</time>
        <extensions><gpxtpx:TrackPointExtension><gpxtpx:hr>142</gpxtpx:hr></gpxtpx:TrackPointExtension></extensions>
      </trkpt>
      <trkpt lat="59.213941" lon="17.77926">
        <ele>26.8</ele>
        <time>2020-03-26T13:52:19Z</time>
        <extensions><gpxtpx:TrackPointExtension><gpxtpx:hr>142</gpxtpx:hr></gpxtpx:TrackPointExtension></extensions>
      </trkpt>
      <trkpt lat="59.213889" lon="17.779256">
        <ele>27</ele>
        <time>2020-03-26T13:52:20Z</time>
        <extensions><gpxtpx:TrackPointExtension><gpxtpx:hr>143</gpxtpx:hr></gpxtpx:TrackPointExtension></extensions>
      </trkpt>
      <trkpt lat="59.213837" lon="17.779254">
        <ele>27.2</ele>
        <time>2020-03-26T13:52:21Z</time>
        <extensions><gpxtpx:TrackPointExtension><gpxtpx:hr>143</gpxtpx:hr></gpxtpx:TrackPointExtension></extensions>
      </trkpt>
      <trkpt lat="59.213785" lon="17.779253">
        <ele>27.2</ele>
        <time>2020-03-26T13:52:22Z</time>
        <extensions><gpxtpx:TrackPointExtension><gpxtpx:hr>144</gpxtpx:hr></gpxtpx:TrackPointExtension></extensions>
      </trkpt>
      <trkpt lat="59.213733" lon="17.779253">
        <ele>27.2</ele>
        <time>2020-03-26T13:52:23Z</time>
        <extensions><gpxtpx:TrackPointExtension><gpxtpx:hr>144</gpxtpx:hr></gpxtpx:TrackPointExtension></extensions>
      </trkpt>
      <trkpt lat="59.213681" lon="17.779252">
        <ele>27.4</ele>
        <time>2020-03-26T13:52:24Z</time>
        <extensions><gpxtpx:TrackPointExtension><gpxtpx:hr>144</gpxtpx:hr></gpxtpx:TrackPointExtension></extensions>
      </trkpt>
      <trkpt lat="59.213629" lon="17.779249">
        <ele>27.6</ele>
        <time>2020-03-26T13:52:25Z</time>
        <extensions><gpxtpx:TrackPointExtension><gpxtpx:hr>145</gpxtpx:hr></gpxtpx:TrackPointExtension></extensions>
      </trkpt>
      <trkpt lat="59.213578" lon="17.779246">
        <ele>27.6</ele>
        <time>2020-03-26T13:52:26Z</time>
        <extensions><gpxtpx:TrackPointExtension><gpxtpx:hr>145</gpxtpx:hr></gpxtpx:TrackPointExtension></extensions>
      </trkpt>
      <trkpt lat="59.213525" lon="17.779245">
        <ele>27.8</ele>
        <time>2020-03-26T13:52:27Z</time>
        <extensions><gpxtpx:TrackPointExtension><gpxtpx:hr>145</gpxtpx:hr></gpxtpx:TrackPointExtension></extensions>
      </trkpt>
      <trkpt lat="59.213474" lon="17.779244">
        <ele>27.8</ele>
        <time>2020-03-26T13:52:28Z</time>
        <extensions><gpxtpx:TrackPointExtension><gpxtpx:hr>146</gpxtpx:hr></gpxtpx:TrackPointExtension></extensions>
      </trkpt>
      <trkpt lat="59.213422" lon="17.779242">
        <ele>27.8</ele>
        <time>2020-03-26T13:52:29Z</time>
        <extensions><gpxtpx:TrackPointExtension><gpxtpx:hr>146</gpxtpx:hr></gpxtpx:TrackPointExtension></extensions>
      </trkpt>
      <trkpt lat="59.21337" lon="17.779239">
        <ele>27.8</ele>
        <time>2020-03-26T13:52:30Z</time>
        <extensions><gpxtpx:TrackPointExtension><gpxtpx:hr>146</gpxtpx:hr></gpxtpx:TrackPointExtension></extensions>
      </trkpt>
      <trkpt lat="59.213319" lon="17.779233">
        <ele>28</ele>
        <time>2020-03-26T13:52:31Z</time>
        <extensions><gpxtpx:TrackPointExtension><gpxtpx:hr>146</gpxtpx:hr></gpxtpx:TrackPointExtension></extensions>
      </trkpt>
      <trkpt lat="59.213267" lon="17.779228">
        <ele>28</ele>
        <time>2020-03-26T13:52:32Z</time>
        <extensions><gpxtpx:TrackPointExtension><gpxtpx:hr>146</gpxtpx:hr></gpxtpx:TrackPointExtension></extensions>
      </trkpt>
      <trkpt lat="59.213216" lon="17.779225">
        <ele>28</ele>
        <time>2020-03-26T13:52:33Z</time>
        <extensions><gpxtpx:TrackPointExtension><gpxtpx:hr>147</gpxtpx:hr></gpxtpx:TrackPointExtension></extensions>
      </trkpt>
      <trkpt lat="59.213165" lon="17.779223">
        <ele>28.2</ele>
        <time>2020-03-26T13:52:34Z</time>
        <extensions><gpxtpx:TrackPointExtension><gpxtpx:hr>147</gpxtpx:hr></gpxtpx:TrackPointExtension></extensions>
      </trkpt>
      <trkpt lat="59.213115" lon="17.779219">
        <ele>28.2</ele>
        <time>2020-03-26T13:52:35Z</time>
        <extensions><gpxtpx:TrackPointExtension><gpxtpx:hr>147</gpxtpx:hr></gpxtpx:TrackPointExtension></extensions>
      </trkpt>
      <trkpt lat="59.213064" lon="17.779215">
        <ele>28.4</ele>
        <time>2020-03-26T13:52:36Z</time>
        <extensions><gpxtpx:TrackPointExtension><gpxtpx:hr>148</gpxtpx:hr></gpxtpx:TrackPointExtension></extensions>
      </trkpt>
      <trkpt lat="59.213014" lon="17.779213">
        <ele>28.6</ele>
        <time>2020-03-26T13:52:37Z</time>
        <extensions><gpxtpx:TrackPointExtension><gpxtpx:hr>148</gpxtpx:hr></gpxtpx:TrackPointExtension></extensions>
      </trkpt>
      <trkpt lat="59.212964" lon="17.77921">
        <ele>28.8</ele>
        <time>2020-03-26T13:52:38Z</time>
        <extensions><gpxtpx:TrackPointExtension><gpxtpx:hr>148</gpxtpx:hr></gpxtpx:TrackPointExtension></extensions>
      </trkpt>
      <trkpt lat="59.212913" lon="17.779207">
        <ele>28.8</ele>
        <time>2020-03-26T13:52:39Z</time>
        <extensions><gpxtpx:TrackPointExtension><gpxtpx:hr>148</gpxtpx:hr></gpxtpx:TrackPointExtension></extensions>
      </trkpt>
      <trkpt lat="59.212863" lon="17.779207">
        <ele>28.8</ele>
        <time>2020-03-26T13:52:40Z</time>
        <extensions><gpxtpx:TrackPointExtension><gpxtpx:hr>147</gpxtpx:hr></gpxtpx:TrackPointExtension></extensions>
      </trkpt>
      <trkpt lat="59.212813" lon="17.779204">
        <ele>28.8</ele>
        <time>2020-03-26T13:52:41Z</time>
        <extensions><gpxtpx:TrackPointExtension><gpxtpx:hr>147</gpxtpx:hr></gpxtpx:TrackPointExtension></extensions>
      </trkpt>
      <trkpt lat="59.212763" lon="17.779196">
        <ele>29</ele>
        <time>2020-03-26T13:52:42Z</time>
        <extensions><gpxtpx:TrackPointExtension><gpxtpx:hr>147</gpxtpx:hr></gpxtpx:TrackPointExtension></extensions>
      </trkpt>
      <trkpt lat="59.212712" lon="17.779192">
        <ele>29</ele>
        <time>2020-03-26T13:52:43Z</time>
        <extensions><gpxtpx:TrackPointExtension><gpxtpx:hr>147</gpxtpx:hr></gpxtpx:TrackPointExtension></extensions>
      </trkpt>
      <trkpt lat="59.212662" lon="17.77919">
        <ele>29</ele>
        <time>2020-03-26T13:52:44Z</time>
        <extensions><gpxtpx:TrackPointExtension><gpxtpx:hr>147</gpxtpx:hr></gpxtpx:TrackPointExtension></extensions>
      </trkpt>
      <trkpt lat="59.212612" lon="17.779186">
        <ele>29.4</ele>
        <time>2020-03-26T13:52:45Z</time>
        <extensions><gpxtpx:TrackPointExtension><gpxtpx:hr>146</gpxtpx:hr></gpxtpx:TrackPointExtension></extensions>
      </trkpt>
      <trkpt lat="59.212561" lon="17.77918">
        <ele>29.4</ele>
        <time>2020-03-26T13:52:46Z</time>
        <extensions><gpxtpx:TrackPointExtension><gpxtpx:hr>146</gpxtpx:hr></gpxtpx:TrackPointExtension></extensions>
      </trkpt>
      <trkpt lat="59.21251" lon="17.779173">
        <ele>29.6</ele>
        <time>2020-03-26T13:52:47Z</time>
        <extensions><gpxtpx:TrackPointExtension><gpxtpx:hr>146</gpxtpx:hr></gpxtpx:TrackPointExtension></extensions>
      </trkpt>
      <trkpt lat="59.212459" lon="17.779168">
        <ele>29.8</ele>
        <time>2020-03-26T13:52:48Z</time>
        <extensions><gpxtpx:TrackPointExtension><gpxtpx:hr>146</gpxtpx:hr></gpxtpx:TrackPointExtension></extensions>
      </trkpt>
      <trkpt lat="59.212408" lon="17.779166">
        <ele>29.8</ele>
        <time>2020-03-26T13:52:49Z</time>
        <extensions><gpxtpx:TrackPointExtension><gpxtpx:hr>146</gpxtpx:hr></gpxtpx:TrackPointExtension></extensions>
      </trkpt>
      <trkpt lat="59.212357" lon="17.779163">
        <ele>30</ele>
        <time>2020-03-26T13:52:50Z</time>
        <extensions><gpxtpx:TrackPointExtension><gpxtpx:hr>146</gpxtpx:hr></gpxtpx:TrackPointExtension></extensions>
      </trkpt>
      <trkpt lat="59.212306" lon="17.779159">
        <ele>30</ele>
        <time>2020-03-26T13:52:51Z</time>
        <extensions><gpxtpx:TrackPointExtension><gpxtpx:hr>146</gpxtpx:hr></gpxtpx:TrackPointExtension></extensions>
      </trkpt>
      <trkpt lat="59.212255" lon="17.779154">
        <ele>30</ele>
        <time>2020-03-26T13:52:52Z</time>
        <extensions><gpxtpx:TrackPointExtension><gpxtpx:hr>146</gpxtpx:hr></gpxtpx:TrackPointExtension></extensions>
      </trkpt>
      <trkpt lat="59.212205" lon="17.779146">
        <ele>30</ele>
        <time>2020-03-26T13:52:53Z</time>
        <extensions><gpxtpx:TrackPointExtension><gpxtpx:hr>145</gpxtpx:hr></gpxtpx:TrackPointExtension></extensions>
      </trkpt>
      <trkpt lat="59.212154" lon="17.779137">
        <ele>30.2</ele>
        <time>2020-03-26T13:52:54Z</time>
        <extensions><gpxtpx:TrackPointExtension><gpxtpx:hr>145</gpxtpx:hr></gpxtpx:TrackPointExtension></extensions>
      </trkpt>
      <trkpt lat="59.212104" lon="17.779129">
        <ele>30.2</ele>
        <time>2020-03-26T13:52:55Z</time>
        <extensions><gpxtpx:TrackPointExtension><gpxtpx:hr>145</gpxtpx:hr></gpxtpx:TrackPointExtension></extensions>
      </trkpt>
      <trkpt lat="59.212055" lon="17.77912">
        <ele>30.2</ele>
        <time>2020-03-26T13:52:56Z</time>
        <extensions><gpxtpx:TrackPointExtension><gpxtpx:hr>145</gpxtpx:hr></gpxtpx:TrackPointExtension></extensions>
      </trkpt>
      <trkpt lat="59.212005" lon="17.779115">
        <ele>30.2</ele>
        <time>2020-03-26T13:52:57Z</time>
        <extensions><gpxtpx:TrackPointExtension><gpxtpx:hr>145</gpxtpx:hr></gpxtpx:TrackPointExtension></extensions>
      </trkpt>
      <trkpt lat="59.211957" lon="17.77911">
        <ele>30.4</ele>
        <time>2020-03-26T13:52:58Z</time>
        <extensions><gpxtpx:TrackPointExtension><gpxtpx:hr>145</gpxtpx:hr></gpxtpx:TrackPointExtension></extensions>
      </trkpt>
      <trkpt lat="59.211908" lon="17.779103">
        <ele>30.6</ele>
        <time>2020-03-26T13:52:59Z</time>
        <extensions><gpxtpx:TrackPointExtension><gpxtpx:hr>145</gpxtpx:hr></gpxtpx:TrackPointExtension></extensions>
      </trkpt>
      <trkpt lat="59.211861" lon="17.779093">
        <ele>30.8</ele>
        <time>2020-03-26T13:53:00Z</time>
        <extensions><gpxtpx:TrackPointExtension><gpxtpx:hr>144</gpxtpx:hr></gpxtpx:TrackPointExtension></extensions>
      </trkpt>
      <trkpt lat="59.211814" lon="17.779081">
        <ele>30.8</ele>
        <time>2020-03-26T13:53:01Z</time>
        <extensions><gpxtpx:TrackPointExtension><gpxtpx:hr>144</gpxtpx:hr></gpxtpx:TrackPointExtension></extensions>
      </trkpt>
      <trkpt lat="59.211766" lon="17.779069">
        <ele>30.8</ele>
        <time>2020-03-26T13:53:02Z</time>
        <extensions><gpxtpx:TrackPointExtension><gpxtpx:hr>144</gpxtpx:hr></gpxtpx:TrackPointExtension></extensions>
      </trkpt>
      <trkpt lat="59.21172" lon="17.779058">
        <ele>30.8</ele>
        <time>2020-03-26T13:53:03Z</time>
        <extensions><gpxtpx:TrackPointExtension><gpxtpx:hr>144</gpxtpx:hr></gpxtpx:TrackPointExtension></extensions>
      </trkpt>
      <trkpt lat="59.211673" lon="17.779048">
        <ele>31.2</ele>
        <time>2020-03-26T13:53:04Z</time>
        <extensions><gpxtpx:TrackPointExtension><gpxtpx:hr>144</gpxtpx:hr></gpxtpx:TrackPointExtension></extensions>
      </trkpt>
      <trkpt lat="59.211628" lon="17.779038">
        <ele>31.6</ele>
        <time>2020-03-26T13:53:05Z</time>
        <extensions><gpxtpx:TrackPointExtension><gpxtpx:hr>144</gpxtpx:hr></gpxtpx:TrackPointExtension></extensions>
      </trkpt>
      <trkpt lat="59.211583" lon="17.779028">
        <ele>31.8</ele>
        <time>2020-03-26T13:53:06Z</time>
        <extensions><gpxtpx:TrackPointExtension><gpxtpx:hr>143</gpxtpx:hr></gpxtpx:TrackPointExtension></extensions>
      </trkpt>
      <trkpt lat="59.211539" lon="17.779015">
        <ele>32</ele>
        <time>2020-03-26T13:53:07Z</time>
        <extensions><gpxtpx:TrackPointExtension><gpxtpx:hr>143</gpxtpx:hr></gpxtpx:TrackPointExtension></extensions>
      </trkpt>
      <trkpt lat="59.211496" lon="17.779002">
        <ele>32.2</ele>
        <time>2020-03-26T13:53:08Z</time>
        <extensions><gpxtpx:TrackPointExtension><gpxtpx:hr>143</gpxtpx:hr></gpxtpx:TrackPointExtension></extensions>
      </trkpt>
      <trkpt lat="59.211453" lon="17.778991">
        <ele>32.4</ele>
        <time>2020-03-26T13:53:09Z</time>
        <extensions><gpxtpx:TrackPointExtension><gpxtpx:hr>143</gpxtpx:hr></gpxtpx:TrackPointExtension></extensions>
      </trkpt>
      <trkpt lat="59.211412" lon="17.778982">
        <ele>32.6</ele>
        <time>2020-03-26T13:53:10Z</time>
        <extensions><gpxtpx:TrackPointExtension><gpxtpx:hr>143</gpxtpx:hr></gpxtpx:TrackPointExtension></extensions>
      </trkpt>
      <trkpt lat="59.211372" lon="17.778975">
        <ele>32.6</ele>
        <time>2020-03-26T13:53:11Z</time>
        <extensions><gpxtpx:TrackPointExtension><gpxtpx:hr>143</gpxtpx:hr></gpxtpx:TrackPointExtension></extensions>
      </trkpt>
      <trkpt lat="59.211333" lon="17.778964">
        <ele>32.8</ele>
        <time>2020-03-26T13:53:12Z</time>
        <extensions><gpxtpx:TrackPointExtension><gpxtpx:hr>143</gpxtpx:hr></gpxtpx:TrackPointExtension></extensions>
      </trkpt>
      <trkpt lat="59.211294" lon="17.778948">
        <ele>33.2</ele>
        <time>2020-03-26T13:53:13Z</time>
        <extensions><gpxtpx:TrackPointExtension><gpxtpx:hr>142</gpxtpx:hr></gpxtpx:TrackPointExtension></extensions>
      </trkpt>
      <trkpt lat="59.211254" lon="17.778932">
        <ele>33.6</ele>
        <time>2020-03-26T13:53:14Z</time>
        <extensions><gpxtpx:TrackPointExtension><gpxtpx:hr>142</gpxtpx:hr></gpxtpx:TrackPointExtension></extensions>
      </trkpt>
      <trkpt lat="59.211213" lon="17.778916">
        <ele>33.8</ele>
        <time>2020-03-26T13:53:15Z</time>
        <extensions><gpxtpx:TrackPointExtension><gpxtpx:hr>142</gpxtpx:hr></gpxtpx:TrackPointExtension></extensions>
      </trkpt>
      <trkpt lat="59.211173" lon="17.778903">
        <ele>34</ele>
        <time>2020-03-26T13:53:16Z</time>
        <extensions><gpxtpx:TrackPointExtension><gpxtpx:hr>142</gpxtpx:hr></gpxtpx:TrackPointExtension></extensions>
      </trkpt>
      <trkpt lat="59.211132" lon="17.778895">
        <ele>34.2</ele>
        <time>2020-03-26T13:53:17Z</time>
        <extensions><gpxtpx:TrackPointExtension><gpxtpx:hr>142</gpxtpx:hr></gpxtpx:TrackPointExtension></extensions>
      </trkpt>
      <trkpt lat="59.211091" lon="17.77889">
        <ele>34.4</ele>
        <time>2020-03-26T13:53:18Z</time>
        <extensions><gpxtpx:TrackPointExtension><gpxtpx:hr>142</gpxtpx:hr></gpxtpx:TrackPointExtension></extensions>
      </trkpt>
      <trkpt lat="59.21105" lon="17.778892">
        <ele>34.6</ele>
        <time>2020-03-26T13:53:19Z</time>
        <extensions><gpxtpx:TrackPointExtension><gpxtpx:hr>142</gpxtpx:hr></gpxtpx:TrackPointExtension></extensions>
      </trkpt>
      <trkpt lat="59.211007" lon="17.778903">
        <ele>34.8</ele>
        <time>2020-03-26T13:53:20Z</time>
        <extensions><gpxtpx:TrackPointExtension><gpxtpx:hr>143</gpxtpx:hr></gpxtpx:TrackPointExtension></extensions>
      </trkpt>
      <trkpt lat="59.210964" lon="17.778921">
        <ele>34.8</ele>
        <time>2020-03-26T13:53:21Z</time>
        <extensions><gpxtpx:TrackPointExtension><gpxtpx:hr>143</gpxtpx:hr></gpxtpx:TrackPointExtension></extensions>
      </trkpt>
      <trkpt lat="59.21092" lon="17.778946">
        <ele>35</ele>
        <time>2020-03-26T13:53:22Z</time>
        <extensions><gpxtpx:TrackPointExtension><gpxtpx:hr>144</gpxtpx:hr></gpxtpx:TrackPointExtension></extensions>
      </trkpt>
      <trkpt lat="59.210875" lon="17.778981">
        <ele>35.2</ele>
        <time>2020-03-26T13:53:23Z</time>
        <extensions><gpxtpx:TrackPointExtension><gpxtpx:hr>144</gpxtpx:hr></gpxtpx:TrackPointExtension></extensions>
      </trkpt>
      <trkpt lat="59.210834" lon="17.779029">
        <ele>35.4</ele>
        <time>2020-03-26T13:53:24Z</time>
        <extensions><gpxtpx:TrackPointExtension><gpxtpx:hr>145</gpxtpx:hr></gpxtpx:TrackPointExtension></extensions>
      </trkpt>
      <trkpt lat="59.210796" lon="17.779081">
        <ele>35.6</ele>
        <time>2020-03-26T13:53:25Z</time>
        <extensions><gpxtpx:TrackPointExtension><gpxtpx:hr>145</gpxtpx:hr></gpxtpx:TrackPointExtension></extensions>
      </trkpt>
      <trkpt lat="59.210758" lon="17.779136">
        <ele>35.8</ele>
        <time>2020-03-26T13:53:26Z</time>
        <extensions><gpxtpx:TrackPointExtension><gpxtpx:hr>146</gpxtpx:hr></gpxtpx:TrackPointExtension></extensions>
      </trkpt>
      <trkpt lat="59.210717" lon="17.779191">
        <ele>36</ele>
        <time>2020-03-26T13:53:27Z</time>
        <extensions><gpxtpx:TrackPointExtension><gpxtpx:hr>146</gpxtpx:hr></gpxtpx:TrackPointExtension></extensions>
      </trkpt>
      <trkpt lat="59.210676" lon="17.779251">
        <ele>36.2</ele>
        <time>2020-03-26T13:53:28Z</time>
        <extensions><gpxtpx:TrackPointExtension><gpxtpx:hr>147</gpxtpx:hr></gpxtpx:TrackPointExtension></extensions>
      </trkpt>
      <trkpt lat="59.210636" lon="17.779318">
        <ele>36.4</ele>
        <time>2020-03-26T13:53:29Z</time>
        <extensions><gpxtpx:TrackPointExtension><gpxtpx:hr>147</gpxtpx:hr></gpxtpx:TrackPointExtension></extensions>
      </trkpt>
      <trkpt lat="59.210596" lon="17.779394">
        <ele>36.6</ele>
        <time>2020-03-26T13:53:30Z</time>
        <extensions><gpxtpx:TrackPointExtension><gpxtpx:hr>147</gpxtpx:hr></gpxtpx:TrackPointExtension></extensions>
      </trkpt>
      <trkpt lat="59.210557" lon="17.779465">
        <ele>36.8</ele>
        <time>2020-03-26T13:53:31Z</time>
        <extensions><gpxtpx:TrackPointExtension><gpxtpx:hr>147</gpxtpx:hr></gpxtpx:TrackPointExtension></extensions>
      </trkpt>
      <trkpt lat="59.210519" lon="17.779535">
        <ele>36.8</ele>
        <time>2020-03-26T13:53:32Z</time>
        <extensions><gpxtpx:TrackPointExtension><gpxtpx:hr>147</gpxtpx:hr></gpxtpx:TrackPointExtension></extensions>
      </trkpt>
      <trkpt lat="59.210481" lon="17.779609">
        <ele>36.8</ele>
        <time>2020-03-26T13:53:33Z</time>
        <extensions><gpxtpx:TrackPointExtension><gpxtpx:hr>147</gpxtpx:hr></gpxtpx:TrackPointExtension></extensions>
      </trkpt>
      <trkpt lat="59.210441" lon="17.779683">
        <ele>37</ele>
        <time>2020-03-26T13:53:34Z</time>
        <extensions><gpxtpx:TrackPointExtension><gpxtpx:hr>147</gpxtpx:hr></gpxtpx:TrackPointExtension></extensions>
      </trkpt>
      <trkpt lat="59.2104" lon="17.779756">
        <ele>37</ele>
        <time>2020-03-26T13:53:35Z</time>
        <extensions><gpxtpx:TrackPointExtension><gpxtpx:hr>147</gpxtpx:hr></gpxtpx:TrackPointExtension></extensions>
      </trkpt>
      <trkpt lat="59.210359" lon="17.779827">
        <ele>37.2</ele>
        <time>2020-03-26T13:53:36Z</time>
        <extensions><gpxtpx:TrackPointExtension><gpxtpx:hr>147</gpxtpx:hr></gpxtpx:TrackPointExtension></extensions>
      </trkpt>
      <trkpt lat="59.210318" lon="17.779899">
        <ele>37.2</ele>
        <time>2020-03-26T13:53:37Z</time>
        <extensions><gpxtpx:TrackPointExtension><gpxtpx:hr>146</gpxtpx:hr></gpxtpx:TrackPointExtension></extensions>
      </trkpt>
      <trkpt lat="59.210278" lon="17.779974">
        <ele>37.2</ele>
        <time>2020-03-26T13:53:38Z</time>
        <extensions><gpxtpx:TrackPointExtension><gpxtpx:hr>146</gpxtpx:hr></gpxtpx:TrackPointExtension></extensions>
      </trkpt>
      <trkpt lat="59.210239" lon="17.780049">
        <ele>37.4</ele>
        <time>2020-03-26T13:53:39Z</time>
        <extensions><gpxtpx:TrackPointExtension><gpxtpx:hr>146</gpxtpx:hr></gpxtpx:TrackPointExtension></extensions>
      </trkpt>
      <trkpt lat="59.210199" lon="17.780122">
        <ele>37.4</ele>
        <time>2020-03-26T13:53:40Z</time>
        <extensions><gpxtpx:TrackPointExtension><gpxtpx:hr>145</gpxtpx:hr></gpxtpx:TrackPointExtension></extensions>
      </trkpt>
      <trkpt lat="59.210159" lon="17.780192">
        <ele>37.4</ele>
        <time>2020-03-26T13:53:41Z</time>
        <extensions><gpxtpx:TrackPointExtension><gpxtpx:hr>145</gpxtpx:hr></gpxtpx:TrackPointExtension></extensions>
      </trkpt>
      <trkpt lat="59.21012" lon="17.780265">
        <ele>37.4</ele>
        <time>2020-03-26T13:53:42Z</time>
        <extensions><gpxtpx:TrackPointExtension><gpxtpx:hr>145</gpxtpx:hr></gpxtpx:TrackPointExtension></extensions>
      </trkpt>
      <trkpt lat="59.210082" lon="17.780339">
        <ele>37.4</ele>
        <time>2020-03-26T13:53:43Z</time>
        <extensions><gpxtpx:TrackPointExtension><gpxtpx:hr>144</gpxtpx:hr></gpxtpx:TrackPointExtension></extensions>
      </trkpt>
      <trkpt lat="59.210046" lon="17.780412">
        <ele>37.4</ele>
        <time>2020-03-26T13:53:44Z</time>
        <extensions><gpxtpx:TrackPointExtension><gpxtpx:hr>144</gpxtpx:hr></gpxtpx:TrackPointExtension></extensions>
      </trkpt>
      <trkpt lat="59.210008" lon="17.780482">
        <ele>37.4</ele>
        <time>2020-03-26T13:53:45Z</time>
        <extensions><gpxtpx:TrackPointExtension><gpxtpx:hr>144</gpxtpx:hr></gpxtpx:TrackPointExtension></extensions>
      </trkpt>
      <trkpt lat="59.20997" lon="17.780553">
        <ele>37.4</ele>
        <time>2020-03-26T13:53:46Z</time>
        <extensions><gpxtpx:TrackPointExtension><gpxtpx:hr>144</gpxtpx:hr></gpxtpx:TrackPointExtension></extensions>
      </trkpt>
      <trkpt lat="59.209931" lon="17.780626">
        <ele>37.4</ele>
        <time>2020-03-26T13:53:47Z</time>
        <extensions><gpxtpx:TrackPointExtension><gpxtpx:hr>144</gpxtpx:hr></gpxtpx:TrackPointExtension></extensions>
      </trkpt>
      <trkpt lat="59.209894" lon="17.7807">
        <ele>37.4</ele>
        <time>2020-03-26T13:53:48Z</time>
        <extensions><gpxtpx:TrackPointExtension><gpxtpx:hr>144</gpxtpx:hr></gpxtpx:TrackPointExtension></extensions>
      </trkpt>
      <trkpt lat="59.209855" lon="17.780775">
        <ele>37.4</ele>
        <time>2020-03-26T13:53:49Z</time>
        <extensions><gpxtpx:TrackPointExtension><gpxtpx:hr>143</gpxtpx:hr></gpxtpx:TrackPointExtension></extensions>
      </trkpt>
      <trkpt lat="59.209818" lon="17.780851">
        <ele>37.6</ele>
        <time>2020-03-26T13:53:50Z</time>
        <extensions><gpxtpx:TrackPointExtension><gpxtpx:hr>143</gpxtpx:hr></gpxtpx:TrackPointExtension></extensions>
      </trkpt>
      <trkpt lat="59.209781" lon="17.780923">
        <ele>37.8</ele>
        <time>2020-03-26T13:53:51Z</time>
        <extensions><gpxtpx:TrackPointExtension><gpxtpx:hr>143</gpxtpx:hr></gpxtpx:TrackPointExtension></extensions>
      </trkpt>
      <trkpt lat="59.209743" lon="17.780999">
        <ele>37.8</ele>
        <time>2020-03-26T13:53:52Z</time>
        <extensions><gpxtpx:TrackPointExtension><gpxtpx:hr>143</gpxtpx:hr></gpxtpx:TrackPointExtension></extensions>
      </trkpt>
      <trkpt lat="59.209704" lon="17.781074">
        <ele>38</ele>
        <time>2020-03-26T13:53:53Z</time>
        <extensions><gpxtpx:TrackPointExtension><gpxtpx:hr>143</gpxtpx:hr></gpxtpx:TrackPointExtension></extensions>
      </trkpt>
      <trkpt lat="59.209665" lon="17.781147">
        <ele>38</ele>
        <time>2020-03-26T13:53:54Z</time>
        <extensions><gpxtpx:TrackPointExtension><gpxtpx:hr>143</gpxtpx:hr></gpxtpx:TrackPointExtension></extensions>
      </trkpt>
      <trkpt lat="59.209627" lon="17.781219">
        <ele>38</ele>
        <time>2020-03-26T13:53:55Z</time>
        <extensions><gpxtpx:TrackPointExtension><gpxtpx:hr>143</gpxtpx:hr></gpxtpx:TrackPointExtension></extensions>
      </trkpt>
      <trkpt lat="59.209591" lon="17.781293">
        <ele>38</ele>
        <time>2020-03-26T13:53:56Z</time>
        <extensions><gpxtpx:TrackPointExtension><gpxtpx:hr>142</gpxtpx:hr></gpxtpx:TrackPointExtension></extensions>
      </trkpt>
      <trkpt lat="59.209554" lon="17.781368">
        <ele>38</ele>
        <time>2020-03-26T13:53:57Z</time>
        <extensions><gpxtpx:TrackPointExtension><gpxtpx:hr>142</gpxtpx:hr></gpxtpx:TrackPointExtension></extensions>
      </trkpt>
      <trkpt lat="59.209516" lon="17.781443">
        <ele>38.2</ele>
        <time>2020-03-26T13:53:58Z</time>
        <extensions><gpxtpx:TrackPointExtension><gpxtpx:hr>142</gpxtpx:hr></gpxtpx:TrackPointExtension></extensions>
      </trkpt>
      <trkpt lat="59.209477" lon="17.781515">
        <ele>38.4</ele>
        <time>2020-03-26T13:53:59Z</time>
        <extensions><gpxtpx:TrackPointExtension><gpxtpx:hr>141</gpxtpx:hr></gpxtpx:TrackPointExtension></extensions>
      </trkpt>
      <trkpt lat="59.209439" lon="17.781586">
        <ele>38.4</ele>
        <time>2020-03-26T13:54:00Z</time>
        <extensions><gpxtpx:TrackPointExtension><gpxtpx:hr>141</gpxtpx:hr></gpxtpx:TrackPointExtension></extensions>
      </trkpt>
      <trkpt lat="59.209401" lon="17.781652">
        <ele>38.6</ele>
        <time>2020-03-26T13:54:01Z</time>
        <extensions><gpxtpx:TrackPointExtension><gpxtpx:hr>141</gpxtpx:hr></gpxtpx:TrackPointExtension></extensions>
      </trkpt>
      <trkpt lat="59.209363" lon="17.781722">
        <ele>38.6</ele>
        <time>2020-03-26T13:54:02Z</time>
        <extensions><gpxtpx:TrackPointExtension><gpxtpx:hr>141</gpxtpx:hr></gpxtpx:TrackPointExtension></extensions>
      </trkpt>
      <trkpt lat="59.209323" lon="17.781796">
        <ele>38.6</ele>
        <time>2020-03-26T13:54:03Z</time>
        <extensions><gpxtpx:TrackPointExtension><gpxtpx:hr>141</gpxtpx:hr></gpxtpx:TrackPointExtension></extensions>
      </trkpt>
      <trkpt lat="59.209284" lon="17.781874">
        <ele>38.8</ele>
        <time>2020-03-26T13:54:04Z</time>
        <extensions><gpxtpx:TrackPointExtension><gpxtpx:hr>141</gpxtpx:hr></gpxtpx:TrackPointExtension></extensions>
      </trkpt>
      <trkpt lat="59.209243" lon="17.781951">
        <ele>38.8</ele>
        <time>2020-03-26T13:54:05Z</time>
        <extensions><gpxtpx:TrackPointExtension><gpxtpx:hr>141</gpxtpx:hr></gpxtpx:TrackPointExtension></extensions>
      </trkpt>
      <trkpt lat="59.2092" lon="17.782031">
        <ele>38.8</ele>
        <time>2020-03-26T13:54:06Z</time>
        <extensions><gpxtpx:TrackPointExtension><gpxtpx:hr>141</gpxtpx:hr></gpxtpx:TrackPointExtension></extensions>
      </trkpt>
      <trkpt lat="59.209159" lon="17.782112">
        <ele>39</ele>
        <time>2020-03-26T13:54:07Z</time>
        <extensions><gpxtpx:TrackPointExtension><gpxtpx:hr>141</gpxtpx:hr></gpxtpx:TrackPointExtension></extensions>
      </trkpt>
      <trkpt lat="59.209116" lon="17.782194">
        <ele>39.2</ele>
        <time>2020-03-26T13:54:08Z</time>
        <extensions><gpxtpx:TrackPointExtension><gpxtpx:hr>141</gpxtpx:hr></gpxtpx:TrackPointExtension></extensions>
      </trkpt>
      <trkpt lat="59.209076" lon="17.782271">
        <ele>39.4</ele>
        <time>2020-03-26T13:54:09Z</time>
        <extensions><gpxtpx:TrackPointExtension><gpxtpx:hr>141</gpxtpx:hr></gpxtpx:TrackPointExtension></extensions>
      </trkpt>
      <trkpt lat="59.209033" lon="17.782352">
        <ele>39.4</ele>
        <time>2020-03-26T13:54:10Z</time>
        <extensions><gpxtpx:TrackPointExtension><gpxtpx:hr>141</gpxtpx:hr></gpxtpx:TrackPointExtension></extensions>
      </trkpt>
      <trkpt lat="59.208993" lon="17.782431">
        <ele>39.6</ele>
        <time>2020-03-26T13:54:11Z</time>
        <extensions><gpxtpx:TrackPointExtension><gpxtpx:hr>141</gpxtpx:hr></gpxtpx:TrackPointExtension></extensions>
      </trkpt>
      <trkpt lat="59.208951" lon="17.78251">
        <ele>39.6</ele>
        <time>2020-03-26T13:54:12Z</time>
        <extensions><gpxtpx:TrackPointExtension><gpxtpx:hr>141</gpxtpx:hr></gpxtpx:TrackPointExtension></extensions>
      </trkpt>
      <trkpt lat="59.208909" lon="17.782591">
        <ele>39.8</ele>
        <time>2020-03-26T13:54:13Z</time>
        <extensions><gpxtpx:TrackPointExtension><gpxtpx:hr>141</gpxtpx:hr></gpxtpx:TrackPointExtension></extensions>
      </trkpt>
      <trkpt lat="59.208867" lon="17.782675">
        <ele>39.8</ele>
        <time>2020-03-26T13:54:14Z</time>
        <extensions><gpxtpx:TrackPointExtension><gpxtpx:hr>141</gpxtpx:hr></gpxtpx:TrackPointExtension></extensions>
      </trkpt>
      <trkpt lat="59.208823" lon="17.78276">
        <ele>39.8</ele>
        <time>2020-03-26T13:54:15Z</time>
        <extensions><gpxtpx:TrackPointExtension><gpxtpx:hr>142</gpxtpx:hr></gpxtpx:TrackPointExtension></extensions>
      </trkpt>
      <trkpt lat="59.208779" lon="17.782844">
        <ele>39.8</ele>
        <time>2020-03-26T13:54:16Z</time>
        <extensions><gpxtpx:TrackPointExtension><gpxtpx:hr>142</gpxtpx:hr></gpxtpx:TrackPointExtension></extensions>
      </trkpt>
      <trkpt lat="59.208733" lon="17.782928">
        <ele>39.8</ele>
        <time>2020-03-26T13:54:17Z</time>
        <extensions><gpxtpx:TrackPointExtension><gpxtpx:hr>142</gpxtpx:hr></gpxtpx:TrackPointExtension></extensions>
      </trkpt>
      <trkpt lat="59.208686" lon="17.783012">
        <ele>39.8</ele>
        <time>2020-03-26T13:54:18Z</time>
        <extensions><gpxtpx:TrackPointExtension><gpxtpx:hr>142</gpxtpx:hr></gpxtpx:TrackPointExtension></extensions>
      </trkpt>
      <trkpt lat="59.20864" lon="17.7831">
        <ele>39.8</ele>
        <time>2020-03-26T13:54:19Z</time>
        <extensions><gpxtpx:TrackPointExtension><gpxtpx:hr>142</gpxtpx:hr></gpxtpx:TrackPointExtension></extensions>
      </trkpt>
      <trkpt lat="59.208592" lon="17.783186">
        <ele>39.8</ele>
        <time>2020-03-26T13:54:20Z</time>
        <extensions><gpxtpx:TrackPointExtension><gpxtpx:hr>142</gpxtpx:hr></gpxtpx:TrackPointExtension></extensions>
      </trkpt>
      <trkpt lat="59.208546" lon="17.783274">
        <ele>39.8</ele>
        <time>2020-03-26T13:54:21Z</time>
        <extensions><gpxtpx:TrackPointExtension><gpxtpx:hr>141</gpxtpx:hr></gpxtpx:TrackPointExtension></extensions>
      </trkpt>
      <trkpt lat="59.2085" lon="17.783363">
        <ele>39.8</ele>
        <time>2020-03-26T13:54:22Z</time>
        <extensions><gpxtpx:TrackPointExtension><gpxtpx:hr>141</gpxtpx:hr></gpxtpx:TrackPointExtension></extensions>
      </trkpt>
      <trkpt lat="59.208455" lon="17.78345">
        <ele>39.8</ele>
        <time>2020-03-26T13:54:23Z</time>
        <extensions><gpxtpx:TrackPointExtension><gpxtpx:hr>141</gpxtpx:hr></gpxtpx:TrackPointExtension></extensions>
      </trkpt>
      <trkpt lat="59.20841" lon="17.783536">
        <ele>39.8</ele>
        <time>2020-03-26T13:54:24Z</time>
        <extensions><gpxtpx:TrackPointExtension><gpxtpx:hr>140</gpxtpx:hr></gpxtpx:TrackPointExtension></extensions>
      </trkpt>
      <trkpt lat="59.208365" lon="17.783621">
        <ele>39.8</ele>
        <time>2020-03-26T13:54:25Z</time>
        <extensions><gpxtpx:TrackPointExtension><gpxtpx:hr>140</gpxtpx:hr></gpxtpx:TrackPointExtension></extensions>
      </trkpt>
      <trkpt lat="59.208317" lon="17.783704">
        <ele>39.8</ele>
        <time>2020-03-26T13:54:26Z</time>
        <extensions><gpxtpx:TrackPointExtension><gpxtpx:hr>139</gpxtpx:hr></gpxtpx:TrackPointExtension></extensions>
      </trkpt>
      <trkpt lat="59.208269" lon="17.783786">
        <ele>39.8</ele>
        <time>2020-03-26T13:54:27Z</time>
        <extensions><gpxtpx:TrackPointExtension><gpxtpx:hr>139</gpxtpx:hr></gpxtpx:TrackPointExtension></extensions>
      </trkpt>
      <trkpt lat="59.208219" lon="17.783868">
        <ele>39.8</ele>
        <time>2020-03-26T13:54:28Z</time>
        <extensions><gpxtpx:TrackPointExtension><gpxtpx:hr>139</gpxtpx:hr></gpxtpx:TrackPointExtension></extensions>
      </trkpt>
      <trkpt lat="59.208169" lon="17.783955">
        <ele>39.8</ele>
        <time>2020-03-26T13:54:29Z</time>
        <extensions><gpxtpx:TrackPointExtension><gpxtpx:hr>139</gpxtpx:hr></gpxtpx:TrackPointExtension></extensions>
      </trkpt>
      <trkpt lat="59.208118" lon="17.784038">
        <ele>39.6</ele>
        <time>2020-03-26T13:54:30Z</time>
        <extensions><gpxtpx:TrackPointExtension><gpxtpx:hr>138</gpxtpx:hr></gpxtpx:TrackPointExtension></extensions>
      </trkpt>
      <trkpt lat="59.208066" lon="17.784118">
        <ele>39.6</ele>
        <time>2020-03-26T13:54:31Z</time>
        <extensions><gpxtpx:TrackPointExtension><gpxtpx:hr>138</gpxtpx:hr></gpxtpx:TrackPointExtension></extensions>
      </trkpt>
      <trkpt lat="59.208014" lon="17.784202">
        <ele>39.6</ele>
        <time>2020-03-26T13:54:32Z</time>
        <extensions><gpxtpx:TrackPointExtension><gpxtpx:hr>138</gpxtpx:hr></gpxtpx:TrackPointExtension></extensions>
      </trkpt>
      <trkpt lat="59.207959" lon="17.784281">
        <ele>39.4</ele>
        <time>2020-03-26T13:54:33Z</time>
        <extensions><gpxtpx:TrackPointExtension><gpxtpx:hr>137</gpxtpx:hr></gpxtpx:TrackPointExtension></extensions>
      </trkpt>
      <trkpt lat="59.207904" lon="17.784355">
        <ele>39.4</ele>
        <time>2020-03-26T13:54:34Z</time>
        <extensions><gpxtpx:TrackPointExtension><gpxtpx:hr>137</gpxtpx:hr></gpxtpx:TrackPointExtension></extensions>
      </trkpt>
      <trkpt lat="59.207847" lon="17.784422">
        <ele>39.4</ele>
        <time>2020-03-26T13:54:35Z</time>
        <extensions><gpxtpx:TrackPointExtension><gpxtpx:hr>136</gpxtpx:hr></gpxtpx:TrackPointExtension></extensions>
      </trkpt>
      <trkpt lat="59.207791" lon="17.784481">
        <ele>39.4</ele>
        <time>2020-03-26T13:54:36Z</time>
        <extensions><gpxtpx:TrackPointExtension><gpxtpx:hr>136</gpxtpx:hr></gpxtpx:TrackPointExtension></extensions>
      </trkpt>
      <trkpt lat="59.207736" lon="17.784539">
        <ele>39.2</ele>
        <time>2020-03-26T13:54:37Z</time>
        <extensions><gpxtpx:TrackPointExtension><gpxtpx:hr>136</gpxtpx:hr></gpxtpx:TrackPointExtension></extensions>
      </trkpt>
      <trkpt lat="59.207681" lon="17.7846">
        <ele>39.2</ele>
        <time>2020-03-26T13:54:38Z</time>
        <extensions><gpxtpx:TrackPointExtension><gpxtpx:hr>136</gpxtpx:hr></gpxtpx:TrackPointExtension></extensions>
      </trkpt>
      <trkpt lat="59.207624" lon="17.784662">
        <ele>39.2</ele>
        <time>2020-03-26T13:54:39Z</time>
        <extensions><gpxtpx:TrackPointExtension><gpxtpx:hr>136</gpxtpx:hr></gpxtpx:TrackPointExtension></extensions>
      </trkpt>
      <trkpt lat="59.207565" lon="17.784722">
        <ele>39.2</ele>
        <time>2020-03-26T13:54:40Z</time>
        <extensions><gpxtpx:TrackPointExtension><gpxtpx:hr>135</gpxtpx:hr></gpxtpx:TrackPointExtension></extensions>
      </trkpt>
      <trkpt lat="59.207506" lon="17.784779">
        <ele>39.2</ele>
        <time>2020-03-26T13:54:41Z</time>
        <extensions><gpxtpx:TrackPointExtension><gpxtpx:hr>135</gpxtpx:hr></gpxtpx:TrackPointExtension></extensions>
      </trkpt>
      <trkpt lat="59.207448" lon="17.784834">
        <ele>39</ele>
        <time>2020-03-26T13:54:42Z</time>
        <extensions><gpxtpx:TrackPointExtension><gpxtpx:hr>135</gpxtpx:hr></gpxtpx:TrackPointExtension></extensions>
      </trkpt>
      <trkpt lat="59.207388" lon="17.784886">
        <ele>39</ele>
        <time>2020-03-26T13:54:43Z</time>
        <extensions><gpxtpx:TrackPointExtension><gpxtpx:hr>135</gpxtpx:hr></gpxtpx:TrackPointExtension></extensions>
      </trkpt>
      <trkpt lat="59.207328" lon="17.784933">
        <ele>39</ele>
        <time>2020-03-26T13:54:44Z</time>
        <extensions><gpxtpx:TrackPointExtension><gpxtpx:hr>135</gpxtpx:hr></gpxtpx:TrackPointExtension></extensions>
      </trkpt>
      <trkpt lat="59.207268" lon="17.784965">
        <ele>39</ele>
        <time>2020-03-26T13:54:45Z</time>
        <extensions><gpxtpx:TrackPointExtension><gpxtpx:hr>135</gpxtpx:hr></gpxtpx:TrackPointExtension></extensions>
      </trkpt>
      <trkpt lat="59.207202" lon="17.784998">
        <ele>39</ele>
        <time>2020-03-26T13:54:46Z</time>
        <extensions><gpxtpx:TrackPointExtension><gpxtpx:hr>135</gpxtpx:hr></gpxtpx:TrackPointExtension></extensions>
      </trkpt>
      <trkpt lat="59.207137" lon="17.785025">
        <ele>39.2</ele>
        <time>2020-03-26T13:54:47Z</time>
        <extensions><gpxtpx:TrackPointExtension><gpxtpx:hr>135</gpxtpx:hr></gpxtpx:TrackPointExtension></extensions>
      </trkpt>
      <trkpt lat="59.207073" lon="17.785042">
        <ele>39.2</ele>
        <time>2020-03-26T13:54:48Z</time>
        <extensions><gpxtpx:TrackPointExtension><gpxtpx:hr>135</gpxtpx:hr></gpxtpx:TrackPointExtension></extensions>
      </trkpt>
      <trkpt lat="59.207011" lon="17.78505">
        <ele>39.2</ele>
        <time>2020-03-26T13:54:49Z</time>
        <extensions><gpxtpx:TrackPointExtension><gpxtpx:hr>136</gpxtpx:hr></gpxtpx:TrackPointExtension></extensions>
      </trkpt>
      <trkpt lat="59.206949" lon="17.785052">
        <ele>39.2</ele>
        <time>2020-03-26T13:54:50Z</time>
        <extensions><gpxtpx:TrackPointExtension><gpxtpx:hr>137</gpxtpx:hr></gpxtpx:TrackPointExtension></extensions>
      </trkpt>
      <trkpt lat="59.206888" lon="17.785047">
        <ele>39.2</ele>
        <time>2020-03-26T13:54:51Z</time>
        <extensions><gpxtpx:TrackPointExtension><gpxtpx:hr>137</gpxtpx:hr></gpxtpx:TrackPointExtension></extensions>
      </trkpt>
      <trkpt lat="59.206827" lon="17.785042">
        <ele>39</ele>
        <time>2020-03-26T13:54:52Z</time>
        <extensions><gpxtpx:TrackPointExtension><gpxtpx:hr>138</gpxtpx:hr></gpxtpx:TrackPointExtension></extensions>
      </trkpt>
      <trkpt lat="59.206766" lon="17.785037">
        <ele>39</ele>
        <time>2020-03-26T13:54:53Z</time>
        <extensions><gpxtpx:TrackPointExtension><gpxtpx:hr>138</gpxtpx:hr></gpxtpx:TrackPointExtension></extensions>
      </trkpt>
      <trkpt lat="59.206706" lon="17.785028">
        <ele>39.2</ele>
        <time>2020-03-26T13:54:54Z</time>
        <extensions><gpxtpx:TrackPointExtension><gpxtpx:hr>138</gpxtpx:hr></gpxtpx:TrackPointExtension></extensions>
      </trkpt>
      <trkpt lat="59.206646" lon="17.785015">
        <ele>39.2</ele>
        <time>2020-03-26T13:54:55Z</time>
        <extensions><gpxtpx:TrackPointExtension><gpxtpx:hr>139</gpxtpx:hr></gpxtpx:TrackPointExtension></extensions>
      </trkpt>
      <trkpt lat="59.206587" lon="17.784997">
        <ele>39.2</ele>
        <time>2020-03-26T13:54:56Z</time>
        <extensions><gpxtpx:TrackPointExtension><gpxtpx:hr>139</gpxtpx:hr></gpxtpx:TrackPointExtension></extensions>
      </trkpt>
      <trkpt lat="59.206526" lon="17.784979">
        <ele>39.2</ele>
        <time>2020-03-26T13:54:57Z</time>
        <extensions><gpxtpx:TrackPointExtension><gpxtpx:hr>139</gpxtpx:hr></gpxtpx:TrackPointExtension></extensions>
      </trkpt>
      <trkpt lat="59.206466" lon="17.784956">
        <ele>39.2</ele>
        <time>2020-03-26T13:54:58Z</time>
        <extensions><gpxtpx:TrackPointExtension><gpxtpx:hr>139</gpxtpx:hr></gpxtpx:TrackPointExtension></extensions>
      </trkpt>
      <trkpt lat="59.206408" lon="17.784928">
        <ele>39.2</ele>
        <time>2020-03-26T13:54:59Z</time>
        <extensions><gpxtpx:TrackPointExtension><gpxtpx:hr>139</gpxtpx:hr></gpxtpx:TrackPointExtension></extensions>
      </trkpt>
      <trkpt lat="59.206349" lon="17.784899">
        <ele>39.4</ele>
        <time>2020-03-26T13:55:00Z</time>
        <extensions><gpxtpx:TrackPointExtension><gpxtpx:hr>139</gpxtpx:hr></gpxtpx:TrackPointExtension></extensions>
      </trkpt>
      <trkpt lat="59.206292" lon="17.784867">
        <ele>39.4</ele>
        <time>2020-03-26T13:55:01Z</time>
        <extensions><gpxtpx:TrackPointExtension><gpxtpx:hr>139</gpxtpx:hr></gpxtpx:TrackPointExtension></extensions>
      </trkpt>
      <trkpt lat="59.206233" lon="17.784835">
        <ele>39.4</ele>
        <time>2020-03-26T13:55:02Z</time>
        <extensions><gpxtpx:TrackPointExtension><gpxtpx:hr>139</gpxtpx:hr></gpxtpx:TrackPointExtension></extensions>
      </trkpt>
      <trkpt lat="59.206179" lon="17.784802">
        <ele>39.6</ele>
        <time>2020-03-26T13:55:03Z</time>
        <extensions><gpxtpx:TrackPointExtension><gpxtpx:hr>139</gpxtpx:hr></gpxtpx:TrackPointExtension></extensions>
      </trkpt>
      <trkpt lat="59.206123" lon="17.784771">
        <ele>39.8</ele>
        <time>2020-03-26T13:55:04Z</time>
        <extensions><gpxtpx:TrackPointExtension><gpxtpx:hr>139</gpxtpx:hr></gpxtpx:TrackPointExtension></extensions>
      </trkpt>
      <trkpt lat="59.206067" lon="17.78474">
        <ele>40</ele>
        <time>2020-03-26T13:55:05Z</time>
        <extensions><gpxtpx:TrackPointExtension><gpxtpx:hr>140</gpxtpx:hr></gpxtpx:TrackPointExtension></extensions>
      </trkpt>
      <trkpt lat="59.206016" lon="17.784702">
        <ele>40</ele>
        <time>2020-03-26T13:55:06Z</time>
        <extensions><gpxtpx:TrackPointExtension><gpxtpx:hr>140</gpxtpx:hr></gpxtpx:TrackPointExtension></extensions>
      </trkpt>
      <trkpt lat="59.20596" lon="17.784662">
        <ele>40</ele>
        <time>2020-03-26T13:55:07Z</time>
        <extensions><gpxtpx:TrackPointExtension><gpxtpx:hr>140</gpxtpx:hr></gpxtpx:TrackPointExtension></extensions>
      </trkpt>
      <trkpt lat="59.205902" lon="17.784629">
        <ele>40.2</ele>
        <time>2020-03-26T13:55:08Z</time>
        <extensions><gpxtpx:TrackPointExtension><gpxtpx:hr>141</gpxtpx:hr></gpxtpx:TrackPointExtension></extensions>
      </trkpt>
      <trkpt lat="59.205846" lon="17.784597">
        <ele>40.4</ele>
        <time>2020-03-26T13:55:09Z</time>
        <extensions><gpxtpx:TrackPointExtension><gpxtpx:hr>141</gpxtpx:hr></gpxtpx:TrackPointExtension></extensions>
      </trkpt>
      <trkpt lat="59.20579" lon="17.784556">
        <ele>40.4</ele>
        <time>2020-03-26T13:55:10Z</time>
        <extensions><gpxtpx:TrackPointExtension><gpxtpx:hr>141</gpxtpx:hr></gpxtpx:TrackPointExtension></extensions>
      </trkpt>
      <trkpt lat="59.205733" lon="17.784514">
        <ele>40.4</ele>
        <time>2020-03-26T13:55:11Z</time>
        <extensions><gpxtpx:TrackPointExtension><gpxtpx:hr>141</gpxtpx:hr></gpxtpx:TrackPointExtension></extensions>
      </trkpt>
      <trkpt lat="59.205676" lon="17.784472">
        <ele>40.6</ele>
        <time>2020-03-26T13:55:12Z</time>
        <extensions><gpxtpx:TrackPointExtension><gpxtpx:hr>141</gpxtpx:hr></gpxtpx:TrackPointExtension></extensions>
      </trkpt>
      <trkpt lat="59.205618" lon="17.784432">
        <ele>40.6</ele>
        <time>2020-03-26T13:55:13Z</time>
        <extensions><gpxtpx:TrackPointExtension><gpxtpx:hr>142</gpxtpx:hr></gpxtpx:TrackPointExtension></extensions>
      </trkpt>
      <trkpt lat="59.205559" lon="17.784394">
        <ele>40.8</ele>
        <time>2020-03-26T13:55:14Z</time>
        <extensions><gpxtpx:TrackPointExtension><gpxtpx:hr>142</gpxtpx:hr></gpxtpx:TrackPointExtension></extensions>
      </trkpt>
      <trkpt lat="59.205503" lon="17.784354">
        <ele>40.8</ele>
        <time>2020-03-26T13:55:15Z</time>
        <extensions><gpxtpx:TrackPointExtension><gpxtpx:hr>142</gpxtpx:hr></gpxtpx:TrackPointExtension></extensions>
      </trkpt>
      <trkpt lat="59.205447" lon="17.784318">
        <ele>40.8</ele>
        <time>2020-03-26T13:55:16Z</time>
        <extensions><gpxtpx:TrackPointExtension><gpxtpx:hr>142</gpxtpx:hr></gpxtpx:TrackPointExtension></extensions>
      </trkpt>
      <trkpt lat="59.20539" lon="17.784279">
        <ele>40.8</ele>
        <time>2020-03-26T13:55:17Z</time>
        <extensions><gpxtpx:TrackPointExtension><gpxtpx:hr>143</gpxtpx:hr></gpxtpx:TrackPointExtension></extensions>
      </trkpt>
      <trkpt lat="59.205332" lon="17.784235">
        <ele>41</ele>
        <time>2020-03-26T13:55:18Z</time>
        <extensions><gpxtpx:TrackPointExtension><gpxtpx:hr>143</gpxtpx:hr></gpxtpx:TrackPointExtension></extensions>
      </trkpt>
      <trkpt lat="59.205277" lon="17.784182">
        <ele>41</ele>
        <time>2020-03-26T13:55:19Z</time>
        <extensions><gpxtpx:TrackPointExtension><gpxtpx:hr>143</gpxtpx:hr></gpxtpx:TrackPointExtension></extensions>
      </trkpt>
      <trkpt lat="59.205223" lon="17.784128">
        <ele>41.2</ele>
        <time>2020-03-26T13:55:20Z</time>
        <extensions><gpxtpx:TrackPointExtension><gpxtpx:hr>143</gpxtpx:hr></gpxtpx:TrackPointExtension></extensions>
      </trkpt>
      <trkpt lat="59.205162" lon="17.784078">
        <ele>41.4</ele>
        <time>2020-03-26T13:55:21Z</time>
        <extensions><gpxtpx:TrackPointExtension><gpxtpx:hr>143</gpxtpx:hr></gpxtpx:TrackPointExtension></extensions>
      </trkpt>
      <trkpt lat="59.205103" lon="17.784029">
        <ele>41.4</ele>
        <time>2020-03-26T13:55:22Z</time>
        <extensions><gpxtpx:TrackPointExtension><gpxtpx:hr>143</gpxtpx:hr></gpxtpx:TrackPointExtension></extensions>
      </trkpt>
      <trkpt lat="59.205043" lon="17.78399">
        <ele>41.6</ele>
        <time>2020-03-26T13:55:23Z</time>
        <extensions><gpxtpx:TrackPointExtension><gpxtpx:hr>144</gpxtpx:hr></gpxtpx:TrackPointExtension></extensions>
      </trkpt>
      <trkpt lat="59.204984" lon="17.783953">
        <ele>41.6</ele>
        <time>2020-03-26T13:55:24Z</time>
        <extensions><gpxtpx:TrackPointExtension><gpxtpx:hr>144</gpxtpx:hr></gpxtpx:TrackPointExtension></extensions>
      </trkpt>
      <trkpt lat="59.204922" lon="17.783905">
        <ele>41.6</ele>
        <time>2020-03-26T13:55:25Z</time>
        <extensions><gpxtpx:TrackPointExtension><gpxtpx:hr>144</gpxtpx:hr></gpxtpx:TrackPointExtension></extensions>
      </trkpt>
      <trkpt lat="59.204862" lon="17.783853">
        <ele>41.6</ele>
        <time>2020-03-26T13:55:26Z</time>
        <extensions><gpxtpx:TrackPointExtension><gpxtpx:hr>144</gpxtpx:hr></gpxtpx:TrackPointExtension></extensions>
      </trkpt>
      <trkpt lat="59.204802" lon="17.7838">
        <ele>41.8</ele>
        <time>2020-03-26T13:55:27Z</time>
        <extensions><gpxtpx:TrackPointExtension><gpxtpx:hr>145</gpxtpx:hr></gpxtpx:TrackPointExtension></extensions>
      </trkpt>
      <trkpt lat="59.204749" lon="17.783733">
        <ele>41.8</ele>
        <time>2020-03-26T13:55:28Z</time>
        <extensions><gpxtpx:TrackPointExtension><gpxtpx:hr>145</gpxtpx:hr></gpxtpx:TrackPointExtension></extensions>
      </trkpt>
      <trkpt lat="59.204691" lon="17.783665">
        <ele>41.8</ele>
        <time>2020-03-26T13:55:29Z</time>
        <extensions><gpxtpx:TrackPointExtension><gpxtpx:hr>145</gpxtpx:hr></gpxtpx:TrackPointExtension></extensions>
      </trkpt>
      <trkpt lat="59.204636" lon="17.783593">
        <ele>41.8</ele>
        <time>2020-03-26T13:55:30Z</time>
        <extensions><gpxtpx:TrackPointExtension><gpxtpx:hr>146</gpxtpx:hr></gpxtpx:TrackPointExtension></extensions>
      </trkpt>
      <trkpt lat="59.204578" lon="17.783523">
        <ele>41.8</ele>
        <time>2020-03-26T13:55:31Z</time>
        <extensions><gpxtpx:TrackPointExtension><gpxtpx:hr>146</gpxtpx:hr></gpxtpx:TrackPointExtension></extensions>
      </trkpt>
      <trkpt lat="59.204517" lon="17.783452">
        <ele>41.8</ele>
        <time>2020-03-26T13:55:32Z</time>
        <extensions><gpxtpx:TrackPointExtension><gpxtpx:hr>145</gpxtpx:hr></gpxtpx:TrackPointExtension></extensions>
      </trkpt>
      <trkpt lat="59.204457" lon="17.783384">
        <ele>41.8</ele>
        <time>2020-03-26T13:55:33Z</time>
        <extensions><gpxtpx:TrackPointExtension><gpxtpx:hr>145</gpxtpx:hr></gpxtpx:TrackPointExtension></extensions>
      </trkpt>
      <trkpt lat="59.204396" lon="17.783316">
        <ele>41.8</ele>
        <time>2020-03-26T13:55:34Z</time>
        <extensions><gpxtpx:TrackPointExtension><gpxtpx:hr>145</gpxtpx:hr></gpxtpx:TrackPointExtension></extensions>
      </trkpt>
      <trkpt lat="59.204338" lon="17.783247">
        <ele>41.8</ele>
        <time>2020-03-26T13:55:35Z</time>
        <extensions><gpxtpx:TrackPointExtension><gpxtpx:hr>145</gpxtpx:hr></gpxtpx:TrackPointExtension></extensions>
      </trkpt>
      <trkpt lat="59.204278" lon="17.783175">
        <ele>41.6</ele>
        <time>2020-03-26T13:55:36Z</time>
        <extensions><gpxtpx:TrackPointExtension><gpxtpx:hr>145</gpxtpx:hr></gpxtpx:TrackPointExtension></extensions>
      </trkpt>
      <trkpt lat="59.204218" lon="17.783104">
        <ele>41.6</ele>
        <time>2020-03-26T13:55:37Z</time>
        <extensions><gpxtpx:TrackPointExtension><gpxtpx:hr>145</gpxtpx:hr></gpxtpx:TrackPointExtension></extensions>
      </trkpt>
      <trkpt lat="59.204161" lon="17.783031">
        <ele>41.4</ele>
        <time>2020-03-26T13:55:38Z</time>
        <extensions><gpxtpx:TrackPointExtension><gpxtpx:hr>145</gpxtpx:hr></gpxtpx:TrackPointExtension></extensions>
      </trkpt>
      <trkpt lat="59.204105" lon="17.782958">
        <ele>41.4</ele>
        <time>2020-03-26T13:55:39Z</time>
        <extensions><gpxtpx:TrackPointExtension><gpxtpx:hr>145</gpxtpx:hr></gpxtpx:TrackPointExtension></extensions>
      </trkpt>
      <trkpt lat="59.20405" lon="17.782884">
        <ele>41.2</ele>
        <time>2020-03-26T13:55:40Z</time>
        <extensions><gpxtpx:TrackPointExtension><gpxtpx:hr>145</gpxtpx:hr></gpxtpx:TrackPointExtension></extensions>
      </trkpt>
      <trkpt lat="59.203995" lon="17.782809">
        <ele>40.8</ele>
        <time>2020-03-26T13:55:41Z</time>
        <extensions><gpxtpx:TrackPointExtension><gpxtpx:hr>145</gpxtpx:hr></gpxtpx:TrackPointExtension></extensions>
      </trkpt>
      <trkpt lat="59.203941" lon="17.782738">
        <ele>40.6</ele>
        <time>2020-03-26T13:55:42Z</time>
        <extensions><gpxtpx:TrackPointExtension><gpxtpx:hr>145</gpxtpx:hr></gpxtpx:TrackPointExtension></extensions>
      </trkpt>
      <trkpt lat="59.203888" lon="17.782668">
        <ele>40.4</ele>
        <time>2020-03-26T13:55:43Z</time>
        <extensions><gpxtpx:TrackPointExtension><gpxtpx:hr>145</gpxtpx:hr></gpxtpx:TrackPointExtension></extensions>
      </trkpt>
      <trkpt lat="59.20384" lon="17.782603">
        <ele>40.2</ele>
        <time>2020-03-26T13:55:44Z</time>
        <extensions><gpxtpx:TrackPointExtension><gpxtpx:hr>145</gpxtpx:hr></gpxtpx:TrackPointExtension></extensions>
      </trkpt>
      <trkpt lat="59.203787" lon="17.782538">
        <ele>40.2</ele>
        <time>2020-03-26T13:55:45Z</time>
        <extensions><gpxtpx:TrackPointExtension><gpxtpx:hr>145</gpxtpx:hr></gpxtpx:TrackPointExtension></extensions>
      </trkpt>
      <trkpt lat="59.203733" lon="17.782472">
        <ele>39.8</ele>
        <time>2020-03-26T13:55:46Z</time>
        <extensions><gpxtpx:TrackPointExtension><gpxtpx:hr>145</gpxtpx:hr></gpxtpx:TrackPointExtension></extensions>
      </trkpt>
      <trkpt lat="59.203677" lon="17.782405">
        <ele>39.4</ele>
        <time>2020-03-26T13:55:47Z</time>
        <extensions><gpxtpx:TrackPointExtension><gpxtpx:hr>144</gpxtpx:hr></gpxtpx:TrackPointExtension></extensions>
      </trkpt>
      <trkpt lat="59.20362" lon="17.782344">
        <ele>39</ele>
        <time>2020-03-26T13:55:48Z</time>
        <extensions><gpxtpx:TrackPointExtension><gpxtpx:hr>144</gpxtpx:hr></gpxtpx:TrackPointExtension></extensions>
      </trkpt>
      <trkpt lat="59.20356" lon="17.782288">
        <ele>39</ele>
        <time>2020-03-26T13:55:49Z</time>
        <extensions><gpxtpx:TrackPointExtension><gpxtpx:hr>143</gpxtpx:hr></gpxtpx:TrackPointExtension></extensions>
      </trkpt>
      <trkpt lat="59.2035" lon="17.782243">
        <ele>38.6</ele>
        <time>2020-03-26T13:55:50Z</time>
        <extensions><gpxtpx:TrackPointExtension><gpxtpx:hr>143</gpxtpx:hr></gpxtpx:TrackPointExtension></extensions>
      </trkpt>
      <trkpt lat="59.203436" lon="17.782208">
        <ele>38.4</ele>
        <time>2020-03-26T13:55:51Z</time>
        <extensions><gpxtpx:TrackPointExtension><gpxtpx:hr>143</gpxtpx:hr></gpxtpx:TrackPointExtension></extensions>
      </trkpt>
      <trkpt lat="59.203373" lon="17.782181">
        <ele>38.4</ele>
        <time>2020-03-26T13:55:52Z</time>
        <extensions><gpxtpx:TrackPointExtension><gpxtpx:hr>142</gpxtpx:hr></gpxtpx:TrackPointExtension></extensions>
      </trkpt>
      <trkpt lat="59.20331" lon="17.782165">
        <ele>38.4</ele>
        <time>2020-03-26T13:55:53Z</time>
        <extensions><gpxtpx:TrackPointExtension><gpxtpx:hr>142</gpxtpx:hr></gpxtpx:TrackPointExtension></extensions>
      </trkpt>
      <trkpt lat="59.203245" lon="17.782144">
        <ele>38.4</ele>
        <time>2020-03-26T13:55:54Z</time>
        <extensions><gpxtpx:TrackPointExtension><gpxtpx:hr>142</gpxtpx:hr></gpxtpx:TrackPointExtension></extensions>
      </trkpt>
      <trkpt lat="59.203179" lon="17.782119">
        <ele>38.4</ele>
        <time>2020-03-26T13:55:55Z</time>
        <extensions><gpxtpx:TrackPointExtension><gpxtpx:hr>142</gpxtpx:hr></gpxtpx:TrackPointExtension></extensions>
      </trkpt>
      <trkpt lat="59.203111" lon="17.782097">
        <ele>38.4</ele>
        <time>2020-03-26T13:55:56Z</time>
        <extensions><gpxtpx:TrackPointExtension><gpxtpx:hr>142</gpxtpx:hr></gpxtpx:TrackPointExtension></extensions>
      </trkpt>
      <trkpt lat="59.203044" lon="17.782083">
        <ele>38.4</ele>
        <time>2020-03-26T13:55:57Z</time>
        <extensions><gpxtpx:TrackPointExtension><gpxtpx:hr>142</gpxtpx:hr></gpxtpx:TrackPointExtension></extensions>
      </trkpt>
      <trkpt lat="59.202975" lon="17.78207">
        <ele>38.6</ele>
        <time>2020-03-26T13:55:58Z</time>
        <extensions><gpxtpx:TrackPointExtension><gpxtpx:hr>141</gpxtpx:hr></gpxtpx:TrackPointExtension></extensions>
      </trkpt>
      <trkpt lat="59.202907" lon="17.782059">
        <ele>38.6</ele>
        <time>2020-03-26T13:55:59Z</time>
        <extensions><gpxtpx:TrackPointExtension><gpxtpx:hr>141</gpxtpx:hr></gpxtpx:TrackPointExtension></extensions>
      </trkpt>
      <trkpt lat="59.202837" lon="17.782046">
        <ele>38.6</ele>
        <time>2020-03-26T13:56:00Z</time>
        <extensions><gpxtpx:TrackPointExtension><gpxtpx:hr>141</gpxtpx:hr></gpxtpx:TrackPointExtension></extensions>
      </trkpt>
      <trkpt lat="59.202772" lon="17.782037">
        <ele>38.6</ele>
        <time>2020-03-26T13:56:01Z</time>
        <extensions><gpxtpx:TrackPointExtension><gpxtpx:hr>140</gpxtpx:hr></gpxtpx:TrackPointExtension></extensions>
      </trkpt>
      <trkpt lat="59.202705" lon="17.782027">
        <ele>38.6</ele>
        <time>2020-03-26T13:56:02Z</time>
        <extensions><gpxtpx:TrackPointExtension><gpxtpx:hr>140</gpxtpx:hr></gpxtpx:TrackPointExtension></extensions>
      </trkpt>
      <trkpt lat="59.202638" lon="17.782018">
        <ele>38.6</ele>
        <time>2020-03-26T13:56:03Z</time>
        <extensions><gpxtpx:TrackPointExtension><gpxtpx:hr>140</gpxtpx:hr></gpxtpx:TrackPointExtension></extensions>
      </trkpt>
      <trkpt lat="59.202576" lon="17.78201">
        <ele>38.6</ele>
        <time>2020-03-26T13:56:04Z</time>
        <extensions><gpxtpx:TrackPointExtension><gpxtpx:hr>140</gpxtpx:hr></gpxtpx:TrackPointExtension></extensions>
      </trkpt>
      <trkpt lat="59.202514" lon="17.782">
        <ele>38.6</ele>
        <time>2020-03-26T13:56:05Z</time>
        <extensions><gpxtpx:TrackPointExtension><gpxtpx:hr>140</gpxtpx:hr></gpxtpx:TrackPointExtension></extensions>
      </trkpt>
      <trkpt lat="59.20245" lon="17.781988">
        <ele>38.6</ele>
        <time>2020-03-26T13:56:06Z</time>
        <extensions><gpxtpx:TrackPointExtension><gpxtpx:hr>141</gpxtpx:hr></gpxtpx:TrackPointExtension></extensions>
      </trkpt>
      <trkpt lat="59.202382" lon="17.78198">
        <ele>38.6</ele>
        <time>2020-03-26T13:56:07Z</time>
        <extensions><gpxtpx:TrackPointExtension><gpxtpx:hr>141</gpxtpx:hr></gpxtpx:TrackPointExtension></extensions>
      </trkpt>
      <trkpt lat="59.202319" lon="17.78198">
        <ele>38.6</ele>
        <time>2020-03-26T13:56:08Z</time>
        <extensions><gpxtpx:TrackPointExtension><gpxtpx:hr>140</gpxtpx:hr></gpxtpx:TrackPointExtension></extensions>
      </trkpt>
      <trkpt lat="59.202253" lon="17.781978">
        <ele>38.6</ele>
        <time>2020-03-26T13:56:09Z</time>
        <extensions><gpxtpx:TrackPointExtension><gpxtpx:hr>140</gpxtpx:hr></gpxtpx:TrackPointExtension></extensions>
      </trkpt>
      <trkpt lat="59.202187" lon="17.78198">
        <ele>38.6</ele>
        <time>2020-03-26T13:56:10Z</time>
        <extensions><gpxtpx:TrackPointExtension><gpxtpx:hr>140</gpxtpx:hr></gpxtpx:TrackPointExtension></extensions>
      </trkpt>
      <trkpt lat="59.202118" lon="17.781985">
        <ele>38.4</ele>
        <time>2020-03-26T13:56:11Z</time>
        <extensions><gpxtpx:TrackPointExtension><gpxtpx:hr>140</gpxtpx:hr></gpxtpx:TrackPointExtension></extensions>
      </trkpt>
      <trkpt lat="59.20205" lon="17.781996">
        <ele>38.4</ele>
        <time>2020-03-26T13:56:12Z</time>
        <extensions><gpxtpx:TrackPointExtension><gpxtpx:hr>139</gpxtpx:hr></gpxtpx:TrackPointExtension></extensions>
      </trkpt>
      <trkpt lat="59.201982" lon="17.782012">
        <ele>38.4</ele>
        <time>2020-03-26T13:56:13Z</time>
        <extensions><gpxtpx:TrackPointExtension><gpxtpx:hr>139</gpxtpx:hr></gpxtpx:TrackPointExtension></extensions>
      </trkpt>
      <trkpt lat="59.201914" lon="17.782029">
        <ele>38.4</ele>
        <time>2020-03-26T13:56:14Z</time>
        <extensions><gpxtpx:TrackPointExtension><gpxtpx:hr>139</gpxtpx:hr></gpxtpx:TrackPointExtension></extensions>
      </trkpt>
      <trkpt lat="59.201847" lon="17.782046">
        <ele>38.2</ele>
        <time>2020-03-26T13:56:15Z</time>
        <extensions><gpxtpx:TrackPointExtension><gpxtpx:hr>139</gpxtpx:hr></gpxtpx:TrackPointExtension></extensions>
      </trkpt>
      <trkpt lat="59.201783" lon="17.782058">
        <ele>38</ele>
        <time>2020-03-26T13:56:16Z</time>
        <extensions><gpxtpx:TrackPointExtension><gpxtpx:hr>139</gpxtpx:hr></gpxtpx:TrackPointExtension></extensions>
      </trkpt>
      <trkpt lat="59.201719" lon="17.782068">
        <ele>37.8</ele>
        <time>2020-03-26T13:56:17Z</time>
        <extensions><gpxtpx:TrackPointExtension><gpxtpx:hr>138</gpxtpx:hr></gpxtpx:TrackPointExtension></extensions>
      </trkpt>
      <trkpt lat="59.201655" lon="17.782083">
        <ele>37.4</ele>
        <time>2020-03-26T13:56:18Z</time>
        <extensions><gpxtpx:TrackPointExtension><gpxtpx:hr>138</gpxtpx:hr></gpxtpx:TrackPointExtension></extensions>
      </trkpt>
      <trkpt lat="59.20159" lon="17.7821">
        <ele>37.2</ele>
        <time>2020-03-26T13:56:19Z</time>
        <extensions><gpxtpx:TrackPointExtension><gpxtpx:hr>138</gpxtpx:hr></gpxtpx:TrackPointExtension></extensions>
      </trkpt>
      <trkpt lat="59.201528" lon="17.782119">
        <ele>37.2</ele>
        <time>2020-03-26T13:56:20Z</time>
        <extensions><gpxtpx:TrackPointExtension><gpxtpx:hr>138</gpxtpx:hr></gpxtpx:TrackPointExtension></extensions>
      </trkpt>
      <trkpt lat="59.201464" lon="17.782135">
        <ele>37.2</ele>
        <time>2020-03-26T13:56:21Z</time>
        <extensions><gpxtpx:TrackPointExtension><gpxtpx:hr>138</gpxtpx:hr></gpxtpx:TrackPointExtension></extensions>
      </trkpt>
      <trkpt lat="59.201402" lon="17.782153">
        <ele>37</ele>
        <time>2020-03-26T13:56:22Z</time>
        <extensions><gpxtpx:TrackPointExtension><gpxtpx:hr>138</gpxtpx:hr></gpxtpx:TrackPointExtension></extensions>
      </trkpt>
      <trkpt lat="59.201342" lon="17.782173">
        <ele>37</ele>
        <time>2020-03-26T13:56:23Z</time>
        <extensions><gpxtpx:TrackPointExtension><gpxtpx:hr>138</gpxtpx:hr></gpxtpx:TrackPointExtension></extensions>
      </trkpt>
      <trkpt lat="59.201284" lon="17.782193">
        <ele>37</ele>
        <time>2020-03-26T13:56:24Z</time>
        <extensions><gpxtpx:TrackPointExtension><gpxtpx:hr>138</gpxtpx:hr></gpxtpx:TrackPointExtension></extensions>
      </trkpt>
      <trkpt lat="59.201222" lon="17.782217">
        <ele>37</ele>
        <time>2020-03-26T13:56:25Z</time>
        <extensions><gpxtpx:TrackPointExtension><gpxtpx:hr>138</gpxtpx:hr></gpxtpx:TrackPointExtension></extensions>
      </trkpt>
      <trkpt lat="59.201157" lon="17.782243">
        <ele>37</ele>
        <time>2020-03-26T13:56:26Z</time>
        <extensions><gpxtpx:TrackPointExtension><gpxtpx:hr>138</gpxtpx:hr></gpxtpx:TrackPointExtension></extensions>
      </trkpt>
      <trkpt lat="59.201093" lon="17.782278">
        <ele>37</ele>
        <time>2020-03-26T13:56:27Z</time>
        <extensions><gpxtpx:TrackPointExtension><gpxtpx:hr>138</gpxtpx:hr></gpxtpx:TrackPointExtension></extensions>
      </trkpt>
      <trkpt lat="59.201031" lon="17.78232">
        <ele>36.8</ele>
        <time>2020-03-26T13:56:28Z</time>
        <extensions><gpxtpx:TrackPointExtension><gpxtpx:hr>139</gpxtpx:hr></gpxtpx:TrackPointExtension></extensions>
      </trkpt>
      <trkpt lat="59.20097" lon="17.782368">
        <ele>36.8</ele>
        <time>2020-03-26T13:56:29Z</time>
        <extensions><gpxtpx:TrackPointExtension><gpxtpx:hr>139</gpxtpx:hr></gpxtpx:TrackPointExtension></extensions>
      </trkpt>
      <trkpt lat="59.200907" lon="17.782416">
        <ele>36.6</ele>
        <time>2020-03-26T13:56:30Z</time>
        <extensions><gpxtpx:TrackPointExtension><gpxtpx:hr>138</gpxtpx:hr></gpxtpx:TrackPointExtension></extensions>
      </trkpt>
      <trkpt lat="59.200845" lon="17.782468">
        <ele>36.4</ele>
        <time>2020-03-26T13:56:31Z</time>
        <extensions><gpxtpx:TrackPointExtension><gpxtpx:hr>138</gpxtpx:hr></gpxtpx:TrackPointExtension></extensions>
      </trkpt>
      <trkpt lat="59.200783" lon="17.782523">
        <ele>36.4</ele>
        <time>2020-03-26T13:56:32Z</time>
        <extensions><gpxtpx:TrackPointExtension><gpxtpx:hr>137</gpxtpx:hr></gpxtpx:TrackPointExtension></extensions>
      </trkpt>
      <trkpt lat="59.200721" lon="17.782579">
        <ele>36.4</ele>
        <time>2020-03-26T13:56:33Z</time>
        <extensions><gpxtpx:TrackPointExtension><gpxtpx:hr>137</gpxtpx:hr></gpxtpx:TrackPointExtension></extensions>
      </trkpt>
      <trkpt lat="59.200659" lon="17.782638">
        <ele>36.4</ele>
        <time>2020-03-26T13:56:34Z</time>
        <extensions><gpxtpx:TrackPointExtension><gpxtpx:hr>137</gpxtpx:hr></gpxtpx:TrackPointExtension></extensions>
      </trkpt>
      <trkpt lat="59.200597" lon="17.782699">
        <ele>36.4</ele>
        <time>2020-03-26T13:56:35Z</time>
        <extensions><gpxtpx:TrackPointExtension><gpxtpx:hr>136</gpxtpx:hr></gpxtpx:TrackPointExtension></extensions>
      </trkpt>
      <trkpt lat="59.200535" lon="17.782753">
        <ele>36.4</ele>
        <time>2020-03-26T13:56:36Z</time>
        <extensions><gpxtpx:TrackPointExtension><gpxtpx:hr>136</gpxtpx:hr></gpxtpx:TrackPointExtension></extensions>
      </trkpt>
      <trkpt lat="59.200471" lon="17.782801">
        <ele>36.2</ele>
        <time>2020-03-26T13:56:37Z</time>
        <extensions><gpxtpx:TrackPointExtension><gpxtpx:hr>136</gpxtpx:hr></gpxtpx:TrackPointExtension></extensions>
      </trkpt>
      <trkpt lat="59.200404" lon="17.782847">
        <ele>36.2</ele>
        <time>2020-03-26T13:56:38Z</time>
        <extensions><gpxtpx:TrackPointExtension><gpxtpx:hr>136</gpxtpx:hr></gpxtpx:TrackPointExtension></extensions>
      </trkpt>
      <trkpt lat="59.20034" lon="17.782901">
        <ele>36.2</ele>
        <time>2020-03-26T13:56:39Z</time>
        <extensions><gpxtpx:TrackPointExtension><gpxtpx:hr>136</gpxtpx:hr></gpxtpx:TrackPointExtension></extensions>
      </trkpt>
      <trkpt lat="59.200284" lon="17.782977">
        <ele>36</ele>
        <time>2020-03-26T13:56:40Z</time>
        <extensions><gpxtpx:TrackPointExtension><gpxtpx:hr>136</gpxtpx:hr></gpxtpx:TrackPointExtension></extensions>
      </trkpt>
      <trkpt lat="59.200242" lon="17.783077">
        <ele>36</ele>
        <time>2020-03-26T13:56:41Z</time>
        <extensions><gpxtpx:TrackPointExtension><gpxtpx:hr>135</gpxtpx:hr></gpxtpx:TrackPointExtension></extensions>
      </trkpt>
      <trkpt lat="59.20021" lon="17.783189">
        <ele>36</ele>
        <time>2020-03-26T13:56:42Z</time>
        <extensions><gpxtpx:TrackPointExtension><gpxtpx:hr>135</gpxtpx:hr></gpxtpx:TrackPointExtension></extensions>
      </trkpt>
      <trkpt lat="59.20018" lon="17.783305">
        <ele>36</ele>
        <time>2020-03-26T13:56:43Z</time>
        <extensions><gpxtpx:TrackPointExtension><gpxtpx:hr>135</gpxtpx:hr></gpxtpx:TrackPointExtension></extensions>
      </trkpt>
      <trkpt lat="59.200152" lon="17.783422">
        <ele>36</ele>
        <time>2020-03-26T13:56:44Z</time>
        <extensions><gpxtpx:TrackPointExtension><gpxtpx:hr>135</gpxtpx:hr></gpxtpx:TrackPointExtension></extensions>
      </trkpt>
      <trkpt lat="59.200123" lon="17.783542">
        <ele>35.8</ele>
        <time>2020-03-26T13:56:45Z</time>
        <extensions><gpxtpx:TrackPointExtension><gpxtpx:hr>134</gpxtpx:hr></gpxtpx:TrackPointExtension></extensions>
      </trkpt>
      <trkpt lat="59.200089" lon="17.783662">
        <ele>35.8</ele>
        <time>2020-03-26T13:56:46Z</time>
        <extensions><gpxtpx:TrackPointExtension><gpxtpx:hr>134</gpxtpx:hr></gpxtpx:TrackPointExtension></extensions>
      </trkpt>
      <trkpt lat="59.200051" lon="17.783777">
        <ele>35.8</ele>
        <time>2020-03-26T13:56:47Z</time>
        <extensions><gpxtpx:TrackPointExtension><gpxtpx:hr>133</gpxtpx:hr></gpxtpx:TrackPointExtension></extensions>
      </trkpt>
      <trkpt lat="59.200008" lon="17.783889">
        <ele>35.6</ele>
        <time>2020-03-26T13:56:48Z</time>
        <extensions><gpxtpx:TrackPointExtension><gpxtpx:hr>133</gpxtpx:hr></gpxtpx:TrackPointExtension></extensions>
      </trkpt>
      <trkpt lat="59.199962" lon="17.783996">
        <ele>35.6</ele>
        <time>2020-03-26T13:56:49Z</time>
        <extensions><gpxtpx:TrackPointExtension><gpxtpx:hr>132</gpxtpx:hr></gpxtpx:TrackPointExtension></extensions>
      </trkpt>
      <trkpt lat="59.199913" lon="17.784097">
        <ele>35.6</ele>
        <time>2020-03-26T13:56:50Z</time>
        <extensions><gpxtpx:TrackPointExtension><gpxtpx:hr>132</gpxtpx:hr></gpxtpx:TrackPointExtension></extensions>
      </trkpt>
      <trkpt lat="59.19986" lon="17.784193">
        <ele>35.6</ele>
        <time>2020-03-26T13:56:51Z</time>
        <extensions><gpxtpx:TrackPointExtension><gpxtpx:hr>132</gpxtpx:hr></gpxtpx:TrackPointExtension></extensions>
      </trkpt>
      <trkpt lat="59.199807" lon="17.784284">
        <ele>35.6</ele>
        <time>2020-03-26T13:56:52Z</time>
        <extensions><gpxtpx:TrackPointExtension><gpxtpx:hr>133</gpxtpx:hr></gpxtpx:TrackPointExtension></extensions>
      </trkpt>
      <trkpt lat="59.199757" lon="17.784377">
        <ele>35.6</ele>
        <time>2020-03-26T13:56:53Z</time>
        <extensions><gpxtpx:TrackPointExtension><gpxtpx:hr>134</gpxtpx:hr></gpxtpx:TrackPointExtension></extensions>
      </trkpt>
      <trkpt lat="59.199706" lon="17.784472">
        <ele>35.4</ele>
        <time>2020-03-26T13:56:54Z</time>
        <extensions><gpxtpx:TrackPointExtension><gpxtpx:hr>135</gpxtpx:hr></gpxtpx:TrackPointExtension></extensions>
      </trkpt>
      <trkpt lat="59.199653" lon="17.784572">
        <ele>35</ele>
        <time>2020-03-26T13:56:55Z</time>
        <extensions><gpxtpx:TrackPointExtension><gpxtpx:hr>135</gpxtpx:hr></gpxtpx:TrackPointExtension></extensions>
      </trkpt>
      <trkpt lat="59.199601" lon="17.784672">
        <ele>34.8</ele>
        <time>2020-03-26T13:56:56Z</time>
        <extensions><gpxtpx:TrackPointExtension><gpxtpx:hr>135</gpxtpx:hr></gpxtpx:TrackPointExtension></extensions>
      </trkpt>
      <trkpt lat="59.19955" lon="17.784771">
        <ele>34.6</ele>
        <time>2020-03-26T13:56:57Z</time>
        <extensions><gpxtpx:TrackPointExtension><gpxtpx:hr>134</gpxtpx:hr></gpxtpx:TrackPointExtension></extensions>
      </trkpt>
      <trkpt lat="59.199498" lon="17.784882">
        <ele>34.6</ele>
        <time>2020-03-26T13:56:58Z</time>
        <extensions><gpxtpx:TrackPointExtension><gpxtpx:hr>134</gpxtpx:hr></gpxtpx:TrackPointExtension></extensions>
      </trkpt>
      <trkpt lat="59.199453" lon="17.784995">
        <ele>34.4</ele>
        <time>2020-03-26T13:56:59Z</time>
        <extensions><gpxtpx:TrackPointExtension><gpxtpx:hr>133</gpxtpx:hr></gpxtpx:TrackPointExtension></extensions>
      </trkpt>
      <trkpt lat="59.199415" lon="17.785111">
        <ele>34</ele>
        <time>2020-03-26T13:57:00Z</time>
        <extensions><gpxtpx:TrackPointExtension><gpxtpx:hr>133</gpxtpx:hr></gpxtpx:TrackPointExtension></extensions>
      </trkpt>
      <trkpt lat="59.19938" lon="17.785245">
        <ele>33.8</ele>
        <time>2020-03-26T13:57:01Z</time>
        <extensions><gpxtpx:TrackPointExtension><gpxtpx:hr>132</gpxtpx:hr></gpxtpx:TrackPointExtension></extensions>
      </trkpt>
      <trkpt lat="59.199352" lon="17.785378">
        <ele>33.8</ele>
        <time>2020-03-26T13:57:02Z</time>
        <extensions><gpxtpx:TrackPointExtension><gpxtpx:hr>132</gpxtpx:hr></gpxtpx:TrackPointExtension></extensions>
      </trkpt>
      <trkpt lat="59.199331" lon="17.78551">
        <ele>33.8</ele>
        <time>2020-03-26T13:57:03Z</time>
        <extensions><gpxtpx:TrackPointExtension><gpxtpx:hr>131</gpxtpx:hr></gpxtpx:TrackPointExtension></extensions>
      </trkpt>
      <trkpt lat="59.199315" lon="17.78564">
        <ele>33.6</ele>
        <time>2020-03-26T13:57:04Z</time>
        <extensions><gpxtpx:TrackPointExtension><gpxtpx:hr>131</gpxtpx:hr></gpxtpx:TrackPointExtension></extensions>
      </trkpt>
      <trkpt lat="59.199304" lon="17.785771">
        <ele>33.6</ele>
        <time>2020-03-26T13:57:05Z</time>
        <extensions><gpxtpx:TrackPointExtension><gpxtpx:hr>131</gpxtpx:hr></gpxtpx:TrackPointExtension></extensions>
      </trkpt>
      <trkpt lat="59.199297" lon="17.7859">
        <ele>33.6</ele>
        <time>2020-03-26T13:57:06Z</time>
        <extensions><gpxtpx:TrackPointExtension><gpxtpx:hr>130</gpxtpx:hr></gpxtpx:TrackPointExtension></extensions>
      </trkpt>
      <trkpt lat="59.199293" lon="17.786031">
        <ele>33.6</ele>
        <time>2020-03-26T13:57:07Z</time>
        <extensions><gpxtpx:TrackPointExtension><gpxtpx:hr>130</gpxtpx:hr></gpxtpx:TrackPointExtension></extensions>
      </trkpt>
      <trkpt lat="59.199291" lon="17.786163">
        <ele>33.6</ele>
        <time>2020-03-26T13:57:08Z</time>
        <extensions><gpxtpx:TrackPointExtension><gpxtpx:hr>130</gpxtpx:hr></gpxtpx:TrackPointExtension></extensions>
      </trkpt>
      <trkpt lat="59.199291" lon="17.786293">
        <ele>33.6</ele>
        <time>2020-03-26T13:57:09Z</time>
        <extensions><gpxtpx:TrackPointExtension><gpxtpx:hr>130</gpxtpx:hr></gpxtpx:TrackPointExtension></extensions>
      </trkpt>
      <trkpt lat="59.199291" lon="17.786422">
        <ele>33.6</ele>
        <time>2020-03-26T13:57:10Z</time>
        <extensions><gpxtpx:TrackPointExtension><gpxtpx:hr>130</gpxtpx:hr></gpxtpx:TrackPointExtension></extensions>
      </trkpt>
      <trkpt lat="59.199287" lon="17.786553">
        <ele>33.8</ele>
        <time>2020-03-26T13:57:11Z</time>
        <extensions><gpxtpx:TrackPointExtension><gpxtpx:hr>130</gpxtpx:hr></gpxtpx:TrackPointExtension></extensions>
      </trkpt>
      <trkpt lat="59.199284" lon="17.786685">
        <ele>33.8</ele>
        <time>2020-03-26T13:57:12Z</time>
        <extensions><gpxtpx:TrackPointExtension><gpxtpx:hr>131</gpxtpx:hr></gpxtpx:TrackPointExtension></extensions>
      </trkpt>
      <trkpt lat="59.199281" lon="17.786813">
        <ele>33.8</ele>
        <time>2020-03-26T13:57:13Z</time>
        <extensions><gpxtpx:TrackPointExtension><gpxtpx:hr>131</gpxtpx:hr></gpxtpx:TrackPointExtension></extensions>
      </trkpt>
      <trkpt lat="59.19928" lon="17.786939">
        <ele>34</ele>
        <time>2020-03-26T13:57:14Z</time>
        <extensions><gpxtpx:TrackPointExtension><gpxtpx:hr>132</gpxtpx:hr></gpxtpx:TrackPointExtension></extensions>
      </trkpt>
      <trkpt lat="59.199278" lon="17.787068">
        <ele>34</ele>
        <time>2020-03-26T13:57:15Z</time>
        <extensions><gpxtpx:TrackPointExtension><gpxtpx:hr>132</gpxtpx:hr></gpxtpx:TrackPointExtension></extensions>
      </trkpt>
      <trkpt lat="59.199273" lon="17.787207">
        <ele>34.4</ele>
        <time>2020-03-26T13:57:16Z</time>
        <extensions><gpxtpx:TrackPointExtension><gpxtpx:hr>133</gpxtpx:hr></gpxtpx:TrackPointExtension></extensions>
      </trkpt>
      <trkpt lat="59.199269" lon="17.787342">
        <ele>34.6</ele>
        <time>2020-03-26T13:57:17Z</time>
        <extensions><gpxtpx:TrackPointExtension><gpxtpx:hr>133</gpxtpx:hr></gpxtpx:TrackPointExtension></extensions>
      </trkpt>
      <trkpt lat="59.199265" lon="17.787478">
        <ele>34.6</ele>
        <time>2020-03-26T13:57:18Z</time>
        <extensions><gpxtpx:TrackPointExtension><gpxtpx:hr>134</gpxtpx:hr></gpxtpx:TrackPointExtension></extensions>
      </trkpt>
      <trkpt lat="59.199259" lon="17.787616">
        <ele>34.6</ele>
        <time>2020-03-26T13:57:19Z</time>
        <extensions><gpxtpx:TrackPointExtension><gpxtpx:hr>134</gpxtpx:hr></gpxtpx:TrackPointExtension></extensions>
      </trkpt>
      <trkpt lat="59.199252" lon="17.787759">
        <ele>34.8</ele>
        <time>2020-03-26T13:57:20Z</time>
        <extensions><gpxtpx:TrackPointExtension><gpxtpx:hr>135</gpxtpx:hr></gpxtpx:TrackPointExtension></extensions>
      </trkpt>
      <trkpt lat="59.199247" lon="17.787896">
        <ele>35</ele>
        <time>2020-03-26T13:57:21Z</time>
        <extensions><gpxtpx:TrackPointExtension><gpxtpx:hr>135</gpxtpx:hr></gpxtpx:TrackPointExtension></extensions>
      </trkpt>
      <trkpt lat="59.199241" lon="17.788031">
        <ele>35.2</ele>
        <time>2020-03-26T13:57:22Z</time>
        <extensions><gpxtpx:TrackPointExtension><gpxtpx:hr>136</gpxtpx:hr></gpxtpx:TrackPointExtension></extensions>
      </trkpt>
      <trkpt lat="59.199233" lon="17.788174">
        <ele>35.4</ele>
        <time>2020-03-26T13:57:23Z</time>
        <extensions><gpxtpx:TrackPointExtension><gpxtpx:hr>137</gpxtpx:hr></gpxtpx:TrackPointExtension></extensions>
      </trkpt>
      <trkpt lat="59.199226" lon="17.788316">
        <ele>35.6</ele>
        <time>2020-03-26T13:57:24Z</time>
        <extensions><gpxtpx:TrackPointExtension><gpxtpx:hr>137</gpxtpx:hr></gpxtpx:TrackPointExtension></extensions>
      </trkpt>
      <trkpt lat="59.199219" lon="17.788461">
        <ele>35.6</ele>
        <time>2020-03-26T13:57:25Z</time>
        <extensions><gpxtpx:TrackPointExtension><gpxtpx:hr>138</gpxtpx:hr></gpxtpx:TrackPointExtension></extensions>
      </trkpt>
      <trkpt lat="59.199211" lon="17.788606">
        <ele>35.6</ele>
        <time>2020-03-26T13:57:26Z</time>
        <extensions><gpxtpx:TrackPointExtension><gpxtpx:hr>139</gpxtpx:hr></gpxtpx:TrackPointExtension></extensions>
      </trkpt>
      <trkpt lat="59.199204" lon="17.788755">
        <ele>35.8</ele>
        <time>2020-03-26T13:57:27Z</time>
        <extensions><gpxtpx:TrackPointExtension><gpxtpx:hr>139</gpxtpx:hr></gpxtpx:TrackPointExtension></extensions>
      </trkpt>
      <trkpt lat="59.199198" lon="17.788903">
        <ele>35.8</ele>
        <time>2020-03-26T13:57:28Z</time>
        <extensions><gpxtpx:TrackPointExtension><gpxtpx:hr>139</gpxtpx:hr></gpxtpx:TrackPointExtension></extensions>
      </trkpt>
      <trkpt lat="59.199192" lon="17.789051">
        <ele>35.8</ele>
        <time>2020-03-26T13:57:29Z</time>
        <extensions><gpxtpx:TrackPointExtension><gpxtpx:hr>140</gpxtpx:hr></gpxtpx:TrackPointExtension></extensions>
      </trkpt>
      <trkpt lat="59.199187" lon="17.789195">
        <ele>35.8</ele>
        <time>2020-03-26T13:57:30Z</time>
        <extensions><gpxtpx:TrackPointExtension><gpxtpx:hr>140</gpxtpx:hr></gpxtpx:TrackPointExtension></extensions>
      </trkpt>
      <trkpt lat="59.199182" lon="17.78934">
        <ele>35.8</ele>
        <time>2020-03-26T13:57:31Z</time>
        <extensions><gpxtpx:TrackPointExtension><gpxtpx:hr>140</gpxtpx:hr></gpxtpx:TrackPointExtension></extensions>
      </trkpt>
      <trkpt lat="59.199177" lon="17.789492">
        <ele>35.8</ele>
        <time>2020-03-26T13:57:32Z</time>
        <extensions><gpxtpx:TrackPointExtension><gpxtpx:hr>141</gpxtpx:hr></gpxtpx:TrackPointExtension></extensions>
      </trkpt>
      <trkpt lat="59.199174" lon="17.789638">
        <ele>36</ele>
        <time>2020-03-26T13:57:33Z</time>
        <extensions><gpxtpx:TrackPointExtension><gpxtpx:hr>141</gpxtpx:hr></gpxtpx:TrackPointExtension></extensions>
      </trkpt>
      <trkpt lat="59.19917" lon="17.789784">
        <ele>36.2</ele>
        <time>2020-03-26T13:57:34Z</time>
        <extensions><gpxtpx:TrackPointExtension><gpxtpx:hr>141</gpxtpx:hr></gpxtpx:TrackPointExtension></extensions>
      </trkpt>
      <trkpt lat="59.199168" lon="17.789927">
        <ele>36.2</ele>
        <time>2020-03-26T13:57:35Z</time>
        <extensions><gpxtpx:TrackPointExtension><gpxtpx:hr>141</gpxtpx:hr></gpxtpx:TrackPointExtension></extensions>
      </trkpt>
      <trkpt lat="59.199165" lon="17.790068">
        <ele>36.4</ele>
        <time>2020-03-26T13:57:36Z</time>
        <extensions><gpxtpx:TrackPointExtension><gpxtpx:hr>141</gpxtpx:hr></gpxtpx:TrackPointExtension></extensions>
      </trkpt>
      <trkpt lat="59.199163" lon="17.790207">
        <ele>36.4</ele>
        <time>2020-03-26T13:57:37Z</time>
        <extensions><gpxtpx:TrackPointExtension><gpxtpx:hr>141</gpxtpx:hr></gpxtpx:TrackPointExtension></extensions>
      </trkpt>
      <trkpt lat="59.199159" lon="17.790343">
        <ele>36.4</ele>
        <time>2020-03-26T13:57:38Z</time>
        <extensions><gpxtpx:TrackPointExtension><gpxtpx:hr>141</gpxtpx:hr></gpxtpx:TrackPointExtension></extensions>
      </trkpt>
      <trkpt lat="59.199154" lon="17.790476">
        <ele>36.4</ele>
        <time>2020-03-26T13:57:39Z</time>
        <extensions><gpxtpx:TrackPointExtension><gpxtpx:hr>141</gpxtpx:hr></gpxtpx:TrackPointExtension></extensions>
      </trkpt>
      <trkpt lat="59.19915" lon="17.790606">
        <ele>36.4</ele>
        <time>2020-03-26T13:57:40Z</time>
        <extensions><gpxtpx:TrackPointExtension><gpxtpx:hr>141</gpxtpx:hr></gpxtpx:TrackPointExtension></extensions>
      </trkpt>
      <trkpt lat="59.199146" lon="17.790734">
        <ele>36.4</ele>
        <time>2020-03-26T13:57:41Z</time>
        <extensions><gpxtpx:TrackPointExtension><gpxtpx:hr>140</gpxtpx:hr></gpxtpx:TrackPointExtension></extensions>
      </trkpt>
      <trkpt lat="59.199142" lon="17.790861">
        <ele>36.6</ele>
        <time>2020-03-26T13:57:42Z</time>
        <extensions><gpxtpx:TrackPointExtension><gpxtpx:hr>140</gpxtpx:hr></gpxtpx:TrackPointExtension></extensions>
      </trkpt>
      <trkpt lat="59.199137" lon="17.790985">
        <ele>36.6</ele>
        <time>2020-03-26T13:57:43Z</time>
        <extensions><gpxtpx:TrackPointExtension><gpxtpx:hr>140</gpxtpx:hr></gpxtpx:TrackPointExtension></extensions>
      </trkpt>
      <trkpt lat="59.19913" lon="17.791102">
        <ele>36.6</ele>
        <time>2020-03-26T13:57:44Z</time>
        <extensions><gpxtpx:TrackPointExtension><gpxtpx:hr>140</gpxtpx:hr></gpxtpx:TrackPointExtension></extensions>
      </trkpt>
      <trkpt lat="59.199123" lon="17.791215">
        <ele>36.8</ele>
        <time>2020-03-26T13:57:45Z</time>
        <extensions><gpxtpx:TrackPointExtension><gpxtpx:hr>140</gpxtpx:hr></gpxtpx:TrackPointExtension></extensions>
      </trkpt>
      <trkpt lat="59.199116" lon="17.791328">
        <ele>37</ele>
        <time>2020-03-26T13:57:46Z</time>
        <extensions><gpxtpx:TrackPointExtension><gpxtpx:hr>140</gpxtpx:hr></gpxtpx:TrackPointExtension></extensions>
      </trkpt>
      <trkpt lat="59.199106" lon="17.791441">
        <ele>37.4</ele>
        <time>2020-03-26T13:57:47Z</time>
        <extensions><gpxtpx:TrackPointExtension><gpxtpx:hr>140</gpxtpx:hr></gpxtpx:TrackPointExtension></extensions>
      </trkpt>
      <trkpt lat="59.199093" lon="17.791563">
        <ele>37.6</ele>
        <time>2020-03-26T13:57:48Z</time>
        <extensions><gpxtpx:TrackPointExtension><gpxtpx:hr>140</gpxtpx:hr></gpxtpx:TrackPointExtension></extensions>
      </trkpt>
      <trkpt lat="59.199081" lon="17.79169">
        <ele>37.8</ele>
        <time>2020-03-26T13:57:49Z</time>
        <extensions><gpxtpx:TrackPointExtension><gpxtpx:hr>140</gpxtpx:hr></gpxtpx:TrackPointExtension></extensions>
      </trkpt>
      <trkpt lat="59.199068" lon="17.791813">
        <ele>37.8</ele>
        <time>2020-03-26T13:57:50Z</time>
        <extensions><gpxtpx:TrackPointExtension><gpxtpx:hr>140</gpxtpx:hr></gpxtpx:TrackPointExtension></extensions>
      </trkpt>
      <trkpt lat="59.199054" lon="17.791939">
        <ele>38</ele>
        <time>2020-03-26T13:57:51Z</time>
        <extensions><gpxtpx:TrackPointExtension><gpxtpx:hr>140</gpxtpx:hr></gpxtpx:TrackPointExtension></extensions>
      </trkpt>
      <trkpt lat="59.199038" lon="17.792067">
        <ele>38</ele>
        <time>2020-03-26T13:57:52Z</time>
        <extensions><gpxtpx:TrackPointExtension><gpxtpx:hr>140</gpxtpx:hr></gpxtpx:TrackPointExtension></extensions>
      </trkpt>
      <trkpt lat="59.19902" lon="17.792196">
        <ele>38</ele>
        <time>2020-03-26T13:57:53Z</time>
        <extensions><gpxtpx:TrackPointExtension><gpxtpx:hr>140</gpxtpx:hr></gpxtpx:TrackPointExtension></extensions>
      </trkpt>
      <trkpt lat="59.199001" lon="17.792326">
        <ele>38.2</ele>
        <time>2020-03-26T13:57:54Z</time>
        <extensions><gpxtpx:TrackPointExtension><gpxtpx:hr>140</gpxtpx:hr></gpxtpx:TrackPointExtension></extensions>
      </trkpt>
      <trkpt lat="59.198977" lon="17.792453">
        <ele>38.2</ele>
        <time>2020-03-26T13:57:55Z</time>
        <extensions><gpxtpx:TrackPointExtension><gpxtpx:hr>140</gpxtpx:hr></gpxtpx:TrackPointExtension></extensions>
      </trkpt>
      <trkpt lat="59.198952" lon="17.792578">
        <ele>38.2</ele>
        <time>2020-03-26T13:57:56Z</time>
        <extensions><gpxtpx:TrackPointExtension><gpxtpx:hr>140</gpxtpx:hr></gpxtpx:TrackPointExtension></extensions>
      </trkpt>
      <trkpt lat="59.198932" lon="17.792704">
        <ele>38.4</ele>
        <time>2020-03-26T13:57:57Z</time>
        <extensions><gpxtpx:TrackPointExtension><gpxtpx:hr>141</gpxtpx:hr></gpxtpx:TrackPointExtension></extensions>
      </trkpt>
      <trkpt lat="59.198911" lon="17.792831">
        <ele>38.4</ele>
        <time>2020-03-26T13:57:58Z</time>
        <extensions><gpxtpx:TrackPointExtension><gpxtpx:hr>141</gpxtpx:hr></gpxtpx:TrackPointExtension></extensions>
      </trkpt>
      <trkpt lat="59.198888" lon="17.792959">
        <ele>38.4</ele>
        <time>2020-03-26T13:57:59Z</time>
        <extensions><gpxtpx:TrackPointExtension><gpxtpx:hr>141</gpxtpx:hr></gpxtpx:TrackPointExtension></extensions>
      </trkpt>
      <trkpt lat="59.198866" lon="17.793083">
        <ele>38.4</ele>
        <time>2020-03-26T13:58:00Z</time>
        <extensions><gpxtpx:TrackPointExtension><gpxtpx:hr>140</gpxtpx:hr></gpxtpx:TrackPointExtension></extensions>
      </trkpt>
      <trkpt lat="59.198844" lon="17.793209">
        <ele>38.4</ele>
        <time>2020-03-26T13:58:01Z</time>
        <extensions><gpxtpx:TrackPointExtension><gpxtpx:hr>140</gpxtpx:hr></gpxtpx:TrackPointExtension></extensions>
      </trkpt>
      <trkpt lat="59.198821" lon="17.793338">
        <ele>38.4</ele>
        <time>2020-03-26T13:58:02Z</time>
        <extensions><gpxtpx:TrackPointExtension><gpxtpx:hr>140</gpxtpx:hr></gpxtpx:TrackPointExtension></extensions>
      </trkpt>
      <trkpt lat="59.198798" lon="17.793472">
        <ele>38.4</ele>
        <time>2020-03-26T13:58:03Z</time>
        <extensions><gpxtpx:TrackPointExtension><gpxtpx:hr>139</gpxtpx:hr></gpxtpx:TrackPointExtension></extensions>
      </trkpt>
      <trkpt lat="59.198774" lon="17.793601">
        <ele>38.4</ele>
        <time>2020-03-26T13:58:04Z</time>
        <extensions><gpxtpx:TrackPointExtension><gpxtpx:hr>138</gpxtpx:hr></gpxtpx:TrackPointExtension></extensions>
      </trkpt>
      <trkpt lat="59.198752" lon="17.793733">
        <ele>38.4</ele>
        <time>2020-03-26T13:58:05Z</time>
        <extensions><gpxtpx:TrackPointExtension><gpxtpx:hr>138</gpxtpx:hr></gpxtpx:TrackPointExtension></extensions>
      </trkpt>
      <trkpt lat="59.19873" lon="17.793866">
        <ele>38.4</ele>
        <time>2020-03-26T13:58:06Z</time>
        <extensions><gpxtpx:TrackPointExtension><gpxtpx:hr>137</gpxtpx:hr></gpxtpx:TrackPointExtension></extensions>
      </trkpt>
      <trkpt lat="59.19871" lon="17.794005">
        <ele>38.6</ele>
        <time>2020-03-26T13:58:07Z</time>
        <extensions><gpxtpx:TrackPointExtension><gpxtpx:hr>137</gpxtpx:hr></gpxtpx:TrackPointExtension></extensions>
      </trkpt>
      <trkpt lat="59.198688" lon="17.794142">
        <ele>38.6</ele>
        <time>2020-03-26T13:58:08Z</time>
        <extensions><gpxtpx:TrackPointExtension><gpxtpx:hr>136</gpxtpx:hr></gpxtpx:TrackPointExtension></extensions>
      </trkpt>
      <trkpt lat="59.198664" lon="17.794289">
        <ele>38.6</ele>
        <time>2020-03-26T13:58:09Z</time>
        <extensions><gpxtpx:TrackPointExtension><gpxtpx:hr>135</gpxtpx:hr></gpxtpx:TrackPointExtension></extensions>
      </trkpt>
      <trkpt lat="59.19864" lon="17.794426">
        <ele>38.6</ele>
        <time>2020-03-26T13:58:10Z</time>
        <extensions><gpxtpx:TrackPointExtension><gpxtpx:hr>134</gpxtpx:hr></gpxtpx:TrackPointExtension></extensions>
      </trkpt>
      <trkpt lat="59.198616" lon="17.794565">
        <ele>38.6</ele>
        <time>2020-03-26T13:58:11Z</time>
        <extensions><gpxtpx:TrackPointExtension><gpxtpx:hr>134</gpxtpx:hr></gpxtpx:TrackPointExtension></extensions>
      </trkpt>
      <trkpt lat="59.198595" lon="17.7947">
        <ele>38.6</ele>
        <time>2020-03-26T13:58:12Z</time>
        <extensions><gpxtpx:TrackPointExtension><gpxtpx:hr>133</gpxtpx:hr></gpxtpx:TrackPointExtension></extensions>
      </trkpt>
      <trkpt lat="59.198574" lon="17.79484">
        <ele>38.4</ele>
        <time>2020-03-26T13:58:13Z</time>
        <extensions><gpxtpx:TrackPointExtension><gpxtpx:hr>133</gpxtpx:hr></gpxtpx:TrackPointExtension></extensions>
      </trkpt>
      <trkpt lat="59.198551" lon="17.794985">
        <ele>38.2</ele>
        <time>2020-03-26T13:58:14Z</time>
        <extensions><gpxtpx:TrackPointExtension><gpxtpx:hr>133</gpxtpx:hr></gpxtpx:TrackPointExtension></extensions>
      </trkpt>
      <trkpt lat="59.198526" lon="17.795135">
        <ele>38.2</ele>
        <time>2020-03-26T13:58:15Z</time>
        <extensions><gpxtpx:TrackPointExtension><gpxtpx:hr>132</gpxtpx:hr></gpxtpx:TrackPointExtension></extensions>
      </trkpt>
      <trkpt lat="59.198499" lon="17.795292">
        <ele>38.2</ele>
        <time>2020-03-26T13:58:16Z</time>
        <extensions><gpxtpx:TrackPointExtension><gpxtpx:hr>132</gpxtpx:hr></gpxtpx:TrackPointExtension></extensions>
      </trkpt>
      <trkpt lat="59.19847" lon="17.795453">
        <ele>38.2</ele>
        <time>2020-03-26T13:58:17Z</time>
        <extensions><gpxtpx:TrackPointExtension><gpxtpx:hr>131</gpxtpx:hr></gpxtpx:TrackPointExtension></extensions>
      </trkpt>
      <trkpt lat="59.198438" lon="17.795616">
        <ele>38.2</ele>
        <time>2020-03-26T13:58:18Z</time>
        <extensions><gpxtpx:TrackPointExtension><gpxtpx:hr>131</gpxtpx:hr></gpxtpx:TrackPointExtension></extensions>
      </trkpt>
      <trkpt lat="59.198404" lon="17.795782">
        <ele>38.2</ele>
        <time>2020-03-26T13:58:19Z</time>
        <extensions><gpxtpx:TrackPointExtension><gpxtpx:hr>131</gpxtpx:hr></gpxtpx:TrackPointExtension></extensions>
      </trkpt>
      <trkpt lat="59.198368" lon="17.795948">
        <ele>38</ele>
        <time>2020-03-26T13:58:20Z</time>
        <extensions><gpxtpx:TrackPointExtension><gpxtpx:hr>131</gpxtpx:hr></gpxtpx:TrackPointExtension></extensions>
      </trkpt>
      <trkpt lat="59.198328" lon="17.796112">
        <ele>38</ele>
        <time>2020-03-26T13:58:21Z</time>
        <extensions><gpxtpx:TrackPointExtension><gpxtpx:hr>131</gpxtpx:hr></gpxtpx:TrackPointExtension></extensions>
      </trkpt>
      <trkpt lat="59.198286" lon="17.796274">
        <ele>38</ele>
        <time>2020-03-26T13:58:22Z</time>
        <extensions><gpxtpx:TrackPointExtension><gpxtpx:hr>131</gpxtpx:hr></gpxtpx:TrackPointExtension></extensions>
      </trkpt>
      <trkpt lat="59.198243" lon="17.796434">
        <ele>37.6</ele>
        <time>2020-03-26T13:58:23Z</time>
        <extensions><gpxtpx:TrackPointExtension><gpxtpx:hr>131</gpxtpx:hr></gpxtpx:TrackPointExtension></extensions>
      </trkpt>
      <trkpt lat="59.198197" lon="17.796593">
        <ele>37</ele>
        <time>2020-03-26T13:58:24Z</time>
        <extensions><gpxtpx:TrackPointExtension><gpxtpx:hr>130</gpxtpx:hr></gpxtpx:TrackPointExtension></extensions>
      </trkpt>
      <trkpt lat="59.19815" lon="17.796747">
        <ele>36.6</ele>
        <time>2020-03-26T13:58:25Z</time>
        <extensions><gpxtpx:TrackPointExtension><gpxtpx:hr>129</gpxtpx:hr></gpxtpx:TrackPointExtension></extensions>
      </trkpt>
      <trkpt lat="59.198101" lon="17.796895">
        <ele>36</ele>
        <time>2020-03-26T13:58:26Z</time>
        <extensions><gpxtpx:TrackPointExtension><gpxtpx:hr>128</gpxtpx:hr></gpxtpx:TrackPointExtension></extensions>
      </trkpt>
      <trkpt lat="59.19805" lon="17.797042">
        <ele>35.4</ele>
        <time>2020-03-26T13:58:27Z</time>
        <extensions><gpxtpx:TrackPointExtension><gpxtpx:hr>126</gpxtpx:hr></gpxtpx:TrackPointExtension></extensions>
      </trkpt>
      <trkpt lat="59.197999" lon="17.797191">
        <ele>34.4</ele>
        <time>2020-03-26T13:58:28Z</time>
        <extensions><gpxtpx:TrackPointExtension><gpxtpx:hr>124</gpxtpx:hr></gpxtpx:TrackPointExtension></extensions>
      </trkpt>
      <trkpt lat="59.197948" lon="17.797339">
        <ele>33.8</ele>
        <time>2020-03-26T13:58:29Z</time>
        <extensions><gpxtpx:TrackPointExtension><gpxtpx:hr>123</gpxtpx:hr></gpxtpx:TrackPointExtension></extensions>
      </trkpt>
      <trkpt lat="59.197896" lon="17.797486">
        <ele>33.4</ele>
        <time>2020-03-26T13:58:30Z</time>
        <extensions><gpxtpx:TrackPointExtension><gpxtpx:hr>121</gpxtpx:hr></gpxtpx:TrackPointExtension></extensions>
      </trkpt>
      <trkpt lat="59.197847" lon="17.797629">
        <ele>32.8</ele>
        <time>2020-03-26T13:58:31Z</time>
        <extensions><gpxtpx:TrackPointExtension><gpxtpx:hr>121</gpxtpx:hr></gpxtpx:TrackPointExtension></extensions>
      </trkpt>
      <trkpt lat="59.197799" lon="17.797769">
        <ele>32.4</ele>
        <time>2020-03-26T13:58:32Z</time>
        <extensions><gpxtpx:TrackPointExtension><gpxtpx:hr>120</gpxtpx:hr></gpxtpx:TrackPointExtension></extensions>
      </trkpt>
      <trkpt lat="59.197755" lon="17.79791">
        <ele>32</ele>
        <time>2020-03-26T13:58:33Z</time>
        <extensions><gpxtpx:TrackPointExtension><gpxtpx:hr>121</gpxtpx:hr></gpxtpx:TrackPointExtension></extensions>
      </trkpt>
      <trkpt lat="59.197714" lon="17.798054">
        <ele>31.8</ele>
        <time>2020-03-26T13:58:34Z</time>
        <extensions><gpxtpx:TrackPointExtension><gpxtpx:hr>120</gpxtpx:hr></gpxtpx:TrackPointExtension></extensions>
      </trkpt>
      <trkpt lat="59.197676" lon="17.798201">
        <ele>31.6</ele>
        <time>2020-03-26T13:58:35Z</time>
        <extensions><gpxtpx:TrackPointExtension><gpxtpx:hr>120</gpxtpx:hr></gpxtpx:TrackPointExtension></extensions>
      </trkpt>
      <trkpt lat="59.197645" lon="17.798357">
        <ele>31.4</ele>
        <time>2020-03-26T13:58:36Z</time>
        <extensions><gpxtpx:TrackPointExtension><gpxtpx:hr>120</gpxtpx:hr></gpxtpx:TrackPointExtension></extensions>
      </trkpt>
      <trkpt lat="59.197621" lon="17.798516">
        <ele>31.2</ele>
        <time>2020-03-26T13:58:37Z</time>
        <extensions><gpxtpx:TrackPointExtension><gpxtpx:hr>120</gpxtpx:hr></gpxtpx:TrackPointExtension></extensions>
      </trkpt>
      <trkpt lat="59.197602" lon="17.798677">
        <ele>30.8</ele>
        <time>2020-03-26T13:58:38Z</time>
        <extensions><gpxtpx:TrackPointExtension><gpxtpx:hr>119</gpxtpx:hr></gpxtpx:TrackPointExtension></extensions>
      </trkpt>
      <trkpt lat="59.197589" lon="17.79884">
        <ele>30.6</ele>
        <time>2020-03-26T13:58:39Z</time>
        <extensions><gpxtpx:TrackPointExtension><gpxtpx:hr>119</gpxtpx:hr></gpxtpx:TrackPointExtension></extensions>
      </trkpt>
      <trkpt lat="59.197577" lon="17.799002">
        <ele>30.6</ele>
        <time>2020-03-26T13:58:40Z</time>
        <extensions><gpxtpx:TrackPointExtension><gpxtpx:hr>119</gpxtpx:hr></gpxtpx:TrackPointExtension></extensions>
      </trkpt>
      <trkpt lat="59.197567" lon="17.799163">
        <ele>30.4</ele>
        <time>2020-03-26T13:58:41Z</time>
        <extensions><gpxtpx:TrackPointExtension><gpxtpx:hr>119</gpxtpx:hr></gpxtpx:TrackPointExtension></extensions>
      </trkpt>
      <trkpt lat="59.197558" lon="17.799324">
        <ele>30.4</ele>
        <time>2020-03-26T13:58:42Z</time>
        <extensions><gpxtpx:TrackPointExtension><gpxtpx:hr>120</gpxtpx:hr></gpxtpx:TrackPointExtension></extensions>
      </trkpt>
      <trkpt lat="59.197551" lon="17.799481">
        <ele>30.4</ele>
        <time>2020-03-26T13:58:43Z</time>
        <extensions><gpxtpx:TrackPointExtension><gpxtpx:hr>120</gpxtpx:hr></gpxtpx:TrackPointExtension></extensions>
      </trkpt>
      <trkpt lat="59.197545" lon="17.799639">
        <ele>30.2</ele>
        <time>2020-03-26T13:58:44Z</time>
        <extensions><gpxtpx:TrackPointExtension><gpxtpx:hr>121</gpxtpx:hr></gpxtpx:TrackPointExtension></extensions>
      </trkpt>
      <trkpt lat="59.197545" lon="17.799794">
        <ele>30</ele>
        <time>2020-03-26T13:58:45Z</time>
        <extensions><gpxtpx:TrackPointExtension><gpxtpx:hr>121</gpxtpx:hr></gpxtpx:TrackPointExtension></extensions>
      </trkpt>
      <trkpt lat="59.19755" lon="17.799945">
        <ele>30</ele>
        <time>2020-03-26T13:58:46Z</time>
        <extensions><gpxtpx:TrackPointExtension><gpxtpx:hr>121</gpxtpx:hr></gpxtpx:TrackPointExtension></extensions>
      </trkpt>
      <trkpt lat="59.197557" lon="17.800091">
        <ele>29.8</ele>
        <time>2020-03-26T13:58:47Z</time>
        <extensions><gpxtpx:TrackPointExtension><gpxtpx:hr>122</gpxtpx:hr></gpxtpx:TrackPointExtension></extensions>
      </trkpt>
      <trkpt lat="59.197567" lon="17.800234">
        <ele>29.8</ele>
        <time>2020-03-26T13:58:48Z</time>
        <extensions><gpxtpx:TrackPointExtension><gpxtpx:hr>122</gpxtpx:hr></gpxtpx:TrackPointExtension></extensions>
      </trkpt>
      <trkpt lat="59.197581" lon="17.800372">
        <ele>29.6</ele>
        <time>2020-03-26T13:58:49Z</time>
        <extensions><gpxtpx:TrackPointExtension><gpxtpx:hr>122</gpxtpx:hr></gpxtpx:TrackPointExtension></extensions>
      </trkpt>
      <trkpt lat="59.197597" lon="17.800511">
        <ele>29.6</ele>
        <time>2020-03-26T13:58:50Z</time>
        <extensions><gpxtpx:TrackPointExtension><gpxtpx:hr>122</gpxtpx:hr></gpxtpx:TrackPointExtension></extensions>
      </trkpt>
      <trkpt lat="59.197614" lon="17.800649">
        <ele>29.4</ele>
        <time>2020-03-26T13:58:51Z</time>
        <extensions><gpxtpx:TrackPointExtension><gpxtpx:hr>123</gpxtpx:hr></gpxtpx:TrackPointExtension></extensions>
      </trkpt>
      <trkpt lat="59.197634" lon="17.800787">
        <ele>29.4</ele>
        <time>2020-03-26T13:58:52Z</time>
        <extensions><gpxtpx:TrackPointExtension><gpxtpx:hr>123</gpxtpx:hr></gpxtpx:TrackPointExtension></extensions>
      </trkpt>
      <trkpt lat="59.197655" lon="17.800925">
        <ele>29.4</ele>
        <time>2020-03-26T13:58:53Z</time>
        <extensions><gpxtpx:TrackPointExtension><gpxtpx:hr>124</gpxtpx:hr></gpxtpx:TrackPointExtension></extensions>
      </trkpt>
      <trkpt lat="59.197678" lon="17.801064">
        <ele>29.4</ele>
        <time>2020-03-26T13:58:54Z</time>
        <extensions><gpxtpx:TrackPointExtension><gpxtpx:hr>125</gpxtpx:hr></gpxtpx:TrackPointExtension></extensions>
      </trkpt>
      <trkpt lat="59.197705" lon="17.801203">
        <ele>29.4</ele>
        <time>2020-03-26T13:58:55Z</time>
        <extensions><gpxtpx:TrackPointExtension><gpxtpx:hr>126</gpxtpx:hr></gpxtpx:TrackPointExtension></extensions>
      </trkpt>
      <trkpt lat="59.197736" lon="17.801343">
        <ele>29.4</ele>
        <time>2020-03-26T13:58:56Z</time>
        <extensions><gpxtpx:TrackPointExtension><gpxtpx:hr>126</gpxtpx:hr></gpxtpx:TrackPointExtension></extensions>
      </trkpt>
      <trkpt lat="59.197771" lon="17.80148">
        <ele>29.4</ele>
        <time>2020-03-26T13:58:57Z</time>
        <extensions><gpxtpx:TrackPointExtension><gpxtpx:hr>127</gpxtpx:hr></gpxtpx:TrackPointExtension></extensions>
      </trkpt>
      <trkpt lat="59.19781" lon="17.801615">
        <ele>29.4</ele>
        <time>2020-03-26T13:58:58Z</time>
        <extensions><gpxtpx:TrackPointExtension><gpxtpx:hr>127</gpxtpx:hr></gpxtpx:TrackPointExtension></extensions>
      </trkpt>
      <trkpt lat="59.197855" lon="17.801744">
        <ele>29.6</ele>
        <time>2020-03-26T13:58:59Z</time>
        <extensions><gpxtpx:TrackPointExtension><gpxtpx:hr>127</gpxtpx:hr></gpxtpx:TrackPointExtension></extensions>
      </trkpt>
      <trkpt lat="59.197906" lon="17.801863">
        <ele>29.8</ele>
        <time>2020-03-26T13:59:00Z</time>
        <extensions><gpxtpx:TrackPointExtension><gpxtpx:hr>127</gpxtpx:hr></gpxtpx:TrackPointExtension></extensions>
      </trkpt>
      <trkpt lat="59.197963" lon="17.801975">
        <ele>29.8</ele>
        <time>2020-03-26T13:59:01Z</time>
        <extensions><gpxtpx:TrackPointExtension><gpxtpx:hr>126</gpxtpx:hr></gpxtpx:TrackPointExtension></extensions>
      </trkpt>
      <trkpt lat="59.198026" lon="17.802075">
        <ele>30</ele>
        <time>2020-03-26T13:59:02Z</time>
        <extensions><gpxtpx:TrackPointExtension><gpxtpx:hr>126</gpxtpx:hr></gpxtpx:TrackPointExtension></extensions>
      </trkpt>
      <trkpt lat="59.198091" lon="17.802165">
        <ele>30</ele>
        <time>2020-03-26T13:59:03Z</time>
        <extensions><gpxtpx:TrackPointExtension><gpxtpx:hr>126</gpxtpx:hr></gpxtpx:TrackPointExtension></extensions>
      </trkpt>
      <trkpt lat="59.198156" lon="17.802255">
        <ele>30</ele>
        <time>2020-03-26T13:59:04Z</time>
        <extensions><gpxtpx:TrackPointExtension><gpxtpx:hr>127</gpxtpx:hr></gpxtpx:TrackPointExtension></extensions>
      </trkpt>
      <trkpt lat="59.198221" lon="17.802343">
        <ele>30.2</ele>
        <time>2020-03-26T13:59:05Z</time>
        <extensions><gpxtpx:TrackPointExtension><gpxtpx:hr>127</gpxtpx:hr></gpxtpx:TrackPointExtension></extensions>
      </trkpt>
      <trkpt lat="59.198284" lon="17.802428">
        <ele>30.2</ele>
        <time>2020-03-26T13:59:06Z</time>
        <extensions><gpxtpx:TrackPointExtension><gpxtpx:hr>127</gpxtpx:hr></gpxtpx:TrackPointExtension></extensions>
      </trkpt>
      <trkpt lat="59.198344" lon="17.802514">
        <ele>30.2</ele>
        <time>2020-03-26T13:59:07Z</time>
        <extensions><gpxtpx:TrackPointExtension><gpxtpx:hr>127</gpxtpx:hr></gpxtpx:TrackPointExtension></extensions>
      </trkpt>
      <trkpt lat="59.198406" lon="17.802596">
        <ele>30.2</ele>
        <time>2020-03-26T13:59:08Z</time>
        <extensions><gpxtpx:TrackPointExtension><gpxtpx:hr>127</gpxtpx:hr></gpxtpx:TrackPointExtension></extensions>
      </trkpt>
      <trkpt lat="59.198465" lon="17.802674">
        <ele>30.2</ele>
        <time>2020-03-26T13:59:09Z</time>
        <extensions><gpxtpx:TrackPointExtension><gpxtpx:hr>127</gpxtpx:hr></gpxtpx:TrackPointExtension></extensions>
      </trkpt>
      <trkpt lat="59.198522" lon="17.802751">
        <ele>30.2</ele>
        <time>2020-03-26T13:59:10Z</time>
        <extensions><gpxtpx:TrackPointExtension><gpxtpx:hr>127</gpxtpx:hr></gpxtpx:TrackPointExtension></extensions>
      </trkpt>
      <trkpt lat="59.198579" lon="17.802827">
        <ele>30.2</ele>
        <time>2020-03-26T13:59:11Z</time>
        <extensions><gpxtpx:TrackPointExtension><gpxtpx:hr>127</gpxtpx:hr></gpxtpx:TrackPointExtension></extensions>
      </trkpt>
      <trkpt lat="59.198635" lon="17.802909">
        <ele>30.2</ele>
        <time>2020-03-26T13:59:12Z</time>
        <extensions><gpxtpx:TrackPointExtension><gpxtpx:hr>127</gpxtpx:hr></gpxtpx:TrackPointExtension></extensions>
      </trkpt>
      <trkpt lat="59.198695" lon="17.802996">
        <ele>30.2</ele>
        <time>2020-03-26T13:59:13Z</time>
        <extensions><gpxtpx:TrackPointExtension><gpxtpx:hr>128</gpxtpx:hr></gpxtpx:TrackPointExtension></extensions>
      </trkpt>
      <trkpt lat="59.198755" lon="17.803083">
        <ele>30.2</ele>
        <time>2020-03-26T13:59:14Z</time>
        <extensions><gpxtpx:TrackPointExtension><gpxtpx:hr>128</gpxtpx:hr></gpxtpx:TrackPointExtension></extensions>
      </trkpt>
      <trkpt lat="59.198815" lon="17.803166">
        <ele>30.2</ele>
        <time>2020-03-26T13:59:15Z</time>
        <extensions><gpxtpx:TrackPointExtension><gpxtpx:hr>129</gpxtpx:hr></gpxtpx:TrackPointExtension></extensions>
      </trkpt>
      <trkpt lat="59.198881" lon="17.803248">
        <ele>30.2</ele>
        <time>2020-03-26T13:59:16Z</time>
        <extensions><gpxtpx:TrackPointExtension><gpxtpx:hr>130</gpxtpx:hr></gpxtpx:TrackPointExtension></extensions>
      </trkpt>
      <trkpt lat="59.198946" lon="17.80333">
        <ele>30.4</ele>
        <time>2020-03-26T13:59:17Z</time>
        <extensions><gpxtpx:TrackPointExtension><gpxtpx:hr>130</gpxtpx:hr></gpxtpx:TrackPointExtension></extensions>
      </trkpt>
      <trkpt lat="59.199009" lon="17.803416">
        <ele>30.4</ele>
        <time>2020-03-26T13:59:18Z</time>
        <extensions><gpxtpx:TrackPointExtension><gpxtpx:hr>131</gpxtpx:hr></gpxtpx:TrackPointExtension></extensions>
      </trkpt>
      <trkpt lat="59.199073" lon="17.803503">
        <ele>30.4</ele>
        <time>2020-03-26T13:59:19Z</time>
        <extensions><gpxtpx:TrackPointExtension><gpxtpx:hr>131</gpxtpx:hr></gpxtpx:TrackPointExtension></extensions>
      </trkpt>
      <trkpt lat="59.199134" lon="17.803594">
        <ele>30.4</ele>
        <time>2020-03-26T13:59:20Z</time>
        <extensions><gpxtpx:TrackPointExtension><gpxtpx:hr>132</gpxtpx:hr></gpxtpx:TrackPointExtension></extensions>
      </trkpt>
      <trkpt lat="59.199201" lon="17.803687">
        <ele>30.4</ele>
        <time>2020-03-26T13:59:21Z</time>
        <extensions><gpxtpx:TrackPointExtension><gpxtpx:hr>132</gpxtpx:hr></gpxtpx:TrackPointExtension></extensions>
      </trkpt>
      <trkpt lat="59.199266" lon="17.80378">
        <ele>30.4</ele>
        <time>2020-03-26T13:59:22Z</time>
        <extensions><gpxtpx:TrackPointExtension><gpxtpx:hr>133</gpxtpx:hr></gpxtpx:TrackPointExtension></extensions>
      </trkpt>
      <trkpt lat="59.199334" lon="17.803875">
        <ele>30.4</ele>
        <time>2020-03-26T13:59:23Z</time>
        <extensions><gpxtpx:TrackPointExtension><gpxtpx:hr>133</gpxtpx:hr></gpxtpx:TrackPointExtension></extensions>
      </trkpt>
      <trkpt lat="59.199407" lon="17.803968">
        <ele>30.4</ele>
        <time>2020-03-26T13:59:24Z</time>
        <extensions><gpxtpx:TrackPointExtension><gpxtpx:hr>133</gpxtpx:hr></gpxtpx:TrackPointExtension></extensions>
      </trkpt>
      <trkpt lat="59.199476" lon="17.80406">
        <ele>30.4</ele>
        <time>2020-03-26T13:59:25Z</time>
        <extensions><gpxtpx:TrackPointExtension><gpxtpx:hr>133</gpxtpx:hr></gpxtpx:TrackPointExtension></extensions>
      </trkpt>
      <trkpt lat="59.199545" lon="17.804152">
        <ele>30.4</ele>
        <time>2020-03-26T13:59:26Z</time>
        <extensions><gpxtpx:TrackPointExtension><gpxtpx:hr>134</gpxtpx:hr></gpxtpx:TrackPointExtension></extensions>
      </trkpt>
      <trkpt lat="59.199616" lon="17.804243">
        <ele>30.2</ele>
        <time>2020-03-26T13:59:27Z</time>
        <extensions><gpxtpx:TrackPointExtension><gpxtpx:hr>133</gpxtpx:hr></gpxtpx:TrackPointExtension></extensions>
      </trkpt>
      <trkpt lat="59.199689" lon="17.804336">
        <ele>30</ele>
        <time>2020-03-26T13:59:28Z</time>
        <extensions><gpxtpx:TrackPointExtension><gpxtpx:hr>133</gpxtpx:hr></gpxtpx:TrackPointExtension></extensions>
      </trkpt>
      <trkpt lat="59.199759" lon="17.804429">
        <ele>29.8</ele>
        <time>2020-03-26T13:59:29Z</time>
        <extensions><gpxtpx:TrackPointExtension><gpxtpx:hr>132</gpxtpx:hr></gpxtpx:TrackPointExtension></extensions>
      </trkpt>
      <trkpt lat="59.199833" lon="17.804526">
        <ele>29.8</ele>
        <time>2020-03-26T13:59:30Z</time>
        <extensions><gpxtpx:TrackPointExtension><gpxtpx:hr>131</gpxtpx:hr></gpxtpx:TrackPointExtension></extensions>
      </trkpt>
      <trkpt lat="59.199902" lon="17.804621">
        <ele>29.6</ele>
        <time>2020-03-26T13:59:31Z</time>
        <extensions><gpxtpx:TrackPointExtension><gpxtpx:hr>131</gpxtpx:hr></gpxtpx:TrackPointExtension></extensions>
      </trkpt>
      <trkpt lat="59.199969" lon="17.804711">
        <ele>29.2</ele>
        <time>2020-03-26T13:59:32Z</time>
        <extensions><gpxtpx:TrackPointExtension><gpxtpx:hr>130</gpxtpx:hr></gpxtpx:TrackPointExtension></extensions>
      </trkpt>
      <trkpt lat="59.200032" lon="17.8048">
        <ele>28.8</ele>
        <time>2020-03-26T13:59:33Z</time>
        <extensions><gpxtpx:TrackPointExtension><gpxtpx:hr>130</gpxtpx:hr></gpxtpx:TrackPointExtension></extensions>
      </trkpt>
      <trkpt lat="59.200095" lon="17.804891">
        <ele>28.2</ele>
        <time>2020-03-26T13:59:34Z</time>
        <extensions><gpxtpx:TrackPointExtension><gpxtpx:hr>129</gpxtpx:hr></gpxtpx:TrackPointExtension></extensions>
      </trkpt>
      <trkpt lat="59.200156" lon="17.804988">
        <ele>27.8</ele>
        <time>2020-03-26T13:59:35Z</time>
        <extensions><gpxtpx:TrackPointExtension><gpxtpx:hr>128</gpxtpx:hr></gpxtpx:TrackPointExtension></extensions>
      </trkpt>
      <trkpt lat="59.200215" lon="17.805093">
        <ele>27.6</ele>
        <time>2020-03-26T13:59:36Z</time>
        <extensions><gpxtpx:TrackPointExtension><gpxtpx:hr>127</gpxtpx:hr></gpxtpx:TrackPointExtension></extensions>
      </trkpt>
      <trkpt lat="59.200271" lon="17.805201">
        <ele>27.4</ele>
        <time>2020-03-26T13:59:37Z</time>
        <extensions><gpxtpx:TrackPointExtension><gpxtpx:hr>126</gpxtpx:hr></gpxtpx:TrackPointExtension></extensions>
      </trkpt>
      <trkpt lat="59.200323" lon="17.805314">
        <ele>27.2</ele>
        <time>2020-03-26T13:59:38Z</time>
        <extensions><gpxtpx:TrackPointExtension><gpxtpx:hr>126</gpxtpx:hr></gpxtpx:TrackPointExtension></extensions>
      </trkpt>
      <trkpt lat="59.200366" lon="17.80543">
        <ele>27</ele>
        <time>2020-03-26T13:59:39Z</time>
        <extensions><gpxtpx:TrackPointExtension><gpxtpx:hr>127</gpxtpx:hr></gpxtpx:TrackPointExtension></extensions>
      </trkpt>
      <trkpt lat="59.200405" lon="17.805553">
        <ele>27</ele>
        <time>2020-03-26T13:59:40Z</time>
        <extensions><gpxtpx:TrackPointExtension><gpxtpx:hr>127</gpxtpx:hr></gpxtpx:TrackPointExtension></extensions>
      </trkpt>
      <trkpt lat="59.200437" lon="17.805681">
        <ele>26.8</ele>
        <time>2020-03-26T13:59:41Z</time>
        <extensions><gpxtpx:TrackPointExtension><gpxtpx:hr>128</gpxtpx:hr></gpxtpx:TrackPointExtension></extensions>
      </trkpt>
      <trkpt lat="59.20046" lon="17.805811">
        <ele>26.8</ele>
        <time>2020-03-26T13:59:42Z</time>
        <extensions><gpxtpx:TrackPointExtension><gpxtpx:hr>128</gpxtpx:hr></gpxtpx:TrackPointExtension></extensions>
      </trkpt>
      <trkpt lat="59.200475" lon="17.805943">
        <ele>26.8</ele>
        <time>2020-03-26T13:59:43Z</time>
        <extensions><gpxtpx:TrackPointExtension><gpxtpx:hr>129</gpxtpx:hr></gpxtpx:TrackPointExtension></extensions>
      </trkpt>
      <trkpt lat="59.200491" lon="17.806079">
        <ele>26.8</ele>
        <time>2020-03-26T13:59:44Z</time>
        <extensions><gpxtpx:TrackPointExtension><gpxtpx:hr>129</gpxtpx:hr></gpxtpx:TrackPointExtension></extensions>
      </trkpt>
      <trkpt lat="59.200502" lon="17.806217">
        <ele>26.8</ele>
        <time>2020-03-26T13:59:45Z</time>
        <extensions><gpxtpx:TrackPointExtension><gpxtpx:hr>129</gpxtpx:hr></gpxtpx:TrackPointExtension></extensions>
      </trkpt>
      <trkpt lat="59.200512" lon="17.806356">
        <ele>26.8</ele>
        <time>2020-03-26T13:59:46Z</time>
        <extensions><gpxtpx:TrackPointExtension><gpxtpx:hr>129</gpxtpx:hr></gpxtpx:TrackPointExtension></extensions>
      </trkpt>
      <trkpt lat="59.200518" lon="17.806496">
        <ele>26.8</ele>
        <time>2020-03-26T13:59:47Z</time>
        <extensions><gpxtpx:TrackPointExtension><gpxtpx:hr>129</gpxtpx:hr></gpxtpx:TrackPointExtension></extensions>
      </trkpt>
      <trkpt lat="59.200524" lon="17.806636">
        <ele>26.8</ele>
        <time>2020-03-26T13:59:48Z</time>
        <extensions><gpxtpx:TrackPointExtension><gpxtpx:hr>129</gpxtpx:hr></gpxtpx:TrackPointExtension></extensions>
      </trkpt>
      <trkpt lat="59.20053" lon="17.806776">
        <ele>26.8</ele>
        <time>2020-03-26T13:59:49Z</time>
        <extensions><gpxtpx:TrackPointExtension><gpxtpx:hr>129</gpxtpx:hr></gpxtpx:TrackPointExtension></extensions>
      </trkpt>
      <trkpt lat="59.200537" lon="17.80688">
        <ele>26.8</ele>
        <time>2020-03-26T13:59:50Z</time>
        <extensions><gpxtpx:TrackPointExtension><gpxtpx:hr>129</gpxtpx:hr></gpxtpx:TrackPointExtension></extensions>
      </trkpt>
      <trkpt lat="59.200543" lon="17.806985">
        <ele>26.8</ele>
        <time>2020-03-26T13:59:51Z</time>
        <extensions><gpxtpx:TrackPointExtension><gpxtpx:hr>129</gpxtpx:hr></gpxtpx:TrackPointExtension></extensions>
      </trkpt>
      <trkpt lat="59.200556" lon="17.807194">
        <ele>26.8</ele>
        <time>2020-03-26T13:59:52Z</time>
        <extensions><gpxtpx:TrackPointExtension><gpxtpx:hr>130</gpxtpx:hr></gpxtpx:TrackPointExtension></extensions>
      </trkpt>
      <trkpt lat="59.200565" lon="17.807335">
        <ele>26.8</ele>
        <time>2020-03-26T13:59:53Z</time>
        <extensions><gpxtpx:TrackPointExtension><gpxtpx:hr>130</gpxtpx:hr></gpxtpx:TrackPointExtension></extensions>
      </trkpt>
      <trkpt lat="59.200571" lon="17.807476">
        <ele>26.8</ele>
        <time>2020-03-26T13:59:54Z</time>
        <extensions><gpxtpx:TrackPointExtension><gpxtpx:hr>130</gpxtpx:hr></gpxtpx:TrackPointExtension></extensions>
      </trkpt>
      <trkpt lat="59.200574" lon="17.807613">
        <ele>26.8</ele>
        <time>2020-03-26T13:59:55Z</time>
        <extensions><gpxtpx:TrackPointExtension><gpxtpx:hr>130</gpxtpx:hr></gpxtpx:TrackPointExtension></extensions>
      </trkpt>
      <trkpt lat="59.200572" lon="17.807748">
        <ele>26.8</ele>
        <time>2020-03-26T13:59:56Z</time>
        <extensions><gpxtpx:TrackPointExtension><gpxtpx:hr>130</gpxtpx:hr></gpxtpx:TrackPointExtension></extensions>
      </trkpt>
      <trkpt lat="59.200567" lon="17.807848">
        <ele>26.8</ele>
        <time>2020-03-26T13:59:57Z</time>
        <extensions><gpxtpx:TrackPointExtension><gpxtpx:hr>131</gpxtpx:hr></gpxtpx:TrackPointExtension></extensions>
      </trkpt>
      <trkpt lat="59.200561" lon="17.807948">
        <ele>26.8</ele>
        <time>2020-03-26T13:59:58Z</time>
        <extensions><gpxtpx:TrackPointExtension><gpxtpx:hr>131</gpxtpx:hr></gpxtpx:TrackPointExtension></extensions>
      </trkpt>
      <trkpt lat="59.200549" lon="17.808148">
        <ele>26.8</ele>
        <time>2020-03-26T13:59:59Z</time>
        <extensions><gpxtpx:TrackPointExtension><gpxtpx:hr>131</gpxtpx:hr></gpxtpx:TrackPointExtension></extensions>
      </trkpt>
      <trkpt lat="59.200535" lon="17.808288">
        <ele>26.8</ele>
        <time>2020-03-26T14:00:00Z</time>
        <extensions><gpxtpx:TrackPointExtension><gpxtpx:hr>132</gpxtpx:hr></gpxtpx:TrackPointExtension></extensions>
      </trkpt>
      <trkpt lat="59.200522" lon="17.80843">
        <ele>26.8</ele>
        <time>2020-03-26T14:00:01Z</time>
        <extensions><gpxtpx:TrackPointExtension><gpxtpx:hr>133</gpxtpx:hr></gpxtpx:TrackPointExtension></extensions>
      </trkpt>
      <trkpt lat="59.200506" lon="17.808568">
        <ele>26.8</ele>
        <time>2020-03-26T14:00:02Z</time>
        <extensions><gpxtpx:TrackPointExtension><gpxtpx:hr>134</gpxtpx:hr></gpxtpx:TrackPointExtension></extensions>
      </trkpt>
      <trkpt lat="59.200494" lon="17.808702">
        <ele>26.8</ele>
        <time>2020-03-26T14:00:03Z</time>
        <extensions><gpxtpx:TrackPointExtension><gpxtpx:hr>135</gpxtpx:hr></gpxtpx:TrackPointExtension></extensions>
      </trkpt>
      <trkpt lat="59.200484" lon="17.808839">
        <ele>26.8</ele>
        <time>2020-03-26T14:00:04Z</time>
        <extensions><gpxtpx:TrackPointExtension><gpxtpx:hr>136</gpxtpx:hr></gpxtpx:TrackPointExtension></extensions>
      </trkpt>
      <trkpt lat="59.200479" lon="17.808978">
        <ele>27</ele>
        <time>2020-03-26T14:00:05Z</time>
        <extensions><gpxtpx:TrackPointExtension><gpxtpx:hr>137</gpxtpx:hr></gpxtpx:TrackPointExtension></extensions>
      </trkpt>
      <trkpt lat="59.200477" lon="17.809115">
        <ele>27</ele>
        <time>2020-03-26T14:00:06Z</time>
        <extensions><gpxtpx:TrackPointExtension><gpxtpx:hr>137</gpxtpx:hr></gpxtpx:TrackPointExtension></extensions>
      </trkpt>
      <trkpt lat="59.200478" lon="17.809252">
        <ele>27.2</ele>
        <time>2020-03-26T14:00:07Z</time>
        <extensions><gpxtpx:TrackPointExtension><gpxtpx:hr>138</gpxtpx:hr></gpxtpx:TrackPointExtension></extensions>
      </trkpt>
      <trkpt lat="59.20048" lon="17.809396">
        <ele>27.4</ele>
        <time>2020-03-26T14:00:08Z</time>
        <extensions><gpxtpx:TrackPointExtension><gpxtpx:hr>139</gpxtpx:hr></gpxtpx:TrackPointExtension></extensions>
      </trkpt>
      <trkpt lat="59.200481" lon="17.809541">
        <ele>27.6</ele>
        <time>2020-03-26T14:00:09Z</time>
        <extensions><gpxtpx:TrackPointExtension><gpxtpx:hr>140</gpxtpx:hr></gpxtpx:TrackPointExtension></extensions>
      </trkpt>
      <trkpt lat="59.200483" lon="17.809683">
        <ele>27.6</ele>
        <time>2020-03-26T14:00:10Z</time>
        <extensions><gpxtpx:TrackPointExtension><gpxtpx:hr>141</gpxtpx:hr></gpxtpx:TrackPointExtension></extensions>
      </trkpt>
      <trkpt lat="59.200485" lon="17.809825">
        <ele>27.8</ele>
        <time>2020-03-26T14:00:11Z</time>
        <extensions><gpxtpx:TrackPointExtension><gpxtpx:hr>142</gpxtpx:hr></gpxtpx:TrackPointExtension></extensions>
      </trkpt>
      <trkpt lat="59.200486" lon="17.809966">
        <ele>27.8</ele>
        <time>2020-03-26T14:00:12Z</time>
        <extensions><gpxtpx:TrackPointExtension><gpxtpx:hr>142</gpxtpx:hr></gpxtpx:TrackPointExtension></extensions>
      </trkpt>
      <trkpt lat="59.200488" lon="17.810104">
        <ele>27.8</ele>
        <time>2020-03-26T14:00:13Z</time>
        <extensions><gpxtpx:TrackPointExtension><gpxtpx:hr>143</gpxtpx:hr></gpxtpx:TrackPointExtension></extensions>
      </trkpt>
      <trkpt lat="59.20049" lon="17.810244">
        <ele>27.8</ele>
        <time>2020-03-26T14:00:14Z</time>
        <extensions><gpxtpx:TrackPointExtension><gpxtpx:hr>143</gpxtpx:hr></gpxtpx:TrackPointExtension></extensions>
      </trkpt>
      <trkpt lat="59.200491" lon="17.810383">
        <ele>27.8</ele>
        <time>2020-03-26T14:00:15Z</time>
        <extensions><gpxtpx:TrackPointExtension><gpxtpx:hr>143</gpxtpx:hr></gpxtpx:TrackPointExtension></extensions>
      </trkpt>
      <trkpt lat="59.200493" lon="17.810516">
        <ele>27.8</ele>
        <time>2020-03-26T14:00:16Z</time>
        <extensions><gpxtpx:TrackPointExtension><gpxtpx:hr>144</gpxtpx:hr></gpxtpx:TrackPointExtension></extensions>
      </trkpt>
      <trkpt lat="59.200497" lon="17.810651">
        <ele>28</ele>
        <time>2020-03-26T14:00:17Z</time>
        <extensions><gpxtpx:TrackPointExtension><gpxtpx:hr>144</gpxtpx:hr></gpxtpx:TrackPointExtension></extensions>
      </trkpt>
      <trkpt lat="59.200507" lon="17.810787">
        <ele>28</ele>
        <time>2020-03-26T14:00:18Z</time>
        <extensions><gpxtpx:TrackPointExtension><gpxtpx:hr>144</gpxtpx:hr></gpxtpx:TrackPointExtension></extensions>
      </trkpt>
      <trkpt lat="59.200522" lon="17.810918">
        <ele>28.4</ele>
        <time>2020-03-26T14:00:19Z</time>
        <extensions><gpxtpx:TrackPointExtension><gpxtpx:hr>143</gpxtpx:hr></gpxtpx:TrackPointExtension></extensions>
      </trkpt>
      <trkpt lat="59.200538" lon="17.811051">
        <ele>28.6</ele>
        <time>2020-03-26T14:00:20Z</time>
        <extensions><gpxtpx:TrackPointExtension><gpxtpx:hr>143</gpxtpx:hr></gpxtpx:TrackPointExtension></extensions>
      </trkpt>
      <trkpt lat="59.200552" lon="17.811188">
        <ele>28.6</ele>
        <time>2020-03-26T14:00:21Z</time>
        <extensions><gpxtpx:TrackPointExtension><gpxtpx:hr>143</gpxtpx:hr></gpxtpx:TrackPointExtension></extensions>
      </trkpt>
      <trkpt lat="59.200566" lon="17.811326">
        <ele>29</ele>
        <time>2020-03-26T14:00:22Z</time>
        <extensions><gpxtpx:TrackPointExtension><gpxtpx:hr>142</gpxtpx:hr></gpxtpx:TrackPointExtension></extensions>
      </trkpt>
      <trkpt lat="59.20058" lon="17.811469">
        <ele>29.2</ele>
        <time>2020-03-26T14:00:23Z</time>
        <extensions><gpxtpx:TrackPointExtension><gpxtpx:hr>142</gpxtpx:hr></gpxtpx:TrackPointExtension></extensions>
      </trkpt>
      <trkpt lat="59.200595" lon="17.811612">
        <ele>29.4</ele>
        <time>2020-03-26T14:00:24Z</time>
        <extensions><gpxtpx:TrackPointExtension><gpxtpx:hr>142</gpxtpx:hr></gpxtpx:TrackPointExtension></extensions>
      </trkpt>
      <trkpt lat="59.200606" lon="17.81176">
        <ele>29.6</ele>
        <time>2020-03-26T14:00:25Z</time>
        <extensions><gpxtpx:TrackPointExtension><gpxtpx:hr>142</gpxtpx:hr></gpxtpx:TrackPointExtension></extensions>
      </trkpt>
      <trkpt lat="59.200613" lon="17.811903">
        <ele>29.8</ele>
        <time>2020-03-26T14:00:26Z</time>
        <extensions><gpxtpx:TrackPointExtension><gpxtpx:hr>141</gpxtpx:hr></gpxtpx:TrackPointExtension></extensions>
      </trkpt>
      <trkpt lat="59.200617" lon="17.812044">
        <ele>29.6</ele>
        <time>2020-03-26T14:00:27Z</time>
        <extensions><gpxtpx:TrackPointExtension><gpxtpx:hr>141</gpxtpx:hr></gpxtpx:TrackPointExtension></extensions>
      </trkpt>
      <trkpt lat="59.200615" lon="17.812181">
        <ele>29.8</ele>
        <time>2020-03-26T14:00:28Z</time>
        <extensions><gpxtpx:TrackPointExtension><gpxtpx:hr>141</gpxtpx:hr></gpxtpx:TrackPointExtension></extensions>
      </trkpt>
      <trkpt lat="59.20061" lon="17.812318">
        <ele>29.8</ele>
        <time>2020-03-26T14:00:29Z</time>
        <extensions><gpxtpx:TrackPointExtension><gpxtpx:hr>141</gpxtpx:hr></gpxtpx:TrackPointExtension></extensions>
      </trkpt>
      <trkpt lat="59.200602" lon="17.812454">
        <ele>30.2</ele>
        <time>2020-03-26T14:00:30Z</time>
        <extensions><gpxtpx:TrackPointExtension><gpxtpx:hr>141</gpxtpx:hr></gpxtpx:TrackPointExtension></extensions>
      </trkpt>
      <trkpt lat="59.200593" lon="17.81258">
        <ele>30.2</ele>
        <time>2020-03-26T14:00:31Z</time>
        <extensions><gpxtpx:TrackPointExtension><gpxtpx:hr>140</gpxtpx:hr></gpxtpx:TrackPointExtension></extensions>
      </trkpt>
      <trkpt lat="59.200584" lon="17.812703">
        <ele>30.2</ele>
        <time>2020-03-26T14:00:32Z</time>
        <extensions><gpxtpx:TrackPointExtension><gpxtpx:hr>140</gpxtpx:hr></gpxtpx:TrackPointExtension></extensions>
      </trkpt>
      <trkpt lat="59.200576" lon="17.81282">
        <ele>30.2</ele>
        <time>2020-03-26T14:00:33Z</time>
        <extensions><gpxtpx:TrackPointExtension><gpxtpx:hr>140</gpxtpx:hr></gpxtpx:TrackPointExtension></extensions>
      </trkpt>
      <trkpt lat="59.20057" lon="17.812933">
        <ele>30.2</ele>
        <time>2020-03-26T14:00:34Z</time>
        <extensions><gpxtpx:TrackPointExtension><gpxtpx:hr>140</gpxtpx:hr></gpxtpx:TrackPointExtension></extensions>
      </trkpt>
      <trkpt lat="59.200565" lon="17.813035">
        <ele>30.2</ele>
        <time>2020-03-26T14:00:35Z</time>
        <extensions><gpxtpx:TrackPointExtension><gpxtpx:hr>139</gpxtpx:hr></gpxtpx:TrackPointExtension></extensions>
      </trkpt>
      <trkpt lat="59.200564" lon="17.813122">
        <ele>30.4</ele>
        <time>2020-03-26T14:00:36Z</time>
        <extensions><gpxtpx:TrackPointExtension><gpxtpx:hr>139</gpxtpx:hr></gpxtpx:TrackPointExtension></extensions>
      </trkpt>
      <trkpt lat="59.200567" lon="17.813212">
        <ele>30.4</ele>
        <time>2020-03-26T14:00:37Z</time>
        <extensions><gpxtpx:TrackPointExtension><gpxtpx:hr>139</gpxtpx:hr></gpxtpx:TrackPointExtension></extensions>
      </trkpt>
      <trkpt lat="59.200564" lon="17.813313">
        <ele>30.4</ele>
        <time>2020-03-26T14:00:38Z</time>
        <extensions><gpxtpx:TrackPointExtension><gpxtpx:hr>139</gpxtpx:hr></gpxtpx:TrackPointExtension></extensions>
      </trkpt>
      <trkpt lat="59.200562" lon="17.813413">
        <ele>30.6</ele>
        <time>2020-03-26T14:00:39Z</time>
        <extensions><gpxtpx:TrackPointExtension><gpxtpx:hr>139</gpxtpx:hr></gpxtpx:TrackPointExtension></extensions>
      </trkpt>
      <trkpt lat="59.200557" lon="17.813513">
        <ele>31</ele>
        <time>2020-03-26T14:00:40Z</time>
        <extensions><gpxtpx:TrackPointExtension><gpxtpx:hr>140</gpxtpx:hr></gpxtpx:TrackPointExtension></extensions>
      </trkpt>
      <trkpt lat="59.200548" lon="17.813602">
        <ele>31.4</ele>
        <time>2020-03-26T14:00:41Z</time>
        <extensions><gpxtpx:TrackPointExtension><gpxtpx:hr>141</gpxtpx:hr></gpxtpx:TrackPointExtension></extensions>
      </trkpt>
      <trkpt lat="59.200535" lon="17.813698">
        <ele>31.8</ele>
        <time>2020-03-26T14:00:42Z</time>
        <extensions><gpxtpx:TrackPointExtension><gpxtpx:hr>141</gpxtpx:hr></gpxtpx:TrackPointExtension></extensions>
      </trkpt>
      <trkpt lat="59.200516" lon="17.813798">
        <ele>32</ele>
        <time>2020-03-26T14:00:43Z</time>
        <extensions><gpxtpx:TrackPointExtension><gpxtpx:hr>141</gpxtpx:hr></gpxtpx:TrackPointExtension></extensions>
      </trkpt>
      <trkpt lat="59.200498" lon="17.813892">
        <ele>32.2</ele>
        <time>2020-03-26T14:00:44Z</time>
        <extensions><gpxtpx:TrackPointExtension><gpxtpx:hr>141</gpxtpx:hr></gpxtpx:TrackPointExtension></extensions>
      </trkpt>
      <trkpt lat="59.200485" lon="17.813981">
        <ele>32.6</ele>
        <time>2020-03-26T14:00:45Z</time>
        <extensions><gpxtpx:TrackPointExtension><gpxtpx:hr>141</gpxtpx:hr></gpxtpx:TrackPointExtension></extensions>
      </trkpt>
      <trkpt lat="59.200468" lon="17.814075">
        <ele>32.8</ele>
        <time>2020-03-26T14:00:46Z</time>
        <extensions><gpxtpx:TrackPointExtension><gpxtpx:hr>142</gpxtpx:hr></gpxtpx:TrackPointExtension></extensions>
      </trkpt>
      <trkpt lat="59.200446" lon="17.814172">
        <ele>33</ele>
        <time>2020-03-26T14:00:47Z</time>
        <extensions><gpxtpx:TrackPointExtension><gpxtpx:hr>142</gpxtpx:hr></gpxtpx:TrackPointExtension></extensions>
      </trkpt>
      <trkpt lat="59.200421" lon="17.814265">
        <ele>33.2</ele>
        <time>2020-03-26T14:00:48Z</time>
        <extensions><gpxtpx:TrackPointExtension><gpxtpx:hr>143</gpxtpx:hr></gpxtpx:TrackPointExtension></extensions>
      </trkpt>
      <trkpt lat="59.200395" lon="17.814348">
        <ele>33.4</ele>
        <time>2020-03-26T14:00:49Z</time>
        <extensions><gpxtpx:TrackPointExtension><gpxtpx:hr>143</gpxtpx:hr></gpxtpx:TrackPointExtension></extensions>
      </trkpt>
      <trkpt lat="59.200368" lon="17.814427">
        <ele>33.6</ele>
        <time>2020-03-26T14:00:50Z</time>
        <extensions><gpxtpx:TrackPointExtension><gpxtpx:hr>144</gpxtpx:hr></gpxtpx:TrackPointExtension></extensions>
      </trkpt>
      <trkpt lat="59.200342" lon="17.814508">
        <ele>34</ele>
        <time>2020-03-26T14:00:51Z</time>
        <extensions><gpxtpx:TrackPointExtension><gpxtpx:hr>146</gpxtpx:hr></gpxtpx:TrackPointExtension></extensions>
      </trkpt>
      <trkpt lat="59.200317" lon="17.814595">
        <ele>34.4</ele>
        <time>2020-03-26T14:00:52Z</time>
        <extensions><gpxtpx:TrackPointExtension><gpxtpx:hr>146</gpxtpx:hr></gpxtpx:TrackPointExtension></extensions>
      </trkpt>
      <trkpt lat="59.20029" lon="17.814684">
        <ele>34.6</ele>
        <time>2020-03-26T14:00:53Z</time>
        <extensions><gpxtpx:TrackPointExtension><gpxtpx:hr>147</gpxtpx:hr></gpxtpx:TrackPointExtension></extensions>
      </trkpt>
      <trkpt lat="59.200261" lon="17.814778">
        <ele>35</ele>
        <time>2020-03-26T14:00:54Z</time>
        <extensions><gpxtpx:TrackPointExtension><gpxtpx:hr>147</gpxtpx:hr></gpxtpx:TrackPointExtension></extensions>
      </trkpt>
      <trkpt lat="59.200228" lon="17.814875">
        <ele>35.4</ele>
        <time>2020-03-26T14:00:55Z</time>
        <extensions><gpxtpx:TrackPointExtension><gpxtpx:hr>148</gpxtpx:hr></gpxtpx:TrackPointExtension></extensions>
      </trkpt>
      <trkpt lat="59.200198" lon="17.814972">
        <ele>35.6</ele>
        <time>2020-03-26T14:00:56Z</time>
        <extensions><gpxtpx:TrackPointExtension><gpxtpx:hr>148</gpxtpx:hr></gpxtpx:TrackPointExtension></extensions>
      </trkpt>
      <trkpt lat="59.200168" lon="17.815067">
        <ele>35.8</ele>
        <time>2020-03-26T14:00:57Z</time>
        <extensions><gpxtpx:TrackPointExtension><gpxtpx:hr>148</gpxtpx:hr></gpxtpx:TrackPointExtension></extensions>
      </trkpt>
      <trkpt lat="59.200136" lon="17.815165">
        <ele>36.2</ele>
        <time>2020-03-26T14:00:58Z</time>
        <extensions><gpxtpx:TrackPointExtension><gpxtpx:hr>149</gpxtpx:hr></gpxtpx:TrackPointExtension></extensions>
      </trkpt>
      <trkpt lat="59.200104" lon="17.815269">
        <ele>36.6</ele>
        <time>2020-03-26T14:00:59Z</time>
        <extensions><gpxtpx:TrackPointExtension><gpxtpx:hr>149</gpxtpx:hr></gpxtpx:TrackPointExtension></extensions>
      </trkpt>
      <trkpt lat="59.200075" lon="17.815385">
        <ele>37</ele>
        <time>2020-03-26T14:01:00Z</time>
        <extensions><gpxtpx:TrackPointExtension><gpxtpx:hr>149</gpxtpx:hr></gpxtpx:TrackPointExtension></extensions>
      </trkpt>
      <trkpt lat="59.20005" lon="17.815508">
        <ele>37.6</ele>
        <time>2020-03-26T14:01:01Z</time>
        <extensions><gpxtpx:TrackPointExtension><gpxtpx:hr>149</gpxtpx:hr></gpxtpx:TrackPointExtension></extensions>
      </trkpt>
      <trkpt lat="59.200033" lon="17.81563">
        <ele>37.8</ele>
        <time>2020-03-26T14:01:02Z</time>
        <extensions><gpxtpx:TrackPointExtension><gpxtpx:hr>150</gpxtpx:hr></gpxtpx:TrackPointExtension></extensions>
      </trkpt>
      <trkpt lat="59.200026" lon="17.815754">
        <ele>37.8</ele>
        <time>2020-03-26T14:01:03Z</time>
        <extensions><gpxtpx:TrackPointExtension><gpxtpx:hr>150</gpxtpx:hr></gpxtpx:TrackPointExtension></extensions>
      </trkpt>
      <trkpt lat="59.20003" lon="17.815885">
        <ele>37.8</ele>
        <time>2020-03-26T14:01:04Z</time>
        <extensions><gpxtpx:TrackPointExtension><gpxtpx:hr>150</gpxtpx:hr></gpxtpx:TrackPointExtension></extensions>
      </trkpt>
      <trkpt lat="59.200046" lon="17.816021">
        <ele>38</ele>
        <time>2020-03-26T14:01:05Z</time>
        <extensions><gpxtpx:TrackPointExtension><gpxtpx:hr>150</gpxtpx:hr></gpxtpx:TrackPointExtension></extensions>
      </trkpt>
      <trkpt lat="59.200072" lon="17.81616">
        <ele>38</ele>
        <time>2020-03-26T14:01:06Z</time>
        <extensions><gpxtpx:TrackPointExtension><gpxtpx:hr>150</gpxtpx:hr></gpxtpx:TrackPointExtension></extensions>
      </trkpt>
      <trkpt lat="59.200105" lon="17.816303">
        <ele>38</ele>
        <time>2020-03-26T14:01:07Z</time>
        <extensions><gpxtpx:TrackPointExtension><gpxtpx:hr>150</gpxtpx:hr></gpxtpx:TrackPointExtension></extensions>
      </trkpt>
      <trkpt lat="59.200143" lon="17.816453">
        <ele>38</ele>
        <time>2020-03-26T14:01:08Z</time>
        <extensions><gpxtpx:TrackPointExtension><gpxtpx:hr>150</gpxtpx:hr></gpxtpx:TrackPointExtension></extensions>
      </trkpt>
      <trkpt lat="59.200183" lon="17.816606">
        <ele>38</ele>
        <time>2020-03-26T14:01:09Z</time>
        <extensions><gpxtpx:TrackPointExtension><gpxtpx:hr>150</gpxtpx:hr></gpxtpx:TrackPointExtension></extensions>
      </trkpt>
      <trkpt lat="59.200222" lon="17.816762">
        <ele>38</ele>
        <time>2020-03-26T14:01:10Z</time>
        <extensions><gpxtpx:TrackPointExtension><gpxtpx:hr>150</gpxtpx:hr></gpxtpx:TrackPointExtension></extensions>
      </trkpt>
      <trkpt lat="59.200256" lon="17.816926">
        <ele>38</ele>
        <time>2020-03-26T14:01:11Z</time>
        <extensions><gpxtpx:TrackPointExtension><gpxtpx:hr>149</gpxtpx:hr></gpxtpx:TrackPointExtension></extensions>
      </trkpt>
      <trkpt lat="59.20028" lon="17.817097">
        <ele>37.6</ele>
        <time>2020-03-26T14:01:12Z</time>
        <extensions><gpxtpx:TrackPointExtension><gpxtpx:hr>149</gpxtpx:hr></gpxtpx:TrackPointExtension></extensions>
      </trkpt>
      <trkpt lat="59.200293" lon="17.817274">
        <ele>37.2</ele>
        <time>2020-03-26T14:01:13Z</time>
        <extensions><gpxtpx:TrackPointExtension><gpxtpx:hr>149</gpxtpx:hr></gpxtpx:TrackPointExtension></extensions>
      </trkpt>
      <trkpt lat="59.200302" lon="17.817452">
        <ele>36.6</ele>
        <time>2020-03-26T14:01:14Z</time>
        <extensions><gpxtpx:TrackPointExtension><gpxtpx:hr>148</gpxtpx:hr></gpxtpx:TrackPointExtension></extensions>
      </trkpt>
      <trkpt lat="59.200309" lon="17.817631">
        <ele>36</ele>
        <time>2020-03-26T14:01:15Z</time>
        <extensions><gpxtpx:TrackPointExtension><gpxtpx:hr>147</gpxtpx:hr></gpxtpx:TrackPointExtension></extensions>
      </trkpt>
      <trkpt lat="59.200315" lon="17.817809">
        <ele>35.2</ele>
        <time>2020-03-26T14:01:16Z</time>
        <extensions><gpxtpx:TrackPointExtension><gpxtpx:hr>146</gpxtpx:hr></gpxtpx:TrackPointExtension></extensions>
      </trkpt>
      <trkpt lat="59.200323" lon="17.817985">
        <ele>34.4</ele>
        <time>2020-03-26T14:01:17Z</time>
        <extensions><gpxtpx:TrackPointExtension><gpxtpx:hr>144</gpxtpx:hr></gpxtpx:TrackPointExtension></extensions>
      </trkpt>
      <trkpt lat="59.20033" lon="17.818159">
        <ele>33.8</ele>
        <time>2020-03-26T14:01:18Z</time>
        <extensions><gpxtpx:TrackPointExtension><gpxtpx:hr>142</gpxtpx:hr></gpxtpx:TrackPointExtension></extensions>
      </trkpt>
      <trkpt lat="59.200333" lon="17.818332">
        <ele>33.2</ele>
        <time>2020-03-26T14:01:19Z</time>
        <extensions><gpxtpx:TrackPointExtension><gpxtpx:hr>141</gpxtpx:hr></gpxtpx:TrackPointExtension></extensions>
      </trkpt>
      <trkpt lat="59.200333" lon="17.818504">
        <ele>32.6</ele>
        <time>2020-03-26T14:01:20Z</time>
        <extensions><gpxtpx:TrackPointExtension><gpxtpx:hr>139</gpxtpx:hr></gpxtpx:TrackPointExtension></extensions>
      </trkpt>
      <trkpt lat="59.200326" lon="17.81867">
        <ele>32.2</ele>
        <time>2020-03-26T14:01:21Z</time>
        <extensions><gpxtpx:TrackPointExtension><gpxtpx:hr>137</gpxtpx:hr></gpxtpx:TrackPointExtension></extensions>
      </trkpt>
      <trkpt lat="59.200303" lon="17.818822">
        <ele>31.8</ele>
        <time>2020-03-26T14:01:22Z</time>
        <extensions><gpxtpx:TrackPointExtension><gpxtpx:hr>135</gpxtpx:hr></gpxtpx:TrackPointExtension></extensions>
      </trkpt>
      <trkpt lat="59.200267" lon="17.81896">
        <ele>31.6</ele>
        <time>2020-03-26T14:01:23Z</time>
        <extensions><gpxtpx:TrackPointExtension><gpxtpx:hr>132</gpxtpx:hr></gpxtpx:TrackPointExtension></extensions>
      </trkpt>
      <trkpt lat="59.200222" lon="17.819063">
        <ele>31</ele>
        <time>2020-03-26T14:01:24Z</time>
        <extensions><gpxtpx:TrackPointExtension><gpxtpx:hr>130</gpxtpx:hr></gpxtpx:TrackPointExtension></extensions>
      </trkpt>
      <trkpt lat="59.200193" lon="17.819161">
        <ele>30.4</ele>
        <time>2020-03-26T14:01:25Z</time>
        <extensions><gpxtpx:TrackPointExtension><gpxtpx:hr>128</gpxtpx:hr></gpxtpx:TrackPointExtension></extensions>
      </trkpt>
      <trkpt lat="59.200164" lon="17.819265">
        <ele>30.2</ele>
        <time>2020-03-26T14:01:26Z</time>
        <extensions><gpxtpx:TrackPointExtension><gpxtpx:hr>127</gpxtpx:hr></gpxtpx:TrackPointExtension></extensions>
      </trkpt>
      <trkpt lat="59.200152" lon="17.819374">
        <ele>30</ele>
        <time>2020-03-26T14:01:27Z</time>
        <extensions><gpxtpx:TrackPointExtension><gpxtpx:hr>125</gpxtpx:hr></gpxtpx:TrackPointExtension></extensions>
      </trkpt>
      <trkpt lat="59.200153" lon="17.819494">
        <ele>29.8</ele>
        <time>2020-03-26T14:01:28Z</time>
        <extensions><gpxtpx:TrackPointExtension><gpxtpx:hr>124</gpxtpx:hr></gpxtpx:TrackPointExtension></extensions>
      </trkpt>
      <trkpt lat="59.20015" lon="17.819618">
        <ele>29.8</ele>
        <time>2020-03-26T14:01:29Z</time>
        <extensions><gpxtpx:TrackPointExtension><gpxtpx:hr>124</gpxtpx:hr></gpxtpx:TrackPointExtension></extensions>
      </trkpt>
      <trkpt lat="59.200147" lon="17.819753">
        <ele>29.6</ele>
        <time>2020-03-26T14:01:30Z</time>
        <extensions><gpxtpx:TrackPointExtension><gpxtpx:hr>124</gpxtpx:hr></gpxtpx:TrackPointExtension></extensions>
      </trkpt>
      <trkpt lat="59.200145" lon="17.819896">
        <ele>29.6</ele>
        <time>2020-03-26T14:01:31Z</time>
        <extensions><gpxtpx:TrackPointExtension><gpxtpx:hr>125</gpxtpx:hr></gpxtpx:TrackPointExtension></extensions>
      </trkpt>
      <trkpt lat="59.200144" lon="17.820052">
        <ele>29.6</ele>
        <time>2020-03-26T14:01:32Z</time>
        <extensions><gpxtpx:TrackPointExtension><gpxtpx:hr>127</gpxtpx:hr></gpxtpx:TrackPointExtension></extensions>
      </trkpt>
      <trkpt lat="59.200142" lon="17.820215">
        <ele>29.6</ele>
        <time>2020-03-26T14:01:33Z</time>
        <extensions><gpxtpx:TrackPointExtension><gpxtpx:hr>130</gpxtpx:hr></gpxtpx:TrackPointExtension></extensions>
      </trkpt>
      <trkpt lat="59.200138" lon="17.820382">
        <ele>29.6</ele>
        <time>2020-03-26T14:01:34Z</time>
        <extensions><gpxtpx:TrackPointExtension><gpxtpx:hr>132</gpxtpx:hr></gpxtpx:TrackPointExtension></extensions>
      </trkpt>
      <trkpt lat="59.200135" lon="17.820552">
        <ele>29.8</ele>
        <time>2020-03-26T14:01:35Z</time>
        <extensions><gpxtpx:TrackPointExtension><gpxtpx:hr>133</gpxtpx:hr></gpxtpx:TrackPointExtension></extensions>
      </trkpt>
      <trkpt lat="59.20013" lon="17.820734">
        <ele>29.6</ele>
        <time>2020-03-26T14:01:36Z</time>
        <extensions><gpxtpx:TrackPointExtension><gpxtpx:hr>135</gpxtpx:hr></gpxtpx:TrackPointExtension></extensions>
      </trkpt>
      <trkpt lat="59.200126" lon="17.820922">
        <ele>29.6</ele>
        <time>2020-03-26T14:01:37Z</time>
        <extensions><gpxtpx:TrackPointExtension><gpxtpx:hr>136</gpxtpx:hr></gpxtpx:TrackPointExtension></extensions>
      </trkpt>
      <trkpt lat="59.200127" lon="17.821114">
        <ele>29.6</ele>
        <time>2020-03-26T14:01:38Z</time>
        <extensions><gpxtpx:TrackPointExtension><gpxtpx:hr>137</gpxtpx:hr></gpxtpx:TrackPointExtension></extensions>
      </trkpt>
      <trkpt lat="59.200126" lon="17.821301">
        <ele>29.6</ele>
        <time>2020-03-26T14:01:39Z</time>
        <extensions><gpxtpx:TrackPointExtension><gpxtpx:hr>139</gpxtpx:hr></gpxtpx:TrackPointExtension></extensions>
      </trkpt>
      <trkpt lat="59.200124" lon="17.821486">
        <ele>29.6</ele>
        <time>2020-03-26T14:01:40Z</time>
        <extensions><gpxtpx:TrackPointExtension><gpxtpx:hr>140</gpxtpx:hr></gpxtpx:TrackPointExtension></extensions>
      </trkpt>
      <trkpt lat="59.200119" lon="17.821665">
        <ele>29.6</ele>
        <time>2020-03-26T14:01:41Z</time>
        <extensions><gpxtpx:TrackPointExtension><gpxtpx:hr>141</gpxtpx:hr></gpxtpx:TrackPointExtension></extensions>
      </trkpt>
      <trkpt lat="59.200117" lon="17.821843">
        <ele>29.6</ele>
        <time>2020-03-26T14:01:42Z</time>
        <extensions><gpxtpx:TrackPointExtension><gpxtpx:hr>142</gpxtpx:hr></gpxtpx:TrackPointExtension></extensions>
      </trkpt>
      <trkpt lat="59.200117" lon="17.822016">
        <ele>29.6</ele>
        <time>2020-03-26T14:01:43Z</time>
        <extensions><gpxtpx:TrackPointExtension><gpxtpx:hr>142</gpxtpx:hr></gpxtpx:TrackPointExtension></extensions>
      </trkpt>
      <trkpt lat="59.200114" lon="17.82219">
        <ele>29.6</ele>
        <time>2020-03-26T14:01:44Z</time>
        <extensions><gpxtpx:TrackPointExtension><gpxtpx:hr>142</gpxtpx:hr></gpxtpx:TrackPointExtension></extensions>
      </trkpt>
      <trkpt lat="59.200112" lon="17.822362">
        <ele>29.4</ele>
        <time>2020-03-26T14:01:45Z</time>
        <extensions><gpxtpx:TrackPointExtension><gpxtpx:hr>143</gpxtpx:hr></gpxtpx:TrackPointExtension></extensions>
      </trkpt>
      <trkpt lat="59.200112" lon="17.822533">
        <ele>29.2</ele>
        <time>2020-03-26T14:01:46Z</time>
        <extensions><gpxtpx:TrackPointExtension><gpxtpx:hr>143</gpxtpx:hr></gpxtpx:TrackPointExtension></extensions>
      </trkpt>
      <trkpt lat="59.200112" lon="17.822699">
        <ele>28.8</ele>
        <time>2020-03-26T14:01:47Z</time>
        <extensions><gpxtpx:TrackPointExtension><gpxtpx:hr>143</gpxtpx:hr></gpxtpx:TrackPointExtension></extensions>
      </trkpt>
      <trkpt lat="59.200113" lon="17.822861">
        <ele>28.4</ele>
        <time>2020-03-26T14:01:48Z</time>
        <extensions><gpxtpx:TrackPointExtension><gpxtpx:hr>143</gpxtpx:hr></gpxtpx:TrackPointExtension></extensions>
      </trkpt>
      <trkpt lat="59.200116" lon="17.823022">
        <ele>28.2</ele>
        <time>2020-03-26T14:01:49Z</time>
        <extensions><gpxtpx:TrackPointExtension><gpxtpx:hr>142</gpxtpx:hr></gpxtpx:TrackPointExtension></extensions>
      </trkpt>
      <trkpt lat="59.20012" lon="17.823181">
        <ele>28.2</ele>
        <time>2020-03-26T14:01:50Z</time>
        <extensions><gpxtpx:TrackPointExtension><gpxtpx:hr>142</gpxtpx:hr></gpxtpx:TrackPointExtension></extensions>
      </trkpt>
      <trkpt lat="59.200121" lon="17.82334">
        <ele>28</ele>
        <time>2020-03-26T14:01:51Z</time>
        <extensions><gpxtpx:TrackPointExtension><gpxtpx:hr>142</gpxtpx:hr></gpxtpx:TrackPointExtension></extensions>
      </trkpt>
      <trkpt lat="59.200122" lon="17.8235">
        <ele>28</ele>
        <time>2020-03-26T14:01:52Z</time>
        <extensions><gpxtpx:TrackPointExtension><gpxtpx:hr>141</gpxtpx:hr></gpxtpx:TrackPointExtension></extensions>
      </trkpt>
      <trkpt lat="59.200124" lon="17.823664">
        <ele>27.8</ele>
        <time>2020-03-26T14:01:53Z</time>
        <extensions><gpxtpx:TrackPointExtension><gpxtpx:hr>140</gpxtpx:hr></gpxtpx:TrackPointExtension></extensions>
      </trkpt>
      <trkpt lat="59.200126" lon="17.823827">
        <ele>27.6</ele>
        <time>2020-03-26T14:01:54Z</time>
        <extensions><gpxtpx:TrackPointExtension><gpxtpx:hr>140</gpxtpx:hr></gpxtpx:TrackPointExtension></extensions>
      </trkpt>
      <trkpt lat="59.200129" lon="17.823992">
        <ele>27.4</ele>
        <time>2020-03-26T14:01:55Z</time>
        <extensions><gpxtpx:TrackPointExtension><gpxtpx:hr>138</gpxtpx:hr></gpxtpx:TrackPointExtension></extensions>
      </trkpt>
      <trkpt lat="59.200132" lon="17.824149">
        <ele>27.2</ele>
        <time>2020-03-26T14:01:56Z</time>
        <extensions><gpxtpx:TrackPointExtension><gpxtpx:hr>138</gpxtpx:hr></gpxtpx:TrackPointExtension></extensions>
      </trkpt>
      <trkpt lat="59.200128" lon="17.8243">
        <ele>27</ele>
        <time>2020-03-26T14:01:57Z</time>
        <extensions><gpxtpx:TrackPointExtension><gpxtpx:hr>137</gpxtpx:hr></gpxtpx:TrackPointExtension></extensions>
      </trkpt>
      <trkpt lat="59.200115" lon="17.82445">
        <ele>26.8</ele>
        <time>2020-03-26T14:01:58Z</time>
        <extensions><gpxtpx:TrackPointExtension><gpxtpx:hr>136</gpxtpx:hr></gpxtpx:TrackPointExtension></extensions>
      </trkpt>
      <trkpt lat="59.200093" lon="17.824597">
        <ele>26.8</ele>
        <time>2020-03-26T14:01:59Z</time>
        <extensions><gpxtpx:TrackPointExtension><gpxtpx:hr>135</gpxtpx:hr></gpxtpx:TrackPointExtension></extensions>
      </trkpt>
      <trkpt lat="59.200073" lon="17.824744">
        <ele>26.6</ele>
        <time>2020-03-26T14:02:00Z</time>
        <extensions><gpxtpx:TrackPointExtension><gpxtpx:hr>134</gpxtpx:hr></gpxtpx:TrackPointExtension></extensions>
      </trkpt>
      <trkpt lat="59.200055" lon="17.824904">
        <ele>26.2</ele>
        <time>2020-03-26T14:02:01Z</time>
        <extensions><gpxtpx:TrackPointExtension><gpxtpx:hr>132</gpxtpx:hr></gpxtpx:TrackPointExtension></extensions>
      </trkpt>
      <trkpt lat="59.200035" lon="17.825075">
        <ele>25.8</ele>
        <time>2020-03-26T14:02:02Z</time>
        <extensions><gpxtpx:TrackPointExtension><gpxtpx:hr>131</gpxtpx:hr></gpxtpx:TrackPointExtension></extensions>
      </trkpt>
      <trkpt lat="59.200013" lon="17.825247">
        <ele>25.6</ele>
        <time>2020-03-26T14:02:03Z</time>
        <extensions><gpxtpx:TrackPointExtension><gpxtpx:hr>129</gpxtpx:hr></gpxtpx:TrackPointExtension></extensions>
      </trkpt>
      <trkpt lat="59.199992" lon="17.825418">
        <ele>25.2</ele>
        <time>2020-03-26T14:02:04Z</time>
        <extensions><gpxtpx:TrackPointExtension><gpxtpx:hr>129</gpxtpx:hr></gpxtpx:TrackPointExtension></extensions>
      </trkpt>
      <trkpt lat="59.199972" lon="17.825585">
        <ele>25</ele>
        <time>2020-03-26T14:02:05Z</time>
        <extensions><gpxtpx:TrackPointExtension><gpxtpx:hr>128</gpxtpx:hr></gpxtpx:TrackPointExtension></extensions>
      </trkpt>
      <trkpt lat="59.199951" lon="17.825748">
        <ele>24.8</ele>
        <time>2020-03-26T14:02:06Z</time>
        <extensions><gpxtpx:TrackPointExtension><gpxtpx:hr>129</gpxtpx:hr></gpxtpx:TrackPointExtension></extensions>
      </trkpt>
      <trkpt lat="59.199931" lon="17.825907">
        <ele>24.2</ele>
        <time>2020-03-26T14:02:07Z</time>
        <extensions><gpxtpx:TrackPointExtension><gpxtpx:hr>129</gpxtpx:hr></gpxtpx:TrackPointExtension></extensions>
      </trkpt>
      <trkpt lat="59.199912" lon="17.826062">
        <ele>23.8</ele>
        <time>2020-03-26T14:02:08Z</time>
        <extensions><gpxtpx:TrackPointExtension><gpxtpx:hr>129</gpxtpx:hr></gpxtpx:TrackPointExtension></extensions>
      </trkpt>
      <trkpt lat="59.199896" lon="17.826214">
        <ele>23.4</ele>
        <time>2020-03-26T14:02:09Z</time>
        <extensions><gpxtpx:TrackPointExtension><gpxtpx:hr>129</gpxtpx:hr></gpxtpx:TrackPointExtension></extensions>
      </trkpt>
      <trkpt lat="59.199879" lon="17.826371">
        <ele>22.8</ele>
        <time>2020-03-26T14:02:10Z</time>
        <extensions><gpxtpx:TrackPointExtension><gpxtpx:hr>128</gpxtpx:hr></gpxtpx:TrackPointExtension></extensions>
      </trkpt>
      <trkpt lat="59.199861" lon="17.826534">
        <ele>22.4</ele>
        <time>2020-03-26T14:02:11Z</time>
        <extensions><gpxtpx:TrackPointExtension><gpxtpx:hr>127</gpxtpx:hr></gpxtpx:TrackPointExtension></extensions>
      </trkpt>
      <trkpt lat="59.199842" lon="17.826701">
        <ele>22</ele>
        <time>2020-03-26T14:02:12Z</time>
        <extensions><gpxtpx:TrackPointExtension><gpxtpx:hr>126</gpxtpx:hr></gpxtpx:TrackPointExtension></extensions>
      </trkpt>
      <trkpt lat="59.199821" lon="17.826869">
        <ele>21.8</ele>
        <time>2020-03-26T14:02:13Z</time>
        <extensions><gpxtpx:TrackPointExtension><gpxtpx:hr>124</gpxtpx:hr></gpxtpx:TrackPointExtension></extensions>
      </trkpt>
      <trkpt lat="59.199801" lon="17.82703">
        <ele>21.8</ele>
        <time>2020-03-26T14:02:14Z</time>
        <extensions><gpxtpx:TrackPointExtension><gpxtpx:hr>124</gpxtpx:hr></gpxtpx:TrackPointExtension></extensions>
      </trkpt>
      <trkpt lat="59.19978" lon="17.827191">
        <ele>21.6</ele>
        <time>2020-03-26T14:02:15Z</time>
        <extensions><gpxtpx:TrackPointExtension><gpxtpx:hr>124</gpxtpx:hr></gpxtpx:TrackPointExtension></extensions>
      </trkpt>
      <trkpt lat="59.199758" lon="17.827346">
        <ele>21.6</ele>
        <time>2020-03-26T14:02:16Z</time>
        <extensions><gpxtpx:TrackPointExtension><gpxtpx:hr>125</gpxtpx:hr></gpxtpx:TrackPointExtension></extensions>
      </trkpt>
      <trkpt lat="59.199736" lon="17.827497">
        <ele>21.6</ele>
        <time>2020-03-26T14:02:17Z</time>
        <extensions><gpxtpx:TrackPointExtension><gpxtpx:hr>126</gpxtpx:hr></gpxtpx:TrackPointExtension></extensions>
      </trkpt>
      <trkpt lat="59.199717" lon="17.827645">
        <ele>21.6</ele>
        <time>2020-03-26T14:02:18Z</time>
        <extensions><gpxtpx:TrackPointExtension><gpxtpx:hr>128</gpxtpx:hr></gpxtpx:TrackPointExtension></extensions>
      </trkpt>
      <trkpt lat="59.199704" lon="17.827792">
        <ele>21.4</ele>
        <time>2020-03-26T14:02:19Z</time>
        <extensions><gpxtpx:TrackPointExtension><gpxtpx:hr>128</gpxtpx:hr></gpxtpx:TrackPointExtension></extensions>
      </trkpt>
      <trkpt lat="59.199688" lon="17.827937">
        <ele>21</ele>
        <time>2020-03-26T14:02:20Z</time>
        <extensions><gpxtpx:TrackPointExtension><gpxtpx:hr>128</gpxtpx:hr></gpxtpx:TrackPointExtension></extensions>
      </trkpt>
      <trkpt lat="59.199668" lon="17.828081">
        <ele>20.8</ele>
        <time>2020-03-26T14:02:21Z</time>
        <extensions><gpxtpx:TrackPointExtension><gpxtpx:hr>128</gpxtpx:hr></gpxtpx:TrackPointExtension></extensions>
      </trkpt>
      <trkpt lat="59.199646" lon="17.828227">
        <ele>20.6</ele>
        <time>2020-03-26T14:02:22Z</time>
        <extensions><gpxtpx:TrackPointExtension><gpxtpx:hr>127</gpxtpx:hr></gpxtpx:TrackPointExtension></extensions>
      </trkpt>
      <trkpt lat="59.199627" lon="17.828379">
        <ele>20.6</ele>
        <time>2020-03-26T14:02:23Z</time>
        <extensions><gpxtpx:TrackPointExtension><gpxtpx:hr>127</gpxtpx:hr></gpxtpx:TrackPointExtension></extensions>
      </trkpt>
      <trkpt lat="59.199613" lon="17.828534">
        <ele>20.4</ele>
        <time>2020-03-26T14:02:24Z</time>
        <extensions><gpxtpx:TrackPointExtension><gpxtpx:hr>126</gpxtpx:hr></gpxtpx:TrackPointExtension></extensions>
      </trkpt>
      <trkpt lat="59.199598" lon="17.828685">
        <ele>20.4</ele>
        <time>2020-03-26T14:02:25Z</time>
        <extensions><gpxtpx:TrackPointExtension><gpxtpx:hr>126</gpxtpx:hr></gpxtpx:TrackPointExtension></extensions>
      </trkpt>
      <trkpt lat="59.199583" lon="17.828834">
        <ele>20.2</ele>
        <time>2020-03-26T14:02:26Z</time>
        <extensions><gpxtpx:TrackPointExtension><gpxtpx:hr>127</gpxtpx:hr></gpxtpx:TrackPointExtension></extensions>
      </trkpt>
      <trkpt lat="59.199568" lon="17.828987">
        <ele>20.2</ele>
        <time>2020-03-26T14:02:27Z</time>
        <extensions><gpxtpx:TrackPointExtension><gpxtpx:hr>127</gpxtpx:hr></gpxtpx:TrackPointExtension></extensions>
      </trkpt>
      <trkpt lat="59.199553" lon="17.829141">
        <ele>20</ele>
        <time>2020-03-26T14:02:28Z</time>
        <extensions><gpxtpx:TrackPointExtension><gpxtpx:hr>128</gpxtpx:hr></gpxtpx:TrackPointExtension></extensions>
      </trkpt>
      <trkpt lat="59.199537" lon="17.829298">
        <ele>20</ele>
        <time>2020-03-26T14:02:29Z</time>
        <extensions><gpxtpx:TrackPointExtension><gpxtpx:hr>130</gpxtpx:hr></gpxtpx:TrackPointExtension></extensions>
      </trkpt>
      <trkpt lat="59.199521" lon="17.829457">
        <ele>20</ele>
        <time>2020-03-26T14:02:30Z</time>
        <extensions><gpxtpx:TrackPointExtension><gpxtpx:hr>131</gpxtpx:hr></gpxtpx:TrackPointExtension></extensions>
      </trkpt>
      <trkpt lat="59.199505" lon="17.829617">
        <ele>20</ele>
        <time>2020-03-26T14:02:31Z</time>
        <extensions><gpxtpx:TrackPointExtension><gpxtpx:hr>132</gpxtpx:hr></gpxtpx:TrackPointExtension></extensions>
      </trkpt>
      <trkpt lat="59.19949" lon="17.829778">
        <ele>20</ele>
        <time>2020-03-26T14:02:32Z</time>
        <extensions><gpxtpx:TrackPointExtension><gpxtpx:hr>133</gpxtpx:hr></gpxtpx:TrackPointExtension></extensions>
      </trkpt>
      <trkpt lat="59.199477" lon="17.829935">
        <ele>19.8</ele>
        <time>2020-03-26T14:02:33Z</time>
        <extensions><gpxtpx:TrackPointExtension><gpxtpx:hr>134</gpxtpx:hr></gpxtpx:TrackPointExtension></extensions>
      </trkpt>
      <trkpt lat="59.199465" lon="17.830092">
        <ele>19.8</ele>
        <time>2020-03-26T14:02:34Z</time>
        <extensions><gpxtpx:TrackPointExtension><gpxtpx:hr>135</gpxtpx:hr></gpxtpx:TrackPointExtension></extensions>
      </trkpt>
      <trkpt lat="59.199453" lon="17.830249">
        <ele>19.8</ele>
        <time>2020-03-26T14:02:35Z</time>
        <extensions><gpxtpx:TrackPointExtension><gpxtpx:hr>137</gpxtpx:hr></gpxtpx:TrackPointExtension></extensions>
      </trkpt>
      <trkpt lat="59.199437" lon="17.830404">
        <ele>19.8</ele>
        <time>2020-03-26T14:02:36Z</time>
        <extensions><gpxtpx:TrackPointExtension><gpxtpx:hr>138</gpxtpx:hr></gpxtpx:TrackPointExtension></extensions>
      </trkpt>
      <trkpt lat="59.19942" lon="17.830555">
        <ele>19.8</ele>
        <time>2020-03-26T14:02:37Z</time>
        <extensions><gpxtpx:TrackPointExtension><gpxtpx:hr>139</gpxtpx:hr></gpxtpx:TrackPointExtension></extensions>
      </trkpt>
      <trkpt lat="59.199405" lon="17.830703">
        <ele>19.8</ele>
        <time>2020-03-26T14:02:38Z</time>
        <extensions><gpxtpx:TrackPointExtension><gpxtpx:hr>139</gpxtpx:hr></gpxtpx:TrackPointExtension></extensions>
      </trkpt>
      <trkpt lat="59.19939" lon="17.830849">
        <ele>19.8</ele>
        <time>2020-03-26T14:02:39Z</time>
        <extensions><gpxtpx:TrackPointExtension><gpxtpx:hr>141</gpxtpx:hr></gpxtpx:TrackPointExtension></extensions>
      </trkpt>
      <trkpt lat="59.199379" lon="17.83099">
        <ele>19.8</ele>
        <time>2020-03-26T14:02:40Z</time>
        <extensions><gpxtpx:TrackPointExtension><gpxtpx:hr>142</gpxtpx:hr></gpxtpx:TrackPointExtension></extensions>
      </trkpt>
      <trkpt lat="59.199371" lon="17.831124">
        <ele>20</ele>
        <time>2020-03-26T14:02:41Z</time>
        <extensions><gpxtpx:TrackPointExtension><gpxtpx:hr>143</gpxtpx:hr></gpxtpx:TrackPointExtension></extensions>
      </trkpt>
      <trkpt lat="59.199367" lon="17.831252">
        <ele>20</ele>
        <time>2020-03-26T14:02:42Z</time>
        <extensions><gpxtpx:TrackPointExtension><gpxtpx:hr>144</gpxtpx:hr></gpxtpx:TrackPointExtension></extensions>
      </trkpt>
      <trkpt lat="59.199365" lon="17.831378">
        <ele>20.2</ele>
        <time>2020-03-26T14:02:43Z</time>
        <extensions><gpxtpx:TrackPointExtension><gpxtpx:hr>145</gpxtpx:hr></gpxtpx:TrackPointExtension></extensions>
      </trkpt>
      <trkpt lat="59.199363" lon="17.831507">
        <ele>20.4</ele>
        <time>2020-03-26T14:02:44Z</time>
        <extensions><gpxtpx:TrackPointExtension><gpxtpx:hr>146</gpxtpx:hr></gpxtpx:TrackPointExtension></extensions>
      </trkpt>
      <trkpt lat="59.199361" lon="17.831641">
        <ele>20.4</ele>
        <time>2020-03-26T14:02:45Z</time>
        <extensions><gpxtpx:TrackPointExtension><gpxtpx:hr>147</gpxtpx:hr></gpxtpx:TrackPointExtension></extensions>
      </trkpt>
      <trkpt lat="59.19936" lon="17.83178">
        <ele>20.6</ele>
        <time>2020-03-26T14:02:46Z</time>
        <extensions><gpxtpx:TrackPointExtension><gpxtpx:hr>147</gpxtpx:hr></gpxtpx:TrackPointExtension></extensions>
      </trkpt>
      <trkpt lat="59.19936" lon="17.831927">
        <ele>20.8</ele>
        <time>2020-03-26T14:02:47Z</time>
        <extensions><gpxtpx:TrackPointExtension><gpxtpx:hr>148</gpxtpx:hr></gpxtpx:TrackPointExtension></extensions>
      </trkpt>
      <trkpt lat="59.199361" lon="17.832077">
        <ele>20.8</ele>
        <time>2020-03-26T14:02:48Z</time>
        <extensions><gpxtpx:TrackPointExtension><gpxtpx:hr>148</gpxtpx:hr></gpxtpx:TrackPointExtension></extensions>
      </trkpt>
      <trkpt lat="59.199363" lon="17.832229">
        <ele>20.8</ele>
        <time>2020-03-26T14:02:49Z</time>
        <extensions><gpxtpx:TrackPointExtension><gpxtpx:hr>149</gpxtpx:hr></gpxtpx:TrackPointExtension></extensions>
      </trkpt>
      <trkpt lat="59.199364" lon="17.832382">
        <ele>20.8</ele>
        <time>2020-03-26T14:02:50Z</time>
        <extensions><gpxtpx:TrackPointExtension><gpxtpx:hr>149</gpxtpx:hr></gpxtpx:TrackPointExtension></extensions>
      </trkpt>
      <trkpt lat="59.199366" lon="17.83254">
        <ele>20.8</ele>
        <time>2020-03-26T14:02:51Z</time>
        <extensions><gpxtpx:TrackPointExtension><gpxtpx:hr>149</gpxtpx:hr></gpxtpx:TrackPointExtension></extensions>
      </trkpt>
      <trkpt lat="59.199367" lon="17.832702">
        <ele>20.8</ele>
        <time>2020-03-26T14:02:52Z</time>
        <extensions><gpxtpx:TrackPointExtension><gpxtpx:hr>150</gpxtpx:hr></gpxtpx:TrackPointExtension></extensions>
      </trkpt>
      <trkpt lat="59.199368" lon="17.832864">
        <ele>20.8</ele>
        <time>2020-03-26T14:02:53Z</time>
        <extensions><gpxtpx:TrackPointExtension><gpxtpx:hr>150</gpxtpx:hr></gpxtpx:TrackPointExtension></extensions>
      </trkpt>
      <trkpt lat="59.199367" lon="17.833028">
        <ele>20.8</ele>
        <time>2020-03-26T14:02:54Z</time>
        <extensions><gpxtpx:TrackPointExtension><gpxtpx:hr>150</gpxtpx:hr></gpxtpx:TrackPointExtension></extensions>
      </trkpt>
      <trkpt lat="59.199367" lon="17.833191">
        <ele>20.8</ele>
        <time>2020-03-26T14:02:55Z</time>
        <extensions><gpxtpx:TrackPointExtension><gpxtpx:hr>149</gpxtpx:hr></gpxtpx:TrackPointExtension></extensions>
      </trkpt>
      <trkpt lat="59.199367" lon="17.833355">
        <ele>20.8</ele>
        <time>2020-03-26T14:02:56Z</time>
        <extensions><gpxtpx:TrackPointExtension><gpxtpx:hr>148</gpxtpx:hr></gpxtpx:TrackPointExtension></extensions>
      </trkpt>
      <trkpt lat="59.199368" lon="17.833519">
        <ele>20.8</ele>
        <time>2020-03-26T14:02:57Z</time>
        <extensions><gpxtpx:TrackPointExtension><gpxtpx:hr>148</gpxtpx:hr></gpxtpx:TrackPointExtension></extensions>
      </trkpt>
      <trkpt lat="59.199369" lon="17.833682">
        <ele>20.8</ele>
        <time>2020-03-26T14:02:58Z</time>
        <extensions><gpxtpx:TrackPointExtension><gpxtpx:hr>148</gpxtpx:hr></gpxtpx:TrackPointExtension></extensions>
      </trkpt>
      <trkpt lat="59.19937" lon="17.833845">
        <ele>20.6</ele>
        <time>2020-03-26T14:02:59Z</time>
        <extensions><gpxtpx:TrackPointExtension><gpxtpx:hr>149</gpxtpx:hr></gpxtpx:TrackPointExtension></extensions>
      </trkpt>
      <trkpt lat="59.199368" lon="17.834007">
        <ele>20.4</ele>
        <time>2020-03-26T14:03:00Z</time>
        <extensions><gpxtpx:TrackPointExtension><gpxtpx:hr>148</gpxtpx:hr></gpxtpx:TrackPointExtension></extensions>
      </trkpt>
      <trkpt lat="59.199364" lon="17.834168">
        <ele>20</ele>
        <time>2020-03-26T14:03:01Z</time>
        <extensions><gpxtpx:TrackPointExtension><gpxtpx:hr>147</gpxtpx:hr></gpxtpx:TrackPointExtension></extensions>
      </trkpt>
      <trkpt lat="59.199362" lon="17.834328">
        <ele>19.6</ele>
        <time>2020-03-26T14:03:02Z</time>
        <extensions><gpxtpx:TrackPointExtension><gpxtpx:hr>146</gpxtpx:hr></gpxtpx:TrackPointExtension></extensions>
      </trkpt>
      <trkpt lat="59.199361" lon="17.834486">
        <ele>19.4</ele>
        <time>2020-03-26T14:03:03Z</time>
        <extensions><gpxtpx:TrackPointExtension><gpxtpx:hr>145</gpxtpx:hr></gpxtpx:TrackPointExtension></extensions>
      </trkpt>
      <trkpt lat="59.199361" lon="17.834641">
        <ele>19</ele>
        <time>2020-03-26T14:03:04Z</time>
        <extensions><gpxtpx:TrackPointExtension><gpxtpx:hr>143</gpxtpx:hr></gpxtpx:TrackPointExtension></extensions>
      </trkpt>
      <trkpt lat="59.19936" lon="17.834791">
        <ele>18.8</ele>
        <time>2020-03-26T14:03:05Z</time>
        <extensions><gpxtpx:TrackPointExtension><gpxtpx:hr>142</gpxtpx:hr></gpxtpx:TrackPointExtension></extensions>
      </trkpt>
      <trkpt lat="59.199358" lon="17.834935">
        <ele>18.8</ele>
        <time>2020-03-26T14:03:06Z</time>
        <extensions><gpxtpx:TrackPointExtension><gpxtpx:hr>141</gpxtpx:hr></gpxtpx:TrackPointExtension></extensions>
      </trkpt>
      <trkpt lat="59.199351" lon="17.835074">
        <ele>18.6</ele>
        <time>2020-03-26T14:03:07Z</time>
        <extensions><gpxtpx:TrackPointExtension><gpxtpx:hr>139</gpxtpx:hr></gpxtpx:TrackPointExtension></extensions>
      </trkpt>
      <trkpt lat="59.199342" lon="17.8352">
        <ele>18.6</ele>
        <time>2020-03-26T14:03:08Z</time>
        <extensions><gpxtpx:TrackPointExtension><gpxtpx:hr>138</gpxtpx:hr></gpxtpx:TrackPointExtension></extensions>
      </trkpt>
      <trkpt lat="59.199335" lon="17.835318">
        <ele>18.6</ele>
        <time>2020-03-26T14:03:09Z</time>
        <extensions><gpxtpx:TrackPointExtension><gpxtpx:hr>136</gpxtpx:hr></gpxtpx:TrackPointExtension></extensions>
      </trkpt>
      <trkpt lat="59.199331" lon="17.835437">
        <ele>18.4</ele>
        <time>2020-03-26T14:03:10Z</time>
        <extensions><gpxtpx:TrackPointExtension><gpxtpx:hr>133</gpxtpx:hr></gpxtpx:TrackPointExtension></extensions>
      </trkpt>
      <trkpt lat="59.199329" lon="17.835558">
        <ele>18.2</ele>
        <time>2020-03-26T14:03:11Z</time>
        <extensions><gpxtpx:TrackPointExtension><gpxtpx:hr>131</gpxtpx:hr></gpxtpx:TrackPointExtension></extensions>
      </trkpt>
      <trkpt lat="59.199328" lon="17.835684">
        <ele>18.2</ele>
        <time>2020-03-26T14:03:12Z</time>
        <extensions><gpxtpx:TrackPointExtension><gpxtpx:hr>128</gpxtpx:hr></gpxtpx:TrackPointExtension></extensions>
      </trkpt>
      <trkpt lat="59.199328" lon="17.835811">
        <ele>18.2</ele>
        <time>2020-03-26T14:03:13Z</time>
        <extensions><gpxtpx:TrackPointExtension><gpxtpx:hr>124</gpxtpx:hr></gpxtpx:TrackPointExtension></extensions>
      </trkpt>
      <trkpt lat="59.199331" lon="17.835934">
        <ele>18.2</ele>
        <time>2020-03-26T14:03:14Z</time>
        <extensions><gpxtpx:TrackPointExtension><gpxtpx:hr>123</gpxtpx:hr></gpxtpx:TrackPointExtension></extensions>
      </trkpt>
      <trkpt lat="59.199331" lon="17.836056">
        <ele>18.2</ele>
        <time>2020-03-26T14:03:15Z</time>
        <extensions><gpxtpx:TrackPointExtension><gpxtpx:hr>122</gpxtpx:hr></gpxtpx:TrackPointExtension></extensions>
      </trkpt>
      <trkpt lat="59.199331" lon="17.836176">
        <ele>18.2</ele>
        <time>2020-03-26T14:03:16Z</time>
        <extensions><gpxtpx:TrackPointExtension><gpxtpx:hr>122</gpxtpx:hr></gpxtpx:TrackPointExtension></extensions>
      </trkpt>
      <trkpt lat="59.19933" lon="17.83628">
        <ele>18.2</ele>
        <time>2020-03-26T14:03:17Z</time>
        <extensions><gpxtpx:TrackPointExtension><gpxtpx:hr>123</gpxtpx:hr></gpxtpx:TrackPointExtension></extensions>
      </trkpt>
      <trkpt lat="59.199328" lon="17.836384">
        <ele>18</ele>
        <time>2020-03-26T14:03:18Z</time>
        <extensions><gpxtpx:TrackPointExtension><gpxtpx:hr>123</gpxtpx:hr></gpxtpx:TrackPointExtension></extensions>
      </trkpt>
      <trkpt lat="59.199325" lon="17.836592">
        <ele>18</ele>
        <time>2020-03-26T14:03:19Z</time>
        <extensions><gpxtpx:TrackPointExtension><gpxtpx:hr>122</gpxtpx:hr></gpxtpx:TrackPointExtension></extensions>
      </trkpt>
      <trkpt lat="59.199322" lon="17.836749">
        <ele>18</ele>
        <time>2020-03-26T14:03:20Z</time>
        <extensions><gpxtpx:TrackPointExtension><gpxtpx:hr>122</gpxtpx:hr></gpxtpx:TrackPointExtension></extensions>
      </trkpt>
      <trkpt lat="59.19932" lon="17.836909">
        <ele>18</ele>
        <time>2020-03-26T14:03:21Z</time>
        <extensions><gpxtpx:TrackPointExtension><gpxtpx:hr>122</gpxtpx:hr></gpxtpx:TrackPointExtension></extensions>
      </trkpt>
      <trkpt lat="59.19932" lon="17.837069">
        <ele>18</ele>
        <time>2020-03-26T14:03:22Z</time>
        <extensions><gpxtpx:TrackPointExtension><gpxtpx:hr>123</gpxtpx:hr></gpxtpx:TrackPointExtension></extensions>
      </trkpt>
      <trkpt lat="59.199319" lon="17.837224">
        <ele>18</ele>
        <time>2020-03-26T14:03:23Z</time>
        <extensions><gpxtpx:TrackPointExtension><gpxtpx:hr>124</gpxtpx:hr></gpxtpx:TrackPointExtension></extensions>
      </trkpt>
      <trkpt lat="59.199316" lon="17.837371">
        <ele>18</ele>
        <time>2020-03-26T14:03:24Z</time>
        <extensions><gpxtpx:TrackPointExtension><gpxtpx:hr>125</gpxtpx:hr></gpxtpx:TrackPointExtension></extensions>
      </trkpt>
      <trkpt lat="59.199313" lon="17.837519">
        <ele>18</ele>
        <time>2020-03-26T14:03:25Z</time>
        <extensions><gpxtpx:TrackPointExtension><gpxtpx:hr>126</gpxtpx:hr></gpxtpx:TrackPointExtension></extensions>
      </trkpt>
      <trkpt lat="59.199311" lon="17.837661">
        <ele>18</ele>
        <time>2020-03-26T14:03:26Z</time>
        <extensions><gpxtpx:TrackPointExtension><gpxtpx:hr>127</gpxtpx:hr></gpxtpx:TrackPointExtension></extensions>
      </trkpt>
      <trkpt lat="59.19931" lon="17.8378">
        <ele>17.6</ele>
        <time>2020-03-26T14:03:27Z</time>
        <extensions><gpxtpx:TrackPointExtension><gpxtpx:hr>127</gpxtpx:hr></gpxtpx:TrackPointExtension></extensions>
      </trkpt>
      <trkpt lat="59.199308" lon="17.837936">
        <ele>17.6</ele>
        <time>2020-03-26T14:03:28Z</time>
        <extensions><gpxtpx:TrackPointExtension><gpxtpx:hr>127</gpxtpx:hr></gpxtpx:TrackPointExtension></extensions>
      </trkpt>
      <trkpt lat="59.199303" lon="17.838073">
        <ele>17.6</ele>
        <time>2020-03-26T14:03:29Z</time>
        <extensions><gpxtpx:TrackPointExtension><gpxtpx:hr>126</gpxtpx:hr></gpxtpx:TrackPointExtension></extensions>
      </trkpt>
      <trkpt lat="59.199293" lon="17.838208">
        <ele>17.4</ele>
        <time>2020-03-26T14:03:30Z</time>
        <extensions><gpxtpx:TrackPointExtension><gpxtpx:hr>125</gpxtpx:hr></gpxtpx:TrackPointExtension></extensions>
      </trkpt>
      <trkpt lat="59.199273" lon="17.838338">
        <ele>17.4</ele>
        <time>2020-03-26T14:03:31Z</time>
        <extensions><gpxtpx:TrackPointExtension><gpxtpx:hr>124</gpxtpx:hr></gpxtpx:TrackPointExtension></extensions>
      </trkpt>
      <trkpt lat="59.199226" lon="17.838428">
        <ele>17.4</ele>
        <time>2020-03-26T14:03:32Z</time>
        <extensions><gpxtpx:TrackPointExtension><gpxtpx:hr>123</gpxtpx:hr></gpxtpx:TrackPointExtension></extensions>
      </trkpt>
      <trkpt lat="59.19917" lon="17.838429">
        <ele>17.2</ele>
        <time>2020-03-26T14:03:33Z</time>
        <extensions><gpxtpx:TrackPointExtension><gpxtpx:hr>123</gpxtpx:hr></gpxtpx:TrackPointExtension></extensions>
      </trkpt>
      <trkpt lat="59.199115" lon="17.838429">
        <ele>17.2</ele>
        <time>2020-03-26T14:03:34Z</time>
        <extensions><gpxtpx:TrackPointExtension><gpxtpx:hr>123</gpxtpx:hr></gpxtpx:TrackPointExtension></extensions>
      </trkpt>
      <trkpt lat="59.199075" lon="17.838355">
        <ele>17</ele>
        <time>2020-03-26T14:03:35Z</time>
        <extensions><gpxtpx:TrackPointExtension><gpxtpx:hr>123</gpxtpx:hr></gpxtpx:TrackPointExtension></extensions>
      </trkpt>
      <trkpt lat="59.199045" lon="17.838263">
        <ele>17</ele>
        <time>2020-03-26T14:03:36Z</time>
        <extensions><gpxtpx:TrackPointExtension><gpxtpx:hr>123</gpxtpx:hr></gpxtpx:TrackPointExtension></extensions>
      </trkpt>
      <trkpt lat="59.199017" lon="17.838173">
        <ele>17.2</ele>
        <time>2020-03-26T14:03:37Z</time>
        <extensions><gpxtpx:TrackPointExtension><gpxtpx:hr>123</gpxtpx:hr></gpxtpx:TrackPointExtension></extensions>
      </trkpt>
      <trkpt lat="59.198994" lon="17.838083">
        <ele>17.2</ele>
        <time>2020-03-26T14:03:38Z</time>
        <extensions><gpxtpx:TrackPointExtension><gpxtpx:hr>123</gpxtpx:hr></gpxtpx:TrackPointExtension></extensions>
      </trkpt>
      <trkpt lat="59.198964" lon="17.837995">
        <ele>17.2</ele>
        <time>2020-03-26T14:03:39Z</time>
        <extensions><gpxtpx:TrackPointExtension><gpxtpx:hr>123</gpxtpx:hr></gpxtpx:TrackPointExtension></extensions>
      </trkpt>
      <trkpt lat="59.198938" lon="17.837915">
        <ele>17.4</ele>
        <time>2020-03-26T14:03:40Z</time>
        <extensions><gpxtpx:TrackPointExtension><gpxtpx:hr>122</gpxtpx:hr></gpxtpx:TrackPointExtension></extensions>
      </trkpt>
      <trkpt lat="59.198916" lon="17.837839">
        <ele>17.4</ele>
        <time>2020-03-26T14:03:41Z</time>
        <extensions><gpxtpx:TrackPointExtension><gpxtpx:hr>121</gpxtpx:hr></gpxtpx:TrackPointExtension></extensions>
      </trkpt>
      <trkpt lat="59.198902" lon="17.837759">
        <ele>17.4</ele>
        <time>2020-03-26T14:03:42Z</time>
        <extensions><gpxtpx:TrackPointExtension><gpxtpx:hr>121</gpxtpx:hr></gpxtpx:TrackPointExtension></extensions>
      </trkpt>
      <trkpt lat="59.198892" lon="17.837682">
        <ele>17.4</ele>
        <time>2020-03-26T14:03:43Z</time>
        <extensions><gpxtpx:TrackPointExtension><gpxtpx:hr>120</gpxtpx:hr></gpxtpx:TrackPointExtension></extensions>
      </trkpt>
      <trkpt lat="59.198878" lon="17.837617">
        <ele>17.4</ele>
        <time>2020-03-26T14:03:44Z</time>
        <extensions><gpxtpx:TrackPointExtension><gpxtpx:hr>121</gpxtpx:hr></gpxtpx:TrackPointExtension></extensions>
      </trkpt>
      <trkpt lat="59.198865" lon="17.837571">
        <ele>17.4</ele>
        <time>2020-03-26T14:03:45Z</time>
        <extensions><gpxtpx:TrackPointExtension><gpxtpx:hr>121</gpxtpx:hr></gpxtpx:TrackPointExtension></extensions>
      </trkpt>
      <trkpt lat="59.198853" lon="17.837534">
        <ele>17.4</ele>
        <time>2020-03-26T14:03:46Z</time>
        <extensions><gpxtpx:TrackPointExtension><gpxtpx:hr>121</gpxtpx:hr></gpxtpx:TrackPointExtension></extensions>
      </trkpt>
      <trkpt lat="59.198836" lon="17.837512">
        <ele>17.6</ele>
        <time>2020-03-26T14:03:47Z</time>
        <extensions><gpxtpx:TrackPointExtension><gpxtpx:hr>121</gpxtpx:hr></gpxtpx:TrackPointExtension></extensions>
      </trkpt>
      <trkpt lat="59.198811" lon="17.837515">
        <ele>17.8</ele>
        <time>2020-03-26T14:03:48Z</time>
        <extensions><gpxtpx:TrackPointExtension><gpxtpx:hr>121</gpxtpx:hr></gpxtpx:TrackPointExtension></extensions>
      </trkpt>
      <trkpt lat="59.198779" lon="17.837542">
        <ele>18.2</ele>
        <time>2020-03-26T14:03:49Z</time>
        <extensions><gpxtpx:TrackPointExtension><gpxtpx:hr>121</gpxtpx:hr></gpxtpx:TrackPointExtension></extensions>
      </trkpt>
      <trkpt lat="59.198741" lon="17.837586">
        <ele>18.6</ele>
        <time>2020-03-26T14:03:50Z</time>
        <extensions><gpxtpx:TrackPointExtension><gpxtpx:hr>122</gpxtpx:hr></gpxtpx:TrackPointExtension></extensions>
      </trkpt>
      <trkpt lat="59.198699" lon="17.837636">
        <ele>18.8</ele>
        <time>2020-03-26T14:03:51Z</time>
        <extensions><gpxtpx:TrackPointExtension><gpxtpx:hr>122</gpxtpx:hr></gpxtpx:TrackPointExtension></extensions>
      </trkpt>
      <trkpt lat="59.198655" lon="17.837674">
        <ele>18.8</ele>
        <time>2020-03-26T14:03:52Z</time>
        <extensions><gpxtpx:TrackPointExtension><gpxtpx:hr>122</gpxtpx:hr></gpxtpx:TrackPointExtension></extensions>
      </trkpt>
      <trkpt lat="59.198604" lon="17.837702">
        <ele>19</ele>
        <time>2020-03-26T14:03:53Z</time>
        <extensions><gpxtpx:TrackPointExtension><gpxtpx:hr>123</gpxtpx:hr></gpxtpx:TrackPointExtension></extensions>
      </trkpt>
      <trkpt lat="59.198549" lon="17.83772">
        <ele>19</ele>
        <time>2020-03-26T14:03:54Z</time>
        <extensions><gpxtpx:TrackPointExtension><gpxtpx:hr>123</gpxtpx:hr></gpxtpx:TrackPointExtension></extensions>
      </trkpt>
      <trkpt lat="59.198491" lon="17.837738">
        <ele>19</ele>
        <time>2020-03-26T14:03:55Z</time>
        <extensions><gpxtpx:TrackPointExtension><gpxtpx:hr>122</gpxtpx:hr></gpxtpx:TrackPointExtension></extensions>
      </trkpt>
      <trkpt lat="59.198434" lon="17.837765">
        <ele>19</ele>
        <time>2020-03-26T14:03:56Z</time>
        <extensions><gpxtpx:TrackPointExtension><gpxtpx:hr>123</gpxtpx:hr></gpxtpx:TrackPointExtension></extensions>
      </trkpt>
      <trkpt lat="59.198375" lon="17.837802">
        <ele>19</ele>
        <time>2020-03-26T14:03:57Z</time>
        <extensions><gpxtpx:TrackPointExtension><gpxtpx:hr>123</gpxtpx:hr></gpxtpx:TrackPointExtension></extensions>
      </trkpt>
      <trkpt lat="59.198315" lon="17.837852">
        <ele>19</ele>
        <time>2020-03-26T14:03:58Z</time>
        <extensions><gpxtpx:TrackPointExtension><gpxtpx:hr>123</gpxtpx:hr></gpxtpx:TrackPointExtension></extensions>
      </trkpt>
      <trkpt lat="59.198262" lon="17.837932">
        <ele>19</ele>
        <time>2020-03-26T14:03:59Z</time>
        <extensions><gpxtpx:TrackPointExtension><gpxtpx:hr>123</gpxtpx:hr></gpxtpx:TrackPointExtension></extensions>
      </trkpt>
      <trkpt lat="59.198221" lon="17.83802">
        <ele>19</ele>
        <time>2020-03-26T14:04:00Z</time>
        <extensions><gpxtpx:TrackPointExtension><gpxtpx:hr>122</gpxtpx:hr></gpxtpx:TrackPointExtension></extensions>
      </trkpt>
      <trkpt lat="59.198201" lon="17.838126">
        <ele>18.8</ele>
        <time>2020-03-26T14:04:01Z</time>
        <extensions><gpxtpx:TrackPointExtension><gpxtpx:hr>120</gpxtpx:hr></gpxtpx:TrackPointExtension></extensions>
      </trkpt>
      <trkpt lat="59.198209" lon="17.838228">
        <ele>18.4</ele>
        <time>2020-03-26T14:04:02Z</time>
        <extensions><gpxtpx:TrackPointExtension><gpxtpx:hr>119</gpxtpx:hr></gpxtpx:TrackPointExtension></extensions>
      </trkpt>
      <trkpt lat="59.198229" lon="17.838326">
        <ele>17.8</ele>
        <time>2020-03-26T14:04:03Z</time>
        <extensions><gpxtpx:TrackPointExtension><gpxtpx:hr>118</gpxtpx:hr></gpxtpx:TrackPointExtension></extensions>
      </trkpt>
      <trkpt lat="59.198263" lon="17.838427">
        <ele>17.2</ele>
        <time>2020-03-26T14:04:04Z</time>
        <extensions><gpxtpx:TrackPointExtension><gpxtpx:hr>118</gpxtpx:hr></gpxtpx:TrackPointExtension></extensions>
      </trkpt>
      <trkpt lat="59.198297" lon="17.838533">
        <ele>17</ele>
        <time>2020-03-26T14:04:05Z</time>
        <extensions><gpxtpx:TrackPointExtension><gpxtpx:hr>119</gpxtpx:hr></gpxtpx:TrackPointExtension></extensions>
      </trkpt>
      <trkpt lat="59.198322" lon="17.838642">
        <ele>17</ele>
        <time>2020-03-26T14:04:06Z</time>
        <extensions><gpxtpx:TrackPointExtension><gpxtpx:hr>120</gpxtpx:hr></gpxtpx:TrackPointExtension></extensions>
      </trkpt>
      <trkpt lat="59.198346" lon="17.838763">
        <ele>16.8</ele>
        <time>2020-03-26T14:04:07Z</time>
        <extensions><gpxtpx:TrackPointExtension><gpxtpx:hr>122</gpxtpx:hr></gpxtpx:TrackPointExtension></extensions>
      </trkpt>
      <trkpt lat="59.198383" lon="17.838881">
        <ele>16.8</ele>
        <time>2020-03-26T14:04:08Z</time>
        <extensions><gpxtpx:TrackPointExtension><gpxtpx:hr>124</gpxtpx:hr></gpxtpx:TrackPointExtension></extensions>
      </trkpt>
      <trkpt lat="59.198421" lon="17.838999">
        <ele>16.6</ele>
        <time>2020-03-26T14:04:09Z</time>
        <extensions><gpxtpx:TrackPointExtension><gpxtpx:hr>126</gpxtpx:hr></gpxtpx:TrackPointExtension></extensions>
      </trkpt>
      <trkpt lat="59.198462" lon="17.839102">
        <ele>16.4</ele>
        <time>2020-03-26T14:04:10Z</time>
        <extensions><gpxtpx:TrackPointExtension><gpxtpx:hr>127</gpxtpx:hr></gpxtpx:TrackPointExtension></extensions>
      </trkpt>
      <trkpt lat="59.198503" lon="17.839201">
        <ele>16.4</ele>
        <time>2020-03-26T14:04:11Z</time>
        <extensions><gpxtpx:TrackPointExtension><gpxtpx:hr>129</gpxtpx:hr></gpxtpx:TrackPointExtension></extensions>
      </trkpt>
      <trkpt lat="59.198546" lon="17.839294">
        <ele>16.4</ele>
        <time>2020-03-26T14:04:12Z</time>
        <extensions><gpxtpx:TrackPointExtension><gpxtpx:hr>130</gpxtpx:hr></gpxtpx:TrackPointExtension></extensions>
      </trkpt>
      <trkpt lat="59.198588" lon="17.839392">
        <ele>16.4</ele>
        <time>2020-03-26T14:04:13Z</time>
        <extensions><gpxtpx:TrackPointExtension><gpxtpx:hr>130</gpxtpx:hr></gpxtpx:TrackPointExtension></extensions>
      </trkpt>
      <trkpt lat="59.198626" lon="17.83949">
        <ele>16.4</ele>
        <time>2020-03-26T14:04:14Z</time>
        <extensions><gpxtpx:TrackPointExtension><gpxtpx:hr>130</gpxtpx:hr></gpxtpx:TrackPointExtension></extensions>
      </trkpt>
      <trkpt lat="59.198666" lon="17.83959">
        <ele>16.4</ele>
        <time>2020-03-26T14:04:15Z</time>
        <extensions><gpxtpx:TrackPointExtension><gpxtpx:hr>130</gpxtpx:hr></gpxtpx:TrackPointExtension></extensions>
      </trkpt>
      <trkpt lat="59.198705" lon="17.839694">
        <ele>16.4</ele>
        <time>2020-03-26T14:04:16Z</time>
        <extensions><gpxtpx:TrackPointExtension><gpxtpx:hr>130</gpxtpx:hr></gpxtpx:TrackPointExtension></extensions>
      </trkpt>
      <trkpt lat="59.198738" lon="17.839801">
        <ele>16.4</ele>
        <time>2020-03-26T14:04:17Z</time>
        <extensions><gpxtpx:TrackPointExtension><gpxtpx:hr>131</gpxtpx:hr></gpxtpx:TrackPointExtension></extensions>
      </trkpt>
      <trkpt lat="59.198768" lon="17.83991">
        <ele>16.4</ele>
        <time>2020-03-26T14:04:18Z</time>
        <extensions><gpxtpx:TrackPointExtension><gpxtpx:hr>131</gpxtpx:hr></gpxtpx:TrackPointExtension></extensions>
      </trkpt>
      <trkpt lat="59.198794" lon="17.840025">
        <ele>16.4</ele>
        <time>2020-03-26T14:04:19Z</time>
        <extensions><gpxtpx:TrackPointExtension><gpxtpx:hr>131</gpxtpx:hr></gpxtpx:TrackPointExtension></extensions>
      </trkpt>
      <trkpt lat="59.198817" lon="17.840146">
        <ele>16.6</ele>
        <time>2020-03-26T14:04:20Z</time>
        <extensions><gpxtpx:TrackPointExtension><gpxtpx:hr>131</gpxtpx:hr></gpxtpx:TrackPointExtension></extensions>
      </trkpt>
      <trkpt lat="59.19884" lon="17.840271">
        <ele>16.6</ele>
        <time>2020-03-26T14:04:21Z</time>
        <extensions><gpxtpx:TrackPointExtension><gpxtpx:hr>132</gpxtpx:hr></gpxtpx:TrackPointExtension></extensions>
      </trkpt>
      <trkpt lat="59.198863" lon="17.840401">
        <ele>16.6</ele>
        <time>2020-03-26T14:04:22Z</time>
        <extensions><gpxtpx:TrackPointExtension><gpxtpx:hr>132</gpxtpx:hr></gpxtpx:TrackPointExtension></extensions>
      </trkpt>
      <trkpt lat="59.198883" lon="17.840531">
        <ele>16.6</ele>
        <time>2020-03-26T14:04:23Z</time>
        <extensions><gpxtpx:TrackPointExtension><gpxtpx:hr>132</gpxtpx:hr></gpxtpx:TrackPointExtension></extensions>
      </trkpt>
      <trkpt lat="59.198902" lon="17.840664">
        <ele>16.6</ele>
        <time>2020-03-26T14:04:24Z</time>
        <extensions><gpxtpx:TrackPointExtension><gpxtpx:hr>133</gpxtpx:hr></gpxtpx:TrackPointExtension></extensions>
      </trkpt>
      <trkpt lat="59.198921" lon="17.840799">
        <ele>16.6</ele>
        <time>2020-03-26T14:04:25Z</time>
        <extensions><gpxtpx:TrackPointExtension><gpxtpx:hr>133</gpxtpx:hr></gpxtpx:TrackPointExtension></extensions>
      </trkpt>
      <trkpt lat="59.198938" lon="17.840935">
        <ele>16.6</ele>
        <time>2020-03-26T14:04:26Z</time>
        <extensions><gpxtpx:TrackPointExtension><gpxtpx:hr>132</gpxtpx:hr></gpxtpx:TrackPointExtension></extensions>
      </trkpt>
      <trkpt lat="59.198952" lon="17.84107">
        <ele>16.6</ele>
        <time>2020-03-26T14:04:27Z</time>
        <extensions><gpxtpx:TrackPointExtension><gpxtpx:hr>132</gpxtpx:hr></gpxtpx:TrackPointExtension></extensions>
      </trkpt>
      <trkpt lat="59.198966" lon="17.841205">
        <ele>16.6</ele>
        <time>2020-03-26T14:04:28Z</time>
        <extensions><gpxtpx:TrackPointExtension><gpxtpx:hr>132</gpxtpx:hr></gpxtpx:TrackPointExtension></extensions>
      </trkpt>
      <trkpt lat="59.198982" lon="17.841341">
        <ele>16.6</ele>
        <time>2020-03-26T14:04:29Z</time>
        <extensions><gpxtpx:TrackPointExtension><gpxtpx:hr>132</gpxtpx:hr></gpxtpx:TrackPointExtension></extensions>
      </trkpt>
      <trkpt lat="59.198996" lon="17.841481">
        <ele>16.6</ele>
        <time>2020-03-26T14:04:30Z</time>
        <extensions><gpxtpx:TrackPointExtension><gpxtpx:hr>131</gpxtpx:hr></gpxtpx:TrackPointExtension></extensions>
      </trkpt>
      <trkpt lat="59.19901" lon="17.841623">
        <ele>16.2</ele>
        <time>2020-03-26T14:04:31Z</time>
        <extensions><gpxtpx:TrackPointExtension><gpxtpx:hr>131</gpxtpx:hr></gpxtpx:TrackPointExtension></extensions>
      </trkpt>
      <trkpt lat="59.199025" lon="17.841774">
        <ele>16.2</ele>
        <time>2020-03-26T14:04:32Z</time>
        <extensions><gpxtpx:TrackPointExtension><gpxtpx:hr>131</gpxtpx:hr></gpxtpx:TrackPointExtension></extensions>
      </trkpt>
      <trkpt lat="59.199036" lon="17.841923">
        <ele>16.2</ele>
        <time>2020-03-26T14:04:33Z</time>
        <extensions><gpxtpx:TrackPointExtension><gpxtpx:hr>132</gpxtpx:hr></gpxtpx:TrackPointExtension></extensions>
      </trkpt>
      <trkpt lat="59.199043" lon="17.842075">
        <ele>16</ele>
        <time>2020-03-26T14:04:34Z</time>
        <extensions><gpxtpx:TrackPointExtension><gpxtpx:hr>132</gpxtpx:hr></gpxtpx:TrackPointExtension></extensions>
      </trkpt>
      <trkpt lat="59.199047" lon="17.842229">
        <ele>16</ele>
        <time>2020-03-26T14:04:35Z</time>
        <extensions><gpxtpx:TrackPointExtension><gpxtpx:hr>131</gpxtpx:hr></gpxtpx:TrackPointExtension></extensions>
      </trkpt>
      <trkpt lat="59.199046" lon="17.842382">
        <ele>16</ele>
        <time>2020-03-26T14:04:36Z</time>
        <extensions><gpxtpx:TrackPointExtension><gpxtpx:hr>131</gpxtpx:hr></gpxtpx:TrackPointExtension></extensions>
      </trkpt>
      <trkpt lat="59.199045" lon="17.842533">
        <ele>15.8</ele>
        <time>2020-03-26T14:04:37Z</time>
        <extensions><gpxtpx:TrackPointExtension><gpxtpx:hr>131</gpxtpx:hr></gpxtpx:TrackPointExtension></extensions>
      </trkpt>
      <trkpt lat="59.199044" lon="17.842683">
        <ele>15.8</ele>
        <time>2020-03-26T14:04:38Z</time>
        <extensions><gpxtpx:TrackPointExtension><gpxtpx:hr>129</gpxtpx:hr></gpxtpx:TrackPointExtension></extensions>
      </trkpt>
      <trkpt lat="59.19904" lon="17.842827">
        <ele>15.8</ele>
        <time>2020-03-26T14:04:39Z</time>
        <extensions><gpxtpx:TrackPointExtension><gpxtpx:hr>128</gpxtpx:hr></gpxtpx:TrackPointExtension></extensions>
      </trkpt>
      <trkpt lat="59.199034" lon="17.842954">
        <ele>15.6</ele>
        <time>2020-03-26T14:04:40Z</time>
        <extensions><gpxtpx:TrackPointExtension><gpxtpx:hr>127</gpxtpx:hr></gpxtpx:TrackPointExtension></extensions>
      </trkpt>
      <trkpt lat="59.199028" lon="17.843062">
        <ele>15.4</ele>
        <time>2020-03-26T14:04:41Z</time>
        <extensions><gpxtpx:TrackPointExtension><gpxtpx:hr>125</gpxtpx:hr></gpxtpx:TrackPointExtension></extensions>
      </trkpt>
      <trkpt lat="59.199022" lon="17.843169">
        <ele>15.4</ele>
        <time>2020-03-26T14:04:42Z</time>
        <extensions><gpxtpx:TrackPointExtension><gpxtpx:hr>124</gpxtpx:hr></gpxtpx:TrackPointExtension></extensions>
      </trkpt>
      <trkpt lat="59.199018" lon="17.843287">
        <ele>15.4</ele>
        <time>2020-03-26T14:04:43Z</time>
        <extensions><gpxtpx:TrackPointExtension><gpxtpx:hr>123</gpxtpx:hr></gpxtpx:TrackPointExtension></extensions>
      </trkpt>
      <trkpt lat="59.199013" lon="17.843414">
        <ele>15.4</ele>
        <time>2020-03-26T14:04:44Z</time>
        <extensions><gpxtpx:TrackPointExtension><gpxtpx:hr>122</gpxtpx:hr></gpxtpx:TrackPointExtension></extensions>
      </trkpt>
      <trkpt lat="59.199011" lon="17.843546">
        <ele>15.2</ele>
        <time>2020-03-26T14:04:45Z</time>
        <extensions><gpxtpx:TrackPointExtension><gpxtpx:hr>122</gpxtpx:hr></gpxtpx:TrackPointExtension></extensions>
      </trkpt>
      <trkpt lat="59.199013" lon="17.843678">
        <ele>15.2</ele>
        <time>2020-03-26T14:04:46Z</time>
        <extensions><gpxtpx:TrackPointExtension><gpxtpx:hr>121</gpxtpx:hr></gpxtpx:TrackPointExtension></extensions>
      </trkpt>
      <trkpt lat="59.199014" lon="17.843806">
        <ele>15.2</ele>
        <time>2020-03-26T14:04:47Z</time>
        <extensions><gpxtpx:TrackPointExtension><gpxtpx:hr>121</gpxtpx:hr></gpxtpx:TrackPointExtension></extensions>
      </trkpt>
      <trkpt lat="59.199012" lon="17.843932">
        <ele>15.2</ele>
        <time>2020-03-26T14:04:48Z</time>
        <extensions><gpxtpx:TrackPointExtension><gpxtpx:hr>121</gpxtpx:hr></gpxtpx:TrackPointExtension></extensions>
      </trkpt>
      <trkpt lat="59.199012" lon="17.844055">
        <ele>15.2</ele>
        <time>2020-03-26T14:04:49Z</time>
        <extensions><gpxtpx:TrackPointExtension><gpxtpx:hr>121</gpxtpx:hr></gpxtpx:TrackPointExtension></extensions>
      </trkpt>
      <trkpt lat="59.199013" lon="17.844175">
        <ele>15</ele>
        <time>2020-03-26T14:04:50Z</time>
        <extensions><gpxtpx:TrackPointExtension><gpxtpx:hr>120</gpxtpx:hr></gpxtpx:TrackPointExtension></extensions>
      </trkpt>
      <trkpt lat="59.199014" lon="17.844282">
        <ele>15</ele>
        <time>2020-03-26T14:04:51Z</time>
        <extensions><gpxtpx:TrackPointExtension><gpxtpx:hr>120</gpxtpx:hr></gpxtpx:TrackPointExtension></extensions>
      </trkpt>
      <trkpt lat="59.199015" lon="17.844365">
        <ele>15</ele>
        <time>2020-03-26T14:04:52Z</time>
        <extensions><gpxtpx:TrackPointExtension><gpxtpx:hr>119</gpxtpx:hr></gpxtpx:TrackPointExtension></extensions>
      </trkpt>
      <trkpt lat="59.199016" lon="17.844419">
        <ele>15</ele>
        <time>2020-03-26T14:04:53Z</time>
        <extensions><gpxtpx:TrackPointExtension><gpxtpx:hr>119</gpxtpx:hr></gpxtpx:TrackPointExtension></extensions>
      </trkpt>
      <trkpt lat="59.199016" lon="17.84445">
        <ele>15</ele>
        <time>2020-03-26T14:04:54Z</time>
        <extensions><gpxtpx:TrackPointExtension><gpxtpx:hr>117</gpxtpx:hr></gpxtpx:TrackPointExtension></extensions>
      </trkpt>
      <trkpt lat="59.199016" lon="17.844462">
        <ele>15</ele>
        <time>2020-03-26T14:04:55Z</time>
        <extensions><gpxtpx:TrackPointExtension><gpxtpx:hr>116</gpxtpx:hr></gpxtpx:TrackPointExtension></extensions>
      </trkpt>
      <trkpt lat="59.199017" lon="17.844462">
        <ele>14.8</ele>
        <time>2020-03-26T14:04:56Z</time>
        <extensions><gpxtpx:TrackPointExtension><gpxtpx:hr>114</gpxtpx:hr></gpxtpx:TrackPointExtension></extensions>
      </trkpt>
      <trkpt lat="59.199019" lon="17.844503">
        <ele>14.8</ele>
        <time>2020-03-26T14:05:03Z</time>
        <extensions><gpxtpx:TrackPointExtension><gpxtpx:hr>112</gpxtpx:hr></gpxtpx:TrackPointExtension></extensions>
      </trkpt>
      <trkpt lat="59.199015" lon="17.844552">
        <ele>14.8</ele>
        <time>2020-03-26T14:05:04Z</time>
        <extensions><gpxtpx:TrackPointExtension><gpxtpx:hr>113</gpxtpx:hr></gpxtpx:TrackPointExtension></extensions>
      </trkpt>
      <trkpt lat="59.199015" lon="17.844613">
        <ele>14.8</ele>
        <time>2020-03-26T14:05:05Z</time>
        <extensions><gpxtpx:TrackPointExtension><gpxtpx:hr>113</gpxtpx:hr></gpxtpx:TrackPointExtension></extensions>
      </trkpt>
      <trkpt lat="59.199017" lon="17.844686">
        <ele>14.8</ele>
        <time>2020-03-26T14:05:06Z</time>
        <extensions><gpxtpx:TrackPointExtension><gpxtpx:hr>112</gpxtpx:hr></gpxtpx:TrackPointExtension></extensions>
      </trkpt>
      <trkpt lat="59.199018" lon="17.844769">
        <ele>14.8</ele>
        <time>2020-03-26T14:05:07Z</time>
        <extensions><gpxtpx:TrackPointExtension><gpxtpx:hr>111</gpxtpx:hr></gpxtpx:TrackPointExtension></extensions>
      </trkpt>
      <trkpt lat="59.199017" lon="17.844859">
        <ele>14.8</ele>
        <time>2020-03-26T14:05:08Z</time>
        <extensions><gpxtpx:TrackPointExtension><gpxtpx:hr>110</gpxtpx:hr></gpxtpx:TrackPointExtension></extensions>
      </trkpt>
      <trkpt lat="59.199013" lon="17.844955">
        <ele>14.8</ele>
        <time>2020-03-26T14:05:09Z</time>
        <extensions><gpxtpx:TrackPointExtension><gpxtpx:hr>110</gpxtpx:hr></gpxtpx:TrackPointExtension></extensions>
      </trkpt>
      <trkpt lat="59.199011" lon="17.845057">
        <ele>14.8</ele>
        <time>2020-03-26T14:05:10Z</time>
        <extensions><gpxtpx:TrackPointExtension><gpxtpx:hr>110</gpxtpx:hr></gpxtpx:TrackPointExtension></extensions>
      </trkpt>
      <trkpt lat="59.199009" lon="17.845163">
        <ele>14.8</ele>
        <time>2020-03-26T14:05:11Z</time>
        <extensions><gpxtpx:TrackPointExtension><gpxtpx:hr>111</gpxtpx:hr></gpxtpx:TrackPointExtension></extensions>
      </trkpt>
      <trkpt lat="59.199008" lon="17.845272">
        <ele>14.6</ele>
        <time>2020-03-26T14:05:12Z</time>
        <extensions><gpxtpx:TrackPointExtension><gpxtpx:hr>112</gpxtpx:hr></gpxtpx:TrackPointExtension></extensions>
      </trkpt>
      <trkpt lat="59.199006" lon="17.845382">
        <ele>14.6</ele>
        <time>2020-03-26T14:05:13Z</time>
        <extensions><gpxtpx:TrackPointExtension><gpxtpx:hr>113</gpxtpx:hr></gpxtpx:TrackPointExtension></extensions>
      </trkpt>
      <trkpt lat="59.199003" lon="17.845493">
        <ele>14.6</ele>
        <time>2020-03-26T14:05:14Z</time>
        <extensions><gpxtpx:TrackPointExtension><gpxtpx:hr>113</gpxtpx:hr></gpxtpx:TrackPointExtension></extensions>
      </trkpt>
      <trkpt lat="59.198999" lon="17.845606">
        <ele>14.6</ele>
        <time>2020-03-26T14:05:15Z</time>
        <extensions><gpxtpx:TrackPointExtension><gpxtpx:hr>115</gpxtpx:hr></gpxtpx:TrackPointExtension></extensions>
      </trkpt>
      <trkpt lat="59.198995" lon="17.845722">
        <ele>14.4</ele>
        <time>2020-03-26T14:05:16Z</time>
        <extensions><gpxtpx:TrackPointExtension><gpxtpx:hr>116</gpxtpx:hr></gpxtpx:TrackPointExtension></extensions>
      </trkpt>
      <trkpt lat="59.19899" lon="17.84584">
        <ele>14.4</ele>
        <time>2020-03-26T14:05:17Z</time>
        <extensions><gpxtpx:TrackPointExtension><gpxtpx:hr>117</gpxtpx:hr></gpxtpx:TrackPointExtension></extensions>
      </trkpt>
      <trkpt lat="59.198986" lon="17.84596">
        <ele>14.4</ele>
        <time>2020-03-26T14:05:18Z</time>
        <extensions><gpxtpx:TrackPointExtension><gpxtpx:hr>117</gpxtpx:hr></gpxtpx:TrackPointExtension></extensions>
      </trkpt>
      <trkpt lat="59.198983" lon="17.846083">
        <ele>14.4</ele>
        <time>2020-03-26T14:05:19Z</time>
        <extensions><gpxtpx:TrackPointExtension><gpxtpx:hr>118</gpxtpx:hr></gpxtpx:TrackPointExtension></extensions>
      </trkpt>
      <trkpt lat="59.198981" lon="17.846207">
        <ele>14.4</ele>
        <time>2020-03-26T14:05:20Z</time>
        <extensions><gpxtpx:TrackPointExtension><gpxtpx:hr>118</gpxtpx:hr></gpxtpx:TrackPointExtension></extensions>
      </trkpt>
      <trkpt lat="59.19898" lon="17.846337">
        <ele>14.2</ele>
        <time>2020-03-26T14:05:21Z</time>
        <extensions><gpxtpx:TrackPointExtension><gpxtpx:hr>119</gpxtpx:hr></gpxtpx:TrackPointExtension></extensions>
      </trkpt>
      <trkpt lat="59.198981" lon="17.846467">
        <ele>14.2</ele>
        <time>2020-03-26T14:05:22Z</time>
        <extensions><gpxtpx:TrackPointExtension><gpxtpx:hr>120</gpxtpx:hr></gpxtpx:TrackPointExtension></extensions>
      </trkpt>
      <trkpt lat="59.198982" lon="17.846599">
        <ele>14.2</ele>
        <time>2020-03-26T14:05:23Z</time>
        <extensions><gpxtpx:TrackPointExtension><gpxtpx:hr>122</gpxtpx:hr></gpxtpx:TrackPointExtension></extensions>
      </trkpt>
      <trkpt lat="59.198982" lon="17.84673">
        <ele>14</ele>
        <time>2020-03-26T14:05:24Z</time>
        <extensions><gpxtpx:TrackPointExtension><gpxtpx:hr>123</gpxtpx:hr></gpxtpx:TrackPointExtension></extensions>
      </trkpt>
      <trkpt lat="59.198988" lon="17.846859">
        <ele>14</ele>
        <time>2020-03-26T14:05:25Z</time>
        <extensions><gpxtpx:TrackPointExtension><gpxtpx:hr>124</gpxtpx:hr></gpxtpx:TrackPointExtension></extensions>
      </trkpt>
      <trkpt lat="59.199" lon="17.846985">
        <ele>14</ele>
        <time>2020-03-26T14:05:26Z</time>
        <extensions><gpxtpx:TrackPointExtension><gpxtpx:hr>125</gpxtpx:hr></gpxtpx:TrackPointExtension></extensions>
      </trkpt>
      <trkpt lat="59.199016" lon="17.847109">
        <ele>14</ele>
        <time>2020-03-26T14:05:27Z</time>
        <extensions><gpxtpx:TrackPointExtension><gpxtpx:hr>125</gpxtpx:hr></gpxtpx:TrackPointExtension></extensions>
      </trkpt>
      <trkpt lat="59.199032" lon="17.847233">
        <ele>13.8</ele>
        <time>2020-03-26T14:05:28Z</time>
        <extensions><gpxtpx:TrackPointExtension><gpxtpx:hr>125</gpxtpx:hr></gpxtpx:TrackPointExtension></extensions>
      </trkpt>
      <trkpt lat="59.199042" lon="17.847358">
        <ele>13.8</ele>
        <time>2020-03-26T14:05:29Z</time>
        <extensions><gpxtpx:TrackPointExtension><gpxtpx:hr>125</gpxtpx:hr></gpxtpx:TrackPointExtension></extensions>
      </trkpt>
      <trkpt lat="59.199046" lon="17.847487">
        <ele>13.8</ele>
        <time>2020-03-26T14:05:30Z</time>
        <extensions><gpxtpx:TrackPointExtension><gpxtpx:hr>125</gpxtpx:hr></gpxtpx:TrackPointExtension></extensions>
      </trkpt>
      <trkpt lat="59.199045" lon="17.847621">
        <ele>13.8</ele>
        <time>2020-03-26T14:05:31Z</time>
        <extensions><gpxtpx:TrackPointExtension><gpxtpx:hr>125</gpxtpx:hr></gpxtpx:TrackPointExtension></extensions>
      </trkpt>
      <trkpt lat="59.199042" lon="17.847756">
        <ele>13.8</ele>
        <time>2020-03-26T14:05:32Z</time>
        <extensions><gpxtpx:TrackPointExtension><gpxtpx:hr>125</gpxtpx:hr></gpxtpx:TrackPointExtension></extensions>
      </trkpt>
      <trkpt lat="59.19904" lon="17.847892">
        <ele>13.8</ele>
        <time>2020-03-26T14:05:33Z</time>
        <extensions><gpxtpx:TrackPointExtension><gpxtpx:hr>124</gpxtpx:hr></gpxtpx:TrackPointExtension></extensions>
      </trkpt>
      <trkpt lat="59.199039" lon="17.848028">
        <ele>13.8</ele>
        <time>2020-03-26T14:05:34Z</time>
        <extensions><gpxtpx:TrackPointExtension><gpxtpx:hr>124</gpxtpx:hr></gpxtpx:TrackPointExtension></extensions>
      </trkpt>
      <trkpt lat="59.199037" lon="17.848167">
        <ele>13.8</ele>
        <time>2020-03-26T14:05:35Z</time>
        <extensions><gpxtpx:TrackPointExtension><gpxtpx:hr>124</gpxtpx:hr></gpxtpx:TrackPointExtension></extensions>
      </trkpt>
      <trkpt lat="59.199036" lon="17.848308">
        <ele>13.8</ele>
        <time>2020-03-26T14:05:36Z</time>
        <extensions><gpxtpx:TrackPointExtension><gpxtpx:hr>124</gpxtpx:hr></gpxtpx:TrackPointExtension></extensions>
      </trkpt>
      <trkpt lat="59.199034" lon="17.848448">
        <ele>13.8</ele>
        <time>2020-03-26T14:05:37Z</time>
        <extensions><gpxtpx:TrackPointExtension><gpxtpx:hr>125</gpxtpx:hr></gpxtpx:TrackPointExtension></extensions>
      </trkpt>
      <trkpt lat="59.199033" lon="17.848589">
        <ele>13.8</ele>
        <time>2020-03-26T14:05:38Z</time>
        <extensions><gpxtpx:TrackPointExtension><gpxtpx:hr>126</gpxtpx:hr></gpxtpx:TrackPointExtension></extensions>
      </trkpt>
      <trkpt lat="59.199029" lon="17.848729">
        <ele>13.8</ele>
        <time>2020-03-26T14:05:39Z</time>
        <extensions><gpxtpx:TrackPointExtension><gpxtpx:hr>126</gpxtpx:hr></gpxtpx:TrackPointExtension></extensions>
      </trkpt>
      <trkpt lat="59.199026" lon="17.848868">
        <ele>13.8</ele>
        <time>2020-03-26T14:05:40Z</time>
        <extensions><gpxtpx:TrackPointExtension><gpxtpx:hr>126</gpxtpx:hr></gpxtpx:TrackPointExtension></extensions>
      </trkpt>
      <trkpt lat="59.199023" lon="17.849007">
        <ele>13.8</ele>
        <time>2020-03-26T14:05:41Z</time>
        <extensions><gpxtpx:TrackPointExtension><gpxtpx:hr>127</gpxtpx:hr></gpxtpx:TrackPointExtension></extensions>
      </trkpt>
      <trkpt lat="59.199021" lon="17.849148">
        <ele>14</ele>
        <time>2020-03-26T14:05:42Z</time>
        <extensions><gpxtpx:TrackPointExtension><gpxtpx:hr>127</gpxtpx:hr></gpxtpx:TrackPointExtension></extensions>
      </trkpt>
      <trkpt lat="59.19902" lon="17.849292">
        <ele>14</ele>
        <time>2020-03-26T14:05:43Z</time>
        <extensions><gpxtpx:TrackPointExtension><gpxtpx:hr>128</gpxtpx:hr></gpxtpx:TrackPointExtension></extensions>
      </trkpt>
      <trkpt lat="59.199018" lon="17.849428">
        <ele>14</ele>
        <time>2020-03-26T14:05:44Z</time>
        <extensions><gpxtpx:TrackPointExtension><gpxtpx:hr>128</gpxtpx:hr></gpxtpx:TrackPointExtension></extensions>
      </trkpt>
      <trkpt lat="59.199019" lon="17.849565">
        <ele>14</ele>
        <time>2020-03-26T14:05:45Z</time>
        <extensions><gpxtpx:TrackPointExtension><gpxtpx:hr>128</gpxtpx:hr></gpxtpx:TrackPointExtension></extensions>
      </trkpt>
      <trkpt lat="59.199016" lon="17.849701">
        <ele>14.2</ele>
        <time>2020-03-26T14:05:46Z</time>
        <extensions><gpxtpx:TrackPointExtension><gpxtpx:hr>129</gpxtpx:hr></gpxtpx:TrackPointExtension></extensions>
      </trkpt>
      <trkpt lat="59.199014" lon="17.849836">
        <ele>14.2</ele>
        <time>2020-03-26T14:05:47Z</time>
        <extensions><gpxtpx:TrackPointExtension><gpxtpx:hr>129</gpxtpx:hr></gpxtpx:TrackPointExtension></extensions>
      </trkpt>
      <trkpt lat="59.199012" lon="17.84997">
        <ele>14.6</ele>
        <time>2020-03-26T14:05:48Z</time>
        <extensions><gpxtpx:TrackPointExtension><gpxtpx:hr>130</gpxtpx:hr></gpxtpx:TrackPointExtension></extensions>
      </trkpt>
      <trkpt lat="59.19901" lon="17.850103">
        <ele>14.6</ele>
        <time>2020-03-26T14:05:49Z</time>
        <extensions><gpxtpx:TrackPointExtension><gpxtpx:hr>130</gpxtpx:hr></gpxtpx:TrackPointExtension></extensions>
      </trkpt>
      <trkpt lat="59.199007" lon="17.850236">
        <ele>14.6</ele>
        <time>2020-03-26T14:05:50Z</time>
        <extensions><gpxtpx:TrackPointExtension><gpxtpx:hr>131</gpxtpx:hr></gpxtpx:TrackPointExtension></extensions>
      </trkpt>
      <trkpt lat="59.199005" lon="17.850369">
        <ele>14.4</ele>
        <time>2020-03-26T14:05:51Z</time>
        <extensions><gpxtpx:TrackPointExtension><gpxtpx:hr>131</gpxtpx:hr></gpxtpx:TrackPointExtension></extensions>
      </trkpt>
      <trkpt lat="59.199007" lon="17.850499">
        <ele>14.4</ele>
        <time>2020-03-26T14:05:52Z</time>
        <extensions><gpxtpx:TrackPointExtension><gpxtpx:hr>131</gpxtpx:hr></gpxtpx:TrackPointExtension></extensions>
      </trkpt>
      <trkpt lat="59.199006" lon="17.850628">
        <ele>14.6</ele>
        <time>2020-03-26T14:05:53Z</time>
        <extensions><gpxtpx:TrackPointExtension><gpxtpx:hr>132</gpxtpx:hr></gpxtpx:TrackPointExtension></extensions>
      </trkpt>
      <trkpt lat="59.199005" lon="17.850756">
        <ele>14.8</ele>
        <time>2020-03-26T14:05:54Z</time>
        <extensions><gpxtpx:TrackPointExtension><gpxtpx:hr>132</gpxtpx:hr></gpxtpx:TrackPointExtension></extensions>
      </trkpt>
      <trkpt lat="59.199002" lon="17.850883">
        <ele>14.8</ele>
        <time>2020-03-26T14:05:55Z</time>
        <extensions><gpxtpx:TrackPointExtension><gpxtpx:hr>132</gpxtpx:hr></gpxtpx:TrackPointExtension></extensions>
      </trkpt>
      <trkpt lat="59.199" lon="17.851007">
        <ele>14.8</ele>
        <time>2020-03-26T14:05:56Z</time>
        <extensions><gpxtpx:TrackPointExtension><gpxtpx:hr>132</gpxtpx:hr></gpxtpx:TrackPointExtension></extensions>
      </trkpt>
      <trkpt lat="59.198998" lon="17.851127">
        <ele>14.8</ele>
        <time>2020-03-26T14:05:57Z</time>
        <extensions><gpxtpx:TrackPointExtension><gpxtpx:hr>133</gpxtpx:hr></gpxtpx:TrackPointExtension></extensions>
      </trkpt>
      <trkpt lat="59.198996" lon="17.851243">
        <ele>14.8</ele>
        <time>2020-03-26T14:05:58Z</time>
        <extensions><gpxtpx:TrackPointExtension><gpxtpx:hr>133</gpxtpx:hr></gpxtpx:TrackPointExtension></extensions>
      </trkpt>
      <trkpt lat="59.198994" lon="17.851354">
        <ele>14.8</ele>
        <time>2020-03-26T14:05:59Z</time>
        <extensions><gpxtpx:TrackPointExtension><gpxtpx:hr>133</gpxtpx:hr></gpxtpx:TrackPointExtension></extensions>
      </trkpt>
      <trkpt lat="59.19899" lon="17.85146">
        <ele>14.8</ele>
        <time>2020-03-26T14:06:00Z</time>
        <extensions><gpxtpx:TrackPointExtension><gpxtpx:hr>133</gpxtpx:hr></gpxtpx:TrackPointExtension></extensions>
      </trkpt>
      <trkpt lat="59.198986" lon="17.851565">
        <ele>15</ele>
        <time>2020-03-26T14:06:01Z</time>
        <extensions><gpxtpx:TrackPointExtension><gpxtpx:hr>134</gpxtpx:hr></gpxtpx:TrackPointExtension></extensions>
      </trkpt>
      <trkpt lat="59.198983" lon="17.851663">
        <ele>15.2</ele>
        <time>2020-03-26T14:06:02Z</time>
        <extensions><gpxtpx:TrackPointExtension><gpxtpx:hr>133</gpxtpx:hr></gpxtpx:TrackPointExtension></extensions>
      </trkpt>
      <trkpt lat="59.19898" lon="17.851757">
        <ele>15.4</ele>
        <time>2020-03-26T14:06:03Z</time>
        <extensions><gpxtpx:TrackPointExtension><gpxtpx:hr>133</gpxtpx:hr></gpxtpx:TrackPointExtension></extensions>
      </trkpt>
      <trkpt lat="59.198977" lon="17.851846">
        <ele>15.4</ele>
        <time>2020-03-26T14:06:04Z</time>
        <extensions><gpxtpx:TrackPointExtension><gpxtpx:hr>133</gpxtpx:hr></gpxtpx:TrackPointExtension></extensions>
      </trkpt>
      <trkpt lat="59.198974" lon="17.851933">
        <ele>15.6</ele>
        <time>2020-03-26T14:06:05Z</time>
        <extensions><gpxtpx:TrackPointExtension><gpxtpx:hr>133</gpxtpx:hr></gpxtpx:TrackPointExtension></extensions>
      </trkpt>
      <trkpt lat="59.198972" lon="17.852019">
        <ele>15.8</ele>
        <time>2020-03-26T14:06:06Z</time>
        <extensions><gpxtpx:TrackPointExtension><gpxtpx:hr>133</gpxtpx:hr></gpxtpx:TrackPointExtension></extensions>
      </trkpt>
      <trkpt lat="59.198972" lon="17.852102">
        <ele>16</ele>
        <time>2020-03-26T14:06:07Z</time>
        <extensions><gpxtpx:TrackPointExtension><gpxtpx:hr>133</gpxtpx:hr></gpxtpx:TrackPointExtension></extensions>
      </trkpt>
      <trkpt lat="59.19897" lon="17.852184">
        <ele>16.4</ele>
        <time>2020-03-26T14:06:08Z</time>
        <extensions><gpxtpx:TrackPointExtension><gpxtpx:hr>133</gpxtpx:hr></gpxtpx:TrackPointExtension></extensions>
      </trkpt>
      <trkpt lat="59.198968" lon="17.852266">
        <ele>16.6</ele>
        <time>2020-03-26T14:06:09Z</time>
        <extensions><gpxtpx:TrackPointExtension><gpxtpx:hr>133</gpxtpx:hr></gpxtpx:TrackPointExtension></extensions>
      </trkpt>
      <trkpt lat="59.198966" lon="17.852346">
        <ele>17</ele>
        <time>2020-03-26T14:06:10Z</time>
        <extensions><gpxtpx:TrackPointExtension><gpxtpx:hr>133</gpxtpx:hr></gpxtpx:TrackPointExtension></extensions>
      </trkpt>
      <trkpt lat="59.198966" lon="17.852424">
        <ele>17.2</ele>
        <time>2020-03-26T14:06:11Z</time>
        <extensions><gpxtpx:TrackPointExtension><gpxtpx:hr>133</gpxtpx:hr></gpxtpx:TrackPointExtension></extensions>
      </trkpt>
      <trkpt lat="59.198965" lon="17.852501">
        <ele>17.4</ele>
        <time>2020-03-26T14:06:12Z</time>
        <extensions><gpxtpx:TrackPointExtension><gpxtpx:hr>133</gpxtpx:hr></gpxtpx:TrackPointExtension></extensions>
      </trkpt>
      <trkpt lat="59.198961" lon="17.852576">
        <ele>17.6</ele>
        <time>2020-03-26T14:06:13Z</time>
        <extensions><gpxtpx:TrackPointExtension><gpxtpx:hr>133</gpxtpx:hr></gpxtpx:TrackPointExtension></extensions>
      </trkpt>
      <trkpt lat="59.198958" lon="17.85265">
        <ele>17.8</ele>
        <time>2020-03-26T14:06:14Z</time>
        <extensions><gpxtpx:TrackPointExtension><gpxtpx:hr>134</gpxtpx:hr></gpxtpx:TrackPointExtension></extensions>
      </trkpt>
      <trkpt lat="59.198955" lon="17.852723">
        <ele>18.2</ele>
        <time>2020-03-26T14:06:15Z</time>
        <extensions><gpxtpx:TrackPointExtension><gpxtpx:hr>134</gpxtpx:hr></gpxtpx:TrackPointExtension></extensions>
      </trkpt>
      <trkpt lat="59.198952" lon="17.852796">
        <ele>18.6</ele>
        <time>2020-03-26T14:06:16Z</time>
        <extensions><gpxtpx:TrackPointExtension><gpxtpx:hr>134</gpxtpx:hr></gpxtpx:TrackPointExtension></extensions>
      </trkpt>
      <trkpt lat="59.19895" lon="17.852868">
        <ele>19</ele>
        <time>2020-03-26T14:06:17Z</time>
        <extensions><gpxtpx:TrackPointExtension><gpxtpx:hr>135</gpxtpx:hr></gpxtpx:TrackPointExtension></extensions>
      </trkpt>
      <trkpt lat="59.198949" lon="17.85294">
        <ele>19.4</ele>
        <time>2020-03-26T14:06:18Z</time>
        <extensions><gpxtpx:TrackPointExtension><gpxtpx:hr>135</gpxtpx:hr></gpxtpx:TrackPointExtension></extensions>
      </trkpt>
      <trkpt lat="59.198948" lon="17.853013">
        <ele>19.6</ele>
        <time>2020-03-26T14:06:19Z</time>
        <extensions><gpxtpx:TrackPointExtension><gpxtpx:hr>136</gpxtpx:hr></gpxtpx:TrackPointExtension></extensions>
      </trkpt>
      <trkpt lat="59.198947" lon="17.853087">
        <ele>20</ele>
        <time>2020-03-26T14:06:20Z</time>
        <extensions><gpxtpx:TrackPointExtension><gpxtpx:hr>137</gpxtpx:hr></gpxtpx:TrackPointExtension></extensions>
      </trkpt>
      <trkpt lat="59.198944" lon="17.85316">
        <ele>20.2</ele>
        <time>2020-03-26T14:06:21Z</time>
        <extensions><gpxtpx:TrackPointExtension><gpxtpx:hr>137</gpxtpx:hr></gpxtpx:TrackPointExtension></extensions>
      </trkpt>
      <trkpt lat="59.198939" lon="17.853233">
        <ele>20.6</ele>
        <time>2020-03-26T14:06:22Z</time>
        <extensions><gpxtpx:TrackPointExtension><gpxtpx:hr>138</gpxtpx:hr></gpxtpx:TrackPointExtension></extensions>
      </trkpt>
      <trkpt lat="59.198936" lon="17.853305">
        <ele>20.8</ele>
        <time>2020-03-26T14:06:23Z</time>
        <extensions><gpxtpx:TrackPointExtension><gpxtpx:hr>138</gpxtpx:hr></gpxtpx:TrackPointExtension></extensions>
      </trkpt>
      <trkpt lat="59.198934" lon="17.853378">
        <ele>21</ele>
        <time>2020-03-26T14:06:24Z</time>
        <extensions><gpxtpx:TrackPointExtension><gpxtpx:hr>139</gpxtpx:hr></gpxtpx:TrackPointExtension></extensions>
      </trkpt>
      <trkpt lat="59.19893" lon="17.853445">
        <ele>21.2</ele>
        <time>2020-03-26T14:06:25Z</time>
        <extensions><gpxtpx:TrackPointExtension><gpxtpx:hr>139</gpxtpx:hr></gpxtpx:TrackPointExtension></extensions>
      </trkpt>
      <trkpt lat="59.198926" lon="17.853511">
        <ele>21.4</ele>
        <time>2020-03-26T14:06:26Z</time>
        <extensions><gpxtpx:TrackPointExtension><gpxtpx:hr>139</gpxtpx:hr></gpxtpx:TrackPointExtension></extensions>
      </trkpt>
      <trkpt lat="59.19892" lon="17.853579">
        <ele>21.6</ele>
        <time>2020-03-26T14:06:27Z</time>
        <extensions><gpxtpx:TrackPointExtension><gpxtpx:hr>140</gpxtpx:hr></gpxtpx:TrackPointExtension></extensions>
      </trkpt>
      <trkpt lat="59.198913" lon="17.853648">
        <ele>22</ele>
        <time>2020-03-26T14:06:28Z</time>
        <extensions><gpxtpx:TrackPointExtension><gpxtpx:hr>140</gpxtpx:hr></gpxtpx:TrackPointExtension></extensions>
      </trkpt>
      <trkpt lat="59.198906" lon="17.853715">
        <ele>22.6</ele>
        <time>2020-03-26T14:06:29Z</time>
        <extensions><gpxtpx:TrackPointExtension><gpxtpx:hr>140</gpxtpx:hr></gpxtpx:TrackPointExtension></extensions>
      </trkpt>
      <trkpt lat="59.198899" lon="17.853784">
        <ele>23</ele>
        <time>2020-03-26T14:06:30Z</time>
        <extensions><gpxtpx:TrackPointExtension><gpxtpx:hr>141</gpxtpx:hr></gpxtpx:TrackPointExtension></extensions>
      </trkpt>
      <trkpt lat="59.198888" lon="17.853857">
        <ele>23.4</ele>
        <time>2020-03-26T14:06:31Z</time>
        <extensions><gpxtpx:TrackPointExtension><gpxtpx:hr>141</gpxtpx:hr></gpxtpx:TrackPointExtension></extensions>
      </trkpt>
      <trkpt lat="59.198879" lon="17.853934">
        <ele>23.8</ele>
        <time>2020-03-26T14:06:32Z</time>
        <extensions><gpxtpx:TrackPointExtension><gpxtpx:hr>141</gpxtpx:hr></gpxtpx:TrackPointExtension></extensions>
      </trkpt>
      <trkpt lat="59.19887" lon="17.854013">
        <ele>24</ele>
        <time>2020-03-26T14:06:33Z</time>
        <extensions><gpxtpx:TrackPointExtension><gpxtpx:hr>141</gpxtpx:hr></gpxtpx:TrackPointExtension></extensions>
      </trkpt>
      <trkpt lat="59.198858" lon="17.854093">
        <ele>24.2</ele>
        <time>2020-03-26T14:06:34Z</time>
        <extensions><gpxtpx:TrackPointExtension><gpxtpx:hr>142</gpxtpx:hr></gpxtpx:TrackPointExtension></extensions>
      </trkpt>
      <trkpt lat="59.198845" lon="17.854174">
        <ele>24.4</ele>
        <time>2020-03-26T14:06:35Z</time>
        <extensions><gpxtpx:TrackPointExtension><gpxtpx:hr>142</gpxtpx:hr></gpxtpx:TrackPointExtension></extensions>
      </trkpt>
      <trkpt lat="59.198833" lon="17.854254">
        <ele>24.6</ele>
        <time>2020-03-26T14:06:36Z</time>
        <extensions><gpxtpx:TrackPointExtension><gpxtpx:hr>142</gpxtpx:hr></gpxtpx:TrackPointExtension></extensions>
      </trkpt>
      <trkpt lat="59.198826" lon="17.854332">
        <ele>25</ele>
        <time>2020-03-26T14:06:37Z</time>
        <extensions><gpxtpx:TrackPointExtension><gpxtpx:hr>142</gpxtpx:hr></gpxtpx:TrackPointExtension></extensions>
      </trkpt>
      <trkpt lat="59.198824" lon="17.854417">
        <ele>25.2</ele>
        <time>2020-03-26T14:06:38Z</time>
        <extensions><gpxtpx:TrackPointExtension><gpxtpx:hr>142</gpxtpx:hr></gpxtpx:TrackPointExtension></extensions>
      </trkpt>
      <trkpt lat="59.198821" lon="17.854501">
        <ele>25.4</ele>
        <time>2020-03-26T14:06:39Z</time>
        <extensions><gpxtpx:TrackPointExtension><gpxtpx:hr>142</gpxtpx:hr></gpxtpx:TrackPointExtension></extensions>
      </trkpt>
      <trkpt lat="59.198819" lon="17.85459">
        <ele>25.6</ele>
        <time>2020-03-26T14:06:40Z</time>
        <extensions><gpxtpx:TrackPointExtension><gpxtpx:hr>142</gpxtpx:hr></gpxtpx:TrackPointExtension></extensions>
      </trkpt>
      <trkpt lat="59.198819" lon="17.854681">
        <ele>25.8</ele>
        <time>2020-03-26T14:06:41Z</time>
        <extensions><gpxtpx:TrackPointExtension><gpxtpx:hr>142</gpxtpx:hr></gpxtpx:TrackPointExtension></extensions>
      </trkpt>
      <trkpt lat="59.198818" lon="17.854775">
        <ele>25.8</ele>
        <time>2020-03-26T14:06:42Z</time>
        <extensions><gpxtpx:TrackPointExtension><gpxtpx:hr>142</gpxtpx:hr></gpxtpx:TrackPointExtension></extensions>
      </trkpt>
      <trkpt lat="59.198815" lon="17.854869">
        <ele>26</ele>
        <time>2020-03-26T14:06:43Z</time>
        <extensions><gpxtpx:TrackPointExtension><gpxtpx:hr>142</gpxtpx:hr></gpxtpx:TrackPointExtension></extensions>
      </trkpt>
      <trkpt lat="59.198814" lon="17.854965">
        <ele>26.2</ele>
        <time>2020-03-26T14:06:44Z</time>
        <extensions><gpxtpx:TrackPointExtension><gpxtpx:hr>142</gpxtpx:hr></gpxtpx:TrackPointExtension></extensions>
      </trkpt>
      <trkpt lat="59.198813" lon="17.855061">
        <ele>26.2</ele>
        <time>2020-03-26T14:06:45Z</time>
        <extensions><gpxtpx:TrackPointExtension><gpxtpx:hr>141</gpxtpx:hr></gpxtpx:TrackPointExtension></extensions>
      </trkpt>
      <trkpt lat="59.198811" lon="17.855156">
        <ele>26.4</ele>
        <time>2020-03-26T14:06:46Z</time>
        <extensions><gpxtpx:TrackPointExtension><gpxtpx:hr>141</gpxtpx:hr></gpxtpx:TrackPointExtension></extensions>
      </trkpt>
      <trkpt lat="59.198808" lon="17.855253">
        <ele>26.4</ele>
        <time>2020-03-26T14:06:47Z</time>
        <extensions><gpxtpx:TrackPointExtension><gpxtpx:hr>141</gpxtpx:hr></gpxtpx:TrackPointExtension></extensions>
      </trkpt>
      <trkpt lat="59.198807" lon="17.855354">
        <ele>26.4</ele>
        <time>2020-03-26T14:06:48Z</time>
        <extensions><gpxtpx:TrackPointExtension><gpxtpx:hr>141</gpxtpx:hr></gpxtpx:TrackPointExtension></extensions>
      </trkpt>
      <trkpt lat="59.198808" lon="17.855459">
        <ele>26.4</ele>
        <time>2020-03-26T14:06:49Z</time>
        <extensions><gpxtpx:TrackPointExtension><gpxtpx:hr>141</gpxtpx:hr></gpxtpx:TrackPointExtension></extensions>
      </trkpt>
      <trkpt lat="59.198813" lon="17.855569">
        <ele>26.4</ele>
        <time>2020-03-26T14:06:50Z</time>
        <extensions><gpxtpx:TrackPointExtension><gpxtpx:hr>141</gpxtpx:hr></gpxtpx:TrackPointExtension></extensions>
      </trkpt>
      <trkpt lat="59.198822" lon="17.855682">
        <ele>26.4</ele>
        <time>2020-03-26T14:06:51Z</time>
        <extensions><gpxtpx:TrackPointExtension><gpxtpx:hr>140</gpxtpx:hr></gpxtpx:TrackPointExtension></extensions>
      </trkpt>
      <trkpt lat="59.19883" lon="17.855799">
        <ele>26.4</ele>
        <time>2020-03-26T14:06:52Z</time>
        <extensions><gpxtpx:TrackPointExtension><gpxtpx:hr>140</gpxtpx:hr></gpxtpx:TrackPointExtension></extensions>
      </trkpt>
      <trkpt lat="59.198836" lon="17.855915">
        <ele>26.4</ele>
        <time>2020-03-26T14:06:53Z</time>
        <extensions><gpxtpx:TrackPointExtension><gpxtpx:hr>140</gpxtpx:hr></gpxtpx:TrackPointExtension></extensions>
      </trkpt>
      <trkpt lat="59.198839" lon="17.856032">
        <ele>26.4</ele>
        <time>2020-03-26T14:06:54Z</time>
        <extensions><gpxtpx:TrackPointExtension><gpxtpx:hr>139</gpxtpx:hr></gpxtpx:TrackPointExtension></extensions>
      </trkpt>
      <trkpt lat="59.19884" lon="17.856149">
        <ele>26.4</ele>
        <time>2020-03-26T14:06:55Z</time>
        <extensions><gpxtpx:TrackPointExtension><gpxtpx:hr>139</gpxtpx:hr></gpxtpx:TrackPointExtension></extensions>
      </trkpt>
      <trkpt lat="59.198838" lon="17.856269">
        <ele>26.4</ele>
        <time>2020-03-26T14:06:56Z</time>
        <extensions><gpxtpx:TrackPointExtension><gpxtpx:hr>139</gpxtpx:hr></gpxtpx:TrackPointExtension></extensions>
      </trkpt>
      <trkpt lat="59.198834" lon="17.856392">
        <ele>26.4</ele>
        <time>2020-03-26T14:06:57Z</time>
        <extensions><gpxtpx:TrackPointExtension><gpxtpx:hr>138</gpxtpx:hr></gpxtpx:TrackPointExtension></extensions>
      </trkpt>
      <trkpt lat="59.198829" lon="17.856519">
        <ele>26.4</ele>
        <time>2020-03-26T14:06:58Z</time>
        <extensions><gpxtpx:TrackPointExtension><gpxtpx:hr>136</gpxtpx:hr></gpxtpx:TrackPointExtension></extensions>
      </trkpt>
      <trkpt lat="59.198826" lon="17.856649">
        <ele>26.4</ele>
        <time>2020-03-26T14:06:59Z</time>
        <extensions><gpxtpx:TrackPointExtension><gpxtpx:hr>135</gpxtpx:hr></gpxtpx:TrackPointExtension></extensions>
      </trkpt>
      <trkpt lat="59.198823" lon="17.856781">
        <ele>26.2</ele>
        <time>2020-03-26T14:07:00Z</time>
        <extensions><gpxtpx:TrackPointExtension><gpxtpx:hr>135</gpxtpx:hr></gpxtpx:TrackPointExtension></extensions>
      </trkpt>
      <trkpt lat="59.198821" lon="17.856914">
        <ele>26.2</ele>
        <time>2020-03-26T14:07:01Z</time>
        <extensions><gpxtpx:TrackPointExtension><gpxtpx:hr>134</gpxtpx:hr></gpxtpx:TrackPointExtension></extensions>
      </trkpt>
      <trkpt lat="59.198819" lon="17.857049">
        <ele>26</ele>
        <time>2020-03-26T14:07:02Z</time>
        <extensions><gpxtpx:TrackPointExtension><gpxtpx:hr>133</gpxtpx:hr></gpxtpx:TrackPointExtension></extensions>
      </trkpt>
      <trkpt lat="59.198818" lon="17.857183">
        <ele>25.8</ele>
        <time>2020-03-26T14:07:03Z</time>
        <extensions><gpxtpx:TrackPointExtension><gpxtpx:hr>133</gpxtpx:hr></gpxtpx:TrackPointExtension></extensions>
      </trkpt>
      <trkpt lat="59.198817" lon="17.857317">
        <ele>25.8</ele>
        <time>2020-03-26T14:07:04Z</time>
        <extensions><gpxtpx:TrackPointExtension><gpxtpx:hr>132</gpxtpx:hr></gpxtpx:TrackPointExtension></extensions>
      </trkpt>
      <trkpt lat="59.198814" lon="17.85745">
        <ele>25.6</ele>
        <time>2020-03-26T14:07:05Z</time>
        <extensions><gpxtpx:TrackPointExtension><gpxtpx:hr>132</gpxtpx:hr></gpxtpx:TrackPointExtension></extensions>
      </trkpt>
      <trkpt lat="59.19881" lon="17.857582">
        <ele>25.4</ele>
        <time>2020-03-26T14:07:06Z</time>
        <extensions><gpxtpx:TrackPointExtension><gpxtpx:hr>131</gpxtpx:hr></gpxtpx:TrackPointExtension></extensions>
      </trkpt>
      <trkpt lat="59.198804" lon="17.857714">
        <ele>25.4</ele>
        <time>2020-03-26T14:07:07Z</time>
        <extensions><gpxtpx:TrackPointExtension><gpxtpx:hr>131</gpxtpx:hr></gpxtpx:TrackPointExtension></extensions>
      </trkpt>
      <trkpt lat="59.1988" lon="17.857851">
        <ele>25.4</ele>
        <time>2020-03-26T14:07:08Z</time>
        <extensions><gpxtpx:TrackPointExtension><gpxtpx:hr>130</gpxtpx:hr></gpxtpx:TrackPointExtension></extensions>
      </trkpt>
      <trkpt lat="59.198796" lon="17.857987">
        <ele>25.4</ele>
        <time>2020-03-26T14:07:09Z</time>
        <extensions><gpxtpx:TrackPointExtension><gpxtpx:hr>130</gpxtpx:hr></gpxtpx:TrackPointExtension></extensions>
      </trkpt>
      <trkpt lat="59.198791" lon="17.858126">
        <ele>25.2</ele>
        <time>2020-03-26T14:07:10Z</time>
        <extensions><gpxtpx:TrackPointExtension><gpxtpx:hr>130</gpxtpx:hr></gpxtpx:TrackPointExtension></extensions>
      </trkpt>
      <trkpt lat="59.198788" lon="17.858266">
        <ele>25.2</ele>
        <time>2020-03-26T14:07:11Z</time>
        <extensions><gpxtpx:TrackPointExtension><gpxtpx:hr>129</gpxtpx:hr></gpxtpx:TrackPointExtension></extensions>
      </trkpt>
      <trkpt lat="59.198785" lon="17.858407">
        <ele>25</ele>
        <time>2020-03-26T14:07:12Z</time>
        <extensions><gpxtpx:TrackPointExtension><gpxtpx:hr>129</gpxtpx:hr></gpxtpx:TrackPointExtension></extensions>
      </trkpt>
      <trkpt lat="59.198781" lon="17.858549">
        <ele>25</ele>
        <time>2020-03-26T14:07:13Z</time>
        <extensions><gpxtpx:TrackPointExtension><gpxtpx:hr>129</gpxtpx:hr></gpxtpx:TrackPointExtension></extensions>
      </trkpt>
      <trkpt lat="59.198779" lon="17.858693">
        <ele>25</ele>
        <time>2020-03-26T14:07:14Z</time>
        <extensions><gpxtpx:TrackPointExtension><gpxtpx:hr>128</gpxtpx:hr></gpxtpx:TrackPointExtension></extensions>
      </trkpt>
      <trkpt lat="59.198775" lon="17.858836">
        <ele>24.8</ele>
        <time>2020-03-26T14:07:15Z</time>
        <extensions><gpxtpx:TrackPointExtension><gpxtpx:hr>129</gpxtpx:hr></gpxtpx:TrackPointExtension></extensions>
      </trkpt>
      <trkpt lat="59.198769" lon="17.858979">
        <ele>24.8</ele>
        <time>2020-03-26T14:07:16Z</time>
        <extensions><gpxtpx:TrackPointExtension><gpxtpx:hr>129</gpxtpx:hr></gpxtpx:TrackPointExtension></extensions>
      </trkpt>
      <trkpt lat="59.198762" lon="17.859121">
        <ele>24.8</ele>
        <time>2020-03-26T14:07:17Z</time>
        <extensions><gpxtpx:TrackPointExtension><gpxtpx:hr>129</gpxtpx:hr></gpxtpx:TrackPointExtension></extensions>
      </trkpt>
      <trkpt lat="59.198753" lon="17.859263">
        <ele>24.8</ele>
        <time>2020-03-26T14:07:18Z</time>
        <extensions><gpxtpx:TrackPointExtension><gpxtpx:hr>129</gpxtpx:hr></gpxtpx:TrackPointExtension></extensions>
      </trkpt>
      <trkpt lat="59.198744" lon="17.859404">
        <ele>24.8</ele>
        <time>2020-03-26T14:07:19Z</time>
        <extensions><gpxtpx:TrackPointExtension><gpxtpx:hr>130</gpxtpx:hr></gpxtpx:TrackPointExtension></extensions>
      </trkpt>
      <trkpt lat="59.198732" lon="17.859544">
        <ele>24.8</ele>
        <time>2020-03-26T14:07:20Z</time>
        <extensions><gpxtpx:TrackPointExtension><gpxtpx:hr>130</gpxtpx:hr></gpxtpx:TrackPointExtension></extensions>
      </trkpt>
      <trkpt lat="59.198717" lon="17.859684">
        <ele>24.8</ele>
        <time>2020-03-26T14:07:21Z</time>
        <extensions><gpxtpx:TrackPointExtension><gpxtpx:hr>130</gpxtpx:hr></gpxtpx:TrackPointExtension></extensions>
      </trkpt>
      <trkpt lat="59.198705" lon="17.859826">
        <ele>24.8</ele>
        <time>2020-03-26T14:07:22Z</time>
        <extensions><gpxtpx:TrackPointExtension><gpxtpx:hr>130</gpxtpx:hr></gpxtpx:TrackPointExtension></extensions>
      </trkpt>
      <trkpt lat="59.198699" lon="17.859969">
        <ele>24.8</ele>
        <time>2020-03-26T14:07:23Z</time>
        <extensions><gpxtpx:TrackPointExtension><gpxtpx:hr>130</gpxtpx:hr></gpxtpx:TrackPointExtension></extensions>
      </trkpt>
      <trkpt lat="59.198697" lon="17.860113">
        <ele>24.6</ele>
        <time>2020-03-26T14:07:24Z</time>
        <extensions><gpxtpx:TrackPointExtension><gpxtpx:hr>130</gpxtpx:hr></gpxtpx:TrackPointExtension></extensions>
      </trkpt>
      <trkpt lat="59.198693" lon="17.860252">
        <ele>24.6</ele>
        <time>2020-03-26T14:07:25Z</time>
        <extensions><gpxtpx:TrackPointExtension><gpxtpx:hr>131</gpxtpx:hr></gpxtpx:TrackPointExtension></extensions>
      </trkpt>
      <trkpt lat="59.198691" lon="17.86039">
        <ele>24.4</ele>
        <time>2020-03-26T14:07:26Z</time>
        <extensions><gpxtpx:TrackPointExtension><gpxtpx:hr>132</gpxtpx:hr></gpxtpx:TrackPointExtension></extensions>
      </trkpt>
      <trkpt lat="59.19869" lon="17.860527">
        <ele>24.4</ele>
        <time>2020-03-26T14:07:27Z</time>
        <extensions><gpxtpx:TrackPointExtension><gpxtpx:hr>132</gpxtpx:hr></gpxtpx:TrackPointExtension></extensions>
      </trkpt>
      <trkpt lat="59.19869" lon="17.860664">
        <ele>24.4</ele>
        <time>2020-03-26T14:07:28Z</time>
        <extensions><gpxtpx:TrackPointExtension><gpxtpx:hr>132</gpxtpx:hr></gpxtpx:TrackPointExtension></extensions>
      </trkpt>
      <trkpt lat="59.198689" lon="17.860799">
        <ele>24.4</ele>
        <time>2020-03-26T14:07:29Z</time>
        <extensions><gpxtpx:TrackPointExtension><gpxtpx:hr>133</gpxtpx:hr></gpxtpx:TrackPointExtension></extensions>
      </trkpt>
      <trkpt lat="59.19869" lon="17.860933">
        <ele>24.2</ele>
        <time>2020-03-26T14:07:30Z</time>
        <extensions><gpxtpx:TrackPointExtension><gpxtpx:hr>133</gpxtpx:hr></gpxtpx:TrackPointExtension></extensions>
      </trkpt>
      <trkpt lat="59.19869" lon="17.861066">
        <ele>24.2</ele>
        <time>2020-03-26T14:07:31Z</time>
        <extensions><gpxtpx:TrackPointExtension><gpxtpx:hr>133</gpxtpx:hr></gpxtpx:TrackPointExtension></extensions>
      </trkpt>
      <trkpt lat="59.19869" lon="17.861202">
        <ele>24.2</ele>
        <time>2020-03-26T14:07:32Z</time>
        <extensions><gpxtpx:TrackPointExtension><gpxtpx:hr>133</gpxtpx:hr></gpxtpx:TrackPointExtension></extensions>
      </trkpt>
      <trkpt lat="59.198692" lon="17.861342">
        <ele>24.2</ele>
        <time>2020-03-26T14:07:33Z</time>
        <extensions><gpxtpx:TrackPointExtension><gpxtpx:hr>133</gpxtpx:hr></gpxtpx:TrackPointExtension></extensions>
      </trkpt>
      <trkpt lat="59.198693" lon="17.86148">
        <ele>24.2</ele>
        <time>2020-03-26T14:07:34Z</time>
        <extensions><gpxtpx:TrackPointExtension><gpxtpx:hr>133</gpxtpx:hr></gpxtpx:TrackPointExtension></extensions>
      </trkpt>
      <trkpt lat="59.198693" lon="17.861616">
        <ele>24</ele>
        <time>2020-03-26T14:07:35Z</time>
        <extensions><gpxtpx:TrackPointExtension><gpxtpx:hr>133</gpxtpx:hr></gpxtpx:TrackPointExtension></extensions>
      </trkpt>
      <trkpt lat="59.198691" lon="17.861749">
        <ele>24</ele>
        <time>2020-03-26T14:07:36Z</time>
        <extensions><gpxtpx:TrackPointExtension><gpxtpx:hr>133</gpxtpx:hr></gpxtpx:TrackPointExtension></extensions>
      </trkpt>
      <trkpt lat="59.198688" lon="17.861878">
        <ele>24</ele>
        <time>2020-03-26T14:07:37Z</time>
        <extensions><gpxtpx:TrackPointExtension><gpxtpx:hr>133</gpxtpx:hr></gpxtpx:TrackPointExtension></extensions>
      </trkpt>
      <trkpt lat="59.198686" lon="17.862007">
        <ele>24</ele>
        <time>2020-03-26T14:07:38Z</time>
        <extensions><gpxtpx:TrackPointExtension><gpxtpx:hr>132</gpxtpx:hr></gpxtpx:TrackPointExtension></extensions>
      </trkpt>
      <trkpt lat="59.198685" lon="17.862134">
        <ele>24</ele>
        <time>2020-03-26T14:07:39Z</time>
        <extensions><gpxtpx:TrackPointExtension><gpxtpx:hr>132</gpxtpx:hr></gpxtpx:TrackPointExtension></extensions>
      </trkpt>
      <trkpt lat="59.198684" lon="17.862261">
        <ele>24</ele>
        <time>2020-03-26T14:07:40Z</time>
        <extensions><gpxtpx:TrackPointExtension><gpxtpx:hr>131</gpxtpx:hr></gpxtpx:TrackPointExtension></extensions>
      </trkpt>
      <trkpt lat="59.198682" lon="17.862388">
        <ele>24</ele>
        <time>2020-03-26T14:07:41Z</time>
        <extensions><gpxtpx:TrackPointExtension><gpxtpx:hr>131</gpxtpx:hr></gpxtpx:TrackPointExtension></extensions>
      </trkpt>
      <trkpt lat="59.198682" lon="17.862515">
        <ele>24</ele>
        <time>2020-03-26T14:07:42Z</time>
        <extensions><gpxtpx:TrackPointExtension><gpxtpx:hr>132</gpxtpx:hr></gpxtpx:TrackPointExtension></extensions>
      </trkpt>
      <trkpt lat="59.198685" lon="17.862644">
        <ele>24</ele>
        <time>2020-03-26T14:07:43Z</time>
        <extensions><gpxtpx:TrackPointExtension><gpxtpx:hr>132</gpxtpx:hr></gpxtpx:TrackPointExtension></extensions>
      </trkpt>
      <trkpt lat="59.198691" lon="17.862773">
        <ele>24.2</ele>
        <time>2020-03-26T14:07:44Z</time>
        <extensions><gpxtpx:TrackPointExtension><gpxtpx:hr>133</gpxtpx:hr></gpxtpx:TrackPointExtension></extensions>
      </trkpt>
      <trkpt lat="59.198699" lon="17.862901">
        <ele>24.2</ele>
        <time>2020-03-26T14:07:45Z</time>
        <extensions><gpxtpx:TrackPointExtension><gpxtpx:hr>133</gpxtpx:hr></gpxtpx:TrackPointExtension></extensions>
      </trkpt>
      <trkpt lat="59.198706" lon="17.863029">
        <ele>24.2</ele>
        <time>2020-03-26T14:07:46Z</time>
        <extensions><gpxtpx:TrackPointExtension><gpxtpx:hr>133</gpxtpx:hr></gpxtpx:TrackPointExtension></extensions>
      </trkpt>
      <trkpt lat="59.198709" lon="17.863155">
        <ele>24.4</ele>
        <time>2020-03-26T14:07:47Z</time>
        <extensions><gpxtpx:TrackPointExtension><gpxtpx:hr>133</gpxtpx:hr></gpxtpx:TrackPointExtension></extensions>
      </trkpt>
      <trkpt lat="59.198708" lon="17.863283">
        <ele>24.4</ele>
        <time>2020-03-26T14:07:48Z</time>
        <extensions><gpxtpx:TrackPointExtension><gpxtpx:hr>132</gpxtpx:hr></gpxtpx:TrackPointExtension></extensions>
      </trkpt>
      <trkpt lat="59.198705" lon="17.86341">
        <ele>24.6</ele>
        <time>2020-03-26T14:07:49Z</time>
        <extensions><gpxtpx:TrackPointExtension><gpxtpx:hr>132</gpxtpx:hr></gpxtpx:TrackPointExtension></extensions>
      </trkpt>
      <trkpt lat="59.198703" lon="17.863535">
        <ele>24.6</ele>
        <time>2020-03-26T14:07:50Z</time>
        <extensions><gpxtpx:TrackPointExtension><gpxtpx:hr>132</gpxtpx:hr></gpxtpx:TrackPointExtension></extensions>
      </trkpt>
      <trkpt lat="59.198702" lon="17.863659">
        <ele>24.6</ele>
        <time>2020-03-26T14:07:51Z</time>
        <extensions><gpxtpx:TrackPointExtension><gpxtpx:hr>132</gpxtpx:hr></gpxtpx:TrackPointExtension></extensions>
      </trkpt>
      <trkpt lat="59.198704" lon="17.863781">
        <ele>24.8</ele>
        <time>2020-03-26T14:07:52Z</time>
        <extensions><gpxtpx:TrackPointExtension><gpxtpx:hr>133</gpxtpx:hr></gpxtpx:TrackPointExtension></extensions>
      </trkpt>
      <trkpt lat="59.198705" lon="17.863904">
        <ele>24.8</ele>
        <time>2020-03-26T14:07:53Z</time>
        <extensions><gpxtpx:TrackPointExtension><gpxtpx:hr>133</gpxtpx:hr></gpxtpx:TrackPointExtension></extensions>
      </trkpt>
      <trkpt lat="59.198708" lon="17.864028">
        <ele>24.8</ele>
        <time>2020-03-26T14:07:54Z</time>
        <extensions><gpxtpx:TrackPointExtension><gpxtpx:hr>134</gpxtpx:hr></gpxtpx:TrackPointExtension></extensions>
      </trkpt>
      <trkpt lat="59.19871" lon="17.864154">
        <ele>25</ele>
        <time>2020-03-26T14:07:55Z</time>
        <extensions><gpxtpx:TrackPointExtension><gpxtpx:hr>134</gpxtpx:hr></gpxtpx:TrackPointExtension></extensions>
      </trkpt>
      <trkpt lat="59.198712" lon="17.864277">
        <ele>25</ele>
        <time>2020-03-26T14:07:56Z</time>
        <extensions><gpxtpx:TrackPointExtension><gpxtpx:hr>135</gpxtpx:hr></gpxtpx:TrackPointExtension></extensions>
      </trkpt>
      <trkpt lat="59.198715" lon="17.864401">
        <ele>25.2</ele>
        <time>2020-03-26T14:07:57Z</time>
        <extensions><gpxtpx:TrackPointExtension><gpxtpx:hr>135</gpxtpx:hr></gpxtpx:TrackPointExtension></extensions>
      </trkpt>
      <trkpt lat="59.198719" lon="17.864525">
        <ele>25.2</ele>
        <time>2020-03-26T14:07:58Z</time>
        <extensions><gpxtpx:TrackPointExtension><gpxtpx:hr>134</gpxtpx:hr></gpxtpx:TrackPointExtension></extensions>
      </trkpt>
      <trkpt lat="59.198724" lon="17.864648">
        <ele>25.2</ele>
        <time>2020-03-26T14:07:59Z</time>
        <extensions><gpxtpx:TrackPointExtension><gpxtpx:hr>134</gpxtpx:hr></gpxtpx:TrackPointExtension></extensions>
      </trkpt>
      <trkpt lat="59.198727" lon="17.864771">
        <ele>25.2</ele>
        <time>2020-03-26T14:08:00Z</time>
        <extensions><gpxtpx:TrackPointExtension><gpxtpx:hr>134</gpxtpx:hr></gpxtpx:TrackPointExtension></extensions>
      </trkpt>
      <trkpt lat="59.198729" lon="17.864894">
        <ele>25.2</ele>
        <time>2020-03-26T14:08:01Z</time>
        <extensions><gpxtpx:TrackPointExtension><gpxtpx:hr>133</gpxtpx:hr></gpxtpx:TrackPointExtension></extensions>
      </trkpt>
      <trkpt lat="59.198727" lon="17.865016">
        <ele>25.4</ele>
        <time>2020-03-26T14:08:02Z</time>
        <extensions><gpxtpx:TrackPointExtension><gpxtpx:hr>133</gpxtpx:hr></gpxtpx:TrackPointExtension></extensions>
      </trkpt>
      <trkpt lat="59.19872" lon="17.865134">
        <ele>25.4</ele>
        <time>2020-03-26T14:08:03Z</time>
        <extensions><gpxtpx:TrackPointExtension><gpxtpx:hr>133</gpxtpx:hr></gpxtpx:TrackPointExtension></extensions>
      </trkpt>
      <trkpt lat="59.198712" lon="17.865249">
        <ele>25.4</ele>
        <time>2020-03-26T14:08:04Z</time>
        <extensions><gpxtpx:TrackPointExtension><gpxtpx:hr>132</gpxtpx:hr></gpxtpx:TrackPointExtension></extensions>
      </trkpt>
      <trkpt lat="59.198707" lon="17.865362">
        <ele>25.4</ele>
        <time>2020-03-26T14:08:05Z</time>
        <extensions><gpxtpx:TrackPointExtension><gpxtpx:hr>132</gpxtpx:hr></gpxtpx:TrackPointExtension></extensions>
      </trkpt>
      <trkpt lat="59.198707" lon="17.865475">
        <ele>25.6</ele>
        <time>2020-03-26T14:08:06Z</time>
        <extensions><gpxtpx:TrackPointExtension><gpxtpx:hr>132</gpxtpx:hr></gpxtpx:TrackPointExtension></extensions>
      </trkpt>
      <trkpt lat="59.198712" lon="17.865589">
        <ele>25.6</ele>
        <time>2020-03-26T14:08:07Z</time>
        <extensions><gpxtpx:TrackPointExtension><gpxtpx:hr>131</gpxtpx:hr></gpxtpx:TrackPointExtension></extensions>
      </trkpt>
      <trkpt lat="59.198718" lon="17.865699">
        <ele>25.6</ele>
        <time>2020-03-26T14:08:08Z</time>
        <extensions><gpxtpx:TrackPointExtension><gpxtpx:hr>130</gpxtpx:hr></gpxtpx:TrackPointExtension></extensions>
      </trkpt>
      <trkpt lat="59.198726" lon="17.865808">
        <ele>25.6</ele>
        <time>2020-03-26T14:08:09Z</time>
        <extensions><gpxtpx:TrackPointExtension><gpxtpx:hr>130</gpxtpx:hr></gpxtpx:TrackPointExtension></extensions>
      </trkpt>
      <trkpt lat="59.198736" lon="17.865915">
        <ele>25.6</ele>
        <time>2020-03-26T14:08:10Z</time>
        <extensions><gpxtpx:TrackPointExtension><gpxtpx:hr>129</gpxtpx:hr></gpxtpx:TrackPointExtension></extensions>
      </trkpt>
      <trkpt lat="59.198746" lon="17.866022">
        <ele>25.6</ele>
        <time>2020-03-26T14:08:11Z</time>
        <extensions><gpxtpx:TrackPointExtension><gpxtpx:hr>128</gpxtpx:hr></gpxtpx:TrackPointExtension></extensions>
      </trkpt>
      <trkpt lat="59.198756" lon="17.866127">
        <ele>25.8</ele>
        <time>2020-03-26T14:08:12Z</time>
        <extensions><gpxtpx:TrackPointExtension><gpxtpx:hr>128</gpxtpx:hr></gpxtpx:TrackPointExtension></extensions>
      </trkpt>
      <trkpt lat="59.198766" lon="17.866232">
        <ele>25.8</ele>
        <time>2020-03-26T14:08:13Z</time>
        <extensions><gpxtpx:TrackPointExtension><gpxtpx:hr>128</gpxtpx:hr></gpxtpx:TrackPointExtension></extensions>
      </trkpt>
      <trkpt lat="59.198779" lon="17.866335">
        <ele>25.8</ele>
        <time>2020-03-26T14:08:14Z</time>
        <extensions><gpxtpx:TrackPointExtension><gpxtpx:hr>127</gpxtpx:hr></gpxtpx:TrackPointExtension></extensions>
      </trkpt>
      <trkpt lat="59.198792" lon="17.866436">
        <ele>25.8</ele>
        <time>2020-03-26T14:08:15Z</time>
        <extensions><gpxtpx:TrackPointExtension><gpxtpx:hr>127</gpxtpx:hr></gpxtpx:TrackPointExtension></extensions>
      </trkpt>
      <trkpt lat="59.198806" lon="17.866537">
        <ele>25.8</ele>
        <time>2020-03-26T14:08:16Z</time>
        <extensions><gpxtpx:TrackPointExtension><gpxtpx:hr>127</gpxtpx:hr></gpxtpx:TrackPointExtension></extensions>
      </trkpt>
      <trkpt lat="59.198822" lon="17.866638">
        <ele>26</ele>
        <time>2020-03-26T14:08:17Z</time>
        <extensions><gpxtpx:TrackPointExtension><gpxtpx:hr>127</gpxtpx:hr></gpxtpx:TrackPointExtension></extensions>
      </trkpt>
      <trkpt lat="59.198838" lon="17.866738">
        <ele>26.2</ele>
        <time>2020-03-26T14:08:18Z</time>
        <extensions><gpxtpx:TrackPointExtension><gpxtpx:hr>127</gpxtpx:hr></gpxtpx:TrackPointExtension></extensions>
      </trkpt>
      <trkpt lat="59.198854" lon="17.86684">
        <ele>26.2</ele>
        <time>2020-03-26T14:08:19Z</time>
        <extensions><gpxtpx:TrackPointExtension><gpxtpx:hr>127</gpxtpx:hr></gpxtpx:TrackPointExtension></extensions>
      </trkpt>
      <trkpt lat="59.198871" lon="17.86694">
        <ele>26.2</ele>
        <time>2020-03-26T14:08:20Z</time>
        <extensions><gpxtpx:TrackPointExtension><gpxtpx:hr>127</gpxtpx:hr></gpxtpx:TrackPointExtension></extensions>
      </trkpt>
      <trkpt lat="59.198888" lon="17.867038">
        <ele>26.2</ele>
        <time>2020-03-26T14:08:21Z</time>
        <extensions><gpxtpx:TrackPointExtension><gpxtpx:hr>127</gpxtpx:hr></gpxtpx:TrackPointExtension></extensions>
      </trkpt>
      <trkpt lat="59.198906" lon="17.867133">
        <ele>26.6</ele>
        <time>2020-03-26T14:08:22Z</time>
        <extensions><gpxtpx:TrackPointExtension><gpxtpx:hr>127</gpxtpx:hr></gpxtpx:TrackPointExtension></extensions>
      </trkpt>
      <trkpt lat="59.198927" lon="17.867225">
        <ele>26.6</ele>
        <time>2020-03-26T14:08:23Z</time>
        <extensions><gpxtpx:TrackPointExtension><gpxtpx:hr>127</gpxtpx:hr></gpxtpx:TrackPointExtension></extensions>
      </trkpt>
      <trkpt lat="59.198947" lon="17.867316">
        <ele>26.6</ele>
        <time>2020-03-26T14:08:24Z</time>
        <extensions><gpxtpx:TrackPointExtension><gpxtpx:hr>127</gpxtpx:hr></gpxtpx:TrackPointExtension></extensions>
      </trkpt>
      <trkpt lat="59.198964" lon="17.867408">
        <ele>26.6</ele>
        <time>2020-03-26T14:08:25Z</time>
        <extensions><gpxtpx:TrackPointExtension><gpxtpx:hr>127</gpxtpx:hr></gpxtpx:TrackPointExtension></extensions>
      </trkpt>
      <trkpt lat="59.198981" lon="17.867498">
        <ele>26.8</ele>
        <time>2020-03-26T14:08:26Z</time>
        <extensions><gpxtpx:TrackPointExtension><gpxtpx:hr>128</gpxtpx:hr></gpxtpx:TrackPointExtension></extensions>
      </trkpt>
      <trkpt lat="59.199" lon="17.867585">
        <ele>26.8</ele>
        <time>2020-03-26T14:08:27Z</time>
        <extensions><gpxtpx:TrackPointExtension><gpxtpx:hr>128</gpxtpx:hr></gpxtpx:TrackPointExtension></extensions>
      </trkpt>
      <trkpt lat="59.199021" lon="17.867671">
        <ele>26.8</ele>
        <time>2020-03-26T14:08:28Z</time>
        <extensions><gpxtpx:TrackPointExtension><gpxtpx:hr>128</gpxtpx:hr></gpxtpx:TrackPointExtension></extensions>
      </trkpt>
      <trkpt lat="59.19904" lon="17.867756">
        <ele>27</ele>
        <time>2020-03-26T14:08:29Z</time>
        <extensions><gpxtpx:TrackPointExtension><gpxtpx:hr>129</gpxtpx:hr></gpxtpx:TrackPointExtension></extensions>
      </trkpt>
      <trkpt lat="59.199059" lon="17.867841">
        <ele>27</ele>
        <time>2020-03-26T14:08:30Z</time>
        <extensions><gpxtpx:TrackPointExtension><gpxtpx:hr>129</gpxtpx:hr></gpxtpx:TrackPointExtension></extensions>
      </trkpt>
      <trkpt lat="59.19908" lon="17.867927">
        <ele>27</ele>
        <time>2020-03-26T14:08:31Z</time>
        <extensions><gpxtpx:TrackPointExtension><gpxtpx:hr>130</gpxtpx:hr></gpxtpx:TrackPointExtension></extensions>
      </trkpt>
      <trkpt lat="59.199099" lon="17.868011">
        <ele>27.4</ele>
        <time>2020-03-26T14:08:32Z</time>
        <extensions><gpxtpx:TrackPointExtension><gpxtpx:hr>130</gpxtpx:hr></gpxtpx:TrackPointExtension></extensions>
      </trkpt>
      <trkpt lat="59.199117" lon="17.868092">
        <ele>27.6</ele>
        <time>2020-03-26T14:08:33Z</time>
        <extensions><gpxtpx:TrackPointExtension><gpxtpx:hr>131</gpxtpx:hr></gpxtpx:TrackPointExtension></extensions>
      </trkpt>
      <trkpt lat="59.199136" lon="17.868171">
        <ele>28</ele>
        <time>2020-03-26T14:08:34Z</time>
        <extensions><gpxtpx:TrackPointExtension><gpxtpx:hr>131</gpxtpx:hr></gpxtpx:TrackPointExtension></extensions>
      </trkpt>
      <trkpt lat="59.199156" lon="17.868248">
        <ele>28.2</ele>
        <time>2020-03-26T14:08:35Z</time>
        <extensions><gpxtpx:TrackPointExtension><gpxtpx:hr>131</gpxtpx:hr></gpxtpx:TrackPointExtension></extensions>
      </trkpt>
      <trkpt lat="59.199176" lon="17.868323">
        <ele>28.6</ele>
        <time>2020-03-26T14:08:36Z</time>
        <extensions><gpxtpx:TrackPointExtension><gpxtpx:hr>131</gpxtpx:hr></gpxtpx:TrackPointExtension></extensions>
      </trkpt>
      <trkpt lat="59.199196" lon="17.868397">
        <ele>28.6</ele>
        <time>2020-03-26T14:08:37Z</time>
        <extensions><gpxtpx:TrackPointExtension><gpxtpx:hr>132</gpxtpx:hr></gpxtpx:TrackPointExtension></extensions>
      </trkpt>
      <trkpt lat="59.199218" lon="17.86847">
        <ele>28.8</ele>
        <time>2020-03-26T14:08:38Z</time>
        <extensions><gpxtpx:TrackPointExtension><gpxtpx:hr>132</gpxtpx:hr></gpxtpx:TrackPointExtension></extensions>
      </trkpt>
      <trkpt lat="59.199242" lon="17.868541">
        <ele>29.2</ele>
        <time>2020-03-26T14:08:39Z</time>
        <extensions><gpxtpx:TrackPointExtension><gpxtpx:hr>133</gpxtpx:hr></gpxtpx:TrackPointExtension></extensions>
      </trkpt>
      <trkpt lat="59.199267" lon="17.868611">
        <ele>29.4</ele>
        <time>2020-03-26T14:08:40Z</time>
        <extensions><gpxtpx:TrackPointExtension><gpxtpx:hr>134</gpxtpx:hr></gpxtpx:TrackPointExtension></extensions>
      </trkpt>
      <trkpt lat="59.199289" lon="17.868685">
        <ele>30</ele>
        <time>2020-03-26T14:08:41Z</time>
        <extensions><gpxtpx:TrackPointExtension><gpxtpx:hr>134</gpxtpx:hr></gpxtpx:TrackPointExtension></extensions>
      </trkpt>
      <trkpt lat="59.199311" lon="17.868759">
        <ele>30</ele>
        <time>2020-03-26T14:08:42Z</time>
        <extensions><gpxtpx:TrackPointExtension><gpxtpx:hr>135</gpxtpx:hr></gpxtpx:TrackPointExtension></extensions>
      </trkpt>
      <trkpt lat="59.199336" lon="17.868833">
        <ele>30.2</ele>
        <time>2020-03-26T14:08:43Z</time>
        <extensions><gpxtpx:TrackPointExtension><gpxtpx:hr>136</gpxtpx:hr></gpxtpx:TrackPointExtension></extensions>
      </trkpt>
      <trkpt lat="59.19936" lon="17.868907">
        <ele>30.6</ele>
        <time>2020-03-26T14:08:44Z</time>
        <extensions><gpxtpx:TrackPointExtension><gpxtpx:hr>136</gpxtpx:hr></gpxtpx:TrackPointExtension></extensions>
      </trkpt>
      <trkpt lat="59.199384" lon="17.868981">
        <ele>30.8</ele>
        <time>2020-03-26T14:08:45Z</time>
        <extensions><gpxtpx:TrackPointExtension><gpxtpx:hr>136</gpxtpx:hr></gpxtpx:TrackPointExtension></extensions>
      </trkpt>
      <trkpt lat="59.199407" lon="17.869054">
        <ele>31.2</ele>
        <time>2020-03-26T14:08:46Z</time>
        <extensions><gpxtpx:TrackPointExtension><gpxtpx:hr>137</gpxtpx:hr></gpxtpx:TrackPointExtension></extensions>
      </trkpt>
      <trkpt lat="59.199427" lon="17.869127">
        <ele>31.2</ele>
        <time>2020-03-26T14:08:47Z</time>
        <extensions><gpxtpx:TrackPointExtension><gpxtpx:hr>137</gpxtpx:hr></gpxtpx:TrackPointExtension></extensions>
      </trkpt>
      <trkpt lat="59.199449" lon="17.869196">
        <ele>31.8</ele>
        <time>2020-03-26T14:08:48Z</time>
        <extensions><gpxtpx:TrackPointExtension><gpxtpx:hr>137</gpxtpx:hr></gpxtpx:TrackPointExtension></extensions>
      </trkpt>
      <trkpt lat="59.199477" lon="17.869256">
        <ele>31.8</ele>
        <time>2020-03-26T14:08:49Z</time>
        <extensions><gpxtpx:TrackPointExtension><gpxtpx:hr>138</gpxtpx:hr></gpxtpx:TrackPointExtension></extensions>
      </trkpt>
      <trkpt lat="59.199509" lon="17.869309">
        <ele>32</ele>
        <time>2020-03-26T14:08:50Z</time>
        <extensions><gpxtpx:TrackPointExtension><gpxtpx:hr>138</gpxtpx:hr></gpxtpx:TrackPointExtension></extensions>
      </trkpt>
      <trkpt lat="59.199543" lon="17.869361">
        <ele>32</ele>
        <time>2020-03-26T14:08:51Z</time>
        <extensions><gpxtpx:TrackPointExtension><gpxtpx:hr>138</gpxtpx:hr></gpxtpx:TrackPointExtension></extensions>
      </trkpt>
      <trkpt lat="59.199576" lon="17.869416">
        <ele>32.2</ele>
        <time>2020-03-26T14:08:52Z</time>
        <extensions><gpxtpx:TrackPointExtension><gpxtpx:hr>138</gpxtpx:hr></gpxtpx:TrackPointExtension></extensions>
      </trkpt>
      <trkpt lat="59.199605" lon="17.869477">
        <ele>32.6</ele>
        <time>2020-03-26T14:08:53Z</time>
        <extensions><gpxtpx:TrackPointExtension><gpxtpx:hr>138</gpxtpx:hr></gpxtpx:TrackPointExtension></extensions>
      </trkpt>
      <trkpt lat="59.199627" lon="17.869546">
        <ele>32.6</ele>
        <time>2020-03-26T14:08:54Z</time>
        <extensions><gpxtpx:TrackPointExtension><gpxtpx:hr>138</gpxtpx:hr></gpxtpx:TrackPointExtension></extensions>
      </trkpt>
      <trkpt lat="59.199644" lon="17.869619">
        <ele>33.2</ele>
        <time>2020-03-26T14:08:55Z</time>
        <extensions><gpxtpx:TrackPointExtension><gpxtpx:hr>139</gpxtpx:hr></gpxtpx:TrackPointExtension></extensions>
      </trkpt>
      <trkpt lat="59.199656" lon="17.869697">
        <ele>33.4</ele>
        <time>2020-03-26T14:08:56Z</time>
        <extensions><gpxtpx:TrackPointExtension><gpxtpx:hr>139</gpxtpx:hr></gpxtpx:TrackPointExtension></extensions>
      </trkpt>
      <trkpt lat="59.199663" lon="17.869779">
        <ele>33.8</ele>
        <time>2020-03-26T14:08:57Z</time>
        <extensions><gpxtpx:TrackPointExtension><gpxtpx:hr>139</gpxtpx:hr></gpxtpx:TrackPointExtension></extensions>
      </trkpt>
      <trkpt lat="59.199669" lon="17.869858">
        <ele>33.8</ele>
        <time>2020-03-26T14:08:58Z</time>
        <extensions><gpxtpx:TrackPointExtension><gpxtpx:hr>140</gpxtpx:hr></gpxtpx:TrackPointExtension></extensions>
      </trkpt>
      <trkpt lat="59.199676" lon="17.869935">
        <ele>34</ele>
        <time>2020-03-26T14:08:59Z</time>
        <extensions><gpxtpx:TrackPointExtension><gpxtpx:hr>140</gpxtpx:hr></gpxtpx:TrackPointExtension></extensions>
      </trkpt>
      <trkpt lat="59.199687" lon="17.870012">
        <ele>34</ele>
        <time>2020-03-26T14:09:00Z</time>
        <extensions><gpxtpx:TrackPointExtension><gpxtpx:hr>140</gpxtpx:hr></gpxtpx:TrackPointExtension></extensions>
      </trkpt>
      <trkpt lat="59.199705" lon="17.870086">
        <ele>34.4</ele>
        <time>2020-03-26T14:09:01Z</time>
        <extensions><gpxtpx:TrackPointExtension><gpxtpx:hr>141</gpxtpx:hr></gpxtpx:TrackPointExtension></extensions>
      </trkpt>
      <trkpt lat="59.199728" lon="17.870156">
        <ele>34.4</ele>
        <time>2020-03-26T14:09:02Z</time>
        <extensions><gpxtpx:TrackPointExtension><gpxtpx:hr>141</gpxtpx:hr></gpxtpx:TrackPointExtension></extensions>
      </trkpt>
      <trkpt lat="59.199753" lon="17.870225">
        <ele>34.6</ele>
        <time>2020-03-26T14:09:03Z</time>
        <extensions><gpxtpx:TrackPointExtension><gpxtpx:hr>141</gpxtpx:hr></gpxtpx:TrackPointExtension></extensions>
      </trkpt>
      <trkpt lat="59.199779" lon="17.870292">
        <ele>34.6</ele>
        <time>2020-03-26T14:09:04Z</time>
        <extensions><gpxtpx:TrackPointExtension><gpxtpx:hr>141</gpxtpx:hr></gpxtpx:TrackPointExtension></extensions>
      </trkpt>
      <trkpt lat="59.199809" lon="17.870357">
        <ele>35</ele>
        <time>2020-03-26T14:09:05Z</time>
        <extensions><gpxtpx:TrackPointExtension><gpxtpx:hr>142</gpxtpx:hr></gpxtpx:TrackPointExtension></extensions>
      </trkpt>
      <trkpt lat="59.199841" lon="17.870428">
        <ele>35</ele>
        <time>2020-03-26T14:09:06Z</time>
        <extensions><gpxtpx:TrackPointExtension><gpxtpx:hr>142</gpxtpx:hr></gpxtpx:TrackPointExtension></extensions>
      </trkpt>
      <trkpt lat="59.199875" lon="17.870504">
        <ele>35</ele>
        <time>2020-03-26T14:09:07Z</time>
        <extensions><gpxtpx:TrackPointExtension><gpxtpx:hr>142</gpxtpx:hr></gpxtpx:TrackPointExtension></extensions>
      </trkpt>
      <trkpt lat="59.19991" lon="17.870581">
        <ele>35.2</ele>
        <time>2020-03-26T14:09:08Z</time>
        <extensions><gpxtpx:TrackPointExtension><gpxtpx:hr>142</gpxtpx:hr></gpxtpx:TrackPointExtension></extensions>
      </trkpt>
      <trkpt lat="59.199947" lon="17.87066">
        <ele>35.2</ele>
        <time>2020-03-26T14:09:09Z</time>
        <extensions><gpxtpx:TrackPointExtension><gpxtpx:hr>143</gpxtpx:hr></gpxtpx:TrackPointExtension></extensions>
      </trkpt>
      <trkpt lat="59.199983" lon="17.87074">
        <ele>35.4</ele>
        <time>2020-03-26T14:09:10Z</time>
        <extensions><gpxtpx:TrackPointExtension><gpxtpx:hr>143</gpxtpx:hr></gpxtpx:TrackPointExtension></extensions>
      </trkpt>
      <trkpt lat="59.200019" lon="17.870822">
        <ele>35.4</ele>
        <time>2020-03-26T14:09:11Z</time>
        <extensions><gpxtpx:TrackPointExtension><gpxtpx:hr>144</gpxtpx:hr></gpxtpx:TrackPointExtension></extensions>
      </trkpt>
      <trkpt lat="59.200056" lon="17.870905">
        <ele>35.8</ele>
        <time>2020-03-26T14:09:12Z</time>
        <extensions><gpxtpx:TrackPointExtension><gpxtpx:hr>144</gpxtpx:hr></gpxtpx:TrackPointExtension></extensions>
      </trkpt>
      <trkpt lat="59.200093" lon="17.87099">
        <ele>35.8</ele>
        <time>2020-03-26T14:09:13Z</time>
        <extensions><gpxtpx:TrackPointExtension><gpxtpx:hr>144</gpxtpx:hr></gpxtpx:TrackPointExtension></extensions>
      </trkpt>
      <trkpt lat="59.200129" lon="17.871071">
        <ele>36</ele>
        <time>2020-03-26T14:09:14Z</time>
        <extensions><gpxtpx:TrackPointExtension><gpxtpx:hr>144</gpxtpx:hr></gpxtpx:TrackPointExtension></extensions>
      </trkpt>
      <trkpt lat="59.200163" lon="17.871147">
        <ele>36</ele>
        <time>2020-03-26T14:09:15Z</time>
        <extensions><gpxtpx:TrackPointExtension><gpxtpx:hr>145</gpxtpx:hr></gpxtpx:TrackPointExtension></extensions>
      </trkpt>
      <trkpt lat="59.200197" lon="17.87122">
        <ele>36.4</ele>
        <time>2020-03-26T14:09:16Z</time>
        <extensions><gpxtpx:TrackPointExtension><gpxtpx:hr>145</gpxtpx:hr></gpxtpx:TrackPointExtension></extensions>
      </trkpt>
      <trkpt lat="59.200232" lon="17.871296">
        <ele>36.4</ele>
        <time>2020-03-26T14:09:17Z</time>
        <extensions><gpxtpx:TrackPointExtension><gpxtpx:hr>145</gpxtpx:hr></gpxtpx:TrackPointExtension></extensions>
      </trkpt>
      <trkpt lat="59.200267" lon="17.871371">
        <ele>36.6</ele>
        <time>2020-03-26T14:09:18Z</time>
        <extensions><gpxtpx:TrackPointExtension><gpxtpx:hr>145</gpxtpx:hr></gpxtpx:TrackPointExtension></extensions>
      </trkpt>
      <trkpt lat="59.200302" lon="17.871444">
        <ele>36.8</ele>
        <time>2020-03-26T14:09:19Z</time>
        <extensions><gpxtpx:TrackPointExtension><gpxtpx:hr>145</gpxtpx:hr></gpxtpx:TrackPointExtension></extensions>
      </trkpt>
      <trkpt lat="59.20034" lon="17.871514">
        <ele>37</ele>
        <time>2020-03-26T14:09:20Z</time>
        <extensions><gpxtpx:TrackPointExtension><gpxtpx:hr>145</gpxtpx:hr></gpxtpx:TrackPointExtension></extensions>
      </trkpt>
      <trkpt lat="59.200382" lon="17.871583">
        <ele>37</ele>
        <time>2020-03-26T14:09:21Z</time>
        <extensions><gpxtpx:TrackPointExtension><gpxtpx:hr>145</gpxtpx:hr></gpxtpx:TrackPointExtension></extensions>
      </trkpt>
      <trkpt lat="59.200427" lon="17.87165">
        <ele>37.2</ele>
        <time>2020-03-26T14:09:22Z</time>
        <extensions><gpxtpx:TrackPointExtension><gpxtpx:hr>145</gpxtpx:hr></gpxtpx:TrackPointExtension></extensions>
      </trkpt>
      <trkpt lat="59.20047" lon="17.87171">
        <ele>37.2</ele>
        <time>2020-03-26T14:09:23Z</time>
        <extensions><gpxtpx:TrackPointExtension><gpxtpx:hr>146</gpxtpx:hr></gpxtpx:TrackPointExtension></extensions>
      </trkpt>
      <trkpt lat="59.200515" lon="17.871763">
        <ele>37.8</ele>
        <time>2020-03-26T14:09:24Z</time>
        <extensions><gpxtpx:TrackPointExtension><gpxtpx:hr>146</gpxtpx:hr></gpxtpx:TrackPointExtension></extensions>
      </trkpt>
      <trkpt lat="59.200562" lon="17.871821">
        <ele>38</ele>
        <time>2020-03-26T14:09:25Z</time>
        <extensions><gpxtpx:TrackPointExtension><gpxtpx:hr>145</gpxtpx:hr></gpxtpx:TrackPointExtension></extensions>
      </trkpt>
      <trkpt lat="59.20061" lon="17.871894">
        <ele>38.2</ele>
        <time>2020-03-26T14:09:26Z</time>
        <extensions><gpxtpx:TrackPointExtension><gpxtpx:hr>145</gpxtpx:hr></gpxtpx:TrackPointExtension></extensions>
      </trkpt>
      <trkpt lat="59.200655" lon="17.871986">
        <ele>38.4</ele>
        <time>2020-03-26T14:09:27Z</time>
        <extensions><gpxtpx:TrackPointExtension><gpxtpx:hr>145</gpxtpx:hr></gpxtpx:TrackPointExtension></extensions>
      </trkpt>
      <trkpt lat="59.20069" lon="17.8721">
        <ele>38.4</ele>
        <time>2020-03-26T14:09:28Z</time>
        <extensions><gpxtpx:TrackPointExtension><gpxtpx:hr>145</gpxtpx:hr></gpxtpx:TrackPointExtension></extensions>
      </trkpt>
      <trkpt lat="59.200711" lon="17.87224">
        <ele>38.4</ele>
        <time>2020-03-26T14:09:29Z</time>
        <extensions><gpxtpx:TrackPointExtension><gpxtpx:hr>144</gpxtpx:hr></gpxtpx:TrackPointExtension></extensions>
      </trkpt>
      <trkpt lat="59.200725" lon="17.872394">
        <ele>38.4</ele>
        <time>2020-03-26T14:09:30Z</time>
        <extensions><gpxtpx:TrackPointExtension><gpxtpx:hr>144</gpxtpx:hr></gpxtpx:TrackPointExtension></extensions>
      </trkpt>
      <trkpt lat="59.200738" lon="17.872562">
        <ele>38.4</ele>
        <time>2020-03-26T14:09:31Z</time>
        <extensions><gpxtpx:TrackPointExtension><gpxtpx:hr>144</gpxtpx:hr></gpxtpx:TrackPointExtension></extensions>
      </trkpt>
      <trkpt lat="59.200749" lon="17.872737">
        <ele>38.4</ele>
        <time>2020-03-26T14:09:32Z</time>
        <extensions><gpxtpx:TrackPointExtension><gpxtpx:hr>143</gpxtpx:hr></gpxtpx:TrackPointExtension></extensions>
      </trkpt>
      <trkpt lat="59.200758" lon="17.872918">
        <ele>38.4</ele>
        <time>2020-03-26T14:09:33Z</time>
        <extensions><gpxtpx:TrackPointExtension><gpxtpx:hr>142</gpxtpx:hr></gpxtpx:TrackPointExtension></extensions>
      </trkpt>
      <trkpt lat="59.200765" lon="17.873107">
        <ele>38.4</ele>
        <time>2020-03-26T14:09:34Z</time>
        <extensions><gpxtpx:TrackPointExtension><gpxtpx:hr>142</gpxtpx:hr></gpxtpx:TrackPointExtension></extensions>
      </trkpt>
      <trkpt lat="59.20077" lon="17.873301">
        <ele>38.4</ele>
        <time>2020-03-26T14:09:35Z</time>
        <extensions><gpxtpx:TrackPointExtension><gpxtpx:hr>142</gpxtpx:hr></gpxtpx:TrackPointExtension></extensions>
      </trkpt>
      <trkpt lat="59.200772" lon="17.873494">
        <ele>38</ele>
        <time>2020-03-26T14:09:36Z</time>
        <extensions><gpxtpx:TrackPointExtension><gpxtpx:hr>141</gpxtpx:hr></gpxtpx:TrackPointExtension></extensions>
      </trkpt>
      <trkpt lat="59.20077" lon="17.873684">
        <ele>37.4</ele>
        <time>2020-03-26T14:09:37Z</time>
        <extensions><gpxtpx:TrackPointExtension><gpxtpx:hr>141</gpxtpx:hr></gpxtpx:TrackPointExtension></extensions>
      </trkpt>
      <trkpt lat="59.200764" lon="17.873873">
        <ele>36.6</ele>
        <time>2020-03-26T14:09:38Z</time>
        <extensions><gpxtpx:TrackPointExtension><gpxtpx:hr>140</gpxtpx:hr></gpxtpx:TrackPointExtension></extensions>
      </trkpt>
      <trkpt lat="59.200755" lon="17.874059">
        <ele>35.8</ele>
        <time>2020-03-26T14:09:39Z</time>
        <extensions><gpxtpx:TrackPointExtension><gpxtpx:hr>139</gpxtpx:hr></gpxtpx:TrackPointExtension></extensions>
      </trkpt>
      <trkpt lat="59.200747" lon="17.874242">
        <ele>35.2</ele>
        <time>2020-03-26T14:09:40Z</time>
        <extensions><gpxtpx:TrackPointExtension><gpxtpx:hr>138</gpxtpx:hr></gpxtpx:TrackPointExtension></extensions>
      </trkpt>
      <trkpt lat="59.200736" lon="17.874423">
        <ele>34.8</ele>
        <time>2020-03-26T14:09:41Z</time>
        <extensions><gpxtpx:TrackPointExtension><gpxtpx:hr>137</gpxtpx:hr></gpxtpx:TrackPointExtension></extensions>
      </trkpt>
      <trkpt lat="59.200722" lon="17.8746">
        <ele>34.2</ele>
        <time>2020-03-26T14:09:42Z</time>
        <extensions><gpxtpx:TrackPointExtension><gpxtpx:hr>136</gpxtpx:hr></gpxtpx:TrackPointExtension></extensions>
      </trkpt>
      <trkpt lat="59.200705" lon="17.874771">
        <ele>33.4</ele>
        <time>2020-03-26T14:09:43Z</time>
        <extensions><gpxtpx:TrackPointExtension><gpxtpx:hr>135</gpxtpx:hr></gpxtpx:TrackPointExtension></extensions>
      </trkpt>
      <trkpt lat="59.200686" lon="17.874938">
        <ele>32.8</ele>
        <time>2020-03-26T14:09:44Z</time>
        <extensions><gpxtpx:TrackPointExtension><gpxtpx:hr>134</gpxtpx:hr></gpxtpx:TrackPointExtension></extensions>
      </trkpt>
      <trkpt lat="59.200665" lon="17.8751">
        <ele>32.4</ele>
        <time>2020-03-26T14:09:45Z</time>
        <extensions><gpxtpx:TrackPointExtension><gpxtpx:hr>133</gpxtpx:hr></gpxtpx:TrackPointExtension></extensions>
      </trkpt>
      <trkpt lat="59.200642" lon="17.875259">
        <ele>32.2</ele>
        <time>2020-03-26T14:09:46Z</time>
        <extensions><gpxtpx:TrackPointExtension><gpxtpx:hr>131</gpxtpx:hr></gpxtpx:TrackPointExtension></extensions>
      </trkpt>
      <trkpt lat="59.200616" lon="17.875416">
        <ele>32.2</ele>
        <time>2020-03-26T14:09:47Z</time>
        <extensions><gpxtpx:TrackPointExtension><gpxtpx:hr>129</gpxtpx:hr></gpxtpx:TrackPointExtension></extensions>
      </trkpt>
      <trkpt lat="59.200587" lon="17.875573">
        <ele>32</ele>
        <time>2020-03-26T14:09:48Z</time>
        <extensions><gpxtpx:TrackPointExtension><gpxtpx:hr>127</gpxtpx:hr></gpxtpx:TrackPointExtension></extensions>
      </trkpt>
      <trkpt lat="59.200559" lon="17.875729">
        <ele>32</ele>
        <time>2020-03-26T14:09:49Z</time>
        <extensions><gpxtpx:TrackPointExtension><gpxtpx:hr>125</gpxtpx:hr></gpxtpx:TrackPointExtension></extensions>
      </trkpt>
      <trkpt lat="59.200532" lon="17.875886">
        <ele>31.8</ele>
        <time>2020-03-26T14:09:50Z</time>
        <extensions><gpxtpx:TrackPointExtension><gpxtpx:hr>124</gpxtpx:hr></gpxtpx:TrackPointExtension></extensions>
      </trkpt>
      <trkpt lat="59.200503" lon="17.876043">
        <ele>31.8</ele>
        <time>2020-03-26T14:09:51Z</time>
        <extensions><gpxtpx:TrackPointExtension><gpxtpx:hr>123</gpxtpx:hr></gpxtpx:TrackPointExtension></extensions>
      </trkpt>
      <trkpt lat="59.200474" lon="17.876201">
        <ele>31.8</ele>
        <time>2020-03-26T14:09:52Z</time>
        <extensions><gpxtpx:TrackPointExtension><gpxtpx:hr>124</gpxtpx:hr></gpxtpx:TrackPointExtension></extensions>
      </trkpt>
      <trkpt lat="59.200446" lon="17.876356">
        <ele>31.6</ele>
        <time>2020-03-26T14:09:53Z</time>
        <extensions><gpxtpx:TrackPointExtension><gpxtpx:hr>124</gpxtpx:hr></gpxtpx:TrackPointExtension></extensions>
      </trkpt>
      <trkpt lat="59.200418" lon="17.876511">
        <ele>31.6</ele>
        <time>2020-03-26T14:09:54Z</time>
        <extensions><gpxtpx:TrackPointExtension><gpxtpx:hr>124</gpxtpx:hr></gpxtpx:TrackPointExtension></extensions>
      </trkpt>
      <trkpt lat="59.200389" lon="17.876662">
        <ele>31.6</ele>
        <time>2020-03-26T14:09:55Z</time>
        <extensions><gpxtpx:TrackPointExtension><gpxtpx:hr>125</gpxtpx:hr></gpxtpx:TrackPointExtension></extensions>
      </trkpt>
      <trkpt lat="59.200361" lon="17.876812">
        <ele>31.4</ele>
        <time>2020-03-26T14:09:56Z</time>
        <extensions><gpxtpx:TrackPointExtension><gpxtpx:hr>124</gpxtpx:hr></gpxtpx:TrackPointExtension></extensions>
      </trkpt>
      <trkpt lat="59.200333" lon="17.87696">
        <ele>31.4</ele>
        <time>2020-03-26T14:09:57Z</time>
        <extensions><gpxtpx:TrackPointExtension><gpxtpx:hr>124</gpxtpx:hr></gpxtpx:TrackPointExtension></extensions>
      </trkpt>
      <trkpt lat="59.200307" lon="17.877106">
        <ele>31.4</ele>
        <time>2020-03-26T14:09:58Z</time>
        <extensions><gpxtpx:TrackPointExtension><gpxtpx:hr>124</gpxtpx:hr></gpxtpx:TrackPointExtension></extensions>
      </trkpt>
      <trkpt lat="59.200281" lon="17.87725">
        <ele>31.4</ele>
        <time>2020-03-26T14:09:59Z</time>
        <extensions><gpxtpx:TrackPointExtension><gpxtpx:hr>123</gpxtpx:hr></gpxtpx:TrackPointExtension></extensions>
      </trkpt>
      <trkpt lat="59.200255" lon="17.877393">
        <ele>31.4</ele>
        <time>2020-03-26T14:10:00Z</time>
        <extensions><gpxtpx:TrackPointExtension><gpxtpx:hr>123</gpxtpx:hr></gpxtpx:TrackPointExtension></extensions>
      </trkpt>
      <trkpt lat="59.20023" lon="17.877535">
        <ele>31.4</ele>
        <time>2020-03-26T14:10:01Z</time>
        <extensions><gpxtpx:TrackPointExtension><gpxtpx:hr>123</gpxtpx:hr></gpxtpx:TrackPointExtension></extensions>
      </trkpt>
      <trkpt lat="59.200204" lon="17.877675">
        <ele>31.4</ele>
        <time>2020-03-26T14:10:02Z</time>
        <extensions><gpxtpx:TrackPointExtension><gpxtpx:hr>124</gpxtpx:hr></gpxtpx:TrackPointExtension></extensions>
      </trkpt>
      <trkpt lat="59.200179" lon="17.877814">
        <ele>31.4</ele>
        <time>2020-03-26T14:10:03Z</time>
        <extensions><gpxtpx:TrackPointExtension><gpxtpx:hr>124</gpxtpx:hr></gpxtpx:TrackPointExtension></extensions>
      </trkpt>
      <trkpt lat="59.200152" lon="17.877949">
        <ele>31.4</ele>
        <time>2020-03-26T14:10:04Z</time>
        <extensions><gpxtpx:TrackPointExtension><gpxtpx:hr>124</gpxtpx:hr></gpxtpx:TrackPointExtension></extensions>
      </trkpt>
      <trkpt lat="59.200126" lon="17.878082">
        <ele>31.4</ele>
        <time>2020-03-26T14:10:05Z</time>
        <extensions><gpxtpx:TrackPointExtension><gpxtpx:hr>125</gpxtpx:hr></gpxtpx:TrackPointExtension></extensions>
      </trkpt>
      <trkpt lat="59.2001" lon="17.878216">
        <ele>31.4</ele>
        <time>2020-03-26T14:10:06Z</time>
        <extensions><gpxtpx:TrackPointExtension><gpxtpx:hr>126</gpxtpx:hr></gpxtpx:TrackPointExtension></extensions>
      </trkpt>
      <trkpt lat="59.200075" lon="17.878349">
        <ele>31.4</ele>
        <time>2020-03-26T14:10:07Z</time>
        <extensions><gpxtpx:TrackPointExtension><gpxtpx:hr>126</gpxtpx:hr></gpxtpx:TrackPointExtension></extensions>
      </trkpt>
      <trkpt lat="59.200051" lon="17.878481">
        <ele>31.4</ele>
        <time>2020-03-26T14:10:08Z</time>
        <extensions><gpxtpx:TrackPointExtension><gpxtpx:hr>126</gpxtpx:hr></gpxtpx:TrackPointExtension></extensions>
      </trkpt>
      <trkpt lat="59.200027" lon="17.878614">
        <ele>31.4</ele>
        <time>2020-03-26T14:10:09Z</time>
        <extensions><gpxtpx:TrackPointExtension><gpxtpx:hr>126</gpxtpx:hr></gpxtpx:TrackPointExtension></extensions>
      </trkpt>
      <trkpt lat="59.200003" lon="17.878744">
        <ele>31.4</ele>
        <time>2020-03-26T14:10:10Z</time>
        <extensions><gpxtpx:TrackPointExtension><gpxtpx:hr>126</gpxtpx:hr></gpxtpx:TrackPointExtension></extensions>
      </trkpt>
      <trkpt lat="59.199979" lon="17.878874">
        <ele>31.6</ele>
        <time>2020-03-26T14:10:11Z</time>
        <extensions><gpxtpx:TrackPointExtension><gpxtpx:hr>126</gpxtpx:hr></gpxtpx:TrackPointExtension></extensions>
      </trkpt>
      <trkpt lat="59.199957" lon="17.879004">
        <ele>31.6</ele>
        <time>2020-03-26T14:10:12Z</time>
        <extensions><gpxtpx:TrackPointExtension><gpxtpx:hr>127</gpxtpx:hr></gpxtpx:TrackPointExtension></extensions>
      </trkpt>
      <trkpt lat="59.199934" lon="17.879133">
        <ele>31.6</ele>
        <time>2020-03-26T14:10:13Z</time>
        <extensions><gpxtpx:TrackPointExtension><gpxtpx:hr>128</gpxtpx:hr></gpxtpx:TrackPointExtension></extensions>
      </trkpt>
      <trkpt lat="59.19991" lon="17.879261">
        <ele>31.6</ele>
        <time>2020-03-26T14:10:14Z</time>
        <extensions><gpxtpx:TrackPointExtension><gpxtpx:hr>129</gpxtpx:hr></gpxtpx:TrackPointExtension></extensions>
      </trkpt>
      <trkpt lat="59.199887" lon="17.879389">
        <ele>31.6</ele>
        <time>2020-03-26T14:10:15Z</time>
        <extensions><gpxtpx:TrackPointExtension><gpxtpx:hr>129</gpxtpx:hr></gpxtpx:TrackPointExtension></extensions>
      </trkpt>
      <trkpt lat="59.199865" lon="17.879517">
        <ele>31.8</ele>
        <time>2020-03-26T14:10:16Z</time>
        <extensions><gpxtpx:TrackPointExtension><gpxtpx:hr>129</gpxtpx:hr></gpxtpx:TrackPointExtension></extensions>
      </trkpt>
      <trkpt lat="59.199843" lon="17.879645">
        <ele>31.8</ele>
        <time>2020-03-26T14:10:17Z</time>
        <extensions><gpxtpx:TrackPointExtension><gpxtpx:hr>129</gpxtpx:hr></gpxtpx:TrackPointExtension></extensions>
      </trkpt>
      <trkpt lat="59.19982" lon="17.879772">
        <ele>31.8</ele>
        <time>2020-03-26T14:10:18Z</time>
        <extensions><gpxtpx:TrackPointExtension><gpxtpx:hr>129</gpxtpx:hr></gpxtpx:TrackPointExtension></extensions>
      </trkpt>
      <trkpt lat="59.199799" lon="17.8799">
        <ele>31.8</ele>
        <time>2020-03-26T14:10:19Z</time>
        <extensions><gpxtpx:TrackPointExtension><gpxtpx:hr>129</gpxtpx:hr></gpxtpx:TrackPointExtension></extensions>
      </trkpt>
      <trkpt lat="59.19978" lon="17.880028">
        <ele>31.8</ele>
        <time>2020-03-26T14:10:20Z</time>
        <extensions><gpxtpx:TrackPointExtension><gpxtpx:hr>129</gpxtpx:hr></gpxtpx:TrackPointExtension></extensions>
      </trkpt>
      <trkpt lat="59.199763" lon="17.880154">
        <ele>31.8</ele>
        <time>2020-03-26T14:10:21Z</time>
        <extensions><gpxtpx:TrackPointExtension><gpxtpx:hr>130</gpxtpx:hr></gpxtpx:TrackPointExtension></extensions>
      </trkpt>
      <trkpt lat="59.199745" lon="17.880282">
        <ele>32</ele>
        <time>2020-03-26T14:10:22Z</time>
        <extensions><gpxtpx:TrackPointExtension><gpxtpx:hr>130</gpxtpx:hr></gpxtpx:TrackPointExtension></extensions>
      </trkpt>
      <trkpt lat="59.199728" lon="17.880409">
        <ele>32</ele>
        <time>2020-03-26T14:10:23Z</time>
        <extensions><gpxtpx:TrackPointExtension><gpxtpx:hr>131</gpxtpx:hr></gpxtpx:TrackPointExtension></extensions>
      </trkpt>
      <trkpt lat="59.199711" lon="17.880536">
        <ele>32</ele>
        <time>2020-03-26T14:10:24Z</time>
        <extensions><gpxtpx:TrackPointExtension><gpxtpx:hr>131</gpxtpx:hr></gpxtpx:TrackPointExtension></extensions>
      </trkpt>
      <trkpt lat="59.199695" lon="17.880664">
        <ele>32</ele>
        <time>2020-03-26T14:10:25Z</time>
        <extensions><gpxtpx:TrackPointExtension><gpxtpx:hr>131</gpxtpx:hr></gpxtpx:TrackPointExtension></extensions>
      </trkpt>
      <trkpt lat="59.199679" lon="17.880793">
        <ele>32</ele>
        <time>2020-03-26T14:10:26Z</time>
        <extensions><gpxtpx:TrackPointExtension><gpxtpx:hr>131</gpxtpx:hr></gpxtpx:TrackPointExtension></extensions>
      </trkpt>
      <trkpt lat="59.199665" lon="17.880924">
        <ele>32</ele>
        <time>2020-03-26T14:10:27Z</time>
        <extensions><gpxtpx:TrackPointExtension><gpxtpx:hr>131</gpxtpx:hr></gpxtpx:TrackPointExtension></extensions>
      </trkpt>
      <trkpt lat="59.199652" lon="17.881057">
        <ele>32</ele>
        <time>2020-03-26T14:10:28Z</time>
        <extensions><gpxtpx:TrackPointExtension><gpxtpx:hr>130</gpxtpx:hr></gpxtpx:TrackPointExtension></extensions>
      </trkpt>
      <trkpt lat="59.199641" lon="17.881192">
        <ele>32</ele>
        <time>2020-03-26T14:10:29Z</time>
        <extensions><gpxtpx:TrackPointExtension><gpxtpx:hr>130</gpxtpx:hr></gpxtpx:TrackPointExtension></extensions>
      </trkpt>
      <trkpt lat="59.199629" lon="17.88133">
        <ele>32</ele>
        <time>2020-03-26T14:10:30Z</time>
        <extensions><gpxtpx:TrackPointExtension><gpxtpx:hr>130</gpxtpx:hr></gpxtpx:TrackPointExtension></extensions>
      </trkpt>
      <trkpt lat="59.199618" lon="17.881469">
        <ele>32</ele>
        <time>2020-03-26T14:10:31Z</time>
        <extensions><gpxtpx:TrackPointExtension><gpxtpx:hr>130</gpxtpx:hr></gpxtpx:TrackPointExtension></extensions>
      </trkpt>
      <trkpt lat="59.199607" lon="17.881608">
        <ele>31.8</ele>
        <time>2020-03-26T14:10:32Z</time>
        <extensions><gpxtpx:TrackPointExtension><gpxtpx:hr>129</gpxtpx:hr></gpxtpx:TrackPointExtension></extensions>
      </trkpt>
      <trkpt lat="59.199596" lon="17.881747">
        <ele>31.8</ele>
        <time>2020-03-26T14:10:33Z</time>
        <extensions><gpxtpx:TrackPointExtension><gpxtpx:hr>129</gpxtpx:hr></gpxtpx:TrackPointExtension></extensions>
      </trkpt>
      <trkpt lat="59.199588" lon="17.881888">
        <ele>31.6</ele>
        <time>2020-03-26T14:10:34Z</time>
        <extensions><gpxtpx:TrackPointExtension><gpxtpx:hr>129</gpxtpx:hr></gpxtpx:TrackPointExtension></extensions>
      </trkpt>
      <trkpt lat="59.199579" lon="17.88203">
        <ele>31.6</ele>
        <time>2020-03-26T14:10:35Z</time>
        <extensions><gpxtpx:TrackPointExtension><gpxtpx:hr>129</gpxtpx:hr></gpxtpx:TrackPointExtension></extensions>
      </trkpt>
      <trkpt lat="59.19957" lon="17.882173">
        <ele>31.6</ele>
        <time>2020-03-26T14:10:36Z</time>
        <extensions><gpxtpx:TrackPointExtension><gpxtpx:hr>128</gpxtpx:hr></gpxtpx:TrackPointExtension></extensions>
      </trkpt>
      <trkpt lat="59.199559" lon="17.882317">
        <ele>31.4</ele>
        <time>2020-03-26T14:10:37Z</time>
        <extensions><gpxtpx:TrackPointExtension><gpxtpx:hr>128</gpxtpx:hr></gpxtpx:TrackPointExtension></extensions>
      </trkpt>
      <trkpt lat="59.199545" lon="17.882461">
        <ele>31.4</ele>
        <time>2020-03-26T14:10:38Z</time>
        <extensions><gpxtpx:TrackPointExtension><gpxtpx:hr>126</gpxtpx:hr></gpxtpx:TrackPointExtension></extensions>
      </trkpt>
      <trkpt lat="59.199531" lon="17.882606">
        <ele>31.2</ele>
        <time>2020-03-26T14:10:39Z</time>
        <extensions><gpxtpx:TrackPointExtension><gpxtpx:hr>125</gpxtpx:hr></gpxtpx:TrackPointExtension></extensions>
      </trkpt>
      <trkpt lat="59.199523" lon="17.882751">
        <ele>30.6</ele>
        <time>2020-03-26T14:10:40Z</time>
        <extensions><gpxtpx:TrackPointExtension><gpxtpx:hr>124</gpxtpx:hr></gpxtpx:TrackPointExtension></extensions>
      </trkpt>
      <trkpt lat="59.19952" lon="17.882898">
        <ele>30</ele>
        <time>2020-03-26T14:10:41Z</time>
        <extensions><gpxtpx:TrackPointExtension><gpxtpx:hr>124</gpxtpx:hr></gpxtpx:TrackPointExtension></extensions>
      </trkpt>
      <trkpt lat="59.199521" lon="17.883045">
        <ele>29.6</ele>
        <time>2020-03-26T14:10:42Z</time>
        <extensions><gpxtpx:TrackPointExtension><gpxtpx:hr>124</gpxtpx:hr></gpxtpx:TrackPointExtension></extensions>
      </trkpt>
      <trkpt lat="59.199523" lon="17.883195">
        <ele>29.4</ele>
        <time>2020-03-26T14:10:43Z</time>
        <extensions><gpxtpx:TrackPointExtension><gpxtpx:hr>126</gpxtpx:hr></gpxtpx:TrackPointExtension></extensions>
      </trkpt>
      <trkpt lat="59.199527" lon="17.883352">
        <ele>29.2</ele>
        <time>2020-03-26T14:10:44Z</time>
        <extensions><gpxtpx:TrackPointExtension><gpxtpx:hr>127</gpxtpx:hr></gpxtpx:TrackPointExtension></extensions>
      </trkpt>
      <trkpt lat="59.199531" lon="17.883506">
        <ele>29</ele>
        <time>2020-03-26T14:10:45Z</time>
        <extensions><gpxtpx:TrackPointExtension><gpxtpx:hr>128</gpxtpx:hr></gpxtpx:TrackPointExtension></extensions>
      </trkpt>
      <trkpt lat="59.199537" lon="17.883656">
        <ele>29</ele>
        <time>2020-03-26T14:10:46Z</time>
        <extensions><gpxtpx:TrackPointExtension><gpxtpx:hr>128</gpxtpx:hr></gpxtpx:TrackPointExtension></extensions>
      </trkpt>
      <trkpt lat="59.199542" lon="17.883799">
        <ele>28.6</ele>
        <time>2020-03-26T14:10:47Z</time>
        <extensions><gpxtpx:TrackPointExtension><gpxtpx:hr>128</gpxtpx:hr></gpxtpx:TrackPointExtension></extensions>
      </trkpt>
      <trkpt lat="59.199547" lon="17.883937">
        <ele>28.4</ele>
        <time>2020-03-26T14:10:48Z</time>
        <extensions><gpxtpx:TrackPointExtension><gpxtpx:hr>127</gpxtpx:hr></gpxtpx:TrackPointExtension></extensions>
      </trkpt>
      <trkpt lat="59.199552" lon="17.884073">
        <ele>28.2</ele>
        <time>2020-03-26T14:10:49Z</time>
        <extensions><gpxtpx:TrackPointExtension><gpxtpx:hr>126</gpxtpx:hr></gpxtpx:TrackPointExtension></extensions>
      </trkpt>
      <trkpt lat="59.199562" lon="17.884211">
        <ele>28</ele>
        <time>2020-03-26T14:10:50Z</time>
        <extensions><gpxtpx:TrackPointExtension><gpxtpx:hr>124</gpxtpx:hr></gpxtpx:TrackPointExtension></extensions>
      </trkpt>
      <trkpt lat="59.199575" lon="17.884343">
        <ele>27.8</ele>
        <time>2020-03-26T14:10:51Z</time>
        <extensions><gpxtpx:TrackPointExtension><gpxtpx:hr>123</gpxtpx:hr></gpxtpx:TrackPointExtension></extensions>
      </trkpt>
      <trkpt lat="59.19959" lon="17.884467">
        <ele>27.8</ele>
        <time>2020-03-26T14:10:52Z</time>
        <extensions><gpxtpx:TrackPointExtension><gpxtpx:hr>122</gpxtpx:hr></gpxtpx:TrackPointExtension></extensions>
      </trkpt>
      <trkpt lat="59.199609" lon="17.884589">
        <ele>27.8</ele>
        <time>2020-03-26T14:10:53Z</time>
        <extensions><gpxtpx:TrackPointExtension><gpxtpx:hr>121</gpxtpx:hr></gpxtpx:TrackPointExtension></extensions>
      </trkpt>
      <trkpt lat="59.199636" lon="17.884709">
        <ele>27.8</ele>
        <time>2020-03-26T14:10:54Z</time>
        <extensions><gpxtpx:TrackPointExtension><gpxtpx:hr>121</gpxtpx:hr></gpxtpx:TrackPointExtension></extensions>
      </trkpt>
      <trkpt lat="59.199671" lon="17.88482">
        <ele>27.8</ele>
        <time>2020-03-26T14:10:55Z</time>
        <extensions><gpxtpx:TrackPointExtension><gpxtpx:hr>120</gpxtpx:hr></gpxtpx:TrackPointExtension></extensions>
      </trkpt>
      <trkpt lat="59.199711" lon="17.884926">
        <ele>27.8</ele>
        <time>2020-03-26T14:10:56Z</time>
        <extensions><gpxtpx:TrackPointExtension><gpxtpx:hr>120</gpxtpx:hr></gpxtpx:TrackPointExtension></extensions>
      </trkpt>
      <trkpt lat="59.199748" lon="17.88504">
        <ele>27.8</ele>
        <time>2020-03-26T14:10:57Z</time>
        <extensions><gpxtpx:TrackPointExtension><gpxtpx:hr>120</gpxtpx:hr></gpxtpx:TrackPointExtension></extensions>
      </trkpt>
      <trkpt lat="59.19978" lon="17.885157">
        <ele>27.8</ele>
        <time>2020-03-26T14:10:58Z</time>
        <extensions><gpxtpx:TrackPointExtension><gpxtpx:hr>120</gpxtpx:hr></gpxtpx:TrackPointExtension></extensions>
      </trkpt>
      <trkpt lat="59.199813" lon="17.885273">
        <ele>27.8</ele>
        <time>2020-03-26T14:10:59Z</time>
        <extensions><gpxtpx:TrackPointExtension><gpxtpx:hr>120</gpxtpx:hr></gpxtpx:TrackPointExtension></extensions>
      </trkpt>
      <trkpt lat="59.199848" lon="17.885385">
        <ele>27.8</ele>
        <time>2020-03-26T14:11:00Z</time>
        <extensions><gpxtpx:TrackPointExtension><gpxtpx:hr>121</gpxtpx:hr></gpxtpx:TrackPointExtension></extensions>
      </trkpt>
      <trkpt lat="59.199883" lon="17.885494">
        <ele>27.8</ele>
        <time>2020-03-26T14:11:01Z</time>
        <extensions><gpxtpx:TrackPointExtension><gpxtpx:hr>122</gpxtpx:hr></gpxtpx:TrackPointExtension></extensions>
      </trkpt>
      <trkpt lat="59.199918" lon="17.885601">
        <ele>27.8</ele>
        <time>2020-03-26T14:11:02Z</time>
        <extensions><gpxtpx:TrackPointExtension><gpxtpx:hr>123</gpxtpx:hr></gpxtpx:TrackPointExtension></extensions>
      </trkpt>
      <trkpt lat="59.199954" lon="17.885706">
        <ele>27.8</ele>
        <time>2020-03-26T14:11:03Z</time>
        <extensions><gpxtpx:TrackPointExtension><gpxtpx:hr>124</gpxtpx:hr></gpxtpx:TrackPointExtension></extensions>
      </trkpt>
      <trkpt lat="59.199991" lon="17.885808">
        <ele>28</ele>
        <time>2020-03-26T14:11:04Z</time>
        <extensions><gpxtpx:TrackPointExtension><gpxtpx:hr>126</gpxtpx:hr></gpxtpx:TrackPointExtension></extensions>
      </trkpt>
      <trkpt lat="59.200027" lon="17.885909">
        <ele>28.2</ele>
        <time>2020-03-26T14:11:05Z</time>
        <extensions><gpxtpx:TrackPointExtension><gpxtpx:hr>127</gpxtpx:hr></gpxtpx:TrackPointExtension></extensions>
      </trkpt>
      <trkpt lat="59.200062" lon="17.886012">
        <ele>28.4</ele>
        <time>2020-03-26T14:11:06Z</time>
        <extensions><gpxtpx:TrackPointExtension><gpxtpx:hr>128</gpxtpx:hr></gpxtpx:TrackPointExtension></extensions>
      </trkpt>
      <trkpt lat="59.200097" lon="17.886114">
        <ele>28.6</ele>
        <time>2020-03-26T14:11:07Z</time>
        <extensions><gpxtpx:TrackPointExtension><gpxtpx:hr>129</gpxtpx:hr></gpxtpx:TrackPointExtension></extensions>
      </trkpt>
      <trkpt lat="59.200131" lon="17.886215">
        <ele>28.6</ele>
        <time>2020-03-26T14:11:08Z</time>
        <extensions><gpxtpx:TrackPointExtension><gpxtpx:hr>130</gpxtpx:hr></gpxtpx:TrackPointExtension></extensions>
      </trkpt>
      <trkpt lat="59.200165" lon="17.886315">
        <ele>28.8</ele>
        <time>2020-03-26T14:11:09Z</time>
        <extensions><gpxtpx:TrackPointExtension><gpxtpx:hr>131</gpxtpx:hr></gpxtpx:TrackPointExtension></extensions>
      </trkpt>
      <trkpt lat="59.200197" lon="17.886413">
        <ele>29.2</ele>
        <time>2020-03-26T14:11:10Z</time>
        <extensions><gpxtpx:TrackPointExtension><gpxtpx:hr>132</gpxtpx:hr></gpxtpx:TrackPointExtension></extensions>
      </trkpt>
      <trkpt lat="59.200232" lon="17.886509">
        <ele>29.6</ele>
        <time>2020-03-26T14:11:11Z</time>
        <extensions><gpxtpx:TrackPointExtension><gpxtpx:hr>132</gpxtpx:hr></gpxtpx:TrackPointExtension></extensions>
      </trkpt>
      <trkpt lat="59.200268" lon="17.886604">
        <ele>29.8</ele>
        <time>2020-03-26T14:11:12Z</time>
        <extensions><gpxtpx:TrackPointExtension><gpxtpx:hr>134</gpxtpx:hr></gpxtpx:TrackPointExtension></extensions>
      </trkpt>
      <trkpt lat="59.200303" lon="17.886705">
        <ele>30</ele>
        <time>2020-03-26T14:11:13Z</time>
        <extensions><gpxtpx:TrackPointExtension><gpxtpx:hr>135</gpxtpx:hr></gpxtpx:TrackPointExtension></extensions>
      </trkpt>
      <trkpt lat="59.200337" lon="17.886808">
        <ele>30.2</ele>
        <time>2020-03-26T14:11:14Z</time>
        <extensions><gpxtpx:TrackPointExtension><gpxtpx:hr>136</gpxtpx:hr></gpxtpx:TrackPointExtension></extensions>
      </trkpt>
      <trkpt lat="59.200373" lon="17.886913">
        <ele>30.6</ele>
        <time>2020-03-26T14:11:15Z</time>
        <extensions><gpxtpx:TrackPointExtension><gpxtpx:hr>138</gpxtpx:hr></gpxtpx:TrackPointExtension></extensions>
      </trkpt>
      <trkpt lat="59.200407" lon="17.887016">
        <ele>30.6</ele>
        <time>2020-03-26T14:11:16Z</time>
        <extensions><gpxtpx:TrackPointExtension><gpxtpx:hr>138</gpxtpx:hr></gpxtpx:TrackPointExtension></extensions>
      </trkpt>
      <trkpt lat="59.200439" lon="17.887116">
        <ele>30.8</ele>
        <time>2020-03-26T14:11:17Z</time>
        <extensions><gpxtpx:TrackPointExtension><gpxtpx:hr>139</gpxtpx:hr></gpxtpx:TrackPointExtension></extensions>
      </trkpt>
      <trkpt lat="59.200469" lon="17.887213">
        <ele>31.2</ele>
        <time>2020-03-26T14:11:18Z</time>
        <extensions><gpxtpx:TrackPointExtension><gpxtpx:hr>140</gpxtpx:hr></gpxtpx:TrackPointExtension></extensions>
      </trkpt>
      <trkpt lat="59.200503" lon="17.887307">
        <ele>31.4</ele>
        <time>2020-03-26T14:11:19Z</time>
        <extensions><gpxtpx:TrackPointExtension><gpxtpx:hr>140</gpxtpx:hr></gpxtpx:TrackPointExtension></extensions>
      </trkpt>
      <trkpt lat="59.200538" lon="17.887398">
        <ele>31.8</ele>
        <time>2020-03-26T14:11:20Z</time>
        <extensions><gpxtpx:TrackPointExtension><gpxtpx:hr>140</gpxtpx:hr></gpxtpx:TrackPointExtension></extensions>
      </trkpt>
      <trkpt lat="59.200571" lon="17.887487">
        <ele>32</ele>
        <time>2020-03-26T14:11:21Z</time>
        <extensions><gpxtpx:TrackPointExtension><gpxtpx:hr>141</gpxtpx:hr></gpxtpx:TrackPointExtension></extensions>
      </trkpt>
      <trkpt lat="59.200604" lon="17.887577">
        <ele>32.4</ele>
        <time>2020-03-26T14:11:22Z</time>
        <extensions><gpxtpx:TrackPointExtension><gpxtpx:hr>141</gpxtpx:hr></gpxtpx:TrackPointExtension></extensions>
      </trkpt>
      <trkpt lat="59.200637" lon="17.887667">
        <ele>32.8</ele>
        <time>2020-03-26T14:11:23Z</time>
        <extensions><gpxtpx:TrackPointExtension><gpxtpx:hr>142</gpxtpx:hr></gpxtpx:TrackPointExtension></extensions>
      </trkpt>
      <trkpt lat="59.200671" lon="17.887756">
        <ele>33</ele>
        <time>2020-03-26T14:11:24Z</time>
        <extensions><gpxtpx:TrackPointExtension><gpxtpx:hr>142</gpxtpx:hr></gpxtpx:TrackPointExtension></extensions>
      </trkpt>
      <trkpt lat="59.200705" lon="17.887846">
        <ele>33</ele>
        <time>2020-03-26T14:11:25Z</time>
        <extensions><gpxtpx:TrackPointExtension><gpxtpx:hr>143</gpxtpx:hr></gpxtpx:TrackPointExtension></extensions>
      </trkpt>
      <trkpt lat="59.200738" lon="17.887936">
        <ele>33.2</ele>
        <time>2020-03-26T14:11:26Z</time>
        <extensions><gpxtpx:TrackPointExtension><gpxtpx:hr>143</gpxtpx:hr></gpxtpx:TrackPointExtension></extensions>
      </trkpt>
      <trkpt lat="59.200774" lon="17.888026">
        <ele>33.4</ele>
        <time>2020-03-26T14:11:27Z</time>
        <extensions><gpxtpx:TrackPointExtension><gpxtpx:hr>143</gpxtpx:hr></gpxtpx:TrackPointExtension></extensions>
      </trkpt>
      <trkpt lat="59.200808" lon="17.888116">
        <ele>33.8</ele>
        <time>2020-03-26T14:11:28Z</time>
        <extensions><gpxtpx:TrackPointExtension><gpxtpx:hr>144</gpxtpx:hr></gpxtpx:TrackPointExtension></extensions>
      </trkpt>
      <trkpt lat="59.200843" lon="17.88821">
        <ele>34</ele>
        <time>2020-03-26T14:11:29Z</time>
        <extensions><gpxtpx:TrackPointExtension><gpxtpx:hr>144</gpxtpx:hr></gpxtpx:TrackPointExtension></extensions>
      </trkpt>
      <trkpt lat="59.200879" lon="17.888306">
        <ele>34.2</ele>
        <time>2020-03-26T14:11:30Z</time>
        <extensions><gpxtpx:TrackPointExtension><gpxtpx:hr>144</gpxtpx:hr></gpxtpx:TrackPointExtension></extensions>
      </trkpt>
      <trkpt lat="59.200914" lon="17.888401">
        <ele>34.2</ele>
        <time>2020-03-26T14:11:31Z</time>
        <extensions><gpxtpx:TrackPointExtension><gpxtpx:hr>144</gpxtpx:hr></gpxtpx:TrackPointExtension></extensions>
      </trkpt>
      <trkpt lat="59.200948" lon="17.888498">
        <ele>34.4</ele>
        <time>2020-03-26T14:11:32Z</time>
        <extensions><gpxtpx:TrackPointExtension><gpxtpx:hr>144</gpxtpx:hr></gpxtpx:TrackPointExtension></extensions>
      </trkpt>
      <trkpt lat="59.200986" lon="17.888596">
        <ele>34.4</ele>
        <time>2020-03-26T14:11:33Z</time>
        <extensions><gpxtpx:TrackPointExtension><gpxtpx:hr>144</gpxtpx:hr></gpxtpx:TrackPointExtension></extensions>
      </trkpt>
      <trkpt lat="59.201021" lon="17.888697">
        <ele>34.6</ele>
        <time>2020-03-26T14:11:34Z</time>
        <extensions><gpxtpx:TrackPointExtension><gpxtpx:hr>144</gpxtpx:hr></gpxtpx:TrackPointExtension></extensions>
      </trkpt>
      <trkpt lat="59.201054" lon="17.888799">
        <ele>34.6</ele>
        <time>2020-03-26T14:11:35Z</time>
        <extensions><gpxtpx:TrackPointExtension><gpxtpx:hr>144</gpxtpx:hr></gpxtpx:TrackPointExtension></extensions>
      </trkpt>
      <trkpt lat="59.201085" lon="17.8889">
        <ele>34.6</ele>
        <time>2020-03-26T14:11:36Z</time>
        <extensions><gpxtpx:TrackPointExtension><gpxtpx:hr>145</gpxtpx:hr></gpxtpx:TrackPointExtension></extensions>
      </trkpt>
      <trkpt lat="59.201117" lon="17.889003">
        <ele>34.8</ele>
        <time>2020-03-26T14:11:37Z</time>
        <extensions><gpxtpx:TrackPointExtension><gpxtpx:hr>144</gpxtpx:hr></gpxtpx:TrackPointExtension></extensions>
      </trkpt>
      <trkpt lat="59.201149" lon="17.889108">
        <ele>34.8</ele>
        <time>2020-03-26T14:11:38Z</time>
        <extensions><gpxtpx:TrackPointExtension><gpxtpx:hr>144</gpxtpx:hr></gpxtpx:TrackPointExtension></extensions>
      </trkpt>
      <trkpt lat="59.201181" lon="17.889214">
        <ele>34.8</ele>
        <time>2020-03-26T14:11:39Z</time>
        <extensions><gpxtpx:TrackPointExtension><gpxtpx:hr>144</gpxtpx:hr></gpxtpx:TrackPointExtension></extensions>
      </trkpt>
      <trkpt lat="59.201213" lon="17.889319">
        <ele>34.8</ele>
        <time>2020-03-26T14:11:40Z</time>
        <extensions><gpxtpx:TrackPointExtension><gpxtpx:hr>143</gpxtpx:hr></gpxtpx:TrackPointExtension></extensions>
      </trkpt>
      <trkpt lat="59.201243" lon="17.889425">
        <ele>34.8</ele>
        <time>2020-03-26T14:11:41Z</time>
        <extensions><gpxtpx:TrackPointExtension><gpxtpx:hr>143</gpxtpx:hr></gpxtpx:TrackPointExtension></extensions>
      </trkpt>
      <trkpt lat="59.201269" lon="17.889533">
        <ele>34.8</ele>
        <time>2020-03-26T14:11:42Z</time>
        <extensions><gpxtpx:TrackPointExtension><gpxtpx:hr>143</gpxtpx:hr></gpxtpx:TrackPointExtension></extensions>
      </trkpt>
      <trkpt lat="59.201297" lon="17.889644">
        <ele>35</ele>
        <time>2020-03-26T14:11:43Z</time>
        <extensions><gpxtpx:TrackPointExtension><gpxtpx:hr>142</gpxtpx:hr></gpxtpx:TrackPointExtension></extensions>
      </trkpt>
      <trkpt lat="59.201323" lon="17.889756">
        <ele>35</ele>
        <time>2020-03-26T14:11:44Z</time>
        <extensions><gpxtpx:TrackPointExtension><gpxtpx:hr>142</gpxtpx:hr></gpxtpx:TrackPointExtension></extensions>
      </trkpt>
      <trkpt lat="59.201351" lon="17.889869">
        <ele>35</ele>
        <time>2020-03-26T14:11:45Z</time>
        <extensions><gpxtpx:TrackPointExtension><gpxtpx:hr>142</gpxtpx:hr></gpxtpx:TrackPointExtension></extensions>
      </trkpt>
      <trkpt lat="59.201376" lon="17.889981">
        <ele>35</ele>
        <time>2020-03-26T14:11:46Z</time>
        <extensions><gpxtpx:TrackPointExtension><gpxtpx:hr>142</gpxtpx:hr></gpxtpx:TrackPointExtension></extensions>
      </trkpt>
      <trkpt lat="59.201397" lon="17.890095">
        <ele>35</ele>
        <time>2020-03-26T14:11:47Z</time>
        <extensions><gpxtpx:TrackPointExtension><gpxtpx:hr>142</gpxtpx:hr></gpxtpx:TrackPointExtension></extensions>
      </trkpt>
      <trkpt lat="59.201422" lon="17.89021">
        <ele>35</ele>
        <time>2020-03-26T14:11:48Z</time>
        <extensions><gpxtpx:TrackPointExtension><gpxtpx:hr>141</gpxtpx:hr></gpxtpx:TrackPointExtension></extensions>
      </trkpt>
      <trkpt lat="59.201449" lon="17.890323">
        <ele>35</ele>
        <time>2020-03-26T14:11:49Z</time>
        <extensions><gpxtpx:TrackPointExtension><gpxtpx:hr>141</gpxtpx:hr></gpxtpx:TrackPointExtension></extensions>
      </trkpt>
      <trkpt lat="59.201473" lon="17.890436">
        <ele>35</ele>
        <time>2020-03-26T14:11:50Z</time>
        <extensions><gpxtpx:TrackPointExtension><gpxtpx:hr>141</gpxtpx:hr></gpxtpx:TrackPointExtension></extensions>
      </trkpt>
      <trkpt lat="59.201497" lon="17.89055">
        <ele>35</ele>
        <time>2020-03-26T14:11:51Z</time>
        <extensions><gpxtpx:TrackPointExtension><gpxtpx:hr>140</gpxtpx:hr></gpxtpx:TrackPointExtension></extensions>
      </trkpt>
      <trkpt lat="59.201522" lon="17.890662">
        <ele>35.2</ele>
        <time>2020-03-26T14:11:52Z</time>
        <extensions><gpxtpx:TrackPointExtension><gpxtpx:hr>139</gpxtpx:hr></gpxtpx:TrackPointExtension></extensions>
      </trkpt>
      <trkpt lat="59.201548" lon="17.890774">
        <ele>35.2</ele>
        <time>2020-03-26T14:11:53Z</time>
        <extensions><gpxtpx:TrackPointExtension><gpxtpx:hr>138</gpxtpx:hr></gpxtpx:TrackPointExtension></extensions>
      </trkpt>
      <trkpt lat="59.201574" lon="17.890885">
        <ele>35.2</ele>
        <time>2020-03-26T14:11:54Z</time>
        <extensions><gpxtpx:TrackPointExtension><gpxtpx:hr>138</gpxtpx:hr></gpxtpx:TrackPointExtension></extensions>
      </trkpt>
      <trkpt lat="59.2016" lon="17.890995">
        <ele>35.2</ele>
        <time>2020-03-26T14:11:55Z</time>
        <extensions><gpxtpx:TrackPointExtension><gpxtpx:hr>137</gpxtpx:hr></gpxtpx:TrackPointExtension></extensions>
      </trkpt>
      <trkpt lat="59.201624" lon="17.891106">
        <ele>35.2</ele>
        <time>2020-03-26T14:11:56Z</time>
        <extensions><gpxtpx:TrackPointExtension><gpxtpx:hr>137</gpxtpx:hr></gpxtpx:TrackPointExtension></extensions>
      </trkpt>
      <trkpt lat="59.201654" lon="17.891219">
        <ele>35.4</ele>
        <time>2020-03-26T14:11:57Z</time>
        <extensions><gpxtpx:TrackPointExtension><gpxtpx:hr>137</gpxtpx:hr></gpxtpx:TrackPointExtension></extensions>
      </trkpt>
      <trkpt lat="59.201679" lon="17.891328">
        <ele>35.4</ele>
        <time>2020-03-26T14:11:58Z</time>
        <extensions><gpxtpx:TrackPointExtension><gpxtpx:hr>136</gpxtpx:hr></gpxtpx:TrackPointExtension></extensions>
      </trkpt>
      <trkpt lat="59.201705" lon="17.891439">
        <ele>35.4</ele>
        <time>2020-03-26T14:11:59Z</time>
        <extensions><gpxtpx:TrackPointExtension><gpxtpx:hr>136</gpxtpx:hr></gpxtpx:TrackPointExtension></extensions>
      </trkpt>
      <trkpt lat="59.201733" lon="17.891552">
        <ele>35.6</ele>
        <time>2020-03-26T14:12:00Z</time>
        <extensions><gpxtpx:TrackPointExtension><gpxtpx:hr>136</gpxtpx:hr></gpxtpx:TrackPointExtension></extensions>
      </trkpt>
      <trkpt lat="59.201762" lon="17.891665">
        <ele>35.6</ele>
        <time>2020-03-26T14:12:01Z</time>
        <extensions><gpxtpx:TrackPointExtension><gpxtpx:hr>136</gpxtpx:hr></gpxtpx:TrackPointExtension></extensions>
      </trkpt>
      <trkpt lat="59.201788" lon="17.891778">
        <ele>35.6</ele>
        <time>2020-03-26T14:12:02Z</time>
        <extensions><gpxtpx:TrackPointExtension><gpxtpx:hr>136</gpxtpx:hr></gpxtpx:TrackPointExtension></extensions>
      </trkpt>
      <trkpt lat="59.201813" lon="17.891893">
        <ele>35.8</ele>
        <time>2020-03-26T14:12:03Z</time>
        <extensions><gpxtpx:TrackPointExtension><gpxtpx:hr>136</gpxtpx:hr></gpxtpx:TrackPointExtension></extensions>
      </trkpt>
      <trkpt lat="59.201838" lon="17.892005">
        <ele>36</ele>
        <time>2020-03-26T14:12:04Z</time>
        <extensions><gpxtpx:TrackPointExtension><gpxtpx:hr>136</gpxtpx:hr></gpxtpx:TrackPointExtension></extensions>
      </trkpt>
      <trkpt lat="59.201863" lon="17.892115">
        <ele>36</ele>
        <time>2020-03-26T14:12:05Z</time>
        <extensions><gpxtpx:TrackPointExtension><gpxtpx:hr>136</gpxtpx:hr></gpxtpx:TrackPointExtension></extensions>
      </trkpt>
      <trkpt lat="59.201888" lon="17.892225">
        <ele>36</ele>
        <time>2020-03-26T14:12:06Z</time>
        <extensions><gpxtpx:TrackPointExtension><gpxtpx:hr>136</gpxtpx:hr></gpxtpx:TrackPointExtension></extensions>
      </trkpt>
      <trkpt lat="59.201914" lon="17.892335">
        <ele>36.2</ele>
        <time>2020-03-26T14:12:07Z</time>
        <extensions><gpxtpx:TrackPointExtension><gpxtpx:hr>136</gpxtpx:hr></gpxtpx:TrackPointExtension></extensions>
      </trkpt>
      <trkpt lat="59.201944" lon="17.892448">
        <ele>36.2</ele>
        <time>2020-03-26T14:12:08Z</time>
        <extensions><gpxtpx:TrackPointExtension><gpxtpx:hr>136</gpxtpx:hr></gpxtpx:TrackPointExtension></extensions>
      </trkpt>
      <trkpt lat="59.20197" lon="17.892559">
        <ele>36.4</ele>
        <time>2020-03-26T14:12:09Z</time>
        <extensions><gpxtpx:TrackPointExtension><gpxtpx:hr>136</gpxtpx:hr></gpxtpx:TrackPointExtension></extensions>
      </trkpt>
      <trkpt lat="59.201995" lon="17.892668">
        <ele>36.4</ele>
        <time>2020-03-26T14:12:10Z</time>
        <extensions><gpxtpx:TrackPointExtension><gpxtpx:hr>135</gpxtpx:hr></gpxtpx:TrackPointExtension></extensions>
      </trkpt>
      <trkpt lat="59.20202" lon="17.892778">
        <ele>36.4</ele>
        <time>2020-03-26T14:12:11Z</time>
        <extensions><gpxtpx:TrackPointExtension><gpxtpx:hr>135</gpxtpx:hr></gpxtpx:TrackPointExtension></extensions>
      </trkpt>
      <trkpt lat="59.202046" lon="17.892888">
        <ele>36.4</ele>
        <time>2020-03-26T14:12:12Z</time>
        <extensions><gpxtpx:TrackPointExtension><gpxtpx:hr>135</gpxtpx:hr></gpxtpx:TrackPointExtension></extensions>
      </trkpt>
      <trkpt lat="59.20207" lon="17.892994">
        <ele>36.4</ele>
        <time>2020-03-26T14:12:13Z</time>
        <extensions><gpxtpx:TrackPointExtension><gpxtpx:hr>135</gpxtpx:hr></gpxtpx:TrackPointExtension></extensions>
      </trkpt>
      <trkpt lat="59.202092" lon="17.893097">
        <ele>36.6</ele>
        <time>2020-03-26T14:12:14Z</time>
        <extensions><gpxtpx:TrackPointExtension><gpxtpx:hr>134</gpxtpx:hr></gpxtpx:TrackPointExtension></extensions>
      </trkpt>
      <trkpt lat="59.202114" lon="17.893197">
        <ele>36.6</ele>
        <time>2020-03-26T14:12:15Z</time>
        <extensions><gpxtpx:TrackPointExtension><gpxtpx:hr>134</gpxtpx:hr></gpxtpx:TrackPointExtension></extensions>
      </trkpt>
      <trkpt lat="59.202142" lon="17.893297">
        <ele>36.6</ele>
        <time>2020-03-26T14:12:16Z</time>
        <extensions><gpxtpx:TrackPointExtension><gpxtpx:hr>133</gpxtpx:hr></gpxtpx:TrackPointExtension></extensions>
      </trkpt>
      <trkpt lat="59.202174" lon="17.893395">
        <ele>36.8</ele>
        <time>2020-03-26T14:12:17Z</time>
        <extensions><gpxtpx:TrackPointExtension><gpxtpx:hr>132</gpxtpx:hr></gpxtpx:TrackPointExtension></extensions>
      </trkpt>
      <trkpt lat="59.202208" lon="17.893495">
        <ele>36.8</ele>
        <time>2020-03-26T14:12:18Z</time>
        <extensions><gpxtpx:TrackPointExtension><gpxtpx:hr>131</gpxtpx:hr></gpxtpx:TrackPointExtension></extensions>
      </trkpt>
      <trkpt lat="59.202244" lon="17.893596">
        <ele>37</ele>
        <time>2020-03-26T14:12:19Z</time>
        <extensions><gpxtpx:TrackPointExtension><gpxtpx:hr>130</gpxtpx:hr></gpxtpx:TrackPointExtension></extensions>
      </trkpt>
      <trkpt lat="59.202282" lon="17.893697">
        <ele>37.2</ele>
        <time>2020-03-26T14:12:20Z</time>
        <extensions><gpxtpx:TrackPointExtension><gpxtpx:hr>129</gpxtpx:hr></gpxtpx:TrackPointExtension></extensions>
      </trkpt>
      <trkpt lat="59.202322" lon="17.893798">
        <ele>37.2</ele>
        <time>2020-03-26T14:12:21Z</time>
        <extensions><gpxtpx:TrackPointExtension><gpxtpx:hr>129</gpxtpx:hr></gpxtpx:TrackPointExtension></extensions>
      </trkpt>
      <trkpt lat="59.202363" lon="17.893899">
        <ele>37.2</ele>
        <time>2020-03-26T14:12:22Z</time>
        <extensions><gpxtpx:TrackPointExtension><gpxtpx:hr>130</gpxtpx:hr></gpxtpx:TrackPointExtension></extensions>
      </trkpt>
      <trkpt lat="59.202408" lon="17.893996">
        <ele>37.2</ele>
        <time>2020-03-26T14:12:23Z</time>
        <extensions><gpxtpx:TrackPointExtension><gpxtpx:hr>130</gpxtpx:hr></gpxtpx:TrackPointExtension></extensions>
      </trkpt>
      <trkpt lat="59.202457" lon="17.894088">
        <ele>37.2</ele>
        <time>2020-03-26T14:12:24Z</time>
        <extensions><gpxtpx:TrackPointExtension><gpxtpx:hr>131</gpxtpx:hr></gpxtpx:TrackPointExtension></extensions>
      </trkpt>
      <trkpt lat="59.202508" lon="17.894179">
        <ele>37.2</ele>
        <time>2020-03-26T14:12:25Z</time>
        <extensions><gpxtpx:TrackPointExtension><gpxtpx:hr>131</gpxtpx:hr></gpxtpx:TrackPointExtension></extensions>
      </trkpt>
      <trkpt lat="59.202557" lon="17.894276">
        <ele>37.2</ele>
        <time>2020-03-26T14:12:26Z</time>
        <extensions><gpxtpx:TrackPointExtension><gpxtpx:hr>131</gpxtpx:hr></gpxtpx:TrackPointExtension></extensions>
      </trkpt>
      <trkpt lat="59.202602" lon="17.894378">
        <ele>37.2</ele>
        <time>2020-03-26T14:12:27Z</time>
        <extensions><gpxtpx:TrackPointExtension><gpxtpx:hr>131</gpxtpx:hr></gpxtpx:TrackPointExtension></extensions>
      </trkpt>
      <trkpt lat="59.202642" lon="17.894485">
        <ele>37.2</ele>
        <time>2020-03-26T14:12:28Z</time>
        <extensions><gpxtpx:TrackPointExtension><gpxtpx:hr>130</gpxtpx:hr></gpxtpx:TrackPointExtension></extensions>
      </trkpt>
      <trkpt lat="59.202681" lon="17.894592">
        <ele>37.2</ele>
        <time>2020-03-26T14:12:29Z</time>
        <extensions><gpxtpx:TrackPointExtension><gpxtpx:hr>129</gpxtpx:hr></gpxtpx:TrackPointExtension></extensions>
      </trkpt>
      <trkpt lat="59.202721" lon="17.894701">
        <ele>37.2</ele>
        <time>2020-03-26T14:12:30Z</time>
        <extensions><gpxtpx:TrackPointExtension><gpxtpx:hr>129</gpxtpx:hr></gpxtpx:TrackPointExtension></extensions>
      </trkpt>
      <trkpt lat="59.20276" lon="17.894813">
        <ele>37.2</ele>
        <time>2020-03-26T14:12:31Z</time>
        <extensions><gpxtpx:TrackPointExtension><gpxtpx:hr>128</gpxtpx:hr></gpxtpx:TrackPointExtension></extensions>
      </trkpt>
      <trkpt lat="59.202799" lon="17.894926">
        <ele>37.2</ele>
        <time>2020-03-26T14:12:32Z</time>
        <extensions><gpxtpx:TrackPointExtension><gpxtpx:hr>128</gpxtpx:hr></gpxtpx:TrackPointExtension></extensions>
      </trkpt>
      <trkpt lat="59.202837" lon="17.89504">
        <ele>37</ele>
        <time>2020-03-26T14:12:33Z</time>
        <extensions><gpxtpx:TrackPointExtension><gpxtpx:hr>127</gpxtpx:hr></gpxtpx:TrackPointExtension></extensions>
      </trkpt>
      <trkpt lat="59.202875" lon="17.895155">
        <ele>37</ele>
        <time>2020-03-26T14:12:34Z</time>
        <extensions><gpxtpx:TrackPointExtension><gpxtpx:hr>126</gpxtpx:hr></gpxtpx:TrackPointExtension></extensions>
      </trkpt>
      <trkpt lat="59.202913" lon="17.89527">
        <ele>37</ele>
        <time>2020-03-26T14:12:35Z</time>
        <extensions><gpxtpx:TrackPointExtension><gpxtpx:hr>126</gpxtpx:hr></gpxtpx:TrackPointExtension></extensions>
      </trkpt>
      <trkpt lat="59.20295" lon="17.895385">
        <ele>37</ele>
        <time>2020-03-26T14:12:36Z</time>
        <extensions><gpxtpx:TrackPointExtension><gpxtpx:hr>125</gpxtpx:hr></gpxtpx:TrackPointExtension></extensions>
      </trkpt>
      <trkpt lat="59.202989" lon="17.8955">
        <ele>36.8</ele>
        <time>2020-03-26T14:12:37Z</time>
        <extensions><gpxtpx:TrackPointExtension><gpxtpx:hr>125</gpxtpx:hr></gpxtpx:TrackPointExtension></extensions>
      </trkpt>
      <trkpt lat="59.203027" lon="17.895616">
        <ele>36.8</ele>
        <time>2020-03-26T14:12:38Z</time>
        <extensions><gpxtpx:TrackPointExtension><gpxtpx:hr>125</gpxtpx:hr></gpxtpx:TrackPointExtension></extensions>
      </trkpt>
      <trkpt lat="59.203065" lon="17.895732">
        <ele>36.8</ele>
        <time>2020-03-26T14:12:39Z</time>
        <extensions><gpxtpx:TrackPointExtension><gpxtpx:hr>125</gpxtpx:hr></gpxtpx:TrackPointExtension></extensions>
      </trkpt>
      <trkpt lat="59.203104" lon="17.895849">
        <ele>36.8</ele>
        <time>2020-03-26T14:12:40Z</time>
        <extensions><gpxtpx:TrackPointExtension><gpxtpx:hr>125</gpxtpx:hr></gpxtpx:TrackPointExtension></extensions>
      </trkpt>
      <trkpt lat="59.203144" lon="17.895968">
        <ele>36.6</ele>
        <time>2020-03-26T14:12:41Z</time>
        <extensions><gpxtpx:TrackPointExtension><gpxtpx:hr>125</gpxtpx:hr></gpxtpx:TrackPointExtension></extensions>
      </trkpt>
      <trkpt lat="59.203179" lon="17.896088">
        <ele>36.4</ele>
        <time>2020-03-26T14:12:42Z</time>
        <extensions><gpxtpx:TrackPointExtension><gpxtpx:hr>124</gpxtpx:hr></gpxtpx:TrackPointExtension></extensions>
      </trkpt>
      <trkpt lat="59.203214" lon="17.896212">
        <ele>36.2</ele>
        <time>2020-03-26T14:12:43Z</time>
        <extensions><gpxtpx:TrackPointExtension><gpxtpx:hr>123</gpxtpx:hr></gpxtpx:TrackPointExtension></extensions>
      </trkpt>
      <trkpt lat="59.203248" lon="17.896334">
        <ele>36.2</ele>
        <time>2020-03-26T14:12:44Z</time>
        <extensions><gpxtpx:TrackPointExtension><gpxtpx:hr>122</gpxtpx:hr></gpxtpx:TrackPointExtension></extensions>
      </trkpt>
      <trkpt lat="59.203286" lon="17.896453">
        <ele>36.2</ele>
        <time>2020-03-26T14:12:45Z</time>
        <extensions><gpxtpx:TrackPointExtension><gpxtpx:hr>120</gpxtpx:hr></gpxtpx:TrackPointExtension></extensions>
      </trkpt>
      <trkpt lat="59.203323" lon="17.89657">
        <ele>36.2</ele>
        <time>2020-03-26T14:12:46Z</time>
        <extensions><gpxtpx:TrackPointExtension><gpxtpx:hr>119</gpxtpx:hr></gpxtpx:TrackPointExtension></extensions>
      </trkpt>
      <trkpt lat="59.203359" lon="17.896684">
        <ele>36</ele>
        <time>2020-03-26T14:12:47Z</time>
        <extensions><gpxtpx:TrackPointExtension><gpxtpx:hr>118</gpxtpx:hr></gpxtpx:TrackPointExtension></extensions>
      </trkpt>
      <trkpt lat="59.203394" lon="17.896798">
        <ele>36</ele>
        <time>2020-03-26T14:12:48Z</time>
        <extensions><gpxtpx:TrackPointExtension><gpxtpx:hr>118</gpxtpx:hr></gpxtpx:TrackPointExtension></extensions>
      </trkpt>
      <trkpt lat="59.203431" lon="17.89691">
        <ele>36</ele>
        <time>2020-03-26T14:12:49Z</time>
        <extensions><gpxtpx:TrackPointExtension><gpxtpx:hr>119</gpxtpx:hr></gpxtpx:TrackPointExtension></extensions>
      </trkpt>
      <trkpt lat="59.203469" lon="17.897022">
        <ele>36</ele>
        <time>2020-03-26T14:12:50Z</time>
        <extensions><gpxtpx:TrackPointExtension><gpxtpx:hr>120</gpxtpx:hr></gpxtpx:TrackPointExtension></extensions>
      </trkpt>
      <trkpt lat="59.203507" lon="17.897132">
        <ele>36</ele>
        <time>2020-03-26T14:12:51Z</time>
        <extensions><gpxtpx:TrackPointExtension><gpxtpx:hr>121</gpxtpx:hr></gpxtpx:TrackPointExtension></extensions>
      </trkpt>
      <trkpt lat="59.203546" lon="17.897241">
        <ele>35.8</ele>
        <time>2020-03-26T14:12:52Z</time>
        <extensions><gpxtpx:TrackPointExtension><gpxtpx:hr>122</gpxtpx:hr></gpxtpx:TrackPointExtension></extensions>
      </trkpt>
      <trkpt lat="59.203586" lon="17.897348">
        <ele>35.8</ele>
        <time>2020-03-26T14:12:53Z</time>
        <extensions><gpxtpx:TrackPointExtension><gpxtpx:hr>123</gpxtpx:hr></gpxtpx:TrackPointExtension></extensions>
      </trkpt>
      <trkpt lat="59.203626" lon="17.897457">
        <ele>35.8</ele>
        <time>2020-03-26T14:12:54Z</time>
        <extensions><gpxtpx:TrackPointExtension><gpxtpx:hr>123</gpxtpx:hr></gpxtpx:TrackPointExtension></extensions>
      </trkpt>
      <trkpt lat="59.203665" lon="17.897565">
        <ele>35.8</ele>
        <time>2020-03-26T14:12:55Z</time>
        <extensions><gpxtpx:TrackPointExtension><gpxtpx:hr>123</gpxtpx:hr></gpxtpx:TrackPointExtension></extensions>
      </trkpt>
      <trkpt lat="59.203705" lon="17.897673">
        <ele>35.8</ele>
        <time>2020-03-26T14:12:56Z</time>
        <extensions><gpxtpx:TrackPointExtension><gpxtpx:hr>123</gpxtpx:hr></gpxtpx:TrackPointExtension></extensions>
      </trkpt>
      <trkpt lat="59.203744" lon="17.897782">
        <ele>35.8</ele>
        <time>2020-03-26T14:12:57Z</time>
        <extensions><gpxtpx:TrackPointExtension><gpxtpx:hr>123</gpxtpx:hr></gpxtpx:TrackPointExtension></extensions>
      </trkpt>
      <trkpt lat="59.203782" lon="17.897892">
        <ele>35.8</ele>
        <time>2020-03-26T14:12:58Z</time>
        <extensions><gpxtpx:TrackPointExtension><gpxtpx:hr>122</gpxtpx:hr></gpxtpx:TrackPointExtension></extensions>
      </trkpt>
      <trkpt lat="59.203821" lon="17.898004">
        <ele>35.8</ele>
        <time>2020-03-26T14:12:59Z</time>
        <extensions><gpxtpx:TrackPointExtension><gpxtpx:hr>122</gpxtpx:hr></gpxtpx:TrackPointExtension></extensions>
      </trkpt>
      <trkpt lat="59.203861" lon="17.898115">
        <ele>36</ele>
        <time>2020-03-26T14:13:00Z</time>
        <extensions><gpxtpx:TrackPointExtension><gpxtpx:hr>122</gpxtpx:hr></gpxtpx:TrackPointExtension></extensions>
      </trkpt>
      <trkpt lat="59.203902" lon="17.898224">
        <ele>36</ele>
        <time>2020-03-26T14:13:01Z</time>
        <extensions><gpxtpx:TrackPointExtension><gpxtpx:hr>122</gpxtpx:hr></gpxtpx:TrackPointExtension></extensions>
      </trkpt>
      <trkpt lat="59.203944" lon="17.898327">
        <ele>36</ele>
        <time>2020-03-26T14:13:02Z</time>
        <extensions><gpxtpx:TrackPointExtension><gpxtpx:hr>122</gpxtpx:hr></gpxtpx:TrackPointExtension></extensions>
      </trkpt>
      <trkpt lat="59.203987" lon="17.898425">
        <ele>36</ele>
        <time>2020-03-26T14:13:03Z</time>
        <extensions><gpxtpx:TrackPointExtension><gpxtpx:hr>123</gpxtpx:hr></gpxtpx:TrackPointExtension></extensions>
      </trkpt>
      <trkpt lat="59.204029" lon="17.898516">
        <ele>36</ele>
        <time>2020-03-26T14:13:04Z</time>
        <extensions><gpxtpx:TrackPointExtension><gpxtpx:hr>123</gpxtpx:hr></gpxtpx:TrackPointExtension></extensions>
      </trkpt>
      <trkpt lat="59.204068" lon="17.898604">
        <ele>36</ele>
        <time>2020-03-26T14:13:05Z</time>
        <extensions><gpxtpx:TrackPointExtension><gpxtpx:hr>123</gpxtpx:hr></gpxtpx:TrackPointExtension></extensions>
      </trkpt>
      <trkpt lat="59.204105" lon="17.898694">
        <ele>36</ele>
        <time>2020-03-26T14:13:06Z</time>
        <extensions><gpxtpx:TrackPointExtension><gpxtpx:hr>124</gpxtpx:hr></gpxtpx:TrackPointExtension></extensions>
      </trkpt>
      <trkpt lat="59.204136" lon="17.898783">
        <ele>36.2</ele>
        <time>2020-03-26T14:13:07Z</time>
        <extensions><gpxtpx:TrackPointExtension><gpxtpx:hr>124</gpxtpx:hr></gpxtpx:TrackPointExtension></extensions>
      </trkpt>
      <trkpt lat="59.204165" lon="17.898871">
        <ele>36.2</ele>
        <time>2020-03-26T14:13:08Z</time>
        <extensions><gpxtpx:TrackPointExtension><gpxtpx:hr>124</gpxtpx:hr></gpxtpx:TrackPointExtension></extensions>
      </trkpt>
      <trkpt lat="59.204195" lon="17.898956">
        <ele>36.2</ele>
        <time>2020-03-26T14:13:09Z</time>
        <extensions><gpxtpx:TrackPointExtension><gpxtpx:hr>125</gpxtpx:hr></gpxtpx:TrackPointExtension></extensions>
      </trkpt>
      <trkpt lat="59.204224" lon="17.899039">
        <ele>36.4</ele>
        <time>2020-03-26T14:13:10Z</time>
        <extensions><gpxtpx:TrackPointExtension><gpxtpx:hr>125</gpxtpx:hr></gpxtpx:TrackPointExtension></extensions>
      </trkpt>
      <trkpt lat="59.204253" lon="17.89912">
        <ele>36.4</ele>
        <time>2020-03-26T14:13:11Z</time>
        <extensions><gpxtpx:TrackPointExtension><gpxtpx:hr>126</gpxtpx:hr></gpxtpx:TrackPointExtension></extensions>
      </trkpt>
      <trkpt lat="59.204282" lon="17.899201">
        <ele>36.6</ele>
        <time>2020-03-26T14:13:12Z</time>
        <extensions><gpxtpx:TrackPointExtension><gpxtpx:hr>127</gpxtpx:hr></gpxtpx:TrackPointExtension></extensions>
      </trkpt>
      <trkpt lat="59.204312" lon="17.899281">
        <ele>37</ele>
        <time>2020-03-26T14:13:13Z</time>
        <extensions><gpxtpx:TrackPointExtension><gpxtpx:hr>127</gpxtpx:hr></gpxtpx:TrackPointExtension></extensions>
      </trkpt>
      <trkpt lat="59.204341" lon="17.899362">
        <ele>37.2</ele>
        <time>2020-03-26T14:13:14Z</time>
        <extensions><gpxtpx:TrackPointExtension><gpxtpx:hr>128</gpxtpx:hr></gpxtpx:TrackPointExtension></extensions>
      </trkpt>
      <trkpt lat="59.204368" lon="17.899445">
        <ele>37.6</ele>
        <time>2020-03-26T14:13:15Z</time>
        <extensions><gpxtpx:TrackPointExtension><gpxtpx:hr>129</gpxtpx:hr></gpxtpx:TrackPointExtension></extensions>
      </trkpt>
      <trkpt lat="59.204394" lon="17.899529">
        <ele>38</ele>
        <time>2020-03-26T14:13:16Z</time>
        <extensions><gpxtpx:TrackPointExtension><gpxtpx:hr>129</gpxtpx:hr></gpxtpx:TrackPointExtension></extensions>
      </trkpt>
      <trkpt lat="59.20442" lon="17.899612">
        <ele>38.4</ele>
        <time>2020-03-26T14:13:17Z</time>
        <extensions><gpxtpx:TrackPointExtension><gpxtpx:hr>130</gpxtpx:hr></gpxtpx:TrackPointExtension></extensions>
      </trkpt>
      <trkpt lat="59.204445" lon="17.899696">
        <ele>38.8</ele>
        <time>2020-03-26T14:13:18Z</time>
        <extensions><gpxtpx:TrackPointExtension><gpxtpx:hr>130</gpxtpx:hr></gpxtpx:TrackPointExtension></extensions>
      </trkpt>
      <trkpt lat="59.20447" lon="17.899781">
        <ele>39.2</ele>
        <time>2020-03-26T14:13:19Z</time>
        <extensions><gpxtpx:TrackPointExtension><gpxtpx:hr>131</gpxtpx:hr></gpxtpx:TrackPointExtension></extensions>
      </trkpt>
      <trkpt lat="59.204496" lon="17.899865">
        <ele>39.4</ele>
        <time>2020-03-26T14:13:20Z</time>
        <extensions><gpxtpx:TrackPointExtension><gpxtpx:hr>131</gpxtpx:hr></gpxtpx:TrackPointExtension></extensions>
      </trkpt>
      <trkpt lat="59.204524" lon="17.899949">
        <ele>39.8</ele>
        <time>2020-03-26T14:13:21Z</time>
        <extensions><gpxtpx:TrackPointExtension><gpxtpx:hr>132</gpxtpx:hr></gpxtpx:TrackPointExtension></extensions>
      </trkpt>
      <trkpt lat="59.204551" lon="17.900033">
        <ele>40</ele>
        <time>2020-03-26T14:13:22Z</time>
        <extensions><gpxtpx:TrackPointExtension><gpxtpx:hr>132</gpxtpx:hr></gpxtpx:TrackPointExtension></extensions>
      </trkpt>
      <trkpt lat="59.204579" lon="17.900116">
        <ele>40.4</ele>
        <time>2020-03-26T14:13:23Z</time>
        <extensions><gpxtpx:TrackPointExtension><gpxtpx:hr>132</gpxtpx:hr></gpxtpx:TrackPointExtension></extensions>
      </trkpt>
      <trkpt lat="59.204607" lon="17.900201">
        <ele>40.6</ele>
        <time>2020-03-26T14:13:24Z</time>
        <extensions><gpxtpx:TrackPointExtension><gpxtpx:hr>133</gpxtpx:hr></gpxtpx:TrackPointExtension></extensions>
      </trkpt>
      <trkpt lat="59.204635" lon="17.900283">
        <ele>40.8</ele>
        <time>2020-03-26T14:13:25Z</time>
        <extensions><gpxtpx:TrackPointExtension><gpxtpx:hr>133</gpxtpx:hr></gpxtpx:TrackPointExtension></extensions>
      </trkpt>
      <trkpt lat="59.204661" lon="17.900364">
        <ele>41.2</ele>
        <time>2020-03-26T14:13:26Z</time>
        <extensions><gpxtpx:TrackPointExtension><gpxtpx:hr>133</gpxtpx:hr></gpxtpx:TrackPointExtension></extensions>
      </trkpt>
      <trkpt lat="59.204687" lon="17.900449">
        <ele>41.6</ele>
        <time>2020-03-26T14:13:27Z</time>
        <extensions><gpxtpx:TrackPointExtension><gpxtpx:hr>133</gpxtpx:hr></gpxtpx:TrackPointExtension></extensions>
      </trkpt>
      <trkpt lat="59.204715" lon="17.900534">
        <ele>42</ele>
        <time>2020-03-26T14:13:28Z</time>
        <extensions><gpxtpx:TrackPointExtension><gpxtpx:hr>133</gpxtpx:hr></gpxtpx:TrackPointExtension></extensions>
      </trkpt>
      <trkpt lat="59.204746" lon="17.900622">
        <ele>42.2</ele>
        <time>2020-03-26T14:13:29Z</time>
        <extensions><gpxtpx:TrackPointExtension><gpxtpx:hr>133</gpxtpx:hr></gpxtpx:TrackPointExtension></extensions>
      </trkpt>
      <trkpt lat="59.204776" lon="17.900711">
        <ele>42.4</ele>
        <time>2020-03-26T14:13:30Z</time>
        <extensions><gpxtpx:TrackPointExtension><gpxtpx:hr>133</gpxtpx:hr></gpxtpx:TrackPointExtension></extensions>
      </trkpt>
      <trkpt lat="59.204808" lon="17.900802">
        <ele>42.6</ele>
        <time>2020-03-26T14:13:31Z</time>
        <extensions><gpxtpx:TrackPointExtension><gpxtpx:hr>133</gpxtpx:hr></gpxtpx:TrackPointExtension></extensions>
      </trkpt>
      <trkpt lat="59.204839" lon="17.900895">
        <ele>42.8</ele>
        <time>2020-03-26T14:13:32Z</time>
        <extensions><gpxtpx:TrackPointExtension><gpxtpx:hr>133</gpxtpx:hr></gpxtpx:TrackPointExtension></extensions>
      </trkpt>
      <trkpt lat="59.204871" lon="17.900987">
        <ele>43</ele>
        <time>2020-03-26T14:13:33Z</time>
        <extensions><gpxtpx:TrackPointExtension><gpxtpx:hr>133</gpxtpx:hr></gpxtpx:TrackPointExtension></extensions>
      </trkpt>
      <trkpt lat="59.204903" lon="17.901077">
        <ele>43</ele>
        <time>2020-03-26T14:13:34Z</time>
        <extensions><gpxtpx:TrackPointExtension><gpxtpx:hr>134</gpxtpx:hr></gpxtpx:TrackPointExtension></extensions>
      </trkpt>
      <trkpt lat="59.204937" lon="17.901164">
        <ele>43.2</ele>
        <time>2020-03-26T14:13:35Z</time>
        <extensions><gpxtpx:TrackPointExtension><gpxtpx:hr>134</gpxtpx:hr></gpxtpx:TrackPointExtension></extensions>
      </trkpt>
      <trkpt lat="59.204971" lon="17.901254">
        <ele>43.2</ele>
        <time>2020-03-26T14:13:36Z</time>
        <extensions><gpxtpx:TrackPointExtension><gpxtpx:hr>134</gpxtpx:hr></gpxtpx:TrackPointExtension></extensions>
      </trkpt>
      <trkpt lat="59.205004" lon="17.901346">
        <ele>43.2</ele>
        <time>2020-03-26T14:13:37Z</time>
        <extensions><gpxtpx:TrackPointExtension><gpxtpx:hr>134</gpxtpx:hr></gpxtpx:TrackPointExtension></extensions>
      </trkpt>
      <trkpt lat="59.205038" lon="17.901441">
        <ele>43.2</ele>
        <time>2020-03-26T14:13:38Z</time>
        <extensions><gpxtpx:TrackPointExtension><gpxtpx:hr>134</gpxtpx:hr></gpxtpx:TrackPointExtension></extensions>
      </trkpt>
      <trkpt lat="59.20507" lon="17.901536">
        <ele>43.2</ele>
        <time>2020-03-26T14:13:39Z</time>
        <extensions><gpxtpx:TrackPointExtension><gpxtpx:hr>134</gpxtpx:hr></gpxtpx:TrackPointExtension></extensions>
      </trkpt>
      <trkpt lat="59.205104" lon="17.901633">
        <ele>43.2</ele>
        <time>2020-03-26T14:13:40Z</time>
        <extensions><gpxtpx:TrackPointExtension><gpxtpx:hr>134</gpxtpx:hr></gpxtpx:TrackPointExtension></extensions>
      </trkpt>
      <trkpt lat="59.205138" lon="17.90173">
        <ele>43.4</ele>
        <time>2020-03-26T14:13:41Z</time>
        <extensions><gpxtpx:TrackPointExtension><gpxtpx:hr>134</gpxtpx:hr></gpxtpx:TrackPointExtension></extensions>
      </trkpt>
      <trkpt lat="59.205171" lon="17.90183">
        <ele>43.4</ele>
        <time>2020-03-26T14:13:42Z</time>
        <extensions><gpxtpx:TrackPointExtension><gpxtpx:hr>133</gpxtpx:hr></gpxtpx:TrackPointExtension></extensions>
      </trkpt>
      <trkpt lat="59.205205" lon="17.901934">
        <ele>43.4</ele>
        <time>2020-03-26T14:13:43Z</time>
        <extensions><gpxtpx:TrackPointExtension><gpxtpx:hr>133</gpxtpx:hr></gpxtpx:TrackPointExtension></extensions>
      </trkpt>
      <trkpt lat="59.205237" lon="17.902041">
        <ele>43.4</ele>
        <time>2020-03-26T14:13:44Z</time>
        <extensions><gpxtpx:TrackPointExtension><gpxtpx:hr>133</gpxtpx:hr></gpxtpx:TrackPointExtension></extensions>
      </trkpt>
      <trkpt lat="59.205267" lon="17.902151">
        <ele>43.4</ele>
        <time>2020-03-26T14:13:45Z</time>
        <extensions><gpxtpx:TrackPointExtension><gpxtpx:hr>133</gpxtpx:hr></gpxtpx:TrackPointExtension></extensions>
      </trkpt>
      <trkpt lat="59.205296" lon="17.90226">
        <ele>43.4</ele>
        <time>2020-03-26T14:13:46Z</time>
        <extensions><gpxtpx:TrackPointExtension><gpxtpx:hr>133</gpxtpx:hr></gpxtpx:TrackPointExtension></extensions>
      </trkpt>
      <trkpt lat="59.205324" lon="17.902368">
        <ele>43.4</ele>
        <time>2020-03-26T14:13:47Z</time>
        <extensions><gpxtpx:TrackPointExtension><gpxtpx:hr>133</gpxtpx:hr></gpxtpx:TrackPointExtension></extensions>
      </trkpt>
      <trkpt lat="59.205352" lon="17.902474">
        <ele>43.4</ele>
        <time>2020-03-26T14:13:48Z</time>
        <extensions><gpxtpx:TrackPointExtension><gpxtpx:hr>133</gpxtpx:hr></gpxtpx:TrackPointExtension></extensions>
      </trkpt>
      <trkpt lat="59.205379" lon="17.902576">
        <ele>43.4</ele>
        <time>2020-03-26T14:13:49Z</time>
        <extensions><gpxtpx:TrackPointExtension><gpxtpx:hr>133</gpxtpx:hr></gpxtpx:TrackPointExtension></extensions>
      </trkpt>
      <trkpt lat="59.205406" lon="17.902675">
        <ele>43.4</ele>
        <time>2020-03-26T14:13:50Z</time>
        <extensions><gpxtpx:TrackPointExtension><gpxtpx:hr>132</gpxtpx:hr></gpxtpx:TrackPointExtension></extensions>
      </trkpt>
      <trkpt lat="59.205437" lon="17.902774">
        <ele>43.4</ele>
        <time>2020-03-26T14:13:51Z</time>
        <extensions><gpxtpx:TrackPointExtension><gpxtpx:hr>132</gpxtpx:hr></gpxtpx:TrackPointExtension></extensions>
      </trkpt>
      <trkpt lat="59.205475" lon="17.90287">
        <ele>43.4</ele>
        <time>2020-03-26T14:13:52Z</time>
        <extensions><gpxtpx:TrackPointExtension><gpxtpx:hr>131</gpxtpx:hr></gpxtpx:TrackPointExtension></extensions>
      </trkpt>
      <trkpt lat="59.205519" lon="17.902956">
        <ele>43.4</ele>
        <time>2020-03-26T14:13:53Z</time>
        <extensions><gpxtpx:TrackPointExtension><gpxtpx:hr>131</gpxtpx:hr></gpxtpx:TrackPointExtension></extensions>
      </trkpt>
      <trkpt lat="59.205561" lon="17.90304">
        <ele>43.4</ele>
        <time>2020-03-26T14:13:54Z</time>
        <extensions><gpxtpx:TrackPointExtension><gpxtpx:hr>130</gpxtpx:hr></gpxtpx:TrackPointExtension></extensions>
      </trkpt>
      <trkpt lat="59.205598" lon="17.903129">
        <ele>43.6</ele>
        <time>2020-03-26T14:13:55Z</time>
        <extensions><gpxtpx:TrackPointExtension><gpxtpx:hr>129</gpxtpx:hr></gpxtpx:TrackPointExtension></extensions>
      </trkpt>
      <trkpt lat="59.20563" lon="17.903226">
        <ele>43.8</ele>
        <time>2020-03-26T14:13:56Z</time>
        <extensions><gpxtpx:TrackPointExtension><gpxtpx:hr>129</gpxtpx:hr></gpxtpx:TrackPointExtension></extensions>
      </trkpt>
      <trkpt lat="59.205653" lon="17.903337">
        <ele>43.6</ele>
        <time>2020-03-26T14:13:57Z</time>
        <extensions><gpxtpx:TrackPointExtension><gpxtpx:hr>128</gpxtpx:hr></gpxtpx:TrackPointExtension></extensions>
      </trkpt>
      <trkpt lat="59.205669" lon="17.903456">
        <ele>43.8</ele>
        <time>2020-03-26T14:13:58Z</time>
        <extensions><gpxtpx:TrackPointExtension><gpxtpx:hr>128</gpxtpx:hr></gpxtpx:TrackPointExtension></extensions>
      </trkpt>
      <trkpt lat="59.205686" lon="17.903577">
        <ele>43.6</ele>
        <time>2020-03-26T14:13:59Z</time>
        <extensions><gpxtpx:TrackPointExtension><gpxtpx:hr>128</gpxtpx:hr></gpxtpx:TrackPointExtension></extensions>
      </trkpt>
      <trkpt lat="59.205708" lon="17.903696">
        <ele>43.8</ele>
        <time>2020-03-26T14:14:00Z</time>
        <extensions><gpxtpx:TrackPointExtension><gpxtpx:hr>128</gpxtpx:hr></gpxtpx:TrackPointExtension></extensions>
      </trkpt>
      <trkpt lat="59.205739" lon="17.903807">
        <ele>43.8</ele>
        <time>2020-03-26T14:14:01Z</time>
        <extensions><gpxtpx:TrackPointExtension><gpxtpx:hr>128</gpxtpx:hr></gpxtpx:TrackPointExtension></extensions>
      </trkpt>
      <trkpt lat="59.205776" lon="17.903908">
        <ele>44</ele>
        <time>2020-03-26T14:14:02Z</time>
        <extensions><gpxtpx:TrackPointExtension><gpxtpx:hr>128</gpxtpx:hr></gpxtpx:TrackPointExtension></extensions>
      </trkpt>
      <trkpt lat="59.205817" lon="17.903999">
        <ele>44</ele>
        <time>2020-03-26T14:14:03Z</time>
        <extensions><gpxtpx:TrackPointExtension><gpxtpx:hr>128</gpxtpx:hr></gpxtpx:TrackPointExtension></extensions>
      </trkpt>
      <trkpt lat="59.205859" lon="17.904087">
        <ele>44.2</ele>
        <time>2020-03-26T14:14:04Z</time>
        <extensions><gpxtpx:TrackPointExtension><gpxtpx:hr>128</gpxtpx:hr></gpxtpx:TrackPointExtension></extensions>
      </trkpt>
      <trkpt lat="59.205897" lon="17.904181">
        <ele>44.2</ele>
        <time>2020-03-26T14:14:05Z</time>
        <extensions><gpxtpx:TrackPointExtension><gpxtpx:hr>128</gpxtpx:hr></gpxtpx:TrackPointExtension></extensions>
      </trkpt>
      <trkpt lat="59.205928" lon="17.904284">
        <ele>44.2</ele>
        <time>2020-03-26T14:14:06Z</time>
        <extensions><gpxtpx:TrackPointExtension><gpxtpx:hr>127</gpxtpx:hr></gpxtpx:TrackPointExtension></extensions>
      </trkpt>
      <trkpt lat="59.205957" lon="17.904394">
        <ele>44.4</ele>
        <time>2020-03-26T14:14:07Z</time>
        <extensions><gpxtpx:TrackPointExtension><gpxtpx:hr>126</gpxtpx:hr></gpxtpx:TrackPointExtension></extensions>
      </trkpt>
      <trkpt lat="59.205985" lon="17.904506">
        <ele>44.4</ele>
        <time>2020-03-26T14:14:08Z</time>
        <extensions><gpxtpx:TrackPointExtension><gpxtpx:hr>126</gpxtpx:hr></gpxtpx:TrackPointExtension></extensions>
      </trkpt>
      <trkpt lat="59.206012" lon="17.904618">
        <ele>44.4</ele>
        <time>2020-03-26T14:14:09Z</time>
        <extensions><gpxtpx:TrackPointExtension><gpxtpx:hr>125</gpxtpx:hr></gpxtpx:TrackPointExtension></extensions>
      </trkpt>
      <trkpt lat="59.206042" lon="17.904731">
        <ele>44.4</ele>
        <time>2020-03-26T14:14:10Z</time>
        <extensions><gpxtpx:TrackPointExtension><gpxtpx:hr>125</gpxtpx:hr></gpxtpx:TrackPointExtension></extensions>
      </trkpt>
      <trkpt lat="59.206076" lon="17.904843">
        <ele>44.4</ele>
        <time>2020-03-26T14:14:11Z</time>
        <extensions><gpxtpx:TrackPointExtension><gpxtpx:hr>125</gpxtpx:hr></gpxtpx:TrackPointExtension></extensions>
      </trkpt>
      <trkpt lat="59.206109" lon="17.904958">
        <ele>44.6</ele>
        <time>2020-03-26T14:14:12Z</time>
        <extensions><gpxtpx:TrackPointExtension><gpxtpx:hr>125</gpxtpx:hr></gpxtpx:TrackPointExtension></extensions>
      </trkpt>
      <trkpt lat="59.206143" lon="17.905074">
        <ele>44.6</ele>
        <time>2020-03-26T14:14:13Z</time>
        <extensions><gpxtpx:TrackPointExtension><gpxtpx:hr>125</gpxtpx:hr></gpxtpx:TrackPointExtension></extensions>
      </trkpt>
      <trkpt lat="59.206177" lon="17.905192">
        <ele>44.6</ele>
        <time>2020-03-26T14:14:14Z</time>
        <extensions><gpxtpx:TrackPointExtension><gpxtpx:hr>125</gpxtpx:hr></gpxtpx:TrackPointExtension></extensions>
      </trkpt>
      <trkpt lat="59.206211" lon="17.905312">
        <ele>44.8</ele>
        <time>2020-03-26T14:14:15Z</time>
        <extensions><gpxtpx:TrackPointExtension><gpxtpx:hr>125</gpxtpx:hr></gpxtpx:TrackPointExtension></extensions>
      </trkpt>
      <trkpt lat="59.206242" lon="17.905436">
        <ele>44.8</ele>
        <time>2020-03-26T14:14:16Z</time>
        <extensions><gpxtpx:TrackPointExtension><gpxtpx:hr>125</gpxtpx:hr></gpxtpx:TrackPointExtension></extensions>
      </trkpt>
      <trkpt lat="59.20627" lon="17.905563">
        <ele>44.8</ele>
        <time>2020-03-26T14:14:17Z</time>
        <extensions><gpxtpx:TrackPointExtension><gpxtpx:hr>125</gpxtpx:hr></gpxtpx:TrackPointExtension></extensions>
      </trkpt>
      <trkpt lat="59.206291" lon="17.90569">
        <ele>45</ele>
        <time>2020-03-26T14:14:18Z</time>
        <extensions><gpxtpx:TrackPointExtension><gpxtpx:hr>125</gpxtpx:hr></gpxtpx:TrackPointExtension></extensions>
      </trkpt>
      <trkpt lat="59.206307" lon="17.905801">
        <ele>45</ele>
        <time>2020-03-26T14:14:19Z</time>
        <extensions><gpxtpx:TrackPointExtension><gpxtpx:hr>125</gpxtpx:hr></gpxtpx:TrackPointExtension></extensions>
      </trkpt>
      <trkpt lat="59.206318" lon="17.905888">
        <ele>45</ele>
        <time>2020-03-26T14:14:20Z</time>
        <extensions><gpxtpx:TrackPointExtension><gpxtpx:hr>125</gpxtpx:hr></gpxtpx:TrackPointExtension></extensions>
      </trkpt>
      <trkpt lat="59.20633" lon="17.905948">
        <ele>45</ele>
        <time>2020-03-26T14:14:21Z</time>
        <extensions><gpxtpx:TrackPointExtension><gpxtpx:hr>125</gpxtpx:hr></gpxtpx:TrackPointExtension></extensions>
      </trkpt>
      <trkpt lat="59.206339" lon="17.905982">
        <ele>45</ele>
        <time>2020-03-26T14:14:22Z</time>
        <extensions><gpxtpx:TrackPointExtension><gpxtpx:hr>124</gpxtpx:hr></gpxtpx:TrackPointExtension></extensions>
      </trkpt>
      <trkpt lat="59.206343" lon="17.905997">
        <ele>45</ele>
        <time>2020-03-26T14:14:23Z</time>
        <extensions><gpxtpx:TrackPointExtension><gpxtpx:hr>123</gpxtpx:hr></gpxtpx:TrackPointExtension></extensions>
      </trkpt>
      <trkpt lat="59.206344" lon="17.905999">
        <ele>45</ele>
        <time>2020-03-26T14:14:24Z</time>
        <extensions><gpxtpx:TrackPointExtension><gpxtpx:hr>121</gpxtpx:hr></gpxtpx:TrackPointExtension></extensions>
      </trkpt>
      <trkpt lat="59.206344" lon="17.905997">
        <ele>45</ele>
        <time>2020-03-26T14:14:25Z</time>
        <extensions><gpxtpx:TrackPointExtension><gpxtpx:hr>120</gpxtpx:hr></gpxtpx:TrackPointExtension></extensions>
      </trkpt>
      <trkpt lat="59.206358" lon="17.906039">
        <ele>45.2</ele>
        <time>2020-03-26T14:14:39Z</time>
        <extensions><gpxtpx:TrackPointExtension><gpxtpx:hr>113</gpxtpx:hr></gpxtpx:TrackPointExtension></extensions>
      </trkpt>
      <trkpt lat="59.206373" lon="17.90608">
        <ele>45.2</ele>
        <time>2020-03-26T14:14:40Z</time>
        <extensions><gpxtpx:TrackPointExtension><gpxtpx:hr>112</gpxtpx:hr></gpxtpx:TrackPointExtension></extensions>
      </trkpt>
      <trkpt lat="59.20639" lon="17.906128">
        <ele>45.2</ele>
        <time>2020-03-26T14:14:41Z</time>
        <extensions><gpxtpx:TrackPointExtension><gpxtpx:hr>111</gpxtpx:hr></gpxtpx:TrackPointExtension></extensions>
      </trkpt>
      <trkpt lat="59.206408" lon="17.906185">
        <ele>45.2</ele>
        <time>2020-03-26T14:14:42Z</time>
        <extensions><gpxtpx:TrackPointExtension><gpxtpx:hr>110</gpxtpx:hr></gpxtpx:TrackPointExtension></extensions>
      </trkpt>
      <trkpt lat="59.206426" lon="17.906249">
        <ele>45.2</ele>
        <time>2020-03-26T14:14:43Z</time>
        <extensions><gpxtpx:TrackPointExtension><gpxtpx:hr>110</gpxtpx:hr></gpxtpx:TrackPointExtension></extensions>
      </trkpt>
      <trkpt lat="59.206448" lon="17.906315">
        <ele>45.4</ele>
        <time>2020-03-26T14:14:44Z</time>
        <extensions><gpxtpx:TrackPointExtension><gpxtpx:hr>110</gpxtpx:hr></gpxtpx:TrackPointExtension></extensions>
      </trkpt>
      <trkpt lat="59.206474" lon="17.906383">
        <ele>45.4</ele>
        <time>2020-03-26T14:14:45Z</time>
        <extensions><gpxtpx:TrackPointExtension><gpxtpx:hr>111</gpxtpx:hr></gpxtpx:TrackPointExtension></extensions>
      </trkpt>
      <trkpt lat="59.206501" lon="17.906455">
        <ele>45.4</ele>
        <time>2020-03-26T14:14:46Z</time>
        <extensions><gpxtpx:TrackPointExtension><gpxtpx:hr>113</gpxtpx:hr></gpxtpx:TrackPointExtension></extensions>
      </trkpt>
      <trkpt lat="59.206526" lon="17.906531">
        <ele>45.4</ele>
        <time>2020-03-26T14:14:47Z</time>
        <extensions><gpxtpx:TrackPointExtension><gpxtpx:hr>114</gpxtpx:hr></gpxtpx:TrackPointExtension></extensions>
      </trkpt>
      <trkpt lat="59.206551" lon="17.906614">
        <ele>45.4</ele>
        <time>2020-03-26T14:14:48Z</time>
        <extensions><gpxtpx:TrackPointExtension><gpxtpx:hr>115</gpxtpx:hr></gpxtpx:TrackPointExtension></extensions>
      </trkpt>
      <trkpt lat="59.206576" lon="17.906702">
        <ele>45.4</ele>
        <time>2020-03-26T14:14:49Z</time>
        <extensions><gpxtpx:TrackPointExtension><gpxtpx:hr>115</gpxtpx:hr></gpxtpx:TrackPointExtension></extensions>
      </trkpt>
      <trkpt lat="59.206603" lon="17.906797">
        <ele>45.4</ele>
        <time>2020-03-26T14:14:50Z</time>
        <extensions><gpxtpx:TrackPointExtension><gpxtpx:hr>116</gpxtpx:hr></gpxtpx:TrackPointExtension></extensions>
      </trkpt>
      <trkpt lat="59.206629" lon="17.906896">
        <ele>45.4</ele>
        <time>2020-03-26T14:14:51Z</time>
        <extensions><gpxtpx:TrackPointExtension><gpxtpx:hr>116</gpxtpx:hr></gpxtpx:TrackPointExtension></extensions>
      </trkpt>
      <trkpt lat="59.206656" lon="17.906996">
        <ele>45.4</ele>
        <time>2020-03-26T14:14:52Z</time>
        <extensions><gpxtpx:TrackPointExtension><gpxtpx:hr>116</gpxtpx:hr></gpxtpx:TrackPointExtension></extensions>
      </trkpt>
      <trkpt lat="59.206684" lon="17.907099">
        <ele>45.4</ele>
        <time>2020-03-26T14:14:53Z</time>
        <extensions><gpxtpx:TrackPointExtension><gpxtpx:hr>116</gpxtpx:hr></gpxtpx:TrackPointExtension></extensions>
      </trkpt>
      <trkpt lat="59.206712" lon="17.907205">
        <ele>45.4</ele>
        <time>2020-03-26T14:14:54Z</time>
        <extensions><gpxtpx:TrackPointExtension><gpxtpx:hr>116</gpxtpx:hr></gpxtpx:TrackPointExtension></extensions>
      </trkpt>
      <trkpt lat="59.206738" lon="17.907316">
        <ele>45.6</ele>
        <time>2020-03-26T14:14:55Z</time>
        <extensions><gpxtpx:TrackPointExtension><gpxtpx:hr>117</gpxtpx:hr></gpxtpx:TrackPointExtension></extensions>
      </trkpt>
      <trkpt lat="59.206765" lon="17.907429">
        <ele>45.6</ele>
        <time>2020-03-26T14:14:56Z</time>
        <extensions><gpxtpx:TrackPointExtension><gpxtpx:hr>117</gpxtpx:hr></gpxtpx:TrackPointExtension></extensions>
      </trkpt>
      <trkpt lat="59.206794" lon="17.907541">
        <ele>45.6</ele>
        <time>2020-03-26T14:14:57Z</time>
        <extensions><gpxtpx:TrackPointExtension><gpxtpx:hr>118</gpxtpx:hr></gpxtpx:TrackPointExtension></extensions>
      </trkpt>
      <trkpt lat="59.206823" lon="17.907654">
        <ele>45.6</ele>
        <time>2020-03-26T14:14:58Z</time>
        <extensions><gpxtpx:TrackPointExtension><gpxtpx:hr>119</gpxtpx:hr></gpxtpx:TrackPointExtension></extensions>
      </trkpt>
      <trkpt lat="59.206853" lon="17.907767">
        <ele>45.6</ele>
        <time>2020-03-26T14:14:59Z</time>
        <extensions><gpxtpx:TrackPointExtension><gpxtpx:hr>119</gpxtpx:hr></gpxtpx:TrackPointExtension></extensions>
      </trkpt>
      <trkpt lat="59.206882" lon="17.907879">
        <ele>45.6</ele>
        <time>2020-03-26T14:15:00Z</time>
        <extensions><gpxtpx:TrackPointExtension><gpxtpx:hr>119</gpxtpx:hr></gpxtpx:TrackPointExtension></extensions>
      </trkpt>
      <trkpt lat="59.20691" lon="17.907989">
        <ele>45.6</ele>
        <time>2020-03-26T14:15:01Z</time>
        <extensions><gpxtpx:TrackPointExtension><gpxtpx:hr>119</gpxtpx:hr></gpxtpx:TrackPointExtension></extensions>
      </trkpt>
      <trkpt lat="59.206936" lon="17.908097">
        <ele>45.6</ele>
        <time>2020-03-26T14:15:02Z</time>
        <extensions><gpxtpx:TrackPointExtension><gpxtpx:hr>120</gpxtpx:hr></gpxtpx:TrackPointExtension></extensions>
      </trkpt>
      <trkpt lat="59.20696" lon="17.908204">
        <ele>45.6</ele>
        <time>2020-03-26T14:15:03Z</time>
        <extensions><gpxtpx:TrackPointExtension><gpxtpx:hr>120</gpxtpx:hr></gpxtpx:TrackPointExtension></extensions>
      </trkpt>
      <trkpt lat="59.206984" lon="17.908309">
        <ele>45.6</ele>
        <time>2020-03-26T14:15:04Z</time>
        <extensions><gpxtpx:TrackPointExtension><gpxtpx:hr>120</gpxtpx:hr></gpxtpx:TrackPointExtension></extensions>
      </trkpt>
      <trkpt lat="59.207009" lon="17.908412">
        <ele>45.6</ele>
        <time>2020-03-26T14:15:05Z</time>
        <extensions><gpxtpx:TrackPointExtension><gpxtpx:hr>120</gpxtpx:hr></gpxtpx:TrackPointExtension></extensions>
      </trkpt>
      <trkpt lat="59.207035" lon="17.908513">
        <ele>45.6</ele>
        <time>2020-03-26T14:15:06Z</time>
        <extensions><gpxtpx:TrackPointExtension><gpxtpx:hr>119</gpxtpx:hr></gpxtpx:TrackPointExtension></extensions>
      </trkpt>
      <trkpt lat="59.207061" lon="17.908615">
        <ele>45.6</ele>
        <time>2020-03-26T14:15:07Z</time>
        <extensions><gpxtpx:TrackPointExtension><gpxtpx:hr>119</gpxtpx:hr></gpxtpx:TrackPointExtension></extensions>
      </trkpt>
      <trkpt lat="59.207087" lon="17.908717">
        <ele>45.6</ele>
        <time>2020-03-26T14:15:08Z</time>
        <extensions><gpxtpx:TrackPointExtension><gpxtpx:hr>119</gpxtpx:hr></gpxtpx:TrackPointExtension></extensions>
      </trkpt>
      <trkpt lat="59.207113" lon="17.908821">
        <ele>45.6</ele>
        <time>2020-03-26T14:15:09Z</time>
        <extensions><gpxtpx:TrackPointExtension><gpxtpx:hr>119</gpxtpx:hr></gpxtpx:TrackPointExtension></extensions>
      </trkpt>
      <trkpt lat="59.207139" lon="17.908923">
        <ele>45.6</ele>
        <time>2020-03-26T14:15:10Z</time>
        <extensions><gpxtpx:TrackPointExtension><gpxtpx:hr>120</gpxtpx:hr></gpxtpx:TrackPointExtension></extensions>
      </trkpt>
      <trkpt lat="59.207165" lon="17.909024">
        <ele>45.6</ele>
        <time>2020-03-26T14:15:11Z</time>
        <extensions><gpxtpx:TrackPointExtension><gpxtpx:hr>121</gpxtpx:hr></gpxtpx:TrackPointExtension></extensions>
      </trkpt>
      <trkpt lat="59.20719" lon="17.909125">
        <ele>45.6</ele>
        <time>2020-03-26T14:15:12Z</time>
        <extensions><gpxtpx:TrackPointExtension><gpxtpx:hr>122</gpxtpx:hr></gpxtpx:TrackPointExtension></extensions>
      </trkpt>
      <trkpt lat="59.207215" lon="17.909221">
        <ele>45.6</ele>
        <time>2020-03-26T14:15:13Z</time>
        <extensions><gpxtpx:TrackPointExtension><gpxtpx:hr>124</gpxtpx:hr></gpxtpx:TrackPointExtension></extensions>
      </trkpt>
      <trkpt lat="59.207241" lon="17.909314">
        <ele>45.8</ele>
        <time>2020-03-26T14:15:14Z</time>
        <extensions><gpxtpx:TrackPointExtension><gpxtpx:hr>124</gpxtpx:hr></gpxtpx:TrackPointExtension></extensions>
      </trkpt>
      <trkpt lat="59.207265" lon="17.909403">
        <ele>46</ele>
        <time>2020-03-26T14:15:15Z</time>
        <extensions><gpxtpx:TrackPointExtension><gpxtpx:hr>125</gpxtpx:hr></gpxtpx:TrackPointExtension></extensions>
      </trkpt>
      <trkpt lat="59.20729" lon="17.909491">
        <ele>46</ele>
        <time>2020-03-26T14:15:16Z</time>
        <extensions><gpxtpx:TrackPointExtension><gpxtpx:hr>124</gpxtpx:hr></gpxtpx:TrackPointExtension></extensions>
      </trkpt>
      <trkpt lat="59.207314" lon="17.909576">
        <ele>46.2</ele>
        <time>2020-03-26T14:15:17Z</time>
        <extensions><gpxtpx:TrackPointExtension><gpxtpx:hr>124</gpxtpx:hr></gpxtpx:TrackPointExtension></extensions>
      </trkpt>
      <trkpt lat="59.207336" lon="17.90966">
        <ele>46.4</ele>
        <time>2020-03-26T14:15:18Z</time>
        <extensions><gpxtpx:TrackPointExtension><gpxtpx:hr>124</gpxtpx:hr></gpxtpx:TrackPointExtension></extensions>
      </trkpt>
      <trkpt lat="59.207357" lon="17.909742">
        <ele>46.4</ele>
        <time>2020-03-26T14:15:19Z</time>
        <extensions><gpxtpx:TrackPointExtension><gpxtpx:hr>124</gpxtpx:hr></gpxtpx:TrackPointExtension></extensions>
      </trkpt>
      <trkpt lat="59.207377" lon="17.909824">
        <ele>46.8</ele>
        <time>2020-03-26T14:15:20Z</time>
        <extensions><gpxtpx:TrackPointExtension><gpxtpx:hr>124</gpxtpx:hr></gpxtpx:TrackPointExtension></extensions>
      </trkpt>
      <trkpt lat="59.207396" lon="17.909904">
        <ele>47</ele>
        <time>2020-03-26T14:15:21Z</time>
        <extensions><gpxtpx:TrackPointExtension><gpxtpx:hr>124</gpxtpx:hr></gpxtpx:TrackPointExtension></extensions>
      </trkpt>
      <trkpt lat="59.207415" lon="17.909982">
        <ele>47.4</ele>
        <time>2020-03-26T14:15:22Z</time>
        <extensions><gpxtpx:TrackPointExtension><gpxtpx:hr>124</gpxtpx:hr></gpxtpx:TrackPointExtension></extensions>
      </trkpt>
      <trkpt lat="59.207434" lon="17.910061">
        <ele>47.8</ele>
        <time>2020-03-26T14:15:23Z</time>
        <extensions><gpxtpx:TrackPointExtension><gpxtpx:hr>124</gpxtpx:hr></gpxtpx:TrackPointExtension></extensions>
      </trkpt>
      <trkpt lat="59.207454" lon="17.910141">
        <ele>48</ele>
        <time>2020-03-26T14:15:24Z</time>
        <extensions><gpxtpx:TrackPointExtension><gpxtpx:hr>124</gpxtpx:hr></gpxtpx:TrackPointExtension></extensions>
      </trkpt>
      <trkpt lat="59.207472" lon="17.910222">
        <ele>48.4</ele>
        <time>2020-03-26T14:15:25Z</time>
        <extensions><gpxtpx:TrackPointExtension><gpxtpx:hr>124</gpxtpx:hr></gpxtpx:TrackPointExtension></extensions>
      </trkpt>
      <trkpt lat="59.207492" lon="17.910303">
        <ele>48.6</ele>
        <time>2020-03-26T14:15:26Z</time>
        <extensions><gpxtpx:TrackPointExtension><gpxtpx:hr>124</gpxtpx:hr></gpxtpx:TrackPointExtension></extensions>
      </trkpt>
      <trkpt lat="59.207512" lon="17.910382">
        <ele>49</ele>
        <time>2020-03-26T14:15:27Z</time>
        <extensions><gpxtpx:TrackPointExtension><gpxtpx:hr>125</gpxtpx:hr></gpxtpx:TrackPointExtension></extensions>
      </trkpt>
      <trkpt lat="59.207532" lon="17.91046">
        <ele>49.2</ele>
        <time>2020-03-26T14:15:28Z</time>
        <extensions><gpxtpx:TrackPointExtension><gpxtpx:hr>126</gpxtpx:hr></gpxtpx:TrackPointExtension></extensions>
      </trkpt>
      <trkpt lat="59.207552" lon="17.910537">
        <ele>49.6</ele>
        <time>2020-03-26T14:15:29Z</time>
        <extensions><gpxtpx:TrackPointExtension><gpxtpx:hr>126</gpxtpx:hr></gpxtpx:TrackPointExtension></extensions>
      </trkpt>
      <trkpt lat="59.207571" lon="17.910614">
        <ele>49.8</ele>
        <time>2020-03-26T14:15:30Z</time>
        <extensions><gpxtpx:TrackPointExtension><gpxtpx:hr>127</gpxtpx:hr></gpxtpx:TrackPointExtension></extensions>
      </trkpt>
      <trkpt lat="59.20759" lon="17.910692">
        <ele>50</ele>
        <time>2020-03-26T14:15:31Z</time>
        <extensions><gpxtpx:TrackPointExtension><gpxtpx:hr>128</gpxtpx:hr></gpxtpx:TrackPointExtension></extensions>
      </trkpt>
      <trkpt lat="59.207608" lon="17.910769">
        <ele>50.4</ele>
        <time>2020-03-26T14:15:32Z</time>
        <extensions><gpxtpx:TrackPointExtension><gpxtpx:hr>129</gpxtpx:hr></gpxtpx:TrackPointExtension></extensions>
      </trkpt>
      <trkpt lat="59.207626" lon="17.910847">
        <ele>50.6</ele>
        <time>2020-03-26T14:15:33Z</time>
        <extensions><gpxtpx:TrackPointExtension><gpxtpx:hr>129</gpxtpx:hr></gpxtpx:TrackPointExtension></extensions>
      </trkpt>
      <trkpt lat="59.207643" lon="17.910924">
        <ele>50.8</ele>
        <time>2020-03-26T14:15:34Z</time>
        <extensions><gpxtpx:TrackPointExtension><gpxtpx:hr>130</gpxtpx:hr></gpxtpx:TrackPointExtension></extensions>
      </trkpt>
      <trkpt lat="59.20766" lon="17.911">
        <ele>51.2</ele>
        <time>2020-03-26T14:15:35Z</time>
        <extensions><gpxtpx:TrackPointExtension><gpxtpx:hr>131</gpxtpx:hr></gpxtpx:TrackPointExtension></extensions>
      </trkpt>
      <trkpt lat="59.207675" lon="17.911076">
        <ele>51.4</ele>
        <time>2020-03-26T14:15:36Z</time>
        <extensions><gpxtpx:TrackPointExtension><gpxtpx:hr>132</gpxtpx:hr></gpxtpx:TrackPointExtension></extensions>
      </trkpt>
      <trkpt lat="59.207693" lon="17.911153">
        <ele>51.6</ele>
        <time>2020-03-26T14:15:37Z</time>
        <extensions><gpxtpx:TrackPointExtension><gpxtpx:hr>132</gpxtpx:hr></gpxtpx:TrackPointExtension></extensions>
      </trkpt>
      <trkpt lat="59.207712" lon="17.911229">
        <ele>51.8</ele>
        <time>2020-03-26T14:15:38Z</time>
        <extensions><gpxtpx:TrackPointExtension><gpxtpx:hr>133</gpxtpx:hr></gpxtpx:TrackPointExtension></extensions>
      </trkpt>
      <trkpt lat="59.207732" lon="17.911307">
        <ele>52</ele>
        <time>2020-03-26T14:15:39Z</time>
        <extensions><gpxtpx:TrackPointExtension><gpxtpx:hr>134</gpxtpx:hr></gpxtpx:TrackPointExtension></extensions>
      </trkpt>
      <trkpt lat="59.207751" lon="17.911384">
        <ele>52.2</ele>
        <time>2020-03-26T14:15:40Z</time>
        <extensions><gpxtpx:TrackPointExtension><gpxtpx:hr>134</gpxtpx:hr></gpxtpx:TrackPointExtension></extensions>
      </trkpt>
      <trkpt lat="59.20777" lon="17.911463">
        <ele>52.4</ele>
        <time>2020-03-26T14:15:41Z</time>
        <extensions><gpxtpx:TrackPointExtension><gpxtpx:hr>135</gpxtpx:hr></gpxtpx:TrackPointExtension></extensions>
      </trkpt>
      <trkpt lat="59.207789" lon="17.911541">
        <ele>53</ele>
        <time>2020-03-26T14:15:42Z</time>
        <extensions><gpxtpx:TrackPointExtension><gpxtpx:hr>136</gpxtpx:hr></gpxtpx:TrackPointExtension></extensions>
      </trkpt>
      <trkpt lat="59.207807" lon="17.911617">
        <ele>53.4</ele>
        <time>2020-03-26T14:15:43Z</time>
        <extensions><gpxtpx:TrackPointExtension><gpxtpx:hr>137</gpxtpx:hr></gpxtpx:TrackPointExtension></extensions>
      </trkpt>
      <trkpt lat="59.207826" lon="17.911695">
        <ele>53.8</ele>
        <time>2020-03-26T14:15:44Z</time>
        <extensions><gpxtpx:TrackPointExtension><gpxtpx:hr>137</gpxtpx:hr></gpxtpx:TrackPointExtension></extensions>
      </trkpt>
      <trkpt lat="59.207843" lon="17.911772">
        <ele>54</ele>
        <time>2020-03-26T14:15:45Z</time>
        <extensions><gpxtpx:TrackPointExtension><gpxtpx:hr>138</gpxtpx:hr></gpxtpx:TrackPointExtension></extensions>
      </trkpt>
      <trkpt lat="59.20786" lon="17.911849">
        <ele>54.2</ele>
        <time>2020-03-26T14:15:46Z</time>
        <extensions><gpxtpx:TrackPointExtension><gpxtpx:hr>138</gpxtpx:hr></gpxtpx:TrackPointExtension></extensions>
      </trkpt>
      <trkpt lat="59.207876" lon="17.911927">
        <ele>54.4</ele>
        <time>2020-03-26T14:15:47Z</time>
        <extensions><gpxtpx:TrackPointExtension><gpxtpx:hr>139</gpxtpx:hr></gpxtpx:TrackPointExtension></extensions>
      </trkpt>
      <trkpt lat="59.207892" lon="17.912005">
        <ele>54.4</ele>
        <time>2020-03-26T14:15:48Z</time>
        <extensions><gpxtpx:TrackPointExtension><gpxtpx:hr>140</gpxtpx:hr></gpxtpx:TrackPointExtension></extensions>
      </trkpt>
      <trkpt lat="59.20791" lon="17.912082">
        <ele>54.8</ele>
        <time>2020-03-26T14:15:49Z</time>
        <extensions><gpxtpx:TrackPointExtension><gpxtpx:hr>141</gpxtpx:hr></gpxtpx:TrackPointExtension></extensions>
      </trkpt>
      <trkpt lat="59.207927" lon="17.912158">
        <ele>55</ele>
        <time>2020-03-26T14:15:50Z</time>
        <extensions><gpxtpx:TrackPointExtension><gpxtpx:hr>142</gpxtpx:hr></gpxtpx:TrackPointExtension></extensions>
      </trkpt>
      <trkpt lat="59.207943" lon="17.912232">
        <ele>55.2</ele>
        <time>2020-03-26T14:15:51Z</time>
        <extensions><gpxtpx:TrackPointExtension><gpxtpx:hr>143</gpxtpx:hr></gpxtpx:TrackPointExtension></extensions>
      </trkpt>
      <trkpt lat="59.207961" lon="17.912303">
        <ele>55.4</ele>
        <time>2020-03-26T14:15:52Z</time>
        <extensions><gpxtpx:TrackPointExtension><gpxtpx:hr>143</gpxtpx:hr></gpxtpx:TrackPointExtension></extensions>
      </trkpt>
      <trkpt lat="59.207978" lon="17.912376">
        <ele>55.6</ele>
        <time>2020-03-26T14:15:53Z</time>
        <extensions><gpxtpx:TrackPointExtension><gpxtpx:hr>143</gpxtpx:hr></gpxtpx:TrackPointExtension></extensions>
      </trkpt>
      <trkpt lat="59.207995" lon="17.912448">
        <ele>55.8</ele>
        <time>2020-03-26T14:15:54Z</time>
        <extensions><gpxtpx:TrackPointExtension><gpxtpx:hr>144</gpxtpx:hr></gpxtpx:TrackPointExtension></extensions>
      </trkpt>
      <trkpt lat="59.208012" lon="17.912522">
        <ele>56</ele>
        <time>2020-03-26T14:15:55Z</time>
        <extensions><gpxtpx:TrackPointExtension><gpxtpx:hr>144</gpxtpx:hr></gpxtpx:TrackPointExtension></extensions>
      </trkpt>
      <trkpt lat="59.208029" lon="17.912591">
        <ele>56.4</ele>
        <time>2020-03-26T14:15:56Z</time>
        <extensions><gpxtpx:TrackPointExtension><gpxtpx:hr>144</gpxtpx:hr></gpxtpx:TrackPointExtension></extensions>
      </trkpt>
      <trkpt lat="59.208047" lon="17.91266">
        <ele>56.6</ele>
        <time>2020-03-26T14:15:57Z</time>
        <extensions><gpxtpx:TrackPointExtension><gpxtpx:hr>144</gpxtpx:hr></gpxtpx:TrackPointExtension></extensions>
      </trkpt>
      <trkpt lat="59.208063" lon="17.912732">
        <ele>57</ele>
        <time>2020-03-26T14:15:58Z</time>
        <extensions><gpxtpx:TrackPointExtension><gpxtpx:hr>145</gpxtpx:hr></gpxtpx:TrackPointExtension></extensions>
      </trkpt>
      <trkpt lat="59.208077" lon="17.912807">
        <ele>57</ele>
        <time>2020-03-26T14:15:59Z</time>
        <extensions><gpxtpx:TrackPointExtension><gpxtpx:hr>145</gpxtpx:hr></gpxtpx:TrackPointExtension></extensions>
      </trkpt>
      <trkpt lat="59.208094" lon="17.912882">
        <ele>57.2</ele>
        <time>2020-03-26T14:16:00Z</time>
        <extensions><gpxtpx:TrackPointExtension><gpxtpx:hr>145</gpxtpx:hr></gpxtpx:TrackPointExtension></extensions>
      </trkpt>
      <trkpt lat="59.208112" lon="17.912956">
        <ele>57.4</ele>
        <time>2020-03-26T14:16:01Z</time>
        <extensions><gpxtpx:TrackPointExtension><gpxtpx:hr>145</gpxtpx:hr></gpxtpx:TrackPointExtension></extensions>
      </trkpt>
      <trkpt lat="59.208129" lon="17.913031">
        <ele>57.6</ele>
        <time>2020-03-26T14:16:02Z</time>
        <extensions><gpxtpx:TrackPointExtension><gpxtpx:hr>146</gpxtpx:hr></gpxtpx:TrackPointExtension></extensions>
      </trkpt>
      <trkpt lat="59.208148" lon="17.913105">
        <ele>57.8</ele>
        <time>2020-03-26T14:16:03Z</time>
        <extensions><gpxtpx:TrackPointExtension><gpxtpx:hr>146</gpxtpx:hr></gpxtpx:TrackPointExtension></extensions>
      </trkpt>
      <trkpt lat="59.208167" lon="17.913178">
        <ele>58.2</ele>
        <time>2020-03-26T14:16:04Z</time>
        <extensions><gpxtpx:TrackPointExtension><gpxtpx:hr>146</gpxtpx:hr></gpxtpx:TrackPointExtension></extensions>
      </trkpt>
      <trkpt lat="59.208186" lon="17.913252">
        <ele>58.4</ele>
        <time>2020-03-26T14:16:05Z</time>
        <extensions><gpxtpx:TrackPointExtension><gpxtpx:hr>146</gpxtpx:hr></gpxtpx:TrackPointExtension></extensions>
      </trkpt>
      <trkpt lat="59.208203" lon="17.913325">
        <ele>58.6</ele>
        <time>2020-03-26T14:16:06Z</time>
        <extensions><gpxtpx:TrackPointExtension><gpxtpx:hr>147</gpxtpx:hr></gpxtpx:TrackPointExtension></extensions>
      </trkpt>
      <trkpt lat="59.20822" lon="17.913398">
        <ele>59</ele>
        <time>2020-03-26T14:16:07Z</time>
        <extensions><gpxtpx:TrackPointExtension><gpxtpx:hr>146</gpxtpx:hr></gpxtpx:TrackPointExtension></extensions>
      </trkpt>
      <trkpt lat="59.208236" lon="17.913471">
        <ele>59.2</ele>
        <time>2020-03-26T14:16:08Z</time>
        <extensions><gpxtpx:TrackPointExtension><gpxtpx:hr>146</gpxtpx:hr></gpxtpx:TrackPointExtension></extensions>
      </trkpt>
      <trkpt lat="59.208252" lon="17.913544">
        <ele>59.4</ele>
        <time>2020-03-26T14:16:09Z</time>
        <extensions><gpxtpx:TrackPointExtension><gpxtpx:hr>146</gpxtpx:hr></gpxtpx:TrackPointExtension></extensions>
      </trkpt>
      <trkpt lat="59.20827" lon="17.913615">
        <ele>59.6</ele>
        <time>2020-03-26T14:16:10Z</time>
        <extensions><gpxtpx:TrackPointExtension><gpxtpx:hr>146</gpxtpx:hr></gpxtpx:TrackPointExtension></extensions>
      </trkpt>
      <trkpt lat="59.20829" lon="17.913682">
        <ele>60</ele>
        <time>2020-03-26T14:16:11Z</time>
        <extensions><gpxtpx:TrackPointExtension><gpxtpx:hr>146</gpxtpx:hr></gpxtpx:TrackPointExtension></extensions>
      </trkpt>
      <trkpt lat="59.20831" lon="17.913748">
        <ele>60</ele>
        <time>2020-03-26T14:16:12Z</time>
        <extensions><gpxtpx:TrackPointExtension><gpxtpx:hr>147</gpxtpx:hr></gpxtpx:TrackPointExtension></extensions>
      </trkpt>
      <trkpt lat="59.208326" lon="17.913822">
        <ele>60.2</ele>
        <time>2020-03-26T14:16:13Z</time>
        <extensions><gpxtpx:TrackPointExtension><gpxtpx:hr>147</gpxtpx:hr></gpxtpx:TrackPointExtension></extensions>
      </trkpt>
      <trkpt lat="59.20834" lon="17.913898">
        <ele>60.4</ele>
        <time>2020-03-26T14:16:14Z</time>
        <extensions><gpxtpx:TrackPointExtension><gpxtpx:hr>148</gpxtpx:hr></gpxtpx:TrackPointExtension></extensions>
      </trkpt>
      <trkpt lat="59.208357" lon="17.913974">
        <ele>60.8</ele>
        <time>2020-03-26T14:16:15Z</time>
        <extensions><gpxtpx:TrackPointExtension><gpxtpx:hr>148</gpxtpx:hr></gpxtpx:TrackPointExtension></extensions>
      </trkpt>
      <trkpt lat="59.208374" lon="17.91405">
        <ele>61</ele>
        <time>2020-03-26T14:16:16Z</time>
        <extensions><gpxtpx:TrackPointExtension><gpxtpx:hr>148</gpxtpx:hr></gpxtpx:TrackPointExtension></extensions>
      </trkpt>
      <trkpt lat="59.208392" lon="17.914126">
        <ele>61.2</ele>
        <time>2020-03-26T14:16:17Z</time>
        <extensions><gpxtpx:TrackPointExtension><gpxtpx:hr>148</gpxtpx:hr></gpxtpx:TrackPointExtension></extensions>
      </trkpt>
      <trkpt lat="59.20841" lon="17.914202">
        <ele>61.6</ele>
        <time>2020-03-26T14:16:18Z</time>
        <extensions><gpxtpx:TrackPointExtension><gpxtpx:hr>148</gpxtpx:hr></gpxtpx:TrackPointExtension></extensions>
      </trkpt>
      <trkpt lat="59.208427" lon="17.914279">
        <ele>61.8</ele>
        <time>2020-03-26T14:16:19Z</time>
        <extensions><gpxtpx:TrackPointExtension><gpxtpx:hr>148</gpxtpx:hr></gpxtpx:TrackPointExtension></extensions>
      </trkpt>
      <trkpt lat="59.208445" lon="17.914357">
        <ele>62</ele>
        <time>2020-03-26T14:16:20Z</time>
        <extensions><gpxtpx:TrackPointExtension><gpxtpx:hr>148</gpxtpx:hr></gpxtpx:TrackPointExtension></extensions>
      </trkpt>
      <trkpt lat="59.208463" lon="17.914438">
        <ele>62.4</ele>
        <time>2020-03-26T14:16:21Z</time>
        <extensions><gpxtpx:TrackPointExtension><gpxtpx:hr>148</gpxtpx:hr></gpxtpx:TrackPointExtension></extensions>
      </trkpt>
      <trkpt lat="59.208481" lon="17.914522">
        <ele>62.6</ele>
        <time>2020-03-26T14:16:22Z</time>
        <extensions><gpxtpx:TrackPointExtension><gpxtpx:hr>148</gpxtpx:hr></gpxtpx:TrackPointExtension></extensions>
      </trkpt>
      <trkpt lat="59.208498" lon="17.914605">
        <ele>62.8</ele>
        <time>2020-03-26T14:16:23Z</time>
        <extensions><gpxtpx:TrackPointExtension><gpxtpx:hr>148</gpxtpx:hr></gpxtpx:TrackPointExtension></extensions>
      </trkpt>
      <trkpt lat="59.208516" lon="17.914689">
        <ele>63</ele>
        <time>2020-03-26T14:16:24Z</time>
        <extensions><gpxtpx:TrackPointExtension><gpxtpx:hr>148</gpxtpx:hr></gpxtpx:TrackPointExtension></extensions>
      </trkpt>
      <trkpt lat="59.208536" lon="17.914782">
        <ele>63.2</ele>
        <time>2020-03-26T14:16:25Z</time>
        <extensions><gpxtpx:TrackPointExtension><gpxtpx:hr>148</gpxtpx:hr></gpxtpx:TrackPointExtension></extensions>
      </trkpt>
      <trkpt lat="59.208559" lon="17.914884">
        <ele>63.4</ele>
        <time>2020-03-26T14:16:26Z</time>
        <extensions><gpxtpx:TrackPointExtension><gpxtpx:hr>148</gpxtpx:hr></gpxtpx:TrackPointExtension></extensions>
      </trkpt>
      <trkpt lat="59.208583" lon="17.914989">
        <ele>63.4</ele>
        <time>2020-03-26T14:16:27Z</time>
        <extensions><gpxtpx:TrackPointExtension><gpxtpx:hr>148</gpxtpx:hr></gpxtpx:TrackPointExtension></extensions>
      </trkpt>
      <trkpt lat="59.208607" lon="17.915096">
        <ele>63.4</ele>
        <time>2020-03-26T14:16:28Z</time>
        <extensions><gpxtpx:TrackPointExtension><gpxtpx:hr>148</gpxtpx:hr></gpxtpx:TrackPointExtension></extensions>
      </trkpt>
      <trkpt lat="59.208631" lon="17.915203">
        <ele>63.4</ele>
        <time>2020-03-26T14:16:29Z</time>
        <extensions><gpxtpx:TrackPointExtension><gpxtpx:hr>148</gpxtpx:hr></gpxtpx:TrackPointExtension></extensions>
      </trkpt>
      <trkpt lat="59.208656" lon="17.915313">
        <ele>63.4</ele>
        <time>2020-03-26T14:16:30Z</time>
        <extensions><gpxtpx:TrackPointExtension><gpxtpx:hr>147</gpxtpx:hr></gpxtpx:TrackPointExtension></extensions>
      </trkpt>
      <trkpt lat="59.208679" lon="17.915419">
        <ele>63.4</ele>
        <time>2020-03-26T14:16:31Z</time>
        <extensions><gpxtpx:TrackPointExtension><gpxtpx:hr>147</gpxtpx:hr></gpxtpx:TrackPointExtension></extensions>
      </trkpt>
      <trkpt lat="59.208704" lon="17.915525">
        <ele>63.4</ele>
        <time>2020-03-26T14:16:32Z</time>
        <extensions><gpxtpx:TrackPointExtension><gpxtpx:hr>147</gpxtpx:hr></gpxtpx:TrackPointExtension></extensions>
      </trkpt>
      <trkpt lat="59.208729" lon="17.91563">
        <ele>63.4</ele>
        <time>2020-03-26T14:16:33Z</time>
        <extensions><gpxtpx:TrackPointExtension><gpxtpx:hr>147</gpxtpx:hr></gpxtpx:TrackPointExtension></extensions>
      </trkpt>
      <trkpt lat="59.208756" lon="17.91574">
        <ele>63.4</ele>
        <time>2020-03-26T14:16:34Z</time>
        <extensions><gpxtpx:TrackPointExtension><gpxtpx:hr>146</gpxtpx:hr></gpxtpx:TrackPointExtension></extensions>
      </trkpt>
      <trkpt lat="59.208785" lon="17.915853">
        <ele>63.4</ele>
        <time>2020-03-26T14:16:35Z</time>
        <extensions><gpxtpx:TrackPointExtension><gpxtpx:hr>146</gpxtpx:hr></gpxtpx:TrackPointExtension></extensions>
      </trkpt>
      <trkpt lat="59.208813" lon="17.915968">
        <ele>63.4</ele>
        <time>2020-03-26T14:16:36Z</time>
        <extensions><gpxtpx:TrackPointExtension><gpxtpx:hr>146</gpxtpx:hr></gpxtpx:TrackPointExtension></extensions>
      </trkpt>
      <trkpt lat="59.208841" lon="17.916085">
        <ele>63.4</ele>
        <time>2020-03-26T14:16:37Z</time>
        <extensions><gpxtpx:TrackPointExtension><gpxtpx:hr>145</gpxtpx:hr></gpxtpx:TrackPointExtension></extensions>
      </trkpt>
      <trkpt lat="59.208866" lon="17.916201">
        <ele>63.4</ele>
        <time>2020-03-26T14:16:38Z</time>
        <extensions><gpxtpx:TrackPointExtension><gpxtpx:hr>144</gpxtpx:hr></gpxtpx:TrackPointExtension></extensions>
      </trkpt>
      <trkpt lat="59.208886" lon="17.916291">
        <ele>63.4</ele>
        <time>2020-03-26T14:16:39Z</time>
        <extensions><gpxtpx:TrackPointExtension><gpxtpx:hr>144</gpxtpx:hr></gpxtpx:TrackPointExtension></extensions>
      </trkpt>
      <trkpt lat="59.208906" lon="17.916381">
        <ele>63.4</ele>
        <time>2020-03-26T14:16:40Z</time>
        <extensions><gpxtpx:TrackPointExtension><gpxtpx:hr>143</gpxtpx:hr></gpxtpx:TrackPointExtension></extensions>
      </trkpt>
      <trkpt lat="59.208945" lon="17.916562">
        <ele>63.4</ele>
        <time>2020-03-26T14:16:41Z</time>
        <extensions><gpxtpx:TrackPointExtension><gpxtpx:hr>143</gpxtpx:hr></gpxtpx:TrackPointExtension></extensions>
      </trkpt>
      <trkpt lat="59.208975" lon="17.916678">
        <ele>63.2</ele>
        <time>2020-03-26T14:16:42Z</time>
        <extensions><gpxtpx:TrackPointExtension><gpxtpx:hr>142</gpxtpx:hr></gpxtpx:TrackPointExtension></extensions>
      </trkpt>
      <trkpt lat="59.209007" lon="17.916789">
        <ele>63.2</ele>
        <time>2020-03-26T14:16:43Z</time>
        <extensions><gpxtpx:TrackPointExtension><gpxtpx:hr>141</gpxtpx:hr></gpxtpx:TrackPointExtension></extensions>
      </trkpt>
      <trkpt lat="59.209039" lon="17.916898">
        <ele>63.2</ele>
        <time>2020-03-26T14:16:44Z</time>
        <extensions><gpxtpx:TrackPointExtension><gpxtpx:hr>141</gpxtpx:hr></gpxtpx:TrackPointExtension></extensions>
      </trkpt>
      <trkpt lat="59.209072" lon="17.917006">
        <ele>63.2</ele>
        <time>2020-03-26T14:16:45Z</time>
        <extensions><gpxtpx:TrackPointExtension><gpxtpx:hr>140</gpxtpx:hr></gpxtpx:TrackPointExtension></extensions>
      </trkpt>
      <trkpt lat="59.209105" lon="17.917109">
        <ele>63.2</ele>
        <time>2020-03-26T14:16:46Z</time>
        <extensions><gpxtpx:TrackPointExtension><gpxtpx:hr>138</gpxtpx:hr></gpxtpx:TrackPointExtension></extensions>
      </trkpt>
      <trkpt lat="59.209136" lon="17.917215">
        <ele>63.2</ele>
        <time>2020-03-26T14:16:47Z</time>
        <extensions><gpxtpx:TrackPointExtension><gpxtpx:hr>136</gpxtpx:hr></gpxtpx:TrackPointExtension></extensions>
      </trkpt>
      <trkpt lat="59.209164" lon="17.917322">
        <ele>63.2</ele>
        <time>2020-03-26T14:16:48Z</time>
        <extensions><gpxtpx:TrackPointExtension><gpxtpx:hr>134</gpxtpx:hr></gpxtpx:TrackPointExtension></extensions>
      </trkpt>
      <trkpt lat="59.209191" lon="17.917428">
        <ele>63</ele>
        <time>2020-03-26T14:16:49Z</time>
        <extensions><gpxtpx:TrackPointExtension><gpxtpx:hr>132</gpxtpx:hr></gpxtpx:TrackPointExtension></extensions>
      </trkpt>
      <trkpt lat="59.209218" lon="17.917531">
        <ele>63</ele>
        <time>2020-03-26T14:16:50Z</time>
        <extensions><gpxtpx:TrackPointExtension><gpxtpx:hr>130</gpxtpx:hr></gpxtpx:TrackPointExtension></extensions>
      </trkpt>
      <trkpt lat="59.209245" lon="17.917633">
        <ele>63</ele>
        <time>2020-03-26T14:16:51Z</time>
        <extensions><gpxtpx:TrackPointExtension><gpxtpx:hr>128</gpxtpx:hr></gpxtpx:TrackPointExtension></extensions>
      </trkpt>
      <trkpt lat="59.209272" lon="17.917732">
        <ele>63</ele>
        <time>2020-03-26T14:16:52Z</time>
        <extensions><gpxtpx:TrackPointExtension><gpxtpx:hr>125</gpxtpx:hr></gpxtpx:TrackPointExtension></extensions>
      </trkpt>
      <trkpt lat="59.209298" lon="17.917826">
        <ele>62.8</ele>
        <time>2020-03-26T14:16:53Z</time>
        <extensions><gpxtpx:TrackPointExtension><gpxtpx:hr>124</gpxtpx:hr></gpxtpx:TrackPointExtension></extensions>
      </trkpt>
      <trkpt lat="59.209318" lon="17.917914">
        <ele>62.8</ele>
        <time>2020-03-26T14:16:54Z</time>
        <extensions><gpxtpx:TrackPointExtension><gpxtpx:hr>122</gpxtpx:hr></gpxtpx:TrackPointExtension></extensions>
      </trkpt>
      <trkpt lat="59.20933" lon="17.917989">
        <ele>62.6</ele>
        <time>2020-03-26T14:16:55Z</time>
        <extensions><gpxtpx:TrackPointExtension><gpxtpx:hr>121</gpxtpx:hr></gpxtpx:TrackPointExtension></extensions>
      </trkpt>
      <trkpt lat="59.209339" lon="17.918044">
        <ele>62.6</ele>
        <time>2020-03-26T14:16:56Z</time>
        <extensions><gpxtpx:TrackPointExtension><gpxtpx:hr>121</gpxtpx:hr></gpxtpx:TrackPointExtension></extensions>
      </trkpt>
      <trkpt lat="59.20935" lon="17.918078">
        <ele>62.6</ele>
        <time>2020-03-26T14:16:57Z</time>
        <extensions><gpxtpx:TrackPointExtension><gpxtpx:hr>119</gpxtpx:hr></gpxtpx:TrackPointExtension></extensions>
      </trkpt>
      <trkpt lat="59.209355" lon="17.918089">
        <ele>62.6</ele>
        <time>2020-03-26T14:16:58Z</time>
        <extensions><gpxtpx:TrackPointExtension><gpxtpx:hr>118</gpxtpx:hr></gpxtpx:TrackPointExtension></extensions>
      </trkpt>
      <trkpt lat="59.209355" lon="17.918089">
        <ele>62.6</ele>
        <time>2020-03-26T14:16:59Z</time>
        <extensions><gpxtpx:TrackPointExtension><gpxtpx:hr>118</gpxtpx:hr></gpxtpx:TrackPointExtension></extensions>
      </trkpt>
      <trkpt lat="59.209385" lon="17.918073">
        <ele>63</ele>
        <time>2020-03-26T14:17:16Z</time>
        <extensions><gpxtpx:TrackPointExtension><gpxtpx:hr>90</gpxtpx:hr></gpxtpx:TrackPointExtension></extensions>
      </trkpt>
      <trkpt lat="59.209413" lon="17.918062">
        <ele>63</ele>
        <time>2020-03-26T14:17:17Z</time>
        <extensions><gpxtpx:TrackPointExtension><gpxtpx:hr>90</gpxtpx:hr></gpxtpx:TrackPointExtension></extensions>
      </trkpt>
      <trkpt lat="59.209446" lon="17.918038">
        <ele>63</ele>
        <time>2020-03-26T14:17:18Z</time>
        <extensions><gpxtpx:TrackPointExtension><gpxtpx:hr>90</gpxtpx:hr></gpxtpx:TrackPointExtension></extensions>
      </trkpt>
      <trkpt lat="59.209482" lon="17.918003">
        <ele>63</ele>
        <time>2020-03-26T14:17:19Z</time>
        <extensions><gpxtpx:TrackPointExtension><gpxtpx:hr>92</gpxtpx:hr></gpxtpx:TrackPointExtension></extensions>
      </trkpt>
      <trkpt lat="59.209524" lon="17.917962">
        <ele>63</ele>
        <time>2020-03-26T14:17:20Z</time>
        <extensions><gpxtpx:TrackPointExtension><gpxtpx:hr>97</gpxtpx:hr></gpxtpx:TrackPointExtension></extensions>
      </trkpt>
      <trkpt lat="59.209572" lon="17.917924">
        <ele>63</ele>
        <time>2020-03-26T14:17:21Z</time>
        <extensions><gpxtpx:TrackPointExtension><gpxtpx:hr>97</gpxtpx:hr></gpxtpx:TrackPointExtension></extensions>
      </trkpt>
      <trkpt lat="59.209625" lon="17.917902">
        <ele>63</ele>
        <time>2020-03-26T14:17:22Z</time>
        <extensions><gpxtpx:TrackPointExtension><gpxtpx:hr>108</gpxtpx:hr></gpxtpx:TrackPointExtension></extensions>
      </trkpt>
      <trkpt lat="59.209682" lon="17.91789">
        <ele>63</ele>
        <time>2020-03-26T14:17:23Z</time>
        <extensions><gpxtpx:TrackPointExtension><gpxtpx:hr>114</gpxtpx:hr></gpxtpx:TrackPointExtension></extensions>
      </trkpt>
      <trkpt lat="59.209738" lon="17.917875">
        <ele>62.8</ele>
        <time>2020-03-26T14:17:24Z</time>
        <extensions><gpxtpx:TrackPointExtension><gpxtpx:hr>118</gpxtpx:hr></gpxtpx:TrackPointExtension></extensions>
      </trkpt>
      <trkpt lat="59.209794" lon="17.91785">
        <ele>62.8</ele>
        <time>2020-03-26T14:17:25Z</time>
        <extensions><gpxtpx:TrackPointExtension><gpxtpx:hr>119</gpxtpx:hr></gpxtpx:TrackPointExtension></extensions>
      </trkpt>
      <trkpt lat="59.209851" lon="17.917819">
        <ele>62.8</ele>
        <time>2020-03-26T14:17:26Z</time>
        <extensions><gpxtpx:TrackPointExtension><gpxtpx:hr>120</gpxtpx:hr></gpxtpx:TrackPointExtension></extensions>
      </trkpt>
      <trkpt lat="59.209908" lon="17.917783">
        <ele>62.8</ele>
        <time>2020-03-26T14:17:27Z</time>
        <extensions><gpxtpx:TrackPointExtension><gpxtpx:hr>121</gpxtpx:hr></gpxtpx:TrackPointExtension></extensions>
      </trkpt>
      <trkpt lat="59.209965" lon="17.917755">
        <ele>62.6</ele>
        <time>2020-03-26T14:17:28Z</time>
        <extensions><gpxtpx:TrackPointExtension><gpxtpx:hr>121</gpxtpx:hr></gpxtpx:TrackPointExtension></extensions>
      </trkpt>
      <trkpt lat="59.210021" lon="17.917743">
        <ele>62.6</ele>
        <time>2020-03-26T14:17:29Z</time>
        <extensions><gpxtpx:TrackPointExtension><gpxtpx:hr>122</gpxtpx:hr></gpxtpx:TrackPointExtension></extensions>
      </trkpt>
      <trkpt lat="59.210076" lon="17.91774">
        <ele>62.4</ele>
        <time>2020-03-26T14:17:30Z</time>
        <extensions><gpxtpx:TrackPointExtension><gpxtpx:hr>122</gpxtpx:hr></gpxtpx:TrackPointExtension></extensions>
      </trkpt>
      <trkpt lat="59.210133" lon="17.917736">
        <ele>62.4</ele>
        <time>2020-03-26T14:17:31Z</time>
        <extensions><gpxtpx:TrackPointExtension><gpxtpx:hr>121</gpxtpx:hr></gpxtpx:TrackPointExtension></extensions>
      </trkpt>
      <trkpt lat="59.210191" lon="17.917726">
        <ele>62.4</ele>
        <time>2020-03-26T14:17:32Z</time>
        <extensions><gpxtpx:TrackPointExtension><gpxtpx:hr>121</gpxtpx:hr></gpxtpx:TrackPointExtension></extensions>
      </trkpt>
      <trkpt lat="59.210252" lon="17.917707">
        <ele>62.4</ele>
        <time>2020-03-26T14:17:33Z</time>
        <extensions><gpxtpx:TrackPointExtension><gpxtpx:hr>121</gpxtpx:hr></gpxtpx:TrackPointExtension></extensions>
      </trkpt>
      <trkpt lat="59.210321" lon="17.917674">
        <ele>62.4</ele>
        <time>2020-03-26T14:17:34Z</time>
        <extensions><gpxtpx:TrackPointExtension><gpxtpx:hr>121</gpxtpx:hr></gpxtpx:TrackPointExtension></extensions>
      </trkpt>
      <trkpt lat="59.210393" lon="17.91763">
        <ele>62.4</ele>
        <time>2020-03-26T14:17:35Z</time>
        <extensions><gpxtpx:TrackPointExtension><gpxtpx:hr>122</gpxtpx:hr></gpxtpx:TrackPointExtension></extensions>
      </trkpt>
      <trkpt lat="59.210466" lon="17.917575">
        <ele>62.2</ele>
        <time>2020-03-26T14:17:36Z</time>
        <extensions><gpxtpx:TrackPointExtension><gpxtpx:hr>123</gpxtpx:hr></gpxtpx:TrackPointExtension></extensions>
      </trkpt>
      <trkpt lat="59.210536" lon="17.917518">
        <ele>62.2</ele>
        <time>2020-03-26T14:17:37Z</time>
        <extensions><gpxtpx:TrackPointExtension><gpxtpx:hr>125</gpxtpx:hr></gpxtpx:TrackPointExtension></extensions>
      </trkpt>
      <trkpt lat="59.210601" lon="17.917466">
        <ele>62.2</ele>
        <time>2020-03-26T14:17:38Z</time>
        <extensions><gpxtpx:TrackPointExtension><gpxtpx:hr>126</gpxtpx:hr></gpxtpx:TrackPointExtension></extensions>
      </trkpt>
      <trkpt lat="59.210661" lon="17.917416">
        <ele>62.4</ele>
        <time>2020-03-26T14:17:39Z</time>
        <extensions><gpxtpx:TrackPointExtension><gpxtpx:hr>128</gpxtpx:hr></gpxtpx:TrackPointExtension></extensions>
      </trkpt>
      <trkpt lat="59.210722" lon="17.91737">
        <ele>62.4</ele>
        <time>2020-03-26T14:17:40Z</time>
        <extensions><gpxtpx:TrackPointExtension><gpxtpx:hr>130</gpxtpx:hr></gpxtpx:TrackPointExtension></extensions>
      </trkpt>
      <trkpt lat="59.210784" lon="17.917324">
        <ele>62.4</ele>
        <time>2020-03-26T14:17:41Z</time>
        <extensions><gpxtpx:TrackPointExtension><gpxtpx:hr>132</gpxtpx:hr></gpxtpx:TrackPointExtension></extensions>
      </trkpt>
      <trkpt lat="59.210844" lon="17.917282">
        <ele>62.4</ele>
        <time>2020-03-26T14:17:42Z</time>
        <extensions><gpxtpx:TrackPointExtension><gpxtpx:hr>133</gpxtpx:hr></gpxtpx:TrackPointExtension></extensions>
      </trkpt>
      <trkpt lat="59.210907" lon="17.917235">
        <ele>62.4</ele>
        <time>2020-03-26T14:17:43Z</time>
        <extensions><gpxtpx:TrackPointExtension><gpxtpx:hr>135</gpxtpx:hr></gpxtpx:TrackPointExtension></extensions>
      </trkpt>
      <trkpt lat="59.210969" lon="17.917188">
        <ele>62.4</ele>
        <time>2020-03-26T14:17:44Z</time>
        <extensions><gpxtpx:TrackPointExtension><gpxtpx:hr>136</gpxtpx:hr></gpxtpx:TrackPointExtension></extensions>
      </trkpt>
      <trkpt lat="59.211028" lon="17.91714">
        <ele>62.6</ele>
        <time>2020-03-26T14:17:45Z</time>
        <extensions><gpxtpx:TrackPointExtension><gpxtpx:hr>137</gpxtpx:hr></gpxtpx:TrackPointExtension></extensions>
      </trkpt>
      <trkpt lat="59.211087" lon="17.917093">
        <ele>62.8</ele>
        <time>2020-03-26T14:17:46Z</time>
        <extensions><gpxtpx:TrackPointExtension><gpxtpx:hr>139</gpxtpx:hr></gpxtpx:TrackPointExtension></extensions>
      </trkpt>
      <trkpt lat="59.211148" lon="17.917049">
        <ele>63</ele>
        <time>2020-03-26T14:17:47Z</time>
        <extensions><gpxtpx:TrackPointExtension><gpxtpx:hr>140</gpxtpx:hr></gpxtpx:TrackPointExtension></extensions>
      </trkpt>
      <trkpt lat="59.211211" lon="17.917006">
        <ele>63</ele>
        <time>2020-03-26T14:17:48Z</time>
        <extensions><gpxtpx:TrackPointExtension><gpxtpx:hr>141</gpxtpx:hr></gpxtpx:TrackPointExtension></extensions>
      </trkpt>
      <trkpt lat="59.211271" lon="17.916964">
        <ele>63.2</ele>
        <time>2020-03-26T14:17:49Z</time>
        <extensions><gpxtpx:TrackPointExtension><gpxtpx:hr>141</gpxtpx:hr></gpxtpx:TrackPointExtension></extensions>
      </trkpt>
      <trkpt lat="59.211336" lon="17.916914">
        <ele>63.4</ele>
        <time>2020-03-26T14:17:50Z</time>
        <extensions><gpxtpx:TrackPointExtension><gpxtpx:hr>142</gpxtpx:hr></gpxtpx:TrackPointExtension></extensions>
      </trkpt>
      <trkpt lat="59.211397" lon="17.916862">
        <ele>63.6</ele>
        <time>2020-03-26T14:17:51Z</time>
        <extensions><gpxtpx:TrackPointExtension><gpxtpx:hr>143</gpxtpx:hr></gpxtpx:TrackPointExtension></extensions>
      </trkpt>
      <trkpt lat="59.211459" lon="17.916813">
        <ele>63.8</ele>
        <time>2020-03-26T14:17:52Z</time>
        <extensions><gpxtpx:TrackPointExtension><gpxtpx:hr>143</gpxtpx:hr></gpxtpx:TrackPointExtension></extensions>
      </trkpt>
      <trkpt lat="59.211527" lon="17.916756">
        <ele>63.8</ele>
        <time>2020-03-26T14:17:53Z</time>
        <extensions><gpxtpx:TrackPointExtension><gpxtpx:hr>143</gpxtpx:hr></gpxtpx:TrackPointExtension></extensions>
      </trkpt>
      <trkpt lat="59.211592" lon="17.916709">
        <ele>63.8</ele>
        <time>2020-03-26T14:17:54Z</time>
        <extensions><gpxtpx:TrackPointExtension><gpxtpx:hr>143</gpxtpx:hr></gpxtpx:TrackPointExtension></extensions>
      </trkpt>
      <trkpt lat="59.211658" lon="17.916665">
        <ele>63.8</ele>
        <time>2020-03-26T14:17:55Z</time>
        <extensions><gpxtpx:TrackPointExtension><gpxtpx:hr>143</gpxtpx:hr></gpxtpx:TrackPointExtension></extensions>
      </trkpt>
      <trkpt lat="59.211725" lon="17.91662">
        <ele>63.8</ele>
        <time>2020-03-26T14:17:56Z</time>
        <extensions><gpxtpx:TrackPointExtension><gpxtpx:hr>142</gpxtpx:hr></gpxtpx:TrackPointExtension></extensions>
      </trkpt>
      <trkpt lat="59.211792" lon="17.916578">
        <ele>63.8</ele>
        <time>2020-03-26T14:17:57Z</time>
        <extensions><gpxtpx:TrackPointExtension><gpxtpx:hr>142</gpxtpx:hr></gpxtpx:TrackPointExtension></extensions>
      </trkpt>
      <trkpt lat="59.211859" lon="17.916542">
        <ele>63.8</ele>
        <time>2020-03-26T14:17:58Z</time>
        <extensions><gpxtpx:TrackPointExtension><gpxtpx:hr>141</gpxtpx:hr></gpxtpx:TrackPointExtension></extensions>
      </trkpt>
      <trkpt lat="59.211929" lon="17.916505">
        <ele>63.8</ele>
        <time>2020-03-26T14:17:59Z</time>
        <extensions><gpxtpx:TrackPointExtension><gpxtpx:hr>141</gpxtpx:hr></gpxtpx:TrackPointExtension></extensions>
      </trkpt>
      <trkpt lat="59.212001" lon="17.916464">
        <ele>63.8</ele>
        <time>2020-03-26T14:18:00Z</time>
        <extensions><gpxtpx:TrackPointExtension><gpxtpx:hr>140</gpxtpx:hr></gpxtpx:TrackPointExtension></extensions>
      </trkpt>
      <trkpt lat="59.212076" lon="17.916424">
        <ele>63.8</ele>
        <time>2020-03-26T14:18:01Z</time>
        <extensions><gpxtpx:TrackPointExtension><gpxtpx:hr>139</gpxtpx:hr></gpxtpx:TrackPointExtension></extensions>
      </trkpt>
      <trkpt lat="59.212147" lon="17.916393">
        <ele>63.8</ele>
        <time>2020-03-26T14:18:02Z</time>
        <extensions><gpxtpx:TrackPointExtension><gpxtpx:hr>139</gpxtpx:hr></gpxtpx:TrackPointExtension></extensions>
      </trkpt>
      <trkpt lat="59.212223" lon="17.916381">
        <ele>63.8</ele>
        <time>2020-03-26T14:18:03Z</time>
        <extensions><gpxtpx:TrackPointExtension><gpxtpx:hr>138</gpxtpx:hr></gpxtpx:TrackPointExtension></extensions>
      </trkpt>
      <trkpt lat="59.212298" lon="17.916378">
        <ele>63.6</ele>
        <time>2020-03-26T14:18:04Z</time>
        <extensions><gpxtpx:TrackPointExtension><gpxtpx:hr>138</gpxtpx:hr></gpxtpx:TrackPointExtension></extensions>
      </trkpt>
      <trkpt lat="59.212375" lon="17.916349">
        <ele>63.4</ele>
        <time>2020-03-26T14:18:05Z</time>
        <extensions><gpxtpx:TrackPointExtension><gpxtpx:hr>138</gpxtpx:hr></gpxtpx:TrackPointExtension></extensions>
      </trkpt>
      <trkpt lat="59.212453" lon="17.916298">
        <ele>63.4</ele>
        <time>2020-03-26T14:18:06Z</time>
        <extensions><gpxtpx:TrackPointExtension><gpxtpx:hr>137</gpxtpx:hr></gpxtpx:TrackPointExtension></extensions>
      </trkpt>
      <trkpt lat="59.212533" lon="17.916252">
        <ele>63.2</ele>
        <time>2020-03-26T14:18:07Z</time>
        <extensions><gpxtpx:TrackPointExtension><gpxtpx:hr>136</gpxtpx:hr></gpxtpx:TrackPointExtension></extensions>
      </trkpt>
      <trkpt lat="59.212616" lon="17.916217">
        <ele>63.2</ele>
        <time>2020-03-26T14:18:08Z</time>
        <extensions><gpxtpx:TrackPointExtension><gpxtpx:hr>136</gpxtpx:hr></gpxtpx:TrackPointExtension></extensions>
      </trkpt>
      <trkpt lat="59.212705" lon="17.916193">
        <ele>62.8</ele>
        <time>2020-03-26T14:18:09Z</time>
        <extensions><gpxtpx:TrackPointExtension><gpxtpx:hr>136</gpxtpx:hr></gpxtpx:TrackPointExtension></extensions>
      </trkpt>
      <trkpt lat="59.212797" lon="17.916168">
        <ele>62.6</ele>
        <time>2020-03-26T14:18:10Z</time>
        <extensions><gpxtpx:TrackPointExtension><gpxtpx:hr>136</gpxtpx:hr></gpxtpx:TrackPointExtension></extensions>
      </trkpt>
      <trkpt lat="59.212884" lon="17.916139">
        <ele>62.4</ele>
        <time>2020-03-26T14:18:11Z</time>
        <extensions><gpxtpx:TrackPointExtension><gpxtpx:hr>135</gpxtpx:hr></gpxtpx:TrackPointExtension></extensions>
      </trkpt>
      <trkpt lat="59.212974" lon="17.916103">
        <ele>62.2</ele>
        <time>2020-03-26T14:18:12Z</time>
        <extensions><gpxtpx:TrackPointExtension><gpxtpx:hr>135</gpxtpx:hr></gpxtpx:TrackPointExtension></extensions>
      </trkpt>
      <trkpt lat="59.213063" lon="17.916062">
        <ele>62</ele>
        <time>2020-03-26T14:18:13Z</time>
        <extensions><gpxtpx:TrackPointExtension><gpxtpx:hr>135</gpxtpx:hr></gpxtpx:TrackPointExtension></extensions>
      </trkpt>
      <trkpt lat="59.213152" lon="17.916015">
        <ele>61.8</ele>
        <time>2020-03-26T14:18:14Z</time>
        <extensions><gpxtpx:TrackPointExtension><gpxtpx:hr>134</gpxtpx:hr></gpxtpx:TrackPointExtension></extensions>
      </trkpt>
      <trkpt lat="59.21324" lon="17.91596">
        <ele>61.4</ele>
        <time>2020-03-26T14:18:15Z</time>
        <extensions><gpxtpx:TrackPointExtension><gpxtpx:hr>132</gpxtpx:hr></gpxtpx:TrackPointExtension></extensions>
      </trkpt>
      <trkpt lat="59.21333" lon="17.915898">
        <ele>61</ele>
        <time>2020-03-26T14:18:16Z</time>
        <extensions><gpxtpx:TrackPointExtension><gpxtpx:hr>131</gpxtpx:hr></gpxtpx:TrackPointExtension></extensions>
      </trkpt>
      <trkpt lat="59.213423" lon="17.91583">
        <ele>60.6</ele>
        <time>2020-03-26T14:18:17Z</time>
        <extensions><gpxtpx:TrackPointExtension><gpxtpx:hr>129</gpxtpx:hr></gpxtpx:TrackPointExtension></extensions>
      </trkpt>
      <trkpt lat="59.213512" lon="17.915762">
        <ele>60.2</ele>
        <time>2020-03-26T14:18:18Z</time>
        <extensions><gpxtpx:TrackPointExtension><gpxtpx:hr>129</gpxtpx:hr></gpxtpx:TrackPointExtension></extensions>
      </trkpt>
      <trkpt lat="59.213601" lon="17.915695">
        <ele>59.8</ele>
        <time>2020-03-26T14:18:19Z</time>
        <extensions><gpxtpx:TrackPointExtension><gpxtpx:hr>126</gpxtpx:hr></gpxtpx:TrackPointExtension></extensions>
      </trkpt>
      <trkpt lat="59.213686" lon="17.915629">
        <ele>59.4</ele>
        <time>2020-03-26T14:18:20Z</time>
        <extensions><gpxtpx:TrackPointExtension><gpxtpx:hr>125</gpxtpx:hr></gpxtpx:TrackPointExtension></extensions>
      </trkpt>
      <trkpt lat="59.213772" lon="17.915568">
        <ele>59</ele>
        <time>2020-03-26T14:18:21Z</time>
        <extensions><gpxtpx:TrackPointExtension><gpxtpx:hr>121</gpxtpx:hr></gpxtpx:TrackPointExtension></extensions>
      </trkpt>
      <trkpt lat="59.213858" lon="17.915509">
        <ele>58.2</ele>
        <time>2020-03-26T14:18:22Z</time>
        <extensions><gpxtpx:TrackPointExtension><gpxtpx:hr>121</gpxtpx:hr></gpxtpx:TrackPointExtension></extensions>
      </trkpt>
      <trkpt lat="59.213942" lon="17.915452">
        <ele>57.6</ele>
        <time>2020-03-26T14:18:23Z</time>
        <extensions><gpxtpx:TrackPointExtension><gpxtpx:hr>114</gpxtpx:hr></gpxtpx:TrackPointExtension></extensions>
      </trkpt>
      <trkpt lat="59.214024" lon="17.915396">
        <ele>57</ele>
        <time>2020-03-26T14:18:24Z</time>
        <extensions><gpxtpx:TrackPointExtension><gpxtpx:hr>110</gpxtpx:hr></gpxtpx:TrackPointExtension></extensions>
      </trkpt>
      <trkpt lat="59.214107" lon="17.915337">
        <ele>56.4</ele>
        <time>2020-03-26T14:18:25Z</time>
        <extensions><gpxtpx:TrackPointExtension><gpxtpx:hr>107</gpxtpx:hr></gpxtpx:TrackPointExtension></extensions>
      </trkpt>
      <trkpt lat="59.214189" lon="17.915278">
        <ele>55.8</ele>
        <time>2020-03-26T14:18:26Z</time>
        <extensions><gpxtpx:TrackPointExtension><gpxtpx:hr>106</gpxtpx:hr></gpxtpx:TrackPointExtension></extensions>
      </trkpt>
      <trkpt lat="59.214272" lon="17.91522">
        <ele>55.2</ele>
        <time>2020-03-26T14:18:27Z</time>
        <extensions><gpxtpx:TrackPointExtension><gpxtpx:hr>106</gpxtpx:hr></gpxtpx:TrackPointExtension></extensions>
      </trkpt>
      <trkpt lat="59.214356" lon="17.915161">
        <ele>54.6</ele>
        <time>2020-03-26T14:18:28Z</time>
        <extensions><gpxtpx:TrackPointExtension><gpxtpx:hr>108</gpxtpx:hr></gpxtpx:TrackPointExtension></extensions>
      </trkpt>
      <trkpt lat="59.214441" lon="17.915098">
        <ele>54.4</ele>
        <time>2020-03-26T14:18:29Z</time>
        <extensions><gpxtpx:TrackPointExtension><gpxtpx:hr>109</gpxtpx:hr></gpxtpx:TrackPointExtension></extensions>
      </trkpt>
      <trkpt lat="59.214527" lon="17.915036">
        <ele>54</ele>
        <time>2020-03-26T14:18:30Z</time>
        <extensions><gpxtpx:TrackPointExtension><gpxtpx:hr>109</gpxtpx:hr></gpxtpx:TrackPointExtension></extensions>
      </trkpt>
      <trkpt lat="59.214613" lon="17.914976">
        <ele>53.8</ele>
        <time>2020-03-26T14:18:31Z</time>
        <extensions><gpxtpx:TrackPointExtension><gpxtpx:hr>114</gpxtpx:hr></gpxtpx:TrackPointExtension></extensions>
      </trkpt>
      <trkpt lat="59.214697" lon="17.914915">
        <ele>53.6</ele>
        <time>2020-03-26T14:18:32Z</time>
        <extensions><gpxtpx:TrackPointExtension><gpxtpx:hr>116</gpxtpx:hr></gpxtpx:TrackPointExtension></extensions>
      </trkpt>
      <trkpt lat="59.214779" lon="17.914852">
        <ele>53.6</ele>
        <time>2020-03-26T14:18:33Z</time>
        <extensions><gpxtpx:TrackPointExtension><gpxtpx:hr>117</gpxtpx:hr></gpxtpx:TrackPointExtension></extensions>
      </trkpt>
      <trkpt lat="59.214859" lon="17.914779">
        <ele>53.6</ele>
        <time>2020-03-26T14:18:34Z</time>
        <extensions><gpxtpx:TrackPointExtension><gpxtpx:hr>117</gpxtpx:hr></gpxtpx:TrackPointExtension></extensions>
      </trkpt>
      <trkpt lat="59.214938" lon="17.914695">
        <ele>53.4</ele>
        <time>2020-03-26T14:18:35Z</time>
        <extensions><gpxtpx:TrackPointExtension><gpxtpx:hr>117</gpxtpx:hr></gpxtpx:TrackPointExtension></extensions>
      </trkpt>
      <trkpt lat="59.215012" lon="17.914602">
        <ele>53.4</ele>
        <time>2020-03-26T14:18:36Z</time>
        <extensions><gpxtpx:TrackPointExtension><gpxtpx:hr>116</gpxtpx:hr></gpxtpx:TrackPointExtension></extensions>
      </trkpt>
      <trkpt lat="59.215087" lon="17.91451">
        <ele>53.4</ele>
        <time>2020-03-26T14:18:37Z</time>
        <extensions><gpxtpx:TrackPointExtension><gpxtpx:hr>115</gpxtpx:hr></gpxtpx:TrackPointExtension></extensions>
      </trkpt>
      <trkpt lat="59.215161" lon="17.914439">
        <ele>53.2</ele>
        <time>2020-03-26T14:18:38Z</time>
        <extensions><gpxtpx:TrackPointExtension><gpxtpx:hr>115</gpxtpx:hr></gpxtpx:TrackPointExtension></extensions>
      </trkpt>
      <trkpt lat="59.215239" lon="17.91437">
        <ele>53.2</ele>
        <time>2020-03-26T14:18:39Z</time>
        <extensions><gpxtpx:TrackPointExtension><gpxtpx:hr>113</gpxtpx:hr></gpxtpx:TrackPointExtension></extensions>
      </trkpt>
      <trkpt lat="59.215297" lon="17.914267">
        <ele>53.2</ele>
        <time>2020-03-26T14:18:40Z</time>
        <extensions><gpxtpx:TrackPointExtension><gpxtpx:hr>112</gpxtpx:hr></gpxtpx:TrackPointExtension></extensions>
      </trkpt>
      <trkpt lat="59.215333" lon="17.914125">
        <ele>53.2</ele>
        <time>2020-03-26T14:18:41Z</time>
        <extensions><gpxtpx:TrackPointExtension><gpxtpx:hr>112</gpxtpx:hr></gpxtpx:TrackPointExtension></extensions>
      </trkpt>
      <trkpt lat="59.215357" lon="17.913981">
        <ele>53.2</ele>
        <time>2020-03-26T14:18:42Z</time>
        <extensions><gpxtpx:TrackPointExtension><gpxtpx:hr>112</gpxtpx:hr></gpxtpx:TrackPointExtension></extensions>
      </trkpt>
      <trkpt lat="59.215386" lon="17.913838">
        <ele>53.2</ele>
        <time>2020-03-26T14:18:43Z</time>
        <extensions><gpxtpx:TrackPointExtension><gpxtpx:hr>113</gpxtpx:hr></gpxtpx:TrackPointExtension></extensions>
      </trkpt>
      <trkpt lat="59.215425" lon="17.913681">
        <ele>53</ele>
        <time>2020-03-26T14:18:44Z</time>
        <extensions><gpxtpx:TrackPointExtension><gpxtpx:hr>114</gpxtpx:hr></gpxtpx:TrackPointExtension></extensions>
      </trkpt>
      <trkpt lat="59.215462" lon="17.913523">
        <ele>52.8</ele>
        <time>2020-03-26T14:18:45Z</time>
        <extensions><gpxtpx:TrackPointExtension><gpxtpx:hr>114</gpxtpx:hr></gpxtpx:TrackPointExtension></extensions>
      </trkpt>
      <trkpt lat="59.215496" lon="17.913364">
        <ele>52.4</ele>
        <time>2020-03-26T14:18:46Z</time>
        <extensions><gpxtpx:TrackPointExtension><gpxtpx:hr>117</gpxtpx:hr></gpxtpx:TrackPointExtension></extensions>
      </trkpt>
      <trkpt lat="59.215525" lon="17.913208">
        <ele>52</ele>
        <time>2020-03-26T14:18:47Z</time>
        <extensions><gpxtpx:TrackPointExtension><gpxtpx:hr>119</gpxtpx:hr></gpxtpx:TrackPointExtension></extensions>
      </trkpt>
      <trkpt lat="59.21555" lon="17.913057">
        <ele>51.6</ele>
        <time>2020-03-26T14:18:48Z</time>
        <extensions><gpxtpx:TrackPointExtension><gpxtpx:hr>121</gpxtpx:hr></gpxtpx:TrackPointExtension></extensions>
      </trkpt>
      <trkpt lat="59.21557" lon="17.912912">
        <ele>51.4</ele>
        <time>2020-03-26T14:18:49Z</time>
        <extensions><gpxtpx:TrackPointExtension><gpxtpx:hr>123</gpxtpx:hr></gpxtpx:TrackPointExtension></extensions>
      </trkpt>
      <trkpt lat="59.215585" lon="17.912768">
        <ele>51.2</ele>
        <time>2020-03-26T14:18:50Z</time>
        <extensions><gpxtpx:TrackPointExtension><gpxtpx:hr>124</gpxtpx:hr></gpxtpx:TrackPointExtension></extensions>
      </trkpt>
      <trkpt lat="59.215598" lon="17.912625">
        <ele>51.2</ele>
        <time>2020-03-26T14:18:51Z</time>
        <extensions><gpxtpx:TrackPointExtension><gpxtpx:hr>125</gpxtpx:hr></gpxtpx:TrackPointExtension></extensions>
      </trkpt>
      <trkpt lat="59.21561" lon="17.912484">
        <ele>51</ele>
        <time>2020-03-26T14:18:52Z</time>
        <extensions><gpxtpx:TrackPointExtension><gpxtpx:hr>125</gpxtpx:hr></gpxtpx:TrackPointExtension></extensions>
      </trkpt>
      <trkpt lat="59.215621" lon="17.912345">
        <ele>51</ele>
        <time>2020-03-26T14:18:53Z</time>
        <extensions><gpxtpx:TrackPointExtension><gpxtpx:hr>125</gpxtpx:hr></gpxtpx:TrackPointExtension></extensions>
      </trkpt>
      <trkpt lat="59.215633" lon="17.912208">
        <ele>51</ele>
        <time>2020-03-26T14:18:54Z</time>
        <extensions><gpxtpx:TrackPointExtension><gpxtpx:hr>125</gpxtpx:hr></gpxtpx:TrackPointExtension></extensions>
      </trkpt>
      <trkpt lat="59.215646" lon="17.912073">
        <ele>50.8</ele>
        <time>2020-03-26T14:18:55Z</time>
        <extensions><gpxtpx:TrackPointExtension><gpxtpx:hr>124</gpxtpx:hr></gpxtpx:TrackPointExtension></extensions>
      </trkpt>
      <trkpt lat="59.215657" lon="17.911938">
        <ele>50.8</ele>
        <time>2020-03-26T14:18:56Z</time>
        <extensions><gpxtpx:TrackPointExtension><gpxtpx:hr>124</gpxtpx:hr></gpxtpx:TrackPointExtension></extensions>
      </trkpt>
      <trkpt lat="59.215669" lon="17.911803">
        <ele>50.8</ele>
        <time>2020-03-26T14:18:57Z</time>
        <extensions><gpxtpx:TrackPointExtension><gpxtpx:hr>124</gpxtpx:hr></gpxtpx:TrackPointExtension></extensions>
      </trkpt>
      <trkpt lat="59.215681" lon="17.911666">
        <ele>50.8</ele>
        <time>2020-03-26T14:18:58Z</time>
        <extensions><gpxtpx:TrackPointExtension><gpxtpx:hr>124</gpxtpx:hr></gpxtpx:TrackPointExtension></extensions>
      </trkpt>
      <trkpt lat="59.215694" lon="17.91153">
        <ele>50.8</ele>
        <time>2020-03-26T14:18:59Z</time>
        <extensions><gpxtpx:TrackPointExtension><gpxtpx:hr>124</gpxtpx:hr></gpxtpx:TrackPointExtension></extensions>
      </trkpt>
      <trkpt lat="59.215706" lon="17.911395">
        <ele>50.8</ele>
        <time>2020-03-26T14:19:00Z</time>
        <extensions><gpxtpx:TrackPointExtension><gpxtpx:hr>125</gpxtpx:hr></gpxtpx:TrackPointExtension></extensions>
      </trkpt>
      <trkpt lat="59.215717" lon="17.911258">
        <ele>50.6</ele>
        <time>2020-03-26T14:19:01Z</time>
        <extensions><gpxtpx:TrackPointExtension><gpxtpx:hr>125</gpxtpx:hr></gpxtpx:TrackPointExtension></extensions>
      </trkpt>
      <trkpt lat="59.215728" lon="17.911119">
        <ele>50.6</ele>
        <time>2020-03-26T14:19:02Z</time>
        <extensions><gpxtpx:TrackPointExtension><gpxtpx:hr>127</gpxtpx:hr></gpxtpx:TrackPointExtension></extensions>
      </trkpt>
      <trkpt lat="59.215739" lon="17.910979">
        <ele>50.8</ele>
        <time>2020-03-26T14:19:03Z</time>
        <extensions><gpxtpx:TrackPointExtension><gpxtpx:hr>128</gpxtpx:hr></gpxtpx:TrackPointExtension></extensions>
      </trkpt>
      <trkpt lat="59.215749" lon="17.910838">
        <ele>50.8</ele>
        <time>2020-03-26T14:19:04Z</time>
        <extensions><gpxtpx:TrackPointExtension><gpxtpx:hr>128</gpxtpx:hr></gpxtpx:TrackPointExtension></extensions>
      </trkpt>
      <trkpt lat="59.215759" lon="17.910695">
        <ele>50.8</ele>
        <time>2020-03-26T14:19:05Z</time>
        <extensions><gpxtpx:TrackPointExtension><gpxtpx:hr>129</gpxtpx:hr></gpxtpx:TrackPointExtension></extensions>
      </trkpt>
      <trkpt lat="59.215769" lon="17.910551">
        <ele>50.8</ele>
        <time>2020-03-26T14:19:06Z</time>
        <extensions><gpxtpx:TrackPointExtension><gpxtpx:hr>130</gpxtpx:hr></gpxtpx:TrackPointExtension></extensions>
      </trkpt>
      <trkpt lat="59.21578" lon="17.910407">
        <ele>50.8</ele>
        <time>2020-03-26T14:19:07Z</time>
        <extensions><gpxtpx:TrackPointExtension><gpxtpx:hr>131</gpxtpx:hr></gpxtpx:TrackPointExtension></extensions>
      </trkpt>
      <trkpt lat="59.215791" lon="17.910262">
        <ele>50.8</ele>
        <time>2020-03-26T14:19:08Z</time>
        <extensions><gpxtpx:TrackPointExtension><gpxtpx:hr>131</gpxtpx:hr></gpxtpx:TrackPointExtension></extensions>
      </trkpt>
      <trkpt lat="59.215802" lon="17.910119">
        <ele>50.8</ele>
        <time>2020-03-26T14:19:09Z</time>
        <extensions><gpxtpx:TrackPointExtension><gpxtpx:hr>132</gpxtpx:hr></gpxtpx:TrackPointExtension></extensions>
      </trkpt>
      <trkpt lat="59.215813" lon="17.909978">
        <ele>50.8</ele>
        <time>2020-03-26T14:19:10Z</time>
        <extensions><gpxtpx:TrackPointExtension><gpxtpx:hr>133</gpxtpx:hr></gpxtpx:TrackPointExtension></extensions>
      </trkpt>
      <trkpt lat="59.215823" lon="17.909839">
        <ele>50.8</ele>
        <time>2020-03-26T14:19:11Z</time>
        <extensions><gpxtpx:TrackPointExtension><gpxtpx:hr>134</gpxtpx:hr></gpxtpx:TrackPointExtension></extensions>
      </trkpt>
      <trkpt lat="59.215834" lon="17.909701">
        <ele>50.8</ele>
        <time>2020-03-26T14:19:12Z</time>
        <extensions><gpxtpx:TrackPointExtension><gpxtpx:hr>135</gpxtpx:hr></gpxtpx:TrackPointExtension></extensions>
      </trkpt>
      <trkpt lat="59.215844" lon="17.909567">
        <ele>50.8</ele>
        <time>2020-03-26T14:19:13Z</time>
        <extensions><gpxtpx:TrackPointExtension><gpxtpx:hr>136</gpxtpx:hr></gpxtpx:TrackPointExtension></extensions>
      </trkpt>
      <trkpt lat="59.215855" lon="17.909435">
        <ele>50.8</ele>
        <time>2020-03-26T14:19:14Z</time>
        <extensions><gpxtpx:TrackPointExtension><gpxtpx:hr>137</gpxtpx:hr></gpxtpx:TrackPointExtension></extensions>
      </trkpt>
      <trkpt lat="59.215864" lon="17.909307">
        <ele>50.8</ele>
        <time>2020-03-26T14:19:15Z</time>
        <extensions><gpxtpx:TrackPointExtension><gpxtpx:hr>137</gpxtpx:hr></gpxtpx:TrackPointExtension></extensions>
      </trkpt>
      <trkpt lat="59.215871" lon="17.909179">
        <ele>50.8</ele>
        <time>2020-03-26T14:19:16Z</time>
        <extensions><gpxtpx:TrackPointExtension><gpxtpx:hr>138</gpxtpx:hr></gpxtpx:TrackPointExtension></extensions>
      </trkpt>
      <trkpt lat="59.215877" lon="17.909051">
        <ele>50.8</ele>
        <time>2020-03-26T14:19:17Z</time>
        <extensions><gpxtpx:TrackPointExtension><gpxtpx:hr>139</gpxtpx:hr></gpxtpx:TrackPointExtension></extensions>
      </trkpt>
      <trkpt lat="59.21588" lon="17.908924">
        <ele>50.8</ele>
        <time>2020-03-26T14:19:18Z</time>
        <extensions><gpxtpx:TrackPointExtension><gpxtpx:hr>139</gpxtpx:hr></gpxtpx:TrackPointExtension></extensions>
      </trkpt>
      <trkpt lat="59.215882" lon="17.908798">
        <ele>50.8</ele>
        <time>2020-03-26T14:19:19Z</time>
        <extensions><gpxtpx:TrackPointExtension><gpxtpx:hr>139</gpxtpx:hr></gpxtpx:TrackPointExtension></extensions>
      </trkpt>
      <trkpt lat="59.215882" lon="17.908671">
        <ele>50.8</ele>
        <time>2020-03-26T14:19:20Z</time>
        <extensions><gpxtpx:TrackPointExtension><gpxtpx:hr>140</gpxtpx:hr></gpxtpx:TrackPointExtension></extensions>
      </trkpt>
      <trkpt lat="59.215882" lon="17.908545">
        <ele>50.8</ele>
        <time>2020-03-26T14:19:21Z</time>
        <extensions><gpxtpx:TrackPointExtension><gpxtpx:hr>140</gpxtpx:hr></gpxtpx:TrackPointExtension></extensions>
      </trkpt>
      <trkpt lat="59.215881" lon="17.908422">
        <ele>50.8</ele>
        <time>2020-03-26T14:19:22Z</time>
        <extensions><gpxtpx:TrackPointExtension><gpxtpx:hr>140</gpxtpx:hr></gpxtpx:TrackPointExtension></extensions>
      </trkpt>
      <trkpt lat="59.21588" lon="17.908295">
        <ele>50.8</ele>
        <time>2020-03-26T14:19:23Z</time>
        <extensions><gpxtpx:TrackPointExtension><gpxtpx:hr>140</gpxtpx:hr></gpxtpx:TrackPointExtension></extensions>
      </trkpt>
      <trkpt lat="59.215881" lon="17.908166">
        <ele>51</ele>
        <time>2020-03-26T14:19:24Z</time>
        <extensions><gpxtpx:TrackPointExtension><gpxtpx:hr>140</gpxtpx:hr></gpxtpx:TrackPointExtension></extensions>
      </trkpt>
      <trkpt lat="59.215882" lon="17.908043">
        <ele>51</ele>
        <time>2020-03-26T14:19:25Z</time>
        <extensions><gpxtpx:TrackPointExtension><gpxtpx:hr>140</gpxtpx:hr></gpxtpx:TrackPointExtension></extensions>
      </trkpt>
      <trkpt lat="59.215882" lon="17.907921">
        <ele>51.2</ele>
        <time>2020-03-26T14:19:26Z</time>
        <extensions><gpxtpx:TrackPointExtension><gpxtpx:hr>141</gpxtpx:hr></gpxtpx:TrackPointExtension></extensions>
      </trkpt>
      <trkpt lat="59.215884" lon="17.907794">
        <ele>51.2</ele>
        <time>2020-03-26T14:19:27Z</time>
        <extensions><gpxtpx:TrackPointExtension><gpxtpx:hr>141</gpxtpx:hr></gpxtpx:TrackPointExtension></extensions>
      </trkpt>
      <trkpt lat="59.215891" lon="17.90767">
        <ele>51.4</ele>
        <time>2020-03-26T14:19:28Z</time>
        <extensions><gpxtpx:TrackPointExtension><gpxtpx:hr>142</gpxtpx:hr></gpxtpx:TrackPointExtension></extensions>
      </trkpt>
      <trkpt lat="59.215908" lon="17.907559">
        <ele>51.8</ele>
        <time>2020-03-26T14:19:29Z</time>
        <extensions><gpxtpx:TrackPointExtension><gpxtpx:hr>142</gpxtpx:hr></gpxtpx:TrackPointExtension></extensions>
      </trkpt>
      <trkpt lat="59.215931" lon="17.907445">
        <ele>52</ele>
        <time>2020-03-26T14:19:30Z</time>
        <extensions><gpxtpx:TrackPointExtension><gpxtpx:hr>143</gpxtpx:hr></gpxtpx:TrackPointExtension></extensions>
      </trkpt>
      <trkpt lat="59.215964" lon="17.90733">
        <ele>52.2</ele>
        <time>2020-03-26T14:19:31Z</time>
        <extensions><gpxtpx:TrackPointExtension><gpxtpx:hr>143</gpxtpx:hr></gpxtpx:TrackPointExtension></extensions>
      </trkpt>
      <trkpt lat="59.216004" lon="17.907218">
        <ele>52.6</ele>
        <time>2020-03-26T14:19:32Z</time>
        <extensions><gpxtpx:TrackPointExtension><gpxtpx:hr>144</gpxtpx:hr></gpxtpx:TrackPointExtension></extensions>
      </trkpt>
      <trkpt lat="59.216052" lon="17.90711">
        <ele>52.6</ele>
        <time>2020-03-26T14:19:33Z</time>
        <extensions><gpxtpx:TrackPointExtension><gpxtpx:hr>144</gpxtpx:hr></gpxtpx:TrackPointExtension></extensions>
      </trkpt>
      <trkpt lat="59.216108" lon="17.90701">
        <ele>52.6</ele>
        <time>2020-03-26T14:19:34Z</time>
        <extensions><gpxtpx:TrackPointExtension><gpxtpx:hr>145</gpxtpx:hr></gpxtpx:TrackPointExtension></extensions>
      </trkpt>
      <trkpt lat="59.216168" lon="17.906914">
        <ele>52.6</ele>
        <time>2020-03-26T14:19:35Z</time>
        <extensions><gpxtpx:TrackPointExtension><gpxtpx:hr>145</gpxtpx:hr></gpxtpx:TrackPointExtension></extensions>
      </trkpt>
      <trkpt lat="59.21623" lon="17.906821">
        <ele>52.6</ele>
        <time>2020-03-26T14:19:36Z</time>
        <extensions><gpxtpx:TrackPointExtension><gpxtpx:hr>145</gpxtpx:hr></gpxtpx:TrackPointExtension></extensions>
      </trkpt>
      <trkpt lat="59.216291" lon="17.906713">
        <ele>52.6</ele>
        <time>2020-03-26T14:19:37Z</time>
        <extensions><gpxtpx:TrackPointExtension><gpxtpx:hr>146</gpxtpx:hr></gpxtpx:TrackPointExtension></extensions>
      </trkpt>
      <trkpt lat="59.216347" lon="17.906595">
        <ele>52.6</ele>
        <time>2020-03-26T14:19:38Z</time>
        <extensions><gpxtpx:TrackPointExtension><gpxtpx:hr>145</gpxtpx:hr></gpxtpx:TrackPointExtension></extensions>
      </trkpt>
      <trkpt lat="59.216405" lon="17.906468">
        <ele>52.6</ele>
        <time>2020-03-26T14:19:39Z</time>
        <extensions><gpxtpx:TrackPointExtension><gpxtpx:hr>145</gpxtpx:hr></gpxtpx:TrackPointExtension></extensions>
      </trkpt>
      <trkpt lat="59.216455" lon="17.906344">
        <ele>52.6</ele>
        <time>2020-03-26T14:19:40Z</time>
        <extensions><gpxtpx:TrackPointExtension><gpxtpx:hr>145</gpxtpx:hr></gpxtpx:TrackPointExtension></extensions>
      </trkpt>
      <trkpt lat="59.216498" lon="17.90621">
        <ele>52.4</ele>
        <time>2020-03-26T14:19:41Z</time>
        <extensions><gpxtpx:TrackPointExtension><gpxtpx:hr>144</gpxtpx:hr></gpxtpx:TrackPointExtension></extensions>
      </trkpt>
      <trkpt lat="59.216528" lon="17.906066">
        <ele>51.6</ele>
        <time>2020-03-26T14:19:42Z</time>
        <extensions><gpxtpx:TrackPointExtension><gpxtpx:hr>144</gpxtpx:hr></gpxtpx:TrackPointExtension></extensions>
      </trkpt>
      <trkpt lat="59.216553" lon="17.90592">
        <ele>51</ele>
        <time>2020-03-26T14:19:43Z</time>
        <extensions><gpxtpx:TrackPointExtension><gpxtpx:hr>143</gpxtpx:hr></gpxtpx:TrackPointExtension></extensions>
      </trkpt>
      <trkpt lat="59.216577" lon="17.905772">
        <ele>50.4</ele>
        <time>2020-03-26T14:19:44Z</time>
        <extensions><gpxtpx:TrackPointExtension><gpxtpx:hr>142</gpxtpx:hr></gpxtpx:TrackPointExtension></extensions>
      </trkpt>
      <trkpt lat="59.216598" lon="17.905626">
        <ele>50</ele>
        <time>2020-03-26T14:19:45Z</time>
        <extensions><gpxtpx:TrackPointExtension><gpxtpx:hr>141</gpxtpx:hr></gpxtpx:TrackPointExtension></extensions>
      </trkpt>
      <trkpt lat="59.216621" lon="17.905475">
        <ele>49.6</ele>
        <time>2020-03-26T14:19:46Z</time>
        <extensions><gpxtpx:TrackPointExtension><gpxtpx:hr>139</gpxtpx:hr></gpxtpx:TrackPointExtension></extensions>
      </trkpt>
      <trkpt lat="59.216643" lon="17.905321">
        <ele>49</ele>
        <time>2020-03-26T14:19:47Z</time>
        <extensions><gpxtpx:TrackPointExtension><gpxtpx:hr>138</gpxtpx:hr></gpxtpx:TrackPointExtension></extensions>
      </trkpt>
      <trkpt lat="59.216665" lon="17.905164">
        <ele>48.6</ele>
        <time>2020-03-26T14:19:48Z</time>
        <extensions><gpxtpx:TrackPointExtension><gpxtpx:hr>137</gpxtpx:hr></gpxtpx:TrackPointExtension></extensions>
      </trkpt>
      <trkpt lat="59.216685" lon="17.905005">
        <ele>48.2</ele>
        <time>2020-03-26T14:19:49Z</time>
        <extensions><gpxtpx:TrackPointExtension><gpxtpx:hr>135</gpxtpx:hr></gpxtpx:TrackPointExtension></extensions>
      </trkpt>
      <trkpt lat="59.216706" lon="17.904847">
        <ele>48</ele>
        <time>2020-03-26T14:19:50Z</time>
        <extensions><gpxtpx:TrackPointExtension><gpxtpx:hr>134</gpxtpx:hr></gpxtpx:TrackPointExtension></extensions>
      </trkpt>
      <trkpt lat="59.216728" lon="17.904686">
        <ele>48</ele>
        <time>2020-03-26T14:19:51Z</time>
        <extensions><gpxtpx:TrackPointExtension><gpxtpx:hr>134</gpxtpx:hr></gpxtpx:TrackPointExtension></extensions>
      </trkpt>
      <trkpt lat="59.216752" lon="17.904525">
        <ele>47.8</ele>
        <time>2020-03-26T14:19:52Z</time>
        <extensions><gpxtpx:TrackPointExtension><gpxtpx:hr>131</gpxtpx:hr></gpxtpx:TrackPointExtension></extensions>
      </trkpt>
      <trkpt lat="59.216775" lon="17.904369">
        <ele>47.6</ele>
        <time>2020-03-26T14:19:53Z</time>
        <extensions><gpxtpx:TrackPointExtension><gpxtpx:hr>130</gpxtpx:hr></gpxtpx:TrackPointExtension></extensions>
      </trkpt>
      <trkpt lat="59.216797" lon="17.904214">
        <ele>47.4</ele>
        <time>2020-03-26T14:19:54Z</time>
        <extensions><gpxtpx:TrackPointExtension><gpxtpx:hr>128</gpxtpx:hr></gpxtpx:TrackPointExtension></extensions>
      </trkpt>
      <trkpt lat="59.216817" lon="17.90406">
        <ele>47.4</ele>
        <time>2020-03-26T14:19:55Z</time>
        <extensions><gpxtpx:TrackPointExtension><gpxtpx:hr>126</gpxtpx:hr></gpxtpx:TrackPointExtension></extensions>
      </trkpt>
      <trkpt lat="59.216836" lon="17.903913">
        <ele>47.2</ele>
        <time>2020-03-26T14:19:56Z</time>
        <extensions><gpxtpx:TrackPointExtension><gpxtpx:hr>123</gpxtpx:hr></gpxtpx:TrackPointExtension></extensions>
      </trkpt>
      <trkpt lat="59.216858" lon="17.903772">
        <ele>47</ele>
        <time>2020-03-26T14:19:57Z</time>
        <extensions><gpxtpx:TrackPointExtension><gpxtpx:hr>121</gpxtpx:hr></gpxtpx:TrackPointExtension></extensions>
      </trkpt>
      <trkpt lat="59.216882" lon="17.903631">
        <ele>46.6</ele>
        <time>2020-03-26T14:19:58Z</time>
        <extensions><gpxtpx:TrackPointExtension><gpxtpx:hr>120</gpxtpx:hr></gpxtpx:TrackPointExtension></extensions>
      </trkpt>
      <trkpt lat="59.216909" lon="17.903493">
        <ele>46.2</ele>
        <time>2020-03-26T14:19:59Z</time>
        <extensions><gpxtpx:TrackPointExtension><gpxtpx:hr>118</gpxtpx:hr></gpxtpx:TrackPointExtension></extensions>
      </trkpt>
      <trkpt lat="59.21694" lon="17.903364">
        <ele>45.6</ele>
        <time>2020-03-26T14:20:00Z</time>
        <extensions><gpxtpx:TrackPointExtension><gpxtpx:hr>116</gpxtpx:hr></gpxtpx:TrackPointExtension></extensions>
      </trkpt>
      <trkpt lat="59.216983" lon="17.903252">
        <ele>44.8</ele>
        <time>2020-03-26T14:20:01Z</time>
        <extensions><gpxtpx:TrackPointExtension><gpxtpx:hr>116</gpxtpx:hr></gpxtpx:TrackPointExtension></extensions>
      </trkpt>
      <trkpt lat="59.217038" lon="17.903167">
        <ele>44.4</ele>
        <time>2020-03-26T14:20:02Z</time>
        <extensions><gpxtpx:TrackPointExtension><gpxtpx:hr>116</gpxtpx:hr></gpxtpx:TrackPointExtension></extensions>
      </trkpt>
      <trkpt lat="59.217102" lon="17.903122">
        <ele>44.2</ele>
        <time>2020-03-26T14:20:03Z</time>
        <extensions><gpxtpx:TrackPointExtension><gpxtpx:hr>116</gpxtpx:hr></gpxtpx:TrackPointExtension></extensions>
      </trkpt>
      <trkpt lat="59.21717" lon="17.903118">
        <ele>44.2</ele>
        <time>2020-03-26T14:20:04Z</time>
        <extensions><gpxtpx:TrackPointExtension><gpxtpx:hr>116</gpxtpx:hr></gpxtpx:TrackPointExtension></extensions>
      </trkpt>
      <trkpt lat="59.21724" lon="17.903127">
        <ele>44.2</ele>
        <time>2020-03-26T14:20:05Z</time>
        <extensions><gpxtpx:TrackPointExtension><gpxtpx:hr>116</gpxtpx:hr></gpxtpx:TrackPointExtension></extensions>
      </trkpt>
      <trkpt lat="59.217308" lon="17.903161">
        <ele>44</ele>
        <time>2020-03-26T14:20:06Z</time>
        <extensions><gpxtpx:TrackPointExtension><gpxtpx:hr>116</gpxtpx:hr></gpxtpx:TrackPointExtension></extensions>
      </trkpt>
      <trkpt lat="59.217369" lon="17.903229">
        <ele>44</ele>
        <time>2020-03-26T14:20:07Z</time>
        <extensions><gpxtpx:TrackPointExtension><gpxtpx:hr>114</gpxtpx:hr></gpxtpx:TrackPointExtension></extensions>
      </trkpt>
      <trkpt lat="59.217424" lon="17.903322">
        <ele>44</ele>
        <time>2020-03-26T14:20:08Z</time>
        <extensions><gpxtpx:TrackPointExtension><gpxtpx:hr>113</gpxtpx:hr></gpxtpx:TrackPointExtension></extensions>
      </trkpt>
      <trkpt lat="59.217473" lon="17.903427">
        <ele>44</ele>
        <time>2020-03-26T14:20:09Z</time>
        <extensions><gpxtpx:TrackPointExtension><gpxtpx:hr>113</gpxtpx:hr></gpxtpx:TrackPointExtension></extensions>
      </trkpt>
      <trkpt lat="59.217519" lon="17.903541">
        <ele>44</ele>
        <time>2020-03-26T14:20:10Z</time>
        <extensions><gpxtpx:TrackPointExtension><gpxtpx:hr>114</gpxtpx:hr></gpxtpx:TrackPointExtension></extensions>
      </trkpt>
      <trkpt lat="59.217563" lon="17.903663">
        <ele>44</ele>
        <time>2020-03-26T14:20:11Z</time>
        <extensions><gpxtpx:TrackPointExtension><gpxtpx:hr>115</gpxtpx:hr></gpxtpx:TrackPointExtension></extensions>
      </trkpt>
      <trkpt lat="59.217607" lon="17.903789">
        <ele>44</ele>
        <time>2020-03-26T14:20:12Z</time>
        <extensions><gpxtpx:TrackPointExtension><gpxtpx:hr>117</gpxtpx:hr></gpxtpx:TrackPointExtension></extensions>
      </trkpt>
      <trkpt lat="59.217652" lon="17.903914">
        <ele>44</ele>
        <time>2020-03-26T14:20:13Z</time>
        <extensions><gpxtpx:TrackPointExtension><gpxtpx:hr>117</gpxtpx:hr></gpxtpx:TrackPointExtension></extensions>
      </trkpt>
      <trkpt lat="59.217699" lon="17.904044">
        <ele>44</ele>
        <time>2020-03-26T14:20:14Z</time>
        <extensions><gpxtpx:TrackPointExtension><gpxtpx:hr>120</gpxtpx:hr></gpxtpx:TrackPointExtension></extensions>
      </trkpt>
      <trkpt lat="59.217749" lon="17.904174">
        <ele>44</ele>
        <time>2020-03-26T14:20:15Z</time>
        <extensions><gpxtpx:TrackPointExtension><gpxtpx:hr>121</gpxtpx:hr></gpxtpx:TrackPointExtension></extensions>
      </trkpt>
      <trkpt lat="59.217799" lon="17.904303">
        <ele>44</ele>
        <time>2020-03-26T14:20:16Z</time>
        <extensions><gpxtpx:TrackPointExtension><gpxtpx:hr>123</gpxtpx:hr></gpxtpx:TrackPointExtension></extensions>
      </trkpt>
      <trkpt lat="59.217846" lon="17.904431">
        <ele>44</ele>
        <time>2020-03-26T14:20:17Z</time>
        <extensions><gpxtpx:TrackPointExtension><gpxtpx:hr>124</gpxtpx:hr></gpxtpx:TrackPointExtension></extensions>
      </trkpt>
      <trkpt lat="59.217894" lon="17.904556">
        <ele>44</ele>
        <time>2020-03-26T14:20:18Z</time>
        <extensions><gpxtpx:TrackPointExtension><gpxtpx:hr>126</gpxtpx:hr></gpxtpx:TrackPointExtension></extensions>
      </trkpt>
      <trkpt lat="59.217939" lon="17.904678">
        <ele>44.2</ele>
        <time>2020-03-26T14:20:19Z</time>
        <extensions><gpxtpx:TrackPointExtension><gpxtpx:hr>127</gpxtpx:hr></gpxtpx:TrackPointExtension></extensions>
      </trkpt>
      <trkpt lat="59.217984" lon="17.904795">
        <ele>44.2</ele>
        <time>2020-03-26T14:20:20Z</time>
        <extensions><gpxtpx:TrackPointExtension><gpxtpx:hr>128</gpxtpx:hr></gpxtpx:TrackPointExtension></extensions>
      </trkpt>
      <trkpt lat="59.218029" lon="17.904908">
        <ele>44.2</ele>
        <time>2020-03-26T14:20:21Z</time>
        <extensions><gpxtpx:TrackPointExtension><gpxtpx:hr>128</gpxtpx:hr></gpxtpx:TrackPointExtension></extensions>
      </trkpt>
      <trkpt lat="59.218072" lon="17.905022">
        <ele>44.2</ele>
        <time>2020-03-26T14:20:22Z</time>
        <extensions><gpxtpx:TrackPointExtension><gpxtpx:hr>129</gpxtpx:hr></gpxtpx:TrackPointExtension></extensions>
      </trkpt>
      <trkpt lat="59.218114" lon="17.905141">
        <ele>44.4</ele>
        <time>2020-03-26T14:20:23Z</time>
        <extensions><gpxtpx:TrackPointExtension><gpxtpx:hr>129</gpxtpx:hr></gpxtpx:TrackPointExtension></extensions>
      </trkpt>
      <trkpt lat="59.218159" lon="17.90526">
        <ele>44.4</ele>
        <time>2020-03-26T14:20:24Z</time>
        <extensions><gpxtpx:TrackPointExtension><gpxtpx:hr>130</gpxtpx:hr></gpxtpx:TrackPointExtension></extensions>
      </trkpt>
      <trkpt lat="59.218212" lon="17.905371">
        <ele>44.4</ele>
        <time>2020-03-26T14:20:25Z</time>
        <extensions><gpxtpx:TrackPointExtension><gpxtpx:hr>130</gpxtpx:hr></gpxtpx:TrackPointExtension></extensions>
      </trkpt>
      <trkpt lat="59.218267" lon="17.905482">
        <ele>44.6</ele>
        <time>2020-03-26T14:20:26Z</time>
        <extensions><gpxtpx:TrackPointExtension><gpxtpx:hr>130</gpxtpx:hr></gpxtpx:TrackPointExtension></extensions>
      </trkpt>
      <trkpt lat="59.218312" lon="17.905608">
        <ele>44.6</ele>
        <time>2020-03-26T14:20:27Z</time>
        <extensions><gpxtpx:TrackPointExtension><gpxtpx:hr>130</gpxtpx:hr></gpxtpx:TrackPointExtension></extensions>
      </trkpt>
      <trkpt lat="59.218352" lon="17.90574">
        <ele>44.6</ele>
        <time>2020-03-26T14:20:28Z</time>
        <extensions><gpxtpx:TrackPointExtension><gpxtpx:hr>130</gpxtpx:hr></gpxtpx:TrackPointExtension></extensions>
      </trkpt>
      <trkpt lat="59.218395" lon="17.905876">
        <ele>44.6</ele>
        <time>2020-03-26T14:20:29Z</time>
        <extensions><gpxtpx:TrackPointExtension><gpxtpx:hr>130</gpxtpx:hr></gpxtpx:TrackPointExtension></extensions>
      </trkpt>
      <trkpt lat="59.218438" lon="17.906005">
        <ele>44.6</ele>
        <time>2020-03-26T14:20:30Z</time>
        <extensions><gpxtpx:TrackPointExtension><gpxtpx:hr>131</gpxtpx:hr></gpxtpx:TrackPointExtension></extensions>
      </trkpt>
      <trkpt lat="59.218481" lon="17.906129">
        <ele>44.6</ele>
        <time>2020-03-26T14:20:31Z</time>
        <extensions><gpxtpx:TrackPointExtension><gpxtpx:hr>131</gpxtpx:hr></gpxtpx:TrackPointExtension></extensions>
      </trkpt>
      <trkpt lat="59.218525" lon="17.906249">
        <ele>44.6</ele>
        <time>2020-03-26T14:20:32Z</time>
        <extensions><gpxtpx:TrackPointExtension><gpxtpx:hr>131</gpxtpx:hr></gpxtpx:TrackPointExtension></extensions>
      </trkpt>
      <trkpt lat="59.218569" lon="17.906363">
        <ele>44.6</ele>
        <time>2020-03-26T14:20:33Z</time>
        <extensions><gpxtpx:TrackPointExtension><gpxtpx:hr>132</gpxtpx:hr></gpxtpx:TrackPointExtension></extensions>
      </trkpt>
      <trkpt lat="59.218612" lon="17.906473">
        <ele>44.6</ele>
        <time>2020-03-26T14:20:34Z</time>
        <extensions><gpxtpx:TrackPointExtension><gpxtpx:hr>132</gpxtpx:hr></gpxtpx:TrackPointExtension></extensions>
      </trkpt>
      <trkpt lat="59.218654" lon="17.906582">
        <ele>44.8</ele>
        <time>2020-03-26T14:20:35Z</time>
        <extensions><gpxtpx:TrackPointExtension><gpxtpx:hr>132</gpxtpx:hr></gpxtpx:TrackPointExtension></extensions>
      </trkpt>
      <trkpt lat="59.218695" lon="17.90669">
        <ele>44.8</ele>
        <time>2020-03-26T14:20:36Z</time>
        <extensions><gpxtpx:TrackPointExtension><gpxtpx:hr>133</gpxtpx:hr></gpxtpx:TrackPointExtension></extensions>
      </trkpt>
      <trkpt lat="59.218736" lon="17.9068">
        <ele>45</ele>
        <time>2020-03-26T14:20:37Z</time>
        <extensions><gpxtpx:TrackPointExtension><gpxtpx:hr>133</gpxtpx:hr></gpxtpx:TrackPointExtension></extensions>
      </trkpt>
      <trkpt lat="59.218778" lon="17.906911">
        <ele>45</ele>
        <time>2020-03-26T14:20:38Z</time>
        <extensions><gpxtpx:TrackPointExtension><gpxtpx:hr>133</gpxtpx:hr></gpxtpx:TrackPointExtension></extensions>
      </trkpt>
      <trkpt lat="59.218821" lon="17.907023">
        <ele>45</ele>
        <time>2020-03-26T14:20:39Z</time>
        <extensions><gpxtpx:TrackPointExtension><gpxtpx:hr>133</gpxtpx:hr></gpxtpx:TrackPointExtension></extensions>
      </trkpt>
      <trkpt lat="59.218866" lon="17.907135">
        <ele>45</ele>
        <time>2020-03-26T14:20:40Z</time>
        <extensions><gpxtpx:TrackPointExtension><gpxtpx:hr>133</gpxtpx:hr></gpxtpx:TrackPointExtension></extensions>
      </trkpt>
      <trkpt lat="59.218913" lon="17.907249">
        <ele>45</ele>
        <time>2020-03-26T14:20:41Z</time>
        <extensions><gpxtpx:TrackPointExtension><gpxtpx:hr>134</gpxtpx:hr></gpxtpx:TrackPointExtension></extensions>
      </trkpt>
      <trkpt lat="59.218953" lon="17.907375">
        <ele>45</ele>
        <time>2020-03-26T14:20:42Z</time>
        <extensions><gpxtpx:TrackPointExtension><gpxtpx:hr>134</gpxtpx:hr></gpxtpx:TrackPointExtension></extensions>
      </trkpt>
      <trkpt lat="59.218974" lon="17.907519">
        <ele>45</ele>
        <time>2020-03-26T14:20:43Z</time>
        <extensions><gpxtpx:TrackPointExtension><gpxtpx:hr>134</gpxtpx:hr></gpxtpx:TrackPointExtension></extensions>
      </trkpt>
      <trkpt lat="59.218988" lon="17.907668">
        <ele>45</ele>
        <time>2020-03-26T14:20:44Z</time>
        <extensions><gpxtpx:TrackPointExtension><gpxtpx:hr>134</gpxtpx:hr></gpxtpx:TrackPointExtension></extensions>
      </trkpt>
      <trkpt lat="59.219008" lon="17.907816">
        <ele>45</ele>
        <time>2020-03-26T14:20:45Z</time>
        <extensions><gpxtpx:TrackPointExtension><gpxtpx:hr>134</gpxtpx:hr></gpxtpx:TrackPointExtension></extensions>
      </trkpt>
      <trkpt lat="59.219042" lon="17.907952">
        <ele>45</ele>
        <time>2020-03-26T14:20:46Z</time>
        <extensions><gpxtpx:TrackPointExtension><gpxtpx:hr>134</gpxtpx:hr></gpxtpx:TrackPointExtension></extensions>
      </trkpt>
      <trkpt lat="59.219085" lon="17.90808">
        <ele>45</ele>
        <time>2020-03-26T14:20:47Z</time>
        <extensions><gpxtpx:TrackPointExtension><gpxtpx:hr>134</gpxtpx:hr></gpxtpx:TrackPointExtension></extensions>
      </trkpt>
      <trkpt lat="59.219125" lon="17.908197">
        <ele>45.2</ele>
        <time>2020-03-26T14:20:48Z</time>
        <extensions><gpxtpx:TrackPointExtension><gpxtpx:hr>134</gpxtpx:hr></gpxtpx:TrackPointExtension></extensions>
      </trkpt>
      <trkpt lat="59.219168" lon="17.908307">
        <ele>45.2</ele>
        <time>2020-03-26T14:20:49Z</time>
        <extensions><gpxtpx:TrackPointExtension><gpxtpx:hr>134</gpxtpx:hr></gpxtpx:TrackPointExtension></extensions>
      </trkpt>
      <trkpt lat="59.219209" lon="17.908412">
        <ele>45.2</ele>
        <time>2020-03-26T14:20:50Z</time>
        <extensions><gpxtpx:TrackPointExtension><gpxtpx:hr>135</gpxtpx:hr></gpxtpx:TrackPointExtension></extensions>
      </trkpt>
      <trkpt lat="59.219249" lon="17.908519">
        <ele>45.2</ele>
        <time>2020-03-26T14:20:51Z</time>
        <extensions><gpxtpx:TrackPointExtension><gpxtpx:hr>135</gpxtpx:hr></gpxtpx:TrackPointExtension></extensions>
      </trkpt>
      <trkpt lat="59.219289" lon="17.908628">
        <ele>45.2</ele>
        <time>2020-03-26T14:20:52Z</time>
        <extensions><gpxtpx:TrackPointExtension><gpxtpx:hr>135</gpxtpx:hr></gpxtpx:TrackPointExtension></extensions>
      </trkpt>
      <trkpt lat="59.219328" lon="17.908737">
        <ele>45.2</ele>
        <time>2020-03-26T14:20:53Z</time>
        <extensions><gpxtpx:TrackPointExtension><gpxtpx:hr>135</gpxtpx:hr></gpxtpx:TrackPointExtension></extensions>
      </trkpt>
      <trkpt lat="59.219369" lon="17.908848">
        <ele>45.2</ele>
        <time>2020-03-26T14:20:54Z</time>
        <extensions><gpxtpx:TrackPointExtension><gpxtpx:hr>135</gpxtpx:hr></gpxtpx:TrackPointExtension></extensions>
      </trkpt>
      <trkpt lat="59.219411" lon="17.908958">
        <ele>45.2</ele>
        <time>2020-03-26T14:20:55Z</time>
        <extensions><gpxtpx:TrackPointExtension><gpxtpx:hr>135</gpxtpx:hr></gpxtpx:TrackPointExtension></extensions>
      </trkpt>
      <trkpt lat="59.219455" lon="17.909072">
        <ele>45.2</ele>
        <time>2020-03-26T14:20:56Z</time>
        <extensions><gpxtpx:TrackPointExtension><gpxtpx:hr>135</gpxtpx:hr></gpxtpx:TrackPointExtension></extensions>
      </trkpt>
      <trkpt lat="59.219497" lon="17.909186">
        <ele>45.2</ele>
        <time>2020-03-26T14:20:57Z</time>
        <extensions><gpxtpx:TrackPointExtension><gpxtpx:hr>135</gpxtpx:hr></gpxtpx:TrackPointExtension></extensions>
      </trkpt>
      <trkpt lat="59.219538" lon="17.909298">
        <ele>45.2</ele>
        <time>2020-03-26T14:20:58Z</time>
        <extensions><gpxtpx:TrackPointExtension><gpxtpx:hr>134</gpxtpx:hr></gpxtpx:TrackPointExtension></extensions>
      </trkpt>
      <trkpt lat="59.21958" lon="17.909402">
        <ele>45.4</ele>
        <time>2020-03-26T14:20:59Z</time>
        <extensions><gpxtpx:TrackPointExtension><gpxtpx:hr>134</gpxtpx:hr></gpxtpx:TrackPointExtension></extensions>
      </trkpt>
      <trkpt lat="59.219624" lon="17.909497">
        <ele>45.6</ele>
        <time>2020-03-26T14:21:00Z</time>
        <extensions><gpxtpx:TrackPointExtension><gpxtpx:hr>134</gpxtpx:hr></gpxtpx:TrackPointExtension></extensions>
      </trkpt>
      <trkpt lat="59.219676" lon="17.909569">
        <ele>45.8</ele>
        <time>2020-03-26T14:21:01Z</time>
        <extensions><gpxtpx:TrackPointExtension><gpxtpx:hr>134</gpxtpx:hr></gpxtpx:TrackPointExtension></extensions>
      </trkpt>
      <trkpt lat="59.219737" lon="17.9096">
        <ele>45.8</ele>
        <time>2020-03-26T14:21:02Z</time>
        <extensions><gpxtpx:TrackPointExtension><gpxtpx:hr>134</gpxtpx:hr></gpxtpx:TrackPointExtension></extensions>
      </trkpt>
      <trkpt lat="59.219797" lon="17.909591">
        <ele>45.8</ele>
        <time>2020-03-26T14:21:03Z</time>
        <extensions><gpxtpx:TrackPointExtension><gpxtpx:hr>133</gpxtpx:hr></gpxtpx:TrackPointExtension></extensions>
      </trkpt>
      <trkpt lat="59.219855" lon="17.909553">
        <ele>45.8</ele>
        <time>2020-03-26T14:21:04Z</time>
        <extensions><gpxtpx:TrackPointExtension><gpxtpx:hr>133</gpxtpx:hr></gpxtpx:TrackPointExtension></extensions>
      </trkpt>
      <trkpt lat="59.219911" lon="17.909497">
        <ele>45.8</ele>
        <time>2020-03-26T14:21:05Z</time>
        <extensions><gpxtpx:TrackPointExtension><gpxtpx:hr>133</gpxtpx:hr></gpxtpx:TrackPointExtension></extensions>
      </trkpt>
      <trkpt lat="59.219963" lon="17.909433">
        <ele>46</ele>
        <time>2020-03-26T14:21:06Z</time>
        <extensions><gpxtpx:TrackPointExtension><gpxtpx:hr>132</gpxtpx:hr></gpxtpx:TrackPointExtension></extensions>
      </trkpt>
      <trkpt lat="59.220013" lon="17.909369">
        <ele>46</ele>
        <time>2020-03-26T14:21:07Z</time>
        <extensions><gpxtpx:TrackPointExtension><gpxtpx:hr>131</gpxtpx:hr></gpxtpx:TrackPointExtension></extensions>
      </trkpt>
      <trkpt lat="59.220064" lon="17.909305">
        <ele>46</ele>
        <time>2020-03-26T14:21:08Z</time>
        <extensions><gpxtpx:TrackPointExtension><gpxtpx:hr>130</gpxtpx:hr></gpxtpx:TrackPointExtension></extensions>
      </trkpt>
      <trkpt lat="59.220109" lon="17.909236">
        <ele>46</ele>
        <time>2020-03-26T14:21:09Z</time>
        <extensions><gpxtpx:TrackPointExtension><gpxtpx:hr>128</gpxtpx:hr></gpxtpx:TrackPointExtension></extensions>
      </trkpt>
      <trkpt lat="59.220153" lon="17.909166">
        <ele>46</ele>
        <time>2020-03-26T14:21:10Z</time>
        <extensions><gpxtpx:TrackPointExtension><gpxtpx:hr>126</gpxtpx:hr></gpxtpx:TrackPointExtension></extensions>
      </trkpt>
      <trkpt lat="59.220197" lon="17.909101">
        <ele>46</ele>
        <time>2020-03-26T14:21:11Z</time>
        <extensions><gpxtpx:TrackPointExtension><gpxtpx:hr>124</gpxtpx:hr></gpxtpx:TrackPointExtension></extensions>
      </trkpt>
      <trkpt lat="59.220239" lon="17.909039">
        <ele>46</ele>
        <time>2020-03-26T14:21:12Z</time>
        <extensions><gpxtpx:TrackPointExtension><gpxtpx:hr>123</gpxtpx:hr></gpxtpx:TrackPointExtension></extensions>
      </trkpt>
      <trkpt lat="59.220278" lon="17.908981">
        <ele>46</ele>
        <time>2020-03-26T14:21:13Z</time>
        <extensions><gpxtpx:TrackPointExtension><gpxtpx:hr>122</gpxtpx:hr></gpxtpx:TrackPointExtension></extensions>
      </trkpt>
      <trkpt lat="59.220315" lon="17.908926">
        <ele>46.2</ele>
        <time>2020-03-26T14:21:14Z</time>
        <extensions><gpxtpx:TrackPointExtension><gpxtpx:hr>121</gpxtpx:hr></gpxtpx:TrackPointExtension></extensions>
      </trkpt>
      <trkpt lat="59.220344" lon="17.908864">
        <ele>46.2</ele>
        <time>2020-03-26T14:21:15Z</time>
        <extensions><gpxtpx:TrackPointExtension><gpxtpx:hr>120</gpxtpx:hr></gpxtpx:TrackPointExtension></extensions>
      </trkpt>
      <trkpt lat="59.220366" lon="17.908799">
        <ele>46.2</ele>
        <time>2020-03-26T14:21:16Z</time>
        <extensions><gpxtpx:TrackPointExtension><gpxtpx:hr>117</gpxtpx:hr></gpxtpx:TrackPointExtension></extensions>
      </trkpt>
      <trkpt lat="59.220388" lon="17.908735">
        <ele>46.2</ele>
        <time>2020-03-26T14:21:17Z</time>
        <extensions><gpxtpx:TrackPointExtension><gpxtpx:hr>117</gpxtpx:hr></gpxtpx:TrackPointExtension></extensions>
      </trkpt>
      <trkpt lat="59.220404" lon="17.908663">
        <ele>46.2</ele>
        <time>2020-03-26T14:21:18Z</time>
        <extensions><gpxtpx:TrackPointExtension><gpxtpx:hr>113</gpxtpx:hr></gpxtpx:TrackPointExtension></extensions>
      </trkpt>
      <trkpt lat="59.220406" lon="17.908588">
        <ele>46</ele>
        <time>2020-03-26T14:21:19Z</time>
        <extensions><gpxtpx:TrackPointExtension><gpxtpx:hr>109</gpxtpx:hr></gpxtpx:TrackPointExtension></extensions>
      </trkpt>
      <trkpt lat="59.220391" lon="17.908521">
        <ele>46</ele>
        <time>2020-03-26T14:21:20Z</time>
        <extensions><gpxtpx:TrackPointExtension><gpxtpx:hr>105</gpxtpx:hr></gpxtpx:TrackPointExtension></extensions>
      </trkpt>
      <trkpt lat="59.220361" lon="17.908459">
        <ele>46</ele>
        <time>2020-03-26T14:21:21Z</time>
        <extensions><gpxtpx:TrackPointExtension><gpxtpx:hr>103</gpxtpx:hr></gpxtpx:TrackPointExtension></extensions>
      </trkpt>
      <trkpt lat="59.220326" lon="17.9084">
        <ele>46</ele>
        <time>2020-03-26T14:21:22Z</time>
        <extensions><gpxtpx:TrackPointExtension><gpxtpx:hr>104</gpxtpx:hr></gpxtpx:TrackPointExtension></extensions>
      </trkpt>
      <trkpt lat="59.22029" lon="17.908337">
        <ele>46</ele>
        <time>2020-03-26T14:21:23Z</time>
        <extensions><gpxtpx:TrackPointExtension><gpxtpx:hr>107</gpxtpx:hr></gpxtpx:TrackPointExtension></extensions>
      </trkpt>
      <trkpt lat="59.220253" lon="17.908267">
        <ele>45.8</ele>
        <time>2020-03-26T14:21:24Z</time>
        <extensions><gpxtpx:TrackPointExtension><gpxtpx:hr>107</gpxtpx:hr></gpxtpx:TrackPointExtension></extensions>
      </trkpt>
      <trkpt lat="59.220216" lon="17.908191">
        <ele>45.8</ele>
        <time>2020-03-26T14:21:25Z</time>
        <extensions><gpxtpx:TrackPointExtension><gpxtpx:hr>111</gpxtpx:hr></gpxtpx:TrackPointExtension></extensions>
      </trkpt>
      <trkpt lat="59.22018" lon="17.908117">
        <ele>45.8</ele>
        <time>2020-03-26T14:21:26Z</time>
        <extensions><gpxtpx:TrackPointExtension><gpxtpx:hr>113</gpxtpx:hr></gpxtpx:TrackPointExtension></extensions>
      </trkpt>
      <trkpt lat="59.220144" lon="17.908042">
        <ele>45.8</ele>
        <time>2020-03-26T14:21:27Z</time>
        <extensions><gpxtpx:TrackPointExtension><gpxtpx:hr>114</gpxtpx:hr></gpxtpx:TrackPointExtension></extensions>
      </trkpt>
      <trkpt lat="59.22011" lon="17.907966">
        <ele>45.8</ele>
        <time>2020-03-26T14:21:28Z</time>
        <extensions><gpxtpx:TrackPointExtension><gpxtpx:hr>114</gpxtpx:hr></gpxtpx:TrackPointExtension></extensions>
      </trkpt>
      <trkpt lat="59.220078" lon="17.907889">
        <ele>45.8</ele>
        <time>2020-03-26T14:21:29Z</time>
        <extensions><gpxtpx:TrackPointExtension><gpxtpx:hr>114</gpxtpx:hr></gpxtpx:TrackPointExtension></extensions>
      </trkpt>
      <trkpt lat="59.220049" lon="17.907812">
        <ele>45.8</ele>
        <time>2020-03-26T14:21:30Z</time>
        <extensions><gpxtpx:TrackPointExtension><gpxtpx:hr>114</gpxtpx:hr></gpxtpx:TrackPointExtension></extensions>
      </trkpt>
      <trkpt lat="59.220021" lon="17.907738">
        <ele>45.8</ele>
        <time>2020-03-26T14:21:31Z</time>
        <extensions><gpxtpx:TrackPointExtension><gpxtpx:hr>114</gpxtpx:hr></gpxtpx:TrackPointExtension></extensions>
      </trkpt>
      <trkpt lat="59.219993" lon="17.90767">
        <ele>45.8</ele>
        <time>2020-03-26T14:21:32Z</time>
        <extensions><gpxtpx:TrackPointExtension><gpxtpx:hr>113</gpxtpx:hr></gpxtpx:TrackPointExtension></extensions>
      </trkpt>
      <trkpt lat="59.219965" lon="17.907607">
        <ele>45.8</ele>
        <time>2020-03-26T14:21:33Z</time>
        <extensions><gpxtpx:TrackPointExtension><gpxtpx:hr>113</gpxtpx:hr></gpxtpx:TrackPointExtension></extensions>
      </trkpt>
      <trkpt lat="59.219937" lon="17.907541">
        <ele>45.8</ele>
        <time>2020-03-26T14:21:34Z</time>
        <extensions><gpxtpx:TrackPointExtension><gpxtpx:hr>112</gpxtpx:hr></gpxtpx:TrackPointExtension></extensions>
      </trkpt>
      <trkpt lat="59.219907" lon="17.907474">
        <ele>45.8</ele>
        <time>2020-03-26T14:21:35Z</time>
        <extensions><gpxtpx:TrackPointExtension><gpxtpx:hr>111</gpxtpx:hr></gpxtpx:TrackPointExtension></extensions>
      </trkpt>
      <trkpt lat="59.219875" lon="17.907405">
        <ele>45.8</ele>
        <time>2020-03-26T14:21:36Z</time>
        <extensions><gpxtpx:TrackPointExtension><gpxtpx:hr>109</gpxtpx:hr></gpxtpx:TrackPointExtension></extensions>
      </trkpt>
      <trkpt lat="59.219845" lon="17.907342">
        <ele>45.8</ele>
        <time>2020-03-26T14:21:37Z</time>
        <extensions><gpxtpx:TrackPointExtension><gpxtpx:hr>108</gpxtpx:hr></gpxtpx:TrackPointExtension></extensions>
      </trkpt>
      <trkpt lat="59.219821" lon="17.907279">
        <ele>45.8</ele>
        <time>2020-03-26T14:21:38Z</time>
        <extensions><gpxtpx:TrackPointExtension><gpxtpx:hr>107</gpxtpx:hr></gpxtpx:TrackPointExtension></extensions>
      </trkpt>
      <trkpt lat="59.219807" lon="17.907227">
        <ele>45.8</ele>
        <time>2020-03-26T14:21:39Z</time>
        <extensions><gpxtpx:TrackPointExtension><gpxtpx:hr>107</gpxtpx:hr></gpxtpx:TrackPointExtension></extensions>
      </trkpt>
      <trkpt lat="59.219801" lon="17.907205">
        <ele>45.8</ele>
        <time>2020-03-26T14:21:40Z</time>
        <extensions><gpxtpx:TrackPointExtension><gpxtpx:hr>108</gpxtpx:hr></gpxtpx:TrackPointExtension></extensions>
      </trkpt>
      <trkpt lat="59.219795" lon="17.907204">
        <ele>45.8</ele>
        <time>2020-03-26T14:21:41Z</time>
        <extensions><gpxtpx:TrackPointExtension><gpxtpx:hr>109</gpxtpx:hr></gpxtpx:TrackPointExtension></extensions>
      </trkpt>
      <trkpt lat="59.219795" lon="17.907201">
        <ele>45.8</ele>
        <time>2020-03-26T14:21:42Z</time>
        <extensions><gpxtpx:TrackPointExtension><gpxtpx:hr>111</gpxtpx:hr></gpxtpx:TrackPointExtension></extensions>
      </trkpt>
      <trkpt lat="59.219797" lon="17.9072">
        <ele>46</ele>
        <time>2020-03-26T14:21:43Z</time>
        <extensions><gpxtpx:TrackPointExtension><gpxtpx:hr>112</gpxtpx:hr></gpxtpx:TrackPointExtension></extensions>
      </trkpt>
    </trkseg>
  </trk>
</gpx>